<?xml version='1.0' encoding='UTF-8'?><gpx version="1.1" creator="JPX - https://github.com/jenetics/jpx" xmlns="http://www.topografix.com/GPX/1/1"><trk><trkseg><trkpt lat="37.80175466180553" lon="15.197047668205489"><ele>131.33333333333331</ele><time>2026-04-19T06:46:30.999Z</time></trkpt><trkpt lat="37.80187704890259" lon="15.197172803579694"><ele>131.66666666666666</ele><time>2026-04-19T06:46:32.999Z</time></trkpt><trkpt lat="37.801999519577784" lon="15.197300251458728"><ele>132.0</ele><time>2026-04-19T06:46:33.999Z</time></trkpt><trkpt lat="37.80213093858289" lon="15.197433493862382"><ele>130.5</ele><time>2026-04-19T06:46:34.999Z</time></trkpt><trkpt lat="37.80223778149811" lon="15.19755274466399"><ele>129.0</ele><time>2026-04-19T06:46:35.999Z</time></trkpt><trkpt lat="37.802342082042216" lon="15.197643451181422"><ele>127.5</ele><time>2026-04-19T06:46:36.999Z</time></trkpt><trkpt lat="37.802445927115336" lon="15.197704947370266"><ele>126.0</ele><time>2026-04-19T06:46:37.999Z</time></trkpt><trkpt lat="37.80255935648367" lon="15.197747518310502"><ele>125.8</ele><time>2026-04-19T06:46:38.999Z</time></trkpt><trkpt lat="37.80266987022041" lon="15.197770619225802"><ele>125.6</ele><time>2026-04-19T06:46:39.999Z</time></trkpt><trkpt lat="37.80277292100396" lon="15.19777559834661"><ele>125.4</ele><time>2026-04-19T06:46:40.999Z</time></trkpt><trkpt lat="37.80288056492028" lon="15.197758896279147"><ele>125.2</ele><time>2026-04-19T06:46:41.999Z</time></trkpt><trkpt lat="37.80299489191399" lon="15.197748315900949"><ele>125.0</ele><time>2026-04-19T06:46:42.999Z</time></trkpt><trkpt lat="37.80310834702489" lon="15.197728174672276"><ele>125.0</ele><time>2026-04-19T06:46:43.999Z</time></trkpt><trkpt lat="37.80320426687602" lon="15.197718363169203"><ele>125.0</ele><time>2026-04-19T06:46:44.999Z</time></trkpt><trkpt lat="37.80329128812654" lon="15.197713935062453"><ele>125.0</ele><time>2026-04-19T06:46:45.999Z</time></trkpt><trkpt lat="37.80337486996538" lon="15.197749462870606"><ele>125.0</ele><time>2026-04-19T06:46:46.999Z</time></trkpt><trkpt lat="37.80344121501941" lon="15.197816506391307"><ele>125.0</ele><time>2026-04-19T06:46:47.999Z</time></trkpt><trkpt lat="37.80353399500193" lon="15.197836066746053"><ele>123.6</ele><time>2026-04-19T06:46:48.999Z</time></trkpt><trkpt lat="37.80361746242203" lon="15.197801775518494"><ele>122.2</ele><time>2026-04-19T06:46:49.998Z</time></trkpt><trkpt lat="37.80368061613921" lon="15.197673160432483"><ele>120.80000000000001</ele><time>2026-04-19T06:46:50.998Z</time></trkpt><trkpt lat="37.803696274807635" lon="15.197544483840588"><ele>119.4</ele><time>2026-04-19T06:46:51.998Z</time></trkpt><trkpt lat="37.803653997291114" lon="15.197427652309313"><ele>118.0</ele><time>2026-04-19T06:46:52.998Z</time></trkpt><trkpt lat="37.80354905713001" lon="15.197321065343518"><ele>120.75</ele><time>2026-04-19T06:46:53.998Z</time></trkpt><trkpt lat="37.80343135219246" lon="15.197206810506982"><ele>123.5</ele><time>2026-04-19T06:46:54.998Z</time></trkpt><trkpt lat="37.803357702035626" lon="15.197091380128256"><ele>126.25</ele><time>2026-04-19T06:46:55.998Z</time></trkpt><trkpt lat="37.80333193507986" lon="15.19690178534462"><ele>129.0</ele><time>2026-04-19T06:46:56.998Z</time></trkpt><trkpt lat="37.80336405503752" lon="15.196669961391118"><ele>131.33333333333334</ele><time>2026-04-19T06:46:57.998Z</time></trkpt><trkpt lat="37.80334081952537" lon="15.196464255797414"><ele>133.66666666666669</ele><time>2026-04-19T06:46:58.998Z</time></trkpt><trkpt lat="37.8033189229253" lon="15.196270329619649"><ele>136.0</ele><time>2026-04-19T06:46:59.998Z</time></trkpt><trkpt lat="37.803296758252515" lon="15.196081302604144"><ele>136.0</ele><time>2026-04-19T06:47:00.998Z</time></trkpt><trkpt lat="37.803273212617434" lon="15.195880498314681"><ele>136.0</ele><time>2026-04-19T06:47:01.998Z</time></trkpt><trkpt lat="37.803251100120775" lon="15.195691916090341"><ele>136.0</ele><time>2026-04-19T06:47:02.998Z</time></trkpt><trkpt lat="37.80320150965377" lon="15.19550102786321"><ele>136.66666666666669</ele><time>2026-04-19T06:47:03.998Z</time></trkpt><trkpt lat="37.80313514655279" lon="15.195293994228598"><ele>137.33333333333334</ele><time>2026-04-19T06:47:04.998Z</time></trkpt><trkpt lat="37.803042513254056" lon="15.195078486861902"><ele>138.0</ele><time>2026-04-19T06:47:05.998Z</time></trkpt><trkpt lat="37.802963400916255" lon="15.194866088653415"><ele>139.0</ele><time>2026-04-19T06:47:06.998Z</time></trkpt><trkpt lat="37.802881191900646" lon="15.1946561504161"><ele>140.0</ele><time>2026-04-19T06:47:07.998Z</time></trkpt><trkpt lat="37.8027811261684" lon="15.194423727522475"><ele>141.0</ele><time>2026-04-19T06:47:08.998Z</time></trkpt><trkpt lat="37.802664068033536" lon="15.194179696676999"><ele>143.0</ele><time>2026-04-19T06:47:09.998Z</time></trkpt><trkpt lat="37.80255941544279" lon="15.19394540817922"><ele>145.0</ele><time>2026-04-19T06:47:10.998Z</time></trkpt><trkpt lat="37.80245934648029" lon="15.193762332271348"><ele>147.0</ele><time>2026-04-19T06:47:11.998Z</time></trkpt><trkpt lat="37.802366932549575" lon="15.19359884994027"><ele>147.0</ele><time>2026-04-19T06:47:12.998Z</time></trkpt><trkpt lat="37.802276214263706" lon="15.193438367240812"><ele>147.0</ele><time>2026-04-19T06:47:13.998Z</time></trkpt><trkpt lat="37.80217118383302" lon="15.193287476349814"><ele>147.0</ele><time>2026-04-19T06:47:14.998Z</time></trkpt><trkpt lat="37.80209081846531" lon="15.193105582514145"><ele>150.25</ele><time>2026-04-19T06:47:15.998Z</time></trkpt><trkpt lat="37.80199902597572" lon="15.1929394056949"><ele>153.5</ele><time>2026-04-19T06:47:16.998Z</time></trkpt><trkpt lat="37.8019214956686" lon="15.192792006637264"><ele>156.75</ele><time>2026-04-19T06:47:17.998Z</time></trkpt><trkpt lat="37.801861628644076" lon="15.192659472148573"><ele>160.0</ele><time>2026-04-19T06:47:18.998Z</time></trkpt><trkpt lat="37.80183607093924" lon="15.192534826143067"><ele>159.25</ele><time>2026-04-19T06:47:19.998Z</time></trkpt><trkpt lat="37.80182314822869" lon="15.192408733863523"><ele>158.5</ele><time>2026-04-19T06:47:20.998Z</time></trkpt><trkpt lat="37.801902393238315" lon="15.192314690921997"><ele>157.75</ele><time>2026-04-19T06:47:21.998Z</time></trkpt><trkpt lat="37.80202475300883" lon="15.192279531126665"><ele>157.0</ele><time>2026-04-19T06:47:22.998Z</time></trkpt><trkpt lat="37.802168358992624" lon="15.192307128640033"><ele>158.0</ele><time>2026-04-19T06:47:23.998Z</time></trkpt><trkpt lat="37.80232700714105" lon="15.192386093591903"><ele>159.0</ele><time>2026-04-19T06:47:24.998Z</time></trkpt><trkpt lat="37.802480421657364" lon="15.192453748107368"><ele>160.0</ele><time>2026-04-19T06:47:25.997Z</time></trkpt><trkpt lat="37.802632479483414" lon="15.192509435854632"><ele>162.66666666666669</ele><time>2026-04-19T06:47:26.997Z</time></trkpt><trkpt lat="37.80280558139056" lon="15.19255498512012"><ele>165.33333333333334</ele><time>2026-04-19T06:47:27.997Z</time></trkpt><trkpt lat="37.802984405083514" lon="15.192593637028178"><ele>168.0</ele><time>2026-04-19T06:47:28.997Z</time></trkpt><trkpt lat="37.803173475138834" lon="15.192637370499673"><ele>168.0</ele><time>2026-04-19T06:47:29.997Z</time></trkpt><trkpt lat="37.80336309727283" lon="15.192684687375355"><ele>168.0</ele><time>2026-04-19T06:47:30.997Z</time></trkpt><trkpt lat="37.803532160645105" lon="15.192722160578766"><ele>168.0</ele><time>2026-04-19T06:47:31.997Z</time></trkpt><trkpt lat="37.80367100019108" lon="15.192752921625068"><ele>167.4</ele><time>2026-04-19T06:47:32.997Z</time></trkpt><trkpt lat="37.80378204334259" lon="15.192786080824133"><ele>166.8</ele><time>2026-04-19T06:47:33.997Z</time></trkpt><trkpt lat="37.80387825402558" lon="15.192802480808794"><ele>166.2</ele><time>2026-04-19T06:47:34.997Z</time></trkpt><trkpt lat="37.803944704959925" lon="15.192750599587036"><ele>165.6</ele><time>2026-04-19T06:47:35.997Z</time></trkpt><trkpt lat="37.80396951501302" lon="15.192631364250333"><ele>165.0</ele><time>2026-04-19T06:47:36.997Z</time></trkpt><trkpt lat="37.80394159095728" lon="15.192505316282093"><ele>165.0</ele><time>2026-04-19T06:47:37.997Z</time></trkpt><trkpt lat="37.803849374371445" lon="15.192406513880528"><ele>165.0</ele><time>2026-04-19T06:47:38.997Z</time></trkpt><trkpt lat="37.803709216144924" lon="15.192332456655807"><ele>165.0</ele><time>2026-04-19T06:47:39.997Z</time></trkpt><trkpt lat="37.803548731602085" lon="15.192239459156909"><ele>165.0</ele><time>2026-04-19T06:47:40.997Z</time></trkpt><trkpt lat="37.80338133181351" lon="15.19213801608457"><ele>173.33333333333334</ele><time>2026-04-19T06:47:41.997Z</time></trkpt><trkpt lat="37.803214992386756" lon="15.192036501588156"><ele>181.66666666666669</ele><time>2026-04-19T06:47:42.997Z</time></trkpt><trkpt lat="37.8030387257226" lon="15.191923200014688"><ele>190.0</ele><time>2026-04-19T06:47:43.997Z</time></trkpt><trkpt lat="37.80288030348947" lon="15.191815875088515"><ele>190.0</ele><time>2026-04-19T06:47:44.997Z</time></trkpt><trkpt lat="37.80273340742476" lon="15.191691818400908"><ele>190.0</ele><time>2026-04-19T06:47:45.997Z</time></trkpt><trkpt lat="37.80256858449965" lon="15.191551314265887"><ele>190.0</ele><time>2026-04-19T06:47:46.997Z</time></trkpt><trkpt lat="37.80236249789614" lon="15.191493477247825"><ele>193.0</ele><time>2026-04-19T06:47:47.997Z</time></trkpt><trkpt lat="37.80214328483076" lon="15.191452745415182"><ele>196.0</ele><time>2026-04-19T06:47:48.997Z</time></trkpt><trkpt lat="37.801947234599176" lon="15.191394275514375"><ele>199.0</ele><time>2026-04-19T06:47:49.997Z</time></trkpt><trkpt lat="37.80181741407644" lon="15.191304301380448"><ele>199.0</ele><time>2026-04-19T06:47:50.997Z</time></trkpt><trkpt lat="37.80168809158603" lon="15.191225642694084"><ele>199.0</ele><time>2026-04-19T06:47:51.997Z</time></trkpt><trkpt lat="37.80155128683078" lon="15.191207627479193"><ele>199.0</ele><time>2026-04-19T06:47:52.997Z</time></trkpt><trkpt lat="37.8013911855455" lon="15.191193366330195"><ele>199.0</ele><time>2026-04-19T06:47:53.997Z</time></trkpt><trkpt lat="37.80121416254401" lon="15.191260545129005"><ele>199.0</ele><time>2026-04-19T06:47:54.997Z</time></trkpt><trkpt lat="37.80105868818702" lon="15.191337442840082"><ele>199.0</ele><time>2026-04-19T06:47:55.997Z</time></trkpt><trkpt lat="37.800921520083364" lon="15.191376693485116"><ele>199.0</ele><time>2026-04-19T06:47:56.997Z</time></trkpt><trkpt lat="37.80080318415308" lon="15.191416943012799"><ele>199.0</ele><time>2026-04-19T06:47:57.997Z</time></trkpt><trkpt lat="37.800693811609186" lon="15.191401694268425"><ele>198.79999999999998</ele><time>2026-04-19T06:47:58.997Z</time></trkpt><trkpt lat="37.800600090389814" lon="15.19135868640802"><ele>198.6</ele><time>2026-04-19T06:47:59.997Z</time></trkpt><trkpt lat="37.80054669602981" lon="15.191254797627654"><ele>198.4</ele><time>2026-04-19T06:48:00.997Z</time></trkpt><trkpt lat="37.800520848551635" lon="15.19112860668918"><ele>198.2</ele><time>2026-04-19T06:48:01.997Z</time></trkpt><trkpt lat="37.8005480225191" lon="15.190957929248885"><ele>198.0</ele><time>2026-04-19T06:48:02.996Z</time></trkpt><trkpt lat="37.8005857068138" lon="15.190792973113714"><ele>199.75</ele><time>2026-04-19T06:48:03.996Z</time></trkpt><trkpt lat="37.800641307786364" lon="15.190631296505941"><ele>201.5</ele><time>2026-04-19T06:48:04.996Z</time></trkpt><trkpt lat="37.80066230352262" lon="15.190496592102267"><ele>203.25</ele><time>2026-04-19T06:48:05.996Z</time></trkpt><trkpt lat="37.800653916076016" lon="15.19038420860267"><ele>205.0</ele><time>2026-04-19T06:48:06.996Z</time></trkpt><trkpt lat="37.80060716653334" lon="15.190248565176507"><ele>205.0</ele><time>2026-04-19T06:48:07.996Z</time></trkpt><trkpt lat="37.800448236182234" lon="15.190136204824038"><ele>205.0</ele><time>2026-04-19T06:48:08.996Z</time></trkpt><trkpt lat="37.80034053741677" lon="15.190010657890728"><ele>205.0</ele><time>2026-04-19T06:48:09.996Z</time></trkpt><trkpt lat="37.80023865937455" lon="15.189873890634775"><ele>205.0</ele><time>2026-04-19T06:48:10.996Z</time></trkpt><trkpt lat="37.80013565108037" lon="15.189735606049148"><ele>205.0</ele><time>2026-04-19T06:48:11.996Z</time></trkpt><trkpt lat="37.800022872008654" lon="15.1895842045815"><ele>205.0</ele><time>2026-04-19T06:48:12.996Z</time></trkpt><trkpt lat="37.79990998279021" lon="15.189432655239619"><ele>205.0</ele><time>2026-04-19T06:48:13.996Z</time></trkpt><trkpt lat="37.799804102656346" lon="15.1892905153239"><ele>205.0</ele><time>2026-04-19T06:48:14.996Z</time></trkpt><trkpt lat="37.79969824383251" lon="15.189148404022678"><ele>205.0</ele><time>2026-04-19T06:48:15.996Z</time></trkpt><trkpt lat="37.79958977057745" lon="15.189002782940284"><ele>205.0</ele><time>2026-04-19T06:48:16.996Z</time></trkpt><trkpt lat="37.79946393047759" lon="15.188863943829727"><ele>205.0</ele><time>2026-04-19T06:48:17.996Z</time></trkpt><trkpt lat="37.799359250927765" lon="15.188693319377247"><ele>205.0</ele><time>2026-04-19T06:48:18.996Z</time></trkpt><trkpt lat="37.79924505097984" lon="15.18854116626015"><ele>205.0</ele><time>2026-04-19T06:48:19.996Z</time></trkpt><trkpt lat="37.799129274664324" lon="15.188386722294382"><ele>205.0</ele><time>2026-04-19T06:48:20.996Z</time></trkpt><trkpt lat="37.798996605089975" lon="15.188239010507766"><ele>205.0</ele><time>2026-04-19T06:48:21.996Z</time></trkpt><trkpt lat="37.79889409762177" lon="15.188071783532479"><ele>207.0</ele><time>2026-04-19T06:48:22.996Z</time></trkpt><trkpt lat="37.79879212823477" lon="15.187951517341283"><ele>209.0</ele><time>2026-04-19T06:48:23.996Z</time></trkpt><trkpt lat="37.79871898920446" lon="15.187860758225922"><ele>211.0</ele><time>2026-04-19T06:48:24.996Z</time></trkpt><trkpt lat="37.79868055576228" lon="15.187777758302655"><ele>213.0</ele><time>2026-04-19T06:48:25.996Z</time></trkpt><trkpt lat="37.798692754276004" lon="15.187688278215948"><ele>215.0</ele><time>2026-04-19T06:48:26.996Z</time></trkpt><trkpt lat="37.79876432735184" lon="15.187613419833767"><ele>215.0</ele><time>2026-04-19T06:48:27.996Z</time></trkpt><trkpt lat="37.79889892958366" lon="15.187610616903225"><ele>215.0</ele><time>2026-04-19T06:48:28.996Z</time></trkpt><trkpt lat="37.79902830793113" lon="15.18753671146175"><ele>215.0</ele><time>2026-04-19T06:48:29.996Z</time></trkpt><trkpt lat="37.799185407922934" lon="15.187495268548009"><ele>215.0</ele><time>2026-04-19T06:48:30.996Z</time></trkpt><trkpt lat="37.79932819106005" lon="15.18744513835891"><ele>216.25</ele><time>2026-04-19T06:48:31.996Z</time></trkpt><trkpt lat="37.79946833207295" lon="15.187390827978197"><ele>217.5</ele><time>2026-04-19T06:48:32.996Z</time></trkpt><trkpt lat="37.799611209001235" lon="15.187348902744196"><ele>218.75</ele><time>2026-04-19T06:48:33.996Z</time></trkpt><trkpt lat="37.79974398627423" lon="15.18730004832477"><ele>220.0</ele><time>2026-04-19T06:48:34.996Z</time></trkpt><trkpt lat="37.7998665993785" lon="15.187218571386037"><ele>221.2</ele><time>2026-04-19T06:48:35.996Z</time></trkpt><trkpt lat="37.799981975002545" lon="15.187154757567033"><ele>222.4</ele><time>2026-04-19T06:48:36.996Z</time></trkpt><trkpt lat="37.80009851740428" lon="15.187113087901416"><ele>223.60000000000002</ele><time>2026-04-19T06:48:37.996Z</time></trkpt><trkpt lat="37.80017565387109" lon="15.18710543050685"><ele>224.8</ele><time>2026-04-19T06:48:38.996Z</time></trkpt><trkpt lat="37.800261986922784" lon="15.18713409138983"><ele>226.0</ele><time>2026-04-19T06:48:39.996Z</time></trkpt><trkpt lat="37.80030901549075" lon="15.187237891363033"><ele>226.4</ele><time>2026-04-19T06:48:40.995Z</time></trkpt><trkpt lat="37.80037487816525" lon="15.18732734152073"><ele>226.8</ele><time>2026-04-19T06:48:41.995Z</time></trkpt><trkpt lat="37.800444135740065" lon="15.187429553742712"><ele>227.20000000000002</ele><time>2026-04-19T06:48:42.995Z</time></trkpt><trkpt lat="37.8004946998835" lon="15.187518637680084"><ele>227.60000000000002</ele><time>2026-04-19T06:48:43.995Z</time></trkpt><trkpt lat="37.800554545973846" lon="15.18759774786036"><ele>228.0</ele><time>2026-04-19T06:48:44.995Z</time></trkpt><trkpt lat="37.80061315111924" lon="15.187673914609134"><ele>228.0</ele><time>2026-04-19T06:48:45.995Z</time></trkpt><trkpt lat="37.80067111920647" lon="15.187758357364645"><ele>228.0</ele><time>2026-04-19T06:48:46.995Z</time></trkpt><trkpt lat="37.800724864354386" lon="15.187828526728365"><ele>228.0</ele><time>2026-04-19T06:48:47.995Z</time></trkpt><trkpt lat="37.80078169147978" lon="15.187885002295596"><ele>228.0</ele><time>2026-04-19T06:48:48.995Z</time></trkpt><trkpt lat="37.800881589605595" lon="15.187943901528186"><ele>228.0</ele><time>2026-04-19T06:48:50.995Z</time></trkpt><trkpt lat="37.80098045698835" lon="15.187911618646037"><ele>230.8</ele><time>2026-04-19T06:48:52.995Z</time></trkpt><trkpt lat="37.80102191207556" lon="15.187849686696062"><ele>233.60000000000002</ele><time>2026-04-19T06:48:53.995Z</time></trkpt><trkpt lat="37.80104206179854" lon="15.187761569280719"><ele>236.39999999999998</ele><time>2026-04-19T06:48:54.995Z</time></trkpt><trkpt lat="37.80105301384284" lon="15.18765169321188"><ele>239.2</ele><time>2026-04-19T06:48:55.995Z</time></trkpt><trkpt lat="37.80105485108992" lon="15.187503104987236"><ele>242.0</ele><time>2026-04-19T06:48:56.995Z</time></trkpt><trkpt lat="37.80107682395008" lon="15.187344592405836"><ele>244.0</ele><time>2026-04-19T06:48:57.995Z</time></trkpt><trkpt lat="37.80107762110381" lon="15.18713442023467"><ele>246.0</ele><time>2026-04-19T06:48:58.995Z</time></trkpt><trkpt lat="37.801070389343444" lon="15.186939206160853"><ele>248.0</ele><time>2026-04-19T06:48:59.995Z</time></trkpt><trkpt lat="37.801072079553755" lon="15.186790303897808"><ele>250.0</ele><time>2026-04-19T06:49:00.995Z</time></trkpt><trkpt lat="37.80107107579607" lon="15.186668582354676"><ele>249.99999999999997</ele><time>2026-04-19T06:49:01.995Z</time></trkpt><trkpt lat="37.80109905505739" lon="15.186529237088692"><ele>250.0</ele><time>2026-04-19T06:49:03.995Z</time></trkpt><trkpt lat="37.80117817949331" lon="15.186507452874244"><ele>250.0</ele><time>2026-04-19T06:49:04.995Z</time></trkpt><trkpt lat="37.801241196950684" lon="15.186514464768303"><ele>250.0</ele><time>2026-04-19T06:49:05.995Z</time></trkpt><trkpt lat="37.80131683935429" lon="15.186531919468068"><ele>249.99999999999997</ele><time>2026-04-19T06:49:06.995Z</time></trkpt><trkpt lat="37.8013685069215" lon="15.186651541867374"><ele>250.0</ele><time>2026-04-19T06:49:07.995Z</time></trkpt><trkpt lat="37.8013924504156" lon="15.186761714932711"><ele>250.0</ele><time>2026-04-19T06:49:08.995Z</time></trkpt><trkpt lat="37.80143834752298" lon="15.186853600014146"><ele>250.0</ele><time>2026-04-19T06:49:09.995Z</time></trkpt><trkpt lat="37.80147020292968" lon="15.18693985745335"><ele>250.0</ele><time>2026-04-19T06:49:10.995Z</time></trkpt><trkpt lat="37.80152871746084" lon="15.187029365156905"><ele>250.0</ele><time>2026-04-19T06:49:11.995Z</time></trkpt><trkpt lat="37.8015940860097" lon="15.18712481245517"><ele>250.0</ele><time>2026-04-19T06:49:12.995Z</time></trkpt><trkpt lat="37.80165717424802" lon="15.187224175463593"><ele>250.0</ele><time>2026-04-19T06:49:13.995Z</time></trkpt><trkpt lat="37.80172182114607" lon="15.187328694854383"><ele>250.0</ele><time>2026-04-19T06:49:14.995Z</time></trkpt><trkpt lat="37.80179530058644" lon="15.187418521352408"><ele>250.0</ele><time>2026-04-19T06:49:15.995Z</time></trkpt><trkpt lat="37.801864363677346" lon="15.187493536662187"><ele>250.0</ele><time>2026-04-19T06:49:16.995Z</time></trkpt><trkpt lat="37.80193721950251" lon="15.187558464145123"><ele>250.0</ele><time>2026-04-19T06:49:17.994Z</time></trkpt><trkpt lat="37.80199911145546" lon="15.187612777308571"><ele>250.0</ele><time>2026-04-19T06:49:18.994Z</time></trkpt><trkpt lat="37.8021158132854" lon="15.187664528220214"><ele>250.0</ele><time>2026-04-19T06:49:20.994Z</time></trkpt><trkpt lat="37.80219654893098" lon="15.187650976629152"><ele>250.0</ele><time>2026-04-19T06:49:21.994Z</time></trkpt><trkpt lat="37.80229479991288" lon="15.18761870534071"><ele>250.0</ele><time>2026-04-19T06:49:22.994Z</time></trkpt><trkpt lat="37.8023897670657" lon="15.187564341834092"><ele>250.0</ele><time>2026-04-19T06:49:23.994Z</time></trkpt><trkpt lat="37.80247591572262" lon="15.187501202661055"><ele>249.99999999999997</ele><time>2026-04-19T06:49:24.994Z</time></trkpt><trkpt lat="37.80255376237121" lon="15.18743724231979"><ele>250.0</ele><time>2026-04-19T06:49:25.994Z</time></trkpt><trkpt lat="37.80261906808104" lon="15.187373652243982"><ele>250.0</ele><time>2026-04-19T06:49:26.994Z</time></trkpt><trkpt lat="37.80268840122351" lon="15.187311681188381"><ele>250.0</ele><time>2026-04-19T06:49:27.994Z</time></trkpt><trkpt lat="37.802753975106306" lon="15.187243951401827"><ele>249.99999999999997</ele><time>2026-04-19T06:49:28.994Z</time></trkpt><trkpt lat="37.80282550882439" lon="15.187207771397775"><ele>250.0</ele><time>2026-04-19T06:49:29.994Z</time></trkpt><trkpt lat="37.80287339740261" lon="15.187137847916656"><ele>250.71428571428572</ele><time>2026-04-19T06:49:30.994Z</time></trkpt><trkpt lat="37.80288124327032" lon="15.187056846164312"><ele>251.42857142857144</ele><time>2026-04-19T06:49:31.994Z</time></trkpt><trkpt lat="37.80289686273913" lon="15.186966947924853"><ele>252.14285714285717</ele><time>2026-04-19T06:49:32.994Z</time></trkpt><trkpt lat="37.80292988339381" lon="15.186882937880313"><ele>252.85714285714286</ele><time>2026-04-19T06:49:33.994Z</time></trkpt><trkpt lat="37.802949022517" lon="15.186793108559126"><ele>253.5714285714286</ele><time>2026-04-19T06:49:34.994Z</time></trkpt><trkpt lat="37.802946675275855" lon="15.18671013285347"><ele>254.2857142857143</ele><time>2026-04-19T06:49:35.994Z</time></trkpt><trkpt lat="37.802962767094336" lon="15.186626327184905"><ele>255.0</ele><time>2026-04-19T06:49:36.994Z</time></trkpt><trkpt lat="37.80291480185822" lon="15.186532326243"><ele>256.75</ele><time>2026-04-19T06:49:37.994Z</time></trkpt><trkpt lat="37.80285072985972" lon="15.186443519576253"><ele>258.5</ele><time>2026-04-19T06:49:38.994Z</time></trkpt><trkpt lat="37.80273976959594" lon="15.186355213329973"><ele>260.25</ele><time>2026-04-19T06:49:39.994Z</time></trkpt><trkpt lat="37.80262142783051" lon="15.186216591153162"><ele>262.0</ele><time>2026-04-19T06:49:40.994Z</time></trkpt><trkpt lat="37.80248342483276" lon="15.186069881705528"><ele>263.0</ele><time>2026-04-19T06:49:41.994Z</time></trkpt><trkpt lat="37.802317907816125" lon="15.185885543909707"><ele>264.0</ele><time>2026-04-19T06:49:42.994Z</time></trkpt><trkpt lat="37.802192970412825" lon="15.185692398593835"><ele>265.0</ele><time>2026-04-19T06:49:43.994Z</time></trkpt><trkpt lat="37.80210491864928" lon="15.185474341870165"><ele>267.5</ele><time>2026-04-19T06:49:44.994Z</time></trkpt><trkpt lat="37.802026661753395" lon="15.185264163943012"><ele>270.0</ele><time>2026-04-19T06:49:45.994Z</time></trkpt><trkpt lat="37.801983315117766" lon="15.185128994730656"><ele>272.5</ele><time>2026-04-19T06:49:46.994Z</time></trkpt><trkpt lat="37.801959987667885" lon="15.185045953069622"><ele>275.0</ele><time>2026-04-19T06:49:47.994Z</time></trkpt><trkpt lat="37.80204715650839" lon="15.184955507920016"><ele>275.0</ele><time>2026-04-19T06:49:49.994Z</time></trkpt><trkpt lat="37.802133054824395" lon="15.184989288302427"><ele>275.0</ele><time>2026-04-19T06:49:50.994Z</time></trkpt><trkpt lat="37.80223126365314" lon="15.185059062010048"><ele>275.0</ele><time>2026-04-19T06:49:51.994Z</time></trkpt><trkpt lat="37.802336250698424" lon="15.185088736231618"><ele>275.0</ele><time>2026-04-19T06:49:52.994Z</time></trkpt><trkpt lat="37.802439987596834" lon="15.18504478265214"><ele>275.0</ele><time>2026-04-19T06:49:53.994Z</time></trkpt><trkpt lat="37.80254476550324" lon="15.184898993751016"><ele>277.0</ele><time>2026-04-19T06:49:54.993Z</time></trkpt><trkpt lat="37.802636315420806" lon="15.184699977193509"><ele>279.0</ele><time>2026-04-19T06:49:55.993Z</time></trkpt><trkpt lat="37.80272042184922" lon="15.184480443535387"><ele>281.0</ele><time>2026-04-19T06:49:56.993Z</time></trkpt><trkpt lat="37.802822211600876" lon="15.184286449407951"><ele>281.0</ele><time>2026-04-19T06:49:57.993Z</time></trkpt><trkpt lat="37.802889222537104" lon="15.184076194120255"><ele>281.0</ele><time>2026-04-19T06:49:58.993Z</time></trkpt><trkpt lat="37.80295003035489" lon="15.18385468004995"><ele>281.0</ele><time>2026-04-19T06:49:59.993Z</time></trkpt><trkpt lat="37.80299087405952" lon="15.183617999338988"><ele>283.33333333333337</ele><time>2026-04-19T06:50:00.993Z</time></trkpt><trkpt lat="37.80303158613237" lon="15.183410621466074"><ele>285.6666666666667</ele><time>2026-04-19T06:50:01.993Z</time></trkpt><trkpt lat="37.8030721010566" lon="15.18321542322153"><ele>288.0</ele><time>2026-04-19T06:50:02.993Z</time></trkpt><trkpt lat="37.80310791026798" lon="15.183023355073255"><ele>291.3333333333333</ele><time>2026-04-19T06:50:03.993Z</time></trkpt><trkpt lat="37.803137198440524" lon="15.18282882444701"><ele>294.66666666666663</ele><time>2026-04-19T06:50:04.993Z</time></trkpt><trkpt lat="37.803154438812875" lon="15.1826210827282"><ele>298.0</ele><time>2026-04-19T06:50:05.993Z</time></trkpt><trkpt lat="37.80315447952951" lon="15.182403439701035"><ele>300.3333333333333</ele><time>2026-04-19T06:50:06.993Z</time></trkpt><trkpt lat="37.803137936348485" lon="15.182163907853248"><ele>302.6666666666667</ele><time>2026-04-19T06:50:07.993Z</time></trkpt><trkpt lat="37.80313830892046" lon="15.181929060408477"><ele>305.0</ele><time>2026-04-19T06:50:08.993Z</time></trkpt><trkpt lat="37.80315539676816" lon="15.181685974510755"><ele>306.33333333333337</ele><time>2026-04-19T06:50:09.993Z</time></trkpt><trkpt lat="37.80314883584175" lon="15.181437930119563"><ele>307.6666666666667</ele><time>2026-04-19T06:50:10.993Z</time></trkpt><trkpt lat="37.80316349680411" lon="15.181185184155831"><ele>309.0</ele><time>2026-04-19T06:50:11.993Z</time></trkpt><trkpt lat="37.80316367081519" lon="15.180963643427868"><ele>309.0</ele><time>2026-04-19T06:50:12.993Z</time></trkpt><trkpt lat="37.80317501604228" lon="15.180744848483801"><ele>309.0</ele><time>2026-04-19T06:50:13.993Z</time></trkpt><trkpt lat="37.80318036548143" lon="15.180513440262363"><ele>309.0</ele><time>2026-04-19T06:50:14.993Z</time></trkpt><trkpt lat="37.80319923687319" lon="15.18029574734048"><ele>311.3333333333333</ele><time>2026-04-19T06:50:15.993Z</time></trkpt><trkpt lat="37.80320694745101" lon="15.180085286033236"><ele>313.66666666666663</ele><time>2026-04-19T06:50:16.993Z</time></trkpt><trkpt lat="37.80323205328465" lon="15.179889365615043"><ele>316.0</ele><time>2026-04-19T06:50:17.993Z</time></trkpt><trkpt lat="37.80324233697373" lon="15.179718872248944"><ele>318.0</ele><time>2026-04-19T06:50:18.993Z</time></trkpt><trkpt lat="37.80326253797728" lon="15.179577663653346"><ele>320.0</ele><time>2026-04-19T06:50:19.993Z</time></trkpt><trkpt lat="37.803299694465686" lon="15.179454272237361"><ele>322.0</ele><time>2026-04-19T06:50:20.993Z</time></trkpt><trkpt lat="37.80339401038269" lon="15.179362647255639"><ele>324.0</ele><time>2026-04-19T06:50:21.993Z</time></trkpt><trkpt lat="37.80347928588838" lon="15.1792313605774"><ele>324.6</ele><time>2026-04-19T06:50:22.993Z</time></trkpt><trkpt lat="37.803547708376776" lon="15.179126020120139"><ele>325.2</ele><time>2026-04-19T06:50:23.993Z</time></trkpt><trkpt lat="37.80359643410507" lon="15.179018109469318"><ele>325.8</ele><time>2026-04-19T06:50:24.993Z</time></trkpt><trkpt lat="37.803673001245926" lon="15.178944641669675"><ele>326.40000000000003</ele><time>2026-04-19T06:50:25.993Z</time></trkpt><trkpt lat="37.803725810834536" lon="15.178864058112614"><ele>327.0</ele><time>2026-04-19T06:50:26.993Z</time></trkpt><trkpt lat="37.80377200427359" lon="15.178780412999066"><ele>327.5</ele><time>2026-04-19T06:50:27.993Z</time></trkpt><trkpt lat="37.80382901255775" lon="15.178722575323569"><ele>328.0</ele><time>2026-04-19T06:50:28.993Z</time></trkpt><trkpt lat="37.80389968928589" lon="15.17870738141728"><ele>328.5</ele><time>2026-04-19T06:50:29.993Z</time></trkpt><trkpt lat="37.8039763396508" lon="15.178749603649399"><ele>329.0</ele><time>2026-04-19T06:50:30.993Z</time></trkpt><trkpt lat="37.80403924204312" lon="15.178804058288172"><ele>329.5</ele><time>2026-04-19T06:50:31.993Z</time></trkpt><trkpt lat="37.80410992342066" lon="15.178861201291532"><ele>330.0</ele><time>2026-04-19T06:50:32.992Z</time></trkpt><trkpt lat="37.804173706812776" lon="15.178916998080394"><ele>330.0</ele><time>2026-04-19T06:50:33.992Z</time></trkpt><trkpt lat="37.80424976093568" lon="15.178974257128516"><ele>330.0</ele><time>2026-04-19T06:50:34.992Z</time></trkpt><trkpt lat="37.80431540196183" lon="15.17904919557313"><ele>330.0</ele><time>2026-04-19T06:50:35.992Z</time></trkpt><trkpt lat="37.80437835924882" lon="15.179136010329243"><ele>330.0</ele><time>2026-04-19T06:50:36.992Z</time></trkpt><trkpt lat="37.80445460057293" lon="15.179245398692286"><ele>330.0</ele><time>2026-04-19T06:50:37.992Z</time></trkpt><trkpt lat="37.80452758203144" lon="15.17937212089335"><ele>331.4</ele><time>2026-04-19T06:50:38.992Z</time></trkpt><trkpt lat="37.80458508626819" lon="15.179491469843558"><ele>332.8</ele><time>2026-04-19T06:50:39.992Z</time></trkpt><trkpt lat="37.804645314976575" lon="15.179605359398131"><ele>334.20000000000005</ele><time>2026-04-19T06:50:40.992Z</time></trkpt><trkpt lat="37.80471325530118" lon="15.17971785018518"><ele>335.6</ele><time>2026-04-19T06:50:41.992Z</time></trkpt><trkpt lat="37.80476720211917" lon="15.179811770443767"><ele>337.0</ele><time>2026-04-19T06:50:42.992Z</time></trkpt><trkpt lat="37.804821646835094" lon="15.179901995209576"><ele>337.0</ele><time>2026-04-19T06:50:43.992Z</time></trkpt><trkpt lat="37.80486475590919" lon="15.179976107136032"><ele>337.0</ele><time>2026-04-19T06:50:44.992Z</time></trkpt><trkpt lat="37.80491913904068" lon="15.180023847285533"><ele>337.0</ele><time>2026-04-19T06:50:45.992Z</time></trkpt><trkpt lat="37.80497455773856" lon="15.180078744185247"><ele>337.0</ele><time>2026-04-19T06:50:46.992Z</time></trkpt><trkpt lat="37.8050951207872" lon="15.180126326763654"><ele>337.0</ele><time>2026-04-19T06:50:48.992Z</time></trkpt><trkpt lat="37.80516052387562" lon="15.180155900092767"><ele>337.0</ele><time>2026-04-19T06:50:49.992Z</time></trkpt><trkpt lat="37.80523075111302" lon="15.180187654762515"><ele>337.8</ele><time>2026-04-19T06:50:50.992Z</time></trkpt><trkpt lat="37.80530256096638" lon="15.180202484678581"><ele>338.6</ele><time>2026-04-19T06:50:51.992Z</time></trkpt><trkpt lat="37.805371423501406" lon="15.180188122650378"><ele>339.40000000000003</ele><time>2026-04-19T06:50:52.992Z</time></trkpt><trkpt lat="37.805489507196505" lon="15.180195008953044"><ele>340.20000000000005</ele><time>2026-04-19T06:50:54.992Z</time></trkpt><trkpt lat="37.80558998855114" lon="15.180201592265693"><ele>341.0</ele><time>2026-04-19T06:50:56.992Z</time></trkpt><trkpt lat="37.80567677726299" lon="15.180159741571263"><ele>341.0</ele><time>2026-04-19T06:50:58.992Z</time></trkpt><trkpt lat="37.80569818528319" lon="15.180041894588992"><ele>341.0</ele><time>2026-04-19T06:51:00.992Z</time></trkpt><trkpt lat="37.8056966647159" lon="15.179892493386452"><ele>341.0</ele><time>2026-04-19T06:51:02.992Z</time></trkpt><trkpt lat="37.80570906663016" lon="15.179720759238906"><ele>341.0</ele><time>2026-04-19T06:51:04.992Z</time></trkpt><trkpt lat="37.80568922514014" lon="15.179641281981883"><ele>341.0</ele><time>2026-04-19T06:51:05.992Z</time></trkpt><trkpt lat="37.80567345539745" lon="15.17950677267587"><ele>342.4</ele><time>2026-04-19T06:51:07.992Z</time></trkpt><trkpt lat="37.805702480959006" lon="15.179366202141374"><ele>343.8</ele><time>2026-04-19T06:51:09.991Z</time></trkpt><trkpt lat="37.80570619995502" lon="15.179249748551335"><ele>345.2</ele><time>2026-04-19T06:51:11.991Z</time></trkpt><trkpt lat="37.80571487237696" lon="15.17915283989228"><ele>346.59999999999997</ele><time>2026-04-19T06:51:13.991Z</time></trkpt><trkpt lat="37.80586324629635" lon="15.179211305223747"><ele>348.0</ele><time>2026-04-19T06:51:15.991Z</time></trkpt><trkpt lat="37.80595031719504" lon="15.179211305215933"><ele>348.4</ele><time>2026-04-19T06:51:16.991Z</time></trkpt><trkpt lat="37.806050200652294" lon="15.179212212378506"><ele>348.79999999999995</ele><time>2026-04-19T06:51:17.991Z</time></trkpt><trkpt lat="37.80614644630051" lon="15.179212791096605"><ele>349.2</ele><time>2026-04-19T06:51:18.991Z</time></trkpt><trkpt lat="37.8062581037471" lon="15.17921260658407"><ele>349.6</ele><time>2026-04-19T06:51:19.991Z</time></trkpt><trkpt lat="37.806365485298286" lon="15.179217070679778"><ele>350.0</ele><time>2026-04-19T06:51:20.991Z</time></trkpt><trkpt lat="37.80646501729217" lon="15.179219406578694"><ele>350.0</ele><time>2026-04-19T06:51:21.991Z</time></trkpt><trkpt lat="37.80660229886765" lon="15.179191108151546"><ele>350.0</ele><time>2026-04-19T06:51:23.991Z</time></trkpt><trkpt lat="37.80667218436461" lon="15.179136588327369"><ele>350.0</ele><time>2026-04-19T06:51:24.991Z</time></trkpt><trkpt lat="37.806727085061475" lon="15.179026489749413"><ele>350.0</ele><time>2026-04-19T06:51:25.991Z</time></trkpt><trkpt lat="37.80680161930467" lon="15.178969163163023"><ele>350.0</ele><time>2026-04-19T06:51:26.991Z</time></trkpt><trkpt lat="37.8068590495548" lon="15.178909325319296"><ele>350.83333333333337</ele><time>2026-04-19T06:51:27.991Z</time></trkpt><trkpt lat="37.80695096499555" lon="15.17881339975079"><ele>351.6666666666667</ele><time>2026-04-19T06:51:29.991Z</time></trkpt><trkpt lat="37.80700300498724" lon="15.1787589748902"><ele>352.5</ele><time>2026-04-19T06:51:30.991Z</time></trkpt><trkpt lat="37.80706607841972" lon="15.178693010940767"><ele>353.3333333333333</ele><time>2026-04-19T06:51:31.991Z</time></trkpt><trkpt lat="37.80712559010888" lon="15.178628237569791"><ele>354.16666666666663</ele><time>2026-04-19T06:51:32.991Z</time></trkpt><trkpt lat="37.80719293653059" lon="15.178558128747351"><ele>355.0</ele><time>2026-04-19T06:51:33.991Z</time></trkpt><trkpt lat="37.80728828221631" lon="15.178458643832895"><ele>355.0</ele><time>2026-04-19T06:51:34.991Z</time></trkpt><trkpt lat="37.807387823673714" lon="15.178354781014784"><ele>355.0</ele><time>2026-04-19T06:51:35.991Z</time></trkpt><trkpt lat="37.80749553595669" lon="15.178242392643302"><ele>355.0</ele><time>2026-04-19T06:51:36.991Z</time></trkpt><trkpt lat="37.80758467174972" lon="15.178131256004754"><ele>355.0</ele><time>2026-04-19T06:51:37.991Z</time></trkpt><trkpt lat="37.807707720587814" lon="15.178045140208212"><ele>354.75</ele><time>2026-04-19T06:51:38.991Z</time></trkpt><trkpt lat="37.807805027860304" lon="15.177945132433566"><ele>354.5</ele><time>2026-04-19T06:51:39.991Z</time></trkpt><trkpt lat="37.807892392692345" lon="15.177848770137414"><ele>354.25</ele><time>2026-04-19T06:51:40.991Z</time></trkpt><trkpt lat="37.80797451610277" lon="15.177736454487269"><ele>354.0</ele><time>2026-04-19T06:51:41.991Z</time></trkpt><trkpt lat="37.80808030066155" lon="15.177626555004661"><ele>354.0</ele><time>2026-04-19T06:51:42.991Z</time></trkpt><trkpt lat="37.808185875263675" lon="15.177531629200661"><ele>354.0</ele><time>2026-04-19T06:51:43.991Z</time></trkpt><trkpt lat="37.80828205850413" lon="15.177432768493079"><ele>354.0</ele><time>2026-04-19T06:51:44.991Z</time></trkpt><trkpt lat="37.80837684815764" lon="15.177326255060464"><ele>354.0</ele><time>2026-04-19T06:51:45.991Z</time></trkpt><trkpt lat="37.808468606224864" lon="15.177225036394436"><ele>354.75</ele><time>2026-04-19T06:51:46.99Z</time></trkpt><trkpt lat="37.808554892692044" lon="15.177122128921981"><ele>355.5</ele><time>2026-04-19T06:51:47.99Z</time></trkpt><trkpt lat="37.80864887537932" lon="15.177038310981986"><ele>356.25</ele><time>2026-04-19T06:51:48.99Z</time></trkpt><trkpt lat="37.808739907924334" lon="15.176939647979243"><ele>357.0</ele><time>2026-04-19T06:51:49.99Z</time></trkpt><trkpt lat="37.808832634031354" lon="15.176826930513839"><ele>357.0</ele><time>2026-04-19T06:51:50.99Z</time></trkpt><trkpt lat="37.80893792724788" lon="15.176735930911278"><ele>357.0</ele><time>2026-04-19T06:51:51.99Z</time></trkpt><trkpt lat="37.809028159127294" lon="15.176615095753917"><ele>357.0</ele><time>2026-04-19T06:51:52.99Z</time></trkpt><trkpt lat="37.80914471034892" lon="15.176519886550889"><ele>357.0</ele><time>2026-04-19T06:51:53.99Z</time></trkpt><trkpt lat="37.809251664310494" lon="15.176408142412912"><ele>357.75</ele><time>2026-04-19T06:51:54.99Z</time></trkpt><trkpt lat="37.80935831451565" lon="15.176306545916372"><ele>358.5</ele><time>2026-04-19T06:51:55.99Z</time></trkpt><trkpt lat="37.8094587299912" lon="15.176196053286905"><ele>359.25</ele><time>2026-04-19T06:51:56.99Z</time></trkpt><trkpt lat="37.80955479877874" lon="15.17608116897031"><ele>360.0</ele><time>2026-04-19T06:51:57.99Z</time></trkpt><trkpt lat="37.809651931631116" lon="15.175984299045469"><ele>360.0</ele><time>2026-04-19T06:51:58.99Z</time></trkpt><trkpt lat="37.80974945667178" lon="15.175887407649414"><ele>360.0</ele><time>2026-04-19T06:51:59.99Z</time></trkpt><trkpt lat="37.80985030494418" lon="15.175780800694527"><ele>360.0</ele><time>2026-04-19T06:52:00.99Z</time></trkpt><trkpt lat="37.809945399391395" lon="15.175680540288466"><ele>360.0</ele><time>2026-04-19T06:52:01.99Z</time></trkpt><trkpt lat="37.810044195319435" lon="15.175586906803701"><ele>360.5</ele><time>2026-04-19T06:52:02.99Z</time></trkpt><trkpt lat="37.81013491183063" lon="15.175483083854944"><ele>361.0</ele><time>2026-04-19T06:52:03.99Z</time></trkpt><trkpt lat="37.81020375866485" lon="15.175355634446694"><ele>361.5</ele><time>2026-04-19T06:52:04.99Z</time></trkpt><trkpt lat="37.810274553647" lon="15.17519362115552"><ele>362.0</ele><time>2026-04-19T06:52:05.99Z</time></trkpt><trkpt lat="37.81034482316544" lon="15.175015444864227"><ele>363.33333333333337</ele><time>2026-04-19T06:52:06.99Z</time></trkpt><trkpt lat="37.810442861737954" lon="15.174840742072123"><ele>364.6666666666667</ele><time>2026-04-19T06:52:07.99Z</time></trkpt><trkpt lat="37.81053514394204" lon="15.174665747188977"><ele>366.0</ele><time>2026-04-19T06:52:08.99Z</time></trkpt><trkpt lat="37.8106320954549" lon="15.174481689070488"><ele>366.0</ele><time>2026-04-19T06:52:09.99Z</time></trkpt><trkpt lat="37.81073808039316" lon="15.174297391439739"><ele>366.0</ele><time>2026-04-19T06:52:10.99Z</time></trkpt><trkpt lat="37.810838805246135" lon="15.174114829409646"><ele>366.0</ele><time>2026-04-19T06:52:11.99Z</time></trkpt><trkpt lat="37.810925817742024" lon="15.173937735278063"><ele>367.25</ele><time>2026-04-19T06:52:12.99Z</time></trkpt><trkpt lat="37.81101010462703" lon="15.173786802973588"><ele>368.5</ele><time>2026-04-19T06:52:13.99Z</time></trkpt><trkpt lat="37.81109292581886" lon="15.173630354434762"><ele>369.75</ele><time>2026-04-19T06:52:14.99Z</time></trkpt><trkpt lat="37.81117282616163" lon="15.173480449066522"><ele>371.0</ele><time>2026-04-19T06:52:15.99Z</time></trkpt><trkpt lat="37.81125431595779" lon="15.173323298578707"><ele>372.25</ele><time>2026-04-19T06:52:16.99Z</time></trkpt><trkpt lat="37.81133051322188" lon="15.173174521992543"><ele>373.5</ele><time>2026-04-19T06:52:17.99Z</time></trkpt><trkpt lat="37.81140777074121" lon="15.173030661389966"><ele>374.75</ele><time>2026-04-19T06:52:18.99Z</time></trkpt><trkpt lat="37.81149322320212" lon="15.17286615943881"><ele>376.0</ele><time>2026-04-19T06:52:19.99Z</time></trkpt><trkpt lat="37.811579638311294" lon="15.172682915828599"><ele>376.0</ele><time>2026-04-19T06:52:20.99Z</time></trkpt><trkpt lat="37.8116776693633" lon="15.172489420068176"><ele>376.0</ele><time>2026-04-19T06:52:21.99Z</time></trkpt><trkpt lat="37.811773032938554" lon="15.172300250195468"><ele>376.0</ele><time>2026-04-19T06:52:22.99Z</time></trkpt><trkpt lat="37.811843389929464" lon="15.172116478052988"><ele>377.25</ele><time>2026-04-19T06:52:23.989Z</time></trkpt><trkpt lat="37.81190208505991" lon="15.171946694502006"><ele>378.5</ele><time>2026-04-19T06:52:24.989Z</time></trkpt><trkpt lat="37.81194677850607" lon="15.17179125813237"><ele>379.75</ele><time>2026-04-19T06:52:25.989Z</time></trkpt><trkpt lat="37.8120033078211" lon="15.171681002332734"><ele>381.0</ele><time>2026-04-19T06:52:26.989Z</time></trkpt><trkpt lat="37.81208993208781" lon="15.171615874488202"><ele>381.0</ele><time>2026-04-19T06:52:27.989Z</time></trkpt><trkpt lat="37.81220048739992" lon="15.171637975195333"><ele>381.0</ele><time>2026-04-19T06:52:28.989Z</time></trkpt><trkpt lat="37.81232161916708" lon="15.171629406074025"><ele>381.0</ele><time>2026-04-19T06:52:29.989Z</time></trkpt><trkpt lat="37.81244540009142" lon="15.171607513335603"><ele>381.0</ele><time>2026-04-19T06:52:30.989Z</time></trkpt><trkpt lat="37.81254671035144" lon="15.171495017249025"><ele>381.6666666666667</ele><time>2026-04-19T06:52:31.989Z</time></trkpt><trkpt lat="37.812555718071096" lon="15.171286016895747"><ele>382.33333333333337</ele><time>2026-04-19T06:52:32.989Z</time></trkpt><trkpt lat="37.81261998878721" lon="15.171061065797367"><ele>383.0</ele><time>2026-04-19T06:52:33.989Z</time></trkpt><trkpt lat="37.81266812455721" lon="15.170870552306237"><ele>383.5</ele><time>2026-04-19T06:52:34.989Z</time></trkpt><trkpt lat="37.81272884886061" lon="15.17070122525769"><ele>384.0</ele><time>2026-04-19T06:52:35.989Z</time></trkpt><trkpt lat="37.81280311064695" lon="15.170558587239233"><ele>384.5</ele><time>2026-04-19T06:52:36.989Z</time></trkpt><trkpt lat="37.81287269121781" lon="15.170415196983564"><ele>385.0</ele><time>2026-04-19T06:52:37.989Z</time></trkpt><trkpt lat="37.812932881778465" lon="15.170312364124662"><ele>386.2</ele><time>2026-04-19T06:52:38.989Z</time></trkpt><trkpt lat="37.8129915280689" lon="15.170225618118307"><ele>387.4</ele><time>2026-04-19T06:52:39.989Z</time></trkpt><trkpt lat="37.81304131009975" lon="15.170143136218934"><ele>388.6</ele><time>2026-04-19T06:52:40.989Z</time></trkpt><trkpt lat="37.81309124589874" lon="15.170050440671298"><ele>389.8</ele><time>2026-04-19T06:52:41.989Z</time></trkpt><trkpt lat="37.81314216172037" lon="15.169941010423429"><ele>391.0</ele><time>2026-04-19T06:52:42.989Z</time></trkpt><trkpt lat="37.813188361306096" lon="15.169837781578"><ele>391.8</ele><time>2026-04-19T06:52:43.989Z</time></trkpt><trkpt lat="37.813231470247246" lon="15.169751299557365"><ele>392.6</ele><time>2026-04-19T06:52:44.989Z</time></trkpt><trkpt lat="37.813273834397364" lon="15.16965204708113"><ele>393.4</ele><time>2026-04-19T06:52:45.989Z</time></trkpt><trkpt lat="37.81331438230436" lon="15.16953943556636"><ele>394.2</ele><time>2026-04-19T06:52:46.989Z</time></trkpt><trkpt lat="37.81333676969991" lon="15.169406895698735"><ele>395.0</ele><time>2026-04-19T06:52:47.989Z</time></trkpt><trkpt lat="37.81333818635454" lon="15.169248428818292"><ele>395.0</ele><time>2026-04-19T06:52:48.989Z</time></trkpt><trkpt lat="37.81334548713889" lon="15.169065078453677"><ele>395.0</ele><time>2026-04-19T06:52:49.989Z</time></trkpt><trkpt lat="37.81335592492972" lon="15.16887324442412"><ele>395.0</ele><time>2026-04-19T06:52:50.989Z</time></trkpt><trkpt lat="37.81336237205794" lon="15.168680144703458"><ele>395.0</ele><time>2026-04-19T06:52:51.989Z</time></trkpt><trkpt lat="37.813380584728066" lon="15.168485842890501"><ele>395.0</ele><time>2026-04-19T06:52:52.989Z</time></trkpt><trkpt lat="37.813398847090944" lon="15.168297178993756"><ele>395.0</ele><time>2026-04-19T06:52:53.989Z</time></trkpt><trkpt lat="37.81340862913607" lon="15.168111946572594"><ele>396.0</ele><time>2026-04-19T06:52:54.989Z</time></trkpt><trkpt lat="37.81341334064435" lon="15.167931506908467"><ele>397.0</ele><time>2026-04-19T06:52:55.989Z</time></trkpt><trkpt lat="37.81342185474408" lon="15.167739744941063"><ele>398.0</ele><time>2026-04-19T06:52:56.989Z</time></trkpt><trkpt lat="37.81342240814324" lon="15.167547883884701"><ele>399.0</ele><time>2026-04-19T06:52:57.989Z</time></trkpt><trkpt lat="37.81343787631749" lon="15.167346319458316"><ele>400.0</ele><time>2026-04-19T06:52:58.989Z</time></trkpt><trkpt lat="37.813452460080704" lon="15.167140141919466"><ele>401.0</ele><time>2026-04-19T06:52:59.989Z</time></trkpt><trkpt lat="37.813483734846855" lon="15.16693093721207"><ele>402.0</ele><time>2026-04-19T06:53:00.989Z</time></trkpt><trkpt lat="37.81349436100457" lon="15.166711703421074"><ele>405.33333333333337</ele><time>2026-04-19T06:53:01.988Z</time></trkpt><trkpt lat="37.813507199628376" lon="15.166479896189314"><ele>408.6666666666667</ele><time>2026-04-19T06:53:02.988Z</time></trkpt><trkpt lat="37.81351898652833" lon="15.16626763917014"><ele>412.0</ele><time>2026-04-19T06:53:03.988Z</time></trkpt><trkpt lat="37.813530865447376" lon="15.166059040049364"><ele>412.0</ele><time>2026-04-19T06:53:04.988Z</time></trkpt><trkpt lat="37.81354299981381" lon="15.165856479394648"><ele>412.0</ele><time>2026-04-19T06:53:05.988Z</time></trkpt><trkpt lat="37.81355475115707" lon="15.16566031272988"><ele>412.0</ele><time>2026-04-19T06:53:06.988Z</time></trkpt><trkpt lat="37.81356598227839" lon="15.165472829998254"><ele>412.33333333333337</ele><time>2026-04-19T06:53:07.988Z</time></trkpt><trkpt lat="37.813578305365326" lon="15.165267356229503"><ele>412.66666666666663</ele><time>2026-04-19T06:53:08.988Z</time></trkpt><trkpt lat="37.81359091075269" lon="15.165057544733738"><ele>413.0</ele><time>2026-04-19T06:53:09.988Z</time></trkpt><trkpt lat="37.81360549819774" lon="15.164814742763093"><ele>414.66666666666663</ele><time>2026-04-19T06:53:10.988Z</time></trkpt><trkpt lat="37.813608573260474" lon="15.164550468732726"><ele>416.33333333333337</ele><time>2026-04-19T06:53:11.988Z</time></trkpt><trkpt lat="37.81364629544574" lon="15.164291391245467"><ele>418.0</ele><time>2026-04-19T06:53:12.988Z</time></trkpt><trkpt lat="37.81365878791563" lon="15.16406806503593"><ele>418.33333333333337</ele><time>2026-04-19T06:53:13.988Z</time></trkpt><trkpt lat="37.81372292328771" lon="15.163877949235346"><ele>418.66666666666663</ele><time>2026-04-19T06:53:14.988Z</time></trkpt><trkpt lat="37.813800904770105" lon="15.163688574408745"><ele>419.0</ele><time>2026-04-19T06:53:15.988Z</time></trkpt><trkpt lat="37.81388140251107" lon="15.163487719125254"><ele>419.0</ele><time>2026-04-19T06:53:16.988Z</time></trkpt><trkpt lat="37.81396643120004" lon="15.163290543193568"><ele>419.0</ele><time>2026-04-19T06:53:17.988Z</time></trkpt><trkpt lat="37.81403219910104" lon="15.163087781851516"><ele>419.0</ele><time>2026-04-19T06:53:18.988Z</time></trkpt><trkpt lat="37.81405839281326" lon="15.162915503696908"><ele>419.5</ele><time>2026-04-19T06:53:19.988Z</time></trkpt><trkpt lat="37.8140803208052" lon="15.162744263331204"><ele>420.0</ele><time>2026-04-19T06:53:20.988Z</time></trkpt><trkpt lat="37.81411216839819" lon="15.162588338368606"><ele>420.5</ele><time>2026-04-19T06:53:21.988Z</time></trkpt><trkpt lat="37.81416903813644" lon="15.162454331843012"><ele>421.0</ele><time>2026-04-19T06:53:22.988Z</time></trkpt><trkpt lat="37.81420447087703" lon="15.16231850729853"><ele>423.5</ele><time>2026-04-19T06:53:23.988Z</time></trkpt><trkpt lat="37.81426872087067" lon="15.162194663642552"><ele>426.0</ele><time>2026-04-19T06:53:24.988Z</time></trkpt><trkpt lat="37.814392787728345" lon="15.162118052517414"><ele>428.5</ele><time>2026-04-19T06:53:25.988Z</time></trkpt><trkpt lat="37.814515764927314" lon="15.162012514161123"><ele>431.0</ele><time>2026-04-19T06:53:26.988Z</time></trkpt><trkpt lat="37.8146065037789" lon="15.16191801759252"><ele>431.8</ele><time>2026-04-19T06:53:27.988Z</time></trkpt><trkpt lat="37.814696382219715" lon="15.161853317816686"><ele>432.6</ele><time>2026-04-19T06:53:28.988Z</time></trkpt><trkpt lat="37.81479184518975" lon="15.161783343262757"><ele>433.4</ele><time>2026-04-19T06:53:29.988Z</time></trkpt><trkpt lat="37.81488999546969" lon="15.16172718232665"><ele>434.2</ele><time>2026-04-19T06:53:30.988Z</time></trkpt><trkpt lat="37.81500887653344" lon="15.161701198138678"><ele>435.0</ele><time>2026-04-19T06:53:31.988Z</time></trkpt><trkpt lat="37.8151261802601" lon="15.161642387480596"><ele>436.5</ele><time>2026-04-19T06:53:32.988Z</time></trkpt><trkpt lat="37.81524666316821" lon="15.161637719188882"><ele>438.0</ele><time>2026-04-19T06:53:33.988Z</time></trkpt><trkpt lat="37.8153492384635" lon="15.16159550659358"><ele>439.5</ele><time>2026-04-19T06:53:34.988Z</time></trkpt><trkpt lat="37.81545718898664" lon="15.161569660550379"><ele>441.0</ele><time>2026-04-19T06:53:35.988Z</time></trkpt><trkpt lat="37.81556860969948" lon="15.161583147911742"><ele>441.0</ele><time>2026-04-19T06:53:36.988Z</time></trkpt><trkpt lat="37.815695989408205" lon="15.161662168529324"><ele>441.0</ele><time>2026-04-19T06:53:37.988Z</time></trkpt><trkpt lat="37.81581549040959" lon="15.161710296024204"><ele>441.0</ele><time>2026-04-19T06:53:38.987Z</time></trkpt><trkpt lat="37.81592959631314" lon="15.161765411847878"><ele>441.0</ele><time>2026-04-19T06:53:39.987Z</time></trkpt><trkpt lat="37.81604480164638" lon="15.161815916593598"><ele>441.75</ele><time>2026-04-19T06:53:40.987Z</time></trkpt><trkpt lat="37.81617095284615" lon="15.1618413184865"><ele>442.5</ele><time>2026-04-19T06:53:41.987Z</time></trkpt><trkpt lat="37.81629184625524" lon="15.161838220827077"><ele>443.25</ele><time>2026-04-19T06:53:42.987Z</time></trkpt><trkpt lat="37.81641062317926" lon="15.16180516653713"><ele>444.0</ele><time>2026-04-19T06:53:43.987Z</time></trkpt><trkpt lat="37.81652390301915" lon="15.16177663994662"><ele>444.0</ele><time>2026-04-19T06:53:44.987Z</time></trkpt><trkpt lat="37.81662876068541" lon="15.161751766329807"><ele>444.0</ele><time>2026-04-19T06:53:45.987Z</time></trkpt><trkpt lat="37.81672594241561" lon="15.161720861137361"><ele>444.0</ele><time>2026-04-19T06:53:46.987Z</time></trkpt><trkpt lat="37.81681340773838" lon="15.161695504347351"><ele>444.0</ele><time>2026-04-19T06:53:47.987Z</time></trkpt><trkpt lat="37.81689987038528" lon="15.161650628792637"><ele>444.0</ele><time>2026-04-19T06:53:48.987Z</time></trkpt><trkpt lat="37.81698891414946" lon="15.161570466678372"><ele>445.66666666666663</ele><time>2026-04-19T06:53:49.987Z</time></trkpt><trkpt lat="37.817068972667876" lon="15.161439020233104"><ele>447.3333333333333</ele><time>2026-04-19T06:53:50.987Z</time></trkpt><trkpt lat="37.817135605948245" lon="15.161268938153892"><ele>449.0</ele><time>2026-04-19T06:53:51.987Z</time></trkpt><trkpt lat="37.81722431948984" lon="15.161082592361206"><ele>449.0</ele><time>2026-04-19T06:53:52.987Z</time></trkpt><trkpt lat="37.817318429577576" lon="15.160899510814696"><ele>449.0</ele><time>2026-04-19T06:53:53.987Z</time></trkpt><trkpt lat="37.81741125715843" lon="15.160704448753705"><ele>449.0</ele><time>2026-04-19T06:53:54.987Z</time></trkpt><trkpt lat="37.81751851526504" lon="15.160514216428236"><ele>451.0</ele><time>2026-04-19T06:53:55.987Z</time></trkpt><trkpt lat="37.817628706784014" lon="15.160298304788242"><ele>453.0</ele><time>2026-04-19T06:53:56.987Z</time></trkpt><trkpt lat="37.817743354126755" lon="15.160086039755608"><ele>455.0</ele><time>2026-04-19T06:53:57.987Z</time></trkpt><trkpt lat="37.817871908620035" lon="15.159879784907352"><ele>456.66666666666663</ele><time>2026-04-19T06:53:58.987Z</time></trkpt><trkpt lat="37.81800205595352" lon="15.15967013885311"><ele>458.33333333333337</ele><time>2026-04-19T06:53:59.987Z</time></trkpt><trkpt lat="37.81812689308838" lon="15.159473692021908"><ele>460.0</ele><time>2026-04-19T06:54:00.987Z</time></trkpt><trkpt lat="37.81825781727956" lon="15.159302334744238"><ele>460.0</ele><time>2026-04-19T06:54:01.987Z</time></trkpt><trkpt lat="37.81842329934648" lon="15.159201923450674"><ele>460.0</ele><time>2026-04-19T06:54:02.987Z</time></trkpt><trkpt lat="37.81860581015267" lon="15.159153950024397"><ele>460.0</ele><time>2026-04-19T06:54:03.987Z</time></trkpt><trkpt lat="37.81882638699556" lon="15.159101856714097"><ele>460.33333333333337</ele><time>2026-04-19T06:54:04.987Z</time></trkpt><trkpt lat="37.81904073503264" lon="15.159056783246593"><ele>460.66666666666663</ele><time>2026-04-19T06:54:05.987Z</time></trkpt><trkpt lat="37.81922934413719" lon="15.158985723857906"><ele>461.0</ele><time>2026-04-19T06:54:06.987Z</time></trkpt><trkpt lat="37.81941023763666" lon="15.158942275200694"><ele>463.66666666666663</ele><time>2026-04-19T06:54:07.987Z</time></trkpt><trkpt lat="37.81956674837543" lon="15.158885632588957"><ele>466.33333333333337</ele><time>2026-04-19T06:54:08.987Z</time></trkpt><trkpt lat="37.819720480150785" lon="15.158832318548383"><ele>469.0</ele><time>2026-04-19T06:54:09.987Z</time></trkpt><trkpt lat="37.81987507615152" lon="15.158779472323536"><ele>469.0</ele><time>2026-04-19T06:54:10.987Z</time></trkpt><trkpt lat="37.820023363453075" lon="15.158706564986597"><ele>469.0</ele><time>2026-04-19T06:54:11.987Z</time></trkpt><trkpt lat="37.82017513456922" lon="15.158640113317457"><ele>469.0</ele><time>2026-04-19T06:54:12.987Z</time></trkpt><trkpt lat="37.82031541914239" lon="15.15853477101042"><ele>470.0</ele><time>2026-04-19T06:54:13.987Z</time></trkpt><trkpt lat="37.8204662061695" lon="15.158421093150643"><ele>471.0</ele><time>2026-04-19T06:54:14.987Z</time></trkpt><trkpt lat="37.8206117732837" lon="15.158303330934688"><ele>472.0</ele><time>2026-04-19T06:54:15.986Z</time></trkpt><trkpt lat="37.820761572705486" lon="15.158180007264097"><ele>472.6666666666667</ele><time>2026-04-19T06:54:16.986Z</time></trkpt><trkpt lat="37.82093080252732" lon="15.15805390712894"><ele>473.33333333333337</ele><time>2026-04-19T06:54:17.986Z</time></trkpt><trkpt lat="37.8211115422213" lon="15.157920823258118"><ele>474.0</ele><time>2026-04-19T06:54:18.986Z</time></trkpt><trkpt lat="37.82129891598319" lon="15.157789081541269"><ele>475.33333333333337</ele><time>2026-04-19T06:54:19.986Z</time></trkpt><trkpt lat="37.82147671742472" lon="15.157657929178354"><ele>476.6666666666667</ele><time>2026-04-19T06:54:20.986Z</time></trkpt><trkpt lat="37.821648239089036" lon="15.157540103671678"><ele>478.0</ele><time>2026-04-19T06:54:21.986Z</time></trkpt><trkpt lat="37.82180814663697" lon="15.15744197511755"><ele>479.75</ele><time>2026-04-19T06:54:22.986Z</time></trkpt><trkpt lat="37.82195484046953" lon="15.157345519395298"><ele>481.5</ele><time>2026-04-19T06:54:23.986Z</time></trkpt><trkpt lat="37.822085542793346" lon="15.157249179921681"><ele>483.25</ele><time>2026-04-19T06:54:24.986Z</time></trkpt><trkpt lat="37.82219742440865" lon="15.15716011878724"><ele>485.0</ele><time>2026-04-19T06:54:25.986Z</time></trkpt><trkpt lat="37.822300945439665" lon="15.15700743430564"><ele>485.0</ele><time>2026-04-19T06:54:26.986Z</time></trkpt><trkpt lat="37.822395100012216" lon="15.156805615322476"><ele>485.0</ele><time>2026-04-19T06:54:27.986Z</time></trkpt><trkpt lat="37.82249770444212" lon="15.156608301728287"><ele>485.0</ele><time>2026-04-19T06:54:28.986Z</time></trkpt><trkpt lat="37.822618069581466" lon="15.156428213216527"><ele>486.0</ele><time>2026-04-19T06:54:29.986Z</time></trkpt><trkpt lat="37.82271437645103" lon="15.156216902051241"><ele>487.0</ele><time>2026-04-19T06:54:30.986Z</time></trkpt><trkpt lat="37.82281622810554" lon="15.156015143559904"><ele>488.0</ele><time>2026-04-19T06:54:31.986Z</time></trkpt><trkpt lat="37.822902862965094" lon="15.155805267508217"><ele>488.3333333333333</ele><time>2026-04-19T06:54:32.986Z</time></trkpt><trkpt lat="37.82296925653016" lon="15.15557608676167"><ele>488.66666666666663</ele><time>2026-04-19T06:54:33.986Z</time></trkpt><trkpt lat="37.82299417958817" lon="15.155328925001003"><ele>489.0</ele><time>2026-04-19T06:54:34.986Z</time></trkpt><trkpt lat="37.82297303241427" lon="15.155062542908091"><ele>490.33333333333337</ele><time>2026-04-19T06:54:35.986Z</time></trkpt><trkpt lat="37.82301072845965" lon="15.154832030879188"><ele>491.6666666666667</ele><time>2026-04-19T06:54:36.986Z</time></trkpt><trkpt lat="37.823032345264174" lon="15.154621689939665"><ele>493.0</ele><time>2026-04-19T06:54:37.986Z</time></trkpt><trkpt lat="37.82305197183053" lon="15.154430715212783"><ele>493.0</ele><time>2026-04-19T06:54:38.986Z</time></trkpt><trkpt lat="37.823070360547646" lon="15.154253760026787"><ele>492.99999999999994</ele><time>2026-04-19T06:54:39.986Z</time></trkpt><trkpt lat="37.82308418967204" lon="15.15411623296425"><ele>492.99999999999994</ele><time>2026-04-19T06:54:40.986Z</time></trkpt><trkpt lat="37.823094361748" lon="15.154015074327328"><ele>493.0</ele><time>2026-04-19T06:54:41.986Z</time></trkpt><trkpt lat="37.82310326845554" lon="15.15392649947747"><ele>493.0</ele><time>2026-04-19T06:54:42.986Z</time></trkpt><trkpt lat="37.823117988082615" lon="15.15378011654735"><ele>493.1666666666667</ele><time>2026-04-19T06:54:44.986Z</time></trkpt><trkpt lat="37.823127176377874" lon="15.153692996515007"><ele>493.33333333333337</ele><time>2026-04-19T06:54:45.986Z</time></trkpt><trkpt lat="37.823136547944515" lon="15.15360401926814"><ele>493.5</ele><time>2026-04-19T06:54:46.986Z</time></trkpt><trkpt lat="37.823147852852856" lon="15.153496686135824"><ele>493.66666666666663</ele><time>2026-04-19T06:54:47.986Z</time></trkpt><trkpt lat="37.823162515930385" lon="15.153357469291736"><ele>493.8333333333333</ele><time>2026-04-19T06:54:48.986Z</time></trkpt><trkpt lat="37.82317685254133" lon="15.153216842448499"><ele>494.0</ele><time>2026-04-19T06:54:49.986Z</time></trkpt><trkpt lat="37.82318357842442" lon="15.153073698937988"><ele>494.0</ele><time>2026-04-19T06:54:50.986Z</time></trkpt><trkpt lat="37.82321342485049" lon="15.152936118454962"><ele>494.0</ele><time>2026-04-19T06:54:51.986Z</time></trkpt><trkpt lat="37.823280246304236" lon="15.152811055855214"><ele>494.0</ele><time>2026-04-19T06:54:52.985Z</time></trkpt><trkpt lat="37.82334950097398" lon="15.15267488426628"><ele>494.0</ele><time>2026-04-19T06:54:53.985Z</time></trkpt><trkpt lat="37.823431860825494" lon="15.152512944592218"><ele>493.75</ele><time>2026-04-19T06:54:54.985Z</time></trkpt><trkpt lat="37.82350824723769" lon="15.152356092137182"><ele>493.5</ele><time>2026-04-19T06:54:55.985Z</time></trkpt><trkpt lat="37.823579632288386" lon="15.152208236435461"><ele>493.25</ele><time>2026-04-19T06:54:56.985Z</time></trkpt><trkpt lat="37.82365041126285" lon="15.152061636049241"><ele>493.0</ele><time>2026-04-19T06:54:57.985Z</time></trkpt><trkpt lat="37.82371812168309" lon="15.151920708444969"><ele>493.0</ele><time>2026-04-19T06:54:58.985Z</time></trkpt><trkpt lat="37.823803286026134" lon="15.151750852156116"><ele>493.0</ele><time>2026-04-19T06:54:59.985Z</time></trkpt><trkpt lat="37.82389620935386" lon="15.151566400848173"><ele>493.0</ele><time>2026-04-19T06:55:00.985Z</time></trkpt><trkpt lat="37.82397009793016" lon="15.151384153950785"><ele>494.0</ele><time>2026-04-19T06:55:01.985Z</time></trkpt><trkpt lat="37.82406999150796" lon="15.151229572905823"><ele>495.0</ele><time>2026-04-19T06:55:02.985Z</time></trkpt><trkpt lat="37.82414947629167" lon="15.151067757625565"><ele>496.0</ele><time>2026-04-19T06:55:03.985Z</time></trkpt><trkpt lat="37.824230159275764" lon="15.150916482795937"><ele>496.0</ele><time>2026-04-19T06:55:04.985Z</time></trkpt><trkpt lat="37.82430488648815" lon="15.150758279052555"><ele>496.0</ele><time>2026-04-19T06:55:05.985Z</time></trkpt><trkpt lat="37.82438188558773" lon="15.150597833618733"><ele>496.0</ele><time>2026-04-19T06:55:06.985Z</time></trkpt><trkpt lat="37.824461985857674" lon="15.150429875075844"><ele>496.0</ele><time>2026-04-19T06:55:07.985Z</time></trkpt><trkpt lat="37.82454696735501" lon="15.150251692349245"><ele>496.33333333333337</ele><time>2026-04-19T06:55:08.985Z</time></trkpt><trkpt lat="37.82463592540177" lon="15.15006958068844"><ele>496.66666666666663</ele><time>2026-04-19T06:55:09.985Z</time></trkpt><trkpt lat="37.8247308775828" lon="15.149883114501007"><ele>497.0</ele><time>2026-04-19T06:55:10.985Z</time></trkpt><trkpt lat="37.824820675117856" lon="15.149690731792179"><ele>497.3333333333333</ele><time>2026-04-19T06:55:11.985Z</time></trkpt><trkpt lat="37.824922830934995" lon="15.149505812332166"><ele>497.66666666666663</ele><time>2026-04-19T06:55:12.985Z</time></trkpt><trkpt lat="37.82504121522618" lon="15.149334788866383"><ele>498.0</ele><time>2026-04-19T06:55:13.985Z</time></trkpt><trkpt lat="37.825191310019065" lon="15.149207859674153"><ele>498.0</ele><time>2026-04-19T06:55:14.985Z</time></trkpt><trkpt lat="37.82532617324528" lon="15.149061325187622"><ele>498.0</ele><time>2026-04-19T06:55:15.985Z</time></trkpt><trkpt lat="37.825466182780865" lon="15.148924018944673"><ele>498.0</ele><time>2026-04-19T06:55:16.985Z</time></trkpt><trkpt lat="37.825598934598105" lon="15.148789543462012"><ele>498.33333333333337</ele><time>2026-04-19T06:55:17.985Z</time></trkpt><trkpt lat="37.825728758044924" lon="15.148655671959798"><ele>498.6666666666667</ele><time>2026-04-19T06:55:18.985Z</time></trkpt><trkpt lat="37.825855146642844" lon="15.148520309887918"><ele>499.0</ele><time>2026-04-19T06:55:19.985Z</time></trkpt><trkpt lat="37.82598787439073" lon="15.148377133927465"><ele>498.6666666666667</ele><time>2026-04-19T06:55:20.985Z</time></trkpt><trkpt lat="37.826128289702545" lon="15.148238807208854"><ele>498.33333333333337</ele><time>2026-04-19T06:55:21.985Z</time></trkpt><trkpt lat="37.82626861591945" lon="15.148095883702162"><ele>498.0</ele><time>2026-04-19T06:55:22.985Z</time></trkpt><trkpt lat="37.82640986528839" lon="15.1479591008264"><ele>498.0</ele><time>2026-04-19T06:55:23.985Z</time></trkpt><trkpt lat="37.82654492750957" lon="15.147818347968617"><ele>498.0</ele><time>2026-04-19T06:55:24.985Z</time></trkpt><trkpt lat="37.826685239472276" lon="15.147680284427786"><ele>498.0</ele><time>2026-04-19T06:55:25.985Z</time></trkpt><trkpt lat="37.82682037492032" lon="15.147534013998296"><ele>498.66666666666663</ele><time>2026-04-19T06:55:26.985Z</time></trkpt><trkpt lat="37.826949210884685" lon="15.14737809057736"><ele>499.3333333333333</ele><time>2026-04-19T06:55:27.985Z</time></trkpt><trkpt lat="37.82707502527651" lon="15.147216978348348"><ele>500.0</ele><time>2026-04-19T06:55:28.985Z</time></trkpt><trkpt lat="37.827209673046895" lon="15.147065101640086"><ele>500.0</ele><time>2026-04-19T06:55:29.985Z</time></trkpt><trkpt lat="37.82734582998808" lon="15.146916182711683"><ele>500.0</ele><time>2026-04-19T06:55:30.984Z</time></trkpt><trkpt lat="37.827498134529705" lon="15.146786044958864"><ele>500.0</ele><time>2026-04-19T06:55:31.984Z</time></trkpt><trkpt lat="37.82765909872925" lon="15.146686282024366"><ele>500.3333333333333</ele><time>2026-04-19T06:55:32.984Z</time></trkpt><trkpt lat="37.82783213955795" lon="15.146585871463625"><ele>500.66666666666663</ele><time>2026-04-19T06:55:33.984Z</time></trkpt><trkpt lat="37.82800369959507" lon="15.146472403937425"><ele>501.0</ele><time>2026-04-19T06:55:34.984Z</time></trkpt><trkpt lat="37.828157230823834" lon="15.146345971487069"><ele>502.0</ele><time>2026-04-19T06:55:35.984Z</time></trkpt><trkpt lat="37.82830767311985" lon="15.146207705730196"><ele>503.0</ele><time>2026-04-19T06:55:36.984Z</time></trkpt><trkpt lat="37.82842891722981" lon="15.146024642895043"><ele>504.0</ele><time>2026-04-19T06:55:37.984Z</time></trkpt><trkpt lat="37.82858995997528" lon="15.145895666735465"><ele>504.0</ele><time>2026-04-19T06:55:38.984Z</time></trkpt><trkpt lat="37.82876263823055" lon="15.145790598964982"><ele>504.0</ele><time>2026-04-19T06:55:39.984Z</time></trkpt><trkpt lat="37.828937603698115" lon="15.145699486139183"><ele>504.0</ele><time>2026-04-19T06:55:40.984Z</time></trkpt><trkpt lat="37.82911075044688" lon="15.145615314510808"><ele>506.33333333333337</ele><time>2026-04-19T06:55:41.984Z</time></trkpt><trkpt lat="37.82930737086563" lon="15.145595535094989"><ele>508.6666666666667</ele><time>2026-04-19T06:55:42.984Z</time></trkpt><trkpt lat="37.82947620924877" lon="15.14550912191461"><ele>511.0</ele><time>2026-04-19T06:55:43.984Z</time></trkpt><trkpt lat="37.829643204936616" lon="15.145412019703402"><ele>511.0</ele><time>2026-04-19T06:55:44.984Z</time></trkpt><trkpt lat="37.82981533594857" lon="15.145303937014514"><ele>511.0</ele><time>2026-04-19T06:55:45.984Z</time></trkpt><trkpt lat="37.82998704437293" lon="15.14520351514324"><ele>511.0</ele><time>2026-04-19T06:55:46.984Z</time></trkpt><trkpt lat="37.830164616956424" lon="15.145108585023248"><ele>512.6666666666667</ele><time>2026-04-19T06:55:47.984Z</time></trkpt><trkpt lat="37.83034902955128" lon="15.145035339539849"><ele>514.3333333333334</ele><time>2026-04-19T06:55:48.984Z</time></trkpt><trkpt lat="37.83054569907622" lon="15.14500241065701"><ele>516.0</ele><time>2026-04-19T06:55:49.984Z</time></trkpt><trkpt lat="37.83074804456504" lon="15.144955119548897"><ele>516.0</ele><time>2026-04-19T06:55:50.984Z</time></trkpt><trkpt lat="37.83095625258171" lon="15.144888464111222"><ele>516.0</ele><time>2026-04-19T06:55:51.984Z</time></trkpt><trkpt lat="37.83117099752729" lon="15.14486665569881"><ele>516.0</ele><time>2026-04-19T06:55:52.984Z</time></trkpt><trkpt lat="37.8313693855029" lon="15.144826882707529"><ele>515.3333333333334</ele><time>2026-04-19T06:55:53.984Z</time></trkpt><trkpt lat="37.83155178344783" lon="15.14477148443141"><ele>514.6666666666667</ele><time>2026-04-19T06:55:54.984Z</time></trkpt><trkpt lat="37.83172767621405" lon="15.144705907644036"><ele>514.0</ele><time>2026-04-19T06:55:55.984Z</time></trkpt><trkpt lat="37.83191217169158" lon="15.144631160849674"><ele>514.0</ele><time>2026-04-19T06:55:56.984Z</time></trkpt><trkpt lat="37.8320857412551" lon="15.144561020933308"><ele>514.0</ele><time>2026-04-19T06:55:57.984Z</time></trkpt><trkpt lat="37.8322636235326" lon="15.14449465971456"><ele>514.0</ele><time>2026-04-19T06:55:58.984Z</time></trkpt><trkpt lat="37.832431239620476" lon="15.144440318476153"><ele>514.0</ele><time>2026-04-19T06:55:59.984Z</time></trkpt><trkpt lat="37.83258119384315" lon="15.144401595695472"><ele>514.0</ele><time>2026-04-19T06:56:00.984Z</time></trkpt><trkpt lat="37.83273496843586" lon="15.144379662510385"><ele>514.0</ele><time>2026-04-19T06:56:01.984Z</time></trkpt><trkpt lat="37.83287524759902" lon="15.144433961784852"><ele>513.6666666666667</ele><time>2026-04-19T06:56:02.984Z</time></trkpt><trkpt lat="37.833020704072105" lon="15.144479320785779"><ele>513.3333333333334</ele><time>2026-04-19T06:56:03.984Z</time></trkpt><trkpt lat="37.83316501282456" lon="15.144510061528262"><ele>513.0</ele><time>2026-04-19T06:56:04.984Z</time></trkpt><trkpt lat="37.833328177495986" lon="15.144493167610078"><ele>514.6666666666666</ele><time>2026-04-19T06:56:05.984Z</time></trkpt><trkpt lat="37.833493861601326" lon="15.144410769798306"><ele>516.3333333333333</ele><time>2026-04-19T06:56:06.984Z</time></trkpt><trkpt lat="37.833656291738784" lon="15.144329526742181"><ele>518.0</ele><time>2026-04-19T06:56:07.983Z</time></trkpt><trkpt lat="37.83383535789735" lon="15.144262006184064"><ele>518.0</ele><time>2026-04-19T06:56:08.983Z</time></trkpt><trkpt lat="37.83401985934507" lon="15.144216431764606"><ele>518.0</ele><time>2026-04-19T06:56:09.983Z</time></trkpt><trkpt lat="37.83418837614198" lon="15.144146285409015"><ele>518.0</ele><time>2026-04-19T06:56:10.983Z</time></trkpt><trkpt lat="37.834361460602736" lon="15.144093603785459"><ele>519.0</ele><time>2026-04-19T06:56:11.983Z</time></trkpt><trkpt lat="37.834525283521096" lon="15.144015728000394"><ele>520.0</ele><time>2026-04-19T06:56:12.983Z</time></trkpt><trkpt lat="37.834678673089655" lon="15.143920660897907"><ele>521.0</ele><time>2026-04-19T06:56:13.983Z</time></trkpt><trkpt lat="37.834819396500016" lon="15.143818555356416"><ele>521.0</ele><time>2026-04-19T06:56:14.983Z</time></trkpt><trkpt lat="37.83494597622764" lon="15.143748180003195"><ele>521.0</ele><time>2026-04-19T06:56:15.983Z</time></trkpt><trkpt lat="37.835070037239575" lon="15.143729723187635"><ele>521.0</ele><time>2026-04-19T06:56:16.983Z</time></trkpt><trkpt lat="37.835193545939866" lon="15.14364023663069"><ele>521.0</ele><time>2026-04-19T06:56:17.983Z</time></trkpt><trkpt lat="37.835354037548534" lon="15.143633967176093"><ele>522.3333333333333</ele><time>2026-04-19T06:56:18.983Z</time></trkpt><trkpt lat="37.83552642135855" lon="15.14365463008558"><ele>523.6666666666666</ele><time>2026-04-19T06:56:19.983Z</time></trkpt><trkpt lat="37.835709899473606" lon="15.14370141516866"><ele>525.0</ele><time>2026-04-19T06:56:20.983Z</time></trkpt><trkpt lat="37.83588037035653" lon="15.143762205283904"><ele>526.3333333333334</ele><time>2026-04-19T06:56:21.983Z</time></trkpt><trkpt lat="37.83603023067898" lon="15.143852093070954"><ele>527.6666666666667</ele><time>2026-04-19T06:56:22.983Z</time></trkpt><trkpt lat="37.83618429006239" lon="15.143907488957224"><ele>529.0</ele><time>2026-04-19T06:56:23.983Z</time></trkpt><trkpt lat="37.83631500210925" lon="15.144030064823967"><ele>528.6666666666667</ele><time>2026-04-19T06:56:24.983Z</time></trkpt><trkpt lat="37.83645995754328" lon="15.144152430156693"><ele>528.3333333333334</ele><time>2026-04-19T06:56:25.983Z</time></trkpt><trkpt lat="37.836612943113735" lon="15.144280221890005"><ele>528.0</ele><time>2026-04-19T06:56:26.983Z</time></trkpt><trkpt lat="37.83677364483393" lon="15.144408273157355"><ele>529.6666666666666</ele><time>2026-04-19T06:56:27.983Z</time></trkpt><trkpt lat="37.836936758702365" lon="15.144544210841024"><ele>531.3333333333333</ele><time>2026-04-19T06:56:28.983Z</time></trkpt><trkpt lat="37.83707517507118" lon="15.144652450329493"><ele>533.0</ele><time>2026-04-19T06:56:29.983Z</time></trkpt><trkpt lat="37.8371971396124" lon="15.144746052551122"><ele>533.0</ele><time>2026-04-19T06:56:30.983Z</time></trkpt><trkpt lat="37.83734421470121" lon="15.144793200526504"><ele>533.0</ele><time>2026-04-19T06:56:31.983Z</time></trkpt><trkpt lat="37.837506135317795" lon="15.14480710502978"><ele>533.0</ele><time>2026-04-19T06:56:32.983Z</time></trkpt><trkpt lat="37.8376670749078" lon="15.144811260820626"><ele>533.3333333333333</ele><time>2026-04-19T06:56:33.983Z</time></trkpt><trkpt lat="37.837785433476746" lon="15.144813388417536"><ele>533.6666666666666</ele><time>2026-04-19T06:56:34.983Z</time></trkpt><trkpt lat="37.8378864728822" lon="15.144818699672062"><ele>534.0</ele><time>2026-04-19T06:56:35.983Z</time></trkpt><trkpt lat="37.837969400722955" lon="15.144793540456659"><ele>534.3333333333334</ele><time>2026-04-19T06:56:36.983Z</time></trkpt><trkpt lat="37.83803490918416" lon="15.144775051623743"><ele>534.6666666666667</ele><time>2026-04-19T06:56:37.983Z</time></trkpt><trkpt lat="37.83809079257142" lon="15.144829926827976"><ele>535.0</ele><time>2026-04-19T06:56:38.983Z</time></trkpt><trkpt lat="37.83816615796658" lon="15.144822508940956"><ele>535.0</ele><time>2026-04-19T06:56:39.983Z</time></trkpt><trkpt lat="37.83826879477498" lon="15.144820937423749"><ele>535.0</ele><time>2026-04-19T06:56:40.983Z</time></trkpt><trkpt lat="37.83840208887765" lon="15.144829131762535"><ele>535.0</ele><time>2026-04-19T06:56:41.983Z</time></trkpt><trkpt lat="37.83853981382107" lon="15.144833898512045"><ele>535.0</ele><time>2026-04-19T06:56:42.983Z</time></trkpt><trkpt lat="37.83866654295747" lon="15.144822667834767"><ele>535.0</ele><time>2026-04-19T06:56:43.983Z</time></trkpt><trkpt lat="37.83880496965523" lon="15.144803588629742"><ele>535.0</ele><time>2026-04-19T06:56:44.982Z</time></trkpt><trkpt lat="37.8389450667344" lon="15.144769018236833"><ele>535.0</ele><time>2026-04-19T06:56:45.982Z</time></trkpt><trkpt lat="37.83908834932208" lon="15.144751785046584"><ele>535.0</ele><time>2026-04-19T06:56:46.982Z</time></trkpt><trkpt lat="37.8392363894775" lon="15.144729338283804"><ele>535.5</ele><time>2026-04-19T06:56:47.982Z</time></trkpt><trkpt lat="37.839374928960105" lon="15.144705820332483"><ele>536.0</ele><time>2026-04-19T06:56:48.982Z</time></trkpt><trkpt lat="37.839517555455416" lon="15.144662874290834"><ele>536.5</ele><time>2026-04-19T06:56:49.982Z</time></trkpt><trkpt lat="37.83966316727628" lon="15.144637311716401"><ele>537.0</ele><time>2026-04-19T06:56:50.982Z</time></trkpt><trkpt lat="37.839809503223876" lon="15.144610048953867"><ele>537.0</ele><time>2026-04-19T06:56:51.982Z</time></trkpt><trkpt lat="37.83996901174261" lon="15.144625093339604"><ele>537.0</ele><time>2026-04-19T06:56:52.982Z</time></trkpt><trkpt lat="37.84012188780771" lon="15.14459476169004"><ele>537.0</ele><time>2026-04-19T06:56:53.982Z</time></trkpt><trkpt lat="37.84026452115139" lon="15.144568226458263"><ele>537.25</ele><time>2026-04-19T06:56:54.982Z</time></trkpt><trkpt lat="37.84039312306184" lon="15.144543628049062"><ele>537.5</ele><time>2026-04-19T06:56:55.982Z</time></trkpt><trkpt lat="37.840509857502234" lon="15.144492877199584"><ele>537.75</ele><time>2026-04-19T06:56:56.982Z</time></trkpt><trkpt lat="37.84062425898853" lon="15.144424131050082"><ele>538.0</ele><time>2026-04-19T06:56:57.982Z</time></trkpt><trkpt lat="37.840734701699695" lon="15.144327154498487"><ele>538.0</ele><time>2026-04-19T06:56:58.982Z</time></trkpt><trkpt lat="37.84083318894478" lon="15.144213671081687"><ele>538.0</ele><time>2026-04-19T06:56:59.982Z</time></trkpt><trkpt lat="37.840932073866625" lon="15.144087777839863"><ele>538.0</ele><time>2026-04-19T06:57:00.982Z</time></trkpt><trkpt lat="37.84102998022298" lon="15.143934716514881"><ele>538.0</ele><time>2026-04-19T06:57:01.982Z</time></trkpt><trkpt lat="37.841108529717296" lon="15.143772691366685"><ele>538.5</ele><time>2026-04-19T06:57:02.982Z</time></trkpt><trkpt lat="37.84118798551238" lon="15.143627317025274"><ele>539.0</ele><time>2026-04-19T06:57:03.982Z</time></trkpt><trkpt lat="37.84127699568824" lon="15.143517648832042"><ele>539.5</ele><time>2026-04-19T06:57:04.982Z</time></trkpt><trkpt lat="37.84136394286852" lon="15.143396391984611"><ele>540.0</ele><time>2026-04-19T06:57:05.982Z</time></trkpt><trkpt lat="37.84145334380062" lon="15.143264046418468"><ele>540.75</ele><time>2026-04-19T06:57:06.982Z</time></trkpt><trkpt lat="37.841522605396136" lon="15.14313346239485"><ele>541.5</ele><time>2026-04-19T06:57:07.982Z</time></trkpt><trkpt lat="37.84161682229902" lon="15.143035726417443"><ele>542.25</ele><time>2026-04-19T06:57:08.982Z</time></trkpt><trkpt lat="37.841686326120836" lon="15.142939915312368"><ele>543.0</ele><time>2026-04-19T06:57:09.982Z</time></trkpt><trkpt lat="37.84175660358867" lon="15.142846973341443"><ele>543.0</ele><time>2026-04-19T06:57:10.982Z</time></trkpt><trkpt lat="37.84183395585075" lon="15.142779328701598"><ele>543.0</ele><time>2026-04-19T06:57:11.982Z</time></trkpt><trkpt lat="37.84192325863705" lon="15.142693154087684"><ele>543.0</ele><time>2026-04-19T06:57:12.982Z</time></trkpt><trkpt lat="37.84200976750017" lon="15.142590972637892"><ele>543.0</ele><time>2026-04-19T06:57:13.982Z</time></trkpt><trkpt lat="37.84211050776848" lon="15.1425108453907"><ele>543.0</ele><time>2026-04-19T06:57:14.982Z</time></trkpt><trkpt lat="37.84219203702854" lon="15.142393865653263"><ele>543.1999999999999</ele><time>2026-04-19T06:57:15.982Z</time></trkpt><trkpt lat="37.84229119520379" lon="15.142326089250453"><ele>543.4</ele><time>2026-04-19T06:57:16.982Z</time></trkpt><trkpt lat="37.84239870022547" lon="15.142250912495031"><ele>543.5999999999999</ele><time>2026-04-19T06:57:17.982Z</time></trkpt><trkpt lat="37.84248491234913" lon="15.14216264593217"><ele>543.8</ele><time>2026-04-19T06:57:18.982Z</time></trkpt><trkpt lat="37.84255992276386" lon="15.14208094265395"><ele>544.0</ele><time>2026-04-19T06:57:19.982Z</time></trkpt><trkpt lat="37.84261957737429" lon="15.14201620917052"><ele>543.75</ele><time>2026-04-19T06:57:20.982Z</time></trkpt><trkpt lat="37.842676087486815" lon="15.141955430883696"><ele>543.5</ele><time>2026-04-19T06:57:21.982Z</time></trkpt><trkpt lat="37.84276271671824" lon="15.141897654414256"><ele>543.25</ele><time>2026-04-19T06:57:23.981Z</time></trkpt><trkpt lat="37.8426710123517" lon="15.141669305591135"><ele>543.0</ele><time>2026-04-19T06:57:25.981Z</time></trkpt><trkpt lat="37.84259590813881" lon="15.141535547108248"><ele>544.5</ele><time>2026-04-19T06:57:26.981Z</time></trkpt><trkpt lat="37.842564731863625" lon="15.141410642807218"><ele>546.0</ele><time>2026-04-19T06:57:27.981Z</time></trkpt><trkpt lat="37.842525358156955" lon="15.141267832802844"><ele>547.5</ele><time>2026-04-19T06:57:28.981Z</time></trkpt><trkpt lat="37.84248632562007" lon="15.141126260174591"><ele>549.0</ele><time>2026-04-19T06:57:29.981Z</time></trkpt><trkpt lat="37.842447193930035" lon="15.14098166475999"><ele>549.0</ele><time>2026-04-19T06:57:30.981Z</time></trkpt><trkpt lat="37.842408446379046" lon="15.140836614520772"><ele>549.0</ele><time>2026-04-19T06:57:31.981Z</time></trkpt><trkpt lat="37.84237948685706" lon="15.140694684619442"><ele>549.0</ele><time>2026-04-19T06:57:32.981Z</time></trkpt><trkpt lat="37.84234363546695" lon="15.140557401328783"><ele>549.0</ele><time>2026-04-19T06:57:33.981Z</time></trkpt><trkpt lat="37.84230148577527" lon="15.14041068375357"><ele>549.75</ele><time>2026-04-19T06:57:34.981Z</time></trkpt><trkpt lat="37.84225088668923" lon="15.140274605306798"><ele>550.5</ele><time>2026-04-19T06:57:35.981Z</time></trkpt><trkpt lat="37.842204074673695" lon="15.140118774757838"><ele>551.25</ele><time>2026-04-19T06:57:36.981Z</time></trkpt><trkpt lat="37.84216062157302" lon="15.139962097501861"><ele>552.0</ele><time>2026-04-19T06:57:37.981Z</time></trkpt><trkpt lat="37.84212571563845" lon="15.139791932918477"><ele>552.25</ele><time>2026-04-19T06:57:38.981Z</time></trkpt><trkpt lat="37.842066400062" lon="15.13964144858379"><ele>552.5</ele><time>2026-04-19T06:57:39.981Z</time></trkpt><trkpt lat="37.84202406270281" lon="15.139485370122953"><ele>552.75</ele><time>2026-04-19T06:57:40.981Z</time></trkpt><trkpt lat="37.84198004567881" lon="15.139324036496316"><ele>553.0</ele><time>2026-04-19T06:57:41.981Z</time></trkpt><trkpt lat="37.84193500141848" lon="15.13916770530385"><ele>553.25</ele><time>2026-04-19T06:57:42.981Z</time></trkpt><trkpt lat="37.84189488031589" lon="15.139006087032422"><ele>553.5</ele><time>2026-04-19T06:57:43.981Z</time></trkpt><trkpt lat="37.841851352893116" lon="15.138837113755187"><ele>553.75</ele><time>2026-04-19T06:57:44.981Z</time></trkpt><trkpt lat="37.841809504121365" lon="15.138674049336874"><ele>554.0</ele><time>2026-04-19T06:57:45.981Z</time></trkpt><trkpt lat="37.841759334497496" lon="15.138513021171013"><ele>555.0</ele><time>2026-04-19T06:57:46.981Z</time></trkpt><trkpt lat="37.841731719527964" lon="15.138330812605993"><ele>556.0</ele><time>2026-04-19T06:57:47.981Z</time></trkpt><trkpt lat="37.84168688263742" lon="15.13814873298184"><ele>557.0</ele><time>2026-04-19T06:57:48.981Z</time></trkpt><trkpt lat="37.8416441383656" lon="15.137991292328898"><ele>558.0</ele><time>2026-04-19T06:57:49.981Z</time></trkpt><trkpt lat="37.84159840106266" lon="15.13785297198154"><ele>558.0</ele><time>2026-04-19T06:57:50.981Z</time></trkpt><trkpt lat="37.8415602609255" lon="15.137700277985818"><ele>558.0</ele><time>2026-04-19T06:57:51.981Z</time></trkpt><trkpt lat="37.84151660267563" lon="15.137568783115336"><ele>558.0</ele><time>2026-04-19T06:57:52.981Z</time></trkpt><trkpt lat="37.841478649247925" lon="15.137458149125166"><ele>558.0</ele><time>2026-04-19T06:57:53.981Z</time></trkpt><trkpt lat="37.84144515746604" lon="15.137354371781257"><ele>558.0</ele><time>2026-04-19T06:57:54.981Z</time></trkpt><trkpt lat="37.841411539490906" lon="15.137241419922875"><ele>558.0</ele><time>2026-04-19T06:57:55.981Z</time></trkpt><trkpt lat="37.84137993640915" lon="15.13710505629598"><ele>558.0</ele><time>2026-04-19T06:57:56.981Z</time></trkpt><trkpt lat="37.841334050835336" lon="15.136949531722909"><ele>558.0</ele><time>2026-04-19T06:57:57.981Z</time></trkpt><trkpt lat="37.84128048107199" lon="15.13678364578999"><ele>558.0</ele><time>2026-04-19T06:57:58.981Z</time></trkpt><trkpt lat="37.84122465397365" lon="15.136614859272003"><ele>558.0</ele><time>2026-04-19T06:57:59.98Z</time></trkpt><trkpt lat="37.84116777797514" lon="15.136436845675865"><ele>558.0</ele><time>2026-04-19T06:58:00.98Z</time></trkpt><trkpt lat="37.84112430088446" lon="15.136230881644233"><ele>558.0</ele><time>2026-04-19T06:58:01.98Z</time></trkpt><trkpt lat="37.84106731072804" lon="15.136040282605798"><ele>558.0</ele><time>2026-04-19T06:58:02.98Z</time></trkpt><trkpt lat="37.841000812306774" lon="15.135837543531528"><ele>558.0</ele><time>2026-04-19T06:58:03.98Z</time></trkpt><trkpt lat="37.84095647045221" lon="15.13561798299735"><ele>558.0</ele><time>2026-04-19T06:58:04.98Z</time></trkpt><trkpt lat="37.840894198365554" lon="15.13539245430542"><ele>561.0</ele><time>2026-04-19T06:58:05.98Z</time></trkpt><trkpt lat="37.84083283372919" lon="15.13517021230234"><ele>564.0</ele><time>2026-04-19T06:58:06.98Z</time></trkpt><trkpt lat="37.84077446783911" lon="15.134958830644132"><ele>567.0</ele><time>2026-04-19T06:58:07.98Z</time></trkpt><trkpt lat="37.84071797458875" lon="15.134754231194178"><ele>568.6666666666666</ele><time>2026-04-19T06:58:08.98Z</time></trkpt><trkpt lat="37.840659418838314" lon="15.134542161984797"><ele>570.3333333333333</ele><time>2026-04-19T06:58:09.98Z</time></trkpt><trkpt lat="37.84059072953068" lon="15.134343876754937"><ele>572.0</ele><time>2026-04-19T06:58:10.98Z</time></trkpt><trkpt lat="37.84053264926541" lon="15.134134419913286"><ele>572.6666666666666</ele><time>2026-04-19T06:58:11.98Z</time></trkpt><trkpt lat="37.84047569471709" lon="15.13392839659968"><ele>573.3333333333334</ele><time>2026-04-19T06:58:12.98Z</time></trkpt><trkpt lat="37.8404176736791" lon="15.133716650557435"><ele>574.0</ele><time>2026-04-19T06:58:13.98Z</time></trkpt><trkpt lat="37.84035795378711" lon="15.133495327957167"><ele>574.0</ele><time>2026-04-19T06:58:14.98Z</time></trkpt><trkpt lat="37.8402978334417" lon="15.133281579743148"><ele>574.0</ele><time>2026-04-19T06:58:15.98Z</time></trkpt><trkpt lat="37.840245352744645" lon="15.133058211897804"><ele>574.0</ele><time>2026-04-19T06:58:16.98Z</time></trkpt><trkpt lat="37.840191259901424" lon="15.132833152239986"><ele>575.0</ele><time>2026-04-19T06:58:17.98Z</time></trkpt><trkpt lat="37.84011219405801" lon="15.132597826362492"><ele>576.0</ele><time>2026-04-19T06:58:18.98Z</time></trkpt><trkpt lat="37.840059766297955" lon="15.132351333553313"><ele>577.0</ele><time>2026-04-19T06:58:19.98Z</time></trkpt><trkpt lat="37.839995318653536" lon="15.132115290596467"><ele>577.6666666666667</ele><time>2026-04-19T06:58:20.98Z</time></trkpt><trkpt lat="37.839944445611934" lon="15.131890354264158"><ele>578.3333333333334</ele><time>2026-04-19T06:58:21.98Z</time></trkpt><trkpt lat="37.83988509576178" lon="15.131675061306751"><ele>579.0</ele><time>2026-04-19T06:58:22.98Z</time></trkpt><trkpt lat="37.83982264872729" lon="15.131469735540847"><ele>579.6666666666666</ele><time>2026-04-19T06:58:23.98Z</time></trkpt><trkpt lat="37.83976742824188" lon="15.13126104199569"><ele>580.3333333333333</ele><time>2026-04-19T06:58:24.98Z</time></trkpt><trkpt lat="37.83971289990752" lon="15.13105337420948"><ele>581.0</ele><time>2026-04-19T06:58:25.98Z</time></trkpt><trkpt lat="37.83965862003062" lon="15.130842902564067"><ele>582.3333333333333</ele><time>2026-04-19T06:58:26.98Z</time></trkpt><trkpt lat="37.839595856777706" lon="15.130626422033759"><ele>583.6666666666666</ele><time>2026-04-19T06:58:27.98Z</time></trkpt><trkpt lat="37.839533663875024" lon="15.130407951657956"><ele>585.0</ele><time>2026-04-19T06:58:28.98Z</time></trkpt><trkpt lat="37.839473210789365" lon="15.130188859960521"><ele>585.0</ele><time>2026-04-19T06:58:29.98Z</time></trkpt><trkpt lat="37.83941703357605" lon="15.129959851746825"><ele>585.0</ele><time>2026-04-19T06:58:30.98Z</time></trkpt><trkpt lat="37.83935860481373" lon="15.129736162747147"><ele>585.0</ele><time>2026-04-19T06:58:31.98Z</time></trkpt><trkpt lat="37.83929323720625" lon="15.129515812053773"><ele>585.3333333333334</ele><time>2026-04-19T06:58:32.98Z</time></trkpt><trkpt lat="37.839223722588535" lon="15.129297801942695"><ele>585.6666666666667</ele><time>2026-04-19T06:58:33.98Z</time></trkpt><trkpt lat="37.839163072877554" lon="15.129070758299656"><ele>586.0</ele><time>2026-04-19T06:58:34.98Z</time></trkpt><trkpt lat="37.83909735914255" lon="15.12884945061457"><ele>586.6666666666667</ele><time>2026-04-19T06:58:35.98Z</time></trkpt><trkpt lat="37.83903254032781" lon="15.128630734973017"><ele>587.3333333333334</ele><time>2026-04-19T06:58:36.979Z</time></trkpt><trkpt lat="37.83897955224983" lon="15.128416140793782"><ele>588.0</ele><time>2026-04-19T06:58:37.979Z</time></trkpt><trkpt lat="37.83893119311995" lon="15.128196104672094"><ele>588.6666666666666</ele><time>2026-04-19T06:58:38.979Z</time></trkpt><trkpt lat="37.838877100241895" lon="15.127971681865276"><ele>589.3333333333333</ele><time>2026-04-19T06:58:39.979Z</time></trkpt><trkpt lat="37.838810905855865" lon="15.127742950779318"><ele>590.0</ele><time>2026-04-19T06:58:40.979Z</time></trkpt><trkpt lat="37.83874111220812" lon="15.127508161196879"><ele>591.0</ele><time>2026-04-19T06:58:41.979Z</time></trkpt><trkpt lat="37.838679327121994" lon="15.12726710744035"><ele>592.0</ele><time>2026-04-19T06:58:42.979Z</time></trkpt><trkpt lat="37.83861267847098" lon="15.127025117329767"><ele>593.0</ele><time>2026-04-19T06:58:43.979Z</time></trkpt><trkpt lat="37.838540093675896" lon="15.126785156268342"><ele>593.0</ele><time>2026-04-19T06:58:44.979Z</time></trkpt><trkpt lat="37.83847068565723" lon="15.126538581398863"><ele>593.0</ele><time>2026-04-19T06:58:45.979Z</time></trkpt><trkpt lat="37.83840227733204" lon="15.12628281388346"><ele>593.0</ele><time>2026-04-19T06:58:46.979Z</time></trkpt><trkpt lat="37.83833485429199" lon="15.126032011776141"><ele>593.3333333333333</ele><time>2026-04-19T06:58:47.979Z</time></trkpt><trkpt lat="37.83826226719758" lon="15.125778648038002"><ele>593.6666666666666</ele><time>2026-04-19T06:58:48.979Z</time></trkpt><trkpt lat="37.83817845630211" lon="15.125515762532237"><ele>594.0</ele><time>2026-04-19T06:58:49.979Z</time></trkpt><trkpt lat="37.838100791768035" lon="15.125238947850885"><ele>594.0</ele><time>2026-04-19T06:58:50.979Z</time></trkpt><trkpt lat="37.83804758673236" lon="15.124955782529913"><ele>594.0</ele><time>2026-04-19T06:58:51.979Z</time></trkpt><trkpt lat="37.837969683645504" lon="15.124672371894551"><ele>596.5</ele><time>2026-04-19T06:58:52.979Z</time></trkpt><trkpt lat="37.83788830379538" lon="15.124381040365217"><ele>599.0</ele><time>2026-04-19T06:58:53.979Z</time></trkpt><trkpt lat="37.8378163258963" lon="15.124098504983182"><ele>602.0</ele><time>2026-04-19T06:58:54.979Z</time></trkpt><trkpt lat="37.8377492649987" lon="15.12382260256393"><ele>605.0</ele><time>2026-04-19T06:58:55.979Z</time></trkpt><trkpt lat="37.837685832010436" lon="15.123562205109163"><ele>608.0</ele><time>2026-04-19T06:58:56.979Z</time></trkpt><trkpt lat="37.837613918368305" lon="15.123320343224055"><ele>609.0</ele><time>2026-04-19T06:58:57.979Z</time></trkpt><trkpt lat="37.83752303086267" lon="15.12309722868069"><ele>610.0</ele><time>2026-04-19T06:58:58.979Z</time></trkpt><trkpt lat="37.83739479161578" lon="15.122891807449578"><ele>611.0</ele><time>2026-04-19T06:58:59.979Z</time></trkpt><trkpt lat="37.83725623239254" lon="15.122696519667244"><ele>611.0</ele><time>2026-04-19T06:59:00.979Z</time></trkpt><trkpt lat="37.837113183290064" lon="15.122513668958266"><ele>611.0</ele><time>2026-04-19T06:59:01.979Z</time></trkpt><trkpt lat="37.83698091161768" lon="15.122337459084683"><ele>611.0</ele><time>2026-04-19T06:59:02.979Z</time></trkpt><trkpt lat="37.836867828511636" lon="15.122169866214513"><ele>612.75</ele><time>2026-04-19T06:59:03.979Z</time></trkpt><trkpt lat="37.836778451918846" lon="15.122016432295444"><ele>614.5</ele><time>2026-04-19T06:59:04.979Z</time></trkpt><trkpt lat="37.836729461884566" lon="15.121854422744462"><ele>616.25</ele><time>2026-04-19T06:59:05.979Z</time></trkpt><trkpt lat="37.836702542835766" lon="15.121677123447489"><ele>618.0</ele><time>2026-04-19T06:59:06.979Z</time></trkpt><trkpt lat="37.83668500332446" lon="15.121480360250485"><ele>620.0</ele><time>2026-04-19T06:59:07.979Z</time></trkpt><trkpt lat="37.836661304318035" lon="15.121278496082953"><ele>622.0</ele><time>2026-04-19T06:59:08.979Z</time></trkpt><trkpt lat="37.836631770564544" lon="15.121072770222053"><ele>624.0</ele><time>2026-04-19T06:59:09.979Z</time></trkpt><trkpt lat="37.83659510351506" lon="15.120865329385593"><ele>626.0</ele><time>2026-04-19T06:59:10.979Z</time></trkpt><trkpt lat="37.83655533423605" lon="15.120653154288355"><ele>628.0</ele><time>2026-04-19T06:59:11.979Z</time></trkpt><trkpt lat="37.83651627273827" lon="15.120446230962663"><ele>630.0</ele><time>2026-04-19T06:59:12.979Z</time></trkpt><trkpt lat="37.83650080657499" lon="15.120253189732919"><ele>630.0</ele><time>2026-04-19T06:59:13.978Z</time></trkpt><trkpt lat="37.83652456318595" lon="15.120080345128734"><ele>630.0</ele><time>2026-04-19T06:59:14.978Z</time></trkpt><trkpt lat="37.836598205622145" lon="15.11994190756792"><ele>630.0</ele><time>2026-04-19T06:59:15.978Z</time></trkpt><trkpt lat="37.83668776257991" lon="15.1198254837556"><ele>630.0</ele><time>2026-04-19T06:59:16.978Z</time></trkpt><trkpt lat="37.836804990871464" lon="15.119744156614626"><ele>633.0</ele><time>2026-04-19T06:59:17.978Z</time></trkpt><trkpt lat="37.836954012855756" lon="15.119693182999884"><ele>636.0</ele><time>2026-04-19T06:59:18.978Z</time></trkpt><trkpt lat="37.83713509740444" lon="15.119648204899503"><ele>639.0</ele><time>2026-04-19T06:59:19.978Z</time></trkpt><trkpt lat="37.83730663778958" lon="15.11961050859023"><ele>639.0</ele><time>2026-04-19T06:59:20.978Z</time></trkpt><trkpt lat="37.8374700249469" lon="15.119601056907916"><ele>639.0</ele><time>2026-04-19T06:59:21.978Z</time></trkpt><trkpt lat="37.83765350711614" lon="15.119656428135498"><ele>639.0</ele><time>2026-04-19T06:59:22.978Z</time></trkpt><trkpt lat="37.83782432131883" lon="15.119702515254298"><ele>640.5</ele><time>2026-04-19T06:59:23.978Z</time></trkpt><trkpt lat="37.83797308317165" lon="15.119723317788997"><ele>642.0</ele><time>2026-04-19T06:59:24.978Z</time></trkpt><trkpt lat="37.8381133095014" lon="15.119676289367572"><ele>643.5</ele><time>2026-04-19T06:59:25.978Z</time></trkpt><trkpt lat="37.83824187738867" lon="15.119577614788948"><ele>645.0</ele><time>2026-04-19T06:59:26.978Z</time></trkpt><trkpt lat="37.83835953151627" lon="15.119442516706192"><ele>644.6666666666666</ele><time>2026-04-19T06:59:27.978Z</time></trkpt><trkpt lat="37.838480289220115" lon="15.119304552654231"><ele>644.3333333333333</ele><time>2026-04-19T06:59:28.978Z</time></trkpt><trkpt lat="37.83858055076249" lon="15.119162284629361"><ele>644.0</ele><time>2026-04-19T06:59:29.978Z</time></trkpt><trkpt lat="37.8386363435423" lon="15.118977753827796"><ele>644.0</ele><time>2026-04-19T06:59:30.978Z</time></trkpt><trkpt lat="37.83865419352743" lon="15.11876303278402"><ele>644.0</ele><time>2026-04-19T06:59:31.978Z</time></trkpt><trkpt lat="37.838668050371105" lon="15.118515877388505"><ele>644.0</ele><time>2026-04-19T06:59:32.978Z</time></trkpt><trkpt lat="37.83867403624835" lon="15.11824826328619"><ele>646.6666666666666</ele><time>2026-04-19T06:59:33.978Z</time></trkpt><trkpt lat="37.83868000167644" lon="15.117981563361372"><ele>649.3333333333334</ele><time>2026-04-19T06:59:34.978Z</time></trkpt><trkpt lat="37.838686003972896" lon="15.117713215124635"><ele>652.0</ele><time>2026-04-19T06:59:35.978Z</time></trkpt><trkpt lat="37.83869186986223" lon="15.117450965343002"><ele>653.3333333333334</ele><time>2026-04-19T06:59:36.978Z</time></trkpt><trkpt lat="37.838695865939364" lon="15.117202021880784"><ele>654.6666666666666</ele><time>2026-04-19T06:59:37.978Z</time></trkpt><trkpt lat="37.8386719782068" lon="15.11697422560346"><ele>656.0</ele><time>2026-04-19T06:59:38.978Z</time></trkpt><trkpt lat="37.83859460124714" lon="15.116781459310703"><ele>656.0</ele><time>2026-04-19T06:59:39.978Z</time></trkpt><trkpt lat="37.83847025279035" lon="15.116602523770545"><ele>656.0</ele><time>2026-04-19T06:59:40.978Z</time></trkpt><trkpt lat="37.83830809616961" lon="15.116443653220372"><ele>656.0</ele><time>2026-04-19T06:59:41.978Z</time></trkpt><trkpt lat="37.838126647769684" lon="15.116285228882845"><ele>660.0</ele><time>2026-04-19T06:59:42.978Z</time></trkpt><trkpt lat="37.83795347060947" lon="15.116109214394836"><ele>664.0</ele><time>2026-04-19T06:59:43.978Z</time></trkpt><trkpt lat="37.83781584861118" lon="15.11586225534439"><ele>667.5</ele><time>2026-04-19T06:59:44.978Z</time></trkpt><trkpt lat="37.837655820932774" lon="15.115628259593413"><ele>671.0</ele><time>2026-04-19T06:59:45.978Z</time></trkpt><trkpt lat="37.83751066441727" lon="15.115370464760444"><ele>672.5</ele><time>2026-04-19T06:59:46.978Z</time></trkpt><trkpt lat="37.83737004977398" lon="15.1151141083396"><ele>674.0</ele><time>2026-04-19T06:59:47.978Z</time></trkpt><trkpt lat="37.83724782296976" lon="15.114867129113632"><ele>674.6666666666666</ele><time>2026-04-19T06:59:48.978Z</time></trkpt><trkpt lat="37.837124724887715" lon="15.114639503845243"><ele>675.3333333333334</ele><time>2026-04-19T06:59:49.978Z</time></trkpt><trkpt lat="37.83702151617839" lon="15.114402277530697"><ele>676.0</ele><time>2026-04-19T06:59:50.978Z</time></trkpt><trkpt lat="37.8369231723394" lon="15.114166213698764"><ele>677.6666666666667</ele><time>2026-04-19T06:59:51.977Z</time></trkpt><trkpt lat="37.83681752143386" lon="15.11394211057611"><ele>679.3333333333334</ele><time>2026-04-19T06:59:52.977Z</time></trkpt><trkpt lat="37.83671678591969" lon="15.113725139317278"><ele>681.0</ele><time>2026-04-19T06:59:53.977Z</time></trkpt><trkpt lat="37.83662038560216" lon="15.113513293848833"><ele>682.0</ele><time>2026-04-19T06:59:54.977Z</time></trkpt><trkpt lat="37.83652586047387" lon="15.113298813692925"><ele>683.0</ele><time>2026-04-19T06:59:55.977Z</time></trkpt><trkpt lat="37.83643568987043" lon="15.113087244370588"><ele>684.0</ele><time>2026-04-19T06:59:56.977Z</time></trkpt><trkpt lat="37.83634300628949" lon="15.112880984023215"><ele>685.3333333333334</ele><time>2026-04-19T06:59:57.977Z</time></trkpt><trkpt lat="37.83625387060755" lon="15.112674887704449"><ele>686.6666666666667</ele><time>2026-04-19T06:59:58.977Z</time></trkpt><trkpt lat="37.83617408701336" lon="15.112465401318643"><ele>688.0</ele><time>2026-04-19T06:59:59.977Z</time></trkpt><trkpt lat="37.836084223284146" lon="15.1122606038981"><ele>689.0</ele><time>2026-04-19T07:00:00.977Z</time></trkpt><trkpt lat="37.835985708943284" lon="15.112061168390749"><ele>690.0</ele><time>2026-04-19T07:00:01.977Z</time></trkpt><trkpt lat="37.83587553671941" lon="15.11186510232395"><ele>691.0</ele><time>2026-04-19T07:00:02.977Z</time></trkpt><trkpt lat="37.83574354211889" lon="15.111670968941663"><ele>692.6666666666667</ele><time>2026-04-19T07:00:03.977Z</time></trkpt><trkpt lat="37.83561465288268" lon="15.111476862244269"><ele>694.3333333333334</ele><time>2026-04-19T07:00:04.977Z</time></trkpt><trkpt lat="37.835496010328875" lon="15.111283880504082"><ele>696.0</ele><time>2026-04-19T07:00:05.977Z</time></trkpt><trkpt lat="37.83538176540551" lon="15.111107799745382"><ele>696.0</ele><time>2026-04-19T07:00:06.977Z</time></trkpt><trkpt lat="37.83525758331647" lon="15.110952014144319"><ele>696.0</ele><time>2026-04-19T07:00:07.977Z</time></trkpt><trkpt lat="37.83510232253853" lon="15.110844522124722"><ele>696.0</ele><time>2026-04-19T07:00:08.977Z</time></trkpt><trkpt lat="37.83492875405266" lon="15.110774464517212"><ele>699.3333333333334</ele><time>2026-04-19T07:00:09.977Z</time></trkpt><trkpt lat="37.83474973589743" lon="15.11069967741102"><ele>702.6666666666667</ele><time>2026-04-19T07:00:10.977Z</time></trkpt><trkpt lat="37.83458956706326" lon="15.110575120048823"><ele>706.0</ele><time>2026-04-19T07:00:11.977Z</time></trkpt><trkpt lat="37.834431262252565" lon="15.110462941876264"><ele>706.6666666666667</ele><time>2026-04-19T07:00:12.977Z</time></trkpt><trkpt lat="37.83428312655944" lon="15.110355864347929"><ele>707.3333333333334</ele><time>2026-04-19T07:00:13.977Z</time></trkpt><trkpt lat="37.83415374661632" lon="15.110243232951746"><ele>708.0</ele><time>2026-04-19T07:00:14.977Z</time></trkpt><trkpt lat="37.834041736869565" lon="15.110120796435828"><ele>708.0</ele><time>2026-04-19T07:00:15.977Z</time></trkpt><trkpt lat="37.83395201060332" lon="15.109987641959583"><ele>708.0</ele><time>2026-04-19T07:00:16.977Z</time></trkpt><trkpt lat="37.83386720350185" lon="15.109872207088346"><ele>708.0</ele><time>2026-04-19T07:00:17.977Z</time></trkpt><trkpt lat="37.83381726978801" lon="15.109725763766551"><ele>708.0</ele><time>2026-04-19T07:00:18.977Z</time></trkpt><trkpt lat="37.83376830277443" lon="15.109602075668134"><ele>708.8</ele><time>2026-04-19T07:00:19.977Z</time></trkpt><trkpt lat="37.833730056269836" lon="15.109500811769191"><ele>709.5999999999999</ele><time>2026-04-19T07:00:20.977Z</time></trkpt><trkpt lat="37.83368622208369" lon="15.10939777726354"><ele>710.4000000000001</ele><time>2026-04-19T07:00:21.977Z</time></trkpt><trkpt lat="37.83364581557542" lon="15.109305343307692"><ele>711.2</ele><time>2026-04-19T07:00:22.977Z</time></trkpt><trkpt lat="37.83360950238058" lon="15.109225256610216"><ele>712.0</ele><time>2026-04-19T07:00:23.977Z</time></trkpt><trkpt lat="37.83354633036018" lon="15.109102188245727"><ele>712.6666666666667</ele><time>2026-04-19T07:00:25.977Z</time></trkpt><trkpt lat="37.833504687602556" lon="15.109036152699964"><ele>713.3333333333334</ele><time>2026-04-19T07:00:27.977Z</time></trkpt><trkpt lat="37.83347294997757" lon="15.108963139795883"><ele>714.0</ele><time>2026-04-19T07:00:30.976Z</time></trkpt><trkpt lat="37.83341874291098" lon="15.108881002963832"><ele>714.6666666666666</ele><time>2026-04-19T07:02:04.974Z</time></trkpt><trkpt lat="37.83333485815622" lon="15.108740376989996"><ele>715.3333333333333</ele><time>2026-04-19T07:02:06.974Z</time></trkpt><trkpt lat="37.83329170106057" lon="15.108668565462478"><ele>716.0</ele><time>2026-04-19T07:02:07.974Z</time></trkpt><trkpt lat="37.83322995549457" lon="15.108601118175088"><ele>716.1999999999999</ele><time>2026-04-19T07:02:08.974Z</time></trkpt><trkpt lat="37.833174318681564" lon="15.108512844637245"><ele>716.4</ele><time>2026-04-19T07:02:09.974Z</time></trkpt><trkpt lat="37.83311622230377" lon="15.108418492836622"><ele>716.6</ele><time>2026-04-19T07:02:10.974Z</time></trkpt><trkpt lat="37.83305839541458" lon="15.108322060439917"><ele>716.8</ele><time>2026-04-19T07:02:11.974Z</time></trkpt><trkpt lat="37.83300402074822" lon="15.108227692959437"><ele>717.0</ele><time>2026-04-19T07:02:12.974Z</time></trkpt><trkpt lat="37.83294815337261" lon="15.108141445211405"><ele>719.0</ele><time>2026-04-19T07:02:13.974Z</time></trkpt><trkpt lat="37.83290556452649" lon="15.10804726346165"><ele>721.0</ele><time>2026-04-19T07:02:14.974Z</time></trkpt><trkpt lat="37.832832721799136" lon="15.107991275559026"><ele>723.0</ele><time>2026-04-19T07:02:15.974Z</time></trkpt><trkpt lat="37.83277384270425" lon="15.107942464335574"><ele>725.0</ele><time>2026-04-19T07:02:16.974Z</time></trkpt><trkpt lat="37.83264519411674" lon="15.107917310382335"><ele>727.0</ele><time>2026-04-19T07:02:18.974Z</time></trkpt><trkpt lat="37.832575604177634" lon="15.107930602702758"><ele>729.0</ele><time>2026-04-19T07:02:19.974Z</time></trkpt><trkpt lat="37.83251425640919" lon="15.107973957004994"><ele>728.3333333333334</ele><time>2026-04-19T07:02:20.973Z</time></trkpt><trkpt lat="37.83245860469119" lon="15.108028898184386"><ele>727.6666666666666</ele><time>2026-04-19T07:02:21.973Z</time></trkpt><trkpt lat="37.832394089989094" lon="15.108095392560179"><ele>727.0</ele><time>2026-04-19T07:02:22.973Z</time></trkpt><trkpt lat="37.83232047690318" lon="15.108156304235456"><ele>726.3333333333333</ele><time>2026-04-19T07:02:23.973Z</time></trkpt><trkpt lat="37.832255556029395" lon="15.108233284960876"><ele>725.6666666666666</ele><time>2026-04-19T07:02:24.973Z</time></trkpt><trkpt lat="37.8321842818301" lon="15.10831019160249"><ele>725.0</ele><time>2026-04-19T07:02:25.973Z</time></trkpt><trkpt lat="37.83209311774119" lon="15.108369713001542"><ele>725.0</ele><time>2026-04-19T07:02:26.973Z</time></trkpt><trkpt lat="37.83199629188706" lon="15.108418721686418"><ele>725.0</ele><time>2026-04-19T07:02:27.973Z</time></trkpt><trkpt lat="37.8318974572837" lon="15.108442008660436"><ele>725.0</ele><time>2026-04-19T07:02:28.973Z</time></trkpt><trkpt lat="37.83179590598013" lon="15.10844018883983"><ele>725.0</ele><time>2026-04-19T07:02:29.973Z</time></trkpt><trkpt lat="37.831682808752596" lon="15.108413023497542"><ele>725.0</ele><time>2026-04-19T07:02:30.973Z</time></trkpt><trkpt lat="37.83157281163024" lon="15.108346815024905"><ele>728.0</ele><time>2026-04-19T07:02:31.973Z</time></trkpt><trkpt lat="37.83145592856211" lon="15.108295619287055"><ele>731.0</ele><time>2026-04-19T07:02:32.973Z</time></trkpt><trkpt lat="37.83134041344863" lon="15.108244589919895"><ele>734.0</ele><time>2026-04-19T07:02:33.973Z</time></trkpt><trkpt lat="37.83122192652835" lon="15.108204416549409"><ele>737.0</ele><time>2026-04-19T07:02:34.973Z</time></trkpt><trkpt lat="37.83109769927402" lon="15.108170053682983"><ele>740.75</ele><time>2026-04-19T07:02:35.973Z</time></trkpt><trkpt lat="37.83096609206552" lon="15.1081478758486"><ele>744.5</ele><time>2026-04-19T07:02:36.973Z</time></trkpt><trkpt lat="37.830837776430215" lon="15.108135867178037"><ele>748.25</ele><time>2026-04-19T07:02:37.973Z</time></trkpt><trkpt lat="37.830707006245134" lon="15.108131599493246"><ele>752.0</ele><time>2026-04-19T07:02:38.973Z</time></trkpt><trkpt lat="37.830571463670516" lon="15.10814005438683"><ele>752.0</ele><time>2026-04-19T07:02:39.973Z</time></trkpt><trkpt lat="37.830440558524025" lon="15.108176117931688"><ele>752.0</ele><time>2026-04-19T07:02:40.973Z</time></trkpt><trkpt lat="37.830306794664665" lon="15.108170489402584"><ele>752.0</ele><time>2026-04-19T07:02:41.973Z</time></trkpt><trkpt lat="37.83017527643145" lon="15.1081827331798"><ele>752.0</ele><time>2026-04-19T07:02:42.973Z</time></trkpt><trkpt lat="37.8300429813359" lon="15.108199298614561"><ele>751.75</ele><time>2026-04-19T07:02:43.973Z</time></trkpt><trkpt lat="37.82989907533433" lon="15.108225138374051"><ele>751.5</ele><time>2026-04-19T07:02:44.973Z</time></trkpt><trkpt lat="37.829759933313" lon="15.10825290021084"><ele>751.25</ele><time>2026-04-19T07:02:45.973Z</time></trkpt><trkpt lat="37.82962179032603" lon="15.108289831346863"><ele>751.0</ele><time>2026-04-19T07:02:46.973Z</time></trkpt><trkpt lat="37.829487572725945" lon="15.108345098069385"><ele>751.0</ele><time>2026-04-19T07:02:47.973Z</time></trkpt><trkpt lat="37.829356235306136" lon="15.108432202328824"><ele>751.0</ele><time>2026-04-19T07:02:48.973Z</time></trkpt><trkpt lat="37.82923623443856" lon="15.10854411471475"><ele>751.0</ele><time>2026-04-19T07:02:49.973Z</time></trkpt><trkpt lat="37.82912966958385" lon="15.108679458034139"><ele>751.0</ele><time>2026-04-19T07:02:50.973Z</time></trkpt><trkpt lat="37.82902927358995" lon="15.108831533378929"><ele>751.6666666666667</ele><time>2026-04-19T07:02:51.973Z</time></trkpt><trkpt lat="37.828923823659075" lon="15.108997153755729"><ele>752.3333333333334</ele><time>2026-04-19T07:02:52.973Z</time></trkpt><trkpt lat="37.8288165704153" lon="15.109160989777644"><ele>753.0</ele><time>2026-04-19T07:02:53.973Z</time></trkpt><trkpt lat="37.82870312354342" lon="15.109324165605871"><ele>753.0</ele><time>2026-04-19T07:02:54.973Z</time></trkpt><trkpt lat="37.8285967205319" lon="15.109479100411189"><ele>753.0</ele><time>2026-04-19T07:02:55.973Z</time></trkpt><trkpt lat="37.828482208788806" lon="15.109623986575139"><ele>753.0</ele><time>2026-04-19T07:02:56.973Z</time></trkpt><trkpt lat="37.82836126263352" lon="15.109766509411392"><ele>755.0</ele><time>2026-04-19T07:02:57.972Z</time></trkpt><trkpt lat="37.82824218114542" lon="15.109905555391096"><ele>757.0</ele><time>2026-04-19T07:02:58.972Z</time></trkpt><trkpt lat="37.82810687893596" lon="15.110020872612733"><ele>759.0</ele><time>2026-04-19T07:02:59.972Z</time></trkpt><trkpt lat="37.82796899135479" lon="15.110144867171353"><ele>759.0</ele><time>2026-04-19T07:03:00.972Z</time></trkpt><trkpt lat="37.8278330516763" lon="15.110282900205215"><ele>759.0</ele><time>2026-04-19T07:03:01.972Z</time></trkpt><trkpt lat="37.82768027100664" lon="15.110409389681175"><ele>759.0</ele><time>2026-04-19T07:03:02.972Z</time></trkpt><trkpt lat="37.82750530822717" lon="15.11051483410058"><ele>760.3333333333334</ele><time>2026-04-19T07:03:03.972Z</time></trkpt><trkpt lat="37.82734263409678" lon="15.110646381300988"><ele>761.6666666666667</ele><time>2026-04-19T07:03:04.972Z</time></trkpt><trkpt lat="37.827184124771335" lon="15.110785366177932"><ele>763.0</ele><time>2026-04-19T07:03:05.972Z</time></trkpt><trkpt lat="37.82702337578608" lon="15.110927951690512"><ele>763.0</ele><time>2026-04-19T07:03:06.972Z</time></trkpt><trkpt lat="37.82686084922977" lon="15.111064623438118"><ele>763.0</ele><time>2026-04-19T07:03:07.972Z</time></trkpt><trkpt lat="37.826703538010854" lon="15.111200726249537"><ele>763.0</ele><time>2026-04-19T07:03:08.972Z</time></trkpt><trkpt lat="37.82656273455889" lon="15.111320262007993"><ele>765.25</ele><time>2026-04-19T07:03:09.972Z</time></trkpt><trkpt lat="37.82643177150589" lon="15.111430265633713"><ele>767.5</ele><time>2026-04-19T07:03:10.972Z</time></trkpt><trkpt lat="37.82631601311216" lon="15.111541235447543"><ele>769.75</ele><time>2026-04-19T07:03:11.972Z</time></trkpt><trkpt lat="37.826239462493376" lon="15.1116984773569"><ele>772.0</ele><time>2026-04-19T07:03:12.972Z</time></trkpt><trkpt lat="37.826214714314624" lon="15.11188665555927"><ele>772.0</ele><time>2026-04-19T07:03:13.972Z</time></trkpt><trkpt lat="37.82622779566736" lon="15.112065502465946"><ele>772.0</ele><time>2026-04-19T07:03:14.972Z</time></trkpt><trkpt lat="37.82622332915915" lon="15.112218827653367"><ele>772.0</ele><time>2026-04-19T07:03:15.972Z</time></trkpt><trkpt lat="37.82617398555499" lon="15.112327017188575"><ele>772.0</ele><time>2026-04-19T07:03:16.972Z</time></trkpt><trkpt lat="37.82606326920411" lon="15.11236241806752"><ele>774.0</ele><time>2026-04-19T07:03:17.972Z</time></trkpt><trkpt lat="37.82592960609281" lon="15.112375882395966"><ele>776.0</ele><time>2026-04-19T07:03:18.972Z</time></trkpt><trkpt lat="37.82578307967699" lon="15.112412097723752"><ele>778.0</ele><time>2026-04-19T07:03:19.972Z</time></trkpt><trkpt lat="37.82566028673825" lon="15.112413843610712"><ele>780.0</ele><time>2026-04-19T07:03:20.972Z</time></trkpt><trkpt lat="37.82556641125128" lon="15.1123591828844"><ele>783.5</ele><time>2026-04-19T07:03:21.972Z</time></trkpt><trkpt lat="37.82552905609963" lon="15.11224095895933"><ele>787.0</ele><time>2026-04-19T07:03:22.972Z</time></trkpt><trkpt lat="37.82549491550671" lon="15.112114373382074"><ele>790.5</ele><time>2026-04-19T07:03:23.972Z</time></trkpt><trkpt lat="37.82553055144575" lon="15.111971438399692"><ele>794.0</ele><time>2026-04-19T07:03:24.972Z</time></trkpt><trkpt lat="37.825646456103996" lon="15.111878420574671"><ele>794.0</ele><time>2026-04-19T07:03:25.972Z</time></trkpt><trkpt lat="37.82575488087745" lon="15.111756162957533"><ele>794.0</ele><time>2026-04-19T07:03:26.972Z</time></trkpt><trkpt lat="37.82584213102383" lon="15.111598954539208"><ele>794.0</ele><time>2026-04-19T07:03:27.972Z</time></trkpt><trkpt lat="37.825901970941544" lon="15.111423436481203"><ele>794.0</ele><time>2026-04-19T07:03:28.972Z</time></trkpt><trkpt lat="37.82591275779151" lon="15.111226633083044"><ele>795.0</ele><time>2026-04-19T07:03:29.972Z</time></trkpt><trkpt lat="37.82587510917735" lon="15.111033982302375"><ele>796.0</ele><time>2026-04-19T07:03:30.972Z</time></trkpt><trkpt lat="37.82578601271665" lon="15.110852092754993"><ele>797.0</ele><time>2026-04-19T07:03:31.972Z</time></trkpt><trkpt lat="37.825656185538655" lon="15.110676592485882"><ele>798.0</ele><time>2026-04-19T07:03:32.972Z</time></trkpt><trkpt lat="37.82552575146065" lon="15.110489519524293"><ele>799.0</ele><time>2026-04-19T07:03:33.972Z</time></trkpt><trkpt lat="37.825400140990965" lon="15.110304723598649"><ele>800.0</ele><time>2026-04-19T07:03:34.971Z</time></trkpt><trkpt lat="37.82527808817951" lon="15.110123826746674"><ele>800.0</ele><time>2026-04-19T07:03:35.971Z</time></trkpt><trkpt lat="37.82515740835982" lon="15.109959169059513"><ele>800.0</ele><time>2026-04-19T07:03:36.971Z</time></trkpt><trkpt lat="37.825049700569885" lon="15.109801643384948"><ele>800.0</ele><time>2026-04-19T07:03:37.971Z</time></trkpt><trkpt lat="37.82495767577852" lon="15.109648208241481"><ele>804.3333333333334</ele><time>2026-04-19T07:03:38.971Z</time></trkpt><trkpt lat="37.82490641020217" lon="15.10946601487367"><ele>808.6666666666667</ele><time>2026-04-19T07:03:39.971Z</time></trkpt><trkpt lat="37.82488504301377" lon="15.109270189823933"><ele>813.0</ele><time>2026-04-19T07:03:40.971Z</time></trkpt><trkpt lat="37.8249053568931" lon="15.109059136501688"><ele>816.0</ele><time>2026-04-19T07:03:41.971Z</time></trkpt><trkpt lat="37.82495943810352" lon="15.108832366620392"><ele>819.0</ele><time>2026-04-19T07:03:42.971Z</time></trkpt><trkpt lat="37.82500917484225" lon="15.10860274815583"><ele>822.0</ele><time>2026-04-19T07:03:43.971Z</time></trkpt><trkpt lat="37.825060922289744" lon="15.108361449402963"><ele>823.3333333333333</ele><time>2026-04-19T07:03:44.971Z</time></trkpt><trkpt lat="37.82510846129637" lon="15.108140908048478"><ele>824.6666666666666</ele><time>2026-04-19T07:03:45.971Z</time></trkpt><trkpt lat="37.82515477175452" lon="15.10794872772977"><ele>826.0</ele><time>2026-04-19T07:03:46.971Z</time></trkpt><trkpt lat="37.82522890587937" lon="15.107793095619433"><ele>826.0</ele><time>2026-04-19T07:03:47.971Z</time></trkpt><trkpt lat="37.82534831852684" lon="15.107683791056994"><ele>826.0</ele><time>2026-04-19T07:03:48.971Z</time></trkpt><trkpt lat="37.82549109142418" lon="15.107576185157253"><ele>826.0</ele><time>2026-04-19T07:03:49.971Z</time></trkpt><trkpt lat="37.82562644643521" lon="15.107441823224333"><ele>829.3333333333333</ele><time>2026-04-19T07:03:50.971Z</time></trkpt><trkpt lat="37.82573849797248" lon="15.107260763238537"><ele>832.6666666666667</ele><time>2026-04-19T07:03:51.971Z</time></trkpt><trkpt lat="37.82582573922435" lon="15.107069721761253"><ele>836.0</ele><time>2026-04-19T07:03:52.971Z</time></trkpt><trkpt lat="37.825915851073546" lon="15.106902681768592"><ele>835.0</ele><time>2026-04-19T07:03:53.971Z</time></trkpt><trkpt lat="37.82600260790695" lon="15.106746038256574"><ele>834.0</ele><time>2026-04-19T07:03:54.971Z</time></trkpt><trkpt lat="37.82606246827015" lon="15.106593641193259"><ele>833.0</ele><time>2026-04-19T07:03:55.971Z</time></trkpt><trkpt lat="37.826087293487255" lon="15.106430444416636"><ele>832.0</ele><time>2026-04-19T07:03:56.971Z</time></trkpt><trkpt lat="37.826065992731195" lon="15.106271677813607"><ele>832.0</ele><time>2026-04-19T07:03:57.971Z</time></trkpt><trkpt lat="37.826037850647296" lon="15.106103251467578"><ele>832.0</ele><time>2026-04-19T07:03:58.971Z</time></trkpt><trkpt lat="37.82604461637406" lon="15.105936387152367"><ele>832.0</ele><time>2026-04-19T07:03:59.971Z</time></trkpt><trkpt lat="37.826097503663135" lon="15.105774035185869"><ele>832.0</ele><time>2026-04-19T07:04:00.971Z</time></trkpt><trkpt lat="37.82618910218191" lon="15.105643726851172"><ele>835.0</ele><time>2026-04-19T07:04:01.971Z</time></trkpt><trkpt lat="37.82631433705882" lon="15.105560156011975"><ele>838.0</ele><time>2026-04-19T07:04:02.971Z</time></trkpt><trkpt lat="37.82645842911126" lon="15.105522697860259"><ele>841.0</ele><time>2026-04-19T07:04:03.971Z</time></trkpt><trkpt lat="37.82658803051804" lon="15.105498014811735"><ele>844.0</ele><time>2026-04-19T07:04:04.971Z</time></trkpt><trkpt lat="37.826692181634215" lon="15.105417669876335"><ele>844.0</ele><time>2026-04-19T07:04:05.971Z</time></trkpt><trkpt lat="37.82676266313795" lon="15.105278943019966"><ele>844.0</ele><time>2026-04-19T07:04:06.971Z</time></trkpt><trkpt lat="37.82677443203517" lon="15.105098168404396"><ele>844.0</ele><time>2026-04-19T07:04:07.971Z</time></trkpt><trkpt lat="37.82672075810001" lon="15.104925729698943"><ele>844.0</ele><time>2026-04-19T07:04:08.971Z</time></trkpt><trkpt lat="37.82662405241586" lon="15.104803913687675"><ele>844.0</ele><time>2026-04-19T07:04:09.971Z</time></trkpt><trkpt lat="37.826493468443815" lon="15.104730809083126"><ele>844.0</ele><time>2026-04-19T07:04:10.971Z</time></trkpt><trkpt lat="37.826356167036074" lon="15.104736182528876"><ele>844.0</ele><time>2026-04-19T07:04:11.971Z</time></trkpt><trkpt lat="37.82623474709654" lon="15.104832063566143"><ele>844.0</ele><time>2026-04-19T07:04:12.97Z</time></trkpt><trkpt lat="37.82612220408176" lon="15.104973412393322"><ele>844.0</ele><time>2026-04-19T07:04:13.97Z</time></trkpt><trkpt lat="37.826013407451505" lon="15.10512530514476"><ele>844.0</ele><time>2026-04-19T07:04:14.97Z</time></trkpt><trkpt lat="37.82590482283657" lon="15.105271789984679"><ele>844.0</ele><time>2026-04-19T07:04:15.97Z</time></trkpt><trkpt lat="37.82579643450221" lon="15.105419471576175"><ele>844.5</ele><time>2026-04-19T07:04:16.97Z</time></trkpt><trkpt lat="37.82569749380086" lon="15.105558391198157"><ele>845.0</ele><time>2026-04-19T07:04:17.97Z</time></trkpt><trkpt lat="37.825594477767034" lon="15.105680616484111"><ele>845.5</ele><time>2026-04-19T07:04:18.97Z</time></trkpt><trkpt lat="37.825482763418485" lon="15.105780653720556"><ele>846.0</ele><time>2026-04-19T07:04:19.97Z</time></trkpt><trkpt lat="37.82534909253986" lon="15.105807852384396"><ele>846.0</ele><time>2026-04-19T07:04:20.97Z</time></trkpt><trkpt lat="37.82519575746213" lon="15.105796908837291"><ele>846.0</ele><time>2026-04-19T07:04:21.97Z</time></trkpt><trkpt lat="37.82502338589817" lon="15.10578663235227"><ele>846.0</ele><time>2026-04-19T07:04:22.97Z</time></trkpt><trkpt lat="37.82485310774882" lon="15.105793280017165"><ele>851.0</ele><time>2026-04-19T07:04:23.97Z</time></trkpt><trkpt lat="37.824679760250575" lon="15.105806874613565"><ele>856.0</ele><time>2026-04-19T07:04:24.97Z</time></trkpt><trkpt lat="37.82449810025382" lon="15.105874770161066"><ele>861.0</ele><time>2026-04-19T07:04:25.97Z</time></trkpt><trkpt lat="37.824323939647115" lon="15.1059720173629"><ele>866.6666666666667</ele><time>2026-04-19T07:04:26.97Z</time></trkpt><trkpt lat="37.82416796164177" lon="15.10609744519443"><ele>872.3333333333334</ele><time>2026-04-19T07:04:27.97Z</time></trkpt><trkpt lat="37.824039525192326" lon="15.106245598100443"><ele>878.0</ele><time>2026-04-19T07:04:28.97Z</time></trkpt><trkpt lat="37.823946964643724" lon="15.106394375246575"><ele>878.0</ele><time>2026-04-19T07:04:29.97Z</time></trkpt><trkpt lat="37.82383956901882" lon="15.106498245929377"><ele>878.0</ele><time>2026-04-19T07:04:30.97Z</time></trkpt><trkpt lat="37.82371783674228" lon="15.106499140883013"><ele>878.0</ele><time>2026-04-19T07:04:31.97Z</time></trkpt><trkpt lat="37.82360935924517" lon="15.106447728709325"><ele>878.0</ele><time>2026-04-19T07:04:32.97Z</time></trkpt><trkpt lat="37.82346143179764" lon="15.106395969401484"><ele>882.0</ele><time>2026-04-19T07:04:33.97Z</time></trkpt><trkpt lat="37.82330726488462" lon="15.106343203020609"><ele>886.0</ele><time>2026-04-19T07:04:34.97Z</time></trkpt><trkpt lat="37.823136548173714" lon="15.106293574598897"><ele>890.0</ele><time>2026-04-19T07:04:35.97Z</time></trkpt><trkpt lat="37.82297442792106" lon="15.10624866531493"><ele>890.0</ele><time>2026-04-19T07:04:36.97Z</time></trkpt><trkpt lat="37.822823636470794" lon="15.106193649755264"><ele>890.0</ele><time>2026-04-19T07:04:37.97Z</time></trkpt><trkpt lat="37.82268168202941" lon="15.106149832099893"><ele>890.0</ele><time>2026-04-19T07:04:38.97Z</time></trkpt><trkpt lat="37.82255175831133" lon="15.106134976855255"><ele>890.0</ele><time>2026-04-19T07:04:39.97Z</time></trkpt><trkpt lat="37.82242122089652" lon="15.106179564342538"><ele>887.6666666666667</ele><time>2026-04-19T07:04:40.97Z</time></trkpt><trkpt lat="37.82229431902076" lon="15.106307744516307"><ele>885.3333333333333</ele><time>2026-04-19T07:04:41.97Z</time></trkpt><trkpt lat="37.82216392882989" lon="15.106474804146231"><ele>883.0</ele><time>2026-04-19T07:04:42.97Z</time></trkpt><trkpt lat="37.822071502265565" lon="15.106661619507866"><ele>883.0</ele><time>2026-04-19T07:04:43.97Z</time></trkpt><trkpt lat="37.82199423129718" lon="15.10685261315066"><ele>883.0</ele><time>2026-04-19T07:04:44.97Z</time></trkpt><trkpt lat="37.82191822441927" lon="15.107017825848857"><ele>883.0</ele><time>2026-04-19T07:04:45.97Z</time></trkpt><trkpt lat="37.8218299198072" lon="15.107168805874581"><ele>889.6666666666666</ele><time>2026-04-19T07:04:46.97Z</time></trkpt><trkpt lat="37.82170904672509" lon="15.107278675528491"><ele>896.3333333333333</ele><time>2026-04-19T07:04:47.97Z</time></trkpt><trkpt lat="37.82155655151106" lon="15.107329739808568"><ele>903.0</ele><time>2026-04-19T07:04:48.97Z</time></trkpt><trkpt lat="37.82140759151484" lon="15.10735902825373"><ele>903.0</ele><time>2026-04-19T07:04:49.969Z</time></trkpt><trkpt lat="37.82128241572831" lon="15.107328513633167"><ele>903.0</ele><time>2026-04-19T07:04:50.969Z</time></trkpt><trkpt lat="37.82116525106559" lon="15.107275319285348"><ele>903.0</ele><time>2026-04-19T07:04:51.969Z</time></trkpt><trkpt lat="37.82103291235373" lon="15.107177202716372"><ele>903.0</ele><time>2026-04-19T07:04:52.969Z</time></trkpt><trkpt lat="37.82088675722206" lon="15.107080764489158"><ele>906.3333333333333</ele><time>2026-04-19T07:04:53.969Z</time></trkpt><trkpt lat="37.820740306573036" lon="15.106964710384892"><ele>909.6666666666666</ele><time>2026-04-19T07:04:54.969Z</time></trkpt><trkpt lat="37.82059203029774" lon="15.106845895645774"><ele>913.0</ele><time>2026-04-19T07:04:55.969Z</time></trkpt><trkpt lat="37.82045021409657" lon="15.106710543913405"><ele>913.0</ele><time>2026-04-19T07:04:56.969Z</time></trkpt><trkpt lat="37.820296736527595" lon="15.106590335689356"><ele>913.0</ele><time>2026-04-19T07:04:57.969Z</time></trkpt><trkpt lat="37.820151820955736" lon="15.10646684655324"><ele>913.0</ele><time>2026-04-19T07:04:58.969Z</time></trkpt><trkpt lat="37.82002470984449" lon="15.1063337789961"><ele>918.0</ele><time>2026-04-19T07:04:59.969Z</time></trkpt><trkpt lat="37.81990538319829" lon="15.106185724122847"><ele>923.0</ele><time>2026-04-19T07:05:00.969Z</time></trkpt><trkpt lat="37.81978398272392" lon="15.106035775165939"><ele>928.0</ele><time>2026-04-19T07:05:01.969Z</time></trkpt><trkpt lat="37.81966483237391" lon="15.105888605428168"><ele>928.0</ele><time>2026-04-19T07:05:02.969Z</time></trkpt><trkpt lat="37.819552655139255" lon="15.105755295319755"><ele>928.0</ele><time>2026-04-19T07:05:03.969Z</time></trkpt><trkpt lat="37.81942872586811" lon="15.105643428622438"><ele>928.0</ele><time>2026-04-19T07:05:04.969Z</time></trkpt><trkpt lat="37.81927229405538" lon="15.105591153296617"><ele>926.0</ele><time>2026-04-19T07:05:05.969Z</time></trkpt><trkpt lat="37.81911214973314" lon="15.105608759556834"><ele>924.0</ele><time>2026-04-19T07:05:06.969Z</time></trkpt><trkpt lat="37.81896220609356" lon="15.105656194385102"><ele>922.0</ele><time>2026-04-19T07:05:07.969Z</time></trkpt><trkpt lat="37.81883956631955" lon="15.105766683750506"><ele>922.0</ele><time>2026-04-19T07:05:08.969Z</time></trkpt><trkpt lat="37.818734236802044" lon="15.105919542567735"><ele>922.0</ele><time>2026-04-19T07:05:09.969Z</time></trkpt><trkpt lat="37.81862138077644" lon="15.106048256047517"><ele>922.0</ele><time>2026-04-19T07:05:10.969Z</time></trkpt><trkpt lat="37.81851927150406" lon="15.106158281641134"><ele>922.0</ele><time>2026-04-19T07:05:11.969Z</time></trkpt><trkpt lat="37.818422003604574" lon="15.10623215518258"><ele>923.8</ele><time>2026-04-19T07:05:12.969Z</time></trkpt><trkpt lat="37.8183151532438" lon="15.106221495857783"><ele>925.6</ele><time>2026-04-19T07:05:13.969Z</time></trkpt><trkpt lat="37.81824078024565" lon="15.106133241042688"><ele>927.3999999999999</ele><time>2026-04-19T07:05:14.969Z</time></trkpt><trkpt lat="37.818179262545534" lon="15.106086764817277"><ele>929.1999999999999</ele><time>2026-04-19T07:05:15.969Z</time></trkpt><trkpt lat="37.81816695764169" lon="15.105967534990231"><ele>931.0</ele><time>2026-04-19T07:05:16.969Z</time></trkpt><trkpt lat="37.818195466268826" lon="15.105818551306937"><ele>933.25</ele><time>2026-04-19T07:05:17.969Z</time></trkpt><trkpt lat="37.818265462179106" lon="15.105686615188494"><ele>935.5</ele><time>2026-04-19T07:05:18.969Z</time></trkpt><trkpt lat="37.818357623368286" lon="15.105560797478102"><ele>937.75</ele><time>2026-04-19T07:05:19.969Z</time></trkpt><trkpt lat="37.81847654033191" lon="15.105460115654292"><ele>940.0</ele><time>2026-04-19T07:05:20.969Z</time></trkpt><trkpt lat="37.81860541648966" lon="15.105355836833963"><ele>941.0</ele><time>2026-04-19T07:05:21.969Z</time></trkpt><trkpt lat="37.81870889178348" lon="15.105222947110263"><ele>942.0</ele><time>2026-04-19T07:05:22.969Z</time></trkpt><trkpt lat="37.818830221821635" lon="15.105119273986036"><ele>943.0</ele><time>2026-04-19T07:05:23.969Z</time></trkpt><trkpt lat="37.818979447790106" lon="15.105058741611035"><ele>943.0</ele><time>2026-04-19T07:05:24.969Z</time></trkpt><trkpt lat="37.81913646358869" lon="15.10504860885196"><ele>943.0</ele><time>2026-04-19T07:05:25.969Z</time></trkpt><trkpt lat="37.81930287303307" lon="15.105083063310252"><ele>943.0</ele><time>2026-04-19T07:05:26.968Z</time></trkpt><trkpt lat="37.81948430269068" lon="15.105149507581523"><ele>944.0</ele><time>2026-04-19T07:05:27.968Z</time></trkpt><trkpt lat="37.81965319042986" lon="15.105202354521811"><ele>945.0</ele><time>2026-04-19T07:05:28.968Z</time></trkpt><trkpt lat="37.81981416737726" lon="15.105245255826079"><ele>946.0</ele><time>2026-04-19T07:05:29.968Z</time></trkpt><trkpt lat="37.819967258660604" lon="15.105211606466527"><ele>946.0</ele><time>2026-04-19T07:05:30.968Z</time></trkpt><trkpt lat="37.82008872448664" lon="15.105100829280186"><ele>946.0</ele><time>2026-04-19T07:05:31.968Z</time></trkpt><trkpt lat="37.820179449797216" lon="15.104945169789787"><ele>946.0</ele><time>2026-04-19T07:05:32.968Z</time></trkpt><trkpt lat="37.82028608264515" lon="15.104743502161417"><ele>946.0</ele><time>2026-04-19T07:05:33.968Z</time></trkpt><trkpt lat="37.820388015624516" lon="15.104538541343482"><ele>946.0</ele><time>2026-04-19T07:05:34.968Z</time></trkpt><trkpt lat="37.820478308460366" lon="15.104334583604663"><ele>946.0</ele><time>2026-04-19T07:05:35.968Z</time></trkpt><trkpt lat="37.820552539368016" lon="15.104139817869042"><ele>951.0</ele><time>2026-04-19T07:05:36.968Z</time></trkpt><trkpt lat="37.820640043982344" lon="15.103941634346377"><ele>956.0</ele><time>2026-04-19T07:05:37.968Z</time></trkpt><trkpt lat="37.82070259370442" lon="15.103725225751218"><ele>961.0</ele><time>2026-04-19T07:05:38.968Z</time></trkpt><trkpt lat="37.82073958653979" lon="15.103470766800875"><ele>961.0</ele><time>2026-04-19T07:05:39.968Z</time></trkpt><trkpt lat="37.820782133529214" lon="15.103255033613792"><ele>961.0</ele><time>2026-04-19T07:05:40.968Z</time></trkpt><trkpt lat="37.82079768663524" lon="15.103057870326344"><ele>961.0</ele><time>2026-04-19T07:05:41.968Z</time></trkpt><trkpt lat="37.82079037107499" lon="15.102877747458846"><ele>960.3333333333333</ele><time>2026-04-19T07:05:42.968Z</time></trkpt><trkpt lat="37.820728977527295" lon="15.102710079153036"><ele>959.6666666666667</ele><time>2026-04-19T07:05:43.968Z</time></trkpt><trkpt lat="37.82058843228483" lon="15.10256569678024"><ele>959.0</ele><time>2026-04-19T07:05:44.968Z</time></trkpt><trkpt lat="37.82041466599479" lon="15.102486502503837"><ele>959.0</ele><time>2026-04-19T07:05:45.968Z</time></trkpt><trkpt lat="37.82025297140669" lon="15.102423339851926"><ele>959.0</ele><time>2026-04-19T07:05:46.968Z</time></trkpt><trkpt lat="37.82007451913733" lon="15.102407687587645"><ele>959.0</ele><time>2026-04-19T07:05:47.968Z</time></trkpt><trkpt lat="37.819914422797865" lon="15.102375252355893"><ele>962.6666666666667</ele><time>2026-04-19T07:05:48.968Z</time></trkpt><trkpt lat="37.819760788728246" lon="15.102318047382171"><ele>966.3333333333333</ele><time>2026-04-19T07:05:49.968Z</time></trkpt><trkpt lat="37.81962709402845" lon="15.102244209930337"><ele>970.0</ele><time>2026-04-19T07:05:50.968Z</time></trkpt><trkpt lat="37.819520872615755" lon="15.102112935599367"><ele>970.0</ele><time>2026-04-19T07:05:51.968Z</time></trkpt><trkpt lat="37.81944041615288" lon="15.101940884732665"><ele>970.0</ele><time>2026-04-19T07:05:52.968Z</time></trkpt><trkpt lat="37.81940851677046" lon="15.10175942631654"><ele>970.0</ele><time>2026-04-19T07:05:53.968Z</time></trkpt><trkpt lat="37.81942272802327" lon="15.101573651709925"><ele>972.6666666666666</ele><time>2026-04-19T07:05:54.968Z</time></trkpt><trkpt lat="37.819421838077716" lon="15.101379332939226"><ele>975.3333333333333</ele><time>2026-04-19T07:05:55.968Z</time></trkpt><trkpt lat="37.8193744106983" lon="15.101205345805829"><ele>978.0</ele><time>2026-04-19T07:05:56.968Z</time></trkpt><trkpt lat="37.81928973597919" lon="15.101046433154195"><ele>980.0</ele><time>2026-04-19T07:05:57.968Z</time></trkpt><trkpt lat="37.81915753132222" lon="15.100892174675607"><ele>982.0</ele><time>2026-04-19T07:05:58.968Z</time></trkpt><trkpt lat="37.819025642892754" lon="15.1007858779984"><ele>984.0</ele><time>2026-04-19T07:05:59.968Z</time></trkpt><trkpt lat="37.81889266831765" lon="15.100736028811722"><ele>984.0</ele><time>2026-04-19T07:06:00.968Z</time></trkpt><trkpt lat="37.818756594264954" lon="15.100753749652677"><ele>984.0</ele><time>2026-04-19T07:06:01.968Z</time></trkpt><trkpt lat="37.818622553529494" lon="15.100843060263374"><ele>984.0</ele><time>2026-04-19T07:06:02.968Z</time></trkpt><trkpt lat="37.81851811772189" lon="15.100964859716283"><ele>984.0</ele><time>2026-04-19T07:06:03.968Z</time></trkpt><trkpt lat="37.818416390332786" lon="15.101103831034617"><ele>986.75</ele><time>2026-04-19T07:06:04.967Z</time></trkpt><trkpt lat="37.818307834768284" lon="15.101229645046404"><ele>989.5</ele><time>2026-04-19T07:06:05.967Z</time></trkpt><trkpt lat="37.818161960340525" lon="15.10128808980262"><ele>992.25</ele><time>2026-04-19T07:06:06.967Z</time></trkpt><trkpt lat="37.81801428518938" lon="15.101278306534756"><ele>995.0</ele><time>2026-04-19T07:06:07.983Z</time></trkpt><trkpt lat="37.8178771153227" lon="15.101198407833612"><ele>995.0</ele><time>2026-04-19T07:06:08.983Z</time></trkpt><trkpt lat="37.81774923729266" lon="15.101081776758788"><ele>995.0</ele><time>2026-04-19T07:06:09.983Z</time></trkpt><trkpt lat="37.81761758245252" lon="15.100957846962837"><ele>995.0</ele><time>2026-04-19T07:06:10.983Z</time></trkpt><trkpt lat="37.81746791135694" lon="15.100842955014304"><ele>997.6666666666667</ele><time>2026-04-19T07:06:11.983Z</time></trkpt><trkpt lat="37.8173187980624" lon="15.100773322369205"><ele>1000.3333333333333</ele><time>2026-04-19T07:06:12.983Z</time></trkpt><trkpt lat="37.81716937046011" lon="15.100772861473729"><ele>1003.0</ele><time>2026-04-19T07:06:13.983Z</time></trkpt><trkpt lat="37.817022747745256" lon="15.100850160867047"><ele>1003.0</ele><time>2026-04-19T07:06:14.983Z</time></trkpt><trkpt lat="37.81688156677397" lon="15.100961682682435"><ele>1003.0</ele><time>2026-04-19T07:06:15.983Z</time></trkpt><trkpt lat="37.816759365085225" lon="15.101065889698411"><ele>1003.0</ele><time>2026-04-19T07:06:16.983Z</time></trkpt><trkpt lat="37.816638095231454" lon="15.101106568456212"><ele>1003.0</ele><time>2026-04-19T07:06:17.983Z</time></trkpt><trkpt lat="37.81651211079303" lon="15.101068273032489"><ele>1005.0</ele><time>2026-04-19T07:06:18.983Z</time></trkpt><trkpt lat="37.81640373570317" lon="15.100977602146058"><ele>1007.0</ele><time>2026-04-19T07:06:19.983Z</time></trkpt><trkpt lat="37.81633222153684" lon="15.10084670606403"><ele>1009.0</ele><time>2026-04-19T07:06:20.983Z</time></trkpt><trkpt lat="37.816315584363416" lon="15.100687452414256"><ele>1011.0</ele><time>2026-04-19T07:06:21.983Z</time></trkpt><trkpt lat="37.81632329407625" lon="15.100527332159912"><ele>1012.75</ele><time>2026-04-19T07:06:22.983Z</time></trkpt><trkpt lat="37.816392507297074" lon="15.100372417134425"><ele>1014.5</ele><time>2026-04-19T07:06:23.983Z</time></trkpt><trkpt lat="37.81651809437498" lon="15.100278872012753"><ele>1016.25</ele><time>2026-04-19T07:06:24.983Z</time></trkpt><trkpt lat="37.8166523620487" lon="15.100213192188262"><ele>1018.0</ele><time>2026-04-19T07:06:25.983Z</time></trkpt><trkpt lat="37.81679644968477" lon="15.100148071005217"><ele>1018.25</ele><time>2026-04-19T07:06:26.983Z</time></trkpt><trkpt lat="37.816919004517075" lon="15.100054507074484"><ele>1018.5</ele><time>2026-04-19T07:06:27.983Z</time></trkpt><trkpt lat="37.816982469238354" lon="15.099903781088939"><ele>1018.75</ele><time>2026-04-19T07:06:28.983Z</time></trkpt><trkpt lat="37.81702559503717" lon="15.099748615536944"><ele>1019.0</ele><time>2026-04-19T07:06:29.983Z</time></trkpt><trkpt lat="37.817016795595656" lon="15.099579526271894"><ele>1019.0</ele><time>2026-04-19T07:06:30.983Z</time></trkpt><trkpt lat="37.81696001822593" lon="15.09941543061108"><ele>1019.0</ele><time>2026-04-19T07:06:31.983Z</time></trkpt><trkpt lat="37.816862673596084" lon="15.09928857012639"><ele>1019.0</ele><time>2026-04-19T07:06:32.983Z</time></trkpt><trkpt lat="37.81673481270006" lon="15.099216196842395"><ele>1019.0</ele><time>2026-04-19T07:06:33.983Z</time></trkpt><trkpt lat="37.81658754164892" lon="15.099209297880813"><ele>1020.25</ele><time>2026-04-19T07:06:34.983Z</time></trkpt><trkpt lat="37.81645973673313" lon="15.099268140067906"><ele>1021.5</ele><time>2026-04-19T07:06:35.982Z</time></trkpt><trkpt lat="37.816341038921855" lon="15.099348213121072"><ele>1022.75</ele><time>2026-04-19T07:06:36.982Z</time></trkpt><trkpt lat="37.8162267703368" lon="15.09938058406177"><ele>1024.0</ele><time>2026-04-19T07:06:37.982Z</time></trkpt><trkpt lat="37.81610715173324" lon="15.099358260918041"><ele>1025.75</ele><time>2026-04-19T07:06:38.982Z</time></trkpt><trkpt lat="37.81598272648307" lon="15.09928483550784"><ele>1027.5</ele><time>2026-04-19T07:06:39.982Z</time></trkpt><trkpt lat="37.815852702504145" lon="15.099207492713274"><ele>1029.25</ele><time>2026-04-19T07:06:40.982Z</time></trkpt><trkpt lat="37.81571515961102" lon="15.099161636143835"><ele>1031.0</ele><time>2026-04-19T07:06:41.982Z</time></trkpt><trkpt lat="37.81555984936706" lon="15.099145459229533"><ele>1031.0</ele><time>2026-04-19T07:06:42.982Z</time></trkpt><trkpt lat="37.81539051587606" lon="15.099152829636756"><ele>1031.0</ele><time>2026-04-19T07:06:43.982Z</time></trkpt><trkpt lat="37.81524725113801" lon="15.099210541885755"><ele>1031.0</ele><time>2026-04-19T07:06:44.982Z</time></trkpt><trkpt lat="37.81511373741614" lon="15.099196231937274"><ele>1032.75</ele><time>2026-04-19T07:06:45.982Z</time></trkpt><trkpt lat="37.81500728437448" lon="15.099139392877678"><ele>1034.5</ele><time>2026-04-19T07:06:46.982Z</time></trkpt><trkpt lat="37.81492664523019" lon="15.099043905743311"><ele>1036.25</ele><time>2026-04-19T07:06:47.982Z</time></trkpt><trkpt lat="37.81486215671082" lon="15.0989101475543"><ele>1038.0</ele><time>2026-04-19T07:06:48.982Z</time></trkpt><trkpt lat="37.81484317392699" lon="15.098760303772025"><ele>1038.75</ele><time>2026-04-19T07:06:49.982Z</time></trkpt><trkpt lat="37.814866151779455" lon="15.09860118780204"><ele>1039.5</ele><time>2026-04-19T07:06:50.982Z</time></trkpt><trkpt lat="37.814923160149945" lon="15.098463750410017"><ele>1040.25</ele><time>2026-04-19T07:06:51.982Z</time></trkpt><trkpt lat="37.81504231823481" lon="15.098369887044926"><ele>1041.0</ele><time>2026-04-19T07:06:52.982Z</time></trkpt><trkpt lat="37.81517336287667" lon="15.09829206228126"><ele>1043.75</ele><time>2026-04-19T07:06:53.982Z</time></trkpt><trkpt lat="37.815301174795266" lon="15.098198972889211"><ele>1046.5</ele><time>2026-04-19T07:06:54.983Z</time></trkpt><trkpt lat="37.81542271975928" lon="15.098083986269293"><ele>1049.25</ele><time>2026-04-19T07:06:55.983Z</time></trkpt><trkpt lat="37.81553089995161" lon="15.097960421670846"><ele>1052.0</ele><time>2026-04-19T07:06:56.983Z</time></trkpt><trkpt lat="37.81562870025605" lon="15.097826864102466"><ele>1052.0</ele><time>2026-04-19T07:06:57.983Z</time></trkpt><trkpt lat="37.815715121180595" lon="15.097680844267085"><ele>1052.0</ele><time>2026-04-19T07:06:58.983Z</time></trkpt><trkpt lat="37.815784609149745" lon="15.097537810316915"><ele>1052.0</ele><time>2026-04-19T07:06:59.983Z</time></trkpt><trkpt lat="37.81586150487127" lon="15.09739584312145"><ele>1052.0</ele><time>2026-04-19T07:07:00.983Z</time></trkpt><trkpt lat="37.815941613497195" lon="15.097265989514225"><ele>1051.75</ele><time>2026-04-19T07:07:01.983Z</time></trkpt><trkpt lat="37.8160153024419" lon="15.097126847210717"><ele>1051.5</ele><time>2026-04-19T07:07:02.983Z</time></trkpt><trkpt lat="37.81609408955521" lon="15.096988062577383"><ele>1051.25</ele><time>2026-04-19T07:07:03.983Z</time></trkpt><trkpt lat="37.81616346292699" lon="15.09684095225977"><ele>1051.0</ele><time>2026-04-19T07:07:04.983Z</time></trkpt><trkpt lat="37.816208416777044" lon="15.096683566128762"><ele>1053.0</ele><time>2026-04-19T07:07:05.983Z</time></trkpt><trkpt lat="37.81622382484899" lon="15.096534031950316"><ele>1055.0</ele><time>2026-04-19T07:07:06.983Z</time></trkpt><trkpt lat="37.81621174317369" lon="15.096380463569908"><ele>1057.0</ele><time>2026-04-19T07:07:07.983Z</time></trkpt><trkpt lat="37.81617602540323" lon="15.096214561170354"><ele>1059.0</ele><time>2026-04-19T07:07:08.983Z</time></trkpt><trkpt lat="37.81614372356619" lon="15.096050180287437"><ele>1059.0</ele><time>2026-04-19T07:07:09.983Z</time></trkpt><trkpt lat="37.81614620616406" lon="15.095886843900576"><ele>1059.0</ele><time>2026-04-19T07:07:10.983Z</time></trkpt><trkpt lat="37.81618036109591" lon="15.095721854290648"><ele>1059.0</ele><time>2026-04-19T07:07:11.983Z</time></trkpt><trkpt lat="37.816264079651525" lon="15.095590733709267"><ele>1059.0</ele><time>2026-04-19T07:07:12.983Z</time></trkpt><trkpt lat="37.8163683900646" lon="15.095484684032382"><ele>1061.6666666666667</ele><time>2026-04-19T07:07:13.983Z</time></trkpt><trkpt lat="37.81649155105955" lon="15.095373196654446"><ele>1064.3333333333335</ele><time>2026-04-19T07:07:14.983Z</time></trkpt><trkpt lat="37.81663978815933" lon="15.095243540863493"><ele>1067.0</ele><time>2026-04-19T07:07:15.983Z</time></trkpt><trkpt lat="37.816765105574206" lon="15.095102662829769"><ele>1068.3333333333335</ele><time>2026-04-19T07:07:16.983Z</time></trkpt><trkpt lat="37.8168362231235" lon="15.094930601501801"><ele>1069.6666666666667</ele><time>2026-04-19T07:07:17.983Z</time></trkpt><trkpt lat="37.81684430720181" lon="15.094741007410626"><ele>1071.0</ele><time>2026-04-19T07:07:18.983Z</time></trkpt><trkpt lat="37.81677479028932" lon="15.094533315914193"><ele>1073.5</ele><time>2026-04-19T07:07:19.983Z</time></trkpt><trkpt lat="37.81667765657677" lon="15.09439171607038"><ele>1076.0</ele><time>2026-04-19T07:07:20.983Z</time></trkpt><trkpt lat="37.81658292501519" lon="15.094277930736874"><ele>1078.5</ele><time>2026-04-19T07:07:21.983Z</time></trkpt><trkpt lat="37.81645661639045" lon="15.094281091934828"><ele>1081.0</ele><time>2026-04-19T07:07:22.983Z</time></trkpt><trkpt lat="37.81635083572522" lon="15.094308196018977"><ele>1081.0</ele><time>2026-04-19T07:07:23.983Z</time></trkpt><trkpt lat="37.81623340272306" lon="15.094384208156974"><ele>1081.0</ele><time>2026-04-19T07:07:24.983Z</time></trkpt><trkpt lat="37.81610572460238" lon="15.094535386843118"><ele>1081.0</ele><time>2026-04-19T07:07:25.983Z</time></trkpt><trkpt lat="37.815988216585176" lon="15.094712718543006"><ele>1080.0</ele><time>2026-04-19T07:07:26.983Z</time></trkpt><trkpt lat="37.81585890892846" lon="15.094862140026859"><ele>1079.0</ele><time>2026-04-19T07:07:27.983Z</time></trkpt><trkpt lat="37.81573660277904" lon="15.09499034436739"><ele>1078.0</ele><time>2026-04-19T07:07:28.983Z</time></trkpt><trkpt lat="37.81561575678478" lon="15.095068496660952"><ele>1078.0</ele><time>2026-04-19T07:07:29.983Z</time></trkpt><trkpt lat="37.815474574951075" lon="15.095102402646196"><ele>1078.0</ele><time>2026-04-19T07:07:30.983Z</time></trkpt><trkpt lat="37.8153340467784" lon="15.095059826398877"><ele>1078.0</ele><time>2026-04-19T07:07:31.983Z</time></trkpt><trkpt lat="37.815193491356936" lon="15.09498428831389"><ele>1078.0</ele><time>2026-04-19T07:07:32.983Z</time></trkpt><trkpt lat="37.81505742355839" lon="15.094936646239173"><ele>1080.75</ele><time>2026-04-19T07:07:33.983Z</time></trkpt><trkpt lat="37.81491787257411" lon="15.094953989453792"><ele>1083.5</ele><time>2026-04-19T07:07:34.983Z</time></trkpt><trkpt lat="37.81479573673298" lon="15.095007993118923"><ele>1086.25</ele><time>2026-04-19T07:07:35.983Z</time></trkpt><trkpt lat="37.8146740895944" lon="15.095119357125583"><ele>1089.0</ele><time>2026-04-19T07:07:36.983Z</time></trkpt><trkpt lat="37.814540123654474" lon="15.095210947697886"><ele>1089.0</ele><time>2026-04-19T07:07:37.982Z</time></trkpt><trkpt lat="37.81437805773974" lon="15.095256802647413"><ele>1089.0</ele><time>2026-04-19T07:07:38.982Z</time></trkpt><trkpt lat="37.81420362142783" lon="15.095323960359773"><ele>1089.0</ele><time>2026-04-19T07:07:39.982Z</time></trkpt><trkpt lat="37.814041660912" lon="15.09535842382745"><ele>1094.3333333333333</ele><time>2026-04-19T07:07:40.982Z</time></trkpt><trkpt lat="37.81388801960331" lon="15.095332679459233"><ele>1099.6666666666665</ele><time>2026-04-19T07:07:41.982Z</time></trkpt><trkpt lat="37.81374741161395" lon="15.095256744051836"><ele>1105.0</ele><time>2026-04-19T07:07:42.982Z</time></trkpt><trkpt lat="37.813597661711796" lon="15.095234093349832"><ele>1107.25</ele><time>2026-04-19T07:07:43.982Z</time></trkpt><trkpt lat="37.813480953088714" lon="15.095268035777286"><ele>1109.5</ele><time>2026-04-19T07:07:44.982Z</time></trkpt><trkpt lat="37.813370598802415" lon="15.095273874286212"><ele>1111.75</ele><time>2026-04-19T07:07:45.982Z</time></trkpt><trkpt lat="37.81324389709145" lon="15.09536196258425"><ele>1114.0</ele><time>2026-04-19T07:07:46.982Z</time></trkpt><trkpt lat="37.813109524324524" lon="15.095539922558723"><ele>1114.0</ele><time>2026-04-19T07:07:47.982Z</time></trkpt><trkpt lat="37.81300030250301" lon="15.09561840280231"><ele>1114.0</ele><time>2026-04-19T07:07:48.982Z</time></trkpt><trkpt lat="37.81285982468318" lon="15.095642900740689"><ele>1114.0</ele><time>2026-04-19T07:07:49.982Z</time></trkpt><trkpt lat="37.812712653907894" lon="15.095570139371205"><ele>1114.0</ele><time>2026-04-19T07:07:50.982Z</time></trkpt><trkpt lat="37.81252958362058" lon="15.095503246032713"><ele>1117.6666666666665</ele><time>2026-04-19T07:07:51.982Z</time></trkpt><trkpt lat="37.81234809927493" lon="15.095475108677757"><ele>1121.3333333333333</ele><time>2026-04-19T07:07:52.982Z</time></trkpt><trkpt lat="37.81216594908931" lon="15.09546936699188"><ele>1125.0</ele><time>2026-04-19T07:07:53.982Z</time></trkpt><trkpt lat="37.81198095564645" lon="15.095526758077996"><ele>1125.0</ele><time>2026-04-19T07:07:54.982Z</time></trkpt><trkpt lat="37.81182733456654" lon="15.095596637012736"><ele>1125.0</ele><time>2026-04-19T07:07:55.982Z</time></trkpt><trkpt lat="37.81169612601683" lon="15.095646456761074"><ele>1125.0</ele><time>2026-04-19T07:07:56.982Z</time></trkpt><trkpt lat="37.81158780455035" lon="15.095593742029289"><ele>1125.0</ele><time>2026-04-19T07:07:57.982Z</time></trkpt><trkpt lat="37.811494756797174" lon="15.095499789784439"><ele>1125.25</ele><time>2026-04-19T07:07:58.982Z</time></trkpt><trkpt lat="37.81141948148502" lon="15.095360103165483"><ele>1125.5</ele><time>2026-04-19T07:07:59.982Z</time></trkpt><trkpt lat="37.81138424156594" lon="15.09518797575501"><ele>1125.75</ele><time>2026-04-19T07:08:00.982Z</time></trkpt><trkpt lat="37.811411572947065" lon="15.095012316191417"><ele>1126.0</ele><time>2026-04-19T07:08:01.982Z</time></trkpt><trkpt lat="37.811479628201475" lon="15.094885276770608"><ele>1129.5</ele><time>2026-04-19T07:08:02.982Z</time></trkpt><trkpt lat="37.81157601848482" lon="15.094799443605496"><ele>1133.0</ele><time>2026-04-19T07:08:03.982Z</time></trkpt><trkpt lat="37.81169177194827" lon="15.094754583144962"><ele>1136.5</ele><time>2026-04-19T07:08:04.982Z</time></trkpt><trkpt lat="37.811834205998395" lon="15.094771712354516"><ele>1140.0</ele><time>2026-04-19T07:08:05.982Z</time></trkpt><trkpt lat="37.81198604690305" lon="15.094815281770991"><ele>1140.0</ele><time>2026-04-19T07:08:06.982Z</time></trkpt><trkpt lat="37.8121395062953" lon="15.094810500457177"><ele>1140.0</ele><time>2026-04-19T07:08:07.982Z</time></trkpt><trkpt lat="37.81229255015198" lon="15.094723162327506"><ele>1140.0</ele><time>2026-04-19T07:08:08.982Z</time></trkpt><trkpt lat="37.81245201026871" lon="15.094563848256668"><ele>1140.0</ele><time>2026-04-19T07:08:09.982Z</time></trkpt><trkpt lat="37.81260491171215" lon="15.094388817070364"><ele>1140.0</ele><time>2026-04-19T07:08:10.982Z</time></trkpt><trkpt lat="37.812758780729354" lon="15.094216270320471"><ele>1140.0</ele><time>2026-04-19T07:08:11.982Z</time></trkpt><trkpt lat="37.81291134218038" lon="15.094044677233589"><ele>1142.0</ele><time>2026-04-19T07:08:12.982Z</time></trkpt><trkpt lat="37.81306747276655" lon="15.093867288274149"><ele>1144.0</ele><time>2026-04-19T07:08:13.982Z</time></trkpt><trkpt lat="37.81321640492306" lon="15.093675608182977"><ele>1146.0</ele><time>2026-04-19T07:08:14.982Z</time></trkpt><trkpt lat="37.81336672858972" lon="15.093507495057139"><ele>1144.6666666666667</ele><time>2026-04-19T07:08:15.981Z</time></trkpt><trkpt lat="37.81350900930765" lon="15.093340732552807"><ele>1143.3333333333335</ele><time>2026-04-19T07:08:16.981Z</time></trkpt><trkpt lat="37.81361694788346" lon="15.093156916510868"><ele>1142.0</ele><time>2026-04-19T07:08:17.981Z</time></trkpt><trkpt lat="37.81371192494543" lon="15.092990853041327"><ele>1142.0</ele><time>2026-04-19T07:08:18.981Z</time></trkpt><trkpt lat="37.81380219941066" lon="15.09284815774978"><ele>1142.0</ele><time>2026-04-19T07:08:19.981Z</time></trkpt><trkpt lat="37.81384022999083" lon="15.092731936656477"><ele>1142.0</ele><time>2026-04-19T07:08:20.981Z</time></trkpt><trkpt lat="37.813828247592255" lon="15.092632889031787"><ele>1142.0</ele><time>2026-04-19T07:08:21.981Z</time></trkpt><trkpt lat="37.81376784446324" lon="15.092555056418519"><ele>1142.0</ele><time>2026-04-19T07:08:22.981Z</time></trkpt><trkpt lat="37.81367738628502" lon="15.092543462368265"><ele>1142.0</ele><time>2026-04-19T07:08:23.981Z</time></trkpt><trkpt lat="37.813586099944544" lon="15.092605413218251"><ele>1142.0</ele><time>2026-04-19T07:08:24.981Z</time></trkpt><trkpt lat="37.81350994045797" lon="15.092743637861078"><ele>1142.0</ele><time>2026-04-19T07:08:25.981Z</time></trkpt><trkpt lat="37.81344615904431" lon="15.092919770246281"><ele>1142.0</ele><time>2026-04-19T07:08:26.981Z</time></trkpt><trkpt lat="37.81335072770018" lon="15.093011631518985"><ele>1148.3333333333335</ele><time>2026-04-19T07:08:27.981Z</time></trkpt><trkpt lat="37.81321789160383" lon="15.093053467293222"><ele>1154.6666666666667</ele><time>2026-04-19T07:08:28.981Z</time></trkpt><trkpt lat="37.813056200598304" lon="15.093059308260756"><ele>1161.0</ele><time>2026-04-19T07:08:29.981Z</time></trkpt><trkpt lat="37.81287657470712" lon="15.09306770564751"><ele>1161.0</ele><time>2026-04-19T07:08:30.981Z</time></trkpt><trkpt lat="37.81269554775274" lon="15.093076271441847"><ele>1161.0</ele><time>2026-04-19T07:08:31.981Z</time></trkpt><trkpt lat="37.81254525426941" lon="15.093082288396829"><ele>1161.0</ele><time>2026-04-19T07:08:32.981Z</time></trkpt><trkpt lat="37.812419191381856" lon="15.093036766031949"><ele>1163.75</ele><time>2026-04-19T07:08:33.981Z</time></trkpt><trkpt lat="37.81231838023686" lon="15.09295267960353"><ele>1166.5</ele><time>2026-04-19T07:08:34.981Z</time></trkpt><trkpt lat="37.81221796808309" lon="15.09283426131539"><ele>1169.25</ele><time>2026-04-19T07:08:35.981Z</time></trkpt><trkpt lat="37.81210998050948" lon="15.092695798571242"><ele>1172.0</ele><time>2026-04-19T07:08:36.981Z</time></trkpt><trkpt lat="37.81199689869973" lon="15.09255459813959"><ele>1176.3333333333335</ele><time>2026-04-19T07:08:37.981Z</time></trkpt><trkpt lat="37.811885942388656" lon="15.092409801291735"><ele>1180.6666666666667</ele><time>2026-04-19T07:08:38.981Z</time></trkpt><trkpt lat="37.81176412272636" lon="15.092275701090731"><ele>1185.0</ele><time>2026-04-19T07:08:39.981Z</time></trkpt><trkpt lat="37.81161947123874" lon="15.092191450748306"><ele>1185.0</ele><time>2026-04-19T07:08:40.981Z</time></trkpt><trkpt lat="37.8114427055982" lon="15.09218117242215"><ele>1185.0</ele><time>2026-04-19T07:08:41.981Z</time></trkpt><trkpt lat="37.81128933323489" lon="15.092227403000237"><ele>1185.0</ele><time>2026-04-19T07:08:42.981Z</time></trkpt><trkpt lat="37.811158674104234" lon="15.092255831002593"><ele>1185.0</ele><time>2026-04-19T07:08:43.981Z</time></trkpt><trkpt lat="37.811044996181145" lon="15.092228210982668"><ele>1185.0</ele><time>2026-04-19T07:08:44.981Z</time></trkpt><trkpt lat="37.81097212847248" lon="15.092164699884"><ele>1185.0</ele><time>2026-04-19T07:08:45.981Z</time></trkpt><trkpt lat="37.810893908398995" lon="15.09206416669648"><ele>1185.0</ele><time>2026-04-19T07:08:46.981Z</time></trkpt><trkpt lat="37.81085079137582" lon="15.09194448083336"><ele>1185.0</ele><time>2026-04-19T07:08:47.981Z</time></trkpt><trkpt lat="37.810837016579626" lon="15.091800635905209"><ele>1185.25</ele><time>2026-04-19T07:08:48.981Z</time></trkpt><trkpt lat="37.81086530586464" lon="15.091644463836131"><ele>1185.5</ele><time>2026-04-19T07:08:49.981Z</time></trkpt><trkpt lat="37.81092496253157" lon="15.091534204164063"><ele>1185.75</ele><time>2026-04-19T07:08:50.981Z</time></trkpt><trkpt lat="37.81101018134429" lon="15.091450432027646"><ele>1186.0</ele><time>2026-04-19T07:08:51.981Z</time></trkpt><trkpt lat="37.81112744316554" lon="15.091396438046354"><ele>1188.6666666666665</ele><time>2026-04-19T07:08:52.98Z</time></trkpt><trkpt lat="37.811269513820044" lon="15.091352141244194"><ele>1191.3333333333333</ele><time>2026-04-19T07:08:53.98Z</time></trkpt><trkpt lat="37.81144169937211" lon="15.091240844124487"><ele>1194.0</ele><time>2026-04-19T07:08:54.98Z</time></trkpt><trkpt lat="37.8115828885483" lon="15.091106136180802"><ele>1194.0</ele><time>2026-04-19T07:08:55.98Z</time></trkpt><trkpt lat="37.81172959418475" lon="15.090965971769572"><ele>1194.0</ele><time>2026-04-19T07:08:56.98Z</time></trkpt><trkpt lat="37.811862990237" lon="15.090838794587496"><ele>1194.0</ele><time>2026-04-19T07:08:57.98Z</time></trkpt><trkpt lat="37.8119869318434" lon="15.090720630939458"><ele>1196.0</ele><time>2026-04-19T07:08:58.98Z</time></trkpt><trkpt lat="37.81210819335876" lon="15.09057535750052"><ele>1198.0</ele><time>2026-04-19T07:08:59.98Z</time></trkpt><trkpt lat="37.812167853443476" lon="15.090320567174743"><ele>1200.0</ele><time>2026-04-19T07:09:00.982Z</time></trkpt><trkpt lat="37.81214153456153" lon="15.090136708059518"><ele>1200.0</ele><time>2026-04-19T07:09:01.982Z</time></trkpt><trkpt lat="37.81202669313179" lon="15.089958205359938"><ele>1200.0</ele><time>2026-04-19T07:09:02.982Z</time></trkpt><trkpt lat="37.811925238816656" lon="15.089829162268867"><ele>1200.0</ele><time>2026-04-19T07:09:03.982Z</time></trkpt><trkpt lat="37.81180152405757" lon="15.08977228098772"><ele>1201.0</ele><time>2026-04-19T07:09:04.981Z</time></trkpt><trkpt lat="37.811670519775795" lon="15.089805787886478"><ele>1202.0</ele><time>2026-04-19T07:09:05.981Z</time></trkpt><trkpt lat="37.81156593688267" lon="15.08986777408839"><ele>1203.0</ele><time>2026-04-19T07:09:06.982Z</time></trkpt><trkpt lat="37.81148000388848" lon="15.08996932915382"><ele>1204.0</ele><time>2026-04-19T07:09:07.982Z</time></trkpt><trkpt lat="37.81138417183697" lon="15.090072485546955"><ele>1204.0</ele><time>2026-04-19T07:09:08.982Z</time></trkpt><trkpt lat="37.81125738132373" lon="15.090115260243419"><ele>1204.0</ele><time>2026-04-19T07:09:09.982Z</time></trkpt><trkpt lat="37.811113737013336" lon="15.090094239404726"><ele>1204.0</ele><time>2026-04-19T07:09:10.982Z</time></trkpt><trkpt lat="37.81096523760097" lon="15.090063074504268"><ele>1204.0</ele><time>2026-04-19T07:09:11.982Z</time></trkpt><trkpt lat="37.810825389898746" lon="15.090017614775578"><ele>1205.75</ele><time>2026-04-19T07:09:12.982Z</time></trkpt><trkpt lat="37.81071097888363" lon="15.089963390602378"><ele>1207.5</ele><time>2026-04-19T07:09:13.981Z</time></trkpt><trkpt lat="37.81061922796053" lon="15.089836112488626"><ele>1209.25</ele><time>2026-04-19T07:09:14.981Z</time></trkpt><trkpt lat="37.810524137057065" lon="15.089696704159529"><ele>1211.0</ele><time>2026-04-19T07:09:15.981Z</time></trkpt><trkpt lat="37.810412461443235" lon="15.089550399845837"><ele>1216.0</ele><time>2026-04-19T07:09:16.981Z</time></trkpt><trkpt lat="37.810288674847385" lon="15.089456347404603"><ele>1221.0</ele><time>2026-04-19T07:09:17.981Z</time></trkpt><trkpt lat="37.81013702233828" lon="15.089429444285498"><ele>1226.0</ele><time>2026-04-19T07:09:18.981Z</time></trkpt><trkpt lat="37.809980864178286" lon="15.089364858624842"><ele>1227.6666666666667</ele><time>2026-04-19T07:09:19.981Z</time></trkpt><trkpt lat="37.80981233896298" lon="15.089356488435582"><ele>1229.3333333333333</ele><time>2026-04-19T07:09:20.981Z</time></trkpt><trkpt lat="37.809635243121605" lon="15.089378589727211"><ele>1231.0</ele><time>2026-04-19T07:09:21.981Z</time></trkpt><trkpt lat="37.80947118329241" lon="15.089375222476457"><ele>1231.6666666666665</ele><time>2026-04-19T07:09:22.981Z</time></trkpt><trkpt lat="37.80932250735354" lon="15.089347450244286"><ele>1232.3333333333333</ele><time>2026-04-19T07:09:23.981Z</time></trkpt><trkpt lat="37.80918682836559" lon="15.089257820594819"><ele>1233.0</ele><time>2026-04-19T07:09:24.981Z</time></trkpt><trkpt lat="37.80904965925655" lon="15.089158383434732"><ele>1238.3333333333333</ele><time>2026-04-19T07:09:25.981Z</time></trkpt><trkpt lat="37.80890728963837" lon="15.089044567245011"><ele>1243.6666666666665</ele><time>2026-04-19T07:09:26.981Z</time></trkpt><trkpt lat="37.808749214379404" lon="15.08891862171803"><ele>1249.0</ele><time>2026-04-19T07:09:27.981Z</time></trkpt><trkpt lat="37.80860054409887" lon="15.088800004447046"><ele>1248.5</ele><time>2026-04-19T07:09:28.981Z</time></trkpt><trkpt lat="37.8084619919117" lon="15.088681039559768"><ele>1248.0</ele><time>2026-04-19T07:09:29.981Z</time></trkpt><trkpt lat="37.808364945041546" lon="15.088561858397568"><ele>1247.5</ele><time>2026-04-19T07:09:30.981Z</time></trkpt><trkpt lat="37.80830414847154" lon="15.088420558789664"><ele>1247.0</ele><time>2026-04-19T07:09:31.981Z</time></trkpt><trkpt lat="37.808270968756034" lon="15.088259004791032"><ele>1248.75</ele><time>2026-04-19T07:09:32.981Z</time></trkpt><trkpt lat="37.80826497027505" lon="15.08809708932022"><ele>1250.5</ele><time>2026-04-19T07:09:33.981Z</time></trkpt><trkpt lat="37.8083036925388" lon="15.087920372588478"><ele>1252.25</ele><time>2026-04-19T07:09:34.981Z</time></trkpt><trkpt lat="37.80837291543765" lon="15.087763100296769"><ele>1254.0</ele><time>2026-04-19T07:09:35.981Z</time></trkpt><trkpt lat="37.80848152323917" lon="15.087642957018533"><ele>1254.0</ele><time>2026-04-19T07:09:36.981Z</time></trkpt><trkpt lat="37.80862017605903" lon="15.087576659170264"><ele>1254.0</ele><time>2026-04-19T07:09:37.981Z</time></trkpt><trkpt lat="37.80879203426337" lon="15.087517372813524"><ele>1254.0</ele><time>2026-04-19T07:09:38.981Z</time></trkpt><trkpt lat="37.80895616832696" lon="15.087384778537333"><ele>1256.0</ele><time>2026-04-19T07:09:39.981Z</time></trkpt><trkpt lat="37.809087735841395" lon="15.08724300706704"><ele>1258.0</ele><time>2026-04-19T07:09:40.981Z</time></trkpt><trkpt lat="37.809239936909826" lon="15.087079001780202"><ele>1260.0</ele><time>2026-04-19T07:09:41.981Z</time></trkpt><trkpt lat="37.80939985235998" lon="15.086906683955135"><ele>1261.3333333333333</ele><time>2026-04-19T07:09:42.981Z</time></trkpt><trkpt lat="37.80955894960291" lon="15.086735247843896"><ele>1262.6666666666665</ele><time>2026-04-19T07:09:43.981Z</time></trkpt><trkpt lat="37.80969762635815" lon="15.086585815709826"><ele>1264.0</ele><time>2026-04-19T07:09:44.981Z</time></trkpt><trkpt lat="37.809847730440566" lon="15.086423911484399"><ele>1264.3333333333333</ele><time>2026-04-19T07:09:45.981Z</time></trkpt><trkpt lat="37.80998556604103" lon="15.086274818806295"><ele>1264.6666666666667</ele><time>2026-04-19T07:09:46.981Z</time></trkpt><trkpt lat="37.81010825847663" lon="15.086142106095005"><ele>1265.0</ele><time>2026-04-19T07:09:47.981Z</time></trkpt><trkpt lat="37.81022872411646" lon="15.086009180302598"><ele>1265.25</ele><time>2026-04-19T07:09:48.981Z</time></trkpt><trkpt lat="37.81033128458113" lon="15.08587294356657"><ele>1265.5</ele><time>2026-04-19T07:09:49.981Z</time></trkpt><trkpt lat="37.81041062170832" lon="15.08570508939229"><ele>1265.75</ele><time>2026-04-19T07:09:50.98Z</time></trkpt><trkpt lat="37.81047786385989" lon="15.085544557056211"><ele>1266.0</ele><time>2026-04-19T07:09:51.98Z</time></trkpt><trkpt lat="37.81055477543487" lon="15.085360940177834"><ele>1267.5</ele><time>2026-04-19T07:09:52.98Z</time></trkpt><trkpt lat="37.81060363307034" lon="15.085227215094351"><ele>1269.0</ele><time>2026-04-19T07:09:53.98Z</time></trkpt><trkpt lat="37.81031628217741" lon="15.084898302286529"><ele>1272.0</ele><time>2026-04-19T07:09:54.98Z</time></trkpt><trkpt lat="37.810204724385066" lon="15.08473214587981"><ele>1275.0</ele><time>2026-04-19T07:09:55.98Z</time></trkpt><trkpt lat="37.81004726734937" lon="15.084615108378868"><ele>1278.0</ele><time>2026-04-19T07:09:56.98Z</time></trkpt><trkpt lat="37.80986286821618" lon="15.084533177866222"><ele>1278.6666666666667</ele><time>2026-04-19T07:09:57.98Z</time></trkpt><trkpt lat="37.80965065953166" lon="15.084507703415078"><ele>1279.3333333333335</ele><time>2026-04-19T07:09:58.98Z</time></trkpt><trkpt lat="37.80941670851689" lon="15.084517903674993"><ele>1280.0</ele><time>2026-04-19T07:09:59.98Z</time></trkpt><trkpt lat="37.809197831768444" lon="15.084544860161577"><ele>1281.3333333333335</ele><time>2026-04-19T07:10:00.98Z</time></trkpt><trkpt lat="37.80900378536607" lon="15.08459526164156"><ele>1282.6666666666667</ele><time>2026-04-19T07:10:01.98Z</time></trkpt><trkpt lat="37.80885479535395" lon="15.084661266092235"><ele>1284.0</ele><time>2026-04-19T07:10:02.98Z</time></trkpt><trkpt lat="37.8087317411597" lon="15.084714841868765"><ele>1284.0</ele><time>2026-04-19T07:10:03.98Z</time></trkpt><trkpt lat="37.808635584350604" lon="15.084715574104546"><ele>1284.0</ele><time>2026-04-19T07:10:04.98Z</time></trkpt><trkpt lat="37.80855691901562" lon="15.084642493141438"><ele>1284.0</ele><time>2026-04-19T07:10:05.98Z</time></trkpt><trkpt lat="37.808521607343486" lon="15.08449878035403"><ele>1284.0</ele><time>2026-04-19T07:10:06.98Z</time></trkpt><trkpt lat="37.80850874511403" lon="15.084367064035497"><ele>1284.0</ele><time>2026-04-19T07:10:07.98Z</time></trkpt><trkpt lat="37.80855772643447" lon="15.084202690895415"><ele>1284.0</ele><time>2026-04-19T07:10:08.98Z</time></trkpt><trkpt lat="37.80864946958002" lon="15.08410129720008"><ele>1284.0</ele><time>2026-04-19T07:10:09.98Z</time></trkpt><trkpt lat="37.80876675104596" lon="15.08409080837075"><ele>1284.0</ele><time>2026-04-19T07:10:10.98Z</time></trkpt><trkpt lat="37.808926442350284" lon="15.08408903194591"><ele>1284.0</ele><time>2026-04-19T07:10:11.98Z</time></trkpt><trkpt lat="37.80907511378722" lon="15.084075824422245"><ele>1290.6666666666667</ele><time>2026-04-19T07:10:12.98Z</time></trkpt><trkpt lat="37.80922104852814" lon="15.08404039157317"><ele>1297.3333333333335</ele><time>2026-04-19T07:10:13.98Z</time></trkpt><trkpt lat="37.80938437756218" lon="15.083992820860436"><ele>1304.0</ele><time>2026-04-19T07:10:14.98Z</time></trkpt><trkpt lat="37.80956347374477" lon="15.083930946388385"><ele>1304.0</ele><time>2026-04-19T07:10:15.98Z</time></trkpt><trkpt lat="37.809757215839234" lon="15.083867709622485"><ele>1304.0</ele><time>2026-04-19T07:10:16.98Z</time></trkpt><trkpt lat="37.80995581402495" lon="15.0837995884312"><ele>1304.0</ele><time>2026-04-19T07:10:17.98Z</time></trkpt><trkpt lat="37.810092429554544" lon="15.083684757964805"><ele>1301.0</ele><time>2026-04-19T07:10:18.98Z</time></trkpt><trkpt lat="37.810226631919896" lon="15.083555266814473"><ele>1298.0</ele><time>2026-04-19T07:10:19.98Z</time></trkpt><trkpt lat="37.81036092098595" lon="15.083435132048118"><ele>1295.0</ele><time>2026-04-19T07:10:20.98Z</time></trkpt><trkpt lat="37.81047643008035" lon="15.083339091563507"><ele>1299.6666666666667</ele><time>2026-04-19T07:10:21.98Z</time></trkpt><trkpt lat="37.81052464220938" lon="15.083121837943107"><ele>1304.3333333333333</ele><time>2026-04-19T07:10:22.98Z</time></trkpt><trkpt lat="37.81054103217938" lon="15.08293937453483"><ele>1309.0</ele><time>2026-04-19T07:10:23.98Z</time></trkpt><trkpt lat="37.81056373574048" lon="15.082758292270924"><ele>1309.0</ele><time>2026-04-19T07:10:24.98Z</time></trkpt><trkpt lat="37.81062034186174" lon="15.082579217358004"><ele>1309.0</ele><time>2026-04-19T07:10:25.98Z</time></trkpt><trkpt lat="37.81071768930217" lon="15.0823909443411"><ele>1309.0</ele><time>2026-04-19T07:10:26.98Z</time></trkpt><trkpt lat="37.81085892715119" lon="15.082215052392389"><ele>1308.0</ele><time>2026-04-19T07:10:27.979Z</time></trkpt><trkpt lat="37.81098961861821" lon="15.082062985297132"><ele>1307.0</ele><time>2026-04-19T07:10:28.979Z</time></trkpt><trkpt lat="37.811115393192026" lon="15.081898512051263"><ele>1306.0</ele><time>2026-04-19T07:10:29.979Z</time></trkpt><trkpt lat="37.81124816850584" lon="15.081763142119145"><ele>1306.0</ele><time>2026-04-19T07:10:30.979Z</time></trkpt><trkpt lat="37.811380652602" lon="15.081664281639538"><ele>1306.0</ele><time>2026-04-19T07:10:31.979Z</time></trkpt><trkpt lat="37.8115051956548" lon="15.081603919652485"><ele>1306.0</ele><time>2026-04-19T07:10:32.979Z</time></trkpt><trkpt lat="37.81160193759956" lon="15.081537187106548"><ele>1306.0</ele><time>2026-04-19T07:10:33.979Z</time></trkpt><trkpt lat="37.81171257527467" lon="15.081431887330941"><ele>1305.75</ele><time>2026-04-19T07:10:34.979Z</time></trkpt><trkpt lat="37.81180234288032" lon="15.081280085129452"><ele>1305.5</ele><time>2026-04-19T07:10:35.979Z</time></trkpt><trkpt lat="37.8118530001083" lon="15.08111378606569"><ele>1305.25</ele><time>2026-04-19T07:10:36.979Z</time></trkpt><trkpt lat="37.811864316122566" lon="15.080937438988615"><ele>1305.0</ele><time>2026-04-19T07:10:37.979Z</time></trkpt><trkpt lat="37.81180757845229" lon="15.080762043511054"><ele>1311.3333333333333</ele><time>2026-04-19T07:10:38.979Z</time></trkpt><trkpt lat="37.81169640105244" lon="15.080607352614162"><ele>1317.6666666666665</ele><time>2026-04-19T07:10:39.979Z</time></trkpt><trkpt lat="37.81157568401824" lon="15.080510679438742"><ele>1324.0</ele><time>2026-04-19T07:10:40.979Z</time></trkpt><trkpt lat="37.8114356935347" lon="15.08044502618316"><ele>1324.0</ele><time>2026-04-19T07:10:41.979Z</time></trkpt><trkpt lat="37.811297409626114" lon="15.08043363717359"><ele>1324.0</ele><time>2026-04-19T07:10:42.979Z</time></trkpt><trkpt lat="37.811161880172435" lon="15.080490288409592"><ele>1324.0</ele><time>2026-04-19T07:10:43.979Z</time></trkpt><trkpt lat="37.811043712281986" lon="15.08059753689326"><ele>1324.0</ele><time>2026-04-19T07:10:44.979Z</time></trkpt><trkpt lat="37.81093984924272" lon="15.08076185229386"><ele>1326.0</ele><time>2026-04-19T07:10:45.979Z</time></trkpt><trkpt lat="37.81082433601017" lon="15.080977547164956"><ele>1328.0</ele><time>2026-04-19T07:10:46.979Z</time></trkpt><trkpt lat="37.81068589605047" lon="15.081171668028528"><ele>1330.0</ele><time>2026-04-19T07:10:47.979Z</time></trkpt><trkpt lat="37.81052726450193" lon="15.081313911723102"><ele>1330.0</ele><time>2026-04-19T07:10:48.979Z</time></trkpt><trkpt lat="37.810348819746594" lon="15.081404837344905"><ele>1330.0</ele><time>2026-04-19T07:10:49.979Z</time></trkpt><trkpt lat="37.810163982586424" lon="15.081452230590218"><ele>1330.0</ele><time>2026-04-19T07:10:50.979Z</time></trkpt><trkpt lat="37.80996918938066" lon="15.081479788495493"><ele>1336.5</ele><time>2026-04-19T07:10:51.979Z</time></trkpt><trkpt lat="37.80973285112792" lon="15.081513015134373"><ele>1343.0</ele><time>2026-04-19T07:10:52.979Z</time></trkpt><trkpt lat="37.809519261727374" lon="15.081589062514228"><ele>1341.6666666666667</ele><time>2026-04-19T07:10:53.979Z</time></trkpt><trkpt lat="37.809333757372066" lon="15.081672477393175"><ele>1340.3333333333333</ele><time>2026-04-19T07:10:54.979Z</time></trkpt><trkpt lat="37.80917197847988" lon="15.081721677083083"><ele>1339.0</ele><time>2026-04-19T07:10:55.979Z</time></trkpt><trkpt lat="37.80903128605725" lon="15.081742573960504"><ele>1339.0</ele><time>2026-04-19T07:10:56.979Z</time></trkpt><trkpt lat="37.80895409340589" lon="15.081617691155387"><ele>1339.0</ele><time>2026-04-19T07:10:57.979Z</time></trkpt><trkpt lat="37.80893202115823" lon="15.081478233012541"><ele>1339.0</ele><time>2026-04-19T07:10:58.979Z</time></trkpt><trkpt lat="37.80895796696313" lon="15.081397321849817"><ele>1339.0</ele><time>2026-04-19T07:10:59.979Z</time></trkpt><trkpt lat="37.80902742563915" lon="15.081388097330748"><ele>1339.0</ele><time>2026-04-19T07:11:00.979Z</time></trkpt><trkpt lat="37.809090203724345" lon="15.081242044282254"><ele>1340.3333333333333</ele><time>2026-04-19T07:11:02.978Z</time></trkpt><trkpt lat="37.80915521918285" lon="15.081231947883595"><ele>1341.6666666666667</ele><time>2026-04-19T07:11:04.978Z</time></trkpt><trkpt lat="37.80945308984397" lon="15.081156352850984"><ele>1343.0</ele><time>2026-04-19T07:11:06.98Z</time></trkpt><trkpt lat="37.809610404805575" lon="15.08092454227593"><ele>1348.0</ele><time>2026-04-19T07:11:07.98Z</time></trkpt><trkpt lat="37.80972688079262" lon="15.080736629971843"><ele>1353.0</ele><time>2026-04-19T07:11:08.98Z</time></trkpt><trkpt lat="37.80951422043186" lon="15.080285020807473"><ele>1353.0</ele><time>2026-04-19T07:11:09.98Z</time></trkpt><trkpt lat="37.809608152247506" lon="15.080189596134382"><ele>1353.0</ele><time>2026-04-19T07:11:10.981Z</time></trkpt><trkpt lat="37.809647194922476" lon="15.080044278242502"><ele>1353.0</ele><time>2026-04-19T07:11:11.981Z</time></trkpt><trkpt lat="37.80963314769368" lon="15.079876879310133"><ele>1353.0</ele><time>2026-04-19T07:11:12.981Z</time></trkpt><trkpt lat="37.80953995735624" lon="15.079700463599359"><ele>1354.3333333333333</ele><time>2026-04-19T07:11:13.98Z</time></trkpt><trkpt lat="37.809416692829835" lon="15.079530692249666"><ele>1355.6666666666665</ele><time>2026-04-19T07:11:14.98Z</time></trkpt><trkpt lat="37.809288190334584" lon="15.079432402981968"><ele>1357.0</ele><time>2026-04-19T07:11:15.981Z</time></trkpt><trkpt lat="37.80912645823333" lon="15.079398931708905"><ele>1362.3333333333333</ele><time>2026-04-19T07:11:16.98Z</time></trkpt><trkpt lat="37.80899351446778" lon="15.0794024396119"><ele>1367.6666666666667</ele><time>2026-04-19T07:11:17.98Z</time></trkpt><trkpt lat="37.80889112898242" lon="15.079502328494945"><ele>1373.0</ele><time>2026-04-19T07:11:18.981Z</time></trkpt><trkpt lat="37.80868833091391" lon="15.07958083430445"><ele>1373.0</ele><time>2026-04-19T07:11:19.981Z</time></trkpt><trkpt lat="37.809249467515755" lon="15.079677182738632"><ele>1373.0</ele><time>2026-04-19T07:11:20.981Z</time></trkpt><trkpt lat="37.80909693578146" lon="15.079800478397043"><ele>1373.0</ele><time>2026-04-19T07:11:21.981Z</time></trkpt><trkpt lat="37.80896950279057" lon="15.079871439850553"><ele>1373.0</ele><time>2026-04-19T07:11:22.981Z</time></trkpt><trkpt lat="37.80882641706357" lon="15.079836094554446"><ele>1373.0</ele><time>2026-04-19T07:11:23.981Z</time></trkpt><trkpt lat="37.80864478819472" lon="15.07979782800336"><ele>1373.0</ele><time>2026-04-19T07:11:24.981Z</time></trkpt><trkpt lat="37.80847697162764" lon="15.07975210859634"><ele>1373.0</ele><time>2026-04-19T07:11:25.981Z</time></trkpt><trkpt lat="37.80831222391522" lon="15.079732791552694"><ele>1375.6666666666667</ele><time>2026-04-19T07:11:26.98Z</time></trkpt><trkpt lat="37.80814476875264" lon="15.079717940158757"><ele>1378.3333333333333</ele><time>2026-04-19T07:11:27.98Z</time></trkpt><trkpt lat="37.80796123762705" lon="15.07975810331457"><ele>1381.0</ele><time>2026-04-19T07:11:28.98Z</time></trkpt><trkpt lat="37.807763930486814" lon="15.079860937043943"><ele>1381.3333333333333</ele><time>2026-04-19T07:11:29.98Z</time></trkpt><trkpt lat="37.80757498607079" lon="15.079941523343832"><ele>1381.6666666666667</ele><time>2026-04-19T07:11:30.98Z</time></trkpt><trkpt lat="37.807442166122385" lon="15.079877684042604"><ele>1382.0</ele><time>2026-04-19T07:11:31.98Z</time></trkpt><trkpt lat="37.80730631746644" lon="15.079832246449207"><ele>1384.5</ele><time>2026-04-19T07:11:32.98Z</time></trkpt><trkpt lat="37.8071438221276" lon="15.07977478170418"><ele>1387.0</ele><time>2026-04-19T07:11:33.98Z</time></trkpt><trkpt lat="37.80700798365873" lon="15.079721553989362"><ele>1389.5</ele><time>2026-04-19T07:11:34.98Z</time></trkpt><trkpt lat="37.80690095445508" lon="15.079656474321501"><ele>1392.0</ele><time>2026-04-19T07:11:35.98Z</time></trkpt><trkpt lat="37.80683406290131" lon="15.079588163848255"><ele>1391.0</ele><time>2026-04-19T07:11:36.98Z</time></trkpt><trkpt lat="37.80679608603073" lon="15.07949088443514"><ele>1390.0</ele><time>2026-04-19T07:11:37.98Z</time></trkpt><trkpt lat="37.80680255504812" lon="15.079398615909852"><ele>1389.0</ele><time>2026-04-19T07:11:38.98Z</time></trkpt><trkpt lat="37.806786966730954" lon="15.079268655101492"><ele>1388.0</ele><time>2026-04-19T07:11:39.98Z</time></trkpt><trkpt lat="37.80676566124632" lon="15.079072157753988"><ele>1387.0</ele><time>2026-04-19T07:11:40.98Z</time></trkpt><trkpt lat="37.806746865195734" lon="15.078892439155384"><ele>1386.5</ele><time>2026-04-19T07:11:41.98Z</time></trkpt><trkpt lat="37.80672297884152" lon="15.078693904434264"><ele>1386.0</ele><time>2026-04-19T07:11:42.98Z</time></trkpt><trkpt lat="37.8067016082673" lon="15.078509130625767"><ele>1385.5</ele><time>2026-04-19T07:11:43.98Z</time></trkpt><trkpt lat="37.80669600139899" lon="15.078336998426403"><ele>1385.0</ele><time>2026-04-19T07:11:44.98Z</time></trkpt><trkpt lat="37.80669410423459" lon="15.078195180746757"><ele>1386.2</ele><time>2026-04-19T07:11:45.98Z</time></trkpt><trkpt lat="37.80668021112356" lon="15.078048207630806"><ele>1387.4</ele><time>2026-04-19T07:11:46.98Z</time></trkpt><trkpt lat="37.80670034754856" lon="15.077933892352473"><ele>1388.6</ele><time>2026-04-19T07:11:47.98Z</time></trkpt><trkpt lat="37.80672231375492" lon="15.077831990820757"><ele>1389.8</ele><time>2026-04-19T07:11:48.98Z</time></trkpt><trkpt lat="37.80681704904225" lon="15.077732439550985"><ele>1391.0</ele><time>2026-04-19T07:11:49.98Z</time></trkpt><trkpt lat="37.806968994110385" lon="15.077807972523527"><ele>1392.5</ele><time>2026-04-19T07:11:50.98Z</time></trkpt><trkpt lat="37.8070338017067" lon="15.077883311311606"><ele>1394.0</ele><time>2026-04-19T07:11:51.98Z</time></trkpt><trkpt lat="37.80701619267707" lon="15.077994619329806"><ele>1395.5</ele><time>2026-04-19T07:11:53.98Z</time></trkpt><trkpt lat="37.80704190584373" lon="15.078204171347203"><ele>1397.0</ele><time>2026-04-19T07:11:54.98Z</time></trkpt><trkpt lat="37.80705382936187" lon="15.078417936217074"><ele>1397.0</ele><time>2026-04-19T07:11:55.98Z</time></trkpt><trkpt lat="37.80705988724568" lon="15.078553355159984"><ele>1397.0</ele><time>2026-04-19T07:11:56.98Z</time></trkpt><trkpt lat="37.80705567982454" lon="15.078668287726357"><ele>1397.0</ele><time>2026-04-19T07:11:57.98Z</time></trkpt><trkpt lat="37.80705740061393" lon="15.078799673638972"><ele>1397.0</ele><time>2026-04-19T07:11:58.98Z</time></trkpt><trkpt lat="37.80706823255532" lon="15.07892701861544"><ele>1397.0</ele><time>2026-04-19T07:11:59.98Z</time></trkpt><trkpt lat="37.80707358333068" lon="15.079018595238635"><ele>1396.1666666666667</ele><time>2026-04-19T07:12:00.98Z</time></trkpt><trkpt lat="37.807082070161584" lon="15.079110306520239"><ele>1395.3333333333335</ele><time>2026-04-19T07:12:01.98Z</time></trkpt><trkpt lat="37.80708774202276" lon="15.079206021234725"><ele>1394.5</ele><time>2026-04-19T07:12:02.98Z</time></trkpt><trkpt lat="37.80715359681297" lon="15.079309291123101"><ele>1393.6666666666667</ele><time>2026-04-19T07:12:03.979Z</time></trkpt><trkpt lat="37.807234047590725" lon="15.07940311086717"><ele>1392.8333333333333</ele><time>2026-04-19T07:12:04.979Z</time></trkpt><trkpt lat="37.807288263658776" lon="15.079455914671497"><ele>1392.0</ele><time>2026-04-19T07:12:05.979Z</time></trkpt><trkpt lat="37.80738791075836" lon="15.079435260604926"><ele>1392.0</ele><time>2026-04-19T07:12:06.979Z</time></trkpt><trkpt lat="37.80751374744284" lon="15.079325448495934"><ele>1392.0</ele><time>2026-04-19T07:12:07.979Z</time></trkpt><trkpt lat="37.80758245951224" lon="15.07919682262422"><ele>1392.0</ele><time>2026-04-19T07:12:08.979Z</time></trkpt><trkpt lat="37.80761866818416" lon="15.079077942381952"><ele>1392.0</ele><time>2026-04-19T07:12:09.979Z</time></trkpt><trkpt lat="37.80760285799347" lon="15.078947510977251"><ele>1393.25</ele><time>2026-04-19T07:12:10.979Z</time></trkpt><trkpt lat="37.80758227876365" lon="15.078819517430771"><ele>1394.5</ele><time>2026-04-19T07:12:11.979Z</time></trkpt><trkpt lat="37.80751670315953" lon="15.078631240898682"><ele>1395.75</ele><time>2026-04-19T07:12:12.979Z</time></trkpt><trkpt lat="37.80750355466097" lon="15.07846671969947"><ele>1397.0</ele><time>2026-04-19T07:12:13.979Z</time></trkpt><trkpt lat="37.807559572289115" lon="15.078306923888347"><ele>1400.0</ele><time>2026-04-19T07:12:14.979Z</time></trkpt><trkpt lat="37.80764863967136" lon="15.078108316121375"><ele>1403.0</ele><time>2026-04-19T07:12:15.979Z</time></trkpt><trkpt lat="37.80773309279954" lon="15.077941103843411"><ele>1406.0</ele><time>2026-04-19T07:12:16.979Z</time></trkpt><trkpt lat="37.80781383720199" lon="15.077778325141642"><ele>1406.0</ele><time>2026-04-19T07:12:17.979Z</time></trkpt><trkpt lat="37.807879906826116" lon="15.077645309619449"><ele>1406.0</ele><time>2026-04-19T07:12:18.979Z</time></trkpt><trkpt lat="37.807946566500924" lon="15.077511180016227"><ele>1406.0</ele><time>2026-04-19T07:12:19.979Z</time></trkpt><trkpt lat="37.8080252913092" lon="15.077389845389794"><ele>1406.0</ele><time>2026-04-19T07:12:20.979Z</time></trkpt><trkpt lat="37.80810328197604" lon="15.077282233911182"><ele>1408.25</ele><time>2026-04-19T07:12:21.979Z</time></trkpt><trkpt lat="37.808159144939644" lon="15.077159351654098"><ele>1410.5</ele><time>2026-04-19T07:12:22.979Z</time></trkpt><trkpt lat="37.80821308270692" lon="15.077028614638223"><ele>1412.75</ele><time>2026-04-19T07:12:23.979Z</time></trkpt><trkpt lat="37.808263194505805" lon="15.076899238699884"><ele>1415.0</ele><time>2026-04-19T07:12:24.979Z</time></trkpt><trkpt lat="37.80833662091909" lon="15.076774139138408"><ele>1415.0</ele><time>2026-04-19T07:12:25.979Z</time></trkpt><trkpt lat="37.8083961221018" lon="15.07664586938705"><ele>1415.0</ele><time>2026-04-19T07:12:26.979Z</time></trkpt><trkpt lat="37.80844613907382" lon="15.076509628324105"><ele>1415.0</ele><time>2026-04-19T07:12:27.979Z</time></trkpt><trkpt lat="37.808487509908126" lon="15.076365653913697"><ele>1415.0</ele><time>2026-04-19T07:12:28.979Z</time></trkpt><trkpt lat="37.808524555677536" lon="15.076226576361448"><ele>1416.0</ele><time>2026-04-19T07:12:29.979Z</time></trkpt><trkpt lat="37.80854618913673" lon="15.076081902625532"><ele>1417.0</ele><time>2026-04-19T07:12:30.979Z</time></trkpt><trkpt lat="37.80855091459659" lon="15.075944003759036"><ele>1418.0</ele><time>2026-04-19T07:12:31.979Z</time></trkpt><trkpt lat="37.808556689473505" lon="15.075802122123628"><ele>1419.0</ele><time>2026-04-19T07:12:32.979Z</time></trkpt><trkpt lat="37.8085407863378" lon="15.075645561248198"><ele>1419.0</ele><time>2026-04-19T07:12:33.979Z</time></trkpt><trkpt lat="37.80851871373093" lon="15.075492715259859"><ele>1419.0</ele><time>2026-04-19T07:12:34.979Z</time></trkpt><trkpt lat="37.808473559657145" lon="15.075332500041556"><ele>1419.0</ele><time>2026-04-19T07:12:35.979Z</time></trkpt><trkpt lat="37.80843567459639" lon="15.075206637002918"><ele>1419.0</ele><time>2026-04-19T07:12:36.979Z</time></trkpt><trkpt lat="37.808413404475345" lon="15.075099410002217"><ele>1419.0</ele><time>2026-04-19T07:12:37.979Z</time></trkpt><trkpt lat="37.80836669882059" lon="15.074994801118653"><ele>1419.0</ele><time>2026-04-19T07:12:38.979Z</time></trkpt><trkpt lat="37.8083347439597" lon="15.07491157988676"><ele>1419.0</ele><time>2026-04-19T07:12:39.979Z</time></trkpt><trkpt lat="37.80831605192441" lon="15.074829548794751"><ele>1419.0</ele><time>2026-04-19T07:12:40.979Z</time></trkpt><trkpt lat="37.80829457914532" lon="15.074746394757444"><ele>1419.0</ele><time>2026-04-19T07:12:41.979Z</time></trkpt><trkpt lat="37.80827083936275" lon="15.074669738553212"><ele>1419.0</ele><time>2026-04-19T07:12:42.978Z</time></trkpt><trkpt lat="37.808262071928404" lon="15.074535320548254"><ele>1418.8333333333333</ele><time>2026-04-19T07:12:44.978Z</time></trkpt><trkpt lat="37.808190672916965" lon="15.074469801480754"><ele>1418.6666666666667</ele><time>2026-04-19T07:12:46.978Z</time></trkpt><trkpt lat="37.808118042232934" lon="15.074471205186395"><ele>1418.5</ele><time>2026-04-19T07:12:48.978Z</time></trkpt><trkpt lat="37.808152071661745" lon="15.074383823371402"><ele>1418.3333333333335</ele><time>2026-04-19T07:12:51.978Z</time></trkpt><trkpt lat="37.80820749011907" lon="15.074295565175206"><ele>1418.1666666666667</ele><time>2026-04-19T07:13:41.979Z</time></trkpt><trkpt lat="37.80821552672347" lon="15.074152557799847"><ele>1418.0</ele><time>2026-04-19T07:13:43.979Z</time></trkpt><trkpt lat="37.808203470402276" lon="15.074038068084873"><ele>1420.0</ele><time>2026-04-19T07:13:44.979Z</time></trkpt><trkpt lat="37.80818597125983" lon="15.073906473616322"><ele>1422.0</ele><time>2026-04-19T07:13:45.979Z</time></trkpt><trkpt lat="37.808170102563814" lon="15.073771023909217"><ele>1424.0</ele><time>2026-04-19T07:13:46.979Z</time></trkpt><trkpt lat="37.80814558837581" lon="15.073653836678886"><ele>1426.0</ele><time>2026-04-19T07:13:47.979Z</time></trkpt><trkpt lat="37.808162245710044" lon="15.073518012845849"><ele>1428.0</ele><time>2026-04-19T07:13:48.979Z</time></trkpt><trkpt lat="37.80822683483204" lon="15.073408947733023"><ele>1428.0</ele><time>2026-04-19T07:13:49.979Z</time></trkpt><trkpt lat="37.808332460540186" lon="15.073367306308324"><ele>1428.0</ele><time>2026-04-19T07:13:50.979Z</time></trkpt><trkpt lat="37.80845745487799" lon="15.073317322090842"><ele>1428.0</ele><time>2026-04-19T07:13:51.979Z</time></trkpt><trkpt lat="37.808601511462655" lon="15.07325271685096"><ele>1428.0</ele><time>2026-04-19T07:13:52.979Z</time></trkpt><trkpt lat="37.8087238819834" lon="15.073169180224918"><ele>1430.75</ele><time>2026-04-19T07:13:53.979Z</time></trkpt><trkpt lat="37.80879475693044" lon="15.073096132393697"><ele>1433.5</ele><time>2026-04-19T07:13:54.979Z</time></trkpt><trkpt lat="37.80884809376404" lon="15.072966491782621"><ele>1436.25</ele><time>2026-04-19T07:13:55.979Z</time></trkpt><trkpt lat="37.808872813899555" lon="15.072786490045008"><ele>1439.0</ele><time>2026-04-19T07:13:56.979Z</time></trkpt><trkpt lat="37.80889934552758" lon="15.072610989604453"><ele>1439.0</ele><time>2026-04-19T07:13:57.979Z</time></trkpt><trkpt lat="37.80891841335239" lon="15.072442440368324"><ele>1439.0</ele><time>2026-04-19T07:13:58.979Z</time></trkpt><trkpt lat="37.808921021592205" lon="15.072267824633778"><ele>1439.0</ele><time>2026-04-19T07:13:59.979Z</time></trkpt><trkpt lat="37.80890438428386" lon="15.072072442126299"><ele>1439.0</ele><time>2026-04-19T07:14:00.979Z</time></trkpt><trkpt lat="37.80892507005871" lon="15.07187134281996"><ele>1443.0</ele><time>2026-04-19T07:14:01.978Z</time></trkpt><trkpt lat="37.80892853701653" lon="15.071663812419756"><ele>1447.0</ele><time>2026-04-19T07:14:02.978Z</time></trkpt><trkpt lat="37.808916996037894" lon="15.071460766309986"><ele>1451.0</ele><time>2026-04-19T07:14:03.978Z</time></trkpt><trkpt lat="37.80890887492161" lon="15.071251454713593"><ele>1453.0</ele><time>2026-04-19T07:14:04.978Z</time></trkpt><trkpt lat="37.80889194068118" lon="15.07104169718852"><ele>1455.0</ele><time>2026-04-19T07:14:05.978Z</time></trkpt><trkpt lat="37.808902909797595" lon="15.070848514804434"><ele>1457.0</ele><time>2026-04-19T07:14:06.978Z</time></trkpt><trkpt lat="37.808904242481326" lon="15.070655796392211"><ele>1458.3333333333335</ele><time>2026-04-19T07:14:07.978Z</time></trkpt><trkpt lat="37.80892562265917" lon="15.07044559104741"><ele>1459.6666666666667</ele><time>2026-04-19T07:14:08.978Z</time></trkpt><trkpt lat="37.80895179653256" lon="15.070246227815236"><ele>1461.0</ele><time>2026-04-19T07:14:09.978Z</time></trkpt><trkpt lat="37.80901344418469" lon="15.07004705553648"><ele>1464.0</ele><time>2026-04-19T07:14:10.978Z</time></trkpt><trkpt lat="37.809091389047666" lon="15.069837236376696"><ele>1467.0</ele><time>2026-04-19T07:14:11.978Z</time></trkpt><trkpt lat="37.80916250426141" lon="15.069663046637299"><ele>1470.0</ele><time>2026-04-19T07:14:12.978Z</time></trkpt><trkpt lat="37.809233874447244" lon="15.069518952891324"><ele>1470.0</ele><time>2026-04-19T07:14:13.978Z</time></trkpt><trkpt lat="37.809271272718235" lon="15.069347987980473"><ele>1470.0</ele><time>2026-04-19T07:14:14.978Z</time></trkpt><trkpt lat="37.80929349180184" lon="15.069202389894842"><ele>1470.0</ele><time>2026-04-19T07:14:15.978Z</time></trkpt><trkpt lat="37.80928605155465" lon="15.069057720426187"><ele>1470.0</ele><time>2026-04-19T07:14:16.978Z</time></trkpt><trkpt lat="37.8092240680183" lon="15.06891887908018"><ele>1473.0</ele><time>2026-04-19T07:14:17.978Z</time></trkpt><trkpt lat="37.80910110649692" lon="15.068833700770899"><ele>1476.0</ele><time>2026-04-19T07:14:18.978Z</time></trkpt><trkpt lat="37.8089471830752" lon="15.068826194828517"><ele>1479.0</ele><time>2026-04-19T07:14:19.978Z</time></trkpt><trkpt lat="37.80883151989168" lon="15.068895362889245"><ele>1482.0</ele><time>2026-04-19T07:14:20.978Z</time></trkpt><trkpt lat="37.80878313762163" lon="15.068955303348053"><ele>1482.0</ele><time>2026-04-19T07:14:21.978Z</time></trkpt><trkpt lat="37.808742077394655" lon="15.069031163002515"><ele>1482.0</ele><time>2026-04-19T07:14:22.978Z</time></trkpt><trkpt lat="37.808666518285634" lon="15.069195408386303"><ele>1482.0</ele><time>2026-04-19T07:14:23.978Z</time></trkpt><trkpt lat="37.808560679709515" lon="15.06942224366995"><ele>1482.0</ele><time>2026-04-19T07:14:24.978Z</time></trkpt><trkpt lat="37.80844390285223" lon="15.069557833872935"><ele>1481.25</ele><time>2026-04-19T07:14:25.978Z</time></trkpt><trkpt lat="37.808312263845245" lon="15.069588460681453"><ele>1480.5</ele><time>2026-04-19T07:14:26.978Z</time></trkpt><trkpt lat="37.80823091726008" lon="15.069541951844894"><ele>1479.75</ele><time>2026-04-19T07:14:27.978Z</time></trkpt><trkpt lat="37.808144417584835" lon="15.069446005270462"><ele>1479.0</ele><time>2026-04-19T07:14:28.978Z</time></trkpt><trkpt lat="37.80805033181085" lon="15.069366856298997"><ele>1479.0</ele><time>2026-04-19T07:14:29.978Z</time></trkpt><trkpt lat="37.80792792264154" lon="15.069260938976498"><ele>1479.0</ele><time>2026-04-19T07:14:30.978Z</time></trkpt><trkpt lat="37.80780534939499" lon="15.069147911956494"><ele>1479.0</ele><time>2026-04-19T07:14:31.978Z</time></trkpt><trkpt lat="37.80769172636901" lon="15.069009719345408"><ele>1477.6666666666667</ele><time>2026-04-19T07:14:32.978Z</time></trkpt><trkpt lat="37.807644252846174" lon="15.068875045310424"><ele>1476.3333333333335</ele><time>2026-04-19T07:14:33.978Z</time></trkpt><trkpt lat="37.80758399283628" lon="15.06868385563292"><ele>1475.0</ele><time>2026-04-19T07:14:34.978Z</time></trkpt><trkpt lat="37.80750135064771" lon="15.06842875033275"><ele>1480.5</ele><time>2026-04-19T07:14:35.978Z</time></trkpt><trkpt lat="37.80740806187169" lon="15.068140019482742"><ele>1486.0</ele><time>2026-04-19T07:14:36.978Z</time></trkpt><trkpt lat="37.8073273441393" lon="15.067874823950635"><ele>1486.0</ele><time>2026-04-19T07:14:37.978Z</time></trkpt><trkpt lat="37.8072222570689" lon="15.067626298994847"><ele>1486.0</ele><time>2026-04-19T07:14:38.977Z</time></trkpt><trkpt lat="37.807058127791" lon="15.067414971336593"><ele>1484.5</ele><time>2026-04-19T07:14:39.977Z</time></trkpt><trkpt lat="37.806867079592855" lon="15.067167833392482"><ele>1483.0</ele><time>2026-04-19T07:14:40.977Z</time></trkpt><trkpt lat="37.80665637968284" lon="15.066944585139138"><ele>1483.0</ele><time>2026-04-19T07:14:41.977Z</time></trkpt><trkpt lat="37.80653755240159" lon="15.06684104079024"><ele>1483.0</ele><time>2026-04-19T07:14:43.977Z</time></trkpt><trkpt lat="37.80638512011537" lon="15.066685799521021"><ele>1483.0</ele><time>2026-04-19T07:14:44.977Z</time></trkpt><trkpt lat="37.80624342844229" lon="15.066541265569352"><ele>1485.0</ele><time>2026-04-19T07:14:45.977Z</time></trkpt><trkpt lat="37.80610385444529" lon="15.066400942100032"><ele>1487.0</ele><time>2026-04-19T07:14:46.977Z</time></trkpt><trkpt lat="37.805968434089294" lon="15.066259199682063"><ele>1489.0</ele><time>2026-04-19T07:14:47.977Z</time></trkpt><trkpt lat="37.80582965121169" lon="15.066119216594732"><ele>1489.0</ele><time>2026-04-19T07:14:48.977Z</time></trkpt><trkpt lat="37.805711847067286" lon="15.065991063925239"><ele>1489.0</ele><time>2026-04-19T07:14:49.977Z</time></trkpt><trkpt lat="37.8055727553748" lon="15.06585676381391"><ele>1489.0</ele><time>2026-04-19T07:14:50.977Z</time></trkpt><trkpt lat="37.80550368176832" lon="15.065659564328056"><ele>1491.6666666666665</ele><time>2026-04-19T07:14:51.977Z</time></trkpt><trkpt lat="37.80541171341258" lon="15.065444757030352"><ele>1494.3333333333333</ele><time>2026-04-19T07:14:52.977Z</time></trkpt><trkpt lat="37.805306330985196" lon="15.065299308306518"><ele>1497.0</ele><time>2026-04-19T07:14:53.977Z</time></trkpt><trkpt lat="37.805215491580455" lon="15.065159889974778"><ele>1496.25</ele><time>2026-04-19T07:14:54.977Z</time></trkpt><trkpt lat="37.80510133541535" lon="15.065095476812909"><ele>1495.5</ele><time>2026-04-19T07:14:55.977Z</time></trkpt><trkpt lat="37.80499021194054" lon="15.065180378244472"><ele>1494.75</ele><time>2026-04-19T07:14:56.977Z</time></trkpt><trkpt lat="37.804849771195045" lon="15.065208478958937"><ele>1494.0</ele><time>2026-04-19T07:14:57.977Z</time></trkpt><trkpt lat="37.8046677551345" lon="15.06524371829263"><ele>1494.0</ele><time>2026-04-19T07:14:58.977Z</time></trkpt><trkpt lat="37.804479035317925" lon="15.06527943230157"><ele>1494.0</ele><time>2026-04-19T07:14:59.977Z</time></trkpt><trkpt lat="37.80428204515712" lon="15.065310646020658"><ele>1494.0</ele><time>2026-04-19T07:15:00.977Z</time></trkpt><trkpt lat="37.80408609401457" lon="15.065345768454998"><ele>1494.6666666666667</ele><time>2026-04-19T07:15:01.977Z</time></trkpt><trkpt lat="37.803875824249104" lon="15.06538535760094"><ele>1495.3333333333335</ele><time>2026-04-19T07:15:02.977Z</time></trkpt><trkpt lat="37.80365874723959" lon="15.065424448380647"><ele>1496.0</ele><time>2026-04-19T07:15:03.977Z</time></trkpt><trkpt lat="37.803442531714644" lon="15.065450360591328"><ele>1497.3333333333335</ele><time>2026-04-19T07:15:04.977Z</time></trkpt><trkpt lat="37.80324055091095" lon="15.065518957505603"><ele>1498.6666666666667</ele><time>2026-04-19T07:15:05.977Z</time></trkpt><trkpt lat="37.80303843953863" lon="15.065544704024623"><ele>1500.0</ele><time>2026-04-19T07:15:06.977Z</time></trkpt><trkpt lat="37.802863931586366" lon="15.065551795509034"><ele>1500.0</ele><time>2026-04-19T07:15:07.977Z</time></trkpt><trkpt lat="37.80271997501737" lon="15.065440547900268"><ele>1500.0</ele><time>2026-04-19T07:15:08.977Z</time></trkpt><trkpt lat="37.8025613516347" lon="15.065326210095993"><ele>1500.0</ele><time>2026-04-19T07:15:09.977Z</time></trkpt><trkpt lat="37.80239438641154" lon="15.065205745804677"><ele>1498.3333333333333</ele><time>2026-04-19T07:15:10.977Z</time></trkpt><trkpt lat="37.80219884930335" lon="15.06508890499947"><ele>1496.6666666666665</ele><time>2026-04-19T07:15:11.977Z</time></trkpt><trkpt lat="37.802006225438255" lon="15.065001353865455"><ele>1495.0</ele><time>2026-04-19T07:15:12.977Z</time></trkpt><trkpt lat="37.801816993472215" lon="15.064913191513178"><ele>1497.5</ele><time>2026-04-19T07:15:13.977Z</time></trkpt><trkpt lat="37.801653126581" lon="15.064845701053034"><ele>1500.0</ele><time>2026-04-19T07:15:14.977Z</time></trkpt><trkpt lat="37.801515734607534" lon="15.064829817405654"><ele>1502.5</ele><time>2026-04-19T07:15:15.977Z</time></trkpt><trkpt lat="37.80139560039958" lon="15.064790055636067"><ele>1505.0</ele><time>2026-04-19T07:15:16.976Z</time></trkpt><trkpt lat="37.80127489277555" lon="15.064820487322717"><ele>1500.0</ele><time>2026-04-19T07:15:17.979Z</time></trkpt><trkpt lat="37.80120702544677" lon="15.064978250398003"><ele>1495.0</ele><time>2026-04-19T07:15:18.98Z</time></trkpt><trkpt lat="37.80100549138006" lon="15.065281536695988"><ele>1497.0</ele><time>2026-04-19T07:15:19.979Z</time></trkpt><trkpt lat="37.8008807925333" lon="15.06530736895475"><ele>1499.0</ele><time>2026-04-19T07:15:20.979Z</time></trkpt><trkpt lat="37.80075838574179" lon="15.065327674247266"><ele>1501.0</ele><time>2026-04-19T07:15:21.979Z</time></trkpt><trkpt lat="37.800618845343514" lon="15.065396229540202"><ele>1503.0</ele><time>2026-04-19T07:15:22.979Z</time></trkpt><trkpt lat="37.80042560413603" lon="15.065384749847293"><ele>1503.0</ele><time>2026-04-19T07:15:23.979Z</time></trkpt><trkpt lat="37.80023924218015" lon="15.065365607555131"><ele>1503.0</ele><time>2026-04-19T07:15:24.979Z</time></trkpt><trkpt lat="37.80007847692186" lon="15.065359424817395"><ele>1503.0</ele><time>2026-04-19T07:15:25.979Z</time></trkpt><trkpt lat="37.79992313120862" lon="15.065279390277462"><ele>1504.0</ele><time>2026-04-19T07:15:26.979Z</time></trkpt><trkpt lat="37.799749318314554" lon="15.065215038411683"><ele>1505.0</ele><time>2026-04-19T07:15:27.979Z</time></trkpt><trkpt lat="37.7995633097281" lon="15.065172142142666"><ele>1506.0</ele><time>2026-04-19T07:15:28.979Z</time></trkpt><trkpt lat="37.799384436706085" lon="15.06511788751178"><ele>1505.3333333333333</ele><time>2026-04-19T07:15:29.979Z</time></trkpt><trkpt lat="37.79921075683241" lon="15.06510054746102"><ele>1504.6666666666665</ele><time>2026-04-19T07:15:30.979Z</time></trkpt><trkpt lat="37.799025365275476" lon="15.06510048040545"><ele>1504.0</ele><time>2026-04-19T07:15:31.979Z</time></trkpt><trkpt lat="37.79884130700194" lon="15.065182657723899"><ele>1504.0</ele><time>2026-04-19T07:15:32.979Z</time></trkpt><trkpt lat="37.79864154181754" lon="15.065253076302865"><ele>1504.0</ele><time>2026-04-19T07:15:33.979Z</time></trkpt><trkpt lat="37.79846212874032" lon="15.065338087625053"><ele>1504.0</ele><time>2026-04-19T07:15:34.979Z</time></trkpt><trkpt lat="37.798291458498355" lon="15.065403305451323"><ele>1507.0</ele><time>2026-04-19T07:15:35.979Z</time></trkpt><trkpt lat="37.79812393129594" lon="15.065464090954082"><ele>1510.0</ele><time>2026-04-19T07:15:36.979Z</time></trkpt><trkpt lat="37.79794941315715" lon="15.06549701919283"><ele>1513.0</ele><time>2026-04-19T07:15:37.979Z</time></trkpt><trkpt lat="37.797781792508296" lon="15.065457267482097"><ele>1514.0</ele><time>2026-04-19T07:15:38.979Z</time></trkpt><trkpt lat="37.797627683423585" lon="15.065372386297529"><ele>1515.0</ele><time>2026-04-19T07:15:39.979Z</time></trkpt><trkpt lat="37.79749438107714" lon="15.065264857532979"><ele>1516.0</ele><time>2026-04-19T07:15:40.979Z</time></trkpt><trkpt lat="37.797405610877846" lon="15.065117347213656"><ele>1518.0</ele><time>2026-04-19T07:15:41.979Z</time></trkpt><trkpt lat="37.797335271257964" lon="15.06493458391274"><ele>1520.0</ele><time>2026-04-19T07:15:42.979Z</time></trkpt><trkpt lat="37.79726178559281" lon="15.06472075255908"><ele>1522.0</ele><time>2026-04-19T07:15:43.979Z</time></trkpt><trkpt lat="37.79718910073049" lon="15.064504832206666"><ele>1522.0</ele><time>2026-04-19T07:15:44.979Z</time></trkpt><trkpt lat="37.797117616869706" lon="15.064288910210102"><ele>1522.0</ele><time>2026-04-19T07:15:45.979Z</time></trkpt><trkpt lat="37.797047836157454" lon="15.064076465425781"><ele>1522.0</ele><time>2026-04-19T07:15:46.979Z</time></trkpt><trkpt lat="37.79697915480123" lon="15.063869977265034"><ele>1523.3333333333333</ele><time>2026-04-19T07:15:47.979Z</time></trkpt><trkpt lat="37.796908115269986" lon="15.06366073751273"><ele>1524.6666666666667</ele><time>2026-04-19T07:15:48.979Z</time></trkpt><trkpt lat="37.796827036477026" lon="15.063474255704486"><ele>1526.0</ele><time>2026-04-19T07:15:49.979Z</time></trkpt><trkpt lat="37.796791706912714" lon="15.063284500345306"><ele>1526.75</ele><time>2026-04-19T07:15:50.979Z</time></trkpt><trkpt lat="37.796738026923826" lon="15.063113837396898"><ele>1527.5</ele><time>2026-04-19T07:15:51.979Z</time></trkpt><trkpt lat="37.79669017167096" lon="15.062957432907309"><ele>1528.25</ele><time>2026-04-19T07:15:52.979Z</time></trkpt><trkpt lat="37.79666651102424" lon="15.062835970445144"><ele>1529.0</ele><time>2026-04-19T07:15:53.978Z</time></trkpt><trkpt lat="37.796721794471416" lon="15.062475546747503"><ele>1532.25</ele><time>2026-04-19T07:15:56.978Z</time></trkpt><trkpt lat="37.79682692366002" lon="15.062338412691647"><ele>1535.5</ele><time>2026-04-19T07:15:58.978Z</time></trkpt><trkpt lat="37.79690097686597" lon="15.062193342625637"><ele>1538.75</ele><time>2026-04-19T07:15:59.978Z</time></trkpt><trkpt lat="37.796972516207624" lon="15.062044750507122"><ele>1542.0</ele><time>2026-04-19T07:16:00.978Z</time></trkpt><trkpt lat="37.79705025621947" lon="15.061876733646537"><ele>1542.6666666666665</ele><time>2026-04-19T07:16:01.978Z</time></trkpt><trkpt lat="37.797131206193136" lon="15.061701908547954"><ele>1543.3333333333333</ele><time>2026-04-19T07:16:02.978Z</time></trkpt><trkpt lat="37.79721591645497" lon="15.061528208424308"><ele>1544.0</ele><time>2026-04-19T07:16:03.978Z</time></trkpt><trkpt lat="37.79729971793555" lon="15.061356372502127"><ele>1546.6666666666665</ele><time>2026-04-19T07:16:04.978Z</time></trkpt><trkpt lat="37.797368570864485" lon="15.061174018670814"><ele>1549.3333333333335</ele><time>2026-04-19T07:16:05.978Z</time></trkpt><trkpt lat="37.797450565593884" lon="15.061000208110416"><ele>1552.0</ele><time>2026-04-19T07:16:06.978Z</time></trkpt><trkpt lat="37.79750512611304" lon="15.060804620690675"><ele>1556.0</ele><time>2026-04-19T07:16:07.978Z</time></trkpt><trkpt lat="37.797520000515036" lon="15.060581848863517"><ele>1560.0</ele><time>2026-04-19T07:16:08.978Z</time></trkpt><trkpt lat="37.79750073604304" lon="15.0603437669198"><ele>1564.0</ele><time>2026-04-19T07:16:09.978Z</time></trkpt><trkpt lat="37.79743878283116" lon="15.060097765395408"><ele>1568.3333333333335</ele><time>2026-04-19T07:16:10.978Z</time></trkpt><trkpt lat="37.79733263337387" lon="15.059915836555417"><ele>1572.6666666666665</ele><time>2026-04-19T07:16:11.978Z</time></trkpt><trkpt lat="37.797214964719856" lon="15.05976078087572"><ele>1577.0</ele><time>2026-04-19T07:16:12.978Z</time></trkpt><trkpt lat="37.79706499952249" lon="15.059655484419753"><ele>1577.0</ele><time>2026-04-19T07:16:13.978Z</time></trkpt><trkpt lat="37.796890965927595" lon="15.059559015636651"><ele>1577.0</ele><time>2026-04-19T07:16:14.978Z</time></trkpt><trkpt lat="37.79670416838962" lon="15.059467767128634"><ele>1577.0</ele><time>2026-04-19T07:16:15.978Z</time></trkpt><trkpt lat="37.79651320080138" lon="15.059378916185834"><ele>1576.0</ele><time>2026-04-19T07:16:16.978Z</time></trkpt><trkpt lat="37.79632528451041" lon="15.059289002510432"><ele>1575.0</ele><time>2026-04-19T07:16:17.978Z</time></trkpt><trkpt lat="37.796135351976005" lon="15.059185923948757"><ele>1574.0</ele><time>2026-04-19T07:16:18.978Z</time></trkpt><trkpt lat="37.79595013648703" lon="15.05908370828034"><ele>1577.0</ele><time>2026-04-19T07:16:19.978Z</time></trkpt><trkpt lat="37.79576568807391" lon="15.058991463754863"><ele>1580.0</ele><time>2026-04-19T07:16:20.978Z</time></trkpt><trkpt lat="37.79557830070288" lon="15.058906955206114"><ele>1583.0</ele><time>2026-04-19T07:16:21.978Z</time></trkpt><trkpt lat="37.795383490807495" lon="15.058851182702803"><ele>1583.0</ele><time>2026-04-19T07:16:22.978Z</time></trkpt><trkpt lat="37.79517841710105" lon="15.058836779019968"><ele>1583.0</ele><time>2026-04-19T07:16:23.978Z</time></trkpt><trkpt lat="37.79498838958443" lon="15.058831637333027"><ele>1583.0</ele><time>2026-04-19T07:16:24.978Z</time></trkpt><trkpt lat="37.7948237161176" lon="15.058817178433376"><ele>1584.6666666666665</ele><time>2026-04-19T07:16:25.978Z</time></trkpt><trkpt lat="37.794686738159946" lon="15.058726192275074"><ele>1586.3333333333335</ele><time>2026-04-19T07:16:26.978Z</time></trkpt><trkpt lat="37.79456282176149" lon="15.058617224256533"><ele>1588.0</ele><time>2026-04-19T07:16:27.978Z</time></trkpt><trkpt lat="37.79446521901918" lon="15.058461368874488"><ele>1591.3333333333335</ele><time>2026-04-19T07:16:28.978Z</time></trkpt><trkpt lat="37.794388166513976" lon="15.05826985291118"><ele>1594.6666666666665</ele><time>2026-04-19T07:16:29.978Z</time></trkpt><trkpt lat="37.7943564151747" lon="15.058048923539271"><ele>1598.0</ele><time>2026-04-19T07:16:30.978Z</time></trkpt><trkpt lat="37.794371198295515" lon="15.05784467463206"><ele>1598.0</ele><time>2026-04-19T07:16:31.977Z</time></trkpt><trkpt lat="37.79442500880385" lon="15.0576473217477"><ele>1598.0</ele><time>2026-04-19T07:16:32.977Z</time></trkpt><trkpt lat="37.79451299430779" lon="15.057460488336636"><ele>1598.0</ele><time>2026-04-19T07:16:33.977Z</time></trkpt><trkpt lat="37.79462364741307" lon="15.05726624043512"><ele>1600.6666666666665</ele><time>2026-04-19T07:16:34.977Z</time></trkpt><trkpt lat="37.79473892695411" lon="15.057072473947041"><ele>1603.3333333333335</ele><time>2026-04-19T07:16:35.977Z</time></trkpt><trkpt lat="37.794809438089274" lon="15.056857907069002"><ele>1606.0</ele><time>2026-04-19T07:16:36.977Z</time></trkpt><trkpt lat="37.79487678670333" lon="15.056629721082777"><ele>1608.6666666666667</ele><time>2026-04-19T07:16:37.977Z</time></trkpt><trkpt lat="37.794922607628536" lon="15.056386831302857"><ele>1611.3333333333335</ele><time>2026-04-19T07:16:38.977Z</time></trkpt><trkpt lat="37.79498402307258" lon="15.056166566123483"><ele>1614.0</ele><time>2026-04-19T07:16:39.977Z</time></trkpt><trkpt lat="37.79506704545106" lon="15.055971555574635"><ele>1615.3333333333335</ele><time>2026-04-19T07:16:40.977Z</time></trkpt><trkpt lat="37.79518087280064" lon="15.055802067534392"><ele>1616.6666666666667</ele><time>2026-04-19T07:16:41.977Z</time></trkpt><trkpt lat="37.795316708203046" lon="15.05564310997802"><ele>1618.0</ele><time>2026-04-19T07:16:42.977Z</time></trkpt><trkpt lat="37.79545782663128" lon="15.05548193448669"><ele>1621.6666666666667</ele><time>2026-04-19T07:16:43.977Z</time></trkpt><trkpt lat="37.795583799657294" lon="15.055327960570624"><ele>1625.3333333333335</ele><time>2026-04-19T07:16:44.977Z</time></trkpt><trkpt lat="37.79571340770521" lon="15.055183270424852"><ele>1629.0</ele><time>2026-04-19T07:16:45.977Z</time></trkpt><trkpt lat="37.79583698997592" lon="15.055036291593346"><ele>1629.6666666666665</ele><time>2026-04-19T07:16:46.977Z</time></trkpt><trkpt lat="37.79594155368969" lon="15.054861658657"><ele>1630.3333333333333</ele><time>2026-04-19T07:16:47.977Z</time></trkpt><trkpt lat="37.79602898181473" lon="15.054658059615837"><ele>1631.0</ele><time>2026-04-19T07:16:48.977Z</time></trkpt><trkpt lat="37.79611226180375" lon="15.054453364379622"><ele>1631.3333333333333</ele><time>2026-04-19T07:16:49.977Z</time></trkpt><trkpt lat="37.796199628831445" lon="15.05424744641507"><ele>1631.6666666666665</ele><time>2026-04-19T07:16:50.977Z</time></trkpt><trkpt lat="37.79628829100607" lon="15.054035975051322"><ele>1632.0</ele><time>2026-04-19T07:16:51.977Z</time></trkpt><trkpt lat="37.79638063522617" lon="15.05380809865107"><ele>1635.0</ele><time>2026-04-19T07:16:52.977Z</time></trkpt><trkpt lat="37.7964690164974" lon="15.05358964676188"><ele>1638.0</ele><time>2026-04-19T07:16:53.977Z</time></trkpt><trkpt lat="37.79654910071494" lon="15.053392911008881"><ele>1641.0</ele><time>2026-04-19T07:16:54.977Z</time></trkpt><trkpt lat="37.796624492292025" lon="15.053212576105299"><ele>1644.25</ele><time>2026-04-19T07:16:55.977Z</time></trkpt><trkpt lat="37.796705977573644" lon="15.053047880578237"><ele>1647.5</ele><time>2026-04-19T07:16:56.977Z</time></trkpt><trkpt lat="37.79680297094249" lon="15.05292163357156"><ele>1650.75</ele><time>2026-04-19T07:16:57.977Z</time></trkpt><trkpt lat="37.79690963387894" lon="15.052839717365254"><ele>1654.0</ele><time>2026-04-19T07:16:58.977Z</time></trkpt><trkpt lat="37.79703753728511" lon="15.052782215971128"><ele>1655.0</ele><time>2026-04-19T07:16:59.977Z</time></trkpt><trkpt lat="37.79722153228724" lon="15.05272924324456"><ele>1656.0</ele><time>2026-04-19T07:17:00.977Z</time></trkpt><trkpt lat="37.79737724586147" lon="15.05262406856166"><ele>1657.0</ele><time>2026-04-19T07:17:01.977Z</time></trkpt><trkpt lat="37.79751186783959" lon="15.052522734426166"><ele>1658.75</ele><time>2026-04-19T07:17:02.977Z</time></trkpt><trkpt lat="37.797627463706554" lon="15.052455299500087"><ele>1660.5</ele><time>2026-04-19T07:17:03.977Z</time></trkpt><trkpt lat="37.79772887367525" lon="15.05245503674883"><ele>1662.25</ele><time>2026-04-19T07:17:04.977Z</time></trkpt><trkpt lat="37.797835005509654" lon="15.052491691910815"><ele>1664.0</ele><time>2026-04-19T07:17:05.977Z</time></trkpt><trkpt lat="37.79795262911265" lon="15.052598082062357"><ele>1664.0</ele><time>2026-04-19T07:17:06.977Z</time></trkpt><trkpt lat="37.79808449179057" lon="15.052577311502816"><ele>1664.0</ele><time>2026-04-19T07:17:07.977Z</time></trkpt><trkpt lat="37.79820060435814" lon="15.052498640999122"><ele>1664.0</ele><time>2026-04-19T07:17:08.976Z</time></trkpt><trkpt lat="37.7982937608908" lon="15.052386940982842"><ele>1664.0</ele><time>2026-04-19T07:17:09.976Z</time></trkpt><trkpt lat="37.798425449968" lon="15.052303738955937"><ele>1668.6666666666665</ele><time>2026-04-19T07:17:10.976Z</time></trkpt><trkpt lat="37.79855974476334" lon="15.052216487186175"><ele>1673.3333333333335</ele><time>2026-04-19T07:17:11.976Z</time></trkpt><trkpt lat="37.798714783140994" lon="15.052199295545586"><ele>1678.0</ele><time>2026-04-19T07:17:12.976Z</time></trkpt><trkpt lat="37.79886611102644" lon="15.05214565548936"><ele>1678.0</ele><time>2026-04-19T07:17:13.976Z</time></trkpt><trkpt lat="37.799034095725695" lon="15.052072482522124"><ele>1678.0</ele><time>2026-04-19T07:17:14.976Z</time></trkpt><trkpt lat="37.799194624593966" lon="15.051997992541715"><ele>1678.0</ele><time>2026-04-19T07:17:15.976Z</time></trkpt><trkpt lat="37.79934634841752" lon="15.051923878185775"><ele>1678.75</ele><time>2026-04-19T07:17:16.976Z</time></trkpt><trkpt lat="37.7994834103434" lon="15.051867095340869"><ele>1679.5</ele><time>2026-04-19T07:17:17.976Z</time></trkpt><trkpt lat="37.79959600889382" lon="15.051820401419347"><ele>1680.25</ele><time>2026-04-19T07:17:18.976Z</time></trkpt><trkpt lat="37.79968394896572" lon="15.051730504121977"><ele>1681.0</ele><time>2026-04-19T07:17:19.976Z</time></trkpt><trkpt lat="37.799738954785525" lon="15.051617072539772"><ele>1684.4</ele><time>2026-04-19T07:17:20.976Z</time></trkpt><trkpt lat="37.79975514252721" lon="15.051467038948457"><ele>1687.8</ele><time>2026-04-19T07:17:21.976Z</time></trkpt><trkpt lat="37.79974073427216" lon="15.051345561764844"><ele>1691.2</ele><time>2026-04-19T07:17:22.976Z</time></trkpt><trkpt lat="37.79965159622869" lon="15.051255485339897"><ele>1694.6000000000001</ele><time>2026-04-19T07:17:23.978Z</time></trkpt><trkpt lat="37.799584724509074" lon="15.051158368869588"><ele>1698.0</ele><time>2026-04-19T07:17:24.978Z</time></trkpt><trkpt lat="37.79951473272571" lon="15.05105563156824"><ele>1698.0</ele><time>2026-04-19T07:17:25.978Z</time></trkpt><trkpt lat="37.79951956336589" lon="15.050946632609813"><ele>1698.0</ele><time>2026-04-19T07:17:26.978Z</time></trkpt><trkpt lat="37.799534075723166" lon="15.050808109097373"><ele>1698.0</ele><time>2026-04-19T07:17:27.979Z</time></trkpt><trkpt lat="37.79952254632798" lon="15.050664782494485"><ele>1698.0</ele><time>2026-04-19T07:17:28.979Z</time></trkpt><trkpt lat="37.79952992626114" lon="15.050496335323224"><ele>1698.0</ele><time>2026-04-19T07:17:29.979Z</time></trkpt><trkpt lat="37.7994753535296" lon="15.050323460589807"><ele>1700.8000000000002</ele><time>2026-04-19T07:17:30.978Z</time></trkpt><trkpt lat="37.79944727777836" lon="15.050159675242128"><ele>1703.6</ele><time>2026-04-19T07:17:31.978Z</time></trkpt><trkpt lat="37.79940408410979" lon="15.050012571640176"><ele>1706.3999999999999</ele><time>2026-04-19T07:17:32.978Z</time></trkpt><trkpt lat="37.79939121474524" lon="15.049910886109968"><ele>1709.1999999999998</ele><time>2026-04-19T07:17:33.979Z</time></trkpt><trkpt lat="37.799440749047" lon="15.049813761322996"><ele>1712.0</ele><time>2026-04-19T07:17:34.979Z</time></trkpt><trkpt lat="37.79953868621823" lon="15.049708132603003"><ele>1714.5</ele><time>2026-04-19T07:17:35.978Z</time></trkpt><trkpt lat="37.799577025078634" lon="15.049562385198554"><ele>1717.0</ele><time>2026-04-19T07:17:36.978Z</time></trkpt><trkpt lat="37.79956698971406" lon="15.04942439970236"><ele>1719.5</ele><time>2026-04-19T07:17:37.978Z</time></trkpt><trkpt lat="37.79951832377667" lon="15.049288662648651"><ele>1722.0</ele><time>2026-04-19T07:17:38.978Z</time></trkpt><trkpt lat="37.79949972957089" lon="15.049114549989506"><ele>1723.6</ele><time>2026-04-19T07:17:39.978Z</time></trkpt><trkpt lat="37.79949932833121" lon="15.048960746076311"><ele>1725.1999999999998</ele><time>2026-04-19T07:17:40.978Z</time></trkpt><trkpt lat="37.79957516096423" lon="15.048852964881696"><ele>1726.8</ele><time>2026-04-19T07:17:41.978Z</time></trkpt><trkpt lat="37.79966688605364" lon="15.048824480432913"><ele>1728.4</ele><time>2026-04-19T07:17:42.978Z</time></trkpt><trkpt lat="37.7997721940498" lon="15.048778753621912"><ele>1730.0</ele><time>2026-04-19T07:17:43.978Z</time></trkpt><trkpt lat="37.799871668748125" lon="15.048700324676709"><ele>1730.0</ele><time>2026-04-19T07:17:44.978Z</time></trkpt><trkpt lat="37.799935770805895" lon="15.048585851748234"><ele>1730.0</ele><time>2026-04-19T07:17:45.978Z</time></trkpt><trkpt lat="37.79997064724487" lon="15.048471008025759"><ele>1730.0</ele><time>2026-04-19T07:17:46.978Z</time></trkpt><trkpt lat="37.799979834652326" lon="15.04834842634917"><ele>1730.0</ele><time>2026-04-19T07:17:47.978Z</time></trkpt><trkpt lat="37.79998693062942" lon="15.04825977646504"><ele>1730.0</ele><time>2026-04-19T07:17:48.978Z</time></trkpt><trkpt lat="37.79995380068016" lon="15.048171299316897"><ele>1732.25</ele><time>2026-04-19T07:17:49.978Z</time></trkpt><trkpt lat="37.79991065503217" lon="15.048062649364088"><ele>1734.5</ele><time>2026-04-19T07:17:50.978Z</time></trkpt><trkpt lat="37.79975353622694" lon="15.048056928129576"><ele>1736.75</ele><time>2026-04-19T07:17:51.978Z</time></trkpt><trkpt lat="37.799634394400094" lon="15.0479716408407"><ele>1739.0</ele><time>2026-04-19T07:17:52.978Z</time></trkpt><trkpt lat="37.79952941338246" lon="15.047888104783471"><ele>1739.0</ele><time>2026-04-19T07:17:53.978Z</time></trkpt><trkpt lat="37.79943312169963" lon="15.047809526654554"><ele>1739.0</ele><time>2026-04-19T07:17:54.978Z</time></trkpt><trkpt lat="37.7993171835739" lon="15.047709622657983"><ele>1739.0</ele><time>2026-04-19T07:17:55.978Z</time></trkpt><trkpt lat="37.79923011187036" lon="15.04759678843292"><ele>1739.0</ele><time>2026-04-19T07:17:56.978Z</time></trkpt><trkpt lat="37.79914990198547" lon="15.04752054756843"><ele>1739.4</ele><time>2026-04-19T07:17:57.978Z</time></trkpt><trkpt lat="37.799150756840646" lon="15.047429716542121"><ele>1739.8000000000002</ele><time>2026-04-19T07:17:58.978Z</time></trkpt><trkpt lat="37.79921797890829" lon="15.047333927658139"><ele>1740.1999999999998</ele><time>2026-04-19T07:17:59.978Z</time></trkpt><trkpt lat="37.79922399491584" lon="15.047182324321938"><ele>1740.6</ele><time>2026-04-19T07:18:00.978Z</time></trkpt><trkpt lat="37.79916982202351" lon="15.047068298603522"><ele>1741.0</ele><time>2026-04-19T07:18:01.978Z</time></trkpt><trkpt lat="37.79905671796491" lon="15.04698076667391"><ele>1741.0</ele><time>2026-04-19T07:18:03.978Z</time></trkpt><trkpt lat="37.79895489762673" lon="15.046952230058102"><ele>1741.0</ele><time>2026-04-19T07:18:04.978Z</time></trkpt><trkpt lat="37.798834786190014" lon="15.046919070870619"><ele>1741.0</ele><time>2026-04-19T07:18:05.978Z</time></trkpt><trkpt lat="37.7987299664424" lon="15.0468472509511"><ele>1741.0</ele><time>2026-04-19T07:18:06.978Z</time></trkpt><trkpt lat="37.79868055154256" lon="15.046721134636796"><ele>1741.0</ele><time>2026-04-19T07:18:07.977Z</time></trkpt><trkpt lat="37.798650374046666" lon="15.046635801366639"><ele>1741.0</ele><time>2026-04-19T07:18:08.977Z</time></trkpt><trkpt lat="37.79868412745275" lon="15.04655573692621"><ele>1741.0</ele><time>2026-04-19T07:18:09.977Z</time></trkpt><trkpt lat="37.79872335378734" lon="15.046438365673213"><ele>1741.0</ele><time>2026-04-19T07:18:10.977Z</time></trkpt><trkpt lat="37.79879847308047" lon="15.046351370706063"><ele>1741.0</ele><time>2026-04-19T07:18:11.977Z</time></trkpt><trkpt lat="37.79891587337305" lon="15.046264981834668"><ele>1742.0</ele><time>2026-04-19T07:18:12.977Z</time></trkpt><trkpt lat="37.79900885861537" lon="15.04614171495284"><ele>1743.0</ele><time>2026-04-19T07:18:13.977Z</time></trkpt><trkpt lat="37.79907321235412" lon="15.04599619159451"><ele>1744.0</ele><time>2026-04-19T07:18:14.977Z</time></trkpt><trkpt lat="37.79911822240764" lon="15.045878912014985"><ele>1745.0</ele><time>2026-04-19T07:18:15.977Z</time></trkpt><trkpt lat="37.799148604978534" lon="15.04577840191512"><ele>1747.6</ele><time>2026-04-19T07:18:16.977Z</time></trkpt><trkpt lat="37.79914842607167" lon="15.045672534024781"><ele>1750.2</ele><time>2026-04-19T07:18:17.977Z</time></trkpt><trkpt lat="37.799086136062876" lon="15.045576689702779"><ele>1752.8000000000002</ele><time>2026-04-19T07:18:18.977Z</time></trkpt><trkpt lat="37.79902970691979" lon="15.045510389851922"><ele>1755.4</ele><time>2026-04-19T07:18:19.977Z</time></trkpt><trkpt lat="37.79891929742625" lon="15.04544190991074"><ele>1758.0</ele><time>2026-04-19T07:18:20.977Z</time></trkpt><trkpt lat="37.79885086307968" lon="15.045341005912663"><ele>1758.0</ele><time>2026-04-19T07:18:21.977Z</time></trkpt><trkpt lat="37.798824486417466" lon="15.04521919471068"><ele>1758.0000000000002</ele><time>2026-04-19T07:18:22.977Z</time></trkpt><trkpt lat="37.79880430985008" lon="15.045087061982171"><ele>1758.0000000000002</ele><time>2026-04-19T07:18:23.977Z</time></trkpt><trkpt lat="37.79878461313937" lon="15.044929425197973"><ele>1758.0</ele><time>2026-04-19T07:18:24.977Z</time></trkpt><trkpt lat="37.79877139672769" lon="15.044782351013483"><ele>1758.0</ele><time>2026-04-19T07:18:25.977Z</time></trkpt><trkpt lat="37.798766108634084" lon="15.044652035751938"><ele>1759.4</ele><time>2026-04-19T07:18:26.977Z</time></trkpt><trkpt lat="37.79877702539593" lon="15.044553612686457"><ele>1760.8000000000002</ele><time>2026-04-19T07:18:27.977Z</time></trkpt><trkpt lat="37.79884036620535" lon="15.044433251196693"><ele>1762.2</ele><time>2026-04-19T07:18:29.977Z</time></trkpt><trkpt lat="37.798900739588376" lon="15.044360796017406"><ele>1763.6</ele><time>2026-04-19T07:18:30.977Z</time></trkpt><trkpt lat="37.79897231731555" lon="15.044288100869831"><ele>1765.0</ele><time>2026-04-19T07:18:31.977Z</time></trkpt><trkpt lat="37.79905301634163" lon="15.044217468800715"><ele>1765.0000000000002</ele><time>2026-04-19T07:18:32.977Z</time></trkpt><trkpt lat="37.799143189164376" lon="15.044149386510238"><ele>1765.0</ele><time>2026-04-19T07:18:33.977Z</time></trkpt><trkpt lat="37.799224002701365" lon="15.044080029402101"><ele>1765.0</ele><time>2026-04-19T07:18:34.977Z</time></trkpt><trkpt lat="37.79927102040755" lon="15.043994565297789"><ele>1765.0</ele><time>2026-04-19T07:18:35.977Z</time></trkpt><trkpt lat="37.799280052565564" lon="15.043902507484454"><ele>1765.0000000000002</ele><time>2026-04-19T07:18:36.977Z</time></trkpt><trkpt lat="37.79930445870107" lon="15.043815669208978"><ele>1765.0</ele><time>2026-04-19T07:18:37.977Z</time></trkpt><trkpt lat="37.799250629457774" lon="15.043676746074077"><ele>1766.25</ele><time>2026-04-19T07:18:38.977Z</time></trkpt><trkpt lat="37.799066820222144" lon="15.043580020004246"><ele>1767.5</ele><time>2026-04-19T07:18:39.977Z</time></trkpt><trkpt lat="37.79893560884543" lon="15.043558595797913"><ele>1768.75</ele><time>2026-04-19T07:18:40.977Z</time></trkpt><trkpt lat="37.798834013387484" lon="15.043553467650279"><ele>1770.0</ele><time>2026-04-19T07:18:41.977Z</time></trkpt><trkpt lat="37.79875226585463" lon="15.043533933050648"><ele>1770.0</ele><time>2026-04-19T07:18:42.977Z</time></trkpt><trkpt lat="37.79868338399126" lon="15.043484772572922"><ele>1770.0</ele><time>2026-04-19T07:18:43.977Z</time></trkpt><trkpt lat="37.79862824092772" lon="15.043424554922385"><ele>1770.0</ele><time>2026-04-19T07:18:44.977Z</time></trkpt><trkpt lat="37.79856339275607" lon="15.043332835636521"><ele>1770.0</ele><time>2026-04-19T07:18:45.976Z</time></trkpt><trkpt lat="37.798503145547976" lon="15.043239655074055"><ele>1770.0</ele><time>2026-04-19T07:18:46.976Z</time></trkpt><trkpt lat="37.79844226694726" lon="15.043173796992818"><ele>1770.0</ele><time>2026-04-19T07:18:47.976Z</time></trkpt><trkpt lat="37.79841065090398" lon="15.043091222019694"><ele>1771.4</ele><time>2026-04-19T07:18:48.976Z</time></trkpt><trkpt lat="37.79834045825236" lon="15.042991740324242"><ele>1772.8</ele><time>2026-04-19T07:18:50.976Z</time></trkpt><trkpt lat="37.798270645009566" lon="15.042874941897564"><ele>1774.1999999999998</ele><time>2026-04-19T07:18:52.976Z</time></trkpt><trkpt lat="37.79821730764516" lon="15.042800183312146"><ele>1775.6</ele><time>2026-04-19T07:18:53.976Z</time></trkpt><trkpt lat="37.79816391269259" lon="15.042686516207313"><ele>1777.0</ele><time>2026-04-19T07:18:54.976Z</time></trkpt><trkpt lat="37.79809748403405" lon="15.042579670118194"><ele>1777.0</ele><time>2026-04-19T07:18:55.976Z</time></trkpt><trkpt lat="37.798018961886264" lon="15.042470089217357"><ele>1776.9999999999998</ele><time>2026-04-19T07:18:56.976Z</time></trkpt><trkpt lat="37.79794505843987" lon="15.042360999780099"><ele>1776.9999999999998</ele><time>2026-04-19T07:18:57.976Z</time></trkpt><trkpt lat="37.797883535481596" lon="15.042246251695746"><ele>1777.0</ele><time>2026-04-19T07:18:58.976Z</time></trkpt><trkpt lat="37.79782542148975" lon="15.042138910612852"><ele>1777.0</ele><time>2026-04-19T07:18:59.976Z</time></trkpt><trkpt lat="37.79777005323225" lon="15.042027848842453"><ele>1777.0</ele><time>2026-04-19T07:19:00.976Z</time></trkpt><trkpt lat="37.797717304512574" lon="15.041925124968428"><ele>1776.9999999999998</ele><time>2026-04-19T07:19:01.976Z</time></trkpt><trkpt lat="37.79766955623347" lon="15.041826189671271"><ele>1776.9999999999998</ele><time>2026-04-19T07:19:02.976Z</time></trkpt><trkpt lat="37.79763120720868" lon="15.041724304571892"><ele>1777.0</ele><time>2026-04-19T07:19:03.976Z</time></trkpt><trkpt lat="37.79759294354195" lon="15.04161850446889"><ele>1777.0</ele><time>2026-04-19T07:19:04.976Z</time></trkpt><trkpt lat="37.7975559984678" lon="15.04151625161694"><ele>1777.6666666666667</ele><time>2026-04-19T07:19:05.976Z</time></trkpt><trkpt lat="37.797518645987374" lon="15.041416413886074"><ele>1778.3333333333335</ele><time>2026-04-19T07:19:06.976Z</time></trkpt><trkpt lat="37.797493646875736" lon="15.041312531858873"><ele>1779.0</ele><time>2026-04-19T07:19:07.976Z</time></trkpt><trkpt lat="37.797463470008935" lon="15.041214179439077"><ele>1779.6666666666665</ele><time>2026-04-19T07:19:08.976Z</time></trkpt><trkpt lat="37.79743189348589" lon="15.041107405492411"><ele>1780.3333333333333</ele><time>2026-04-19T07:19:09.976Z</time></trkpt><trkpt lat="37.797404810391726" lon="15.041002678622394"><ele>1781.0</ele><time>2026-04-19T07:19:10.976Z</time></trkpt><trkpt lat="37.797381907384235" lon="15.04089615587641"><ele>1782.4</ele><time>2026-04-19T07:19:11.976Z</time></trkpt><trkpt lat="37.797363363855155" lon="15.040785049741746"><ele>1783.8</ele><time>2026-04-19T07:19:12.976Z</time></trkpt><trkpt lat="37.797349270248795" lon="15.040669905564283"><ele>1785.2000000000003</ele><time>2026-04-19T07:19:13.976Z</time></trkpt><trkpt lat="37.79734035605204" lon="15.04055243998487"><ele>1786.6000000000001</ele><time>2026-04-19T07:19:14.976Z</time></trkpt><trkpt lat="37.79733432695925" lon="15.040437551633639"><ele>1788.0</ele><time>2026-04-19T07:19:15.976Z</time></trkpt><trkpt lat="37.79733693981337" lon="15.04031960255411"><ele>1788.0</ele><time>2026-04-19T07:19:16.976Z</time></trkpt><trkpt lat="37.797344559951235" lon="15.04019947396506"><ele>1788.0000000000002</ele><time>2026-04-19T07:19:17.976Z</time></trkpt><trkpt lat="37.79736489005469" lon="15.04008867157196"><ele>1788.0000000000002</ele><time>2026-04-19T07:19:18.976Z</time></trkpt><trkpt lat="37.797382960701675" lon="15.03996915708425"><ele>1788.0</ele><time>2026-04-19T07:19:19.976Z</time></trkpt><trkpt lat="37.79739957811875" lon="15.039840680183831"><ele>1788.0</ele><time>2026-04-19T07:19:20.976Z</time></trkpt><trkpt lat="37.79741984077529" lon="15.039724390397833"><ele>1789.0</ele><time>2026-04-19T07:19:21.976Z</time></trkpt><trkpt lat="37.79743743248373" lon="15.039612209831352"><ele>1790.0</ele><time>2026-04-19T07:19:22.975Z</time></trkpt><trkpt lat="37.79745818924331" lon="15.039504970771134"><ele>1791.0</ele><time>2026-04-19T07:19:23.975Z</time></trkpt><trkpt lat="37.79748041834393" lon="15.039398573927516"><ele>1792.0</ele><time>2026-04-19T07:19:24.975Z</time></trkpt><trkpt lat="37.79750158844283" lon="15.039296072672645"><ele>1793.0</ele><time>2026-04-19T07:19:25.975Z</time></trkpt><trkpt lat="37.797521654269175" lon="15.039193086020305"><ele>1794.0</ele><time>2026-04-19T07:19:26.975Z</time></trkpt><trkpt lat="37.797537724064306" lon="15.039088998179881"><ele>1795.5</ele><time>2026-04-19T07:19:27.975Z</time></trkpt><trkpt lat="37.79755733655492" lon="15.03898956138314"><ele>1797.0</ele><time>2026-04-19T07:19:28.975Z</time></trkpt><trkpt lat="37.79757915091693" lon="15.038884090798334"><ele>1798.5</ele><time>2026-04-19T07:19:29.977Z</time></trkpt><trkpt lat="37.797607086647844" lon="15.038775833877944"><ele>1800.0</ele><time>2026-04-19T07:19:30.978Z</time></trkpt><trkpt lat="37.79762577986311" lon="15.038666121164377"><ele>1801.5</ele><time>2026-04-19T07:19:31.978Z</time></trkpt><trkpt lat="37.797633204412975" lon="15.038548326726334"><ele>1803.0</ele><time>2026-04-19T07:19:32.977Z</time></trkpt><trkpt lat="37.797647746016146" lon="15.038425080769219"><ele>1803.2</ele><time>2026-04-19T07:19:33.977Z</time></trkpt><trkpt lat="37.7976435810884" lon="15.038289017807495"><ele>1803.4</ele><time>2026-04-19T07:19:34.977Z</time></trkpt><trkpt lat="37.797636082256396" lon="15.038128903310538"><ele>1803.6000000000001</ele><time>2026-04-19T07:19:35.978Z</time></trkpt><trkpt lat="37.79760388412118" lon="15.037990997821812"><ele>1803.8000000000002</ele><time>2026-04-19T07:19:36.978Z</time></trkpt><trkpt lat="37.79756150423231" lon="15.037886654287002"><ele>1804.0</ele><time>2026-04-19T07:19:37.978Z</time></trkpt><trkpt lat="37.79762675085797" lon="15.037693074761851"><ele>1804.0</ele><time>2026-04-19T07:19:39.977Z</time></trkpt><trkpt lat="37.79766831332151" lon="15.037591847402895"><ele>1804.0</ele><time>2026-04-19T07:19:40.977Z</time></trkpt><trkpt lat="37.797784818107324" lon="15.037559904579878"><ele>1804.0</ele><time>2026-04-19T07:19:41.978Z</time></trkpt><trkpt lat="37.79788154675514" lon="15.037503125126948"><ele>1804.0</ele><time>2026-04-19T07:19:42.978Z</time></trkpt><trkpt lat="37.79796438237213" lon="15.037403316988028"><ele>1804.0</ele><time>2026-04-19T07:19:43.978Z</time></trkpt><trkpt lat="37.7980362198783" lon="15.037321406555092"><ele>1804.0000000000002</ele><time>2026-04-19T07:19:44.978Z</time></trkpt><trkpt lat="37.79811925865964" lon="15.037297116775173"><ele>1804.0</ele><time>2026-04-19T07:19:45.978Z</time></trkpt><trkpt lat="37.798175241593675" lon="15.037217970809872"><ele>1804.0</ele><time>2026-04-19T07:19:46.978Z</time></trkpt><trkpt lat="37.79822801407615" lon="15.037133934593884"><ele>1804.0</ele><time>2026-04-19T07:19:47.978Z</time></trkpt><trkpt lat="37.798277634864" lon="15.0370805530567"><ele>1804.0000000000002</ele><time>2026-04-19T07:19:48.978Z</time></trkpt><trkpt lat="37.798349376117855" lon="15.037006002554332"><ele>1804.0</ele><time>2026-04-19T07:19:50.978Z</time></trkpt><trkpt lat="37.79839583047689" lon="15.036922915199472"><ele>1804.0000000000002</ele><time>2026-04-19T07:19:52.978Z</time></trkpt><trkpt lat="37.7982797084882" lon="15.037050786916756"><ele>1804.0</ele><time>2026-04-19T07:20:02.977Z</time></trkpt><trkpt lat="37.79822248443857" lon="15.037016794515361"><ele>1804.0</ele><time>2026-04-19T07:27:24.976Z</time></trkpt><trkpt lat="37.79828699547629" lon="15.03703330166685"><ele>1804.0</ele><time>2026-04-19T07:48:01.976Z</time></trkpt><trkpt lat="37.79827820201253" lon="15.037115668719082"><ele>1804.0000000000002</ele><time>2026-04-19T07:48:03.976Z</time></trkpt><trkpt lat="37.79825967969821" lon="15.037233335645727"><ele>1804.0</ele><time>2026-04-19T07:48:06.976Z</time></trkpt><trkpt lat="37.798206393435564" lon="15.037305506761887"><ele>1804.0000000000002</ele><time>2026-04-19T07:48:09.976Z</time></trkpt><trkpt lat="37.79812768089119" lon="15.03734975336129"><ele>1804.0</ele><time>2026-04-19T07:48:13.976Z</time></trkpt><trkpt lat="37.79806394016298" lon="15.037415573161406"><ele>1804.0</ele><time>2026-04-19T07:48:16.976Z</time></trkpt><trkpt lat="37.79800855177229" lon="15.037475311975001"><ele>1804.0</ele><time>2026-04-19T07:48:19.976Z</time></trkpt><trkpt lat="37.79795873730676" lon="15.037531809478553"><ele>1804.0000000000002</ele><time>2026-04-19T07:48:23.976Z</time></trkpt><trkpt lat="37.79788073610452" lon="15.037564816917488"><ele>1804.0</ele><time>2026-04-19T07:48:28.976Z</time></trkpt><trkpt lat="37.797805774646775" lon="15.037591087258587"><ele>1804.0000000000002</ele><time>2026-04-19T07:48:31.975Z</time></trkpt><trkpt lat="37.79770953793957" lon="15.037610956713868"><ele>1804.0</ele><time>2026-04-19T07:48:34.975Z</time></trkpt><trkpt lat="37.79764655377061" lon="15.037630979297438"><ele>1804.0</ele><time>2026-04-19T07:48:36.975Z</time></trkpt><trkpt lat="37.79758679344061" lon="15.03768918800688"><ele>1804.0</ele><time>2026-04-19T07:48:39.975Z</time></trkpt><trkpt lat="37.7975524881046" lon="15.037781518783726"><ele>1804.0000000000002</ele><time>2026-04-19T07:48:42.975Z</time></trkpt><trkpt lat="37.79753735762095" lon="15.037863860284382"><ele>1804.0</ele><time>2026-04-19T07:48:44.975Z</time></trkpt><trkpt lat="37.7975615777762" lon="15.037946573594654"><ele>1804.0</ele><time>2026-04-19T07:48:46.974Z</time></trkpt><trkpt lat="37.797585980890396" lon="15.038022945287064"><ele>1804.0</ele><time>2026-04-19T07:48:48.972Z</time></trkpt><trkpt lat="37.79761208129765" lon="15.03810726774696"><ele>1804.0</ele><time>2026-04-19T07:48:50.97Z</time></trkpt><trkpt lat="37.79762806587201" lon="15.038186891372728"><ele>1804.0</ele><time>2026-04-19T07:48:52.971Z</time></trkpt><trkpt lat="37.79763351007091" lon="15.038301358765107"><ele>1804.0</ele><time>2026-04-19T07:48:55.969Z</time></trkpt><trkpt lat="37.79762749103238" lon="15.038383293708716"><ele>1804.0</ele><time>2026-04-19T07:48:57.968Z</time></trkpt><trkpt lat="37.797622376839506" lon="15.038476680470232"><ele>1804.0</ele><time>2026-04-19T07:48:59.967Z</time></trkpt><trkpt lat="37.79761400426938" lon="15.038583055760157"><ele>1803.8333333333335</ele><time>2026-04-19T07:49:01.966Z</time></trkpt><trkpt lat="37.79760011886445" lon="15.03866459410148"><ele>1803.6666666666667</ele><time>2026-04-19T07:49:03.965Z</time></trkpt><trkpt lat="37.797586281070686" lon="15.038782101645555"><ele>1803.5</ele><time>2026-04-19T07:49:06.964Z</time></trkpt><trkpt lat="37.797573605663146" lon="15.038889907348187"><ele>1803.3333333333335</ele><time>2026-04-19T07:49:08.963Z</time></trkpt><trkpt lat="37.79755394958853" lon="15.039012068548226"><ele>1803.1666666666667</ele><time>2026-04-19T07:49:10.963Z</time></trkpt><trkpt lat="37.79753427930349" lon="15.039124308167429"><ele>1803.0</ele><time>2026-04-19T07:49:12.962Z</time></trkpt><trkpt lat="37.79751284795642" lon="15.039220703837856"><ele>1801.5</ele><time>2026-04-19T07:49:14.962Z</time></trkpt><trkpt lat="37.797489879664546" lon="15.039312163775799"><ele>1800.0</ele><time>2026-04-19T07:49:16.961Z</time></trkpt><trkpt lat="37.797470609255136" lon="15.039402051654172"><ele>1798.5</ele><time>2026-04-19T07:49:18.961Z</time></trkpt><trkpt lat="37.79744963922141" lon="15.039506771575143"><ele>1797.0</ele><time>2026-04-19T07:49:20.961Z</time></trkpt><trkpt lat="37.79742736957852" lon="15.039623569857007"><ele>1795.5</ele><time>2026-04-19T07:49:22.96Z</time></trkpt><trkpt lat="37.79740338923005" lon="15.03973621463436"><ele>1794.0</ele><time>2026-04-19T07:49:24.96Z</time></trkpt><trkpt lat="37.79738312502384" lon="15.039853557082388"><ele>1792.8000000000002</ele><time>2026-04-19T07:49:26.96Z</time></trkpt><trkpt lat="37.797365497846776" lon="15.039974738439373"><ele>1791.6000000000001</ele><time>2026-04-19T07:49:28.96Z</time></trkpt><trkpt lat="37.79735400873417" lon="15.040088115454823"><ele>1790.4</ele><time>2026-04-19T07:49:30.959Z</time></trkpt><trkpt lat="37.79733757786895" lon="15.040197768807968"><ele>1789.2</ele><time>2026-04-19T07:49:32.959Z</time></trkpt><trkpt lat="37.797330901859446" lon="15.040330127899134"><ele>1788.0</ele><time>2026-04-19T07:49:34.959Z</time></trkpt><trkpt lat="37.79732641607416" lon="15.04046672511351"><ele>1788.0</ele><time>2026-04-19T07:49:36.959Z</time></trkpt><trkpt lat="37.79732252997832" lon="15.04059925764971"><ele>1788.0000000000002</ele><time>2026-04-19T07:49:38.959Z</time></trkpt><trkpt lat="37.7973304582708" lon="15.04072136471243"><ele>1788.0000000000002</ele><time>2026-04-19T07:49:40.959Z</time></trkpt><trkpt lat="37.79735318955526" lon="15.040841238426427"><ele>1788.0</ele><time>2026-04-19T07:49:42.958Z</time></trkpt><trkpt lat="37.79737247469737" lon="15.04097166694775"><ele>1788.0</ele><time>2026-04-19T07:49:44.958Z</time></trkpt><trkpt lat="37.79740353659322" lon="15.0410948315586"><ele>1786.6000000000001</ele><time>2026-04-19T07:49:46.958Z</time></trkpt><trkpt lat="37.79744172978144" lon="15.04123381009603"><ele>1785.2000000000003</ele><time>2026-04-19T07:49:48.958Z</time></trkpt><trkpt lat="37.797467330396394" lon="15.041349716126167"><ele>1783.8</ele><time>2026-04-19T07:49:50.958Z</time></trkpt><trkpt lat="37.79750092744142" lon="15.041447800287443"><ele>1782.4</ele><time>2026-04-19T07:49:52.958Z</time></trkpt><trkpt lat="37.797546612805256" lon="15.041547776421927"><ele>1781.0</ele><time>2026-04-19T07:49:54.958Z</time></trkpt><trkpt lat="37.79757199186176" lon="15.04163319932714"><ele>1781.4999999999998</ele><time>2026-04-19T07:49:56.958Z</time></trkpt><trkpt lat="37.79760103217157" lon="15.041736414510464"><ele>1782.0</ele><time>2026-04-19T07:49:59.958Z</time></trkpt><trkpt lat="37.797631492621825" lon="15.041825458644103"><ele>1782.5</ele><time>2026-04-19T07:50:02.957Z</time></trkpt><trkpt lat="37.79768116579098" lon="15.0419154790306"><ele>1783.0</ele><time>2026-04-19T07:50:05.957Z</time></trkpt><trkpt lat="37.797699026221906" lon="15.041994653145455"><ele>1783.4999999999998</ele><time>2026-04-19T07:51:06.958Z</time></trkpt><trkpt lat="37.7977491888869" lon="15.042084342070993"><ele>1784.0</ele><time>2026-04-19T07:51:09.959Z</time></trkpt><trkpt lat="37.797791647542134" lon="15.042160635523354"><ele>1783.9999999999998</ele><time>2026-04-19T07:51:11.958Z</time></trkpt><trkpt lat="37.797830801031125" lon="15.04222333328414"><ele>1784.0</ele><time>2026-04-19T07:51:12.958Z</time></trkpt><trkpt lat="37.79790652536345" lon="15.042347921443689"><ele>1784.0</ele><time>2026-04-19T07:51:14.958Z</time></trkpt><trkpt lat="37.797949858442095" lon="15.042426679993135"><ele>1784.0</ele><time>2026-04-19T07:51:15.958Z</time></trkpt><trkpt lat="37.79800206743103" lon="15.042505963035788"><ele>1783.9999999999998</ele><time>2026-04-19T07:51:16.958Z</time></trkpt><trkpt lat="37.79805429092752" lon="15.042587207303512"><ele>1784.0</ele><time>2026-04-19T07:51:17.958Z</time></trkpt><trkpt lat="37.798110044917884" lon="15.04267597187249"><ele>1782.8333333333333</ele><time>2026-04-19T07:51:18.958Z</time></trkpt><trkpt lat="37.79816396088248" lon="15.042762956935187"><ele>1781.6666666666665</ele><time>2026-04-19T07:51:19.958Z</time></trkpt><trkpt lat="37.7982178288403" lon="15.04285249353181"><ele>1780.5</ele><time>2026-04-19T07:51:20.958Z</time></trkpt><trkpt lat="37.79827675233107" lon="15.042944338690106"><ele>1779.3333333333335</ele><time>2026-04-19T07:51:21.958Z</time></trkpt><trkpt lat="37.79832822869023" lon="15.043034124186903"><ele>1778.1666666666667</ele><time>2026-04-19T07:51:22.958Z</time></trkpt><trkpt lat="37.79837998618968" lon="15.043129593024467"><ele>1777.0</ele><time>2026-04-19T07:51:23.958Z</time></trkpt><trkpt lat="37.798433481083784" lon="15.043222276511914"><ele>1775.8</ele><time>2026-04-19T07:51:24.958Z</time></trkpt><trkpt lat="37.79849417041178" lon="15.043312864884756"><ele>1774.6</ele><time>2026-04-19T07:51:25.958Z</time></trkpt><trkpt lat="37.798558916778056" lon="15.04340214728652"><ele>1773.3999999999999</ele><time>2026-04-19T07:51:26.958Z</time></trkpt><trkpt lat="37.7986254747806" lon="15.043489500056486"><ele>1772.1999999999998</ele><time>2026-04-19T07:51:27.958Z</time></trkpt><trkpt lat="37.79869204412506" lon="15.04356196522508"><ele>1771.0</ele><time>2026-04-19T07:51:28.958Z</time></trkpt><trkpt lat="37.798768445516146" lon="15.043616041395097"><ele>1770.8</ele><time>2026-04-19T07:51:29.958Z</time></trkpt><trkpt lat="37.79886238025303" lon="15.043648328797019"><ele>1770.6</ele><time>2026-04-19T07:51:30.958Z</time></trkpt><trkpt lat="37.798958782316916" lon="15.043623170331967"><ele>1770.4</ele><time>2026-04-19T07:51:31.958Z</time></trkpt><trkpt lat="37.79904703201689" lon="15.043639965770888"><ele>1770.2</ele><time>2026-04-19T07:51:32.958Z</time></trkpt><trkpt lat="37.79913881614625" lon="15.043674945496186"><ele>1770.0</ele><time>2026-04-19T07:51:33.958Z</time></trkpt><trkpt lat="37.79922010475302" lon="15.043689615380256"><ele>1770.0</ele><time>2026-04-19T07:51:34.958Z</time></trkpt><trkpt lat="37.799282456391126" lon="15.04375753267"><ele>1770.0</ele><time>2026-04-19T07:51:35.958Z</time></trkpt><trkpt lat="37.79933222017825" lon="15.043829658031978"><ele>1770.0</ele><time>2026-04-19T07:51:36.957Z</time></trkpt><trkpt lat="37.799307359050765" lon="15.04396001958475"><ele>1770.0</ele><time>2026-04-19T07:51:37.957Z</time></trkpt><trkpt lat="37.79921685846335" lon="15.044053638118944"><ele>1770.0</ele><time>2026-04-19T07:51:38.957Z</time></trkpt><trkpt lat="37.79912662941446" lon="15.044127057242815"><ele>1769.0</ele><time>2026-04-19T07:51:39.957Z</time></trkpt><trkpt lat="37.79900538934331" lon="15.044203821404103"><ele>1768.0</ele><time>2026-04-19T07:51:40.957Z</time></trkpt><trkpt lat="37.798908327484455" lon="15.044297422418738"><ele>1767.0</ele><time>2026-04-19T07:51:41.957Z</time></trkpt><trkpt lat="37.79883710656527" lon="15.04437401846339"><ele>1766.0</ele><time>2026-04-19T07:51:42.957Z</time></trkpt><trkpt lat="37.79877764039417" lon="15.044460865493251"><ele>1765.0</ele><time>2026-04-19T07:51:43.957Z</time></trkpt><trkpt lat="37.79873604883757" lon="15.044533233346378"><ele>1765.0</ele><time>2026-04-19T07:51:44.957Z</time></trkpt><trkpt lat="37.798716164789525" lon="15.044637783598898"><ele>1765.0</ele><time>2026-04-19T07:51:45.957Z</time></trkpt><trkpt lat="37.79870466663241" lon="15.04475886404568"><ele>1765.0</ele><time>2026-04-19T07:51:46.957Z</time></trkpt><trkpt lat="37.79873003864464" lon="15.044882913595844"><ele>1765.0</ele><time>2026-04-19T07:51:47.957Z</time></trkpt><trkpt lat="37.79872992244503" lon="15.04502389076735"><ele>1765.0</ele><time>2026-04-19T07:51:48.957Z</time></trkpt><trkpt lat="37.798764060176715" lon="15.045184264833766"><ele>1763.6</ele><time>2026-04-19T07:51:49.957Z</time></trkpt><trkpt lat="37.798814567208936" lon="15.0453252610231"><ele>1762.2</ele><time>2026-04-19T07:51:50.957Z</time></trkpt><trkpt lat="37.79884411998356" lon="15.045447064237486"><ele>1760.8000000000002</ele><time>2026-04-19T07:51:51.957Z</time></trkpt><trkpt lat="37.79889468707814" lon="15.045527084134847"><ele>1759.4</ele><time>2026-04-19T07:51:52.957Z</time></trkpt><trkpt lat="37.79895843054507" lon="15.045584909658281"><ele>1758.0</ele><time>2026-04-19T07:51:53.957Z</time></trkpt><trkpt lat="37.79903122929167" lon="15.045620796841087"><ele>1758.0</ele><time>2026-04-19T07:51:54.957Z</time></trkpt><trkpt lat="37.79908988603497" lon="15.045654519653647"><ele>1758.0000000000002</ele><time>2026-04-19T07:51:55.957Z</time></trkpt><trkpt lat="37.799130562640784" lon="15.045758660209035"><ele>1758.0000000000002</ele><time>2026-04-19T07:51:57.957Z</time></trkpt><trkpt lat="37.799071069769106" lon="15.045905007331216"><ele>1758.0</ele><time>2026-04-19T07:51:59.957Z</time></trkpt><trkpt lat="37.7990347318024" lon="15.045999039757982"><ele>1758.0</ele><time>2026-04-19T07:52:00.957Z</time></trkpt><trkpt lat="37.79899270059987" lon="15.046089203275129"><ele>1755.4</ele><time>2026-04-19T07:52:01.957Z</time></trkpt><trkpt lat="37.79894093703706" lon="15.046186188711843"><ele>1752.8000000000002</ele><time>2026-04-19T07:52:02.957Z</time></trkpt><trkpt lat="37.79887184366235" lon="15.046256142470872"><ele>1750.2</ele><time>2026-04-19T07:52:03.957Z</time></trkpt><trkpt lat="37.79877562508954" lon="15.04632077642175"><ele>1747.6</ele><time>2026-04-19T07:52:04.957Z</time></trkpt><trkpt lat="37.79870927960935" lon="15.046403539923999"><ele>1745.0</ele><time>2026-04-19T07:52:05.957Z</time></trkpt><trkpt lat="37.79866620433704" lon="15.046502467333339"><ele>1744.9999999999998</ele><time>2026-04-19T07:52:06.956Z</time></trkpt><trkpt lat="37.79862691468238" lon="15.046603375610406"><ele>1745.0</ele><time>2026-04-19T07:52:07.956Z</time></trkpt><trkpt lat="37.79862969756112" lon="15.046727392605836"><ele>1745.0</ele><time>2026-04-19T07:52:08.956Z</time></trkpt><trkpt lat="37.79864472524133" lon="15.046841416539449"><ele>1745.0</ele><time>2026-04-19T07:52:09.956Z</time></trkpt><trkpt lat="37.798666504352916" lon="15.046942445057608"><ele>1744.9999999999998</ele><time>2026-04-19T07:52:10.956Z</time></trkpt><trkpt lat="37.79872760269185" lon="15.047013718029424"><ele>1745.0</ele><time>2026-04-19T07:52:11.956Z</time></trkpt><trkpt lat="37.79878195703219" lon="15.047074830651317"><ele>1744.2</ele><time>2026-04-19T07:52:12.956Z</time></trkpt><trkpt lat="37.79885660691852" lon="15.047072258997517"><ele>1743.4</ele><time>2026-04-19T07:52:13.956Z</time></trkpt><trkpt lat="37.79894860310283" lon="15.047037143648197"><ele>1742.6</ele><time>2026-04-19T07:52:14.956Z</time></trkpt><trkpt lat="37.799074287220556" lon="15.047074374578305"><ele>1741.8</ele><time>2026-04-19T07:52:15.956Z</time></trkpt><trkpt lat="37.799149505336224" lon="15.047138532569134"><ele>1741.0</ele><time>2026-04-19T07:52:16.956Z</time></trkpt><trkpt lat="37.799225050852975" lon="15.047254784625885"><ele>1738.0</ele><time>2026-04-19T07:52:18.956Z</time></trkpt><trkpt lat="37.79909620353393" lon="15.047470928280545"><ele>1735.0</ele><time>2026-04-19T07:52:19.956Z</time></trkpt><trkpt lat="37.799159960649924" lon="15.047598544015589"><ele>1732.0</ele><time>2026-04-19T07:52:21.956Z</time></trkpt><trkpt lat="37.799211317728236" lon="15.047728414104537"><ele>1729.0</ele><time>2026-04-19T07:52:23.956Z</time></trkpt><trkpt lat="37.799295992803536" lon="15.047794400473537"><ele>1731.0</ele><time>2026-04-19T07:52:24.956Z</time></trkpt><trkpt lat="37.799371631232226" lon="15.0478607622138"><ele>1733.0</ele><time>2026-04-19T07:52:25.956Z</time></trkpt><trkpt lat="37.79943565254683" lon="15.047911985609046"><ele>1735.0</ele><time>2026-04-19T07:52:26.956Z</time></trkpt><trkpt lat="37.79950266677061" lon="15.0479662972581"><ele>1737.0</ele><time>2026-04-19T07:52:27.956Z</time></trkpt><trkpt lat="37.79958683891701" lon="15.04803365418402"><ele>1739.0</ele><time>2026-04-19T07:52:28.956Z</time></trkpt><trkpt lat="37.799667542366045" lon="15.048116483002506"><ele>1739.0</ele><time>2026-04-19T07:52:29.956Z</time></trkpt><trkpt lat="37.79976310574143" lon="15.048138824622885"><ele>1739.0</ele><time>2026-04-19T07:52:30.956Z</time></trkpt><trkpt lat="37.79983720759571" lon="15.04817841804113"><ele>1739.0</ele><time>2026-04-19T07:52:31.956Z</time></trkpt><trkpt lat="37.799933295157274" lon="15.048261730131726"><ele>1739.0</ele><time>2026-04-19T07:52:33.956Z</time></trkpt><trkpt lat="37.799991476546914" lon="15.048355762739373"><ele>1739.0</ele><time>2026-04-19T07:52:35.956Z</time></trkpt><trkpt lat="37.79996689887962" lon="15.048460617389276"><ele>1737.2</ele><time>2026-04-19T07:52:36.955Z</time></trkpt><trkpt lat="37.79992093190663" lon="15.04856918673855"><ele>1735.4</ele><time>2026-04-19T07:52:37.955Z</time></trkpt><trkpt lat="37.799875002944994" lon="15.048666004625533"><ele>1733.6</ele><time>2026-04-19T07:52:38.955Z</time></trkpt><trkpt lat="37.79981163288374" lon="15.048753043544181"><ele>1731.8</ele><time>2026-04-19T07:52:39.955Z</time></trkpt><trkpt lat="37.79972560762402" lon="15.04876335588474"><ele>1730.0</ele><time>2026-04-19T07:52:40.955Z</time></trkpt><trkpt lat="37.79964221414548" lon="15.048804483484997"><ele>1730.0</ele><time>2026-04-19T07:52:41.955Z</time></trkpt><trkpt lat="37.79954949057626" lon="15.048876609566639"><ele>1730.0</ele><time>2026-04-19T07:52:42.955Z</time></trkpt><trkpt lat="37.79947612969456" lon="15.048951299365728"><ele>1730.0</ele><time>2026-04-19T07:52:43.955Z</time></trkpt><trkpt lat="37.799420195816055" lon="15.049040509217377"><ele>1730.0</ele><time>2026-04-19T07:52:44.955Z</time></trkpt><trkpt lat="37.79943737750608" lon="15.049183297918914"><ele>1730.0</ele><time>2026-04-19T07:52:45.955Z</time></trkpt><trkpt lat="37.79944581057808" lon="15.049312239690824"><ele>1728.4</ele><time>2026-04-19T07:52:46.955Z</time></trkpt><trkpt lat="37.79949211787586" lon="15.0494145744006"><ele>1726.8</ele><time>2026-04-19T07:52:47.955Z</time></trkpt><trkpt lat="37.799516173398686" lon="15.049543174333255"><ele>1725.1999999999998</ele><time>2026-04-19T07:52:48.955Z</time></trkpt><trkpt lat="37.79951224918255" lon="15.04965793128576"><ele>1723.6</ele><time>2026-04-19T07:52:49.955Z</time></trkpt><trkpt lat="37.799472684504636" lon="15.049743286519796"><ele>1722.0</ele><time>2026-04-19T07:52:50.955Z</time></trkpt><trkpt lat="37.79941396218571" lon="15.049833030293199"><ele>1722.0</ele><time>2026-04-19T07:52:51.955Z</time></trkpt><trkpt lat="37.799363336273956" lon="15.04992890266179"><ele>1722.0</ele><time>2026-04-19T07:52:52.955Z</time></trkpt><trkpt lat="37.799324622412584" lon="15.05002279122722"><ele>1722.0</ele><time>2026-04-19T07:52:53.955Z</time></trkpt><trkpt lat="37.799374219411895" lon="15.050126256862875"><ele>1722.0</ele><time>2026-04-19T07:52:54.955Z</time></trkpt><trkpt lat="37.79941260520416" lon="15.050215600869015"><ele>1722.0</ele><time>2026-04-19T07:52:55.955Z</time></trkpt><trkpt lat="37.799442215468495" lon="15.050333327678201"><ele>1722.0</ele><time>2026-04-19T07:52:56.955Z</time></trkpt><trkpt lat="37.79947648393201" lon="15.05049516997265"><ele>1719.5</ele><time>2026-04-19T07:52:57.955Z</time></trkpt><trkpt lat="37.79948730806896" lon="15.050670070596976"><ele>1717.0</ele><time>2026-04-19T07:52:58.955Z</time></trkpt><trkpt lat="37.79948141185111" lon="15.050839053201074"><ele>1714.5</ele><time>2026-04-19T07:52:59.955Z</time></trkpt><trkpt lat="37.79946957328888" lon="15.050978979105796"><ele>1712.0</ele><time>2026-04-19T07:53:00.955Z</time></trkpt><trkpt lat="37.79946957327879" lon="15.051087821732672"><ele>1708.5</ele><time>2026-04-19T07:53:01.955Z</time></trkpt><trkpt lat="37.79952369167107" lon="15.051256123518193"><ele>1705.0</ele><time>2026-04-19T07:53:03.957Z</time></trkpt><trkpt lat="37.79961238770868" lon="15.051313125305075"><ele>1701.5</ele><time>2026-04-19T07:53:04.957Z</time></trkpt><trkpt lat="37.79965911307223" lon="15.051400648250223"><ele>1698.0</ele><time>2026-04-19T07:53:05.957Z</time></trkpt><trkpt lat="37.799684199943286" lon="15.051568054434437"><ele>1694.6000000000001</ele><time>2026-04-19T07:53:07.957Z</time></trkpt><trkpt lat="37.79965563213976" lon="15.051693509780074"><ele>1691.2</ele><time>2026-04-19T07:53:08.957Z</time></trkpt><trkpt lat="37.79955922296155" lon="15.05176621311927"><ele>1687.8</ele><time>2026-04-19T07:53:09.958Z</time></trkpt><trkpt lat="37.79947980856822" lon="15.051816873677373"><ele>1684.4</ele><time>2026-04-19T07:53:10.957Z</time></trkpt><trkpt lat="37.79940135429138" lon="15.051852435584154"><ele>1681.0</ele><time>2026-04-19T07:53:11.957Z</time></trkpt><trkpt lat="37.79931200535135" lon="15.051901701707578"><ele>1680.25</ele><time>2026-04-19T07:53:12.958Z</time></trkpt><trkpt lat="37.79916259582287" lon="15.051954653872507"><ele>1679.5</ele><time>2026-04-19T07:53:13.958Z</time></trkpt><trkpt lat="37.799048526041126" lon="15.052000667736431"><ele>1678.75</ele><time>2026-04-19T07:53:14.958Z</time></trkpt><trkpt lat="37.79892053345104" lon="15.052050936868156"><ele>1678.0</ele><time>2026-04-19T07:53:15.958Z</time></trkpt><trkpt lat="37.79879797708049" lon="15.052117967574397"><ele>1678.0</ele><time>2026-04-19T07:53:16.958Z</time></trkpt><trkpt lat="37.79864916160652" lon="15.05213865252345"><ele>1678.0</ele><time>2026-04-19T07:53:17.958Z</time></trkpt><trkpt lat="37.79851475881331" lon="15.05218049849716"><ele>1678.0</ele><time>2026-04-19T07:53:18.958Z</time></trkpt><trkpt lat="37.79838826699142" lon="15.052255918995153"><ele>1678.0</ele><time>2026-04-19T07:53:19.958Z</time></trkpt><trkpt lat="37.798284552585855" lon="15.05233587811756"><ele>1676.75</ele><time>2026-04-19T07:53:20.958Z</time></trkpt><trkpt lat="37.79818421351858" lon="15.052425230688605"><ele>1675.5</ele><time>2026-04-19T07:53:21.958Z</time></trkpt><trkpt lat="37.79807329062724" lon="15.052506213952649"><ele>1674.25</ele><time>2026-04-19T07:53:22.958Z</time></trkpt><trkpt lat="37.79796238774172" lon="15.052532711737639"><ele>1673.0</ele><time>2026-04-19T07:53:23.958Z</time></trkpt><trkpt lat="37.797869087126536" lon="15.052545579515261"><ele>1673.0</ele><time>2026-04-19T07:53:24.958Z</time></trkpt><trkpt lat="37.797788475658216" lon="15.052442776789587"><ele>1673.0</ele><time>2026-04-19T07:53:25.957Z</time></trkpt><trkpt lat="37.79769981434949" lon="15.052430110888428"><ele>1673.0</ele><time>2026-04-19T07:53:26.957Z</time></trkpt><trkpt lat="37.79760875642123" lon="15.05243617146325"><ele>1673.0</ele><time>2026-04-19T07:53:27.957Z</time></trkpt><trkpt lat="37.797512567320084" lon="15.05244051450843"><ele>1673.0</ele><time>2026-04-19T07:53:28.957Z</time></trkpt><trkpt lat="37.79740620635816" lon="15.052528887978335"><ele>1667.6666666666665</ele><time>2026-04-19T07:53:29.957Z</time></trkpt><trkpt lat="37.79727164186171" lon="15.052631860526027"><ele>1662.3333333333335</ele><time>2026-04-19T07:53:30.957Z</time></trkpt><trkpt lat="37.79711043084651" lon="15.052669027283327"><ele>1657.0</ele><time>2026-04-19T07:53:31.957Z</time></trkpt><trkpt lat="37.79697997441031" lon="15.052742832655042"><ele>1657.0</ele><time>2026-04-19T07:53:32.957Z</time></trkpt><trkpt lat="37.79685960215542" lon="15.052804562861414"><ele>1657.0</ele><time>2026-04-19T07:53:33.957Z</time></trkpt><trkpt lat="37.796747082645936" lon="15.052897536774667"><ele>1657.0</ele><time>2026-04-19T07:53:34.957Z</time></trkpt><trkpt lat="37.79665653128937" lon="15.053022426808432"><ele>1657.0</ele><time>2026-04-19T07:53:35.957Z</time></trkpt><trkpt lat="37.79657898938794" lon="15.053199292918093"><ele>1653.0</ele><time>2026-04-19T07:53:36.957Z</time></trkpt><trkpt lat="37.79650652144067" lon="15.053368180032132"><ele>1649.0</ele><time>2026-04-19T07:53:37.957Z</time></trkpt><trkpt lat="37.7964519757839" lon="15.0534974044017"><ele>1645.0</ele><time>2026-04-19T07:53:38.957Z</time></trkpt><trkpt lat="37.79638305182185" lon="15.05362358222364"><ele>1641.0</ele><time>2026-04-19T07:53:39.957Z</time></trkpt><trkpt lat="37.79633322125079" lon="15.053764116923993"><ele>1641.0</ele><time>2026-04-19T07:53:40.957Z</time></trkpt><trkpt lat="37.79628572244311" lon="15.053897959584726"><ele>1641.0</ele><time>2026-04-19T07:53:41.957Z</time></trkpt><trkpt lat="37.796235480285354" lon="15.054036198221906"><ele>1641.0</ele><time>2026-04-19T07:53:42.957Z</time></trkpt><trkpt lat="37.79618136233071" lon="15.054173483572063"><ele>1641.0</ele><time>2026-04-19T07:53:43.957Z</time></trkpt><trkpt lat="37.79612006179343" lon="15.054321462432522"><ele>1638.75</ele><time>2026-04-19T07:53:44.957Z</time></trkpt><trkpt lat="37.79606002612827" lon="15.054479598158483"><ele>1636.5</ele><time>2026-04-19T07:53:45.957Z</time></trkpt><trkpt lat="37.79599725023607" lon="15.054635000701952"><ele>1634.25</ele><time>2026-04-19T07:53:46.957Z</time></trkpt><trkpt lat="37.79592832722769" lon="15.054792302486916"><ele>1632.0</ele><time>2026-04-19T07:53:47.957Z</time></trkpt><trkpt lat="37.79584959331563" lon="15.054943575318854"><ele>1631.0</ele><time>2026-04-19T07:53:48.957Z</time></trkpt><trkpt lat="37.795752082954074" lon="15.055079892550543"><ele>1630.0</ele><time>2026-04-19T07:53:49.957Z</time></trkpt><trkpt lat="37.79563723739182" lon="15.055218712994412"><ele>1629.0</ele><time>2026-04-19T07:53:50.957Z</time></trkpt><trkpt lat="37.79550694965477" lon="15.055371564927034"><ele>1629.0</ele><time>2026-04-19T07:53:51.957Z</time></trkpt><trkpt lat="37.795380496199996" lon="15.0555122849313"><ele>1629.0</ele><time>2026-04-19T07:53:52.957Z</time></trkpt><trkpt lat="37.79526741023022" lon="15.055663863461959"><ele>1629.0</ele><time>2026-04-19T07:53:53.957Z</time></trkpt><trkpt lat="37.795145425049604" lon="15.055798335313185"><ele>1624.0</ele><time>2026-04-19T07:53:54.957Z</time></trkpt><trkpt lat="37.79503727058403" lon="15.055947392533067"><ele>1619.0</ele><time>2026-04-19T07:53:55.956Z</time></trkpt><trkpt lat="37.79495471674897" lon="15.05611095007197"><ele>1614.0</ele><time>2026-04-19T07:53:56.956Z</time></trkpt><trkpt lat="37.794903106077385" lon="15.056277196638996"><ele>1614.0</ele><time>2026-04-19T07:53:57.956Z</time></trkpt><trkpt lat="37.79487315854615" lon="15.056459337716955"><ele>1614.0</ele><time>2026-04-19T07:53:58.956Z</time></trkpt><trkpt lat="37.79484839185208" lon="15.056650331592321"><ele>1614.0</ele><time>2026-04-19T07:53:59.956Z</time></trkpt><trkpt lat="37.79480860357337" lon="15.0568421754783"><ele>1611.3333333333335</ele><time>2026-04-19T07:54:00.956Z</time></trkpt><trkpt lat="37.7947305866192" lon="15.057013836146787"><ele>1608.6666666666667</ele><time>2026-04-19T07:54:01.956Z</time></trkpt><trkpt lat="37.79464296066764" lon="15.057165011169584"><ele>1606.0</ele><time>2026-04-19T07:54:02.956Z</time></trkpt><trkpt lat="37.794549063760265" lon="15.05732522312588"><ele>1604.75</ele><time>2026-04-19T07:54:03.956Z</time></trkpt><trkpt lat="37.79446024106568" lon="15.057485435383409"><ele>1603.5</ele><time>2026-04-19T07:54:04.956Z</time></trkpt><trkpt lat="37.794392915563186" lon="15.057650783341598"><ele>1602.25</ele><time>2026-04-19T07:54:05.956Z</time></trkpt><trkpt lat="37.794332870863286" lon="15.057818389802591"><ele>1601.0</ele><time>2026-04-19T07:54:06.956Z</time></trkpt><trkpt lat="37.79431327064397" lon="15.05800697045921"><ele>1601.0</ele><time>2026-04-19T07:54:07.956Z</time></trkpt><trkpt lat="37.794317687695035" lon="15.058191520595612"><ele>1601.0</ele><time>2026-04-19T07:54:08.956Z</time></trkpt><trkpt lat="37.79435750424257" lon="15.058376753726895"><ele>1601.0</ele><time>2026-04-19T07:54:09.956Z</time></trkpt><trkpt lat="37.79443532759564" lon="15.058522885631733"><ele>1601.0</ele><time>2026-04-19T07:54:10.956Z</time></trkpt><trkpt lat="37.79452514682418" lon="15.058664945699741"><ele>1597.75</ele><time>2026-04-19T07:54:11.956Z</time></trkpt><trkpt lat="37.794638577179455" lon="15.05876382739461"><ele>1594.5</ele><time>2026-04-19T07:54:12.956Z</time></trkpt><trkpt lat="37.794764999054934" lon="15.058845619920564"><ele>1591.25</ele><time>2026-04-19T07:54:13.956Z</time></trkpt><trkpt lat="37.79490077916998" lon="15.05888747883811"><ele>1588.0</ele><time>2026-04-19T07:54:14.956Z</time></trkpt><trkpt lat="37.795052773696625" lon="15.058909969141204"><ele>1586.75</ele><time>2026-04-19T07:54:15.956Z</time></trkpt><trkpt lat="37.79520206297666" lon="15.058924473972844"><ele>1585.5</ele><time>2026-04-19T07:54:16.956Z</time></trkpt><trkpt lat="37.795347867897554" lon="15.058939689947946"><ele>1584.25</ele><time>2026-04-19T07:54:17.956Z</time></trkpt><trkpt lat="37.79549026503742" lon="15.058979529833357"><ele>1583.0</ele><time>2026-04-19T07:54:18.956Z</time></trkpt><trkpt lat="37.795636346704256" lon="15.059007793581115"><ele>1583.0</ele><time>2026-04-19T07:54:19.956Z</time></trkpt><trkpt lat="37.795776170678394" lon="15.059051467195896"><ele>1583.0</ele><time>2026-04-19T07:54:20.956Z</time></trkpt><trkpt lat="37.79591764903624" lon="15.059114425174709"><ele>1583.0</ele><time>2026-04-19T07:54:21.956Z</time></trkpt><trkpt lat="37.79606110004096" lon="15.059194580701435"><ele>1580.0</ele><time>2026-04-19T07:54:22.956Z</time></trkpt><trkpt lat="37.796205088145356" lon="15.059274909287897"><ele>1577.0</ele><time>2026-04-19T07:54:23.956Z</time></trkpt><trkpt lat="37.79633736244352" lon="15.059358005281977"><ele>1574.0</ele><time>2026-04-19T07:54:24.956Z</time></trkpt><trkpt lat="37.79646807312728" lon="15.059439203128258"><ele>1574.0</ele><time>2026-04-19T07:54:25.955Z</time></trkpt><trkpt lat="37.79660378474959" lon="15.059519319472638"><ele>1574.0</ele><time>2026-04-19T07:54:26.955Z</time></trkpt><trkpt lat="37.796732683125356" lon="15.059584151944659"><ele>1574.0</ele><time>2026-04-19T07:54:27.955Z</time></trkpt><trkpt lat="37.79686891448684" lon="15.059657760026216"><ele>1574.0</ele><time>2026-04-19T07:54:28.955Z</time></trkpt><trkpt lat="37.79700123555452" lon="15.059716379551107"><ele>1574.75</ele><time>2026-04-19T07:54:29.955Z</time></trkpt><trkpt lat="37.7971211261804" lon="15.059778189069933"><ele>1575.5</ele><time>2026-04-19T07:54:30.955Z</time></trkpt><trkpt lat="37.797225699634154" lon="15.05986594168187"><ele>1576.25</ele><time>2026-04-19T07:54:31.955Z</time></trkpt><trkpt lat="37.79732062616941" lon="15.059980715886002"><ele>1577.0</ele><time>2026-04-19T07:54:32.955Z</time></trkpt><trkpt lat="37.79740351563601" lon="15.060135446407195"><ele>1572.6666666666665</ele><time>2026-04-19T07:54:33.955Z</time></trkpt><trkpt lat="37.797451290827844" lon="15.06034015325991"><ele>1568.3333333333335</ele><time>2026-04-19T07:54:34.955Z</time></trkpt><trkpt lat="37.797491621630364" lon="15.060526966100449"><ele>1564.0</ele><time>2026-04-19T07:54:35.955Z</time></trkpt><trkpt lat="37.7974872348904" lon="15.060715721811038"><ele>1561.0</ele><time>2026-04-19T07:54:36.955Z</time></trkpt><trkpt lat="37.797462696780215" lon="15.060893014021172"><ele>1558.0</ele><time>2026-04-19T07:54:37.955Z</time></trkpt><trkpt lat="37.79741787184182" lon="15.061052491404519"><ele>1555.0</ele><time>2026-04-19T07:54:38.955Z</time></trkpt><trkpt lat="37.79734496913407" lon="15.061182031461593"><ele>1552.0</ele><time>2026-04-19T07:54:39.955Z</time></trkpt><trkpt lat="37.79728748258452" lon="15.061301247831981"><ele>1552.0000000000002</ele><time>2026-04-19T07:54:40.955Z</time></trkpt><trkpt lat="37.79724888103656" lon="15.061415382937843"><ele>1552.0</ele><time>2026-04-19T07:54:41.955Z</time></trkpt><trkpt lat="37.79719778666573" lon="15.061505148359073"><ele>1552.0</ele><time>2026-04-19T07:54:42.955Z</time></trkpt><trkpt lat="37.797145016733154" lon="15.061589757913051"><ele>1552.0</ele><time>2026-04-19T07:54:43.955Z</time></trkpt><trkpt lat="37.79710659995416" lon="15.061671278194222"><ele>1552.0000000000002</ele><time>2026-04-19T07:54:44.955Z</time></trkpt><trkpt lat="37.79706812427158" lon="15.061756623697113"><ele>1552.0</ele><time>2026-04-19T07:54:45.955Z</time></trkpt><trkpt lat="37.79703322600516" lon="15.061835314640993"><ele>1550.6666666666667</ele><time>2026-04-19T07:54:46.955Z</time></trkpt><trkpt lat="37.79700066177589" lon="15.061909880072612"><ele>1549.3333333333335</ele><time>2026-04-19T07:54:47.955Z</time></trkpt><trkpt lat="37.796969422617465" lon="15.061980750870845"><ele>1548.0</ele><time>2026-04-19T07:54:48.955Z</time></trkpt><trkpt lat="37.796907728694954" lon="15.062088543339545"><ele>1546.6666666666665</ele><time>2026-04-19T07:54:50.955Z</time></trkpt><trkpt lat="37.79684737603037" lon="15.062207883789823"><ele>1545.3333333333333</ele><time>2026-04-19T07:54:53.955Z</time></trkpt><trkpt lat="37.796797146241715" lon="15.062311917173725"><ele>1544.0</ele><time>2026-04-19T07:54:55.954Z</time></trkpt><trkpt lat="37.7967408898698" lon="15.062414322620064"><ele>1541.0</ele><time>2026-04-19T07:54:57.954Z</time></trkpt><trkpt lat="37.79666013031723" lon="15.062494752287781"><ele>1538.0</ele><time>2026-04-19T07:54:59.954Z</time></trkpt><trkpt lat="37.796593825663415" lon="15.062566647676627"><ele>1535.0</ele><time>2026-04-19T07:55:01.954Z</time></trkpt><trkpt lat="37.79654892991522" lon="15.062632663277475"><ele>1532.0</ele><time>2026-04-19T07:55:03.954Z</time></trkpt><trkpt lat="37.7965767474041" lon="15.062814398897459"><ele>1529.0</ele><time>2026-04-19T07:55:05.954Z</time></trkpt><trkpt lat="37.79660719476218" lon="15.062903980503139"><ele>1529.0</ele><time>2026-04-19T07:55:06.954Z</time></trkpt><trkpt lat="37.79664992078648" lon="15.06301122720627"><ele>1529.0</ele><time>2026-04-19T07:55:07.954Z</time></trkpt><trkpt lat="37.79669647965456" lon="15.063129842524315"><ele>1529.0</ele><time>2026-04-19T07:55:08.954Z</time></trkpt><trkpt lat="37.79673106664477" lon="15.063240001165124"><ele>1529.0</ele><time>2026-04-19T07:55:09.957Z</time></trkpt><trkpt lat="37.796763939321345" lon="15.063347966482041"><ele>1529.0</ele><time>2026-04-19T07:55:10.957Z</time></trkpt><trkpt lat="37.796795924850656" lon="15.063442342738155"><ele>1528.7142857142856</ele><time>2026-04-19T07:55:11.957Z</time></trkpt><trkpt lat="37.79682699039224" lon="15.06352976504584"><ele>1528.4285714285713</ele><time>2026-04-19T07:55:12.956Z</time></trkpt><trkpt lat="37.796853332186174" lon="15.063617489952188"><ele>1528.142857142857</ele><time>2026-04-19T07:55:13.957Z</time></trkpt><trkpt lat="37.79687672529603" lon="15.06370558472824"><ele>1527.8571428571427</ele><time>2026-04-19T07:55:14.956Z</time></trkpt><trkpt lat="37.79689694925279" lon="15.063792386609999"><ele>1527.5714285714287</ele><time>2026-04-19T07:55:15.956Z</time></trkpt><trkpt lat="37.79692151116563" lon="15.063877754517149"><ele>1527.2857142857142</ele><time>2026-04-19T07:55:16.956Z</time></trkpt><trkpt lat="37.796948771801766" lon="15.06396179495437"><ele>1527.0</ele><time>2026-04-19T07:55:17.956Z</time></trkpt><trkpt lat="37.7969786727683" lon="15.064039787297267"><ele>1526.0</ele><time>2026-04-19T07:55:18.956Z</time></trkpt><trkpt lat="37.79700739998222" lon="15.064118039322043"><ele>1525.0</ele><time>2026-04-19T07:55:19.957Z</time></trkpt><trkpt lat="37.79705362520908" lon="15.064265205742347"><ele>1524.0</ele><time>2026-04-19T07:55:21.956Z</time></trkpt><trkpt lat="37.79710467206364" lon="15.064400356388918"><ele>1523.0</ele><time>2026-04-19T07:55:23.956Z</time></trkpt><trkpt lat="37.79715060841383" lon="15.064521133951327"><ele>1522.0</ele><time>2026-04-19T07:55:25.956Z</time></trkpt><trkpt lat="37.79716598514591" lon="15.064620266511389"><ele>1522.0</ele><time>2026-04-19T07:55:28.956Z</time></trkpt><trkpt lat="37.79718389694143" lon="15.06471345416164"><ele>1522.0</ele><time>2026-04-19T07:55:31.956Z</time></trkpt><trkpt lat="37.79722934271008" lon="15.064789425382447"><ele>1522.0</ele><time>2026-04-19T07:55:49.956Z</time></trkpt><trkpt lat="37.797215710695816" lon="15.064691132328099"><ele>1522.0</ele><time>2026-04-19T07:56:02.955Z</time></trkpt><trkpt lat="37.79717513941867" lon="15.064419397584414"><ele>1522.0</ele><time>2026-04-19T07:56:04.955Z</time></trkpt><trkpt lat="37.79710398076757" lon="15.064294726713488"><ele>1522.0</ele><time>2026-04-19T07:56:05.955Z</time></trkpt><trkpt lat="37.79705881036406" lon="15.064162256183494"><ele>1522.0</ele><time>2026-04-19T07:56:06.955Z</time></trkpt><trkpt lat="37.79701408420892" lon="15.064023953011509"><ele>1522.0</ele><time>2026-04-19T07:56:07.955Z</time></trkpt><trkpt lat="37.796974941001615" lon="15.063896410082869"><ele>1522.0</ele><time>2026-04-19T07:56:08.955Z</time></trkpt><trkpt lat="37.79693364065265" lon="15.063763168688117"><ele>1522.8</ele><time>2026-04-19T07:56:09.955Z</time></trkpt><trkpt lat="37.79689385246741" lon="15.063635740866056"><ele>1523.6</ele><time>2026-04-19T07:56:10.955Z</time></trkpt><trkpt lat="37.796855819443806" lon="15.063509995815748"><ele>1524.3999999999999</ele><time>2026-04-19T07:56:11.955Z</time></trkpt><trkpt lat="37.796812733290714" lon="15.063397684182297"><ele>1525.1999999999998</ele><time>2026-04-19T07:56:12.955Z</time></trkpt><trkpt lat="37.79677283011003" lon="15.063286408024936"><ele>1526.0</ele><time>2026-04-19T07:56:13.955Z</time></trkpt><trkpt lat="37.79673876870098" lon="15.063173551117352"><ele>1526.75</ele><time>2026-04-19T07:56:14.955Z</time></trkpt><trkpt lat="37.79669209669765" lon="15.063052797563708"><ele>1527.5</ele><time>2026-04-19T07:56:15.955Z</time></trkpt><trkpt lat="37.79663967351277" lon="15.06293659780886"><ele>1528.25</ele><time>2026-04-19T07:56:16.955Z</time></trkpt><trkpt lat="37.79658843217594" lon="15.062798465841967"><ele>1529.0</ele><time>2026-04-19T07:56:17.955Z</time></trkpt><trkpt lat="37.79653179830121" lon="15.062652627312032"><ele>1529.0</ele><time>2026-04-19T07:56:18.955Z</time></trkpt><trkpt lat="37.79647539934616" lon="15.062522664882819"><ele>1529.0</ele><time>2026-04-19T07:56:19.955Z</time></trkpt><trkpt lat="37.79641020879633" lon="15.062401449888517"><ele>1529.0</ele><time>2026-04-19T07:56:20.955Z</time></trkpt><trkpt lat="37.79633018979942" lon="15.06228683691914"><ele>1529.0</ele><time>2026-04-19T07:56:21.954Z</time></trkpt><trkpt lat="37.796239232087395" lon="15.062185317471123"><ele>1532.25</ele><time>2026-04-19T07:56:22.954Z</time></trkpt><trkpt lat="37.79612234174142" lon="15.062102874434506"><ele>1535.5</ele><time>2026-04-19T07:56:23.954Z</time></trkpt><trkpt lat="37.79598147239221" lon="15.062045756624636"><ele>1538.75</ele><time>2026-04-19T07:56:24.954Z</time></trkpt><trkpt lat="37.79584233580447" lon="15.06202806167507"><ele>1542.0</ele><time>2026-04-19T07:56:25.954Z</time></trkpt><trkpt lat="37.795680167063416" lon="15.06203478143408"><ele>1542.6666666666665</ele><time>2026-04-19T07:56:26.954Z</time></trkpt><trkpt lat="37.79550241152072" lon="15.062073445824991"><ele>1543.3333333333333</ele><time>2026-04-19T07:56:27.954Z</time></trkpt><trkpt lat="37.795347067884045" lon="15.062108803380593"><ele>1544.0</ele><time>2026-04-19T07:56:28.954Z</time></trkpt><trkpt lat="37.79522633102407" lon="15.06214184127102"><ele>1543.75</ele><time>2026-04-19T07:56:29.954Z</time></trkpt><trkpt lat="37.795116494637675" lon="15.062143159804643"><ele>1543.5</ele><time>2026-04-19T07:56:30.954Z</time></trkpt><trkpt lat="37.79498799943468" lon="15.062108928424623"><ele>1543.25</ele><time>2026-04-19T07:56:31.954Z</time></trkpt><trkpt lat="37.79485492391951" lon="15.062061495886281"><ele>1543.0</ele><time>2026-04-19T07:56:32.954Z</time></trkpt><trkpt lat="37.794729603655604" lon="15.061966921220542"><ele>1543.0</ele><time>2026-04-19T07:56:33.954Z</time></trkpt><trkpt lat="37.794592080372645" lon="15.061897315757488"><ele>1543.0</ele><time>2026-04-19T07:56:34.954Z</time></trkpt><trkpt lat="37.79444236515477" lon="15.061857768529512"><ele>1543.0</ele><time>2026-04-19T07:56:35.954Z</time></trkpt><trkpt lat="37.79427643015208" lon="15.061867905153685"><ele>1547.3333333333335</ele><time>2026-04-19T07:56:36.954Z</time></trkpt><trkpt lat="37.794102627201134" lon="15.061901422404176"><ele>1551.6666666666665</ele><time>2026-04-19T07:56:37.954Z</time></trkpt><trkpt lat="37.793924281348964" lon="15.061940011543305"><ele>1556.0</ele><time>2026-04-19T07:56:38.954Z</time></trkpt><trkpt lat="37.793738269051886" lon="15.06198284658218"><ele>1556.0</ele><time>2026-04-19T07:56:39.954Z</time></trkpt><trkpt lat="37.79354162650915" lon="15.06201590048185"><ele>1556.0</ele><time>2026-04-19T07:56:40.954Z</time></trkpt><trkpt lat="37.79333907403338" lon="15.062012507264903"><ele>1556.0</ele><time>2026-04-19T07:56:41.954Z</time></trkpt><trkpt lat="37.79313266635447" lon="15.06201269136248"><ele>1557.6666666666665</ele><time>2026-04-19T07:56:42.954Z</time></trkpt><trkpt lat="37.79293162119346" lon="15.062013384796872"><ele>1559.3333333333335</ele><time>2026-04-19T07:56:43.954Z</time></trkpt><trkpt lat="37.79273495378684" lon="15.062011519641976"><ele>1561.0</ele><time>2026-04-19T07:56:44.954Z</time></trkpt><trkpt lat="37.79253803361981" lon="15.062008470120508"><ele>1561.6666666666667</ele><time>2026-04-19T07:56:45.954Z</time></trkpt><trkpt lat="37.79235869888749" lon="15.06201025977992"><ele>1562.3333333333335</ele><time>2026-04-19T07:56:46.954Z</time></trkpt><trkpt lat="37.79219213040724" lon="15.062008028883461"><ele>1563.0</ele><time>2026-04-19T07:56:47.954Z</time></trkpt><trkpt lat="37.79203851893524" lon="15.061997551039031"><ele>1563.0</ele><time>2026-04-19T07:56:48.954Z</time></trkpt><trkpt lat="37.79190173165918" lon="15.061950301489173"><ele>1563.0</ele><time>2026-04-19T07:56:49.954Z</time></trkpt><trkpt lat="37.79176050983107" lon="15.061873039990507"><ele>1563.0</ele><time>2026-04-19T07:56:50.954Z</time></trkpt><trkpt lat="37.791610209140075" lon="15.06175318221806"><ele>1564.0</ele><time>2026-04-19T07:56:51.953Z</time></trkpt><trkpt lat="37.79147204271793" lon="15.061648805731712"><ele>1565.0</ele><time>2026-04-19T07:56:52.953Z</time></trkpt><trkpt lat="37.79135135807856" lon="15.06155903061363"><ele>1566.0</ele><time>2026-04-19T07:56:53.953Z</time></trkpt><trkpt lat="37.79121679114594" lon="15.061484564638777"><ele>1567.0</ele><time>2026-04-19T07:56:54.953Z</time></trkpt><trkpt lat="37.79108314556556" lon="15.06145729603744"><ele>1572.6666666666667</ele><time>2026-04-19T07:56:55.953Z</time></trkpt><trkpt lat="37.790955792630584" lon="15.06144191095513"><ele>1578.3333333333335</ele><time>2026-04-19T07:56:56.953Z</time></trkpt><trkpt lat="37.79078412384667" lon="15.061424687292247"><ele>1584.0</ele><time>2026-04-19T07:56:57.953Z</time></trkpt><trkpt lat="37.790611659975546" lon="15.061406172005766"><ele>1584.0</ele><time>2026-04-19T07:56:58.953Z</time></trkpt><trkpt lat="37.79044174495036" lon="15.061373088289136"><ele>1584.0</ele><time>2026-04-19T07:56:59.953Z</time></trkpt><trkpt lat="37.79027208444598" lon="15.061355313281233"><ele>1584.0</ele><time>2026-04-19T07:57:00.953Z</time></trkpt><trkpt lat="37.7901181931576" lon="15.061382290481346"><ele>1584.3333333333335</ele><time>2026-04-19T07:57:01.953Z</time></trkpt><trkpt lat="37.78997346629789" lon="15.06144755896627"><ele>1584.6666666666667</ele><time>2026-04-19T07:57:02.953Z</time></trkpt><trkpt lat="37.78981701496681" lon="15.061523663672297"><ele>1585.0</ele><time>2026-04-19T07:57:03.953Z</time></trkpt><trkpt lat="37.78963315618981" lon="15.061609963115353"><ele>1582.3333333333335</ele><time>2026-04-19T07:57:04.953Z</time></trkpt><trkpt lat="37.78946453252498" lon="15.061689111510884"><ele>1579.6666666666665</ele><time>2026-04-19T07:57:05.953Z</time></trkpt><trkpt lat="37.78929955050986" lon="15.061766550570317"><ele>1577.0</ele><time>2026-04-19T07:57:06.953Z</time></trkpt><trkpt lat="37.78914646418104" lon="15.061838406055642"><ele>1577.0</ele><time>2026-04-19T07:57:07.953Z</time></trkpt><trkpt lat="37.78897622105894" lon="15.061917645983337"><ele>1577.0</ele><time>2026-04-19T07:57:08.953Z</time></trkpt><trkpt lat="37.7888249555723" lon="15.062001664960167"><ele>1577.0</ele><time>2026-04-19T07:57:09.953Z</time></trkpt><trkpt lat="37.78868827649948" lon="15.062090475458907"><ele>1577.0</ele><time>2026-04-19T07:57:10.953Z</time></trkpt><trkpt lat="37.78854423748932" lon="15.062186720965098"><ele>1577.0</ele><time>2026-04-19T07:57:11.953Z</time></trkpt><trkpt lat="37.78839154557317" lon="15.062281339345668"><ele>1577.0</ele><time>2026-04-19T07:57:12.953Z</time></trkpt><trkpt lat="37.78823175124555" lon="15.062384010323079"><ele>1580.3333333333333</ele><time>2026-04-19T07:57:13.953Z</time></trkpt><trkpt lat="37.788070176891" lon="15.062502167650157"><ele>1583.6666666666665</ele><time>2026-04-19T07:57:14.953Z</time></trkpt><trkpt lat="37.787914282655755" lon="15.062622201885091"><ele>1587.0</ele><time>2026-04-19T07:57:15.955Z</time></trkpt><trkpt lat="37.78775380954317" lon="15.062730188865673"><ele>1591.0</ele><time>2026-04-19T07:57:16.955Z</time></trkpt><trkpt lat="37.787592928919246" lon="15.062821929892527"><ele>1595.0</ele><time>2026-04-19T07:57:17.955Z</time></trkpt><trkpt lat="37.78745092520042" lon="15.06291759069017"><ele>1599.0</ele><time>2026-04-19T07:57:18.955Z</time></trkpt><trkpt lat="37.78728997187159" lon="15.06301687653033"><ele>1599.0</ele><time>2026-04-19T07:57:19.955Z</time></trkpt><trkpt lat="37.78714088069938" lon="15.063065631456308"><ele>1599.0</ele><time>2026-04-19T07:57:20.955Z</time></trkpt><trkpt lat="37.78697684574365" lon="15.063112732115423"><ele>1599.0</ele><time>2026-04-19T07:57:21.955Z</time></trkpt><trkpt lat="37.78681638734043" lon="15.06307332951256"><ele>1602.6666666666665</ele><time>2026-04-19T07:57:22.955Z</time></trkpt><trkpt lat="37.78659207264714" lon="15.063025764744392"><ele>1606.3333333333333</ele><time>2026-04-19T07:57:23.955Z</time></trkpt><trkpt lat="37.786425347724986" lon="15.06300776877954"><ele>1610.0</ele><time>2026-04-19T07:57:24.955Z</time></trkpt><trkpt lat="37.786290645846265" lon="15.062910609797422"><ele>1610.0</ele><time>2026-04-19T07:57:25.955Z</time></trkpt><trkpt lat="37.786166016367496" lon="15.06278838184246"><ele>1610.0</ele><time>2026-04-19T07:57:26.955Z</time></trkpt><trkpt lat="37.786061680659046" lon="15.062667066696859"><ele>1610.0</ele><time>2026-04-19T07:57:27.955Z</time></trkpt><trkpt lat="37.78595598775083" lon="15.062528800647764"><ele>1614.3333333333333</ele><time>2026-04-19T07:57:28.955Z</time></trkpt><trkpt lat="37.785838955918074" lon="15.062389505787662"><ele>1618.6666666666665</ele><time>2026-04-19T07:57:29.955Z</time></trkpt><trkpt lat="37.785725237595955" lon="15.062213358482111"><ele>1623.0</ele><time>2026-04-19T07:57:30.955Z</time></trkpt><trkpt lat="37.78561136530105" lon="15.06203793410198"><ele>1623.0</ele><time>2026-04-19T07:57:31.955Z</time></trkpt><trkpt lat="37.78549535570008" lon="15.06184906664934"><ele>1623.0</ele><time>2026-04-19T07:57:32.955Z</time></trkpt><trkpt lat="37.78537473573242" lon="15.061644768884175"><ele>1623.0</ele><time>2026-04-19T07:57:33.955Z</time></trkpt><trkpt lat="37.78524032651522" lon="15.061436784099365"><ele>1621.6666666666665</ele><time>2026-04-19T07:57:34.955Z</time></trkpt><trkpt lat="37.785104177560925" lon="15.061211103707262"><ele>1620.3333333333333</ele><time>2026-04-19T07:57:35.955Z</time></trkpt><trkpt lat="37.78497077840568" lon="15.060992960143702"><ele>1619.0</ele><time>2026-04-19T07:57:36.955Z</time></trkpt><trkpt lat="37.78484303732377" lon="15.06078772332275"><ele>1621.3333333333333</ele><time>2026-04-19T07:57:37.955Z</time></trkpt><trkpt lat="37.7847320604429" lon="15.060597593209549"><ele>1623.6666666666665</ele><time>2026-04-19T07:57:38.955Z</time></trkpt><trkpt lat="37.7846326859209" lon="15.060435109991463"><ele>1626.0</ele><time>2026-04-19T07:57:39.955Z</time></trkpt><trkpt lat="37.7845310048585" lon="15.060288572940705"><ele>1626.0</ele><time>2026-04-19T07:57:40.955Z</time></trkpt><trkpt lat="37.784439781498726" lon="15.060159944982606"><ele>1626.0</ele><time>2026-04-19T07:57:41.955Z</time></trkpt><trkpt lat="37.78434636700662" lon="15.06006079515928"><ele>1626.0</ele><time>2026-04-19T07:57:42.955Z</time></trkpt><trkpt lat="37.78424569000747" lon="15.060001514041508"><ele>1626.0</ele><time>2026-04-19T07:57:43.955Z</time></trkpt><trkpt lat="37.78414541247653" lon="15.059988243011242"><ele>1626.3333333333335</ele><time>2026-04-19T07:57:44.955Z</time></trkpt><trkpt lat="37.78409440402167" lon="15.059917311253528"><ele>1626.6666666666667</ele><time>2026-04-19T07:57:45.955Z</time></trkpt><trkpt lat="37.783888087333544" lon="15.060182444276053"><ele>1627.0</ele><time>2026-04-19T07:57:46.954Z</time></trkpt><trkpt lat="37.78376349896821" lon="15.060299797589199"><ele>1627.0</ele><time>2026-04-19T07:57:47.954Z</time></trkpt><trkpt lat="37.783635947498134" lon="15.060388549958226"><ele>1627.0</ele><time>2026-04-19T07:57:48.954Z</time></trkpt><trkpt lat="37.7834881465362" lon="15.060458610045895"><ele>1627.0</ele><time>2026-04-19T07:57:49.954Z</time></trkpt><trkpt lat="37.78331853443649" lon="15.060502197620332"><ele>1629.0</ele><time>2026-04-19T07:57:50.954Z</time></trkpt><trkpt lat="37.783134866828" lon="15.060468027341033"><ele>1631.0</ele><time>2026-04-19T07:57:51.954Z</time></trkpt><trkpt lat="37.78294374951883" lon="15.060426855801882"><ele>1633.0</ele><time>2026-04-19T07:57:52.954Z</time></trkpt><trkpt lat="37.782775684102724" lon="15.060418803209485"><ele>1635.0</ele><time>2026-04-19T07:57:53.954Z</time></trkpt><trkpt lat="37.7826206250494" lon="15.060458150234387"><ele>1637.0</ele><time>2026-04-19T07:57:54.954Z</time></trkpt><trkpt lat="37.78246363754411" lon="15.060518500659905"><ele>1639.0</ele><time>2026-04-19T07:57:55.954Z</time></trkpt><trkpt lat="37.78233657621971" lon="15.060666325025405"><ele>1637.0</ele><time>2026-04-19T07:57:56.954Z</time></trkpt><trkpt lat="37.782173988675" lon="15.060891281696946"><ele>1635.0</ele><time>2026-04-19T07:57:57.954Z</time></trkpt><trkpt lat="37.78204666008905" lon="15.061090143995171"><ele>1633.0</ele><time>2026-04-19T07:57:58.954Z</time></trkpt><trkpt lat="37.78191738925498" lon="15.061336040244253"><ele>1633.0</ele><time>2026-04-19T07:57:59.954Z</time></trkpt><trkpt lat="37.7817566620611" lon="15.061578583351187"><ele>1633.0</ele><time>2026-04-19T07:58:00.954Z</time></trkpt><trkpt lat="37.78158499768858" lon="15.061814386763812"><ele>1633.0</ele><time>2026-04-19T07:58:01.954Z</time></trkpt><trkpt lat="37.781415181278255" lon="15.06204693091724"><ele>1633.0</ele><time>2026-04-19T07:58:02.954Z</time></trkpt><trkpt lat="37.781261169929415" lon="15.062250060266406"><ele>1631.3333333333335</ele><time>2026-04-19T07:58:03.954Z</time></trkpt><trkpt lat="37.78112280697171" lon="15.062453261374028"><ele>1629.6666666666665</ele><time>2026-04-19T07:58:04.954Z</time></trkpt><trkpt lat="37.780994489457235" lon="15.062650304575348"><ele>1628.0</ele><time>2026-04-19T07:58:05.954Z</time></trkpt><trkpt lat="37.780874704949476" lon="15.062834210634312"><ele>1631.0</ele><time>2026-04-19T07:58:06.954Z</time></trkpt><trkpt lat="37.780760164300766" lon="15.06300369968634"><ele>1634.0</ele><time>2026-04-19T07:58:07.954Z</time></trkpt><trkpt lat="37.78065309576461" lon="15.063164369209245"><ele>1637.0</ele><time>2026-04-19T07:58:08.954Z</time></trkpt><trkpt lat="37.78056043360136" lon="15.063323904482278"><ele>1637.0</ele><time>2026-04-19T07:58:09.954Z</time></trkpt><trkpt lat="37.78048049254975" lon="15.063493472728235"><ele>1637.0</ele><time>2026-04-19T07:58:10.954Z</time></trkpt><trkpt lat="37.780408822436854" lon="15.063685400121287"><ele>1637.0</ele><time>2026-04-19T07:58:11.954Z</time></trkpt><trkpt lat="37.78035492389488" lon="15.063927391427018"><ele>1634.0</ele><time>2026-04-19T07:58:12.954Z</time></trkpt><trkpt lat="37.780277818650845" lon="15.064160858444746"><ele>1631.0</ele><time>2026-04-19T07:58:13.954Z</time></trkpt><trkpt lat="37.780187916854146" lon="15.064397427697628"><ele>1628.0</ele><time>2026-04-19T07:58:14.954Z</time></trkpt><trkpt lat="37.7800971664525" lon="15.064653151362918"><ele>1628.0</ele><time>2026-04-19T07:58:15.954Z</time></trkpt><trkpt lat="37.78001070720258" lon="15.064900306808743"><ele>1628.0</ele><time>2026-04-19T07:58:16.953Z</time></trkpt><trkpt lat="37.779925051053866" lon="15.065137259718805"><ele>1628.0</ele><time>2026-04-19T07:58:17.953Z</time></trkpt><trkpt lat="37.77984130928594" lon="15.065347519044874"><ele>1626.0</ele><time>2026-04-19T07:58:18.953Z</time></trkpt><trkpt lat="37.779727275615826" lon="15.065483361424805"><ele>1624.0</ele><time>2026-04-19T07:58:19.953Z</time></trkpt><trkpt lat="37.77959572110038" lon="15.065598658719193"><ele>1622.0</ele><time>2026-04-19T07:58:20.953Z</time></trkpt><trkpt lat="37.77941737291792" lon="15.065670470487683"><ele>1620.0</ele><time>2026-04-19T07:58:21.953Z</time></trkpt><trkpt lat="37.77920373426722" lon="15.065718598863235"><ele>1618.0</ele><time>2026-04-19T07:58:22.953Z</time></trkpt><trkpt lat="37.77894921107777" lon="15.065782876821997"><ele>1615.5</ele><time>2026-04-19T07:58:23.953Z</time></trkpt><trkpt lat="37.778679028621276" lon="15.065852883098316"><ele>1613.0</ele><time>2026-04-19T07:58:24.953Z</time></trkpt><trkpt lat="37.77839950907636" lon="15.06596198846813"><ele>1609.0</ele><time>2026-04-19T07:58:25.953Z</time></trkpt><trkpt lat="37.77810098742794" lon="15.066039912151547"><ele>1605.0</ele><time>2026-04-19T07:58:26.953Z</time></trkpt><trkpt lat="37.7778095539889" lon="15.066104188775318"><ele>1605.5</ele><time>2026-04-19T07:58:27.953Z</time></trkpt><trkpt lat="37.77753636830617" lon="15.06615884227622"><ele>1606.0</ele><time>2026-04-19T07:58:28.953Z</time></trkpt><trkpt lat="37.777284265978864" lon="15.06622157612034"><ele>1606.0</ele><time>2026-04-19T07:58:29.953Z</time></trkpt><trkpt lat="37.777048111230556" lon="15.066285108649812"><ele>1606.0</ele><time>2026-04-19T07:58:30.953Z</time></trkpt><trkpt lat="37.776826334617574" lon="15.06633482008854"><ele>1606.0</ele><time>2026-04-19T07:58:31.953Z</time></trkpt><trkpt lat="37.77661771808002" lon="15.066367774198735"><ele>1606.0</ele><time>2026-04-19T07:58:32.953Z</time></trkpt><trkpt lat="37.7763963507066" lon="15.06636835174238"><ele>1606.0</ele><time>2026-04-19T07:58:33.953Z</time></trkpt><trkpt lat="37.77616691546199" lon="15.066342512237261"><ele>1607.5</ele><time>2026-04-19T07:58:34.953Z</time></trkpt><trkpt lat="37.7759323905566" lon="15.066311151273384"><ele>1609.0</ele><time>2026-04-19T07:58:35.953Z</time></trkpt><trkpt lat="37.775697600756885" lon="15.066287741227633"><ele>1609.0</ele><time>2026-04-19T07:58:36.953Z</time></trkpt><trkpt lat="37.77546622455888" lon="15.066262302799128"><ele>1609.0</ele><time>2026-04-19T07:58:37.953Z</time></trkpt><trkpt lat="37.77523218136528" lon="15.066235262377619"><ele>1609.3333333333335</ele><time>2026-04-19T07:58:38.953Z</time></trkpt><trkpt lat="37.77499940511765" lon="15.06620534593825"><ele>1609.6666666666665</ele><time>2026-04-19T07:58:39.953Z</time></trkpt><trkpt lat="37.77479333855013" lon="15.066164317364459"><ele>1610.0</ele><time>2026-04-19T07:58:40.953Z</time></trkpt><trkpt lat="37.77464027692385" lon="15.06612737425542"><ele>1610.0</ele><time>2026-04-19T07:58:41.953Z</time></trkpt><trkpt lat="37.77453362591531" lon="15.066089428366864"><ele>1610.0</ele><time>2026-04-19T07:58:42.953Z</time></trkpt><trkpt lat="37.77442933592621" lon="15.066054023480483"><ele>1610.0</ele><time>2026-04-19T07:58:43.953Z</time></trkpt><trkpt lat="37.77432310991324" lon="15.066044731634776"><ele>1610.0</ele><time>2026-04-19T07:58:44.953Z</time></trkpt><trkpt lat="37.774195430320745" lon="15.066062772957395"><ele>1608.6666666666665</ele><time>2026-04-19T07:58:45.953Z</time></trkpt><trkpt lat="37.77405547822676" lon="15.066132206299846"><ele>1607.3333333333335</ele><time>2026-04-19T07:58:46.952Z</time></trkpt><trkpt lat="37.77391889644122" lon="15.066240279678349"><ele>1606.0</ele><time>2026-04-19T07:58:47.952Z</time></trkpt><trkpt lat="37.77376832735883" lon="15.06639676918945"><ele>1606.0</ele><time>2026-04-19T07:58:48.952Z</time></trkpt><trkpt lat="37.77362470515441" lon="15.066544308230412"><ele>1606.0</ele><time>2026-04-19T07:58:49.952Z</time></trkpt><trkpt lat="37.77345075726723" lon="15.06667826776069"><ele>1606.0</ele><time>2026-04-19T07:58:50.952Z</time></trkpt><trkpt lat="37.77328752057384" lon="15.066815074643273"><ele>1602.3333333333335</ele><time>2026-04-19T07:58:51.952Z</time></trkpt><trkpt lat="37.77313431955227" lon="15.066964731646447"><ele>1598.6666666666665</ele><time>2026-04-19T07:58:52.952Z</time></trkpt><trkpt lat="37.77298909140029" lon="15.067144670451363"><ele>1595.0</ele><time>2026-04-19T07:58:53.952Z</time></trkpt><trkpt lat="37.772868675614255" lon="15.067385023850376"><ele>1589.5</ele><time>2026-04-19T07:58:54.952Z</time></trkpt><trkpt lat="37.77278585057555" lon="15.067650401570184"><ele>1584.0</ele><time>2026-04-19T07:58:55.952Z</time></trkpt><trkpt lat="37.77272672846084" lon="15.06793257664847"><ele>1584.0</ele><time>2026-04-19T07:58:56.952Z</time></trkpt><trkpt lat="37.77270226974075" lon="15.06822960656431"><ele>1584.0</ele><time>2026-04-19T07:58:57.952Z</time></trkpt><trkpt lat="37.77265518184846" lon="15.068494020417154"><ele>1584.0</ele><time>2026-04-19T07:58:58.952Z</time></trkpt><trkpt lat="37.77260839300684" lon="15.06874735353779"><ele>1584.0</ele><time>2026-04-19T07:58:59.952Z</time></trkpt><trkpt lat="37.772546129333875" lon="15.068991035603892"><ele>1584.0</ele><time>2026-04-19T07:59:00.952Z</time></trkpt><trkpt lat="37.77245865739434" lon="15.06922026172535"><ele>1581.0</ele><time>2026-04-19T07:59:01.952Z</time></trkpt><trkpt lat="37.77234219532173" lon="15.069436224335826"><ele>1578.0</ele><time>2026-04-19T07:59:02.952Z</time></trkpt><trkpt lat="37.77217535460069" lon="15.069628744420037"><ele>1575.0</ele><time>2026-04-19T07:59:03.952Z</time></trkpt><trkpt lat="37.77200623378364" lon="15.069812262961628"><ele>1570.5</ele><time>2026-04-19T07:59:04.952Z</time></trkpt><trkpt lat="37.77179503235529" lon="15.069964143022622"><ele>1566.0</ele><time>2026-04-19T07:59:05.952Z</time></trkpt><trkpt lat="37.77158413485767" lon="15.070109764591074"><ele>1566.0</ele><time>2026-04-19T07:59:06.952Z</time></trkpt><trkpt lat="37.77138696736601" lon="15.070261320160508"><ele>1566.0</ele><time>2026-04-19T07:59:07.952Z</time></trkpt><trkpt lat="37.771178272435904" lon="15.070427315491795"><ele>1568.5</ele><time>2026-04-19T07:59:08.952Z</time></trkpt><trkpt lat="37.77097537403732" lon="15.070593045657608"><ele>1571.0</ele><time>2026-04-19T07:59:09.952Z</time></trkpt><trkpt lat="37.770792181285344" lon="15.07076334818089"><ele>1568.3333333333333</ele><time>2026-04-19T07:59:10.952Z</time></trkpt><trkpt lat="37.77061973688902" lon="15.07092052532362"><ele>1565.6666666666665</ele><time>2026-04-19T07:59:11.952Z</time></trkpt><trkpt lat="37.77044807115156" lon="15.07107281304041"><ele>1563.0</ele><time>2026-04-19T07:59:12.952Z</time></trkpt><trkpt lat="37.77028539576901" lon="15.071215474261944"><ele>1562.3333333333335</ele><time>2026-04-19T07:59:13.952Z</time></trkpt><trkpt lat="37.7701286881858" lon="15.07135000961238"><ele>1561.6666666666667</ele><time>2026-04-19T07:59:14.952Z</time></trkpt><trkpt lat="37.7699734214395" lon="15.071478221405318"><ele>1561.0</ele><time>2026-04-19T07:59:15.952Z</time></trkpt><trkpt lat="37.76983899140682" lon="15.071596065120046"><ele>1559.6666666666667</ele><time>2026-04-19T07:59:16.951Z</time></trkpt><trkpt lat="37.76971135275101" lon="15.071715914246061"><ele>1558.3333333333335</ele><time>2026-04-19T07:59:17.951Z</time></trkpt><trkpt lat="37.76960190535" lon="15.071847994034"><ele>1557.0</ele><time>2026-04-19T07:59:18.951Z</time></trkpt><trkpt lat="37.76954881941205" lon="15.072043488555138"><ele>1557.0</ele><time>2026-04-19T07:59:19.951Z</time></trkpt><trkpt lat="37.76951759678221" lon="15.0722547573064"><ele>1557.0</ele><time>2026-04-19T07:59:20.951Z</time></trkpt><trkpt lat="37.769512403811845" lon="15.072512302957659"><ele>1557.0</ele><time>2026-04-19T07:59:21.954Z</time></trkpt><trkpt lat="37.76958519297479" lon="15.072774697378728"><ele>1554.0</ele><time>2026-04-19T07:59:22.954Z</time></trkpt><trkpt lat="37.76970404015861" lon="15.07304362759592"><ele>1551.0</ele><time>2026-04-19T07:59:23.954Z</time></trkpt><trkpt lat="37.76985088488798" lon="15.07330318621632"><ele>1548.0</ele><time>2026-04-19T07:59:24.954Z</time></trkpt><trkpt lat="37.769977210776815" lon="15.07350009419761"><ele>1545.0</ele><time>2026-04-19T07:59:25.953Z</time></trkpt><trkpt lat="37.770100120315" lon="15.073672845377676"><ele>1542.0</ele><time>2026-04-19T07:59:26.953Z</time></trkpt><trkpt lat="37.77025833623079" lon="15.073831357408471"><ele>1541.0</ele><time>2026-04-19T07:59:27.954Z</time></trkpt><trkpt lat="37.770413134281014" lon="15.073948764852826"><ele>1540.0</ele><time>2026-04-19T07:59:28.953Z</time></trkpt><trkpt lat="37.770597598735506" lon="15.073991777482767"><ele>1539.0</ele><time>2026-04-19T07:59:29.953Z</time></trkpt><trkpt lat="37.77077460675317" lon="15.07401826482249"><ele>1539.0</ele><time>2026-04-19T07:59:30.953Z</time></trkpt><trkpt lat="37.77094814347275" lon="15.074067102833675"><ele>1539.0</ele><time>2026-04-19T07:59:31.953Z</time></trkpt><trkpt lat="37.77113200806079" lon="15.074094280852577"><ele>1539.0</ele><time>2026-04-19T07:59:32.953Z</time></trkpt><trkpt lat="37.77131354011321" lon="15.074145060537779"><ele>1536.6666666666667</ele><time>2026-04-19T07:59:33.954Z</time></trkpt><trkpt lat="37.77148280082736" lon="15.074193913391465"><ele>1534.3333333333335</ele><time>2026-04-19T07:59:34.953Z</time></trkpt><trkpt lat="37.77164886702643" lon="15.07425431644381"><ele>1532.0</ele><time>2026-04-19T07:59:35.953Z</time></trkpt><trkpt lat="37.771797441474625" lon="15.074342254337095"><ele>1531.6666666666667</ele><time>2026-04-19T07:59:36.953Z</time></trkpt><trkpt lat="37.7719131369355" lon="15.074503120000882"><ele>1531.3333333333333</ele><time>2026-04-19T07:59:37.953Z</time></trkpt><trkpt lat="37.77197047438275" lon="15.074793595829176"><ele>1531.0</ele><time>2026-04-19T07:59:38.953Z</time></trkpt><trkpt lat="37.77199187211257" lon="15.075128065402561"><ele>1531.0</ele><time>2026-04-19T07:59:39.953Z</time></trkpt><trkpt lat="37.77199560927057" lon="15.075439453862952"><ele>1531.0</ele><time>2026-04-19T07:59:40.953Z</time></trkpt><trkpt lat="37.77205516523057" lon="15.075679248306207"><ele>1531.0</ele><time>2026-04-19T07:59:41.953Z</time></trkpt><trkpt lat="37.772125918151204" lon="15.075908483393718"><ele>1528.0</ele><time>2026-04-19T07:59:42.953Z</time></trkpt><trkpt lat="37.77221808020335" lon="15.076129351679706"><ele>1525.0</ele><time>2026-04-19T07:59:43.953Z</time></trkpt><trkpt lat="37.772312530381825" lon="15.076337126613755"><ele>1522.0</ele><time>2026-04-19T07:59:44.953Z</time></trkpt><trkpt lat="37.77239971595862" lon="15.07651914707401"><ele>1519.3333333333333</ele><time>2026-04-19T07:59:45.953Z</time></trkpt><trkpt lat="37.77250104566017" lon="15.07666771805443"><ele>1516.6666666666667</ele><time>2026-04-19T07:59:46.953Z</time></trkpt><trkpt lat="37.77261109160381" lon="15.076810983010738"><ele>1514.0</ele><time>2026-04-19T07:59:47.953Z</time></trkpt><trkpt lat="37.77274741530395" lon="15.076945181962165"><ele>1513.6666666666667</ele><time>2026-04-19T07:59:48.953Z</time></trkpt><trkpt lat="37.7729055034191" lon="15.077055918154835"><ele>1513.3333333333333</ele><time>2026-04-19T07:59:49.953Z</time></trkpt><trkpt lat="37.77311227024093" lon="15.077089519940744"><ele>1513.0</ele><time>2026-04-19T07:59:50.953Z</time></trkpt><trkpt lat="37.773304096715584" lon="15.077115959755233"><ele>1513.0</ele><time>2026-04-19T07:59:51.953Z</time></trkpt><trkpt lat="37.7734751658849" lon="15.077226983172029"><ele>1513.0</ele><time>2026-04-19T07:59:52.953Z</time></trkpt><trkpt lat="37.773635191201166" lon="15.077377104327834"><ele>1513.0</ele><time>2026-04-19T07:59:53.953Z</time></trkpt><trkpt lat="37.77377243052702" lon="15.077559255278565"><ele>1511.0</ele><time>2026-04-19T07:59:54.953Z</time></trkpt><trkpt lat="37.77386590731297" lon="15.077757401608098"><ele>1509.0</ele><time>2026-04-19T07:59:55.953Z</time></trkpt><trkpt lat="37.77387541681858" lon="15.077943320220907"><ele>1507.0</ele><time>2026-04-19T07:59:56.953Z</time></trkpt><trkpt lat="37.77387904721235" lon="15.078093425672739"><ele>1505.0</ele><time>2026-04-19T07:59:57.953Z</time></trkpt><trkpt lat="37.773835068226354" lon="15.078245750788934"><ele>1503.6666666666667</ele><time>2026-04-19T07:59:58.953Z</time></trkpt><trkpt lat="37.77374821769304" lon="15.07839499369794"><ele>1502.3333333333333</ele><time>2026-04-19T07:59:59.953Z</time></trkpt><trkpt lat="37.773604919137156" lon="15.078511277658045"><ele>1501.0</ele><time>2026-04-19T08:00:00.952Z</time></trkpt><trkpt lat="37.77344378584663" lon="15.078632035255438"><ele>1500.0</ele><time>2026-04-19T08:00:01.952Z</time></trkpt><trkpt lat="37.773270148279934" lon="15.078754811712809"><ele>1499.0</ele><time>2026-04-19T08:00:02.952Z</time></trkpt><trkpt lat="37.77308121012132" lon="15.078873264838364"><ele>1498.0</ele><time>2026-04-19T08:00:03.952Z</time></trkpt><trkpt lat="37.77287521561976" lon="15.07898078323292"><ele>1499.3333333333333</ele><time>2026-04-19T08:00:04.952Z</time></trkpt><trkpt lat="37.772674307212334" lon="15.079099647999433"><ele>1500.6666666666667</ele><time>2026-04-19T08:00:05.952Z</time></trkpt><trkpt lat="37.77247969804605" lon="15.07920908704229"><ele>1502.0</ele><time>2026-04-19T08:00:06.952Z</time></trkpt><trkpt lat="37.772282380074365" lon="15.079318990374984"><ele>1500.3333333333335</ele><time>2026-04-19T08:00:07.952Z</time></trkpt><trkpt lat="37.7720866326414" lon="15.07942233632572"><ele>1498.6666666666667</ele><time>2026-04-19T08:00:08.952Z</time></trkpt><trkpt lat="37.77190407987545" lon="15.07953730088113"><ele>1497.0</ele><time>2026-04-19T08:00:09.952Z</time></trkpt><trkpt lat="37.771721999226244" lon="15.07964947402468"><ele>1497.0</ele><time>2026-04-19T08:00:10.952Z</time></trkpt><trkpt lat="37.771535070841026" lon="15.07976992116079"><ele>1497.0</ele><time>2026-04-19T08:00:11.952Z</time></trkpt><trkpt lat="37.771342537206934" lon="15.079889220973019"><ele>1497.0</ele><time>2026-04-19T08:00:12.952Z</time></trkpt><trkpt lat="37.77115492266468" lon="15.080014085157568"><ele>1494.0</ele><time>2026-04-19T08:00:13.952Z</time></trkpt><trkpt lat="37.77097300636243" lon="15.080127883209588"><ele>1491.0</ele><time>2026-04-19T08:00:14.952Z</time></trkpt><trkpt lat="37.77080921728149" lon="15.080218303505728"><ele>1488.0</ele><time>2026-04-19T08:00:15.952Z</time></trkpt><trkpt lat="37.77065367418832" lon="15.080320558946653"><ele>1488.0</ele><time>2026-04-19T08:00:16.952Z</time></trkpt><trkpt lat="37.77049944945551" lon="15.08042681583256"><ele>1488.0</ele><time>2026-04-19T08:00:17.952Z</time></trkpt><trkpt lat="37.77034678554335" lon="15.080530719895206"><ele>1488.0</ele><time>2026-04-19T08:00:18.952Z</time></trkpt><trkpt lat="37.770204761183145" lon="15.080675144466658"><ele>1482.0</ele><time>2026-04-19T08:00:19.952Z</time></trkpt><trkpt lat="37.77007944635762" lon="15.080861340223182"><ele>1476.0</ele><time>2026-04-19T08:00:20.952Z</time></trkpt><trkpt lat="37.77000119303525" lon="15.081093647638783"><ele>1470.0</ele><time>2026-04-19T08:00:21.952Z</time></trkpt><trkpt lat="37.769947163900795" lon="15.081346188773688"><ele>1470.0</ele><time>2026-04-19T08:00:22.952Z</time></trkpt><trkpt lat="37.76993861300618" lon="15.081591271757807"><ele>1470.0</ele><time>2026-04-19T08:00:23.952Z</time></trkpt><trkpt lat="37.77004488865076" lon="15.08185473278616"><ele>1470.0</ele><time>2026-04-19T08:00:24.952Z</time></trkpt><trkpt lat="37.77015882212177" lon="15.082103923889294"><ele>1469.0</ele><time>2026-04-19T08:00:25.952Z</time></trkpt><trkpt lat="37.77033333604906" lon="15.08231530622135"><ele>1468.0</ele><time>2026-04-19T08:00:26.952Z</time></trkpt><trkpt lat="37.770510824098935" lon="15.082481389831935"><ele>1464.5</ele><time>2026-04-19T08:00:27.952Z</time></trkpt><trkpt lat="37.77072308081656" lon="15.082644787724133"><ele>1461.0</ele><time>2026-04-19T08:00:28.952Z</time></trkpt><trkpt lat="37.77090785723631" lon="15.082812889407569"><ele>1461.6666666666667</ele><time>2026-04-19T08:00:29.952Z</time></trkpt><trkpt lat="37.77108741206203" lon="15.082985354457696"><ele>1462.3333333333335</ele><time>2026-04-19T08:00:30.951Z</time></trkpt><trkpt lat="37.77125592821237" lon="15.08316578809168"><ele>1463.0</ele><time>2026-04-19T08:00:31.951Z</time></trkpt><trkpt lat="37.77141261686745" lon="15.083319146258889"><ele>1459.3333333333335</ele><time>2026-04-19T08:00:32.951Z</time></trkpt><trkpt lat="37.771559696684406" lon="15.083486124966095"><ele>1455.6666666666667</ele><time>2026-04-19T08:00:33.951Z</time></trkpt><trkpt lat="37.77168923472575" lon="15.083664466170987"><ele>1452.0</ele><time>2026-04-19T08:00:34.951Z</time></trkpt><trkpt lat="37.771773219199844" lon="15.083871852885471"><ele>1452.6666666666667</ele><time>2026-04-19T08:00:35.951Z</time></trkpt><trkpt lat="37.771836311721486" lon="15.084126722598754"><ele>1453.3333333333335</ele><time>2026-04-19T08:00:36.951Z</time></trkpt><trkpt lat="37.77186067534773" lon="15.084382467004067"><ele>1454.0</ele><time>2026-04-19T08:00:37.951Z</time></trkpt><trkpt lat="37.771893294930514" lon="15.08465855597237"><ele>1451.0</ele><time>2026-04-19T08:00:38.951Z</time></trkpt><trkpt lat="37.77193038144624" lon="15.084932707263665"><ele>1448.0</ele><time>2026-04-19T08:00:39.951Z</time></trkpt><trkpt lat="37.771973978462825" lon="15.08517948070821"><ele>1445.0</ele><time>2026-04-19T08:00:40.951Z</time></trkpt><trkpt lat="37.77202038291825" lon="15.085414374085397"><ele>1445.0</ele><time>2026-04-19T08:00:41.951Z</time></trkpt><trkpt lat="37.77206661755464" lon="15.085643153303609"><ele>1445.0</ele><time>2026-04-19T08:00:42.951Z</time></trkpt><trkpt lat="37.772146053174474" lon="15.085842479323931"><ele>1445.0</ele><time>2026-04-19T08:00:43.951Z</time></trkpt><trkpt lat="37.77226615165264" lon="15.086025110306426"><ele>1442.3333333333335</ele><time>2026-04-19T08:00:44.951Z</time></trkpt><trkpt lat="37.77241076093687" lon="15.08618163277468"><ele>1439.6666666666667</ele><time>2026-04-19T08:00:45.951Z</time></trkpt><trkpt lat="37.772565777726555" lon="15.086337659086121"><ele>1437.0</ele><time>2026-04-19T08:00:46.951Z</time></trkpt><trkpt lat="37.77274426768832" lon="15.086496201749176"><ele>1430.5</ele><time>2026-04-19T08:00:47.951Z</time></trkpt><trkpt lat="37.7729399077344" lon="15.086642589416712"><ele>1424.0</ele><time>2026-04-19T08:00:48.951Z</time></trkpt><trkpt lat="37.77312959271964" lon="15.086794285067322"><ele>1424.0</ele><time>2026-04-19T08:00:49.951Z</time></trkpt><trkpt lat="37.77332929789853" lon="15.086944699381156"><ele>1424.0</ele><time>2026-04-19T08:00:50.951Z</time></trkpt><trkpt lat="37.7735431162164" lon="15.087094328695569"><ele>1424.5</ele><time>2026-04-19T08:00:51.951Z</time></trkpt><trkpt lat="37.773735354834784" lon="15.087246779422673"><ele>1425.0</ele><time>2026-04-19T08:00:52.951Z</time></trkpt><trkpt lat="37.773922968585815" lon="15.08739861298097"><ele>1420.5</ele><time>2026-04-19T08:00:53.951Z</time></trkpt><trkpt lat="37.77410450869604" lon="15.087563487987026"><ele>1416.0</ele><time>2026-04-19T08:00:54.951Z</time></trkpt><trkpt lat="37.77429558219081" lon="15.087726527913125"><ele>1417.0</ele><time>2026-04-19T08:00:55.951Z</time></trkpt><trkpt lat="37.774484358173225" lon="15.087891575564488"><ele>1418.0</ele><time>2026-04-19T08:00:56.951Z</time></trkpt><trkpt lat="37.77466899787265" lon="15.088046996749938"><ele>1418.0</ele><time>2026-04-19T08:00:57.951Z</time></trkpt><trkpt lat="37.77484081909472" lon="15.088198068798112"><ele>1418.0</ele><time>2026-04-19T08:00:58.951Z</time></trkpt><trkpt lat="37.77499927844469" lon="15.088336656267824"><ele>1418.0</ele><time>2026-04-19T08:00:59.951Z</time></trkpt><trkpt lat="37.775132074314705" lon="15.088460984933613"><ele>1413.25</ele><time>2026-04-19T08:01:00.95Z</time></trkpt><trkpt lat="37.77524338592011" lon="15.088554308352382"><ele>1408.5</ele><time>2026-04-19T08:01:01.95Z</time></trkpt><trkpt lat="37.77536925476344" lon="15.088617995084604"><ele>1403.75</ele><time>2026-04-19T08:01:02.95Z</time></trkpt><trkpt lat="37.775504451416424" lon="15.088617234448282"><ele>1399.0</ele><time>2026-04-19T08:01:03.95Z</time></trkpt><trkpt lat="37.775620886468424" lon="15.08851902189718"><ele>1399.0</ele><time>2026-04-19T08:01:04.95Z</time></trkpt><trkpt lat="37.77567450131509" lon="15.088337495017026"><ele>1399.0</ele><time>2026-04-19T08:01:05.95Z</time></trkpt><trkpt lat="37.7756328204192" lon="15.08809328524562"><ele>1399.0</ele><time>2026-04-19T08:01:06.95Z</time></trkpt><trkpt lat="37.775616354178204" lon="15.08789673060771"><ele>1401.6</ele><time>2026-04-19T08:01:07.95Z</time></trkpt><trkpt lat="37.77561995327729" lon="15.087770759136966"><ele>1404.2</ele><time>2026-04-19T08:01:08.95Z</time></trkpt><trkpt lat="37.77567375280154" lon="15.087668204570507"><ele>1406.8</ele><time>2026-04-19T08:01:09.95Z</time></trkpt><trkpt lat="37.775763326239264" lon="15.0876377068324"><ele>1409.3999999999999</ele><time>2026-04-19T08:01:10.95Z</time></trkpt><trkpt lat="37.77585365653695" lon="15.087674527994148"><ele>1412.0</ele><time>2026-04-19T08:01:11.95Z</time></trkpt><trkpt lat="37.77594639652757" lon="15.087782170190188"><ele>1412.0</ele><time>2026-04-19T08:01:12.95Z</time></trkpt><trkpt lat="37.7759917584815" lon="15.087999786114137"><ele>1412.0</ele><time>2026-04-19T08:01:13.95Z</time></trkpt><trkpt lat="37.77600792893451" lon="15.088278775870858"><ele>1412.0</ele><time>2026-04-19T08:01:14.95Z</time></trkpt><trkpt lat="37.77603183729203" lon="15.088520557881777"><ele>1407.3333333333335</ele><time>2026-04-19T08:01:15.95Z</time></trkpt><trkpt lat="37.77606459391185" lon="15.088757683069742"><ele>1402.6666666666667</ele><time>2026-04-19T08:01:16.95Z</time></trkpt><trkpt lat="37.77609808688658" lon="15.088988126518123"><ele>1398.0</ele><time>2026-04-19T08:01:17.95Z</time></trkpt><trkpt lat="37.7761381497175" lon="15.089232495680012"><ele>1396.3333333333333</ele><time>2026-04-19T08:01:18.95Z</time></trkpt><trkpt lat="37.77617311702603" lon="15.089475446131804"><ele>1394.6666666666665</ele><time>2026-04-19T08:01:19.95Z</time></trkpt><trkpt lat="37.776207448580244" lon="15.089718350230832"><ele>1393.0</ele><time>2026-04-19T08:01:20.95Z</time></trkpt><trkpt lat="37.776237459807355" lon="15.089964202107994"><ele>1391.6666666666665</ele><time>2026-04-19T08:01:21.95Z</time></trkpt><trkpt lat="37.776269049910695" lon="15.090206006164061"><ele>1390.3333333333333</ele><time>2026-04-19T08:01:22.95Z</time></trkpt><trkpt lat="37.77629328944497" lon="15.0904317995636"><ele>1389.0</ele><time>2026-04-19T08:01:23.95Z</time></trkpt><trkpt lat="37.77629881231357" lon="15.090670141965466"><ele>1386.6666666666667</ele><time>2026-04-19T08:01:24.95Z</time></trkpt><trkpt lat="37.776258452138705" lon="15.090918922900267"><ele>1384.3333333333335</ele><time>2026-04-19T08:01:25.95Z</time></trkpt><trkpt lat="37.77615007132532" lon="15.09117558412162"><ele>1382.0</ele><time>2026-04-19T08:01:26.95Z</time></trkpt><trkpt lat="37.77602678408558" lon="15.091401730394178"><ele>1379.0</ele><time>2026-04-19T08:01:27.952Z</time></trkpt><trkpt lat="37.7759116274206" lon="15.091620035292223"><ele>1376.0</ele><time>2026-04-19T08:01:28.953Z</time></trkpt><trkpt lat="37.77578686428272" lon="15.09180731090111"><ele>1373.0</ele><time>2026-04-19T08:01:29.953Z</time></trkpt><trkpt lat="37.775647269234966" lon="15.091941546503541"><ele>1373.0</ele><time>2026-04-19T08:01:30.952Z</time></trkpt><trkpt lat="37.77548501777571" lon="15.092023304128153"><ele>1373.0</ele><time>2026-04-19T08:01:31.952Z</time></trkpt><trkpt lat="37.775320012986214" lon="15.092041225955692"><ele>1373.0</ele><time>2026-04-19T08:01:32.952Z</time></trkpt><trkpt lat="37.77515115100249" lon="15.091989044279526"><ele>1373.0</ele><time>2026-04-19T08:01:33.953Z</time></trkpt><trkpt lat="37.77497893430283" lon="15.09190716547065"><ele>1373.0</ele><time>2026-04-19T08:01:34.953Z</time></trkpt><trkpt lat="37.774812025439566" lon="15.09185137744734"><ele>1373.0</ele><time>2026-04-19T08:01:35.953Z</time></trkpt><trkpt lat="37.77463484312061" lon="15.09184482293149"><ele>1373.0</ele><time>2026-04-19T08:01:36.952Z</time></trkpt><trkpt lat="37.77447231597744" lon="15.091890324191265"><ele>1373.0</ele><time>2026-04-19T08:01:37.953Z</time></trkpt><trkpt lat="37.77431023225676" lon="15.091970801994375"><ele>1373.0</ele><time>2026-04-19T08:01:38.953Z</time></trkpt><trkpt lat="37.774150961224706" lon="15.092059663796054"><ele>1374.0</ele><time>2026-04-19T08:01:39.953Z</time></trkpt><trkpt lat="37.77399899760619" lon="15.092138632990208"><ele>1375.0</ele><time>2026-04-19T08:01:40.953Z</time></trkpt><trkpt lat="37.77384270837333" lon="15.092201447737274"><ele>1376.0</ele><time>2026-04-19T08:01:41.953Z</time></trkpt><trkpt lat="37.77367318547048" lon="15.092240587437656"><ele>1376.0</ele><time>2026-04-19T08:01:42.953Z</time></trkpt><trkpt lat="37.77348839007039" lon="15.092230504414708"><ele>1376.0</ele><time>2026-04-19T08:01:43.953Z</time></trkpt><trkpt lat="37.773278401120805" lon="15.092225326013976"><ele>1376.0</ele><time>2026-04-19T08:01:44.953Z</time></trkpt><trkpt lat="37.7730687128143" lon="15.092243721071284"><ele>1376.0</ele><time>2026-04-19T08:01:45.953Z</time></trkpt><trkpt lat="37.77285463369731" lon="15.09228793452667"><ele>1376.0</ele><time>2026-04-19T08:01:46.953Z</time></trkpt><trkpt lat="37.77266022660763" lon="15.092313616743692"><ele>1376.0</ele><time>2026-04-19T08:01:47.953Z</time></trkpt><trkpt lat="37.77246743391867" lon="15.092367658367502"><ele>1374.0</ele><time>2026-04-19T08:01:48.953Z</time></trkpt><trkpt lat="37.77228808572322" lon="15.092398068139017"><ele>1372.0</ele><time>2026-04-19T08:01:49.953Z</time></trkpt><trkpt lat="37.77210803737833" lon="15.09239625596436"><ele>1370.0</ele><time>2026-04-19T08:01:50.953Z</time></trkpt><trkpt lat="37.77192933415502" lon="15.092330001380521"><ele>1367.0</ele><time>2026-04-19T08:01:51.953Z</time></trkpt><trkpt lat="37.77174696634257" lon="15.092214373626414"><ele>1364.0</ele><time>2026-04-19T08:01:52.953Z</time></trkpt><trkpt lat="37.77156177420605" lon="15.09204599380631"><ele>1361.0</ele><time>2026-04-19T08:01:53.953Z</time></trkpt><trkpt lat="37.77142867739371" lon="15.091764123621907"><ele>1361.0</ele><time>2026-04-19T08:01:54.952Z</time></trkpt><trkpt lat="37.77123181941397" lon="15.091654651856622"><ele>1361.0</ele><time>2026-04-19T08:01:55.952Z</time></trkpt><trkpt lat="37.77102637399908" lon="15.091572755745796"><ele>1361.0</ele><time>2026-04-19T08:01:56.952Z</time></trkpt><trkpt lat="37.77083072044965" lon="15.09153106269675"><ele>1365.0</ele><time>2026-04-19T08:01:57.952Z</time></trkpt><trkpt lat="37.770646441038586" lon="15.09150094554183"><ele>1369.0</ele><time>2026-04-19T08:01:58.952Z</time></trkpt><trkpt lat="37.77045881037748" lon="15.091476996257843"><ele>1373.0</ele><time>2026-04-19T08:01:59.952Z</time></trkpt><trkpt lat="37.770271647357845" lon="15.091439637453185"><ele>1370.0</ele><time>2026-04-19T08:02:00.952Z</time></trkpt><trkpt lat="37.77009590636526" lon="15.091400458386758"><ele>1367.0</ele><time>2026-04-19T08:02:01.952Z</time></trkpt><trkpt lat="37.76992381851679" lon="15.091368958338029"><ele>1364.0</ele><time>2026-04-19T08:02:02.952Z</time></trkpt><trkpt lat="37.76975313596476" lon="15.091347437218902"><ele>1364.0</ele><time>2026-04-19T08:02:03.952Z</time></trkpt><trkpt lat="37.76960577994523" lon="15.091316272654083"><ele>1364.0</ele><time>2026-04-19T08:02:04.952Z</time></trkpt><trkpt lat="37.769479691366485" lon="15.091252822476152"><ele>1364.0</ele><time>2026-04-19T08:02:05.952Z</time></trkpt><trkpt lat="37.769367782184155" lon="15.091147191742884"><ele>1364.0</ele><time>2026-04-19T08:02:06.952Z</time></trkpt><trkpt lat="37.76927748560964" lon="15.090997275452356"><ele>1365.0</ele><time>2026-04-19T08:02:07.952Z</time></trkpt><trkpt lat="37.76918869976534" lon="15.090830888939696"><ele>1366.0</ele><time>2026-04-19T08:02:08.952Z</time></trkpt><trkpt lat="37.76905369196287" lon="15.090694018753405"><ele>1367.0</ele><time>2026-04-19T08:02:09.952Z</time></trkpt><trkpt lat="37.76887742955107" lon="15.09062580315627"><ele>1367.0</ele><time>2026-04-19T08:02:10.952Z</time></trkpt><trkpt lat="37.76870905673689" lon="15.090609644980553"><ele>1367.0</ele><time>2026-04-19T08:02:11.952Z</time></trkpt><trkpt lat="37.76853540835673" lon="15.090611881824088"><ele>1367.0</ele><time>2026-04-19T08:02:12.952Z</time></trkpt><trkpt lat="37.76840957424436" lon="15.090560363798057"><ele>1357.0</ele><time>2026-04-19T08:02:13.952Z</time></trkpt><trkpt lat="37.76830031864046" lon="15.090451617940104"><ele>1347.0</ele><time>2026-04-19T08:02:14.952Z</time></trkpt><trkpt lat="37.76823460684076" lon="15.090243509226731"><ele>1337.0</ele><time>2026-04-19T08:02:15.952Z</time></trkpt><trkpt lat="37.768165184132506" lon="15.090041533571014"><ele>1344.0</ele><time>2026-04-19T08:02:16.952Z</time></trkpt><trkpt lat="37.76809094613088" lon="15.089887925036866"><ele>1351.0</ele><time>2026-04-19T08:02:17.952Z</time></trkpt><trkpt lat="37.76796739967451" lon="15.089765281493863"><ele>1358.0</ele><time>2026-04-19T08:02:18.952Z</time></trkpt><trkpt lat="37.76783288359136" lon="15.089670866167468"><ele>1348.3333333333335</ele><time>2026-04-19T08:02:19.952Z</time></trkpt><trkpt lat="37.767658802512976" lon="15.089559546487536"><ele>1338.6666666666667</ele><time>2026-04-19T08:02:20.952Z</time></trkpt><trkpt lat="37.767485979241336" lon="15.089383931161166"><ele>1329.0</ele><time>2026-04-19T08:02:21.952Z</time></trkpt><trkpt lat="37.767330392993884" lon="15.089216416623456"><ele>1327.6666666666667</ele><time>2026-04-19T08:02:22.952Z</time></trkpt><trkpt lat="37.76716806309627" lon="15.089082046600831"><ele>1326.3333333333335</ele><time>2026-04-19T08:02:23.952Z</time></trkpt><trkpt lat="37.766972054887695" lon="15.089035462677304"><ele>1325.0</ele><time>2026-04-19T08:02:24.951Z</time></trkpt><trkpt lat="37.766754889941474" lon="15.088981926983445"><ele>1325.0</ele><time>2026-04-19T08:02:25.951Z</time></trkpt><trkpt lat="37.766531847138936" lon="15.0888718449633"><ele>1325.0</ele><time>2026-04-19T08:02:26.951Z</time></trkpt><trkpt lat="37.76632268488129" lon="15.088737172971575"><ele>1325.0</ele><time>2026-04-19T08:02:27.951Z</time></trkpt><trkpt lat="37.766131025699266" lon="15.088607389517847"><ele>1325.0</ele><time>2026-04-19T08:02:28.951Z</time></trkpt><trkpt lat="37.765944950859755" lon="15.08847231900006"><ele>1325.0</ele><time>2026-04-19T08:02:29.951Z</time></trkpt><trkpt lat="37.765768777434424" lon="15.088340047939742"><ele>1323.6666666666667</ele><time>2026-04-19T08:02:30.951Z</time></trkpt><trkpt lat="37.76560607824181" lon="15.088200917325048"><ele>1322.3333333333333</ele><time>2026-04-19T08:02:31.951Z</time></trkpt><trkpt lat="37.765454996445875" lon="15.08805076736021"><ele>1321.0</ele><time>2026-04-19T08:02:32.951Z</time></trkpt><trkpt lat="37.76531194814356" lon="15.087896805699652"><ele>1318.3333333333333</ele><time>2026-04-19T08:02:33.951Z</time></trkpt><trkpt lat="37.76518675465383" lon="15.087706784576806"><ele>1315.6666666666667</ele><time>2026-04-19T08:02:34.951Z</time></trkpt><trkpt lat="37.765032673513744" lon="15.0875530813103"><ele>1313.0</ele><time>2026-04-19T08:02:35.951Z</time></trkpt><trkpt lat="37.76486264658682" lon="15.087414936896417"><ele>1313.0</ele><time>2026-04-19T08:02:36.951Z</time></trkpt><trkpt lat="37.76467390867934" lon="15.087315886423445"><ele>1313.0</ele><time>2026-04-19T08:02:37.951Z</time></trkpt><trkpt lat="37.76445424546554" lon="15.087224548808265"><ele>1313.0</ele><time>2026-04-19T08:02:38.951Z</time></trkpt><trkpt lat="37.76423280844458" lon="15.087116823818015"><ele>1303.5</ele><time>2026-04-19T08:02:39.951Z</time></trkpt><trkpt lat="37.76401523215873" lon="15.08697938127037"><ele>1294.0</ele><time>2026-04-19T08:02:40.951Z</time></trkpt><trkpt lat="37.763807102525526" lon="15.08683369267667"><ele>1294.0</ele><time>2026-04-19T08:02:41.951Z</time></trkpt><trkpt lat="37.76360656378895" lon="15.086693152418993"><ele>1294.0</ele><time>2026-04-19T08:02:42.951Z</time></trkpt><trkpt lat="37.76341706530801" lon="15.086560257083132"><ele>1294.0</ele><time>2026-04-19T08:02:43.951Z</time></trkpt><trkpt lat="37.76323621992828" lon="15.086433288135115"><ele>1291.0</ele><time>2026-04-19T08:02:44.951Z</time></trkpt><trkpt lat="37.763061633406274" lon="15.086308411580639"><ele>1288.0</ele><time>2026-04-19T08:02:45.951Z</time></trkpt><trkpt lat="37.762890292138295" lon="15.086187496184351"><ele>1285.0</ele><time>2026-04-19T08:02:46.951Z</time></trkpt><trkpt lat="37.7627252741777" lon="15.086072900424222"><ele>1285.6666666666665</ele><time>2026-04-19T08:02:47.951Z</time></trkpt><trkpt lat="37.762560192065045" lon="15.08595859400954"><ele>1286.3333333333333</ele><time>2026-04-19T08:02:48.951Z</time></trkpt><trkpt lat="37.76238608270985" lon="15.085860170676836"><ele>1287.0</ele><time>2026-04-19T08:02:49.951Z</time></trkpt><trkpt lat="37.76222165071197" lon="15.085751162040005"><ele>1287.0</ele><time>2026-04-19T08:02:50.951Z</time></trkpt><trkpt lat="37.76205251253305" lon="15.085659465065394"><ele>1287.0</ele><time>2026-04-19T08:02:51.951Z</time></trkpt><trkpt lat="37.76187373591682" lon="15.085585317218131"><ele>1287.0</ele><time>2026-04-19T08:02:52.95Z</time></trkpt><trkpt lat="37.76166962525985" lon="15.08553654416772"><ele>1285.3333333333333</ele><time>2026-04-19T08:02:53.95Z</time></trkpt><trkpt lat="37.76147148251839" lon="15.085494624805635"><ele>1283.6666666666665</ele><time>2026-04-19T08:02:54.95Z</time></trkpt><trkpt lat="37.76125071101919" lon="15.085473985425965"><ele>1282.0</ele><time>2026-04-19T08:02:55.95Z</time></trkpt><trkpt lat="37.76104530701956" lon="15.08544198472201"><ele>1279.3333333333333</ele><time>2026-04-19T08:02:56.95Z</time></trkpt><trkpt lat="37.760840602070594" lon="15.085416802564916"><ele>1276.6666666666667</ele><time>2026-04-19T08:02:57.95Z</time></trkpt><trkpt lat="37.7606448013358" lon="15.085384174361721"><ele>1274.0</ele><time>2026-04-19T08:02:58.95Z</time></trkpt><trkpt lat="37.760472265353776" lon="15.085350757780738"><ele>1274.0</ele><time>2026-04-19T08:02:59.95Z</time></trkpt><trkpt lat="37.76030736288069" lon="15.085341103905616"><ele>1274.0</ele><time>2026-04-19T08:03:00.95Z</time></trkpt><trkpt lat="37.760140879432875" lon="15.08541675940246"><ele>1274.0</ele><time>2026-04-19T08:03:01.95Z</time></trkpt><trkpt lat="37.7599517114882" lon="15.085529863416387"><ele>1273.0</ele><time>2026-04-19T08:03:02.95Z</time></trkpt><trkpt lat="37.75974735276429" lon="15.085651595617644"><ele>1272.0</ele><time>2026-04-19T08:03:03.95Z</time></trkpt><trkpt lat="37.759536131696414" lon="15.085777415644552"><ele>1265.0</ele><time>2026-04-19T08:03:04.95Z</time></trkpt><trkpt lat="37.75934567675845" lon="15.085890865650661"><ele>1258.0</ele><time>2026-04-19T08:03:05.95Z</time></trkpt><trkpt lat="37.75916163210174" lon="15.0859994338037"><ele>1251.0</ele><time>2026-04-19T08:03:06.95Z</time></trkpt><trkpt lat="37.75898251376731" lon="15.08612092534822"><ele>1251.0</ele><time>2026-04-19T08:03:07.95Z</time></trkpt><trkpt lat="37.75880283577686" lon="15.086208011940247"><ele>1251.0</ele><time>2026-04-19T08:03:08.95Z</time></trkpt><trkpt lat="37.75862014577903" lon="15.0862840083524"><ele>1251.0</ele><time>2026-04-19T08:03:09.95Z</time></trkpt><trkpt lat="37.75843527573254" lon="15.086318020573856"><ele>1249.6666666666667</ele><time>2026-04-19T08:03:10.95Z</time></trkpt><trkpt lat="37.758255027970286" lon="15.086263350923469"><ele>1248.3333333333335</ele><time>2026-04-19T08:03:11.95Z</time></trkpt><trkpt lat="37.75806210314836" lon="15.086171750583965"><ele>1247.0</ele><time>2026-04-19T08:03:12.95Z</time></trkpt><trkpt lat="37.75785751607967" lon="15.086094488070191"><ele>1243.6666666666667</ele><time>2026-04-19T08:03:13.95Z</time></trkpt><trkpt lat="37.75768047474543" lon="15.086079099925758"><ele>1240.3333333333333</ele><time>2026-04-19T08:03:14.95Z</time></trkpt><trkpt lat="37.75751240697159" lon="15.0860270645377"><ele>1237.0</ele><time>2026-04-19T08:03:15.95Z</time></trkpt><trkpt lat="37.75731748960791" lon="15.086073614484226"><ele>1237.0</ele><time>2026-04-19T08:03:16.95Z</time></trkpt><trkpt lat="37.75710361762502" lon="15.086159258225484"><ele>1237.0</ele><time>2026-04-19T08:03:17.95Z</time></trkpt><trkpt lat="37.75689925631928" lon="15.086195619069748"><ele>1237.0</ele><time>2026-04-19T08:03:18.95Z</time></trkpt><trkpt lat="37.75670866005975" lon="15.086249568320609"><ele>1234.3333333333333</ele><time>2026-04-19T08:03:19.95Z</time></trkpt><trkpt lat="37.756524067605" lon="15.08629875132266"><ele>1231.6666666666667</ele><time>2026-04-19T08:03:20.95Z</time></trkpt><trkpt lat="37.75633143753884" lon="15.08637185179056"><ele>1229.0</ele><time>2026-04-19T08:03:21.95Z</time></trkpt><trkpt lat="37.75612459189491" lon="15.086463201489789"><ele>1227.0</ele><time>2026-04-19T08:03:22.949Z</time></trkpt><trkpt lat="37.75588885570005" lon="15.086574783235832"><ele>1225.0</ele><time>2026-04-19T08:03:23.949Z</time></trkpt><trkpt lat="37.755634342929554" lon="15.08667939972351"><ele>1219.5</ele><time>2026-04-19T08:03:24.949Z</time></trkpt><trkpt lat="37.755375918766916" lon="15.086753452870479"><ele>1214.0</ele><time>2026-04-19T08:03:25.949Z</time></trkpt><trkpt lat="37.7551380671088" lon="15.08685693565761"><ele>1212.0</ele><time>2026-04-19T08:03:26.949Z</time></trkpt><trkpt lat="37.75491056352416" lon="15.08694319346112"><ele>1210.0</ele><time>2026-04-19T08:03:27.949Z</time></trkpt><trkpt lat="37.75469558354335" lon="15.087019220965175"><ele>1210.0</ele><time>2026-04-19T08:03:28.949Z</time></trkpt><trkpt lat="37.75450163303292" lon="15.087077267300407"><ele>1210.0</ele><time>2026-04-19T08:03:29.949Z</time></trkpt><trkpt lat="37.75432031929348" lon="15.087121649963018"><ele>1210.0</ele><time>2026-04-19T08:03:30.949Z</time></trkpt><trkpt lat="37.75414138917474" lon="15.087090354120164"><ele>1209.3333333333333</ele><time>2026-04-19T08:03:31.949Z</time></trkpt><trkpt lat="37.753953710209764" lon="15.087072982916832"><ele>1208.6666666666667</ele><time>2026-04-19T08:03:32.949Z</time></trkpt><trkpt lat="37.7537486718615" lon="15.08706331625012"><ele>1208.0</ele><time>2026-04-19T08:03:33.952Z</time></trkpt><trkpt lat="37.75353180301503" lon="15.087023298091523"><ele>1204.0</ele><time>2026-04-19T08:03:34.952Z</time></trkpt><trkpt lat="37.7533123411908" lon="15.086931408643864"><ele>1200.0</ele><time>2026-04-19T08:03:35.952Z</time></trkpt><trkpt lat="37.753082285754594" lon="15.086856478365783"><ele>1200.0</ele><time>2026-04-19T08:03:36.951Z</time></trkpt><trkpt lat="37.75285549407792" lon="15.086782611112245"><ele>1200.0</ele><time>2026-04-19T08:03:37.951Z</time></trkpt><trkpt lat="37.752640153458124" lon="15.086713623538136"><ele>1200.0</ele><time>2026-04-19T08:03:38.951Z</time></trkpt><trkpt lat="37.7524281458112" lon="15.086665780108705"><ele>1200.0</ele><time>2026-04-19T08:03:39.951Z</time></trkpt><trkpt lat="37.75223050320087" lon="15.086604713338446"><ele>1200.0</ele><time>2026-04-19T08:03:40.951Z</time></trkpt><trkpt lat="37.75204063955134" lon="15.08654187440809"><ele>1197.0</ele><time>2026-04-19T08:03:41.951Z</time></trkpt><trkpt lat="37.75185651635399" lon="15.086475365047828"><ele>1194.0</ele><time>2026-04-19T08:03:42.951Z</time></trkpt><trkpt lat="37.751693005278014" lon="15.086383331608973"><ele>1191.0</ele><time>2026-04-19T08:03:43.951Z</time></trkpt><trkpt lat="37.7515620785227" lon="15.086261926667191"><ele>1191.0</ele><time>2026-04-19T08:03:44.951Z</time></trkpt><trkpt lat="37.75145502704218" lon="15.08611687101218"><ele>1191.0</ele><time>2026-04-19T08:03:45.951Z</time></trkpt><trkpt lat="37.751360024617014" lon="15.086012165415465"><ele>1191.0</ele><time>2026-04-19T08:03:46.951Z</time></trkpt><trkpt lat="37.751259700500476" lon="15.086004538245072"><ele>1191.0</ele><time>2026-04-19T08:03:47.951Z</time></trkpt><trkpt lat="37.7511534065327" lon="15.086067723109693"><ele>1191.0</ele><time>2026-04-19T08:03:48.951Z</time></trkpt><trkpt lat="37.75104593906895" lon="15.086244332871912"><ele>1191.0</ele><time>2026-04-19T08:03:49.951Z</time></trkpt><trkpt lat="37.75093934371079" lon="15.086484274482734"><ele>1191.0</ele><time>2026-04-19T08:03:50.951Z</time></trkpt><trkpt lat="37.75080295894952" lon="15.086699488430696"><ele>1188.0</ele><time>2026-04-19T08:03:51.951Z</time></trkpt><trkpt lat="37.7506781129916" lon="15.086900007684099"><ele>1185.0</ele><time>2026-04-19T08:03:52.951Z</time></trkpt><trkpt lat="37.75054950837829" lon="15.08707004448433"><ele>1182.0</ele><time>2026-04-19T08:03:53.951Z</time></trkpt><trkpt lat="37.7504080431976" lon="15.087237151451975"><ele>1182.0</ele><time>2026-04-19T08:03:54.951Z</time></trkpt><trkpt lat="37.75024266295812" lon="15.087402325157484"><ele>1182.0</ele><time>2026-04-19T08:03:55.951Z</time></trkpt><trkpt lat="37.75005629853333" lon="15.087548995314025"><ele>1182.0</ele><time>2026-04-19T08:03:56.951Z</time></trkpt><trkpt lat="37.7498618508243" lon="15.08765257152534"><ele>1179.0</ele><time>2026-04-19T08:03:57.951Z</time></trkpt><trkpt lat="37.749665160979006" lon="15.08769608987775"><ele>1176.0</ele><time>2026-04-19T08:03:58.951Z</time></trkpt><trkpt lat="37.74945675666614" lon="15.087728316041087"><ele>1173.0</ele><time>2026-04-19T08:03:59.951Z</time></trkpt><trkpt lat="37.7492444092226" lon="15.087712781766049"><ele>1169.6666666666667</ele><time>2026-04-19T08:04:00.951Z</time></trkpt><trkpt lat="37.7490310238695" lon="15.087665110058254"><ele>1166.3333333333335</ele><time>2026-04-19T08:04:01.951Z</time></trkpt><trkpt lat="37.74882242021919" lon="15.087602278714236"><ele>1163.0</ele><time>2026-04-19T08:04:02.951Z</time></trkpt><trkpt lat="37.74864357349375" lon="15.08758973122473"><ele>1161.3333333333335</ele><time>2026-04-19T08:04:03.95Z</time></trkpt><trkpt lat="37.748476330259784" lon="15.087626577359119"><ele>1159.6666666666667</ele><time>2026-04-19T08:04:04.95Z</time></trkpt><trkpt lat="37.74831769676495" lon="15.087700414564994"><ele>1158.0</ele><time>2026-04-19T08:04:05.95Z</time></trkpt><trkpt lat="37.74817867010457" lon="15.087798083177775"><ele>1158.0</ele><time>2026-04-19T08:04:06.95Z</time></trkpt><trkpt lat="37.74804109814341" lon="15.08790277770695"><ele>1158.0</ele><time>2026-04-19T08:04:07.95Z</time></trkpt><trkpt lat="37.74791780321389" lon="15.087994631556258"><ele>1158.0</ele><time>2026-04-19T08:04:08.95Z</time></trkpt><trkpt lat="37.747820618538036" lon="15.088096900996442"><ele>1158.0</ele><time>2026-04-19T08:04:09.95Z</time></trkpt><trkpt lat="37.74778559171382" lon="15.088246022899291"><ele>1156.6666666666667</ele><time>2026-04-19T08:04:10.95Z</time></trkpt><trkpt lat="37.747848713015046" lon="15.088463238344026"><ele>1155.3333333333335</ele><time>2026-04-19T08:04:11.95Z</time></trkpt><trkpt lat="37.747929104135295" lon="15.08866571519557"><ele>1154.0</ele><time>2026-04-19T08:04:12.95Z</time></trkpt><trkpt lat="37.748043282818216" lon="15.088771482461539"><ele>1154.0</ele><time>2026-04-19T08:04:13.95Z</time></trkpt><trkpt lat="37.74820081890034" lon="15.088837994866834"><ele>1154.0</ele><time>2026-04-19T08:04:14.95Z</time></trkpt><trkpt lat="37.74838930157802" lon="15.088834755726616"><ele>1154.0</ele><time>2026-04-19T08:04:15.95Z</time></trkpt><trkpt lat="37.74858994413757" lon="15.088815996513482"><ele>1153.3333333333335</ele><time>2026-04-19T08:04:16.95Z</time></trkpt><trkpt lat="37.74875272851805" lon="15.088865945348042"><ele>1152.6666666666667</ele><time>2026-04-19T08:04:17.95Z</time></trkpt><trkpt lat="37.74893763985651" lon="15.088970749380515"><ele>1152.0</ele><time>2026-04-19T08:04:18.95Z</time></trkpt><trkpt lat="37.74911567700139" lon="15.089123716795536"><ele>1152.0</ele><time>2026-04-19T08:04:19.95Z</time></trkpt><trkpt lat="37.749261316570596" lon="15.089285264264449"><ele>1152.0</ele><time>2026-04-19T08:04:20.95Z</time></trkpt><trkpt lat="37.74941200466734" lon="15.089414383012578"><ele>1152.0</ele><time>2026-04-19T08:04:21.95Z</time></trkpt><trkpt lat="37.74957698558331" lon="15.089519112254395"><ele>1153.3333333333333</ele><time>2026-04-19T08:04:22.95Z</time></trkpt><trkpt lat="37.749723746179605" lon="15.089606793366185"><ele>1154.6666666666665</ele><time>2026-04-19T08:04:23.95Z</time></trkpt><trkpt lat="37.74986443667349" lon="15.089732107317674"><ele>1156.0</ele><time>2026-04-19T08:04:24.95Z</time></trkpt><trkpt lat="37.749978469072055" lon="15.08995154615677"><ele>1148.0</ele><time>2026-04-19T08:04:25.95Z</time></trkpt><trkpt lat="37.75006451893361" lon="15.090230113035268"><ele>1140.0</ele><time>2026-04-19T08:04:26.95Z</time></trkpt><trkpt lat="37.75017342037244" lon="15.090463611505664"><ele>1139.6666666666667</ele><time>2026-04-19T08:04:27.95Z</time></trkpt><trkpt lat="37.750285038613654" lon="15.090685247135605"><ele>1139.3333333333335</ele><time>2026-04-19T08:04:28.95Z</time></trkpt><trkpt lat="37.750400133160824" lon="15.090883405916957"><ele>1139.0</ele><time>2026-04-19T08:04:29.95Z</time></trkpt><trkpt lat="37.75053021928687" lon="15.091074427996201"><ele>1139.0</ele><time>2026-04-19T08:04:30.95Z</time></trkpt><trkpt lat="37.750652285405415" lon="15.091275445270641"><ele>1139.0</ele><time>2026-04-19T08:04:31.95Z</time></trkpt><trkpt lat="37.75074854324972" lon="15.091493949818682"><ele>1139.0</ele><time>2026-04-19T08:04:32.95Z</time></trkpt><trkpt lat="37.750826331506424" lon="15.091753946794507"><ele>1136.6666666666667</ele><time>2026-04-19T08:04:33.949Z</time></trkpt><trkpt lat="37.75087709322633" lon="15.092020207310691"><ele>1134.3333333333333</ele><time>2026-04-19T08:04:34.949Z</time></trkpt><trkpt lat="37.75091934535593" lon="15.092267281473406"><ele>1132.0</ele><time>2026-04-19T08:04:35.949Z</time></trkpt><trkpt lat="37.75097469082091" lon="15.092480754950424"><ele>1131.0</ele><time>2026-04-19T08:04:36.949Z</time></trkpt><trkpt lat="37.751052294771966" lon="15.092673940151185"><ele>1130.0</ele><time>2026-04-19T08:04:37.949Z</time></trkpt><trkpt lat="37.75117190440651" lon="15.092866302679756"><ele>1129.0</ele><time>2026-04-19T08:04:38.949Z</time></trkpt><trkpt lat="37.751323189372336" lon="15.09305587303926"><ele>1129.0</ele><time>2026-04-19T08:04:39.949Z</time></trkpt><trkpt lat="37.75146940823254" lon="15.093251888591317"><ele>1129.0</ele><time>2026-04-19T08:04:40.949Z</time></trkpt><trkpt lat="37.75160227385333" lon="15.093448880600297"><ele>1129.0</ele><time>2026-04-19T08:04:41.949Z</time></trkpt><trkpt lat="37.7517277780401" lon="15.093651772332805"><ele>1127.6666666666665</ele><time>2026-04-19T08:04:42.949Z</time></trkpt><trkpt lat="37.751827349362834" lon="15.093867221910878"><ele>1126.3333333333333</ele><time>2026-04-19T08:04:43.949Z</time></trkpt><trkpt lat="37.751905199367194" lon="15.09408205026947"><ele>1125.0</ele><time>2026-04-19T08:04:44.949Z</time></trkpt><trkpt lat="37.751979144414705" lon="15.094271688749343"><ele>1121.6666666666667</ele><time>2026-04-19T08:04:45.949Z</time></trkpt><trkpt lat="37.75209233797967" lon="15.094441555427677"><ele>1118.3333333333335</ele><time>2026-04-19T08:04:46.949Z</time></trkpt><trkpt lat="37.752252904360034" lon="15.094610275055526"><ele>1115.0</ele><time>2026-04-19T08:04:47.949Z</time></trkpt><trkpt lat="37.75239905743061" lon="15.094768849729947"><ele>1115.0</ele><time>2026-04-19T08:04:48.949Z</time></trkpt><trkpt lat="37.75253071241292" lon="15.094917053024336"><ele>1115.0</ele><time>2026-04-19T08:04:49.949Z</time></trkpt><trkpt lat="37.75262390205876" lon="15.095057940960775"><ele>1115.0</ele><time>2026-04-19T08:04:50.949Z</time></trkpt><trkpt lat="37.752698107415014" lon="15.095221908017034"><ele>1114.6666666666667</ele><time>2026-04-19T08:04:51.949Z</time></trkpt><trkpt lat="37.752778846502736" lon="15.095415084476533"><ele>1114.3333333333333</ele><time>2026-04-19T08:04:52.949Z</time></trkpt><trkpt lat="37.75285097072468" lon="15.095615932719308"><ele>1114.0</ele><time>2026-04-19T08:04:53.949Z</time></trkpt><trkpt lat="37.75293093984085" lon="15.095799861693717"><ele>1110.6666666666665</ele><time>2026-04-19T08:04:54.949Z</time></trkpt><trkpt lat="37.75301913746563" lon="15.095976006988257"><ele>1107.3333333333333</ele><time>2026-04-19T08:04:55.949Z</time></trkpt><trkpt lat="37.753126452869374" lon="15.096153045793303"><ele>1104.0</ele><time>2026-04-19T08:04:56.949Z</time></trkpt><trkpt lat="37.75327697284796" lon="15.096306727570376"><ele>1104.0</ele><time>2026-04-19T08:04:57.949Z</time></trkpt><trkpt lat="37.7534647509105" lon="15.096454868463315"><ele>1104.0</ele><time>2026-04-19T08:04:58.949Z</time></trkpt><trkpt lat="37.75364017424149" lon="15.096617643895812"><ele>1104.0</ele><time>2026-04-19T08:04:59.949Z</time></trkpt><trkpt lat="37.753797713263495" lon="15.09676523267246"><ele>1101.0</ele><time>2026-04-19T08:05:00.949Z</time></trkpt><trkpt lat="37.75394525541554" lon="15.096907792039838"><ele>1098.0</ele><time>2026-04-19T08:05:01.949Z</time></trkpt><trkpt lat="37.75409137476487" lon="15.09705202735192"><ele>1095.0</ele><time>2026-04-19T08:05:02.949Z</time></trkpt><trkpt lat="37.75423836434569" lon="15.097201688020016"><ele>1095.6666666666667</ele><time>2026-04-19T08:05:03.948Z</time></trkpt><trkpt lat="37.75437811824534" lon="15.097346690386935"><ele>1096.3333333333335</ele><time>2026-04-19T08:05:04.948Z</time></trkpt><trkpt lat="37.75451675473111" lon="15.097490917025636"><ele>1097.0</ele><time>2026-04-19T08:05:05.948Z</time></trkpt><trkpt lat="37.7546511740814" lon="15.097628064509628"><ele>1094.5</ele><time>2026-04-19T08:05:06.948Z</time></trkpt><trkpt lat="37.75478273004674" lon="15.097745803560423"><ele>1092.0</ele><time>2026-04-19T08:05:07.948Z</time></trkpt><trkpt lat="37.75490185479859" lon="15.097849222485548"><ele>1089.5</ele><time>2026-04-19T08:05:08.948Z</time></trkpt><trkpt lat="37.75501743476308" lon="15.097942531371217"><ele>1087.0</ele><time>2026-04-19T08:05:09.948Z</time></trkpt><trkpt lat="37.755148059204814" lon="15.097963450612236"><ele>1086.4</ele><time>2026-04-19T08:05:10.948Z</time></trkpt><trkpt lat="37.755267106943755" lon="15.097999397208394"><ele>1085.8000000000002</ele><time>2026-04-19T08:05:11.948Z</time></trkpt><trkpt lat="37.75538659641905" lon="15.098020452383963"><ele>1085.2</ele><time>2026-04-19T08:05:12.948Z</time></trkpt><trkpt lat="37.755461380111925" lon="15.098085921065662"><ele>1084.6000000000001</ele><time>2026-04-19T08:05:13.948Z</time></trkpt><trkpt lat="37.755494819199626" lon="15.09819484262407"><ele>1084.0</ele><time>2026-04-19T08:05:14.948Z</time></trkpt><trkpt lat="37.75544383531506" lon="15.098359427861922"><ele>1081.25</ele><time>2026-04-19T08:05:15.948Z</time></trkpt><trkpt lat="37.755355889498496" lon="15.098454732455615"><ele>1078.5</ele><time>2026-04-19T08:05:16.948Z</time></trkpt><trkpt lat="37.75522919019993" lon="15.098479362667229"><ele>1075.75</ele><time>2026-04-19T08:05:17.948Z</time></trkpt><trkpt lat="37.75508876228462" lon="15.098446373343892"><ele>1073.0</ele><time>2026-04-19T08:05:18.948Z</time></trkpt><trkpt lat="37.75493889238894" lon="15.098387656540929"><ele>1072.3333333333335</ele><time>2026-04-19T08:05:19.948Z</time></trkpt><trkpt lat="37.75478316455777" lon="15.098313587173925"><ele>1071.6666666666667</ele><time>2026-04-19T08:05:20.948Z</time></trkpt><trkpt lat="37.75460500227036" lon="15.098255323341197"><ele>1071.0</ele><time>2026-04-19T08:05:21.948Z</time></trkpt><trkpt lat="37.75442872050132" lon="15.098214764592434"><ele>1074.3333333333333</ele><time>2026-04-19T08:05:22.948Z</time></trkpt><trkpt lat="37.75424762500147" lon="15.098195852188775"><ele>1077.6666666666665</ele><time>2026-04-19T08:05:23.948Z</time></trkpt><trkpt lat="37.75407005264493" lon="15.098186130737908"><ele>1081.0</ele><time>2026-04-19T08:05:24.948Z</time></trkpt><trkpt lat="37.75389939361544" lon="15.09816598107551"><ele>1081.0</ele><time>2026-04-19T08:05:25.948Z</time></trkpt><trkpt lat="37.753733850610516" lon="15.098156440788053"><ele>1081.0</ele><time>2026-04-19T08:05:26.948Z</time></trkpt><trkpt lat="37.753568117632895" lon="15.098143633857584"><ele>1081.0</ele><time>2026-04-19T08:05:27.948Z</time></trkpt><trkpt lat="37.753389126291246" lon="15.098131485860796"><ele>1077.6666666666665</ele><time>2026-04-19T08:05:28.948Z</time></trkpt><trkpt lat="37.75319059269166" lon="15.098136895511027"><ele>1074.3333333333333</ele><time>2026-04-19T08:05:29.948Z</time></trkpt><trkpt lat="37.75299625490677" lon="15.09812101562019"><ele>1071.0</ele><time>2026-04-19T08:05:30.948Z</time></trkpt><trkpt lat="37.75280392794283" lon="15.09811317401882"><ele>1067.3333333333333</ele><time>2026-04-19T08:05:31.948Z</time></trkpt><trkpt lat="37.752598310847766" lon="15.0980962401461"><ele>1063.6666666666665</ele><time>2026-04-19T08:05:32.948Z</time></trkpt><trkpt lat="37.75238444950457" lon="15.098085201623151"><ele>1060.0</ele><time>2026-04-19T08:05:33.948Z</time></trkpt><trkpt lat="37.752164936661444" lon="15.098076801037019"><ele>1060.0</ele><time>2026-04-19T08:05:34.947Z</time></trkpt><trkpt lat="37.751950894363915" lon="15.098071173820953"><ele>1060.0</ele><time>2026-04-19T08:05:35.947Z</time></trkpt><trkpt lat="37.751738866046644" lon="15.098060692857842"><ele>1060.0</ele><time>2026-04-19T08:05:36.947Z</time></trkpt><trkpt lat="37.75152521081155" lon="15.098055810509623"><ele>1059.3333333333333</ele><time>2026-04-19T08:05:37.947Z</time></trkpt><trkpt lat="37.75131083167065" lon="15.098054509467019"><ele>1058.6666666666667</ele><time>2026-04-19T08:05:38.947Z</time></trkpt><trkpt lat="37.75110748341682" lon="15.098049832399779"><ele>1058.0</ele><time>2026-04-19T08:05:39.95Z</time></trkpt><trkpt lat="37.750904807147265" lon="15.098059079836009"><ele>1055.3333333333335</ele><time>2026-04-19T08:05:40.949Z</time></trkpt><trkpt lat="37.750712801099596" lon="15.098073057927742"><ele>1052.6666666666667</ele><time>2026-04-19T08:05:41.949Z</time></trkpt><trkpt lat="37.75053281679598" lon="15.098101030416007"><ele>1050.0</ele><time>2026-04-19T08:05:42.95Z</time></trkpt><trkpt lat="37.75035978565949" lon="15.098138250226825"><ele>1049.0</ele><time>2026-04-19T08:05:43.949Z</time></trkpt><trkpt lat="37.75019462110774" lon="15.098161844677382"><ele>1048.0</ele><time>2026-04-19T08:05:44.949Z</time></trkpt><trkpt lat="37.75004555671603" lon="15.098211975481187"><ele>1047.0</ele><time>2026-04-19T08:05:45.949Z</time></trkpt><trkpt lat="37.749892523595335" lon="15.098299365633961"><ele>1043.0</ele><time>2026-04-19T08:05:46.949Z</time></trkpt><trkpt lat="37.749759608540984" lon="15.098419168475754"><ele>1039.0</ele><time>2026-04-19T08:05:47.949Z</time></trkpt><trkpt lat="37.74964051748365" lon="15.098556592076237"><ele>1035.0</ele><time>2026-04-19T08:05:48.949Z</time></trkpt><trkpt lat="37.74955980888061" lon="15.098725431659846"><ele>1035.0</ele><time>2026-04-19T08:05:49.949Z</time></trkpt><trkpt lat="37.74954160946538" lon="15.098938159258644"><ele>1035.0</ele><time>2026-04-19T08:05:50.949Z</time></trkpt><trkpt lat="37.749526972597074" lon="15.09914135412118"><ele>1035.0</ele><time>2026-04-19T08:05:51.95Z</time></trkpt><trkpt lat="37.749474488121976" lon="15.099299374795219"><ele>1031.3333333333333</ele><time>2026-04-19T08:05:52.95Z</time></trkpt><trkpt lat="37.749385912718104" lon="15.09942699925433"><ele>1027.6666666666665</ele><time>2026-04-19T08:05:53.95Z</time></trkpt><trkpt lat="37.74923505792846" lon="15.09950691734335"><ele>1024.0</ele><time>2026-04-19T08:05:54.949Z</time></trkpt><trkpt lat="37.749058992607374" lon="15.09952616737682"><ele>1024.0</ele><time>2026-04-19T08:05:55.949Z</time></trkpt><trkpt lat="37.74891233530502" lon="15.099558849455878"><ele>1024.0</ele><time>2026-04-19T08:05:56.949Z</time></trkpt><trkpt lat="37.748779374476214" lon="15.099511274775145"><ele>1024.0</ele><time>2026-04-19T08:05:57.949Z</time></trkpt><trkpt lat="37.74861130943942" lon="15.099468828032293"><ele>1021.3333333333333</ele><time>2026-04-19T08:05:58.949Z</time></trkpt><trkpt lat="37.748428987690176" lon="15.099422780595258"><ele>1018.6666666666667</ele><time>2026-04-19T08:05:59.949Z</time></trkpt><trkpt lat="37.74823293391482" lon="15.099373801767966"><ele>1016.0</ele><time>2026-04-19T08:06:00.949Z</time></trkpt><trkpt lat="37.74802620393204" lon="15.099322356521617"><ele>1016.0</ele><time>2026-04-19T08:06:01.949Z</time></trkpt><trkpt lat="37.74780048536784" lon="15.099266101457015"><ele>1016.0</ele><time>2026-04-19T08:06:02.949Z</time></trkpt><trkpt lat="37.74758179459789" lon="15.099240943259442"><ele>1015.0</ele><time>2026-04-19T08:06:03.949Z</time></trkpt><trkpt lat="37.74738182104439" lon="15.099218748217803"><ele>1014.0</ele><time>2026-04-19T08:06:04.949Z</time></trkpt><trkpt lat="37.74717155503516" lon="15.099205797602416"><ele>1013.0</ele><time>2026-04-19T08:06:05.949Z</time></trkpt><trkpt lat="37.74696996932851" lon="15.099205977761311"><ele>1012.0</ele><time>2026-04-19T08:06:06.949Z</time></trkpt><trkpt lat="37.74677632881276" lon="15.099181667377751"><ele>1011.0</ele><time>2026-04-19T08:06:07.949Z</time></trkpt><trkpt lat="37.74659107297192" lon="15.099173911620179"><ele>1010.0</ele><time>2026-04-19T08:06:08.949Z</time></trkpt><trkpt lat="37.746428271077924" lon="15.099162519659027"><ele>1010.0</ele><time>2026-04-19T08:06:09.949Z</time></trkpt><trkpt lat="37.746295210225604" lon="15.099122836010734"><ele>1010.0</ele><time>2026-04-19T08:06:10.949Z</time></trkpt><trkpt lat="37.746184211567034" lon="15.099021589391464"><ele>1010.0</ele><time>2026-04-19T08:06:11.949Z</time></trkpt><trkpt lat="37.74607563822985" lon="15.098880070931632"><ele>1010.0</ele><time>2026-04-19T08:06:12.949Z</time></trkpt><trkpt lat="37.74595554179023" lon="15.09871293656379"><ele>1010.25</ele><time>2026-04-19T08:06:13.949Z</time></trkpt><trkpt lat="37.74584454234709" lon="15.09856832408136"><ele>1010.5</ele><time>2026-04-19T08:06:14.949Z</time></trkpt><trkpt lat="37.74573755583455" lon="15.098465624961706"><ele>1010.75</ele><time>2026-04-19T08:06:15.949Z</time></trkpt><trkpt lat="37.745637624600135" lon="15.098413643276826"><ele>1011.0</ele><time>2026-04-19T08:06:16.949Z</time></trkpt><trkpt lat="37.74554825593547" lon="15.098403375908118"><ele>1011.0</ele><time>2026-04-19T08:06:17.949Z</time></trkpt><trkpt lat="37.74547237892056" lon="15.098432624651485"><ele>1010.9999999999999</ele><time>2026-04-19T08:06:18.949Z</time></trkpt><trkpt lat="37.74539288128964" lon="15.098485159468614"><ele>1010.9999999999999</ele><time>2026-04-19T08:06:19.949Z</time></trkpt><trkpt lat="37.74532956827572" lon="15.098564115238784"><ele>1011.0</ele><time>2026-04-19T08:06:20.949Z</time></trkpt><trkpt lat="37.745257446172765" lon="15.098651780435866"><ele>1011.0</ele><time>2026-04-19T08:06:21.949Z</time></trkpt><trkpt lat="37.745178046270375" lon="15.098730151708043"><ele>1009.8571428571427</ele><time>2026-04-19T08:06:22.949Z</time></trkpt><trkpt lat="37.74510934796445" lon="15.098789304820386"><ele>1008.7142857142857</ele><time>2026-04-19T08:06:23.949Z</time></trkpt><trkpt lat="37.74505180738899" lon="15.098830076599647"><ele>1007.5714285714284</ele><time>2026-04-19T08:06:24.948Z</time></trkpt><trkpt lat="37.74501697586875" lon="15.098913181462992"><ele>1006.4285714285713</ele><time>2026-04-19T08:07:41.946Z</time></trkpt><trkpt lat="37.7449584205974" lon="15.098946896259948"><ele>1005.2857142857142</ele><time>2026-04-19T08:07:42.946Z</time></trkpt><trkpt lat="37.744904516023965" lon="15.098994965758308"><ele>1004.1428571428571</ele><time>2026-04-19T08:07:43.946Z</time></trkpt><trkpt lat="37.74483499616552" lon="15.099060828036928"><ele>1003.0</ele><time>2026-04-19T08:07:44.946Z</time></trkpt><trkpt lat="37.74475661313416" lon="15.099141302389237"><ele>1001.5999999999999</ele><time>2026-04-19T08:07:45.948Z</time></trkpt><trkpt lat="37.744682530585166" lon="15.099226588618295"><ele>1000.1999999999999</ele><time>2026-04-19T08:07:46.948Z</time></trkpt><trkpt lat="37.74460307616949" lon="15.099319863042826"><ele>998.8</ele><time>2026-04-19T08:07:47.948Z</time></trkpt><trkpt lat="37.74452682139375" lon="15.099421622597713"><ele>997.4</ele><time>2026-04-19T08:07:48.947Z</time></trkpt><trkpt lat="37.74444133191569" lon="15.099503103675342"><ele>996.0</ele><time>2026-04-19T08:07:49.948Z</time></trkpt><trkpt lat="37.74433862085234" lon="15.09957747623548"><ele>996.0</ele><time>2026-04-19T08:07:50.948Z</time></trkpt><trkpt lat="37.74421782667527" lon="15.099632271074446"><ele>996.0</ele><time>2026-04-19T08:07:51.948Z</time></trkpt><trkpt lat="37.74407864608613" lon="15.09966169304737"><ele>996.0</ele><time>2026-04-19T08:07:52.948Z</time></trkpt><trkpt lat="37.74391499291637" lon="15.099707942528449"><ele>996.0</ele><time>2026-04-19T08:07:53.948Z</time></trkpt><trkpt lat="37.74376711756647" lon="15.099806451372453"><ele>991.0</ele><time>2026-04-19T08:07:54.948Z</time></trkpt><trkpt lat="37.74363593108809" lon="15.099958361674133"><ele>986.0</ele><time>2026-04-19T08:07:55.948Z</time></trkpt><trkpt lat="37.74353444243104" lon="15.100126669448493"><ele>981.0</ele><time>2026-04-19T08:07:56.948Z</time></trkpt><trkpt lat="37.743441614771676" lon="15.100258217810042"><ele>980.75</ele><time>2026-04-19T08:07:57.948Z</time></trkpt><trkpt lat="37.74334435742732" lon="15.100330091122407"><ele>980.5</ele><time>2026-04-19T08:07:58.948Z</time></trkpt><trkpt lat="37.74324083262389" lon="15.10035618413863"><ele>980.25</ele><time>2026-04-19T08:07:59.948Z</time></trkpt><trkpt lat="37.74308750718326" lon="15.100337295454137"><ele>980.0</ele><time>2026-04-19T08:08:00.948Z</time></trkpt><trkpt lat="37.74293287736231" lon="15.100273002390779"><ele>980.0</ele><time>2026-04-19T08:08:01.948Z</time></trkpt><trkpt lat="37.74277687868437" lon="15.10015713333304"><ele>980.0</ele><time>2026-04-19T08:08:02.948Z</time></trkpt><trkpt lat="37.7426406210944" lon="15.099960733302122"><ele>980.0</ele><time>2026-04-19T08:08:03.948Z</time></trkpt><trkpt lat="37.74249823896348" lon="15.099742845981517"><ele>979.3333333333334</ele><time>2026-04-19T08:08:04.948Z</time></trkpt><trkpt lat="37.742371909934285" lon="15.099540585624245"><ele>978.6666666666667</ele><time>2026-04-19T08:08:05.948Z</time></trkpt><trkpt lat="37.742271245147215" lon="15.099369541173667"><ele>978.0</ele><time>2026-04-19T08:08:06.948Z</time></trkpt><trkpt lat="37.7421681366217" lon="15.09923234940986"><ele>978.0</ele><time>2026-04-19T08:08:07.948Z</time></trkpt><trkpt lat="37.74204465831922" lon="15.099145037016491"><ele>978.0</ele><time>2026-04-19T08:08:08.948Z</time></trkpt><trkpt lat="37.74191643866091" lon="15.099119880271813"><ele>978.0</ele><time>2026-04-19T08:08:09.948Z</time></trkpt><trkpt lat="37.741787189724555" lon="15.099152424543805"><ele>978.0</ele><time>2026-04-19T08:08:10.948Z</time></trkpt><trkpt lat="37.74166651047138" lon="15.099237828706984"><ele>975.3333333333333</ele><time>2026-04-19T08:08:11.947Z</time></trkpt><trkpt lat="37.741494897453585" lon="15.099328416070295"><ele>972.6666666666666</ele><time>2026-04-19T08:08:12.947Z</time></trkpt><trkpt lat="37.7413115990522" lon="15.099494574789137"><ele>970.0</ele><time>2026-04-19T08:08:13.947Z</time></trkpt><trkpt lat="37.74115034920638" lon="15.099620113641585"><ele>969.0</ele><time>2026-04-19T08:08:14.947Z</time></trkpt><trkpt lat="37.74098912566432" lon="15.099726335528711"><ele>968.0</ele><time>2026-04-19T08:08:15.947Z</time></trkpt><trkpt lat="37.74082626081945" lon="15.099832559799225"><ele>967.0</ele><time>2026-04-19T08:08:16.947Z</time></trkpt><trkpt lat="37.74065172130361" lon="15.09992398120954"><ele>963.6666666666666</ele><time>2026-04-19T08:08:17.947Z</time></trkpt><trkpt lat="37.740446689144086" lon="15.099998245261494"><ele>960.3333333333333</ele><time>2026-04-19T08:08:18.947Z</time></trkpt><trkpt lat="37.74022193727017" lon="15.1000871713256"><ele>957.0</ele><time>2026-04-19T08:08:19.947Z</time></trkpt><trkpt lat="37.74000140094918" lon="15.100172371645968"><ele>955.6666666666667</ele><time>2026-04-19T08:08:20.947Z</time></trkpt><trkpt lat="37.73978635044521" lon="15.1002553170057"><ele>954.3333333333334</ele><time>2026-04-19T08:08:21.947Z</time></trkpt><trkpt lat="37.7395831588294" lon="15.100334208840481"><ele>953.0</ele><time>2026-04-19T08:08:22.947Z</time></trkpt><trkpt lat="37.73938282386339" lon="15.100403879001748"><ele>951.0</ele><time>2026-04-19T08:08:23.947Z</time></trkpt><trkpt lat="37.739196881743624" lon="15.100473252148747"><ele>949.0</ele><time>2026-04-19T08:08:24.947Z</time></trkpt><trkpt lat="37.73902554828222" lon="15.100545097955399"><ele>947.0</ele><time>2026-04-19T08:08:25.947Z</time></trkpt><trkpt lat="37.738860467649864" lon="15.100618728707213"><ele>947.0</ele><time>2026-04-19T08:08:26.947Z</time></trkpt><trkpt lat="37.738705137722164" lon="15.100692156583248"><ele>947.0</ele><time>2026-04-19T08:08:27.947Z</time></trkpt><trkpt lat="37.738589217928116" lon="15.100797634198376"><ele>947.0</ele><time>2026-04-19T08:08:28.947Z</time></trkpt><trkpt lat="37.7385037214344" lon="15.100945621158361"><ele>946.3333333333334</ele><time>2026-04-19T08:08:29.947Z</time></trkpt><trkpt lat="37.738463029821276" lon="15.101126654294674"><ele>945.6666666666667</ele><time>2026-04-19T08:08:30.947Z</time></trkpt><trkpt lat="37.73845761863851" lon="15.101324494636584"><ele>945.0</ele><time>2026-04-19T08:08:31.947Z</time></trkpt><trkpt lat="37.73850293140634" lon="15.10153639991691"><ele>941.6666666666667</ele><time>2026-04-19T08:08:32.947Z</time></trkpt><trkpt lat="37.73858570968202" lon="15.101757313494865"><ele>938.3333333333334</ele><time>2026-04-19T08:08:33.947Z</time></trkpt><trkpt lat="37.738688603054" lon="15.101974037756182"><ele>935.0</ele><time>2026-04-19T08:08:34.947Z</time></trkpt><trkpt lat="37.73877572696606" lon="15.10219734183607"><ele>935.0</ele><time>2026-04-19T08:08:35.947Z</time></trkpt><trkpt lat="37.73885598268262" lon="15.102403149002276"><ele>935.0</ele><time>2026-04-19T08:08:36.947Z</time></trkpt><trkpt lat="37.73892195518301" lon="15.102613224040763"><ele>935.0</ele><time>2026-04-19T08:08:37.947Z</time></trkpt><trkpt lat="37.738965755726376" lon="15.102840730841205"><ele>932.6666666666667</ele><time>2026-04-19T08:08:38.947Z</time></trkpt><trkpt lat="37.738981314618606" lon="15.103070822406135"><ele>930.3333333333333</ele><time>2026-04-19T08:08:39.947Z</time></trkpt><trkpt lat="37.7389750768392" lon="15.103314587595833"><ele>928.0</ele><time>2026-04-19T08:08:40.947Z</time></trkpt><trkpt lat="37.738947487622816" lon="15.103581075616065"><ele>925.0</ele><time>2026-04-19T08:08:41.946Z</time></trkpt><trkpt lat="37.7388914295732" lon="15.103878877263972"><ele>922.0</ele><time>2026-04-19T08:08:42.946Z</time></trkpt><trkpt lat="37.738811617084046" lon="15.104196784991725"><ele>918.0</ele><time>2026-04-19T08:08:43.946Z</time></trkpt><trkpt lat="37.73872289732869" lon="15.104533650313103"><ele>914.0</ele><time>2026-04-19T08:08:44.946Z</time></trkpt><trkpt lat="37.73864531271955" lon="15.104860553238959"><ele>911.0</ele><time>2026-04-19T08:08:45.946Z</time></trkpt><trkpt lat="37.73858740421215" lon="15.1051803821848"><ele>908.0</ele><time>2026-04-19T08:08:46.946Z</time></trkpt><trkpt lat="37.73852847655754" lon="15.105470064806747"><ele>907.0</ele><time>2026-04-19T08:08:47.946Z</time></trkpt><trkpt lat="37.73847028869413" lon="15.105732916156043"><ele>906.0</ele><time>2026-04-19T08:08:48.946Z</time></trkpt><trkpt lat="37.73842004978032" lon="15.105976921242139"><ele>905.0</ele><time>2026-04-19T08:08:49.946Z</time></trkpt><trkpt lat="37.73836560146271" lon="15.106173938870354"><ele>904.3333333333334</ele><time>2026-04-19T08:08:50.946Z</time></trkpt><trkpt lat="37.73829233311258" lon="15.106336203559664"><ele>903.6666666666667</ele><time>2026-04-19T08:08:51.946Z</time></trkpt><trkpt lat="37.73817112963452" lon="15.106470312932743"><ele>903.0</ele><time>2026-04-19T08:08:52.946Z</time></trkpt><trkpt lat="37.73810835259973" lon="15.106639195017006"><ele>898.5</ele><time>2026-04-19T08:08:53.946Z</time></trkpt><trkpt lat="37.73779405091083" lon="15.106594030975687"><ele>894.0</ele><time>2026-04-19T08:08:54.946Z</time></trkpt><trkpt lat="37.73759525345441" lon="15.106596377634117"><ele>892.3333333333333</ele><time>2026-04-19T08:08:55.946Z</time></trkpt><trkpt lat="37.73741654265341" lon="15.106631504338743"><ele>890.6666666666666</ele><time>2026-04-19T08:08:56.946Z</time></trkpt><trkpt lat="37.737282364254185" lon="15.106729751543812"><ele>889.0</ele><time>2026-04-19T08:08:57.946Z</time></trkpt><trkpt lat="37.737183779286624" lon="15.10689239325131"><ele>889.0</ele><time>2026-04-19T08:08:58.946Z</time></trkpt><trkpt lat="37.73714978702692" lon="15.107105123206678"><ele>889.0</ele><time>2026-04-19T08:08:59.946Z</time></trkpt><trkpt lat="37.73716829612786" lon="15.10733806879044"><ele>889.0</ele><time>2026-04-19T08:09:00.946Z</time></trkpt><trkpt lat="37.73724326780476" lon="15.107551565152193"><ele>887.0</ele><time>2026-04-19T08:09:01.946Z</time></trkpt><trkpt lat="37.737378057539956" lon="15.107747356037136"><ele>885.0</ele><time>2026-04-19T08:09:02.946Z</time></trkpt><trkpt lat="37.737493399419876" lon="15.107923388405831"><ele>883.0</ele><time>2026-04-19T08:09:03.946Z</time></trkpt><trkpt lat="37.737564668757514" lon="15.108097906608482"><ele>883.0</ele><time>2026-04-19T08:09:04.946Z</time></trkpt><trkpt lat="37.737583145685264" lon="15.108288857352164"><ele>883.0</ele><time>2026-04-19T08:09:05.946Z</time></trkpt><trkpt lat="37.73753135202126" lon="15.108494876654762"><ele>883.0</ele><time>2026-04-19T08:09:06.946Z</time></trkpt><trkpt lat="37.73743507503078" lon="15.108692422205904"><ele>883.0</ele><time>2026-04-19T08:09:07.946Z</time></trkpt><trkpt lat="37.73730390093229" lon="15.108838483285261"><ele>883.0</ele><time>2026-04-19T08:09:08.946Z</time></trkpt><trkpt lat="37.73713463220791" lon="15.108926060491807"><ele>883.0</ele><time>2026-04-19T08:09:09.946Z</time></trkpt><trkpt lat="37.73695392903447" lon="15.108965451415276"><ele>880.0</ele><time>2026-04-19T08:09:10.946Z</time></trkpt><trkpt lat="37.73677685253045" lon="15.108908334524905"><ele>877.0</ele><time>2026-04-19T08:09:11.945Z</time></trkpt><trkpt lat="37.73660282482033" lon="15.108838946593144"><ele>874.0</ele><time>2026-04-19T08:09:12.945Z</time></trkpt><trkpt lat="37.73642677542367" lon="15.108752650056724"><ele>874.0</ele><time>2026-04-19T08:09:13.945Z</time></trkpt><trkpt lat="37.7362511088964" lon="15.10865779681906"><ele>874.0</ele><time>2026-04-19T08:09:14.945Z</time></trkpt><trkpt lat="37.73608263710711" lon="15.108587532361184"><ele>874.0</ele><time>2026-04-19T08:09:15.945Z</time></trkpt><trkpt lat="37.73592492032114" lon="15.108531806171552"><ele>872.3333333333333</ele><time>2026-04-19T08:09:16.945Z</time></trkpt><trkpt lat="37.73576560703372" lon="15.108517192504983"><ele>870.6666666666667</ele><time>2026-04-19T08:09:17.945Z</time></trkpt><trkpt lat="37.73561330840105" lon="15.108568229684298"><ele>869.0</ele><time>2026-04-19T08:09:18.945Z</time></trkpt><trkpt lat="37.73548547890184" lon="15.108690628191797"><ele>869.0</ele><time>2026-04-19T08:09:19.945Z</time></trkpt><trkpt lat="37.73542212543888" lon="15.108877354542749"><ele>869.0</ele><time>2026-04-19T08:09:20.945Z</time></trkpt><trkpt lat="37.73538804487742" lon="15.10907223009388"><ele>869.0</ele><time>2026-04-19T08:09:21.945Z</time></trkpt><trkpt lat="37.73536724439315" lon="15.10927232245199"><ele>866.0</ele><time>2026-04-19T08:09:22.945Z</time></trkpt><trkpt lat="37.73531101907932" lon="15.10942514148927"><ele>863.0</ele><time>2026-04-19T08:09:23.945Z</time></trkpt><trkpt lat="37.735184641847034" lon="15.109553117693459"><ele>860.0</ele><time>2026-04-19T08:09:24.945Z</time></trkpt><trkpt lat="37.7350032997163" lon="15.109659360868035"><ele>858.6666666666667</ele><time>2026-04-19T08:09:25.945Z</time></trkpt><trkpt lat="37.73480726552318" lon="15.109734390741844"><ele>857.3333333333333</ele><time>2026-04-19T08:09:26.945Z</time></trkpt><trkpt lat="37.73463685165408" lon="15.10979177145342"><ele>856.0</ele><time>2026-04-19T08:09:27.945Z</time></trkpt><trkpt lat="37.734491756927625" lon="15.109868959827653"><ele>850.0</ele><time>2026-04-19T08:09:28.945Z</time></trkpt><trkpt lat="37.73437394640693" lon="15.109984933771708"><ele>844.0</ele><time>2026-04-19T08:09:29.945Z</time></trkpt><trkpt lat="37.734272318910634" lon="15.110142650583967"><ele>838.0</ele><time>2026-04-19T08:09:30.945Z</time></trkpt><trkpt lat="37.73420369514749" lon="15.110342606117605"><ele>838.0</ele><time>2026-04-19T08:09:31.945Z</time></trkpt><trkpt lat="37.734195923092365" lon="15.110552001589214"><ele>838.0</ele><time>2026-04-19T08:09:32.945Z</time></trkpt><trkpt lat="37.73427087368684" lon="15.11078264657351"><ele>838.0</ele><time>2026-04-19T08:09:33.945Z</time></trkpt><trkpt lat="37.734403532794936" lon="15.110981192344843"><ele>837.3333333333333</ele><time>2026-04-19T08:09:34.945Z</time></trkpt><trkpt lat="37.73456677688204" lon="15.11115296563292"><ele>836.6666666666667</ele><time>2026-04-19T08:09:35.945Z</time></trkpt><trkpt lat="37.73469281466489" lon="15.111300849332293"><ele>836.0</ele><time>2026-04-19T08:09:36.945Z</time></trkpt><trkpt lat="37.73479663529431" lon="15.111453589633319"><ele>834.25</ele><time>2026-04-19T08:09:37.945Z</time></trkpt><trkpt lat="37.73488719781753" lon="15.11160582195795"><ele>832.5</ele><time>2026-04-19T08:09:38.945Z</time></trkpt><trkpt lat="37.73498039948142" lon="15.111739561822013"><ele>830.75</ele><time>2026-04-19T08:09:39.945Z</time></trkpt><trkpt lat="37.735057908436644" lon="15.111866330585903"><ele>829.0</ele><time>2026-04-19T08:09:40.945Z</time></trkpt><trkpt lat="37.73512849313415" lon="15.111990094545263"><ele>829.0</ele><time>2026-04-19T08:09:41.944Z</time></trkpt><trkpt lat="37.73519886792072" lon="15.112113232904663"><ele>829.0</ele><time>2026-04-19T08:09:42.944Z</time></trkpt><trkpt lat="37.735271044839116" lon="15.1122260543572"><ele>829.0</ele><time>2026-04-19T08:09:43.944Z</time></trkpt><trkpt lat="37.73533412187745" lon="15.112326364567426"><ele>829.0</ele><time>2026-04-19T08:09:44.944Z</time></trkpt><trkpt lat="37.73538301124891" lon="15.112419681197805"><ele>829.0</ele><time>2026-04-19T08:09:45.944Z</time></trkpt><trkpt lat="37.73543344281418" lon="15.112498777901944"><ele>828.8333333333333</ele><time>2026-04-19T08:09:46.944Z</time></trkpt><trkpt lat="37.73548011345265" lon="15.112565564246454"><ele>828.6666666666666</ele><time>2026-04-19T08:09:47.944Z</time></trkpt><trkpt lat="37.73553339899312" lon="15.112655418937438"><ele>828.5</ele><time>2026-04-19T08:09:49.944Z</time></trkpt><trkpt lat="37.735577859514905" lon="15.112723871304532"><ele>828.3333333333333</ele><time>2026-04-19T08:09:52.946Z</time></trkpt><trkpt lat="37.73557564333913" lon="15.112820567561483"><ele>828.1666666666666</ele><time>2026-04-19T08:09:58.946Z</time></trkpt><trkpt lat="37.73550626502765" lon="15.112894350414605"><ele>828.0</ele><time>2026-04-19T08:09:59.946Z</time></trkpt><trkpt lat="37.73544082845818" lon="15.11294581098094"><ele>828.0</ele><time>2026-04-19T08:10:00.946Z</time></trkpt><trkpt lat="37.73538572557184" lon="15.112991780805341"><ele>828.0</ele><time>2026-04-19T08:10:01.946Z</time></trkpt><trkpt lat="37.735319360928685" lon="15.113024541561435"><ele>828.0</ele><time>2026-04-19T08:10:02.946Z</time></trkpt><trkpt lat="37.735246377836646" lon="15.113065552821363"><ele>828.0</ele><time>2026-04-19T08:10:03.946Z</time></trkpt><trkpt lat="37.73515498132723" lon="15.113076316812236"><ele>828.0</ele><time>2026-04-19T08:10:04.946Z</time></trkpt><trkpt lat="37.73506443612779" lon="15.113116420710014"><ele>828.0</ele><time>2026-04-19T08:10:05.946Z</time></trkpt><trkpt lat="37.734973875439785" lon="15.113125679630897"><ele>828.25</ele><time>2026-04-19T08:10:06.946Z</time></trkpt><trkpt lat="37.734881258360936" lon="15.113125946984177"><ele>828.5</ele><time>2026-04-19T08:10:07.946Z</time></trkpt><trkpt lat="37.734780275571055" lon="15.113084336100938"><ele>828.75</ele><time>2026-04-19T08:10:08.946Z</time></trkpt><trkpt lat="37.734679749203615" lon="15.112983825852837"><ele>829.0</ele><time>2026-04-19T08:10:09.946Z</time></trkpt><trkpt lat="37.734564181731194" lon="15.112901372815777"><ele>829.0</ele><time>2026-04-19T08:10:10.946Z</time></trkpt><trkpt lat="37.73444608918018" lon="15.112780255074098"><ele>829.0</ele><time>2026-04-19T08:10:11.946Z</time></trkpt><trkpt lat="37.73432453419397" lon="15.112676329793153"><ele>829.0</ele><time>2026-04-19T08:10:12.946Z</time></trkpt><trkpt lat="37.73420404541204" lon="15.11257823166471"><ele>829.0</ele><time>2026-04-19T08:10:13.946Z</time></trkpt><trkpt lat="37.734099730614844" lon="15.11247588733782"><ele>827.25</ele><time>2026-04-19T08:10:14.946Z</time></trkpt><trkpt lat="37.73401821885949" lon="15.112352008050202"><ele>825.5</ele><time>2026-04-19T08:10:15.946Z</time></trkpt><trkpt lat="37.73395679872078" lon="15.112222688015445"><ele>823.75</ele><time>2026-04-19T08:10:16.946Z</time></trkpt><trkpt lat="37.73389468618133" lon="15.112094475128467"><ele>822.0</ele><time>2026-04-19T08:10:17.946Z</time></trkpt><trkpt lat="37.733836549219326" lon="15.111970017386774"><ele>822.0</ele><time>2026-04-19T08:10:18.946Z</time></trkpt><trkpt lat="37.73377446468036" lon="15.111854104497539"><ele>822.0</ele><time>2026-04-19T08:10:19.946Z</time></trkpt><trkpt lat="37.73369800191749" lon="15.111767173456366"><ele>822.0</ele><time>2026-04-19T08:10:20.946Z</time></trkpt><trkpt lat="37.733604835466984" lon="15.11173226993348"><ele>822.0</ele><time>2026-04-19T08:10:21.946Z</time></trkpt><trkpt lat="37.73349523315197" lon="15.111773606568725"><ele>822.0</ele><time>2026-04-19T08:10:22.946Z</time></trkpt><trkpt lat="37.7333739596548" lon="15.11188000173088"><ele>823.3333333333333</ele><time>2026-04-19T08:10:23.946Z</time></trkpt><trkpt lat="37.73326722073583" lon="15.112006438924892"><ele>824.6666666666666</ele><time>2026-04-19T08:10:24.946Z</time></trkpt><trkpt lat="37.73318108066727" lon="15.112169042589182"><ele>826.0</ele><time>2026-04-19T08:10:25.946Z</time></trkpt><trkpt lat="37.73309251050997" lon="15.112367775211455"><ele>823.0</ele><time>2026-04-19T08:10:26.946Z</time></trkpt><trkpt lat="37.733029222534746" lon="15.112592527104772"><ele>820.0</ele><time>2026-04-19T08:10:27.946Z</time></trkpt><trkpt lat="37.73297536471046" lon="15.112805667335481"><ele>817.0</ele><time>2026-04-19T08:10:28.946Z</time></trkpt><trkpt lat="37.732918585670916" lon="15.113010295982967"><ele>817.0</ele><time>2026-04-19T08:10:29.946Z</time></trkpt><trkpt lat="37.73286291376486" lon="15.113204721932654"><ele>817.0</ele><time>2026-04-19T08:10:30.946Z</time></trkpt><trkpt lat="37.732795090292534" lon="15.113381821110305"><ele>817.0</ele><time>2026-04-19T08:10:31.945Z</time></trkpt><trkpt lat="37.7327207094028" lon="15.113546535026954"><ele>813.8</ele><time>2026-04-19T08:10:32.945Z</time></trkpt><trkpt lat="37.732638642559124" lon="15.113662983349501"><ele>810.6</ele><time>2026-04-19T08:10:33.945Z</time></trkpt><trkpt lat="37.73254651872303" lon="15.113734851190086"><ele>807.4</ele><time>2026-04-19T08:10:34.945Z</time></trkpt><trkpt lat="37.732440827644886" lon="15.113739299933192"><ele>804.1999999999999</ele><time>2026-04-19T08:10:35.945Z</time></trkpt><trkpt lat="37.7323494488983" lon="15.113673090450378"><ele>801.0</ele><time>2026-04-19T08:10:36.945Z</time></trkpt><trkpt lat="37.73229259901484" lon="15.113558898813665"><ele>801.0</ele><time>2026-04-19T08:10:37.945Z</time></trkpt><trkpt lat="37.732260548723985" lon="15.113421838696103"><ele>801.0</ele><time>2026-04-19T08:10:38.945Z</time></trkpt><trkpt lat="37.732264536388485" lon="15.113249304439314"><ele>801.0</ele><time>2026-04-19T08:10:39.945Z</time></trkpt><trkpt lat="37.73228789621205" lon="15.113078933704891"><ele>801.0</ele><time>2026-04-19T08:10:40.945Z</time></trkpt><trkpt lat="37.73229939234298" lon="15.112915146780306"><ele>802.5</ele><time>2026-04-19T08:10:41.945Z</time></trkpt><trkpt lat="37.73227030693296" lon="15.112779596921952"><ele>804.0</ele><time>2026-04-19T08:10:42.945Z</time></trkpt><trkpt lat="37.732211289434375" lon="15.112670912157583"><ele>805.5</ele><time>2026-04-19T08:10:43.945Z</time></trkpt><trkpt lat="37.732090171363005" lon="15.112606317574935"><ele>807.0</ele><time>2026-04-19T08:10:44.945Z</time></trkpt><trkpt lat="37.73197648923908" lon="15.112642748795135"><ele>805.6666666666667</ele><time>2026-04-19T08:10:45.945Z</time></trkpt><trkpt lat="37.73184164379563" lon="15.112778825065954"><ele>804.3333333333334</ele><time>2026-04-19T08:10:46.945Z</time></trkpt><trkpt lat="37.7317266615399" lon="15.112953990595315"><ele>803.0</ele><time>2026-04-19T08:10:47.945Z</time></trkpt><trkpt lat="37.731642854611394" lon="15.113126366506584"><ele>800.0</ele><time>2026-04-19T08:10:48.945Z</time></trkpt><trkpt lat="37.731539592743346" lon="15.113266913840699"><ele>797.0</ele><time>2026-04-19T08:10:49.945Z</time></trkpt><trkpt lat="37.73142680247199" lon="15.113359900008868"><ele>794.0</ele><time>2026-04-19T08:10:50.945Z</time></trkpt><trkpt lat="37.73127869218651" lon="15.113395276291204"><ele>791.0</ele><time>2026-04-19T08:10:51.945Z</time></trkpt><trkpt lat="37.73112579256708" lon="15.113436461168456"><ele>791.5</ele><time>2026-04-19T08:10:52.945Z</time></trkpt><trkpt lat="37.73099305250731" lon="15.113470185544395"><ele>792.0</ele><time>2026-04-19T08:10:53.945Z</time></trkpt><trkpt lat="37.730881645725" lon="15.113476715046243"><ele>792.5</ele><time>2026-04-19T08:10:54.945Z</time></trkpt><trkpt lat="37.730788910122804" lon="15.11343816626378"><ele>793.0</ele><time>2026-04-19T08:10:55.945Z</time></trkpt><trkpt lat="37.730721395624734" lon="15.113314700853365"><ele>794.5999999999999</ele><time>2026-04-19T08:10:56.945Z</time></trkpt><trkpt lat="37.730641432824356" lon="15.11318603151031"><ele>796.1999999999999</ele><time>2026-04-19T08:10:57.945Z</time></trkpt><trkpt lat="37.730593853506385" lon="15.113071145872379"><ele>797.8</ele><time>2026-04-19T08:10:58.945Z</time></trkpt><trkpt lat="37.73054436347451" lon="15.112954163687524"><ele>799.4</ele><time>2026-04-19T08:10:59.945Z</time></trkpt><trkpt lat="37.730469726350414" lon="15.112857443263477"><ele>801.0</ele><time>2026-04-19T08:11:00.945Z</time></trkpt><trkpt lat="37.73032071204965" lon="15.112835354291489"><ele>797.0</ele><time>2026-04-19T08:11:01.944Z</time></trkpt><trkpt lat="37.73017003863596" lon="15.112824283732074"><ele>793.0</ele><time>2026-04-19T08:11:02.944Z</time></trkpt><trkpt lat="37.72999822843426" lon="15.112803728836782"><ele>789.0</ele><time>2026-04-19T08:11:03.944Z</time></trkpt><trkpt lat="37.729828758917094" lon="15.11278529414969"><ele>789.0</ele><time>2026-04-19T08:11:04.944Z</time></trkpt><trkpt lat="37.729643283848816" lon="15.112766004477852"><ele>789.0</ele><time>2026-04-19T08:11:05.944Z</time></trkpt><trkpt lat="37.72947309838026" lon="15.112748304943425"><ele>789.0</ele><time>2026-04-19T08:11:06.944Z</time></trkpt><trkpt lat="37.7293163595092" lon="15.112733483618475"><ele>789.25</ele><time>2026-04-19T08:11:07.944Z</time></trkpt><trkpt lat="37.729173701720626" lon="15.11272126958318"><ele>789.5</ele><time>2026-04-19T08:11:08.944Z</time></trkpt><trkpt lat="37.72903847548862" lon="15.11270782910897"><ele>789.75</ele><time>2026-04-19T08:11:09.944Z</time></trkpt><trkpt lat="37.72891856497892" lon="15.112693917965514"><ele>790.0</ele><time>2026-04-19T08:11:10.944Z</time></trkpt><trkpt lat="37.72879132655799" lon="15.112673581228117"><ele>790.0</ele><time>2026-04-19T08:11:11.944Z</time></trkpt><trkpt lat="37.728664852953415" lon="15.112653366725281"><ele>790.0</ele><time>2026-04-19T08:11:12.944Z</time></trkpt><trkpt lat="37.72854403329826" lon="15.112654469213256"><ele>790.0</ele><time>2026-04-19T08:11:13.944Z</time></trkpt><trkpt lat="37.72841723528312" lon="15.112617908034107"><ele>790.0</ele><time>2026-04-19T08:11:14.944Z</time></trkpt><trkpt lat="37.72826132661343" lon="15.112624095711078"><ele>789.3333333333333</ele><time>2026-04-19T08:11:15.944Z</time></trkpt><trkpt lat="37.728100420154" lon="15.112628001445376"><ele>788.6666666666667</ele><time>2026-04-19T08:11:16.944Z</time></trkpt><trkpt lat="37.72795052027599" lon="15.112639520289477"><ele>788.0</ele><time>2026-04-19T08:11:17.944Z</time></trkpt><trkpt lat="37.72780500141154" lon="15.112649699955545"><ele>786.0</ele><time>2026-04-19T08:11:18.944Z</time></trkpt><trkpt lat="37.7276763257081" lon="15.112672864411145"><ele>784.0</ele><time>2026-04-19T08:11:19.944Z</time></trkpt><trkpt lat="37.727553777879834" lon="15.11271558784218"><ele>782.0</ele><time>2026-04-19T08:11:20.944Z</time></trkpt><trkpt lat="37.7274427464266" lon="15.112747243764634"><ele>780.0</ele><time>2026-04-19T08:11:21.944Z</time></trkpt><trkpt lat="37.727331812685804" lon="15.112770092401252"><ele>780.0</ele><time>2026-04-19T08:11:22.944Z</time></trkpt><trkpt lat="37.727239564145066" lon="15.112802157667671"><ele>780.0</ele><time>2026-04-19T08:11:23.944Z</time></trkpt><trkpt lat="37.72716157459159" lon="15.11283405094904"><ele>780.0</ele><time>2026-04-19T08:11:24.944Z</time></trkpt><trkpt lat="37.72710091856159" lon="15.112919946702041"><ele>780.0</ele><time>2026-04-19T08:11:25.944Z</time></trkpt><trkpt lat="37.72706741227824" lon="15.113059077750062"><ele>780.0</ele><time>2026-04-19T08:11:26.944Z</time></trkpt><trkpt lat="37.72706652542562" lon="15.113233791755759"><ele>777.75</ele><time>2026-04-19T08:11:27.944Z</time></trkpt><trkpt lat="37.72701340533373" lon="15.113394889353376"><ele>775.5</ele><time>2026-04-19T08:11:28.944Z</time></trkpt><trkpt lat="37.726950042004184" lon="15.113538190946878"><ele>773.25</ele><time>2026-04-19T08:11:29.944Z</time></trkpt><trkpt lat="37.72688085127724" lon="15.113664893049156"><ele>771.0</ele><time>2026-04-19T08:11:30.944Z</time></trkpt><trkpt lat="37.72680282988037" lon="15.113770998410628"><ele>769.8333333333334</ele><time>2026-04-19T08:11:31.943Z</time></trkpt><trkpt lat="37.726738981600064" lon="15.11388677702402"><ele>768.6666666666666</ele><time>2026-04-19T08:11:32.943Z</time></trkpt><trkpt lat="37.72670201729359" lon="15.113997554184591"><ele>767.5</ele><time>2026-04-19T08:11:33.943Z</time></trkpt><trkpt lat="37.72666496690182" lon="15.114078982424273"><ele>766.3333333333333</ele><time>2026-04-19T08:11:34.943Z</time></trkpt><trkpt lat="37.726598682040766" lon="15.114086124667452"><ele>765.1666666666666</ele><time>2026-04-19T08:11:35.943Z</time></trkpt><trkpt lat="37.72651716963257" lon="15.114037906670289"><ele>764.0</ele><time>2026-04-19T08:11:36.943Z</time></trkpt><trkpt lat="37.72650271459771" lon="15.113890842836609"><ele>764.0</ele><time>2026-04-19T08:11:37.943Z</time></trkpt><trkpt lat="37.72649110493369" lon="15.11376272718409"><ele>764.0</ele><time>2026-04-19T08:11:38.943Z</time></trkpt><trkpt lat="37.7264692968808" lon="15.113633747352573"><ele>764.0</ele><time>2026-04-19T08:11:39.943Z</time></trkpt><trkpt lat="37.726436628654994" lon="15.11351958339696"><ele>764.0</ele><time>2026-04-19T08:11:40.943Z</time></trkpt><trkpt lat="37.726369857004485" lon="15.113415842189665"><ele>764.0</ele><time>2026-04-19T08:11:41.943Z</time></trkpt><trkpt lat="37.72628807430541" lon="15.113307283622525"><ele>764.6</ele><time>2026-04-19T08:11:42.943Z</time></trkpt><trkpt lat="37.72619672612624" lon="15.11323140477424"><ele>765.2</ele><time>2026-04-19T08:11:43.943Z</time></trkpt><trkpt lat="37.72610832575702" lon="15.113187700541394"><ele>765.8000000000001</ele><time>2026-04-19T08:11:44.943Z</time></trkpt><trkpt lat="37.72601918929327" lon="15.11317016841048"><ele>766.4000000000001</ele><time>2026-04-19T08:11:45.943Z</time></trkpt><trkpt lat="37.72591080713253" lon="15.113202731824565"><ele>767.0</ele><time>2026-04-19T08:11:46.943Z</time></trkpt><trkpt lat="37.72581971031136" lon="15.113244741409485"><ele>765.6666666666666</ele><time>2026-04-19T08:11:47.943Z</time></trkpt><trkpt lat="37.72573554325671" lon="15.113316375528937"><ele>764.3333333333333</ele><time>2026-04-19T08:11:48.943Z</time></trkpt><trkpt lat="37.72566557081276" lon="15.113392252765834"><ele>763.0</ele><time>2026-04-19T08:11:49.943Z</time></trkpt><trkpt lat="37.725610503487445" lon="15.113475132944515"><ele>761.6666666666666</ele><time>2026-04-19T08:11:50.943Z</time></trkpt><trkpt lat="37.72556595773396" lon="15.11357733381154"><ele>760.3333333333334</ele><time>2026-04-19T08:11:51.943Z</time></trkpt><trkpt lat="37.72554276629751" lon="15.113669834559705"><ele>759.0</ele><time>2026-04-19T08:11:52.943Z</time></trkpt><trkpt lat="37.72547653487995" lon="15.11379599305318"><ele>759.0</ele><time>2026-04-19T08:11:54.943Z</time></trkpt><trkpt lat="37.72542982416998" lon="15.113872503470605"><ele>759.0</ele><time>2026-04-19T08:11:56.943Z</time></trkpt><trkpt lat="37.72535630801127" lon="15.113988825945851"><ele>759.0</ele><time>2026-04-19T08:11:58.944Z</time></trkpt><trkpt lat="37.7252992565347" lon="15.114097490937587"><ele>759.0</ele><time>2026-04-19T08:12:00.945Z</time></trkpt><trkpt lat="37.725234064634506" lon="15.114172380094338"><ele>759.0</ele><time>2026-04-19T08:12:01.944Z</time></trkpt><trkpt lat="37.725156889122985" lon="15.114249216764097"><ele>758.8000000000001</ele><time>2026-04-19T08:12:02.944Z</time></trkpt><trkpt lat="37.72507515427984" lon="15.114306382751712"><ele>758.6</ele><time>2026-04-19T08:12:03.944Z</time></trkpt><trkpt lat="37.7249832925334" lon="15.114362530005957"><ele>758.4</ele><time>2026-04-19T08:12:04.945Z</time></trkpt><trkpt lat="37.72489264913087" lon="15.114426447393235"><ele>758.2</ele><time>2026-04-19T08:12:05.945Z</time></trkpt><trkpt lat="37.72479864004956" lon="15.114493414880801"><ele>758.0</ele><time>2026-04-19T08:12:06.944Z</time></trkpt><trkpt lat="37.72470020525721" lon="15.114556595612706"><ele>758.0</ele><time>2026-04-19T08:12:07.945Z</time></trkpt><trkpt lat="37.72460531329884" lon="15.114603941407587"><ele>758.0</ele><time>2026-04-19T08:12:08.945Z</time></trkpt><trkpt lat="37.724506464153514" lon="15.114609541945466"><ele>758.0</ele><time>2026-04-19T08:12:09.945Z</time></trkpt><trkpt lat="37.724406489843666" lon="15.114610017749273"><ele>758.0</ele><time>2026-04-19T08:12:10.944Z</time></trkpt><trkpt lat="37.72429032428498" lon="15.114595449541234"><ele>758.0</ele><time>2026-04-19T08:12:11.944Z</time></trkpt><trkpt lat="37.724178400547075" lon="15.114580037116633"><ele>757.5999999999999</ele><time>2026-04-19T08:12:12.944Z</time></trkpt><trkpt lat="37.72408063271218" lon="15.114566740244232"><ele>757.1999999999999</ele><time>2026-04-19T08:12:13.944Z</time></trkpt><trkpt lat="37.723984563725224" lon="15.114554886356816"><ele>756.8</ele><time>2026-04-19T08:12:14.944Z</time></trkpt><trkpt lat="37.72387966291661" lon="15.114562061933716"><ele>756.4</ele><time>2026-04-19T08:12:15.944Z</time></trkpt><trkpt lat="37.72376794405035" lon="15.114543106441538"><ele>756.0</ele><time>2026-04-19T08:12:16.944Z</time></trkpt><trkpt lat="37.7236637732995" lon="15.114498626595017"><ele>756.0</ele><time>2026-04-19T08:12:17.943Z</time></trkpt><trkpt lat="37.72355984050315" lon="15.114457986594873"><ele>756.0</ele><time>2026-04-19T08:12:18.943Z</time></trkpt><trkpt lat="37.72345327335599" lon="15.11441088796651"><ele>756.0</ele><time>2026-04-19T08:12:19.943Z</time></trkpt><trkpt lat="37.723352897576554" lon="15.114362955722566"><ele>756.0</ele><time>2026-04-19T08:12:20.943Z</time></trkpt><trkpt lat="37.72325457952413" lon="15.114319707645913"><ele>756.0</ele><time>2026-04-19T08:12:21.943Z</time></trkpt><trkpt lat="37.72315171846595" lon="15.114310693109058"><ele>756.0</ele><time>2026-04-19T08:12:22.943Z</time></trkpt><trkpt lat="37.72306292848049" lon="15.11427746139799"><ele>756.0</ele><time>2026-04-19T08:12:23.943Z</time></trkpt><trkpt lat="37.72296242355691" lon="15.114305572544515"><ele>756.0</ele><time>2026-04-19T08:12:24.943Z</time></trkpt><trkpt lat="37.72286590739743" lon="15.114373387707007"><ele>756.0</ele><time>2026-04-19T08:12:25.943Z</time></trkpt><trkpt lat="37.72279052321355" lon="15.114453363406522"><ele>756.0</ele><time>2026-04-19T08:12:26.943Z</time></trkpt><trkpt lat="37.72272057206955" lon="15.114557225564765"><ele>754.5999999999999</ele><time>2026-04-19T08:12:27.943Z</time></trkpt><trkpt lat="37.72266817789627" lon="15.114685628173177"><ele>753.2</ele><time>2026-04-19T08:12:28.943Z</time></trkpt><trkpt lat="37.72261625858409" lon="15.114807901310698"><ele>751.8</ele><time>2026-04-19T08:12:29.943Z</time></trkpt><trkpt lat="37.722566015567175" lon="15.114924835034246"><ele>750.4000000000001</ele><time>2026-04-19T08:12:30.943Z</time></trkpt><trkpt lat="37.722513625411345" lon="15.115037097913616"><ele>749.0</ele><time>2026-04-19T08:12:31.943Z</time></trkpt><trkpt lat="37.72244194027444" lon="15.11513241363203"><ele>747.2</ele><time>2026-04-19T08:12:32.943Z</time></trkpt><trkpt lat="37.72238658372141" lon="15.115242349691638"><ele>745.4000000000001</ele><time>2026-04-19T08:12:33.943Z</time></trkpt><trkpt lat="37.72233508989434" lon="15.115348234436707"><ele>743.6</ele><time>2026-04-19T08:12:34.943Z</time></trkpt><trkpt lat="37.72228445706789" lon="15.115454826661496"><ele>741.8</ele><time>2026-04-19T08:12:35.943Z</time></trkpt><trkpt lat="37.72224362034317" lon="15.115558372253373"><ele>740.0</ele><time>2026-04-19T08:12:36.943Z</time></trkpt><trkpt lat="37.72220606818064" lon="15.115641600513753"><ele>740.0</ele><time>2026-04-19T08:12:37.943Z</time></trkpt><trkpt lat="37.72216845000583" lon="15.115717624493458"><ele>740.0</ele><time>2026-04-19T08:12:38.943Z</time></trkpt><trkpt lat="37.72213034203356" lon="15.115786343923027"><ele>740.0</ele><time>2026-04-19T08:12:39.943Z</time></trkpt><trkpt lat="37.72208743438235" lon="15.115861591277973"><ele>740.0</ele><time>2026-04-19T08:12:40.943Z</time></trkpt><trkpt lat="37.72203627235649" lon="15.116001560153622"><ele>740.0</ele><time>2026-04-19T08:12:41.943Z</time></trkpt><trkpt lat="37.72197672576944" lon="15.116136460151095"><ele>738.2</ele><time>2026-04-19T08:12:42.943Z</time></trkpt><trkpt lat="37.721902046904646" lon="15.116263848559104"><ele>736.4</ele><time>2026-04-19T08:12:43.943Z</time></trkpt><trkpt lat="37.72184569669119" lon="15.116372187980314"><ele>734.5999999999999</ele><time>2026-04-19T08:12:44.943Z</time></trkpt><trkpt lat="37.721794545336834" lon="15.116481731374575"><ele>732.8</ele><time>2026-04-19T08:12:45.943Z</time></trkpt><trkpt lat="37.721737897458894" lon="15.116580401490182"><ele>731.0</ele><time>2026-04-19T08:12:46.943Z</time></trkpt><trkpt lat="37.72167413805131" lon="15.116644752319013"><ele>729.1999999999999</ele><time>2026-04-19T08:12:47.942Z</time></trkpt><trkpt lat="37.721618168290696" lon="15.11669038549182"><ele>727.4</ele><time>2026-04-19T08:12:48.942Z</time></trkpt><trkpt lat="37.72148954932335" lon="15.116720713653246"><ele>725.6</ele><time>2026-04-19T08:12:50.942Z</time></trkpt><trkpt lat="37.7214019925679" lon="15.11672322066286"><ele>723.8</ele><time>2026-04-19T08:12:51.942Z</time></trkpt><trkpt lat="37.72131055205418" lon="15.116714857690942"><ele>722.0</ele><time>2026-04-19T08:12:52.942Z</time></trkpt><trkpt lat="37.721229985600345" lon="15.116713877811044"><ele>722.0</ele><time>2026-04-19T08:12:53.942Z</time></trkpt><trkpt lat="37.72112058409524" lon="15.116733181202637"><ele>722.0</ele><time>2026-04-19T08:12:55.942Z</time></trkpt><trkpt lat="37.721057426165004" lon="15.116731760792618"><ele>722.0</ele><time>2026-04-19T08:12:59.942Z</time></trkpt><trkpt lat="37.72103186245007" lon="15.116898146597801"><ele>722.0</ele><time>2026-04-19T08:13:01.942Z</time></trkpt><trkpt lat="37.721064671993986" lon="15.116976059915613"><ele>722.0</ele><time>2026-04-19T08:13:06.942Z</time></trkpt><trkpt lat="37.72105425437618" lon="15.116881031265105"><ele>720.8</ele><time>2026-04-19T08:13:27.941Z</time></trkpt><trkpt lat="37.720947285514484" lon="15.116917392043012"><ele>719.6</ele><time>2026-04-19T08:13:33.941Z</time></trkpt><trkpt lat="37.72085882981032" lon="15.116957846445347"><ele>718.4</ele><time>2026-04-19T08:13:35.941Z</time></trkpt><trkpt lat="37.72078083472076" lon="15.11695544536848"><ele>717.1999999999999</ele><time>2026-04-19T08:13:38.941Z</time></trkpt><trkpt lat="37.72071665425931" lon="15.116910190448952"><ele>716.0</ele><time>2026-04-19T08:16:17.941Z</time></trkpt><trkpt lat="37.7206549684827" lon="15.116821136756581"><ele>716.0</ele><time>2026-04-19T08:16:20.941Z</time></trkpt><trkpt lat="37.720584508234005" lon="15.116797787520314"><ele>716.0</ele><time>2026-04-19T08:16:24.941Z</time></trkpt><trkpt lat="37.72050584394161" lon="15.11677171801361"><ele>716.0</ele><time>2026-04-19T08:16:29.941Z</time></trkpt><trkpt lat="37.72042471069513" lon="15.116744830294664"><ele>716.0</ele><time>2026-04-19T08:16:31.94Z</time></trkpt><trkpt lat="37.72034080467584" lon="15.116762878891624"><ele>716.0</ele><time>2026-04-19T08:16:32.94Z</time></trkpt><trkpt lat="37.72026720158359" lon="15.1167426686975"><ele>716.0</ele><time>2026-04-19T08:16:33.94Z</time></trkpt><trkpt lat="37.7201897726333" lon="15.116718636436177"><ele>715.25</ele><time>2026-04-19T08:16:34.94Z</time></trkpt><trkpt lat="37.720098307831165" lon="15.116690637702977"><ele>714.5</ele><time>2026-04-19T08:16:35.94Z</time></trkpt><trkpt lat="37.71999373341897" lon="15.116658579441351"><ele>713.75</ele><time>2026-04-19T08:16:36.94Z</time></trkpt><trkpt lat="37.71986517158232" lon="15.116632864917035"><ele>713.0</ele><time>2026-04-19T08:16:37.94Z</time></trkpt><trkpt lat="37.719741292649424" lon="15.116590709771575"><ele>715.0</ele><time>2026-04-19T08:16:38.94Z</time></trkpt><trkpt lat="37.719622984216926" lon="15.11653846619072"><ele>717.0</ele><time>2026-04-19T08:16:39.94Z</time></trkpt><trkpt lat="37.71948659924552" lon="15.11649151553035"><ele>719.0</ele><time>2026-04-19T08:16:40.94Z</time></trkpt><trkpt lat="37.71933806604733" lon="15.116441343578748"><ele>721.0</ele><time>2026-04-19T08:16:41.94Z</time></trkpt><trkpt lat="37.71920313258295" lon="15.116390752590917"><ele>721.0</ele><time>2026-04-19T08:16:42.94Z</time></trkpt><trkpt lat="37.719082951914324" lon="15.116370692212444"><ele>721.0</ele><time>2026-04-19T08:16:43.94Z</time></trkpt><trkpt lat="37.718959253038626" lon="15.116394921837438"><ele>721.0</ele><time>2026-04-19T08:16:44.94Z</time></trkpt><trkpt lat="37.71883500187064" lon="15.1164915712606"><ele>721.0</ele><time>2026-04-19T08:16:45.94Z</time></trkpt><trkpt lat="37.718721581347936" lon="15.11672205320382"><ele>717.0</ele><time>2026-04-19T08:16:46.94Z</time></trkpt><trkpt lat="37.718634804577654" lon="15.11696432551885"><ele>713.0</ele><time>2026-04-19T08:16:47.94Z</time></trkpt><trkpt lat="37.718564391420855" lon="15.11720347887906"><ele>709.0</ele><time>2026-04-19T08:16:48.94Z</time></trkpt><trkpt lat="37.71849776264028" lon="15.117385212390182"><ele>707.0</ele><time>2026-04-19T08:16:49.94Z</time></trkpt><trkpt lat="37.71842464524953" lon="15.11751605347364"><ele>705.0</ele><time>2026-04-19T08:16:50.94Z</time></trkpt><trkpt lat="37.71835586541778" lon="15.117571479440413"><ele>703.0</ele><time>2026-04-19T08:16:51.94Z</time></trkpt><trkpt lat="37.718248989175" lon="15.117533529762989"><ele>701.0</ele><time>2026-04-19T08:16:52.94Z</time></trkpt><trkpt lat="37.71813352966061" lon="15.117510352568267"><ele>699.0</ele><time>2026-04-19T08:16:53.94Z</time></trkpt><trkpt lat="37.71799814347507" lon="15.117430641814838"><ele>698.0</ele><time>2026-04-19T08:16:54.94Z</time></trkpt><trkpt lat="37.717878571889635" lon="15.117315410203098"><ele>697.0</ele><time>2026-04-19T08:16:55.94Z</time></trkpt><trkpt lat="37.71781598277477" lon="15.117170058347007"><ele>696.0</ele><time>2026-04-19T08:16:56.94Z</time></trkpt><trkpt lat="37.71773879736663" lon="15.117011623823537"><ele>695.0</ele><time>2026-04-19T08:16:57.94Z</time></trkpt><trkpt lat="37.717660626683866" lon="15.116844455381543"><ele>695.0</ele><time>2026-04-19T08:16:58.94Z</time></trkpt><trkpt lat="37.717579701488454" lon="15.11667139640933"><ele>695.0</ele><time>2026-04-19T08:16:59.94Z</time></trkpt><trkpt lat="37.717476355999494" lon="15.116494803249298"><ele>695.0</ele><time>2026-04-19T08:17:00.939Z</time></trkpt><trkpt lat="37.71739046283125" lon="15.116311661712093"><ele>695.5</ele><time>2026-04-19T08:17:01.939Z</time></trkpt><trkpt lat="37.71732446153612" lon="15.116132654342243"><ele>696.0</ele><time>2026-04-19T08:17:02.939Z</time></trkpt><trkpt lat="37.71724803755056" lon="15.115975751584239"><ele>696.5</ele><time>2026-04-19T08:17:03.939Z</time></trkpt><trkpt lat="37.717177235744494" lon="15.115822709628883"><ele>697.0</ele><time>2026-04-19T08:17:04.939Z</time></trkpt><trkpt lat="37.71710215886581" lon="15.115687082711897"><ele>697.75</ele><time>2026-04-19T08:17:05.939Z</time></trkpt><trkpt lat="37.716988520483774" lon="15.115597472345383"><ele>698.5</ele><time>2026-04-19T08:17:06.939Z</time></trkpt><trkpt lat="37.71683657422081" lon="15.115554240749905"><ele>699.25</ele><time>2026-04-19T08:17:07.939Z</time></trkpt><trkpt lat="37.71668189494668" lon="15.11558621542395"><ele>700.0</ele><time>2026-04-19T08:17:08.939Z</time></trkpt><trkpt lat="37.71652914131086" lon="15.115672543401507"><ele>696.6666666666667</ele><time>2026-04-19T08:17:09.939Z</time></trkpt><trkpt lat="37.71637357857725" lon="15.115815043895797"><ele>693.3333333333334</ele><time>2026-04-19T08:17:10.939Z</time></trkpt><trkpt lat="37.716207209431296" lon="15.11596845531511"><ele>690.0</ele><time>2026-04-19T08:17:11.939Z</time></trkpt><trkpt lat="37.716053058988145" lon="15.116105423032534"><ele>688.3333333333334</ele><time>2026-04-19T08:17:12.939Z</time></trkpt><trkpt lat="37.71590794312137" lon="15.116215618776849"><ele>686.6666666666667</ele><time>2026-04-19T08:17:13.939Z</time></trkpt><trkpt lat="37.71576024573853" lon="15.116312357217147"><ele>685.0</ele><time>2026-04-19T08:17:14.939Z</time></trkpt><trkpt lat="37.71560259119909" lon="15.116410235568702"><ele>685.0</ele><time>2026-04-19T08:17:15.939Z</time></trkpt><trkpt lat="37.71542719098528" lon="15.116481509745055"><ele>685.0</ele><time>2026-04-19T08:17:16.939Z</time></trkpt><trkpt lat="37.71526282683092" lon="15.116578166977916"><ele>685.0</ele><time>2026-04-19T08:17:17.939Z</time></trkpt><trkpt lat="37.71508785799715" lon="15.116680773757617"><ele>679.3333333333334</ele><time>2026-04-19T08:17:18.939Z</time></trkpt><trkpt lat="37.71490985272788" lon="15.116794340718096"><ele>673.6666666666666</ele><time>2026-04-19T08:17:19.939Z</time></trkpt><trkpt lat="37.714734213917964" lon="15.116908988421574"><ele>668.0</ele><time>2026-04-19T08:17:20.939Z</time></trkpt><trkpt lat="37.71456233567031" lon="15.117008301777298"><ele>666.6666666666666</ele><time>2026-04-19T08:17:21.939Z</time></trkpt><trkpt lat="37.71439040329796" lon="15.1171090391041"><ele>665.3333333333334</ele><time>2026-04-19T08:17:22.939Z</time></trkpt><trkpt lat="37.71423147874974" lon="15.117194711231608"><ele>664.0</ele><time>2026-04-19T08:17:23.939Z</time></trkpt><trkpt lat="37.71407397753204" lon="15.117249263158103"><ele>664.0</ele><time>2026-04-19T08:17:24.939Z</time></trkpt><trkpt lat="37.71391320063144" lon="15.117287571003489"><ele>664.0</ele><time>2026-04-19T08:17:25.939Z</time></trkpt><trkpt lat="37.713750361768106" lon="15.117282658024362"><ele>664.0</ele><time>2026-04-19T08:17:26.939Z</time></trkpt><trkpt lat="37.71360535771671" lon="15.1172669446873"><ele>661.75</ele><time>2026-04-19T08:17:27.939Z</time></trkpt><trkpt lat="37.71348327616602" lon="15.117226772098261"><ele>659.5</ele><time>2026-04-19T08:17:28.939Z</time></trkpt><trkpt lat="37.713416241499885" lon="15.11711990571417"><ele>657.25</ele><time>2026-04-19T08:17:29.939Z</time></trkpt><trkpt lat="37.7133556224068" lon="15.117007521478369"><ele>655.0</ele><time>2026-04-19T08:17:30.938Z</time></trkpt><trkpt lat="37.71328300332173" lon="15.116858974300534"><ele>655.0</ele><time>2026-04-19T08:17:31.938Z</time></trkpt><trkpt lat="37.71319775084197" lon="15.116689531200665"><ele>655.0</ele><time>2026-04-19T08:17:32.938Z</time></trkpt><trkpt lat="37.71311295857931" lon="15.116522096865085"><ele>655.0</ele><time>2026-04-19T08:17:33.938Z</time></trkpt><trkpt lat="37.71302438393624" lon="15.116362202933459"><ele>656.0</ele><time>2026-04-19T08:17:34.938Z</time></trkpt><trkpt lat="37.712943926904" lon="15.116200643576612"><ele>657.0</ele><time>2026-04-19T08:17:35.938Z</time></trkpt><trkpt lat="37.71285440464742" lon="15.116047227576225"><ele>658.0</ele><time>2026-04-19T08:17:36.938Z</time></trkpt><trkpt lat="37.712731867753384" lon="15.115937281725541"><ele>658.0</ele><time>2026-04-19T08:17:37.938Z</time></trkpt><trkpt lat="37.7125832220471" lon="15.115880791169124"><ele>658.0</ele><time>2026-04-19T08:17:38.938Z</time></trkpt><trkpt lat="37.71241788205244" lon="15.1159039925389"><ele>658.0</ele><time>2026-04-19T08:17:39.938Z</time></trkpt><trkpt lat="37.7122717845208" lon="15.115985466740112"><ele>658.0</ele><time>2026-04-19T08:17:40.938Z</time></trkpt><trkpt lat="37.71211181638424" lon="15.116120849004355"><ele>658.0</ele><time>2026-04-19T08:17:41.938Z</time></trkpt><trkpt lat="37.71200514847295" lon="15.116273125375427"><ele>658.0</ele><time>2026-04-19T08:17:42.938Z</time></trkpt><trkpt lat="37.71190199375164" lon="15.116379795252307"><ele>658.1666666666667</ele><time>2026-04-19T08:17:43.938Z</time></trkpt><trkpt lat="37.711819940582245" lon="15.116465708130843"><ele>658.3333333333334</ele><time>2026-04-19T08:17:44.938Z</time></trkpt><trkpt lat="37.71175112307921" lon="15.11650283153603"><ele>658.5</ele><time>2026-04-19T08:17:45.938Z</time></trkpt><trkpt lat="37.711696264108895" lon="15.116566932347991"><ele>658.6666666666666</ele><time>2026-04-19T08:17:46.938Z</time></trkpt><trkpt lat="37.71161628486261" lon="15.116596184577507"><ele>658.8333333333333</ele><time>2026-04-19T08:17:47.938Z</time></trkpt><trkpt lat="37.711555289197065" lon="15.11664892344504"><ele>659.0</ele><time>2026-04-19T08:17:48.938Z</time></trkpt><trkpt lat="37.71148989040556" lon="15.116719101162047"><ele>657.3333333333333</ele><time>2026-04-19T08:17:49.938Z</time></trkpt><trkpt lat="37.71140949276007" lon="15.116766332380124"><ele>655.6666666666666</ele><time>2026-04-19T08:17:50.938Z</time></trkpt><trkpt lat="37.71131896644289" lon="15.116756120053003"><ele>654.0</ele><time>2026-04-19T08:17:51.938Z</time></trkpt><trkpt lat="37.71125144487293" lon="15.116708001026655"><ele>652.3333333333334</ele><time>2026-04-19T08:17:52.938Z</time></trkpt><trkpt lat="37.71117747986014" lon="15.116649440842481"><ele>650.6666666666667</ele><time>2026-04-19T08:17:53.938Z</time></trkpt><trkpt lat="37.71110562696861" lon="15.116589939138384"><ele>649.0</ele><time>2026-04-19T08:17:54.938Z</time></trkpt><trkpt lat="37.71103391959657" lon="15.116490030436916"><ele>649.0</ele><time>2026-04-19T08:17:55.938Z</time></trkpt><trkpt lat="37.71094979340062" lon="15.116409952269203"><ele>649.0</ele><time>2026-04-19T08:17:56.938Z</time></trkpt><trkpt lat="37.710870143079894" lon="15.116342066060358"><ele>649.0</ele><time>2026-04-19T08:17:57.938Z</time></trkpt><trkpt lat="37.71078983811315" lon="15.116288145910941"><ele>649.0</ele><time>2026-04-19T08:17:58.938Z</time></trkpt><trkpt lat="37.71072282490533" lon="15.116220703304311"><ele>649.0</ele><time>2026-04-19T08:17:59.938Z</time></trkpt><trkpt lat="37.71063551915268" lon="15.116169759219867"><ele>649.0</ele><time>2026-04-19T08:18:00.937Z</time></trkpt><trkpt lat="37.710565537530705" lon="15.116119061186053"><ele>649.0</ele><time>2026-04-19T08:18:01.937Z</time></trkpt><trkpt lat="37.71050087715132" lon="15.116092144588674"><ele>649.0</ele><time>2026-04-19T08:18:02.937Z</time></trkpt><trkpt lat="37.710427969415655" lon="15.116065657678954"><ele>649.0</ele><time>2026-04-19T08:18:03.937Z</time></trkpt><trkpt lat="37.710362183975725" lon="15.116047655606648"><ele>649.0</ele><time>2026-04-19T08:18:04.937Z</time></trkpt><trkpt lat="37.71027523901731" lon="15.11604977747976"><ele>649.0</ele><time>2026-04-19T08:18:05.937Z</time></trkpt><trkpt lat="37.71015402652601" lon="15.116105025862051"><ele>648.0</ele><time>2026-04-19T08:18:07.937Z</time></trkpt><trkpt lat="37.71007557887442" lon="15.116140863471866"><ele>647.0</ele><time>2026-04-19T08:18:08.937Z</time></trkpt><trkpt lat="37.70998974873405" lon="15.11614790517719"><ele>646.0</ele><time>2026-04-19T08:18:09.937Z</time></trkpt><trkpt lat="37.70990618519094" lon="15.11615111948527"><ele>645.0</ele><time>2026-04-19T08:18:10.937Z</time></trkpt><trkpt lat="37.709814017630734" lon="15.116140080475482"><ele>644.0</ele><time>2026-04-19T08:18:11.937Z</time></trkpt><trkpt lat="37.709732948198116" lon="15.116103317412858"><ele>643.0</ele><time>2026-04-19T08:18:12.937Z</time></trkpt><trkpt lat="37.7096570675949" lon="15.116076138046353"><ele>643.0</ele><time>2026-04-19T08:18:13.937Z</time></trkpt><trkpt lat="37.70957399788232" lon="15.116050531153649"><ele>643.0</ele><time>2026-04-19T08:18:14.937Z</time></trkpt><trkpt lat="37.709507705704105" lon="15.116046923663335"><ele>643.0</ele><time>2026-04-19T08:18:15.939Z</time></trkpt><trkpt lat="37.709435327683316" lon="15.116051434187252"><ele>643.0</ele><time>2026-04-19T08:18:16.94Z</time></trkpt><trkpt lat="37.70933961167065" lon="15.116057141106152"><ele>643.0</ele><time>2026-04-19T08:18:17.94Z</time></trkpt><trkpt lat="37.70922714234937" lon="15.116093679615632"><ele>643.0</ele><time>2026-04-19T08:18:18.939Z</time></trkpt><trkpt lat="37.709121319109045" lon="15.116138567501869"><ele>640.1999999999999</ele><time>2026-04-19T08:18:19.939Z</time></trkpt><trkpt lat="37.709014025627845" lon="15.116214142981885"><ele>637.4</ele><time>2026-04-19T08:18:20.939Z</time></trkpt><trkpt lat="37.708903021502806" lon="15.116283781998503"><ele>634.5999999999999</ele><time>2026-04-19T08:18:21.94Z</time></trkpt><trkpt lat="37.70881147662487" lon="15.116333717082037"><ele>631.8</ele><time>2026-04-19T08:18:22.939Z</time></trkpt><trkpt lat="37.70877205646721" lon="15.116400925410353"><ele>629.0</ele><time>2026-04-19T08:18:23.939Z</time></trkpt><trkpt lat="37.708655656847725" lon="15.116495555542295"><ele>625.25</ele><time>2026-04-19T08:18:24.939Z</time></trkpt><trkpt lat="37.7085341610729" lon="15.116613272918478"><ele>621.5</ele><time>2026-04-19T08:18:25.939Z</time></trkpt><trkpt lat="37.708418758459615" lon="15.116737109319608"><ele>617.75</ele><time>2026-04-19T08:18:26.939Z</time></trkpt><trkpt lat="37.708303262412294" lon="15.116842547748453"><ele>614.0</ele><time>2026-04-19T08:18:27.939Z</time></trkpt><trkpt lat="37.7081924812491" lon="15.116949166551642"><ele>614.0</ele><time>2026-04-19T08:18:28.939Z</time></trkpt><trkpt lat="37.708093407172285" lon="15.117065326836059"><ele>614.0</ele><time>2026-04-19T08:18:29.939Z</time></trkpt><trkpt lat="37.70799463813857" lon="15.117172683217268"><ele>614.0</ele><time>2026-04-19T08:18:30.939Z</time></trkpt><trkpt lat="37.70790787658869" lon="15.117286924357265"><ele>614.0</ele><time>2026-04-19T08:18:31.939Z</time></trkpt><trkpt lat="37.70784754479933" lon="15.117379283701222"><ele>613.6</ele><time>2026-04-19T08:18:32.939Z</time></trkpt><trkpt lat="37.70779504480738" lon="15.117451335768239"><ele>613.2</ele><time>2026-04-19T08:18:33.939Z</time></trkpt><trkpt lat="37.70768901080868" lon="15.117518161356259"><ele>612.8000000000001</ele><time>2026-04-19T08:18:35.939Z</time></trkpt><trkpt lat="37.70758577028897" lon="15.117482716134557"><ele>612.4</ele><time>2026-04-19T08:18:37.939Z</time></trkpt><trkpt lat="37.70756987031195" lon="15.117389758096895"><ele>612.0</ele><time>2026-04-19T08:18:38.939Z</time></trkpt><trkpt lat="37.707674647809014" lon="15.117195463934292"><ele>612.4</ele><time>2026-04-19T08:18:40.939Z</time></trkpt><trkpt lat="37.707756841882315" lon="15.11707506822539"><ele>612.8000000000001</ele><time>2026-04-19T08:18:41.939Z</time></trkpt><trkpt lat="37.707829127643805" lon="15.116970008999843"><ele>613.2</ele><time>2026-04-19T08:18:42.939Z</time></trkpt><trkpt lat="37.707892963256896" lon="15.116876052340242"><ele>613.6</ele><time>2026-04-19T08:18:43.939Z</time></trkpt><trkpt lat="37.7079596830176" lon="15.116783944546787"><ele>614.0</ele><time>2026-04-19T08:18:44.939Z</time></trkpt><trkpt lat="37.70802118308027" lon="15.11669428128029"><ele>614.0</ele><time>2026-04-19T08:18:45.939Z</time></trkpt><trkpt lat="37.70808226787264" lon="15.116610111488889"><ele>614.0</ele><time>2026-04-19T08:18:46.939Z</time></trkpt><trkpt lat="37.70814968462404" lon="15.11653341570579"><ele>614.0</ele><time>2026-04-19T08:18:47.939Z</time></trkpt><trkpt lat="37.7082022292694" lon="15.116443522989389"><ele>614.0</ele><time>2026-04-19T08:18:48.939Z</time></trkpt><trkpt lat="37.70823176774167" lon="15.116338120199952"><ele>614.0</ele><time>2026-04-19T08:18:49.939Z</time></trkpt><trkpt lat="37.70823912560244" lon="15.11622686402973"><ele>614.0</ele><time>2026-04-19T08:18:50.939Z</time></trkpt><trkpt lat="37.70819908510877" lon="15.116116511673486"><ele>614.8</ele><time>2026-04-19T08:18:51.939Z</time></trkpt><trkpt lat="37.70812386346192" lon="15.116032221459498"><ele>615.5999999999999</ele><time>2026-04-19T08:18:52.939Z</time></trkpt><trkpt lat="37.70801933905792" lon="15.115977929071233"><ele>616.4</ele><time>2026-04-19T08:18:53.939Z</time></trkpt><trkpt lat="37.70793284452671" lon="15.115965874833641"><ele>617.1999999999999</ele><time>2026-04-19T08:18:54.939Z</time></trkpt><trkpt lat="37.70782540403039" lon="15.116020568622863"><ele>618.0</ele><time>2026-04-19T08:18:55.939Z</time></trkpt><trkpt lat="37.70773719249232" lon="15.116129889668436"><ele>616.0</ele><time>2026-04-19T08:18:56.939Z</time></trkpt><trkpt lat="37.70766590295755" lon="15.116215577773074"><ele>614.0</ele><time>2026-04-19T08:18:57.938Z</time></trkpt><trkpt lat="37.7075920511761" lon="15.116279217318118"><ele>612.0</ele><time>2026-04-19T08:18:58.938Z</time></trkpt><trkpt lat="37.707512935157915" lon="15.116355867391826"><ele>610.0</ele><time>2026-04-19T08:18:59.938Z</time></trkpt><trkpt lat="37.70743743498131" lon="15.116417556449584"><ele>608.0</ele><time>2026-04-19T08:19:00.938Z</time></trkpt><trkpt lat="37.70728758813249" lon="15.116385916574679"><ele>608.0</ele><time>2026-04-19T08:19:02.938Z</time></trkpt><trkpt lat="37.70719829875045" lon="15.116321685960976"><ele>608.0</ele><time>2026-04-19T08:19:03.938Z</time></trkpt><trkpt lat="37.70710011683384" lon="15.116260412543982"><ele>608.0</ele><time>2026-04-19T08:19:04.938Z</time></trkpt><trkpt lat="37.70700350347427" lon="15.116212238522696"><ele>608.0</ele><time>2026-04-19T08:19:05.938Z</time></trkpt><trkpt lat="37.70690719696081" lon="15.116200378701539"><ele>608.0</ele><time>2026-04-19T08:19:06.938Z</time></trkpt><trkpt lat="37.706827657391145" lon="15.11616866863971"><ele>606.1999999999999</ele><time>2026-04-19T08:19:07.938Z</time></trkpt><trkpt lat="37.706744353130055" lon="15.116166108319398"><ele>604.4</ele><time>2026-04-19T08:19:08.938Z</time></trkpt><trkpt lat="37.706651379477464" lon="15.116243571037487"><ele>602.5999999999999</ele><time>2026-04-19T08:19:09.938Z</time></trkpt><trkpt lat="37.70657958693587" lon="15.11633765493375"><ele>600.8</ele><time>2026-04-19T08:19:10.938Z</time></trkpt><trkpt lat="37.70652504573021" lon="15.116445794425601"><ele>599.0</ele><time>2026-04-19T08:19:11.938Z</time></trkpt><trkpt lat="37.70645237023585" lon="15.116575792130197"><ele>597.2</ele><time>2026-04-19T08:19:12.938Z</time></trkpt><trkpt lat="37.70638380721145" lon="15.116679220894003"><ele>595.4</ele><time>2026-04-19T08:19:13.938Z</time></trkpt><trkpt lat="37.70632024861096" lon="15.116790396995041"><ele>593.6</ele><time>2026-04-19T08:19:14.938Z</time></trkpt><trkpt lat="37.70625312353888" lon="15.116886078235952"><ele>591.8</ele><time>2026-04-19T08:19:15.938Z</time></trkpt><trkpt lat="37.70618103860819" lon="15.116997064056925"><ele>590.0</ele><time>2026-04-19T08:19:16.938Z</time></trkpt><trkpt lat="37.706103840578216" lon="15.117095770752575"><ele>590.2</ele><time>2026-04-19T08:19:17.938Z</time></trkpt><trkpt lat="37.7060303111398" lon="15.117201919206655"><ele>590.4</ele><time>2026-04-19T08:19:18.938Z</time></trkpt><trkpt lat="37.70595133101463" lon="15.117287357689307"><ele>590.6</ele><time>2026-04-19T08:19:19.938Z</time></trkpt><trkpt lat="37.7058904920881" lon="15.11737013436305"><ele>590.8</ele><time>2026-04-19T08:19:20.938Z</time></trkpt><trkpt lat="37.70582340206648" lon="15.117432783199263"><ele>591.0</ele><time>2026-04-19T08:19:21.938Z</time></trkpt><trkpt lat="37.70573975356354" lon="15.117434517956903"><ele>591.0</ele><time>2026-04-19T08:19:22.938Z</time></trkpt><trkpt lat="37.70566228732595" lon="15.117395929909767"><ele>591.0</ele><time>2026-04-19T08:19:23.938Z</time></trkpt><trkpt lat="37.705585407599536" lon="15.11733606463112"><ele>591.0</ele><time>2026-04-19T08:19:24.938Z</time></trkpt><trkpt lat="37.7055034511374" lon="15.117266851082022"><ele>591.0</ele><time>2026-04-19T08:19:25.938Z</time></trkpt><trkpt lat="37.705427823268266" lon="15.117202189669047"><ele>591.0</ele><time>2026-04-19T08:19:26.938Z</time></trkpt><trkpt lat="37.705357380923964" lon="15.11713068828188"><ele>591.0</ele><time>2026-04-19T08:19:27.937Z</time></trkpt><trkpt lat="37.705284653395815" lon="15.117057272577222"><ele>591.0</ele><time>2026-04-19T08:19:28.937Z</time></trkpt><trkpt lat="37.705216361169406" lon="15.116980860634614"><ele>591.0</ele><time>2026-04-19T08:19:29.937Z</time></trkpt><trkpt lat="37.70515967365083" lon="15.116910480443375"><ele>591.0</ele><time>2026-04-19T08:19:30.937Z</time></trkpt><trkpt lat="37.70510366763993" lon="15.116847277773157"><ele>591.0</ele><time>2026-04-19T08:19:31.937Z</time></trkpt><trkpt lat="37.70505247211446" lon="15.116786550286806"><ele>591.0</ele><time>2026-04-19T08:19:32.937Z</time></trkpt><trkpt lat="37.705011981662494" lon="15.116683973654661"><ele>588.75</ele><time>2026-04-19T08:19:33.937Z</time></trkpt><trkpt lat="37.70501248424212" lon="15.116527250268666"><ele>586.5</ele><time>2026-04-19T08:19:34.937Z</time></trkpt><trkpt lat="37.704984239848585" lon="15.116343027384275"><ele>584.25</ele><time>2026-04-19T08:19:35.937Z</time></trkpt><trkpt lat="37.704957760507156" lon="15.116159963531864"><ele>582.0</ele><time>2026-04-19T08:19:36.937Z</time></trkpt><trkpt lat="37.70493558198881" lon="15.116002186283337"><ele>582.0</ele><time>2026-04-19T08:19:37.937Z</time></trkpt><trkpt lat="37.704904427604255" lon="15.11586373335402"><ele>582.0</ele><time>2026-04-19T08:19:38.937Z</time></trkpt><trkpt lat="37.704922001766185" lon="15.11571521704874"><ele>582.0</ele><time>2026-04-19T08:19:39.937Z</time></trkpt><trkpt lat="37.704922954296265" lon="15.115569380194579"><ele>582.0</ele><time>2026-04-19T08:19:40.937Z</time></trkpt><trkpt lat="37.704920933766516" lon="15.115413298568335"><ele>581.75</ele><time>2026-04-19T08:19:41.937Z</time></trkpt><trkpt lat="37.70489237010421" lon="15.115254666265713"><ele>581.5</ele><time>2026-04-19T08:19:42.937Z</time></trkpt><trkpt lat="37.704867687438686" lon="15.115094802072838"><ele>581.25</ele><time>2026-04-19T08:19:43.937Z</time></trkpt><trkpt lat="37.70481177006247" lon="15.114940676802401"><ele>581.0</ele><time>2026-04-19T08:19:44.937Z</time></trkpt><trkpt lat="37.70471404326942" lon="15.114812907622412"><ele>580.75</ele><time>2026-04-19T08:19:45.937Z</time></trkpt><trkpt lat="37.70462950445319" lon="15.114687496379517"><ele>580.5</ele><time>2026-04-19T08:19:46.937Z</time></trkpt><trkpt lat="37.70457595141761" lon="15.114559104769855"><ele>580.25</ele><time>2026-04-19T08:19:47.937Z</time></trkpt><trkpt lat="37.704511291971464" lon="15.114445171157225"><ele>580.0</ele><time>2026-04-19T08:19:48.937Z</time></trkpt><trkpt lat="37.70446419010553" lon="15.114328754533851"><ele>580.0</ele><time>2026-04-19T08:19:49.937Z</time></trkpt><trkpt lat="37.70442075338158" lon="15.114212106203608"><ele>580.0</ele><time>2026-04-19T08:19:50.937Z</time></trkpt><trkpt lat="37.704376895936356" lon="15.11410191868079"><ele>580.0</ele><time>2026-04-19T08:19:51.937Z</time></trkpt><trkpt lat="37.70435008914172" lon="15.114005271480332"><ele>580.0</ele><time>2026-04-19T08:19:52.937Z</time></trkpt><trkpt lat="37.704320202583325" lon="15.113921220510186"><ele>580.0</ele><time>2026-04-19T08:19:53.937Z</time></trkpt><trkpt lat="37.70427376111385" lon="15.113840443514329"><ele>580.0</ele><time>2026-04-19T08:19:54.937Z</time></trkpt><trkpt lat="37.70425696132802" lon="15.113746654441503"><ele>579.0</ele><time>2026-04-19T08:19:55.937Z</time></trkpt><trkpt lat="37.70420857263756" lon="15.113654932613303"><ele>578.0</ele><time>2026-04-19T08:19:56.936Z</time></trkpt><trkpt lat="37.70416616249373" lon="15.11353392076624"><ele>577.0</ele><time>2026-04-19T08:19:57.936Z</time></trkpt><trkpt lat="37.70410839018787" lon="15.11340014026351"><ele>576.0</ele><time>2026-04-19T08:19:58.936Z</time></trkpt><trkpt lat="37.70402714741262" lon="15.113260897377646"><ele>575.0</ele><time>2026-04-19T08:19:59.936Z</time></trkpt><trkpt lat="37.70396367858537" lon="15.113080199895345"><ele>575.0</ele><time>2026-04-19T08:20:00.936Z</time></trkpt><trkpt lat="37.70385636749106" lon="15.112907081271684"><ele>575.0</ele><time>2026-04-19T08:20:01.936Z</time></trkpt><trkpt lat="37.70374204128235" lon="15.112708489027016"><ele>575.0</ele><time>2026-04-19T08:20:02.936Z</time></trkpt><trkpt lat="37.70361448326231" lon="15.112516782158096"><ele>578.0</ele><time>2026-04-19T08:20:03.936Z</time></trkpt><trkpt lat="37.70349090581675" lon="15.11233572480753"><ele>581.0</ele><time>2026-04-19T08:20:04.936Z</time></trkpt><trkpt lat="37.70337248763699" lon="15.112197273022433"><ele>584.0</ele><time>2026-04-19T08:20:05.936Z</time></trkpt><trkpt lat="37.7032679922785" lon="15.112072039815676"><ele>584.0</ele><time>2026-04-19T08:20:06.936Z</time></trkpt><trkpt lat="37.703186358230624" lon="15.111964120388324"><ele>584.0</ele><time>2026-04-19T08:20:07.936Z</time></trkpt><trkpt lat="37.703093387908645" lon="15.111860160744428"><ele>584.0</ele><time>2026-04-19T08:20:08.936Z</time></trkpt><trkpt lat="37.70300929155532" lon="15.11171870018251"><ele>584.0</ele><time>2026-04-19T08:20:09.936Z</time></trkpt><trkpt lat="37.70293621200548" lon="15.111544896358131"><ele>586.0</ele><time>2026-04-19T08:20:10.936Z</time></trkpt><trkpt lat="37.70288587611287" lon="15.11137607555587"><ele>588.0</ele><time>2026-04-19T08:20:11.936Z</time></trkpt><trkpt lat="37.70284522668905" lon="15.111227484054409"><ele>590.0</ele><time>2026-04-19T08:20:12.936Z</time></trkpt><trkpt lat="37.702813307241804" lon="15.111084714649149"><ele>592.0</ele><time>2026-04-19T08:20:13.936Z</time></trkpt><trkpt lat="37.70282369072168" lon="15.110937179436476"><ele>592.0</ele><time>2026-04-19T08:20:14.936Z</time></trkpt><trkpt lat="37.70282672528582" lon="15.110780582612245"><ele>592.0</ele><time>2026-04-19T08:20:15.936Z</time></trkpt><trkpt lat="37.70280096402359" lon="15.110647022326761"><ele>592.0</ele><time>2026-04-19T08:20:16.936Z</time></trkpt><trkpt lat="37.70274559357089" lon="15.110535427874797"><ele>592.0</ele><time>2026-04-19T08:20:17.936Z</time></trkpt><trkpt lat="37.70264057156551" lon="15.110452360888273"><ele>592.25</ele><time>2026-04-19T08:20:18.936Z</time></trkpt><trkpt lat="37.70253128042974" lon="15.110354880611633"><ele>592.5</ele><time>2026-04-19T08:20:19.936Z</time></trkpt><trkpt lat="37.7024123676489" lon="15.110289442443703"><ele>592.75</ele><time>2026-04-19T08:20:20.936Z</time></trkpt><trkpt lat="37.70232396079733" lon="15.110166142090417"><ele>593.0</ele><time>2026-04-19T08:20:21.937Z</time></trkpt><trkpt lat="37.70220235205878" lon="15.110091360618496"><ele>593.0</ele><time>2026-04-19T08:20:22.937Z</time></trkpt><trkpt lat="37.70206804805377" lon="15.109979802810305"><ele>593.0</ele><time>2026-04-19T08:20:23.937Z</time></trkpt><trkpt lat="37.70189745149693" lon="15.109882509666622"><ele>593.0</ele><time>2026-04-19T08:20:24.937Z</time></trkpt><trkpt lat="37.701708311563934" lon="15.109757899397719"><ele>597.0</ele><time>2026-04-19T08:20:25.937Z</time></trkpt><trkpt lat="37.701486953738616" lon="15.109652169866651"><ele>601.0</ele><time>2026-04-19T08:20:26.937Z</time></trkpt><trkpt lat="37.70129086294052" lon="15.10952498843547"><ele>601.0</ele><time>2026-04-19T08:20:27.936Z</time></trkpt><trkpt lat="37.701132132994466" lon="15.109400163825866"><ele>601.0</ele><time>2026-04-19T08:20:28.933Z</time></trkpt><trkpt lat="37.70099992378596" lon="15.109267038375004"><ele>601.0</ele><time>2026-04-19T08:20:29.93Z</time></trkpt><trkpt lat="37.700870422777655" lon="15.109134577149575"><ele>603.0</ele><time>2026-04-19T08:20:30.928Z</time></trkpt><trkpt lat="37.70075135884099" lon="15.108995597987796"><ele>605.0</ele><time>2026-04-19T08:20:31.926Z</time></trkpt><trkpt lat="37.700623986001155" lon="15.10884028434095"><ele>607.0</ele><time>2026-04-19T08:20:32.924Z</time></trkpt><trkpt lat="37.70047286732037" lon="15.108693451524333"><ele>607.0</ele><time>2026-04-19T08:20:33.922Z</time></trkpt><trkpt lat="37.700331388943205" lon="15.108546827812521"><ele>607.0</ele><time>2026-04-19T08:20:34.92Z</time></trkpt><trkpt lat="37.70020487571291" lon="15.108423304311957"><ele>607.0</ele><time>2026-04-19T08:20:35.918Z</time></trkpt><trkpt lat="37.70009401882078" lon="15.108322512787502"><ele>606.25</ele><time>2026-04-19T08:20:36.916Z</time></trkpt><trkpt lat="37.699998394261556" lon="15.108251390638866"><ele>605.5</ele><time>2026-04-19T08:20:37.915Z</time></trkpt><trkpt lat="37.699895046332614" lon="15.10823022026047"><ele>604.75</ele><time>2026-04-19T08:20:38.913Z</time></trkpt><trkpt lat="37.699784354903585" lon="15.108231221780832"><ele>604.0</ele><time>2026-04-19T08:20:39.912Z</time></trkpt><trkpt lat="37.69965992733487" lon="15.108250691392858"><ele>604.0</ele><time>2026-04-19T08:20:40.911Z</time></trkpt><trkpt lat="37.699553346690735" lon="15.108258497259566"><ele>604.0</ele><time>2026-04-19T08:20:41.909Z</time></trkpt><trkpt lat="37.699460794549616" lon="15.108222446086414"><ele>604.0</ele><time>2026-04-19T08:20:42.908Z</time></trkpt><trkpt lat="37.69937354021515" lon="15.108173196120543"><ele>604.0</ele><time>2026-04-19T08:20:43.907Z</time></trkpt><trkpt lat="37.69929277382605" lon="15.108104154143357"><ele>604.0</ele><time>2026-04-19T08:20:44.906Z</time></trkpt><trkpt lat="37.699216311759514" lon="15.108044904617106"><ele>604.0</ele><time>2026-04-19T08:20:45.905Z</time></trkpt><trkpt lat="37.69914627514575" lon="15.108020508721118"><ele>604.0</ele><time>2026-04-19T08:20:46.904Z</time></trkpt><trkpt lat="37.699063547314175" lon="15.108005164708086"><ele>604.0</ele><time>2026-04-19T08:20:47.903Z</time></trkpt><trkpt lat="37.698971454347216" lon="15.10799205035852"><ele>604.0</ele><time>2026-04-19T08:20:48.903Z</time></trkpt><trkpt lat="37.69886703298333" lon="15.107981105570904"><ele>604.0</ele><time>2026-04-19T08:20:49.902Z</time></trkpt><trkpt lat="37.69875856280359" lon="15.107990146682521"><ele>604.0</ele><time>2026-04-19T08:20:50.901Z</time></trkpt><trkpt lat="37.69864186407786" lon="15.108004560486872"><ele>604.0</ele><time>2026-04-19T08:20:51.901Z</time></trkpt><trkpt lat="37.69853438329473" lon="15.108010184497825"><ele>604.0</ele><time>2026-04-19T08:20:52.9Z</time></trkpt><trkpt lat="37.698422860486" lon="15.108005402141842"><ele>604.0</ele><time>2026-04-19T08:20:53.899Z</time></trkpt><trkpt lat="37.69831862664061" lon="15.107937253409872"><ele>602.5</ele><time>2026-04-19T08:20:54.899Z</time></trkpt><trkpt lat="37.69819597368974" lon="15.107861500433584"><ele>601.0</ele><time>2026-04-19T08:20:55.898Z</time></trkpt><trkpt lat="37.698058191992715" lon="15.107798193542521"><ele>599.5</ele><time>2026-04-19T08:20:56.898Z</time></trkpt><trkpt lat="37.697932386691384" lon="15.107740775862391"><ele>598.0</ele><time>2026-04-19T08:20:57.897Z</time></trkpt><trkpt lat="37.69781546653236" lon="15.107668911818681"><ele>595.6666666666667</ele><time>2026-04-19T08:20:58.897Z</time></trkpt><trkpt lat="37.69767344803151" lon="15.10764395767529"><ele>593.3333333333334</ele><time>2026-04-19T08:20:59.896Z</time></trkpt><trkpt lat="37.6975217307167" lon="15.107641389769078"><ele>591.0</ele><time>2026-04-19T08:21:00.896Z</time></trkpt><trkpt lat="37.697340490793096" lon="15.107654547909934"><ele>591.0</ele><time>2026-04-19T08:21:01.896Z</time></trkpt><trkpt lat="37.69717036388565" lon="15.107638016610444"><ele>591.0</ele><time>2026-04-19T08:21:02.895Z</time></trkpt><trkpt lat="37.6969949376724" lon="15.10763391635742"><ele>591.0</ele><time>2026-04-19T08:21:03.895Z</time></trkpt><trkpt lat="37.69682537058123" lon="15.107648820820213"><ele>589.0</ele><time>2026-04-19T08:21:04.895Z</time></trkpt><trkpt lat="37.69665401312567" lon="15.107682280616551"><ele>587.0</ele><time>2026-04-19T08:21:05.894Z</time></trkpt><trkpt lat="37.69650064850799" lon="15.107715846345199"><ele>585.0</ele><time>2026-04-19T08:21:06.894Z</time></trkpt><trkpt lat="37.69635689853163" lon="15.10773744132589"><ele>585.0</ele><time>2026-04-19T08:21:07.894Z</time></trkpt><trkpt lat="37.69621334728693" lon="15.107760086835555"><ele>585.0</ele><time>2026-04-19T08:21:08.894Z</time></trkpt><trkpt lat="37.696068721022755" lon="15.107767193039153"><ele>585.0</ele><time>2026-04-19T08:21:09.893Z</time></trkpt><trkpt lat="37.6959424603541" lon="15.107773552166204"><ele>585.0</ele><time>2026-04-19T08:21:10.893Z</time></trkpt><trkpt lat="37.69582774288142" lon="15.107783136619483"><ele>585.75</ele><time>2026-04-19T08:21:11.893Z</time></trkpt><trkpt lat="37.695736401008254" lon="15.1077959260475"><ele>586.5</ele><time>2026-04-19T08:21:12.893Z</time></trkpt><trkpt lat="37.695730372415845" lon="15.108075340348126"><ele>587.25</ele><time>2026-04-19T08:21:25.891Z</time></trkpt><trkpt lat="37.69574021416418" lon="15.108204269408768"><ele>588.0</ele><time>2026-04-19T08:21:26.891Z</time></trkpt><trkpt lat="37.695749798963924" lon="15.108330126381745"><ele>586.1999999999999</ele><time>2026-04-19T08:21:27.891Z</time></trkpt><trkpt lat="37.695773282356505" lon="15.108447516302249"><ele>584.4</ele><time>2026-04-19T08:21:28.891Z</time></trkpt><trkpt lat="37.69575751732119" lon="15.10856878260694"><ele>582.5999999999999</ele><time>2026-04-19T08:21:29.89Z</time></trkpt><trkpt lat="37.69577133035984" lon="15.108692380725838"><ele>580.8</ele><time>2026-04-19T08:21:30.89Z</time></trkpt><trkpt lat="37.69579080804886" lon="15.108816113949866"><ele>579.0</ele><time>2026-04-19T08:21:31.89Z</time></trkpt><trkpt lat="37.69580651133368" lon="15.108942876331687"><ele>577.4</ele><time>2026-04-19T08:21:32.89Z</time></trkpt><trkpt lat="37.69583275948977" lon="15.109077838470322"><ele>575.8</ele><time>2026-04-19T08:21:33.89Z</time></trkpt><trkpt lat="37.695844129859076" lon="15.109206813069544"><ele>574.2</ele><time>2026-04-19T08:21:34.89Z</time></trkpt><trkpt lat="37.69585085224004" lon="15.109344926651273"><ele>572.6</ele><time>2026-04-19T08:21:35.89Z</time></trkpt><trkpt lat="37.69586633604486" lon="15.109485513486312"><ele>571.0</ele><time>2026-04-19T08:21:36.89Z</time></trkpt><trkpt lat="37.695884840701396" lon="15.109622709899247"><ele>571.0</ele><time>2026-04-19T08:21:37.89Z</time></trkpt><trkpt lat="37.695897634179794" lon="15.109760532206318"><ele>571.0</ele><time>2026-04-19T08:21:38.89Z</time></trkpt><trkpt lat="37.6959123097643" lon="15.109905791883046"><ele>571.0</ele><time>2026-04-19T08:21:39.89Z</time></trkpt><trkpt lat="37.69592804729356" lon="15.110058312009539"><ele>571.0</ele><time>2026-04-19T08:21:40.89Z</time></trkpt><trkpt lat="37.69594165281252" lon="15.110201514107061"><ele>569.75</ele><time>2026-04-19T08:21:41.889Z</time></trkpt><trkpt lat="37.69595805354337" lon="15.110368291650795"><ele>568.5</ele><time>2026-04-19T08:21:42.889Z</time></trkpt><trkpt lat="37.69598855017212" lon="15.110537213178834"><ele>567.25</ele><time>2026-04-19T08:21:43.889Z</time></trkpt><trkpt lat="37.696016250673075" lon="15.110710806615064"><ele>566.0</ele><time>2026-04-19T08:21:44.889Z</time></trkpt><trkpt lat="37.69604185517044" lon="15.11092755014574"><ele>562.6666666666666</ele><time>2026-04-19T08:21:45.889Z</time></trkpt><trkpt lat="37.69607133915589" lon="15.11119343883543"><ele>559.3333333333334</ele><time>2026-04-19T08:21:46.889Z</time></trkpt><trkpt lat="37.69607870653296" lon="15.111457522355831"><ele>556.0</ele><time>2026-04-19T08:21:47.889Z</time></trkpt><trkpt lat="37.69609709132382" lon="15.111690116222794"><ele>555.0</ele><time>2026-04-19T08:21:48.889Z</time></trkpt><trkpt lat="37.6961221791085" lon="15.111897886787505"><ele>554.0</ele><time>2026-04-19T08:21:49.889Z</time></trkpt><trkpt lat="37.69615002990833" lon="15.112098751025378"><ele>553.0</ele><time>2026-04-19T08:21:50.889Z</time></trkpt><trkpt lat="37.69617280319304" lon="15.112296714047833"><ele>551.0</ele><time>2026-04-19T08:21:51.889Z</time></trkpt><trkpt lat="37.69620012139883" lon="15.112486023097993"><ele>549.0</ele><time>2026-04-19T08:21:52.889Z</time></trkpt><trkpt lat="37.696213030067824" lon="15.112658620109094"><ele>547.0</ele><time>2026-04-19T08:21:53.889Z</time></trkpt><trkpt lat="37.69621878050666" lon="15.11280193679887"><ele>545.0</ele><time>2026-04-19T08:21:54.889Z</time></trkpt><trkpt lat="37.696227871326656" lon="15.11290361030582"><ele>545.0</ele><time>2026-04-19T08:21:56.889Z</time></trkpt><trkpt lat="37.69624738564733" lon="15.112988949386532"><ele>545.0</ele><time>2026-04-19T08:21:59.888Z</time></trkpt><trkpt lat="37.69645880798004" lon="15.11299335498422"><ele>545.0</ele><time>2026-04-19T08:22:00.888Z</time></trkpt><trkpt lat="37.696569582863255" lon="15.11305030733819"><ele>545.0</ele><time>2026-04-19T08:22:01.888Z</time></trkpt><trkpt lat="37.696679128411304" lon="15.113133187390398"><ele>545.0</ele><time>2026-04-19T08:22:02.888Z</time></trkpt><trkpt lat="37.696797347526385" lon="15.113232238527825"><ele>545.0</ele><time>2026-04-19T08:22:03.888Z</time></trkpt><trkpt lat="37.6969133231695" lon="15.11333117149704"><ele>545.0</ele><time>2026-04-19T08:22:04.888Z</time></trkpt><trkpt lat="37.69703630748196" lon="15.113428552142782"><ele>545.0</ele><time>2026-04-19T08:22:05.888Z</time></trkpt><trkpt lat="37.69715507931284" lon="15.113498169748832"><ele>543.75</ele><time>2026-04-19T08:22:06.888Z</time></trkpt><trkpt lat="37.697274210227754" lon="15.113535804999055"><ele>542.5</ele><time>2026-04-19T08:22:07.888Z</time></trkpt><trkpt lat="37.6974082038783" lon="15.113546121389284"><ele>541.25</ele><time>2026-04-19T08:22:08.888Z</time></trkpt><trkpt lat="37.69753422408604" lon="15.113565312144317"><ele>540.0</ele><time>2026-04-19T08:22:09.888Z</time></trkpt><trkpt lat="37.69764893536597" lon="15.113642309713562"><ele>539.25</ele><time>2026-04-19T08:22:10.888Z</time></trkpt><trkpt lat="37.697753754397034" lon="15.113768285823443"><ele>538.5</ele><time>2026-04-19T08:22:11.888Z</time></trkpt><trkpt lat="37.69783527349752" lon="15.113881790875698"><ele>537.75</ele><time>2026-04-19T08:22:12.888Z</time></trkpt><trkpt lat="37.69789843051993" lon="15.113980676895162"><ele>537.0</ele><time>2026-04-19T08:22:13.888Z</time></trkpt><trkpt lat="37.69794067356205" lon="15.114071060370891"><ele>535.75</ele><time>2026-04-19T08:22:14.888Z</time></trkpt><trkpt lat="37.69797138363762" lon="15.11417890430611"><ele>534.5</ele><time>2026-04-19T08:22:15.888Z</time></trkpt><trkpt lat="37.69797434810625" lon="15.11430231074557"><ele>533.25</ele><time>2026-04-19T08:22:16.888Z</time></trkpt><trkpt lat="37.69791745274585" lon="15.114464625922382"><ele>532.0</ele><time>2026-04-19T08:22:17.887Z</time></trkpt><trkpt lat="37.69784222845727" lon="15.114640996086477"><ele>532.0</ele><time>2026-04-19T08:22:18.887Z</time></trkpt><trkpt lat="37.69779809567206" lon="15.114820464507224"><ele>532.0</ele><time>2026-04-19T08:22:19.887Z</time></trkpt><trkpt lat="37.6977693447559" lon="15.114983832523931"><ele>532.0</ele><time>2026-04-19T08:22:20.887Z</time></trkpt><trkpt lat="37.69778436288872" lon="15.115138980815445"><ele>532.0</ele><time>2026-04-19T08:22:21.887Z</time></trkpt><trkpt lat="37.69784091423939" lon="15.115301337103896"><ele>531.0</ele><time>2026-04-19T08:22:22.887Z</time></trkpt><trkpt lat="37.697903806451315" lon="15.11546950403988"><ele>530.0</ele><time>2026-04-19T08:22:23.887Z</time></trkpt><trkpt lat="37.69795534080743" lon="15.115647492314935"><ele>529.0</ele><time>2026-04-19T08:22:24.887Z</time></trkpt><trkpt lat="37.69802249299683" lon="15.11575116201506"><ele>528.0</ele><time>2026-04-19T08:22:25.887Z</time></trkpt><trkpt lat="37.69806883221319" lon="15.115848067856001"><ele>526.8</ele><time>2026-04-19T08:22:26.887Z</time></trkpt><trkpt lat="37.69811671234056" lon="15.115947114939717"><ele>525.5999999999999</ele><time>2026-04-19T08:22:27.888Z</time></trkpt><trkpt lat="37.698151985166085" lon="15.116036350215957"><ele>524.4000000000001</ele><time>2026-04-19T08:22:28.888Z</time></trkpt><trkpt lat="37.69818479303997" lon="15.116116302657804"><ele>523.2</ele><time>2026-04-19T08:22:29.888Z</time></trkpt><trkpt lat="37.698211674895575" lon="15.116255577990216"><ele>522.0</ele><time>2026-04-19T08:22:31.887Z</time></trkpt><trkpt lat="37.69819246897849" lon="15.116404465372383"><ele>522.0</ele><time>2026-04-19T08:22:33.888Z</time></trkpt><trkpt lat="37.698127173708684" lon="15.116482991419367"><ele>522.0</ele><time>2026-04-19T08:22:34.887Z</time></trkpt><trkpt lat="37.698096440622066" lon="15.116576597706313"><ele>522.0</ele><time>2026-04-19T08:22:35.887Z</time></trkpt><trkpt lat="37.69803590594437" lon="15.116647247295582"><ele>522.0</ele><time>2026-04-19T08:22:36.888Z</time></trkpt><trkpt lat="37.697973082949154" lon="15.116719189129574"><ele>522.0</ele><time>2026-04-19T08:22:37.888Z</time></trkpt><trkpt lat="37.6979117720612" lon="15.116797420957695"><ele>522.0</ele><time>2026-04-19T08:22:38.888Z</time></trkpt><trkpt lat="37.6978438530207" lon="15.116884430282248"><ele>520.6</ele><time>2026-04-19T08:22:39.887Z</time></trkpt><trkpt lat="37.69777164787627" lon="15.116977653753375"><ele>519.2</ele><time>2026-04-19T08:22:40.887Z</time></trkpt><trkpt lat="37.697699132645496" lon="15.117080587228067"><ele>517.8</ele><time>2026-04-19T08:22:41.887Z</time></trkpt><trkpt lat="37.697625791009145" lon="15.117199795140188"><ele>516.4</ele><time>2026-04-19T08:22:42.887Z</time></trkpt><trkpt lat="37.697560688169006" lon="15.117317360899381"><ele>515.0</ele><time>2026-04-19T08:22:43.887Z</time></trkpt><trkpt lat="37.69748406301408" lon="15.117415720541196"><ele>514.0</ele><time>2026-04-19T08:22:44.887Z</time></trkpt><trkpt lat="37.69740850781425" lon="15.117535874278204"><ele>513.0</ele><time>2026-04-19T08:22:45.887Z</time></trkpt><trkpt lat="37.6973381246423" lon="15.117676835660848"><ele>512.0</ele><time>2026-04-19T08:22:46.887Z</time></trkpt><trkpt lat="37.697241570045605" lon="15.117806726439515"><ele>511.0</ele><time>2026-04-19T08:22:47.887Z</time></trkpt><trkpt lat="37.69714616879811" lon="15.117940051562686"><ele>511.0</ele><time>2026-04-19T08:22:48.887Z</time></trkpt><trkpt lat="37.69703691467993" lon="15.118050495763063"><ele>511.0</ele><time>2026-04-19T08:22:49.887Z</time></trkpt><trkpt lat="37.69694390067688" lon="15.118173914887228"><ele>511.0</ele><time>2026-04-19T08:22:50.887Z</time></trkpt><trkpt lat="37.696873431959666" lon="15.118304429759656"><ele>511.0</ele><time>2026-04-19T08:22:51.887Z</time></trkpt><trkpt lat="37.69677025549613" lon="15.118411918030224"><ele>508.75</ele><time>2026-04-19T08:22:52.886Z</time></trkpt><trkpt lat="37.696688578069114" lon="15.118547646025297"><ele>506.5</ele><time>2026-04-19T08:22:53.886Z</time></trkpt><trkpt lat="37.69660157328455" lon="15.118676000196167"><ele>504.25</ele><time>2026-04-19T08:22:54.886Z</time></trkpt><trkpt lat="37.696511541451976" lon="15.118785549727471"><ele>502.0</ele><time>2026-04-19T08:22:55.886Z</time></trkpt><trkpt lat="37.696404130078804" lon="15.118871486426329"><ele>502.0</ele><time>2026-04-19T08:22:56.886Z</time></trkpt><trkpt lat="37.69628989983533" lon="15.118941180799617"><ele>502.0</ele><time>2026-04-19T08:22:57.886Z</time></trkpt><trkpt lat="37.69618318680183" lon="15.11902932021224"><ele>502.0</ele><time>2026-04-19T08:22:58.886Z</time></trkpt><trkpt lat="37.696065710788" lon="15.119112656447667"><ele>502.0</ele><time>2026-04-19T08:22:59.886Z</time></trkpt><trkpt lat="37.695941569659745" lon="15.11919911383788"><ele>498.6666666666667</ele><time>2026-04-19T08:23:00.886Z</time></trkpt><trkpt lat="37.695799612658845" lon="15.119293467988607"><ele>495.33333333333337</ele><time>2026-04-19T08:23:01.886Z</time></trkpt><trkpt lat="37.69566366043666" lon="15.119388981952444"><ele>492.0</ele><time>2026-04-19T08:23:02.886Z</time></trkpt><trkpt lat="37.695518814313765" lon="15.119484923613834"><ele>492.0</ele><time>2026-04-19T08:23:03.886Z</time></trkpt><trkpt lat="37.69537452095719" lon="15.11957871048326"><ele>492.0</ele><time>2026-04-19T08:23:04.886Z</time></trkpt><trkpt lat="37.69522137003457" lon="15.119666122002402"><ele>492.0</ele><time>2026-04-19T08:23:05.886Z</time></trkpt><trkpt lat="37.69505674848293" lon="15.119753657735773"><ele>491.66666666666663</ele><time>2026-04-19T08:23:06.886Z</time></trkpt><trkpt lat="37.69489599643806" lon="15.119839574757464"><ele>491.3333333333333</ele><time>2026-04-19T08:23:07.886Z</time></trkpt><trkpt lat="37.694739597480265" lon="15.11992620187709"><ele>491.0</ele><time>2026-04-19T08:23:08.886Z</time></trkpt><trkpt lat="37.69458516053452" lon="15.12000458608051"><ele>488.66666666666663</ele><time>2026-04-19T08:23:09.886Z</time></trkpt><trkpt lat="37.69443842403631" lon="15.120082964147892"><ele>486.33333333333337</ele><time>2026-04-19T08:23:10.886Z</time></trkpt><trkpt lat="37.694297586397454" lon="15.120160576424027"><ele>484.0</ele><time>2026-04-19T08:23:11.886Z</time></trkpt><trkpt lat="37.69416282750685" lon="15.120237562045874"><ele>482.33333333333337</ele><time>2026-04-19T08:23:12.886Z</time></trkpt><trkpt lat="37.69401390521242" lon="15.120270289759599"><ele>480.66666666666663</ele><time>2026-04-19T08:23:13.886Z</time></trkpt><trkpt lat="37.69388671427364" lon="15.120362582903695"><ele>479.0</ele><time>2026-04-19T08:23:14.885Z</time></trkpt><trkpt lat="37.69376158392575" lon="15.120487138482332"><ele>479.0</ele><time>2026-04-19T08:23:15.885Z</time></trkpt><trkpt lat="37.69363359376051" lon="15.120630159993365"><ele>479.0</ele><time>2026-04-19T08:23:16.885Z</time></trkpt><trkpt lat="37.69348791617735" lon="15.120780049271213"><ele>479.0</ele><time>2026-04-19T08:23:17.885Z</time></trkpt><trkpt lat="37.69333279470838" lon="15.120906861130846"><ele>475.3333333333333</ele><time>2026-04-19T08:23:18.885Z</time></trkpt><trkpt lat="37.693184019108294" lon="15.12099401060477"><ele>471.66666666666663</ele><time>2026-04-19T08:23:19.885Z</time></trkpt><trkpt lat="37.69305733503785" lon="15.1210941700132"><ele>468.0</ele><time>2026-04-19T08:23:20.885Z</time></trkpt><trkpt lat="37.692956409933885" lon="15.121217521408322"><ele>468.0</ele><time>2026-04-19T08:23:21.885Z</time></trkpt><trkpt lat="37.69289097970974" lon="15.121376047754604"><ele>468.0</ele><time>2026-04-19T08:23:22.885Z</time></trkpt><trkpt lat="37.692832424297706" lon="15.121553705201292"><ele>468.0</ele><time>2026-04-19T08:23:23.885Z</time></trkpt><trkpt lat="37.69277350841031" lon="15.121735571985264"><ele>468.0</ele><time>2026-04-19T08:23:24.885Z</time></trkpt><trkpt lat="37.6926972036929" lon="15.121912207439848"><ele>465.33333333333337</ele><time>2026-04-19T08:23:25.885Z</time></trkpt><trkpt lat="37.692589699285264" lon="15.12206385711584"><ele>462.6666666666667</ele><time>2026-04-19T08:23:26.885Z</time></trkpt><trkpt lat="37.692439637903966" lon="15.122202467070812"><ele>460.0</ele><time>2026-04-19T08:23:27.885Z</time></trkpt><trkpt lat="37.69227909986946" lon="15.122332405132699"><ele>459.6666666666667</ele><time>2026-04-19T08:23:28.885Z</time></trkpt><trkpt lat="37.69211654954524" lon="15.122464099547283"><ele>459.33333333333337</ele><time>2026-04-19T08:23:29.885Z</time></trkpt><trkpt lat="37.6919729249271" lon="15.122604288471404"><ele>459.0</ele><time>2026-04-19T08:23:30.885Z</time></trkpt><trkpt lat="37.69184228539857" lon="15.122724235657728"><ele>458.0</ele><time>2026-04-19T08:23:31.885Z</time></trkpt><trkpt lat="37.69171969490579" lon="15.122830766133735"><ele>457.0</ele><time>2026-04-19T08:23:32.885Z</time></trkpt><trkpt lat="37.69160469535646" lon="15.122917468686232"><ele>456.0</ele><time>2026-04-19T08:23:33.885Z</time></trkpt><trkpt lat="37.69149452374537" lon="15.123007183853899"><ele>455.0</ele><time>2026-04-19T08:23:34.885Z</time></trkpt><trkpt lat="37.69138122161179" lon="15.123088985433181"><ele>455.0</ele><time>2026-04-19T08:23:35.885Z</time></trkpt><trkpt lat="37.69126539024356" lon="15.123176080801937"><ele>455.0</ele><time>2026-04-19T08:23:36.884Z</time></trkpt><trkpt lat="37.69115136009626" lon="15.12327119192364"><ele>455.0</ele><time>2026-04-19T08:23:37.884Z</time></trkpt><trkpt lat="37.69104230013178" lon="15.12336526494876"><ele>455.0</ele><time>2026-04-19T08:23:38.884Z</time></trkpt><trkpt lat="37.690937637427574" lon="15.123455919774015"><ele>453.25</ele><time>2026-04-19T08:23:39.884Z</time></trkpt><trkpt lat="37.69082938381853" lon="15.12355207928835"><ele>451.5</ele><time>2026-04-19T08:23:40.884Z</time></trkpt><trkpt lat="37.69072233397458" lon="15.123654695558992"><ele>449.75</ele><time>2026-04-19T08:23:41.884Z</time></trkpt><trkpt lat="37.69062621240522" lon="15.123749092607673"><ele>448.0</ele><time>2026-04-19T08:23:42.884Z</time></trkpt><trkpt lat="37.69055157286103" lon="15.123868648352836"><ele>448.0</ele><time>2026-04-19T08:23:43.884Z</time></trkpt><trkpt lat="37.690501851272174" lon="15.123997411554985"><ele>448.0</ele><time>2026-04-19T08:23:44.884Z</time></trkpt><trkpt lat="37.690451307623945" lon="15.124132333676856"><ele>448.0</ele><time>2026-04-19T08:23:45.884Z</time></trkpt><trkpt lat="37.690402034743485" lon="15.124268579236922"><ele>448.0</ele><time>2026-04-19T08:23:46.884Z</time></trkpt><trkpt lat="37.690378543958914" lon="15.124426706947972"><ele>445.25</ele><time>2026-04-19T08:23:47.884Z</time></trkpt><trkpt lat="37.69036908622269" lon="15.124579446191737"><ele>442.5</ele><time>2026-04-19T08:23:48.884Z</time></trkpt><trkpt lat="37.69035241735445" lon="15.124722777117451"><ele>439.75</ele><time>2026-04-19T08:23:49.884Z</time></trkpt><trkpt lat="37.690336285671805" lon="15.124863742819661"><ele>437.0</ele><time>2026-04-19T08:23:50.884Z</time></trkpt><trkpt lat="37.690306506864886" lon="15.125002254494595"><ele>436.8</ele><time>2026-04-19T08:23:51.884Z</time></trkpt><trkpt lat="37.69025366096309" lon="15.125135218980404"><ele>436.6</ele><time>2026-04-19T08:23:52.884Z</time></trkpt><trkpt lat="37.69018497311446" lon="15.125242167704867"><ele>436.40000000000003</ele><time>2026-04-19T08:23:53.884Z</time></trkpt><trkpt lat="37.69012360821492" lon="15.12532692567002"><ele>436.20000000000005</ele><time>2026-04-19T08:23:54.884Z</time></trkpt><trkpt lat="37.69007246356721" lon="15.125414433252207"><ele>436.0</ele><time>2026-04-19T08:23:55.884Z</time></trkpt><trkpt lat="37.69004759652529" lon="15.125537845448292"><ele>436.0</ele><time>2026-04-19T08:23:57.884Z</time></trkpt><trkpt lat="37.69011237640278" lon="15.125652199349142"><ele>436.0</ele><time>2026-04-19T08:23:59.883Z</time></trkpt><trkpt lat="37.690237254813844" lon="15.125645414187472"><ele>436.0</ele><time>2026-04-19T08:24:01.883Z</time></trkpt><trkpt lat="37.69029537889061" lon="15.125583787433822"><ele>436.0</ele><time>2026-04-19T08:24:02.883Z</time></trkpt><trkpt lat="37.690349169794985" lon="15.12550275872925"><ele>436.0</ele><time>2026-04-19T08:24:03.883Z</time></trkpt><trkpt lat="37.69039681786766" lon="15.125396684567384"><ele>436.20000000000005</ele><time>2026-04-19T08:24:04.883Z</time></trkpt><trkpt lat="37.690443218317085" lon="15.125288161393362"><ele>436.40000000000003</ele><time>2026-04-19T08:24:05.883Z</time></trkpt><trkpt lat="37.690488798511275" lon="15.125177060832177"><ele>436.6</ele><time>2026-04-19T08:24:06.883Z</time></trkpt><trkpt lat="37.6905599038948" lon="15.125091579349732"><ele>436.8</ele><time>2026-04-19T08:24:07.883Z</time></trkpt><trkpt lat="37.69059765291923" lon="15.124987416021833"><ele>437.0</ele><time>2026-04-19T08:24:08.883Z</time></trkpt><trkpt lat="37.69062856861905" lon="15.124886690171653"><ele>436.99999999999994</ele><time>2026-04-19T08:24:09.883Z</time></trkpt><trkpt lat="37.690648845162606" lon="15.124801171541705"><ele>437.0</ele><time>2026-04-19T08:24:10.883Z</time></trkpt><trkpt lat="37.69068148737645" lon="15.124701088655193"><ele>437.0</ele><time>2026-04-19T08:24:12.883Z</time></trkpt><trkpt lat="37.690746035317666" lon="15.124679795905546"><ele>437.0</ele><time>2026-04-19T08:24:14.883Z</time></trkpt><trkpt lat="37.69080436982673" lon="15.12477579939161"><ele>436.99999999999994</ele><time>2026-04-19T08:24:16.883Z</time></trkpt><trkpt lat="37.69074515047201" lon="15.124900288114892"><ele>437.0</ele><time>2026-04-19T08:24:17.883Z</time></trkpt><trkpt lat="37.69072899961849" lon="15.125064441623842"><ele>434.0</ele><time>2026-04-19T08:24:18.883Z</time></trkpt><trkpt lat="37.690705813661495" lon="15.125269942117955"><ele>431.0</ele><time>2026-04-19T08:24:19.883Z</time></trkpt><trkpt lat="37.69068197174664" lon="15.125501469616717"><ele>428.0</ele><time>2026-04-19T08:24:20.883Z</time></trkpt><trkpt lat="37.69059402540429" lon="15.125740365302526"><ele>425.5</ele><time>2026-04-19T08:24:21.882Z</time></trkpt><trkpt lat="37.69044313453955" lon="15.125983001022812"><ele>423.0</ele><time>2026-04-19T08:24:22.882Z</time></trkpt><trkpt lat="37.69029219704798" lon="15.126245340604818"><ele>423.5</ele><time>2026-04-19T08:24:23.882Z</time></trkpt><trkpt lat="37.690170673138425" lon="15.126506589376474"><ele>424.0</ele><time>2026-04-19T08:24:24.882Z</time></trkpt><trkpt lat="37.69005154741453" lon="15.12673709416309"><ele>421.0</ele><time>2026-04-19T08:24:25.882Z</time></trkpt><trkpt lat="37.689922599755675" lon="15.126948436722023"><ele>418.0</ele><time>2026-04-19T08:24:26.882Z</time></trkpt><trkpt lat="37.68977735201157" lon="15.127148103341485"><ele>415.0</ele><time>2026-04-19T08:24:27.882Z</time></trkpt><trkpt lat="37.68963966735112" lon="15.127347348574698"><ele>414.6666666666667</ele><time>2026-04-19T08:24:28.882Z</time></trkpt><trkpt lat="37.689508880511525" lon="15.12753331625213"><ele>414.33333333333337</ele><time>2026-04-19T08:24:29.882Z</time></trkpt><trkpt lat="37.68939283571028" lon="15.12770359126885"><ele>414.0</ele><time>2026-04-19T08:24:30.882Z</time></trkpt><trkpt lat="37.68928996097612" lon="15.127865562283423"><ele>412.0</ele><time>2026-04-19T08:24:31.882Z</time></trkpt><trkpt lat="37.68920906697294" lon="15.128016807444423"><ele>410.0</ele><time>2026-04-19T08:24:32.882Z</time></trkpt><trkpt lat="37.68916823187922" lon="15.128157937131384"><ele>408.0</ele><time>2026-04-19T08:24:33.884Z</time></trkpt><trkpt lat="37.68916965973179" lon="15.12830451117897"><ele>406.0</ele><time>2026-04-19T08:24:34.884Z</time></trkpt><trkpt lat="37.689178023785665" lon="15.128482244616475"><ele>404.75</ele><time>2026-04-19T08:24:35.884Z</time></trkpt><trkpt lat="37.68919327126407" lon="15.128566186271337"><ele>403.5</ele><time>2026-04-19T08:24:36.884Z</time></trkpt><trkpt lat="37.689060138006745" lon="15.128690834866141"><ele>402.25</ele><time>2026-04-19T08:24:38.883Z</time></trkpt><trkpt lat="37.68897069610386" lon="15.128767721189101"><ele>401.0</ele><time>2026-04-19T08:24:39.883Z</time></trkpt><trkpt lat="37.68892138608297" lon="15.12889273493459"><ele>401.0</ele><time>2026-04-19T08:24:40.884Z</time></trkpt><trkpt lat="37.688927565887184" lon="15.129046542974923"><ele>401.0</ele><time>2026-04-19T08:24:41.884Z</time></trkpt><trkpt lat="37.68894376281444" lon="15.129258864205449"><ele>401.0</ele><time>2026-04-19T08:24:42.883Z</time></trkpt><trkpt lat="37.68894974171679" lon="15.12940763291119"><ele>401.0</ele><time>2026-04-19T08:24:43.883Z</time></trkpt><trkpt lat="37.68894989683957" lon="15.129525572438657"><ele>398.8</ele><time>2026-04-19T08:24:44.883Z</time></trkpt><trkpt lat="37.68892227183155" lon="15.12961739363167"><ele>396.6</ele><time>2026-04-19T08:24:45.884Z</time></trkpt><trkpt lat="37.68889118223865" lon="15.129706512408674"><ele>394.4</ele><time>2026-04-19T08:24:46.883Z</time></trkpt><trkpt lat="37.68880383485509" lon="15.129764466067913"><ele>392.2</ele><time>2026-04-19T08:24:47.883Z</time></trkpt><trkpt lat="37.688713320848095" lon="15.129802092230083"><ele>390.0</ele><time>2026-04-19T08:24:48.883Z</time></trkpt><trkpt lat="37.68862140811681" lon="15.12986300548775"><ele>389.0</ele><time>2026-04-19T08:24:49.883Z</time></trkpt><trkpt lat="37.688551998851636" lon="15.129941690433641"><ele>388.0</ele><time>2026-04-19T08:24:50.883Z</time></trkpt><trkpt lat="37.6884788756035" lon="15.130017149498844"><ele>387.0</ele><time>2026-04-19T08:24:51.883Z</time></trkpt><trkpt lat="37.68840952350821" lon="15.130109546561746"><ele>386.0</ele><time>2026-04-19T08:24:52.883Z</time></trkpt><trkpt lat="37.68833532546568" lon="15.130220010085516"><ele>385.0</ele><time>2026-04-19T08:24:53.883Z</time></trkpt><trkpt lat="37.68827523925004" lon="15.130358433889645"><ele>385.0</ele><time>2026-04-19T08:24:54.883Z</time></trkpt><trkpt lat="37.68822607889522" lon="15.130497274744377"><ele>385.0</ele><time>2026-04-19T08:24:55.882Z</time></trkpt><trkpt lat="37.68818643496429" lon="15.130656102753063"><ele>385.0</ele><time>2026-04-19T08:24:56.882Z</time></trkpt><trkpt lat="37.6881380988084" lon="15.1308275740583"><ele>385.0</ele><time>2026-04-19T08:24:57.882Z</time></trkpt><trkpt lat="37.6880746780776" lon="15.130990537400853"><ele>384.0</ele><time>2026-04-19T08:24:58.882Z</time></trkpt><trkpt lat="37.68802660856732" lon="15.13117506553965"><ele>383.0</ele><time>2026-04-19T08:24:59.882Z</time></trkpt><trkpt lat="37.687978641927195" lon="15.131382933891523"><ele>382.0</ele><time>2026-04-19T08:25:00.882Z</time></trkpt><trkpt lat="37.687932612341946" lon="15.131591656977303"><ele>380.66666666666663</ele><time>2026-04-19T08:25:01.882Z</time></trkpt><trkpt lat="37.68788978085803" lon="15.131795540701155"><ele>379.3333333333333</ele><time>2026-04-19T08:25:02.882Z</time></trkpt><trkpt lat="37.687841346798045" lon="15.131990860367099"><ele>378.0</ele><time>2026-04-19T08:25:03.882Z</time></trkpt><trkpt lat="37.68780371797461" lon="15.132187419167607"><ele>378.0</ele><time>2026-04-19T08:25:04.882Z</time></trkpt><trkpt lat="37.68776963461132" lon="15.132379805814645"><ele>378.0</ele><time>2026-04-19T08:25:05.882Z</time></trkpt><trkpt lat="37.68773030111133" lon="15.132549308518804"><ele>378.0</ele><time>2026-04-19T08:25:06.882Z</time></trkpt><trkpt lat="37.68770686039947" lon="15.132698014162152"><ele>378.0</ele><time>2026-04-19T08:25:07.882Z</time></trkpt><trkpt lat="37.687668924138876" lon="15.132805683622417"><ele>376.6666666666667</ele><time>2026-04-19T08:25:08.882Z</time></trkpt><trkpt lat="37.687627748989215" lon="15.132883021919664"><ele>375.3333333333333</ele><time>2026-04-19T08:25:09.882Z</time></trkpt><trkpt lat="37.687564121652905" lon="15.132934107851021"><ele>374.0</ele><time>2026-04-19T08:25:10.882Z</time></trkpt><trkpt lat="37.68746998673752" lon="15.132921179248724"><ele>372.66666666666663</ele><time>2026-04-19T08:25:11.882Z</time></trkpt><trkpt lat="37.68736411261801" lon="15.132952478710253"><ele>371.3333333333333</ele><time>2026-04-19T08:25:12.882Z</time></trkpt><trkpt lat="37.68727602935275" lon="15.132980789899454"><ele>370.0</ele><time>2026-04-19T08:25:13.882Z</time></trkpt><trkpt lat="37.687209922613654" lon="15.13299812455671"><ele>370.0</ele><time>2026-04-19T08:25:14.882Z</time></trkpt><trkpt lat="37.68713719118335" lon="15.13301582429176"><ele>370.0</ele><time>2026-04-19T08:25:15.882Z</time></trkpt><trkpt lat="37.68703703356403" lon="15.133049868954693"><ele>370.0</ele><time>2026-04-19T08:25:17.882Z</time></trkpt><trkpt lat="37.6869568525325" lon="15.133059711738099"><ele>370.0</ele><time>2026-04-19T08:25:19.881Z</time></trkpt><trkpt lat="37.686956519462846" lon="15.133258779917243"><ele>370.0</ele><time>2026-04-19T08:25:20.881Z</time></trkpt><trkpt lat="37.686897025285816" lon="15.133393900003604"><ele>369.5</ele><time>2026-04-19T08:25:21.881Z</time></trkpt><trkpt lat="37.68684824201268" lon="15.13351774449536"><ele>369.0</ele><time>2026-04-19T08:25:22.881Z</time></trkpt><trkpt lat="37.686815813669284" lon="15.133626940525332"><ele>368.5</ele><time>2026-04-19T08:25:23.881Z</time></trkpt><trkpt lat="37.686785711458306" lon="15.133717400246939"><ele>368.0</ele><time>2026-04-19T08:25:24.881Z</time></trkpt><trkpt lat="37.686758869869884" lon="15.133796450177842"><ele>367.5</ele><time>2026-04-19T08:25:25.881Z</time></trkpt><trkpt lat="37.68673228990071" lon="15.133868561399346"><ele>367.0</ele><time>2026-04-19T08:25:26.881Z</time></trkpt><trkpt lat="37.6867047429279" lon="15.133953799274105"><ele>367.0</ele><time>2026-04-19T08:25:27.881Z</time></trkpt><trkpt lat="37.68666978254726" lon="15.134042817455299"><ele>367.0</ele><time>2026-04-19T08:25:28.881Z</time></trkpt><trkpt lat="37.686634067408065" lon="15.13412008227276"><ele>367.0</ele><time>2026-04-19T08:25:29.881Z</time></trkpt><trkpt lat="37.686578436065595" lon="15.134255680371611"><ele>367.0</ele><time>2026-04-19T08:25:31.881Z</time></trkpt><trkpt lat="37.68653788460814" lon="15.134365838382864"><ele>367.0</ele><time>2026-04-19T08:25:33.881Z</time></trkpt><trkpt lat="37.6865072091906" lon="15.134453954017147"><ele>367.0</ele><time>2026-04-19T08:25:34.881Z</time></trkpt><trkpt lat="37.68645914601118" lon="15.13455846447358"><ele>366.20000000000005</ele><time>2026-04-19T08:25:35.881Z</time></trkpt><trkpt lat="37.686398114085705" lon="15.134679636390901"><ele>365.4</ele><time>2026-04-19T08:25:36.881Z</time></trkpt><trkpt lat="37.68632252243531" lon="15.134785848982153"><ele>364.6</ele><time>2026-04-19T08:25:37.881Z</time></trkpt><trkpt lat="37.68626316510038" lon="15.13488788649142"><ele>363.79999999999995</ele><time>2026-04-19T08:25:38.881Z</time></trkpt><trkpt lat="37.68622168584443" lon="15.134957229002165"><ele>363.0</ele><time>2026-04-19T08:25:39.881Z</time></trkpt><trkpt lat="37.68621474634724" lon="15.135116718902418"><ele>362.3333333333333</ele><time>2026-04-19T08:25:41.88Z</time></trkpt><trkpt lat="37.68624997313948" lon="15.13518944220537"><ele>361.6666666666667</ele><time>2026-04-19T08:25:43.88Z</time></trkpt><trkpt lat="37.68627497044708" lon="15.135279438127057"><ele>361.0</ele><time>2026-04-19T08:25:44.88Z</time></trkpt><trkpt lat="37.68629519113634" lon="15.135392752437328"><ele>360.33333333333337</ele><time>2026-04-19T08:25:45.88Z</time></trkpt><trkpt lat="37.686325224095114" lon="15.135493650194375"><ele>359.6666666666667</ele><time>2026-04-19T08:25:46.88Z</time></trkpt><trkpt lat="37.68633881634968" lon="15.135590880169135"><ele>359.0</ele><time>2026-04-19T08:25:47.88Z</time></trkpt><trkpt lat="37.68635040793788" lon="15.135678042553996"><ele>358.4</ele><time>2026-04-19T08:25:48.88Z</time></trkpt><trkpt lat="37.68635555318293" lon="15.135833641536198"><ele>357.79999999999995</ele><time>2026-04-19T08:25:50.88Z</time></trkpt><trkpt lat="37.68638662905172" lon="15.135994660703636"><ele>357.20000000000005</ele><time>2026-04-19T08:25:52.88Z</time></trkpt><trkpt lat="37.68640258760771" lon="15.136076857810917"><ele>356.6</ele><time>2026-04-19T08:25:53.88Z</time></trkpt><trkpt lat="37.68641256397531" lon="15.13616063261031"><ele>356.0</ele><time>2026-04-19T08:25:54.88Z</time></trkpt><trkpt lat="37.686420126882794" lon="15.136240653403483"><ele>355.99999999999994</ele><time>2026-04-19T08:25:55.88Z</time></trkpt><trkpt lat="37.68643401684303" lon="15.136321611524108"><ele>356.0</ele><time>2026-04-19T08:25:56.88Z</time></trkpt><trkpt lat="37.686449453665304" lon="15.136406014401857"><ele>356.0</ele><time>2026-04-19T08:25:57.88Z</time></trkpt><trkpt lat="37.6864645285065" lon="15.13648809918945"><ele>356.0</ele><time>2026-04-19T08:25:58.88Z</time></trkpt><trkpt lat="37.68647445107896" lon="15.136575898991055"><ele>356.0</ele><time>2026-04-19T08:25:59.88Z</time></trkpt><trkpt lat="37.686495977849084" lon="15.136659169989679"><ele>355.99999999999994</ele><time>2026-04-19T08:26:00.88Z</time></trkpt><trkpt lat="37.68650906115681" lon="15.136746649683628"><ele>356.0</ele><time>2026-04-19T08:26:01.88Z</time></trkpt><trkpt lat="37.6865275103232" lon="15.136834809383949"><ele>355.1428571428571</ele><time>2026-04-19T08:26:02.879Z</time></trkpt><trkpt lat="37.686542029822775" lon="15.136917516341416"><ele>354.2857142857143</ele><time>2026-04-19T08:26:03.879Z</time></trkpt><trkpt lat="37.68653434944286" lon="15.137005025464337"><ele>353.42857142857144</ele><time>2026-04-19T08:26:04.879Z</time></trkpt><trkpt lat="37.68655179109188" lon="15.137082851458613"><ele>352.57142857142856</ele><time>2026-04-19T08:26:05.879Z</time></trkpt><trkpt lat="37.686571386946206" lon="15.13716484636797"><ele>351.7142857142857</ele><time>2026-04-19T08:26:06.879Z</time></trkpt><trkpt lat="37.686589530607115" lon="15.13724426167408"><ele>350.85714285714283</ele><time>2026-04-19T08:26:07.879Z</time></trkpt><trkpt lat="37.68660810594502" lon="15.137322733900838"><ele>350.0</ele><time>2026-04-19T08:26:08.879Z</time></trkpt><trkpt lat="37.6866204901555" lon="15.137401875933897"><ele>349.7142857142857</ele><time>2026-04-19T08:26:09.879Z</time></trkpt><trkpt lat="37.68663699769539" lon="15.13748035827696"><ele>349.42857142857144</ele><time>2026-04-19T08:26:10.879Z</time></trkpt><trkpt lat="37.686649841077234" lon="15.137564826853357"><ele>349.1428571428571</ele><time>2026-04-19T08:26:11.879Z</time></trkpt><trkpt lat="37.68666775883752" lon="15.137647400328131"><ele>348.8571428571429</ele><time>2026-04-19T08:26:12.879Z</time></trkpt><trkpt lat="37.68668611469237" lon="15.137732896536559"><ele>348.57142857142856</ele><time>2026-04-19T08:26:13.879Z</time></trkpt><trkpt lat="37.68670118193661" lon="15.137815985332928"><ele>348.2857142857143</ele><time>2026-04-19T08:26:14.879Z</time></trkpt><trkpt lat="37.686726680200614" lon="15.137897949712972"><ele>348.0</ele><time>2026-04-19T08:26:15.879Z</time></trkpt><trkpt lat="37.6867549208902" lon="15.137973304448165"><ele>348.0</ele><time>2026-04-19T08:26:16.879Z</time></trkpt><trkpt lat="37.686794387969385" lon="15.1380600887132"><ele>348.0</ele><time>2026-04-19T08:26:17.879Z</time></trkpt><trkpt lat="37.68684464065907" lon="15.138138322547347"><ele>348.0</ele><time>2026-04-19T08:26:18.879Z</time></trkpt><trkpt lat="37.68688191203278" lon="15.138207086759499"><ele>348.0</ele><time>2026-04-19T08:26:19.879Z</time></trkpt><trkpt lat="37.68693064981019" lon="15.138276547183914"><ele>348.0</ele><time>2026-04-19T08:26:20.879Z</time></trkpt><trkpt lat="37.68698142201824" lon="15.138342829298715"><ele>348.0</ele><time>2026-04-19T08:26:21.879Z</time></trkpt><trkpt lat="37.68702642496964" lon="15.138411904607018"><ele>348.0</ele><time>2026-04-19T08:26:22.879Z</time></trkpt><trkpt lat="37.68703479660698" lon="15.13850891331088"><ele>346.85714285714283</ele><time>2026-04-19T08:26:23.879Z</time></trkpt><trkpt lat="37.68706648496708" lon="15.13858393892891"><ele>345.7142857142857</ele><time>2026-04-19T08:26:24.879Z</time></trkpt><trkpt lat="37.68709115200506" lon="15.13866150249407"><ele>344.57142857142856</ele><time>2026-04-19T08:26:25.878Z</time></trkpt><trkpt lat="37.6871151885954" lon="15.138746292475028"><ele>343.42857142857144</ele><time>2026-04-19T08:26:26.878Z</time></trkpt><trkpt lat="37.68714312167969" lon="15.13884021299935"><ele>342.2857142857143</ele><time>2026-04-19T08:26:27.878Z</time></trkpt><trkpt lat="37.68716580997403" lon="15.138936998248116"><ele>341.14285714285717</ele><time>2026-04-19T08:26:28.878Z</time></trkpt><trkpt lat="37.68718420097474" lon="15.1390199181935"><ele>340.0</ele><time>2026-04-19T08:26:29.878Z</time></trkpt><trkpt lat="37.68718140346463" lon="15.139142611340143"><ele>339.4</ele><time>2026-04-19T08:26:31.878Z</time></trkpt><trkpt lat="37.6871839026701" lon="15.139274812741597"><ele>338.8</ele><time>2026-04-19T08:26:33.878Z</time></trkpt><trkpt lat="37.68718543815293" lon="15.139356035387715"><ele>338.20000000000005</ele><time>2026-04-19T08:26:34.878Z</time></trkpt><trkpt lat="37.687179422612544" lon="15.139497788970903"><ele>337.6</ele><time>2026-04-19T08:26:36.878Z</time></trkpt><trkpt lat="37.687183548441574" lon="15.139612575336365"><ele>337.0</ele><time>2026-04-19T08:26:38.878Z</time></trkpt><trkpt lat="37.68718739625668" lon="15.139722936485702"><ele>337.0</ele><time>2026-04-19T08:26:41.88Z</time></trkpt><trkpt lat="37.687189415638" lon="15.139803157490155"><ele>337.0</ele><time>2026-04-19T08:26:43.879Z</time></trkpt><trkpt lat="37.68718712163913" lon="15.139899758236918"><ele>337.0</ele><time>2026-04-19T08:26:45.88Z</time></trkpt><trkpt lat="37.68719030885473" lon="15.140061482799421"><ele>337.0</ele><time>2026-04-19T08:26:47.879Z</time></trkpt><trkpt lat="37.6871914345983" lon="15.140226280583864"><ele>337.0</ele><time>2026-04-19T08:26:49.879Z</time></trkpt><trkpt lat="37.68720434668464" lon="15.14032387592441"><ele>336.40000000000003</ele><time>2026-04-19T08:26:50.879Z</time></trkpt><trkpt lat="37.68720638152013" lon="15.140417438896325"><ele>335.8</ele><time>2026-04-19T08:26:51.879Z</time></trkpt><trkpt lat="37.68721546573791" lon="15.14051332107244"><ele>335.2</ele><time>2026-04-19T08:26:52.879Z</time></trkpt><trkpt lat="37.68721671633251" lon="15.140638110590253"><ele>334.6</ele><time>2026-04-19T08:26:53.879Z</time></trkpt><trkpt lat="37.68722682450426" lon="15.140779240081073"><ele>334.0</ele><time>2026-04-19T08:26:54.879Z</time></trkpt><trkpt lat="37.68722624273406" lon="15.140917885289998"><ele>333.3333333333333</ele><time>2026-04-19T08:26:55.879Z</time></trkpt><trkpt lat="37.6872203346314" lon="15.141037656899023"><ele>332.66666666666663</ele><time>2026-04-19T08:26:56.879Z</time></trkpt><trkpt lat="37.68722106671491" lon="15.141141672063963"><ele>332.0</ele><time>2026-04-19T08:26:57.879Z</time></trkpt><trkpt lat="37.6872198904626" lon="15.14123908709717"><ele>331.3333333333333</ele><time>2026-04-19T08:26:58.879Z</time></trkpt><trkpt lat="37.68722729729355" lon="15.141340843815387"><ele>330.6666666666667</ele><time>2026-04-19T08:26:59.879Z</time></trkpt><trkpt lat="37.68722662359765" lon="15.1414346267947"><ele>330.0</ele><time>2026-04-19T08:27:00.879Z</time></trkpt><trkpt lat="37.687219242993294" lon="15.141534352510359"><ele>328.8</ele><time>2026-04-19T08:27:01.879Z</time></trkpt><trkpt lat="37.68721930875481" lon="15.14163908541369"><ele>327.6</ele><time>2026-04-19T08:27:02.879Z</time></trkpt><trkpt lat="37.687226280510465" lon="15.141751563290406"><ele>326.4</ele><time>2026-04-19T08:27:03.878Z</time></trkpt><trkpt lat="37.68723836394024" lon="15.141890153441343"><ele>325.2</ele><time>2026-04-19T08:27:04.878Z</time></trkpt><trkpt lat="37.68724234647684" lon="15.142024215021387"><ele>324.0</ele><time>2026-04-19T08:27:05.878Z</time></trkpt><trkpt lat="37.687235772105296" lon="15.142154769725936"><ele>324.0</ele><time>2026-04-19T08:27:06.878Z</time></trkpt><trkpt lat="37.68723286882214" lon="15.142263515601854"><ele>324.0</ele><time>2026-04-19T08:27:07.878Z</time></trkpt><trkpt lat="37.687230331862835" lon="15.142389869032264"><ele>324.0</ele><time>2026-04-19T08:27:08.878Z</time></trkpt><trkpt lat="37.6872251620689" lon="15.142525450641628"><ele>324.0</ele><time>2026-04-19T08:27:09.878Z</time></trkpt><trkpt lat="37.68722377283412" lon="15.142649499643746"><ele>324.0</ele><time>2026-04-19T08:27:10.878Z</time></trkpt><trkpt lat="37.68722473297234" lon="15.142755794461214"><ele>323.3333333333333</ele><time>2026-04-19T08:27:11.878Z</time></trkpt><trkpt lat="37.687212209877295" lon="15.142834658102728"><ele>322.6666666666667</ele><time>2026-04-19T08:27:12.878Z</time></trkpt><trkpt lat="37.687227961427574" lon="15.142912510258242"><ele>322.0</ele><time>2026-04-19T08:27:14.878Z</time></trkpt><trkpt lat="37.68719256474717" lon="15.142983445878968"><ele>321.33333333333337</ele><time>2026-04-19T08:27:16.878Z</time></trkpt><trkpt lat="37.68719049943166" lon="15.143119060397662"><ele>320.6666666666667</ele><time>2026-04-19T08:27:18.878Z</time></trkpt><trkpt lat="37.68719374428899" lon="15.143223494157434"><ele>320.0</ele><time>2026-04-19T08:27:19.878Z</time></trkpt><trkpt lat="37.68719696545837" lon="15.143329389002249"><ele>319.0</ele><time>2026-04-19T08:27:20.878Z</time></trkpt><trkpt lat="37.68720198294325" lon="15.143464774291038"><ele>318.0</ele><time>2026-04-19T08:27:21.878Z</time></trkpt><trkpt lat="37.68720776764719" lon="15.143626721870321"><ele>317.0</ele><time>2026-04-19T08:27:22.878Z</time></trkpt><trkpt lat="37.687210066532266" lon="15.143790489551586"><ele>316.0</ele><time>2026-04-19T08:27:23.878Z</time></trkpt><trkpt lat="37.68721528041722" lon="15.143959706657318"><ele>314.5</ele><time>2026-04-19T08:27:24.878Z</time></trkpt><trkpt lat="37.68721211205421" lon="15.144141441608516"><ele>313.0</ele><time>2026-04-19T08:27:25.877Z</time></trkpt><trkpt lat="37.687201806548735" lon="15.144321933975924"><ele>311.5</ele><time>2026-04-19T08:27:26.877Z</time></trkpt><trkpt lat="37.68719470721716" lon="15.144496495022267"><ele>310.0</ele><time>2026-04-19T08:27:27.877Z</time></trkpt><trkpt lat="37.68720116380498" lon="15.144669992034299"><ele>310.0</ele><time>2026-04-19T08:27:28.877Z</time></trkpt><trkpt lat="37.68721195366943" lon="15.144825919212948"><ele>310.0</ele><time>2026-04-19T08:27:29.877Z</time></trkpt><trkpt lat="37.687216803323125" lon="15.144969320740167"><ele>310.0</ele><time>2026-04-19T08:27:30.877Z</time></trkpt><trkpt lat="37.687208340637554" lon="15.145096880537487"><ele>310.0</ele><time>2026-04-19T08:27:31.877Z</time></trkpt><trkpt lat="37.68716885277891" lon="15.145210429331248"><ele>310.0</ele><time>2026-04-19T08:27:32.877Z</time></trkpt><trkpt lat="37.68711154949797" lon="15.1453061519003"><ele>309.0</ele><time>2026-04-19T08:27:33.877Z</time></trkpt><trkpt lat="37.68705093720535" lon="15.145410623968614"><ele>308.0</ele><time>2026-04-19T08:27:34.877Z</time></trkpt><trkpt lat="37.68701937214837" lon="15.145529664837033"><ele>307.0</ele><time>2026-04-19T08:27:35.877Z</time></trkpt><trkpt lat="37.68702180634092" lon="15.14562580541264"><ele>306.0</ele><time>2026-04-19T08:27:36.877Z</time></trkpt><trkpt lat="37.68710110260168" lon="15.145689788853003"><ele>305.0</ele><time>2026-04-19T08:27:37.877Z</time></trkpt><trkpt lat="37.68715740402338" lon="15.145797292249854"><ele>303.25</ele><time>2026-04-19T08:27:38.877Z</time></trkpt><trkpt lat="37.687205092604465" lon="15.145915910454379"><ele>301.5</ele><time>2026-04-19T08:27:39.877Z</time></trkpt><trkpt lat="37.68722717208383" lon="15.146045011599757"><ele>299.75</ele><time>2026-04-19T08:27:40.877Z</time></trkpt><trkpt lat="37.68725364364948" lon="15.14620183764214"><ele>298.0</ele><time>2026-04-19T08:27:41.877Z</time></trkpt><trkpt lat="37.68728172040012" lon="15.146408391150114"><ele>296.3333333333333</ele><time>2026-04-19T08:27:42.877Z</time></trkpt><trkpt lat="37.687310525479525" lon="15.14662935717366"><ele>294.6666666666667</ele><time>2026-04-19T08:27:43.877Z</time></trkpt><trkpt lat="37.687351264106056" lon="15.146854974302368"><ele>293.0</ele><time>2026-04-19T08:27:44.877Z</time></trkpt><trkpt lat="37.68740672594405" lon="15.147064553439977"><ele>293.0</ele><time>2026-04-19T08:27:45.877Z</time></trkpt><trkpt lat="37.68746335040471" lon="15.147267820767329"><ele>293.0</ele><time>2026-04-19T08:27:46.877Z</time></trkpt><trkpt lat="37.68752388903198" lon="15.14746446571146"><ele>293.0</ele><time>2026-04-19T08:27:47.876Z</time></trkpt><trkpt lat="37.687583124952226" lon="15.147657539661154"><ele>293.0</ele><time>2026-04-19T08:27:48.876Z</time></trkpt><trkpt lat="37.687643738934895" lon="15.14784091806106"><ele>293.0</ele><time>2026-04-19T08:27:49.876Z</time></trkpt><trkpt lat="37.68771668488933" lon="15.148013726452183"><ele>293.0</ele><time>2026-04-19T08:27:50.876Z</time></trkpt><trkpt lat="37.68778460241132" lon="15.148175483543824"><ele>291.8</ele><time>2026-04-19T08:27:51.876Z</time></trkpt><trkpt lat="37.68783952782312" lon="15.148312278906158"><ele>290.6</ele><time>2026-04-19T08:27:52.876Z</time></trkpt><trkpt lat="37.68790152499331" lon="15.14844362240593"><ele>289.4</ele><time>2026-04-19T08:27:53.876Z</time></trkpt><trkpt lat="37.6879550147671" lon="15.148543866033512"><ele>288.2</ele><time>2026-04-19T08:27:54.876Z</time></trkpt><trkpt lat="37.68800597365824" lon="15.148644922160281"><ele>287.0</ele><time>2026-04-19T08:27:55.876Z</time></trkpt><trkpt lat="37.68805263300383" lon="15.148731714690522"><ele>287.0</ele><time>2026-04-19T08:27:56.876Z</time></trkpt><trkpt lat="37.68809545396442" lon="15.148811905686006"><ele>287.0</ele><time>2026-04-19T08:27:57.876Z</time></trkpt><trkpt lat="37.68812557490603" lon="15.148894020697819"><ele>287.0</ele><time>2026-04-19T08:27:58.876Z</time></trkpt><trkpt lat="37.688154210107115" lon="15.148977646219592"><ele>287.0</ele><time>2026-04-19T08:27:59.876Z</time></trkpt><trkpt lat="37.68817757797334" lon="15.149082400733363"><ele>287.0</ele><time>2026-04-19T08:28:00.876Z</time></trkpt><trkpt lat="37.68819956846176" lon="15.1491823034061"><ele>287.0</ele><time>2026-04-19T08:28:01.876Z</time></trkpt><trkpt lat="37.688219367155796" lon="15.149262364907921"><ele>286.4</ele><time>2026-04-19T08:28:02.876Z</time></trkpt><trkpt lat="37.68825214141788" lon="15.149353368781998"><ele>285.79999999999995</ele><time>2026-04-19T08:28:03.876Z</time></trkpt><trkpt lat="37.68828708790861" lon="15.149466049703088"><ele>285.2</ele><time>2026-04-19T08:28:04.876Z</time></trkpt><trkpt lat="37.68832382521022" lon="15.149595422947675"><ele>284.59999999999997</ele><time>2026-04-19T08:28:05.876Z</time></trkpt><trkpt lat="37.68837575118382" lon="15.14972131269027"><ele>284.0</ele><time>2026-04-19T08:28:06.876Z</time></trkpt><trkpt lat="37.688450849552666" lon="15.149821284542979"><ele>283.6666666666667</ele><time>2026-04-19T08:28:07.876Z</time></trkpt><trkpt lat="37.68857823324761" lon="15.149900211243308"><ele>283.3333333333333</ele><time>2026-04-19T08:28:08.876Z</time></trkpt><trkpt lat="37.688747010434135" lon="15.149933491510343"><ele>283.0</ele><time>2026-04-19T08:28:09.876Z</time></trkpt><trkpt lat="37.68892477010488" lon="15.149994382487064"><ele>283.0</ele><time>2026-04-19T08:28:10.875Z</time></trkpt><trkpt lat="37.689083908427556" lon="15.150073224114658"><ele>283.0</ele><time>2026-04-19T08:28:11.875Z</time></trkpt><trkpt lat="37.68922681604684" lon="15.150133586808096"><ele>283.0</ele><time>2026-04-19T08:28:12.875Z</time></trkpt><trkpt lat="37.689359442348966" lon="15.15017543305376"><ele>284.0</ele><time>2026-04-19T08:28:13.875Z</time></trkpt><trkpt lat="37.68947236111953" lon="15.15020357635658"><ele>285.0</ele><time>2026-04-19T08:28:14.875Z</time></trkpt><trkpt lat="37.68958026452432" lon="15.150214178847872"><ele>286.0</ele><time>2026-04-19T08:28:15.875Z</time></trkpt><trkpt lat="37.68971226173265" lon="15.150214906948277"><ele>287.0</ele><time>2026-04-19T08:28:16.875Z</time></trkpt><trkpt lat="37.68986786998354" lon="15.150194952423485"><ele>287.0</ele><time>2026-04-19T08:28:17.875Z</time></trkpt><trkpt lat="37.69004683080882" lon="15.1501663108391"><ele>287.0</ele><time>2026-04-19T08:28:18.875Z</time></trkpt><trkpt lat="37.6902315444606" lon="15.150149305462545"><ele>287.0</ele><time>2026-04-19T08:28:19.875Z</time></trkpt><trkpt lat="37.69043427603608" lon="15.150159154559956"><ele>286.6666666666667</ele><time>2026-04-19T08:28:20.875Z</time></trkpt><trkpt lat="37.69065791334479" lon="15.150150518968308"><ele>286.3333333333333</ele><time>2026-04-19T08:28:21.875Z</time></trkpt><trkpt lat="37.690852815760366" lon="15.15012286382448"><ele>286.0</ele><time>2026-04-19T08:28:22.875Z</time></trkpt><trkpt lat="37.691029019769566" lon="15.150123803070308"><ele>287.0</ele><time>2026-04-19T08:28:23.875Z</time></trkpt><trkpt lat="37.691200355336896" lon="15.150126849892935"><ele>288.0</ele><time>2026-04-19T08:28:24.875Z</time></trkpt><trkpt lat="37.691357676626296" lon="15.150120895883019"><ele>289.0</ele><time>2026-04-19T08:28:25.875Z</time></trkpt><trkpt lat="37.69150322301732" lon="15.150112887239032"><ele>289.0</ele><time>2026-04-19T08:28:26.875Z</time></trkpt><trkpt lat="37.691641144447395" lon="15.150111285223243"><ele>289.0</ele><time>2026-04-19T08:28:27.875Z</time></trkpt><trkpt lat="37.691761752872445" lon="15.150123184657922"><ele>289.0</ele><time>2026-04-19T08:28:28.875Z</time></trkpt><trkpt lat="37.691862504842035" lon="15.150144481653639"><ele>289.0</ele><time>2026-04-19T08:28:29.875Z</time></trkpt><trkpt lat="37.69195070198536" lon="15.15018930703976"><ele>289.4</ele><time>2026-04-19T08:28:30.875Z</time></trkpt><trkpt lat="37.69201875702212" lon="15.150245089103386"><ele>289.79999999999995</ele><time>2026-04-19T08:28:31.875Z</time></trkpt><trkpt lat="37.69203632563719" lon="15.150363677198726"><ele>290.20000000000005</ele><time>2026-04-19T08:28:32.874Z</time></trkpt><trkpt lat="37.69209139774776" lon="15.150455792551107"><ele>290.6</ele><time>2026-04-19T08:28:33.874Z</time></trkpt><trkpt lat="37.6921173420894" lon="15.150632523033718"><ele>291.0</ele><time>2026-04-19T08:28:34.874Z</time></trkpt><trkpt lat="37.69215892785327" lon="15.150817189657346"><ele>289.0</ele><time>2026-04-19T08:28:35.874Z</time></trkpt><trkpt lat="37.692215207413206" lon="15.150995632335786"><ele>287.0</ele><time>2026-04-19T08:28:36.874Z</time></trkpt><trkpt lat="37.69230029790339" lon="15.151156815271351"><ele>285.0</ele><time>2026-04-19T08:28:37.874Z</time></trkpt><trkpt lat="37.69242583526645" lon="15.151291136378319"><ele>285.0</ele><time>2026-04-19T08:28:38.874Z</time></trkpt><trkpt lat="37.692621405952806" lon="15.151414492629616"><ele>285.0</ele><time>2026-04-19T08:28:39.874Z</time></trkpt><trkpt lat="37.6928306513508" lon="15.151492999825809"><ele>285.0</ele><time>2026-04-19T08:28:40.874Z</time></trkpt><trkpt lat="37.69304422873146" lon="15.151570235990212"><ele>282.25</ele><time>2026-04-19T08:28:41.874Z</time></trkpt><trkpt lat="37.6931831936842" lon="15.151672084993617"><ele>279.5</ele><time>2026-04-19T08:28:42.874Z</time></trkpt><trkpt lat="37.693307042831265" lon="15.151774086596511"><ele>276.75</ele><time>2026-04-19T08:28:43.874Z</time></trkpt><trkpt lat="37.69339552170648" lon="15.151903244420236"><ele>274.0</ele><time>2026-04-19T08:28:44.874Z</time></trkpt><trkpt lat="37.693463669317936" lon="15.15204498183518"><ele>274.0</ele><time>2026-04-19T08:28:45.875Z</time></trkpt><trkpt lat="37.69350245546131" lon="15.152201929047935"><ele>274.0</ele><time>2026-04-19T08:28:46.876Z</time></trkpt><trkpt lat="37.693511350268814" lon="15.15236352300668"><ele>274.0</ele><time>2026-04-19T08:28:47.875Z</time></trkpt><trkpt lat="37.69348158916596" lon="15.152556406904859"><ele>274.0</ele><time>2026-04-19T08:28:48.875Z</time></trkpt><trkpt lat="37.693446652728554" lon="15.152796095631707"><ele>272.3333333333333</ele><time>2026-04-19T08:28:49.875Z</time></trkpt><trkpt lat="37.69342822280141" lon="15.1530223978646"><ele>270.6666666666667</ele><time>2026-04-19T08:28:50.875Z</time></trkpt><trkpt lat="37.693384700069856" lon="15.153236620848995"><ele>269.0</ele><time>2026-04-19T08:28:51.875Z</time></trkpt><trkpt lat="37.69335048693892" lon="15.153443153229274"><ele>268.33333333333337</ele><time>2026-04-19T08:28:52.875Z</time></trkpt><trkpt lat="37.69331889846362" lon="15.153641503342836"><ele>267.6666666666667</ele><time>2026-04-19T08:28:53.875Z</time></trkpt><trkpt lat="37.69328409132009" lon="15.15383211484646"><ele>267.0</ele><time>2026-04-19T08:28:54.875Z</time></trkpt><trkpt lat="37.69325541545846" lon="15.154018591755342"><ele>265.25</ele><time>2026-04-19T08:28:55.875Z</time></trkpt><trkpt lat="37.693195119919956" lon="15.154185529083646"><ele>263.5</ele><time>2026-04-19T08:28:56.875Z</time></trkpt><trkpt lat="37.69317143615808" lon="15.15436338009002"><ele>261.75</ele><time>2026-04-19T08:28:57.875Z</time></trkpt><trkpt lat="37.6931485480219" lon="15.15454962088252"><ele>260.0</ele><time>2026-04-19T08:28:58.875Z</time></trkpt><trkpt lat="37.693150685299436" lon="15.154747352931656"><ele>258.33333333333337</ele><time>2026-04-19T08:28:59.874Z</time></trkpt><trkpt lat="37.69318723637516" lon="15.154954635191993"><ele>256.6666666666667</ele><time>2026-04-19T08:29:00.874Z</time></trkpt><trkpt lat="37.69322803358937" lon="15.155141402730882"><ele>255.0</ele><time>2026-04-19T08:29:01.874Z</time></trkpt><trkpt lat="37.69329976644598" lon="15.155316851304708"><ele>255.0</ele><time>2026-04-19T08:29:02.874Z</time></trkpt><trkpt lat="37.6934130220538" lon="15.155476641245244"><ele>255.0</ele><time>2026-04-19T08:29:03.874Z</time></trkpt><trkpt lat="37.693521038743704" lon="15.155624289863873"><ele>255.0</ele><time>2026-04-19T08:29:04.874Z</time></trkpt><trkpt lat="37.693638662188796" lon="15.155756051543765"><ele>254.5</ele><time>2026-04-19T08:29:05.874Z</time></trkpt><trkpt lat="37.693731914459285" lon="15.155892019561577"><ele>254.0</ele><time>2026-04-19T08:29:06.874Z</time></trkpt><trkpt lat="37.69382328242528" lon="15.156014938024919"><ele>253.5</ele><time>2026-04-19T08:29:07.874Z</time></trkpt><trkpt lat="37.69391012183279" lon="15.156135127828696"><ele>253.0</ele><time>2026-04-19T08:29:08.874Z</time></trkpt><trkpt lat="37.693989933256695" lon="15.156251753491702"><ele>253.0</ele><time>2026-04-19T08:29:09.874Z</time></trkpt><trkpt lat="37.69406543392029" lon="15.156385980623828"><ele>253.0</ele><time>2026-04-19T08:29:10.874Z</time></trkpt><trkpt lat="37.69414205866603" lon="15.15653678695208"><ele>253.0</ele><time>2026-04-19T08:29:11.874Z</time></trkpt><trkpt lat="37.69422786661103" lon="15.156709553379287"><ele>253.0</ele><time>2026-04-19T08:29:12.874Z</time></trkpt><trkpt lat="37.69430915514952" lon="15.156898868264934"><ele>253.33333333333331</ele><time>2026-04-19T08:29:13.874Z</time></trkpt><trkpt lat="37.694378658537964" lon="15.157078282750675"><ele>253.66666666666669</ele><time>2026-04-19T08:29:14.874Z</time></trkpt><trkpt lat="37.69443722039925" lon="15.157256959964187"><ele>254.0</ele><time>2026-04-19T08:29:15.874Z</time></trkpt><trkpt lat="37.694495081595676" lon="15.15743825538932"><ele>253.0</ele><time>2026-04-19T08:29:16.874Z</time></trkpt><trkpt lat="37.69454938241815" lon="15.157615882115106"><ele>252.0</ele><time>2026-04-19T08:29:17.874Z</time></trkpt><trkpt lat="37.69460553327397" lon="15.15778833847204"><ele>251.0</ele><time>2026-04-19T08:29:18.874Z</time></trkpt><trkpt lat="37.69465718409978" lon="15.157953391539069"><ele>250.0</ele><time>2026-04-19T08:29:19.874Z</time></trkpt><trkpt lat="37.69469882193144" lon="15.1581212568014"><ele>248.5</ele><time>2026-04-19T08:29:20.874Z</time></trkpt><trkpt lat="37.69474815964407" lon="15.158291361745993"><ele>247.0</ele><time>2026-04-19T08:29:21.874Z</time></trkpt><trkpt lat="37.69480100610847" lon="15.158468075842807"><ele>245.5</ele><time>2026-04-19T08:29:22.873Z</time></trkpt><trkpt lat="37.69485473739222" lon="15.158639571953454"><ele>244.0</ele><time>2026-04-19T08:29:23.873Z</time></trkpt><trkpt lat="37.69490470621145" lon="15.158798568647695"><ele>244.0</ele><time>2026-04-19T08:29:24.873Z</time></trkpt><trkpt lat="37.69495758822469" lon="15.158952144318189"><ele>244.0</ele><time>2026-04-19T08:29:25.873Z</time></trkpt><trkpt lat="37.69499010779935" lon="15.159104711507249"><ele>244.0</ele><time>2026-04-19T08:29:26.873Z</time></trkpt><trkpt lat="37.69501706862021" lon="15.159263474282588"><ele>244.0</ele><time>2026-04-19T08:29:27.873Z</time></trkpt><trkpt lat="37.69503831523519" lon="15.159433516720549"><ele>243.25</ele><time>2026-04-19T08:29:28.873Z</time></trkpt><trkpt lat="37.695063003465336" lon="15.159615800488325"><ele>242.5</ele><time>2026-04-19T08:29:29.873Z</time></trkpt><trkpt lat="37.6950942020124" lon="15.159790423234247"><ele>241.75</ele><time>2026-04-19T08:29:30.873Z</time></trkpt><trkpt lat="37.69508576328409" lon="15.159954770251325"><ele>241.0</ele><time>2026-04-19T08:29:31.873Z</time></trkpt><trkpt lat="37.69510338596848" lon="15.160094187186948"><ele>240.4</ele><time>2026-04-19T08:29:32.873Z</time></trkpt><trkpt lat="37.69512045701893" lon="15.160205918473066"><ele>239.8</ele><time>2026-04-19T08:29:33.873Z</time></trkpt><trkpt lat="37.69513622483521" lon="15.16033715046279"><ele>239.20000000000002</ele><time>2026-04-19T08:29:34.873Z</time></trkpt><trkpt lat="37.69515494660008" lon="15.1604848055041"><ele>238.60000000000002</ele><time>2026-04-19T08:29:35.873Z</time></trkpt><trkpt lat="37.6951643685248" lon="15.16064202904511"><ele>238.0</ele><time>2026-04-19T08:29:36.873Z</time></trkpt><trkpt lat="37.695161872653024" lon="15.16081109836455"><ele>236.75</ele><time>2026-04-19T08:29:37.873Z</time></trkpt><trkpt lat="37.69516579658588" lon="15.160984365974354"><ele>235.5</ele><time>2026-04-19T08:29:38.873Z</time></trkpt><trkpt lat="37.69516258091893" lon="15.161154118362612"><ele>234.25</ele><time>2026-04-19T08:29:39.873Z</time></trkpt><trkpt lat="37.695165169798784" lon="15.161325928517098"><ele>233.0</ele><time>2026-04-19T08:29:40.873Z</time></trkpt><trkpt lat="37.69518109023556" lon="15.161488552512678"><ele>232.25</ele><time>2026-04-19T08:29:41.873Z</time></trkpt><trkpt lat="37.695206110425175" lon="15.16165989482674"><ele>231.5</ele><time>2026-04-19T08:29:42.873Z</time></trkpt><trkpt lat="37.69524347318078" lon="15.161839048991403"><ele>230.75</ele><time>2026-04-19T08:29:43.873Z</time></trkpt><trkpt lat="37.69528467838101" lon="15.162015009548968"><ele>230.0</ele><time>2026-04-19T08:29:44.872Z</time></trkpt><trkpt lat="37.69533225048234" lon="15.16218324669311"><ele>230.0</ele><time>2026-04-19T08:29:45.872Z</time></trkpt><trkpt lat="37.69538075782073" lon="15.16233915092705"><ele>230.0</ele><time>2026-04-19T08:29:46.872Z</time></trkpt><trkpt lat="37.69543727945652" lon="15.162488529061218"><ele>230.0</ele><time>2026-04-19T08:29:47.872Z</time></trkpt><trkpt lat="37.69549986967397" lon="15.162639916952402"><ele>230.0</ele><time>2026-04-19T08:29:48.872Z</time></trkpt><trkpt lat="37.6955518838382" lon="15.16278377602079"><ele>229.25</ele><time>2026-04-19T08:29:49.872Z</time></trkpt><trkpt lat="37.69562155357503" lon="15.162920314114404"><ele>228.5</ele><time>2026-04-19T08:29:50.872Z</time></trkpt><trkpt lat="37.69568512394159" lon="15.163051763476679"><ele>227.75</ele><time>2026-04-19T08:29:51.872Z</time></trkpt><trkpt lat="37.69574076571156" lon="15.16318418736416"><ele>227.0</ele><time>2026-04-19T08:29:52.872Z</time></trkpt><trkpt lat="37.69578583997304" lon="15.163329861262422"><ele>225.5</ele><time>2026-04-19T08:29:53.872Z</time></trkpt><trkpt lat="37.695837483910424" lon="15.16348249242606"><ele>224.0</ele><time>2026-04-19T08:29:54.872Z</time></trkpt><trkpt lat="37.69589073626351" lon="15.163636366326237"><ele>222.5</ele><time>2026-04-19T08:29:55.872Z</time></trkpt><trkpt lat="37.69595563264123" lon="15.163788979087162"><ele>221.0</ele><time>2026-04-19T08:29:56.872Z</time></trkpt><trkpt lat="37.696022030140405" lon="15.16393402173374"><ele>220.5</ele><time>2026-04-19T08:29:57.872Z</time></trkpt><trkpt lat="37.696083018277484" lon="15.164080550132763"><ele>220.0</ele><time>2026-04-19T08:29:58.872Z</time></trkpt><trkpt lat="37.69614757009964" lon="15.164225518957549"><ele>219.5</ele><time>2026-04-19T08:29:59.872Z</time></trkpt><trkpt lat="37.696208660160146" lon="15.164380741766745"><ele>219.0</ele><time>2026-04-19T08:30:00.872Z</time></trkpt><trkpt lat="37.69626656189382" lon="15.164563472317914"><ele>218.5</ele><time>2026-04-19T08:30:01.872Z</time></trkpt><trkpt lat="37.69631652492549" lon="15.164747413187586"><ele>218.0</ele><time>2026-04-19T08:30:02.872Z</time></trkpt><trkpt lat="37.69635381974065" lon="15.16492769795782"><ele>217.5</ele><time>2026-04-19T08:30:03.872Z</time></trkpt><trkpt lat="37.69638854147734" lon="15.165108713943454"><ele>217.0</ele><time>2026-04-19T08:30:04.872Z</time></trkpt><trkpt lat="37.69641480673687" lon="15.165292500372637"><ele>217.0</ele><time>2026-04-19T08:30:05.872Z</time></trkpt><trkpt lat="37.69644339324943" lon="15.165471647626507"><ele>217.0</ele><time>2026-04-19T08:30:06.871Z</time></trkpt><trkpt lat="37.69647945684913" lon="15.165639640664024"><ele>217.0</ele><time>2026-04-19T08:30:07.871Z</time></trkpt><trkpt lat="37.69650740959467" lon="15.165798811637424"><ele>217.0</ele><time>2026-04-19T08:30:08.871Z</time></trkpt><trkpt lat="37.696529003432595" lon="15.165955821718985"><ele>216.5</ele><time>2026-04-19T08:30:09.871Z</time></trkpt><trkpt lat="37.69654161900092" lon="15.166106980123804"><ele>216.0</ele><time>2026-04-19T08:30:10.871Z</time></trkpt><trkpt lat="37.696561516778495" lon="15.16624765347123"><ele>215.5</ele><time>2026-04-19T08:30:11.871Z</time></trkpt><trkpt lat="37.69658226173246" lon="15.166378610839198"><ele>215.0</ele><time>2026-04-19T08:30:12.871Z</time></trkpt><trkpt lat="37.69663766318906" lon="15.166507310037302"><ele>214.0</ele><time>2026-04-19T08:30:13.871Z</time></trkpt><trkpt lat="37.69671883216097" lon="15.166600910629558"><ele>213.0</ele><time>2026-04-19T08:30:14.871Z</time></trkpt><trkpt lat="37.69682035391797" lon="15.166668323616989"><ele>212.0</ele><time>2026-04-19T08:30:15.871Z</time></trkpt><trkpt lat="37.696929276810394" lon="15.16672670028938"><ele>211.0</ele><time>2026-04-19T08:30:16.871Z</time></trkpt><trkpt lat="37.69704264032613" lon="15.16676650259444"><ele>210.5</ele><time>2026-04-19T08:30:17.871Z</time></trkpt><trkpt lat="37.69716303392115" lon="15.166781402735324"><ele>210.0</ele><time>2026-04-19T08:30:18.871Z</time></trkpt><trkpt lat="37.69730267473695" lon="15.166776519941696"><ele>209.5</ele><time>2026-04-19T08:30:19.871Z</time></trkpt><trkpt lat="37.69744782059914" lon="15.166748772162187"><ele>209.0</ele><time>2026-04-19T08:30:20.871Z</time></trkpt><trkpt lat="37.69758830879879" lon="15.16674229385669"><ele>209.0</ele><time>2026-04-19T08:30:21.871Z</time></trkpt><trkpt lat="37.69772774434626" lon="15.166725550680251"><ele>209.0</ele><time>2026-04-19T08:30:22.871Z</time></trkpt><trkpt lat="37.69786276667689" lon="15.166709582887837"><ele>209.0</ele><time>2026-04-19T08:30:23.871Z</time></trkpt><trkpt lat="37.69799794526174" lon="15.166704765502335"><ele>209.0</ele><time>2026-04-19T08:30:24.871Z</time></trkpt><trkpt lat="37.698130387400035" lon="15.166716629316399"><ele>207.5</ele><time>2026-04-19T08:30:25.871Z</time></trkpt><trkpt lat="37.698265586140536" lon="15.166703041825796"><ele>206.0</ele><time>2026-04-19T08:30:26.871Z</time></trkpt><trkpt lat="37.69839791541908" lon="15.166677554288837"><ele>204.5</ele><time>2026-04-19T08:30:27.871Z</time></trkpt><trkpt lat="37.69852474451046" lon="15.166641210568269"><ele>203.0</ele><time>2026-04-19T08:30:28.871Z</time></trkpt><trkpt lat="37.698652646633285" lon="15.166594693826186"><ele>204.25</ele><time>2026-04-19T08:30:29.87Z</time></trkpt><trkpt lat="37.69877489387095" lon="15.166533975876147"><ele>205.5</ele><time>2026-04-19T08:30:30.87Z</time></trkpt><trkpt lat="37.69888736954124" lon="15.166471318896678"><ele>206.75</ele><time>2026-04-19T08:30:31.87Z</time></trkpt><trkpt lat="37.698999997137726" lon="15.166402574765199"><ele>208.0</ele><time>2026-04-19T08:30:32.87Z</time></trkpt><trkpt lat="37.699102984772374" lon="15.166336900841447"><ele>208.0</ele><time>2026-04-19T08:30:33.87Z</time></trkpt><trkpt lat="37.69919180911096" lon="15.166257436331591"><ele>208.0</ele><time>2026-04-19T08:30:34.87Z</time></trkpt><trkpt lat="37.699282779078096" lon="15.166232768918334"><ele>208.0</ele><time>2026-04-19T08:30:35.87Z</time></trkpt><trkpt lat="37.69937077648474" lon="15.166191647601066"><ele>208.0</ele><time>2026-04-19T08:30:36.87Z</time></trkpt><trkpt lat="37.69946932596235" lon="15.166166874971605"><ele>208.0</ele><time>2026-04-19T08:30:37.87Z</time></trkpt><trkpt lat="37.699567089397306" lon="15.16616951563965"><ele>207.0</ele><time>2026-04-19T08:30:38.87Z</time></trkpt><trkpt lat="37.699661630936205" lon="15.166224899297305"><ele>206.0</ele><time>2026-04-19T08:30:39.87Z</time></trkpt><trkpt lat="37.699741866362075" lon="15.166317303073244"><ele>205.0</ele><time>2026-04-19T08:30:40.87Z</time></trkpt><trkpt lat="37.69979122970625" lon="15.166458029060799"><ele>204.0</ele><time>2026-04-19T08:30:41.87Z</time></trkpt><trkpt lat="37.699818381521354" lon="15.166599608992849"><ele>202.0</ele><time>2026-04-19T08:30:42.87Z</time></trkpt><trkpt lat="37.699836930257284" lon="15.16672378279554"><ele>200.0</ele><time>2026-04-19T08:30:43.87Z</time></trkpt><trkpt lat="37.69985270842203" lon="15.166831128787134"><ele>198.0</ele><time>2026-04-19T08:30:44.87Z</time></trkpt><trkpt lat="37.69986874804582" lon="15.166936627133031"><ele>196.0</ele><time>2026-04-19T08:30:45.87Z</time></trkpt><trkpt lat="37.69989632379871" lon="15.167110712278932"><ele>194.0</ele><time>2026-04-19T08:30:46.87Z</time></trkpt><trkpt lat="37.69990819667316" lon="15.167224084265479"><ele>194.0</ele><time>2026-04-19T08:30:47.87Z</time></trkpt><trkpt lat="37.69992478781554" lon="15.167325797637558"><ele>194.0</ele><time>2026-04-19T08:30:48.87Z</time></trkpt><trkpt lat="37.69995602205024" lon="15.167430453692699"><ele>194.0</ele><time>2026-04-19T08:30:49.87Z</time></trkpt><trkpt lat="37.70001694652985" lon="15.16754407845329"><ele>194.0</ele><time>2026-04-19T08:30:50.87Z</time></trkpt><trkpt lat="37.70011539305263" lon="15.167660733777371"><ele>194.0</ele><time>2026-04-19T08:30:51.871Z</time></trkpt><trkpt lat="37.70022856420927" lon="15.167759042426994"><ele>194.2</ele><time>2026-04-19T08:30:52.871Z</time></trkpt><trkpt lat="37.70034656090169" lon="15.167824858463018"><ele>194.39999999999998</ele><time>2026-04-19T08:30:53.871Z</time></trkpt><trkpt lat="37.700451686994526" lon="15.1678706272386"><ele>194.6</ele><time>2026-04-19T08:30:54.871Z</time></trkpt><trkpt lat="37.700537276192456" lon="15.16792375005523"><ele>194.8</ele><time>2026-04-19T08:30:55.871Z</time></trkpt><trkpt lat="37.70062024701056" lon="15.167961753748441"><ele>195.0</ele><time>2026-04-19T08:30:56.871Z</time></trkpt><trkpt lat="37.700707023115186" lon="15.168004709014102"><ele>195.0</ele><time>2026-04-19T08:30:57.871Z</time></trkpt><trkpt lat="37.70079464350972" lon="15.168086978128601"><ele>195.0</ele><time>2026-04-19T08:30:58.871Z</time></trkpt><trkpt lat="37.70090409074817" lon="15.168141023162708"><ele>195.0</ele><time>2026-04-19T08:30:59.871Z</time></trkpt><trkpt lat="37.70102024686392" lon="15.168200828714872"><ele>195.0</ele><time>2026-04-19T08:31:00.871Z</time></trkpt><trkpt lat="37.70112827800476" lon="15.168260550742986"><ele>193.8</ele><time>2026-04-19T08:31:01.87Z</time></trkpt><trkpt lat="37.70122699002271" lon="15.168321449121638"><ele>192.6</ele><time>2026-04-19T08:31:02.87Z</time></trkpt><trkpt lat="37.70132444285771" lon="15.168384869269609"><ele>191.39999999999998</ele><time>2026-04-19T08:31:03.871Z</time></trkpt><trkpt lat="37.70141850008246" lon="15.16845435213766"><ele>190.2</ele><time>2026-04-19T08:31:04.871Z</time></trkpt><trkpt lat="37.70150805383606" lon="15.168522591291218"><ele>189.0</ele><time>2026-04-19T08:31:05.871Z</time></trkpt><trkpt lat="37.70159675425047" lon="15.168588210847389"><ele>189.0</ele><time>2026-04-19T08:31:06.871Z</time></trkpt><trkpt lat="37.70169481918777" lon="15.168659102835168"><ele>189.0</ele><time>2026-04-19T08:31:07.871Z</time></trkpt><trkpt lat="37.701815799667784" lon="15.168745191311407"><ele>189.0</ele><time>2026-04-19T08:31:08.871Z</time></trkpt><trkpt lat="37.70195447645683" lon="15.168864801612541"><ele>189.0</ele><time>2026-04-19T08:31:09.871Z</time></trkpt><trkpt lat="37.70209294308304" lon="15.169001645436731"><ele>188.0</ele><time>2026-04-19T08:31:10.871Z</time></trkpt><trkpt lat="37.70222095661416" lon="15.16913509623409"><ele>187.0</ele><time>2026-04-19T08:31:11.87Z</time></trkpt><trkpt lat="37.70232943151168" lon="15.169243843179295"><ele>186.0</ele><time>2026-04-19T08:31:12.87Z</time></trkpt><trkpt lat="37.70244447364095" lon="15.169347265019749"><ele>185.0</ele><time>2026-04-19T08:31:13.87Z</time></trkpt><trkpt lat="37.70254037121097" lon="15.169440379265689"><ele>185.0</ele><time>2026-04-19T08:31:14.87Z</time></trkpt><trkpt lat="37.70263444447523" lon="15.169524642090403"><ele>185.0</ele><time>2026-04-19T08:31:15.87Z</time></trkpt><trkpt lat="37.70272020970176" lon="15.169594242528362"><ele>185.0</ele><time>2026-04-19T08:31:16.87Z</time></trkpt><trkpt lat="37.702788178404525" lon="15.169658797213264"><ele>185.0</ele><time>2026-04-19T08:31:17.87Z</time></trkpt><trkpt lat="37.702857277694015" lon="15.169716176016626"><ele>185.0</ele><time>2026-04-19T08:31:18.87Z</time></trkpt><trkpt lat="37.702928233214834" lon="15.169770117050756"><ele>185.2</ele><time>2026-04-19T08:31:19.87Z</time></trkpt><trkpt lat="37.70301075413408" lon="15.169833101322958"><ele>185.4</ele><time>2026-04-19T08:31:20.87Z</time></trkpt><trkpt lat="37.70310115378476" lon="15.169883387651602"><ele>185.60000000000002</ele><time>2026-04-19T08:31:21.87Z</time></trkpt><trkpt lat="37.70319160113457" lon="15.169934152810123"><ele>185.8</ele><time>2026-04-19T08:31:22.87Z</time></trkpt><trkpt lat="37.703277742366" lon="15.169981302684361"><ele>186.0</ele><time>2026-04-19T08:31:23.87Z</time></trkpt><trkpt lat="37.70335923663236" lon="15.170025455552407"><ele>186.0</ele><time>2026-04-19T08:31:24.87Z</time></trkpt><trkpt lat="37.70340905774385" lon="15.170107241070188"><ele>186.0</ele><time>2026-04-19T08:31:25.87Z</time></trkpt><trkpt lat="37.70347511883636" lon="15.170147271022214"><ele>186.0</ele><time>2026-04-19T08:31:26.87Z</time></trkpt><trkpt lat="37.70353652201505" lon="15.170182962520556"><ele>186.0</ele><time>2026-04-19T08:31:27.87Z</time></trkpt><trkpt lat="37.703629178202426" lon="15.170255901714157"><ele>186.0</ele><time>2026-04-19T08:31:29.87Z</time></trkpt><trkpt lat="37.70371558770026" lon="15.170329549613939"><ele>186.0</ele><time>2026-04-19T08:31:31.87Z</time></trkpt><trkpt lat="37.70380316779919" lon="15.170455703225494"><ele>186.0</ele><time>2026-04-19T08:31:33.869Z</time></trkpt><trkpt lat="37.70384923448663" lon="15.170548200050773"><ele>186.0</ele><time>2026-04-19T08:31:34.869Z</time></trkpt><trkpt lat="37.70389991894805" lon="15.170617531760156"><ele>186.0</ele><time>2026-04-19T08:31:35.869Z</time></trkpt><trkpt lat="37.703893107176285" lon="15.170722374569545"><ele>186.0</ele><time>2026-04-19T08:31:36.869Z</time></trkpt><trkpt lat="37.70390948990265" lon="15.170821870025193"><ele>186.0</ele><time>2026-04-19T08:31:37.869Z</time></trkpt><trkpt lat="37.70397958424991" lon="15.170940940650329"><ele>186.0</ele><time>2026-04-19T08:31:39.869Z</time></trkpt><trkpt lat="37.70411752155184" lon="15.170955766752641"><ele>184.5</ele><time>2026-04-19T08:31:41.869Z</time></trkpt><trkpt lat="37.70420163195095" lon="15.170945396486216"><ele>183.0</ele><time>2026-04-19T08:31:42.869Z</time></trkpt><trkpt lat="37.70430980957709" lon="15.170923916467947"><ele>181.5</ele><time>2026-04-19T08:31:43.869Z</time></trkpt><trkpt lat="37.70442152441566" lon="15.170945212388046"><ele>180.0</ele><time>2026-04-19T08:31:44.869Z</time></trkpt><trkpt lat="37.70455238679955" lon="15.171017380883747"><ele>179.75</ele><time>2026-04-19T08:31:45.869Z</time></trkpt><trkpt lat="37.704679922541565" lon="15.171129201345368"><ele>179.5</ele><time>2026-04-19T08:31:46.869Z</time></trkpt><trkpt lat="37.70478496358918" lon="15.171234873888856"><ele>179.25</ele><time>2026-04-19T08:31:47.869Z</time></trkpt><trkpt lat="37.704874109327726" lon="15.171328272898851"><ele>179.0</ele><time>2026-04-19T08:31:48.869Z</time></trkpt><trkpt lat="37.704963876972215" lon="15.171412014608608"><ele>179.0</ele><time>2026-04-19T08:31:49.869Z</time></trkpt><trkpt lat="37.705033093363866" lon="15.17148974328878"><ele>179.0</ele><time>2026-04-19T08:31:50.869Z</time></trkpt><trkpt lat="37.705100998427696" lon="15.171584545984743"><ele>179.0</ele><time>2026-04-19T08:31:52.869Z</time></trkpt><trkpt lat="37.705162936675656" lon="15.171650876532581"><ele>179.0</ele><time>2026-04-19T08:31:56.868Z</time></trkpt><trkpt lat="37.705238219919345" lon="15.171772546987345"><ele>179.0</ele><time>2026-04-19T08:31:58.868Z</time></trkpt><trkpt lat="37.70526742338145" lon="15.171876683269314"><ele>179.2</ele><time>2026-04-19T08:31:59.868Z</time></trkpt><trkpt lat="37.705303147607346" lon="15.17199181661144"><ele>179.39999999999998</ele><time>2026-04-19T08:32:00.868Z</time></trkpt><trkpt lat="37.705337081099" lon="15.17212612062507"><ele>179.6</ele><time>2026-04-19T08:32:01.868Z</time></trkpt><trkpt lat="37.70536926592953" lon="15.172232509505987"><ele>179.8</ele><time>2026-04-19T08:32:02.868Z</time></trkpt><trkpt lat="37.70539599222821" lon="15.17230747461119"><ele>180.0</ele><time>2026-04-19T08:32:03.868Z</time></trkpt><trkpt lat="37.70543735752596" lon="15.172453209803264"><ele>179.2</ele><time>2026-04-19T08:32:05.868Z</time></trkpt><trkpt lat="37.705490240356504" lon="15.172562093349269"><ele>178.4</ele><time>2026-04-19T08:32:06.868Z</time></trkpt><trkpt lat="37.70551772999299" lon="15.172676166001613"><ele>177.60000000000002</ele><time>2026-04-19T08:32:07.868Z</time></trkpt><trkpt lat="37.70552895287784" lon="15.17278561414798"><ele>176.8</ele><time>2026-04-19T08:32:10.868Z</time></trkpt><trkpt lat="37.705590590498964" lon="15.172918453237832"><ele>176.0</ele><time>2026-04-19T08:32:12.868Z</time></trkpt><trkpt lat="37.70564053343685" lon="15.173013165416348"><ele>176.0</ele><time>2026-04-19T08:32:14.868Z</time></trkpt><trkpt lat="37.70569272803252" lon="15.17306848182519"><ele>176.0</ele><time>2026-04-19T08:32:25.867Z</time></trkpt><trkpt lat="37.70575697263665" lon="15.173177214413524"><ele>176.0</ele><time>2026-04-19T08:32:27.867Z</time></trkpt><trkpt lat="37.70580365904946" lon="15.173261757954329"><ele>176.0</ele><time>2026-04-19T08:32:28.867Z</time></trkpt><trkpt lat="37.70580678956177" lon="15.173364244781972"><ele>176.0</ele><time>2026-04-19T08:32:29.867Z</time></trkpt><trkpt lat="37.70584405512794" lon="15.17343949842845"><ele>176.0</ele><time>2026-04-19T08:32:32.867Z</time></trkpt><trkpt lat="37.705896735639364" lon="15.173548578489932"><ele>175.4</ele><time>2026-04-19T08:32:35.867Z</time></trkpt><trkpt lat="37.70592477309433" lon="15.173636848264568"><ele>174.8</ele><time>2026-04-19T08:32:36.867Z</time></trkpt><trkpt lat="37.7059440472902" lon="15.173736513457834"><ele>174.20000000000002</ele><time>2026-04-19T08:32:37.867Z</time></trkpt><trkpt lat="37.705947239811564" lon="15.173847406173305"><ele>173.60000000000002</ele><time>2026-04-19T08:32:39.867Z</time></trkpt><trkpt lat="37.70602124120137" lon="15.173901479220445"><ele>173.0</ele><time>2026-04-19T08:32:47.866Z</time></trkpt><trkpt lat="37.706147081666174" lon="15.173965601112826"><ele>172.83333333333331</ele><time>2026-04-19T08:32:49.866Z</time></trkpt><trkpt lat="37.70623051323451" lon="15.173971263043837"><ele>172.66666666666666</ele><time>2026-04-19T08:32:50.866Z</time></trkpt><trkpt lat="37.706306012054576" lon="15.17397638662861"><ele>172.5</ele><time>2026-04-19T08:32:51.866Z</time></trkpt><trkpt lat="37.70637269299527" lon="15.173980911831496"><ele>172.33333333333334</ele><time>2026-04-19T08:32:52.866Z</time></trkpt><trkpt lat="37.70645087592807" lon="15.173986852826337"><ele>172.16666666666669</ele><time>2026-04-19T08:32:53.866Z</time></trkpt><trkpt lat="37.70653001710414" lon="15.173993256444147"><ele>172.0</ele><time>2026-04-19T08:32:54.866Z</time></trkpt><trkpt lat="37.70661358713308" lon="15.174000018421097"><ele>172.0</ele><time>2026-04-19T08:32:55.866Z</time></trkpt><trkpt lat="37.70669847760052" lon="15.17400688723459"><ele>172.0</ele><time>2026-04-19T08:32:56.866Z</time></trkpt><trkpt lat="37.70678798882715" lon="15.174041105135554"><ele>172.0</ele><time>2026-04-19T08:32:57.866Z</time></trkpt><trkpt lat="37.706875681463806" lon="15.174046378691452"><ele>172.0</ele><time>2026-04-19T08:32:58.867Z</time></trkpt><trkpt lat="37.7069678417677" lon="15.17405342594903"><ele>172.0</ele><time>2026-04-19T08:32:59.867Z</time></trkpt><trkpt lat="37.70705389956071" lon="15.174059781592355"><ele>172.0</ele><time>2026-04-19T08:33:00.867Z</time></trkpt><trkpt lat="37.70714515815734" lon="15.174064113189417"><ele>171.0</ele><time>2026-04-19T08:33:01.867Z</time></trkpt><trkpt lat="37.707237600761175" lon="15.1740708156177"><ele>170.0</ele><time>2026-04-19T08:33:02.867Z</time></trkpt><trkpt lat="37.70731704105363" lon="15.174065776499955"><ele>169.0</ele><time>2026-04-19T08:33:03.866Z</time></trkpt><trkpt lat="37.707394965220516" lon="15.17407337881285"><ele>168.0</ele><time>2026-04-19T08:33:04.866Z</time></trkpt><trkpt lat="37.70748831560185" lon="15.174084747656305"><ele>167.0</ele><time>2026-04-19T08:33:05.866Z</time></trkpt><trkpt lat="37.707584297920334" lon="15.174098392820333"><ele>166.0</ele><time>2026-04-19T08:33:06.867Z</time></trkpt><trkpt lat="37.707671260523185" lon="15.174103099290486"><ele>165.83333333333334</ele><time>2026-04-19T08:33:07.866Z</time></trkpt><trkpt lat="37.70775570877335" lon="15.174111900712733"><ele>165.66666666666669</ele><time>2026-04-19T08:33:08.866Z</time></trkpt><trkpt lat="37.707823575058214" lon="15.174170871369876"><ele>165.5</ele><time>2026-04-19T08:33:09.866Z</time></trkpt><trkpt lat="37.70790243056559" lon="15.174181079777984"><ele>165.33333333333334</ele><time>2026-04-19T08:33:10.866Z</time></trkpt><trkpt lat="37.70797815124067" lon="15.174190709152938"><ele>165.16666666666666</ele><time>2026-04-19T08:33:11.866Z</time></trkpt><trkpt lat="37.708060011605454" lon="15.174198618925919"><ele>165.0</ele><time>2026-04-19T08:33:12.866Z</time></trkpt><trkpt lat="37.70814362811031" lon="15.174213847951501"><ele>165.00000000000003</ele><time>2026-04-19T08:33:13.866Z</time></trkpt><trkpt lat="37.70820861824934" lon="15.174235053042745"><ele>165.0</ele><time>2026-04-19T08:33:14.866Z</time></trkpt><trkpt lat="37.70827709899634" lon="15.174261675267408"><ele>165.0</ele><time>2026-04-19T08:33:15.866Z</time></trkpt><trkpt lat="37.708341145851996" lon="15.174285551403514"><ele>165.0</ele><time>2026-04-19T08:33:16.866Z</time></trkpt><trkpt lat="37.70840671721968" lon="15.174308456815298"><ele>165.0</ele><time>2026-04-19T08:33:17.866Z</time></trkpt><trkpt lat="37.708481558103216" lon="15.17432839386187"><ele>165.00000000000003</ele><time>2026-04-19T08:33:18.866Z</time></trkpt><trkpt lat="37.70856126827937" lon="15.174354195963474"><ele>165.0</ele><time>2026-04-19T08:33:19.866Z</time></trkpt><trkpt lat="37.70864257769956" lon="15.174376280585655"><ele>164.33333333333334</ele><time>2026-04-19T08:33:20.866Z</time></trkpt><trkpt lat="37.70872087548886" lon="15.174398546290899"><ele>163.66666666666666</ele><time>2026-04-19T08:33:21.866Z</time></trkpt><trkpt lat="37.708793263063434" lon="15.174407455833451"><ele>163.0</ele><time>2026-04-19T08:33:22.866Z</time></trkpt><trkpt lat="37.70886066029295" lon="15.174424548771379"><ele>162.33333333333331</ele><time>2026-04-19T08:33:23.866Z</time></trkpt><trkpt lat="37.70893619877093" lon="15.1744455740759"><ele>161.66666666666666</ele><time>2026-04-19T08:33:24.866Z</time></trkpt><trkpt lat="37.70903103211671" lon="15.174460352729003"><ele>161.0</ele><time>2026-04-19T08:33:25.866Z</time></trkpt><trkpt lat="37.709155699573884" lon="15.174478693932718"><ele>161.0</ele><time>2026-04-19T08:33:26.866Z</time></trkpt><trkpt lat="37.70929417106318" lon="15.174498986222824"><ele>161.0</ele><time>2026-04-19T08:33:27.866Z</time></trkpt><trkpt lat="37.709444844989584" lon="15.174520687802836"><ele>161.0</ele><time>2026-04-19T08:33:28.866Z</time></trkpt><trkpt lat="37.70958681644176" lon="15.174547634432637"><ele>161.0</ele><time>2026-04-19T08:33:29.865Z</time></trkpt><trkpt lat="37.70972761523039" lon="15.174575500603334"><ele>161.25</ele><time>2026-04-19T08:33:30.865Z</time></trkpt><trkpt lat="37.70986850486807" lon="15.174609178890098"><ele>161.5</ele><time>2026-04-19T08:33:31.865Z</time></trkpt><trkpt lat="37.71000427275662" lon="15.17464614886223"><ele>161.75</ele><time>2026-04-19T08:33:32.865Z</time></trkpt><trkpt lat="37.710124563389776" lon="15.174682322932275"><ele>162.0</ele><time>2026-04-19T08:33:33.865Z</time></trkpt><trkpt lat="37.710240175366586" lon="15.174732235674831"><ele>161.5</ele><time>2026-04-19T08:33:34.865Z</time></trkpt><trkpt lat="37.710353357100836" lon="15.174781674543938"><ele>161.0</ele><time>2026-04-19T08:33:35.865Z</time></trkpt><trkpt lat="37.71046756465284" lon="15.174838853914366"><ele>160.5</ele><time>2026-04-19T08:33:36.865Z</time></trkpt><trkpt lat="37.71058479756368" lon="15.174880113254167"><ele>160.0</ele><time>2026-04-19T08:33:37.865Z</time></trkpt><trkpt lat="37.710697621471915" lon="15.17491409740936"><ele>159.5</ele><time>2026-04-19T08:33:38.865Z</time></trkpt><trkpt lat="37.710812406130636" lon="15.174952994288763"><ele>159.0</ele><time>2026-04-19T08:33:39.865Z</time></trkpt><trkpt lat="37.710934555538365" lon="15.174992436311362"><ele>158.5</ele><time>2026-04-19T08:33:40.865Z</time></trkpt><trkpt lat="37.711055965645" lon="15.175030151742481"><ele>158.0</ele><time>2026-04-19T08:33:41.865Z</time></trkpt><trkpt lat="37.71116844670208" lon="15.175079849807519"><ele>157.5</ele><time>2026-04-19T08:33:42.865Z</time></trkpt><trkpt lat="37.71128807399916" lon="15.175122712901691"><ele>157.0</ele><time>2026-04-19T08:33:43.865Z</time></trkpt><trkpt lat="37.71141916244949" lon="15.17517780950443"><ele>156.5</ele><time>2026-04-19T08:33:44.865Z</time></trkpt><trkpt lat="37.711556374559336" lon="15.175225935148601"><ele>156.0</ele><time>2026-04-19T08:33:45.865Z</time></trkpt><trkpt lat="37.71170204076723" lon="15.175306702391541"><ele>156.0</ele><time>2026-04-19T08:33:46.865Z</time></trkpt><trkpt lat="37.71184276362135" lon="15.175369326668667"><ele>156.0</ele><time>2026-04-19T08:33:47.865Z</time></trkpt><trkpt lat="37.71196821025533" lon="15.175435758974988"><ele>156.0</ele><time>2026-04-19T08:33:48.865Z</time></trkpt><trkpt lat="37.71208648461057" lon="15.175488762072256"><ele>156.0</ele><time>2026-04-19T08:33:49.865Z</time></trkpt><trkpt lat="37.712198926157825" lon="15.175539882774329"><ele>155.2</ele><time>2026-04-19T08:33:50.865Z</time></trkpt><trkpt lat="37.7122997393508" lon="15.175586544363377"><ele>154.39999999999998</ele><time>2026-04-19T08:33:51.864Z</time></trkpt><trkpt lat="37.71240478805142" lon="15.175642096762276"><ele>153.6</ele><time>2026-04-19T08:33:52.864Z</time></trkpt><trkpt lat="37.712494651027484" lon="15.175712018204802"><ele>152.79999999999998</ele><time>2026-04-19T08:33:53.864Z</time></trkpt><trkpt lat="37.71257577343168" lon="15.175760122613964"><ele>152.0</ele><time>2026-04-19T08:33:54.864Z</time></trkpt><trkpt lat="37.71264308100923" lon="15.175797946418745"><ele>151.0</ele><time>2026-04-19T08:33:55.864Z</time></trkpt><trkpt lat="37.71276347720281" lon="15.175865603619997"><ele>150.0</ele><time>2026-04-19T08:33:57.864Z</time></trkpt><trkpt lat="37.712837805059316" lon="15.175907372467922"><ele>149.0</ele><time>2026-04-19T08:33:58.864Z</time></trkpt><trkpt lat="37.712931686693615" lon="15.17596023679204"><ele>148.0</ele><time>2026-04-19T08:33:59.864Z</time></trkpt><trkpt lat="37.7130420408788" lon="15.176022504545484"><ele>147.0</ele><time>2026-04-19T08:34:00.864Z</time></trkpt><trkpt lat="37.713182584026505" lon="15.176102033653162"><ele>147.0</ele><time>2026-04-19T08:34:01.864Z</time></trkpt><trkpt lat="37.713342440741016" lon="15.176192035380437"><ele>147.0</ele><time>2026-04-19T08:34:02.864Z</time></trkpt><trkpt lat="37.713480485181016" lon="15.17626985544902"><ele>147.0</ele><time>2026-04-19T08:34:03.864Z</time></trkpt><trkpt lat="37.713597801792474" lon="15.176334829409075"><ele>147.0</ele><time>2026-04-19T08:34:04.864Z</time></trkpt><trkpt lat="37.71369179178675" lon="15.176386346337459"><ele>147.0</ele><time>2026-04-19T08:34:05.864Z</time></trkpt><trkpt lat="37.71376852761217" lon="15.176428406079244"><ele>147.0</ele><time>2026-04-19T08:34:06.864Z</time></trkpt><trkpt lat="37.71384873531743" lon="15.17647236878031"><ele>147.0</ele><time>2026-04-19T08:34:07.864Z</time></trkpt><trkpt lat="37.71389960712552" lon="15.176532813425526"><ele>147.0</ele><time>2026-04-19T08:34:08.864Z</time></trkpt><trkpt lat="37.713983325058784" lon="15.17657433471183"><ele>147.0</ele><time>2026-04-19T08:34:09.864Z</time></trkpt><trkpt lat="37.714083439083026" lon="15.176628856961004"><ele>146.25</ele><time>2026-04-19T08:34:10.864Z</time></trkpt><trkpt lat="37.71420062705087" lon="15.176698787968807"><ele>145.5</ele><time>2026-04-19T08:34:11.864Z</time></trkpt><trkpt lat="37.71432575569521" lon="15.176772515193287"><ele>144.75</ele><time>2026-04-19T08:34:12.864Z</time></trkpt><trkpt lat="37.71443813151177" lon="15.176850839658734"><ele>144.0</ele><time>2026-04-19T08:34:13.864Z</time></trkpt><trkpt lat="37.71454118884298" lon="15.176921664370758"><ele>143.5</ele><time>2026-04-19T08:34:14.863Z</time></trkpt><trkpt lat="37.71463731663408" lon="15.177002134237426"><ele>143.0</ele><time>2026-04-19T08:34:15.863Z</time></trkpt><trkpt lat="37.71472379478609" lon="15.177066590333448"><ele>142.5</ele><time>2026-04-19T08:34:16.863Z</time></trkpt><trkpt lat="37.71477977210007" lon="15.177119605419769"><ele>142.0</ele><time>2026-04-19T08:34:17.863Z</time></trkpt><trkpt lat="37.71484649810807" lon="15.177167354233022"><ele>141.5</ele><time>2026-04-19T08:34:19.863Z</time></trkpt><trkpt lat="37.71492185800748" lon="15.177219824947427"><ele>141.0</ele><time>2026-04-19T08:34:21.863Z</time></trkpt><trkpt lat="37.714996942236795" lon="15.177276129354958"><ele>141.0</ele><time>2026-04-19T08:34:23.863Z</time></trkpt><trkpt lat="37.71508094458355" lon="15.177331958200007"><ele>141.0</ele><time>2026-04-19T08:34:25.863Z</time></trkpt><trkpt lat="37.715179021368506" lon="15.17738481513213"><ele>141.0</ele><time>2026-04-19T08:34:27.863Z</time></trkpt><trkpt lat="37.715262392437225" lon="15.177442970018433"><ele>141.0</ele><time>2026-04-19T08:34:29.863Z</time></trkpt><trkpt lat="37.71535463463261" lon="15.17750901983721"><ele>141.0</ele><time>2026-04-19T08:34:31.863Z</time></trkpt><trkpt lat="37.715430679683145" lon="15.17755578629542"><ele>140.4</ele><time>2026-04-19T08:34:33.863Z</time></trkpt><trkpt lat="37.71552072846521" lon="15.177647093162316"><ele>139.8</ele><time>2026-04-19T08:34:35.863Z</time></trkpt><trkpt lat="37.715594674336515" lon="15.177703866524006"><ele>139.20000000000002</ele><time>2026-04-19T08:34:36.862Z</time></trkpt><trkpt lat="37.71566826656956" lon="15.177745142292208"><ele>138.6</ele><time>2026-04-19T08:34:37.862Z</time></trkpt><trkpt lat="37.71574552065415" lon="15.177808273874628"><ele>138.0</ele><time>2026-04-19T08:34:38.862Z</time></trkpt><trkpt lat="37.71577833906079" lon="15.177897023213395"><ele>138.0</ele><time>2026-04-19T08:34:39.862Z</time></trkpt><trkpt lat="37.71585145587982" lon="15.177953569357223"><ele>138.0</ele><time>2026-04-19T08:34:40.862Z</time></trkpt><trkpt lat="37.71596100676005" lon="15.178024092424542"><ele>138.0</ele><time>2026-04-19T08:34:41.862Z</time></trkpt><trkpt lat="37.71608267951977" lon="15.178121687331025"><ele>138.0</ele><time>2026-04-19T08:34:42.862Z</time></trkpt><trkpt lat="37.716209311381895" lon="15.178204130471261"><ele>136.0</ele><time>2026-04-19T08:34:43.862Z</time></trkpt><trkpt lat="37.716331463833576" lon="15.178294307619735"><ele>134.0</ele><time>2026-04-19T08:34:44.862Z</time></trkpt><trkpt lat="37.71645111955825" lon="15.178373969470707"><ele>132.0</ele><time>2026-04-19T08:34:45.862Z</time></trkpt><trkpt lat="37.716556933293056" lon="15.178448007137847"><ele>130.0</ele><time>2026-04-19T08:34:46.862Z</time></trkpt><trkpt lat="37.71666280219846" lon="15.178526528679027"><ele>130.0</ele><time>2026-04-19T08:34:47.862Z</time></trkpt><trkpt lat="37.71677283540182" lon="15.178617010470596"><ele>130.0</ele><time>2026-04-19T08:34:48.862Z</time></trkpt><trkpt lat="37.716874272965136" lon="15.178692458634949"><ele>130.0</ele><time>2026-04-19T08:34:49.862Z</time></trkpt><trkpt lat="37.716968087377275" lon="15.178740401994503"><ele>130.0</ele><time>2026-04-19T08:34:50.862Z</time></trkpt><trkpt lat="37.7170525628247" lon="15.178801713834833"><ele>130.0</ele><time>2026-04-19T08:34:51.862Z</time></trkpt><trkpt lat="37.71710549129949" lon="15.178851270728629"><ele>129.5</ele><time>2026-04-19T08:34:52.862Z</time></trkpt><trkpt lat="37.71716605656572" lon="15.178900301886536"><ele>129.0</ele><time>2026-04-19T08:34:53.862Z</time></trkpt><trkpt lat="37.71722923657016" lon="15.1789427123673"><ele>128.5</ele><time>2026-04-19T08:34:54.862Z</time></trkpt><trkpt lat="37.71729374354205" lon="15.178985458698563"><ele>128.0</ele><time>2026-04-19T08:34:55.862Z</time></trkpt><trkpt lat="37.717351259656425" lon="15.179039683733425"><ele>127.50000000000001</ele><time>2026-04-19T08:34:56.862Z</time></trkpt><trkpt lat="37.717452273967105" lon="15.179128993084253"><ele>127.0</ele><time>2026-04-19T08:34:58.861Z</time></trkpt><trkpt lat="37.71756774544641" lon="15.179198746681507"><ele>127.00000000000001</ele><time>2026-04-19T08:35:00.861Z</time></trkpt><trkpt lat="37.71763154858635" lon="15.179243955163333"><ele>127.0</ele><time>2026-04-19T08:35:01.861Z</time></trkpt><trkpt lat="37.7177107114667" lon="15.179287642553415"><ele>127.0</ele><time>2026-04-19T08:35:02.861Z</time></trkpt><trkpt lat="37.71776944575488" lon="15.179334573392145"><ele>127.0</ele><time>2026-04-19T08:35:03.862Z</time></trkpt><trkpt lat="37.71786774143846" lon="15.179416611370938"><ele>127.00000000000001</ele><time>2026-04-19T08:35:05.862Z</time></trkpt><trkpt lat="37.71794210153549" lon="15.179452290895933"><ele>127.0</ele><time>2026-04-19T08:35:07.862Z</time></trkpt><trkpt lat="37.718000036218015" lon="15.179513916900083"><ele>127.0</ele><time>2026-04-19T08:35:09.862Z</time></trkpt><trkpt lat="37.71807788131445" lon="15.17957289503352"><ele>126.99999999999999</ele><time>2026-04-19T08:35:11.861Z</time></trkpt><trkpt lat="37.71817472944797" lon="15.17963653363543"><ele>126.99999999999999</ele><time>2026-04-19T08:35:13.862Z</time></trkpt><trkpt lat="37.718231782130964" lon="15.179683521075074"><ele>127.0</ele><time>2026-04-19T08:35:14.862Z</time></trkpt><trkpt lat="37.71828724409108" lon="15.179723360118716"><ele>127.0</ele><time>2026-04-19T08:35:15.861Z</time></trkpt><trkpt lat="37.71839969752603" lon="15.179814695541655"><ele>126.19999999999999</ele><time>2026-04-19T08:35:17.862Z</time></trkpt><trkpt lat="37.71847139835957" lon="15.179869056912729"><ele>125.39999999999999</ele><time>2026-04-19T08:35:18.862Z</time></trkpt><trkpt lat="37.71856086353627" lon="15.179927163731204"><ele>124.60000000000001</ele><time>2026-04-19T08:35:19.862Z</time></trkpt><trkpt lat="37.71861204556272" lon="15.180041368401143"><ele>123.80000000000001</ele><time>2026-04-19T08:35:20.861Z</time></trkpt><trkpt lat="37.71870958137751" lon="15.180116683297086"><ele>123.0</ele><time>2026-04-19T08:35:21.861Z</time></trkpt><trkpt lat="37.71882342932802" lon="15.180189269945634"><ele>122.0</ele><time>2026-04-19T08:35:22.861Z</time></trkpt><trkpt lat="37.71893479003348" lon="15.18025249050814"><ele>121.0</ele><time>2026-04-19T08:35:23.861Z</time></trkpt><trkpt lat="37.71903195579664" lon="15.18032345472431"><ele>120.0</ele><time>2026-04-19T08:35:24.861Z</time></trkpt><trkpt lat="37.71913260864666" lon="15.180404013318011"><ele>119.0</ele><time>2026-04-19T08:35:25.861Z</time></trkpt><trkpt lat="37.719236858799206" lon="15.180476029373555"><ele>118.99999999999999</ele><time>2026-04-19T08:35:26.861Z</time></trkpt><trkpt lat="37.719336064965844" lon="15.180548439671421"><ele>119.0</ele><time>2026-04-19T08:35:27.861Z</time></trkpt><trkpt lat="37.71942384561977" lon="15.180607020265453"><ele>119.0</ele><time>2026-04-19T08:35:28.861Z</time></trkpt><trkpt lat="37.71949906810014" lon="15.180647933297841"><ele>119.0</ele><time>2026-04-19T08:35:29.861Z</time></trkpt><trkpt lat="37.71956434395852" lon="15.180698697047088"><ele>118.99999999999999</ele><time>2026-04-19T08:35:30.861Z</time></trkpt><trkpt lat="37.719624837200605" lon="15.180740286853455"><ele>119.0</ele><time>2026-04-19T08:35:31.861Z</time></trkpt><trkpt lat="37.71968551320462" lon="15.180773700677081"><ele>118.33333333333333</ele><time>2026-04-19T08:35:32.861Z</time></trkpt><trkpt lat="37.71974196373532" lon="15.18081455558849"><ele>117.66666666666666</ele><time>2026-04-19T08:35:33.861Z</time></trkpt><trkpt lat="37.7198077920977" lon="15.180859476772879"><ele>117.0</ele><time>2026-04-19T08:35:34.861Z</time></trkpt><trkpt lat="37.71987520671346" lon="15.180925808627295"><ele>116.33333333333334</ele><time>2026-04-19T08:35:35.861Z</time></trkpt><trkpt lat="37.71993993089771" lon="15.180975043531154"><ele>115.66666666666667</ele><time>2026-04-19T08:35:36.861Z</time></trkpt><trkpt lat="37.720003088605495" lon="15.18102310059692"><ele>115.0</ele><time>2026-04-19T08:35:37.861Z</time></trkpt><trkpt lat="37.72007170586948" lon="15.181074358143778"><ele>115.0</ele><time>2026-04-19T08:35:38.861Z</time></trkpt><trkpt lat="37.720155214958446" lon="15.181136917069818"><ele>115.0</ele><time>2026-04-19T08:35:39.861Z</time></trkpt><trkpt lat="37.720265126773725" lon="15.18121893280888"><ele>115.0</ele><time>2026-04-19T08:35:40.861Z</time></trkpt><trkpt lat="37.720398636028996" lon="15.181318365758509"><ele>115.0</ele><time>2026-04-19T08:35:41.861Z</time></trkpt><trkpt lat="37.72049594956193" lon="15.181445978277905"><ele>113.4</ele><time>2026-04-19T08:35:42.861Z</time></trkpt><trkpt lat="37.72060573070699" lon="15.181532814411629"><ele>111.8</ele><time>2026-04-19T08:35:43.86Z</time></trkpt><trkpt lat="37.720703025084454" lon="15.181596280985554"><ele>110.19999999999999</ele><time>2026-04-19T08:35:44.86Z</time></trkpt><trkpt lat="37.720792979136974" lon="15.18165801976203"><ele>108.6</ele><time>2026-04-19T08:35:45.86Z</time></trkpt><trkpt lat="37.72086433437437" lon="15.181704403108833"><ele>107.0</ele><time>2026-04-19T08:35:46.86Z</time></trkpt><trkpt lat="37.72093381613885" lon="15.181752437052955"><ele>106.99999999999999</ele><time>2026-04-19T08:35:47.86Z</time></trkpt><trkpt lat="37.72099817091973" lon="15.181799785605268"><ele>107.0</ele><time>2026-04-19T08:35:48.86Z</time></trkpt><trkpt lat="37.72105709232647" lon="15.181849904359542"><ele>107.0</ele><time>2026-04-19T08:35:49.86Z</time></trkpt><trkpt lat="37.721116447682164" lon="15.18190707099539"><ele>107.0</ele><time>2026-04-19T08:35:51.86Z</time></trkpt><trkpt lat="37.72120927533327" lon="15.181980724053114"><ele>106.99999999999999</ele><time>2026-04-19T08:35:53.86Z</time></trkpt><trkpt lat="37.721289299638045" lon="15.18203240916338"><ele>107.0</ele><time>2026-04-19T08:35:54.86Z</time></trkpt><trkpt lat="37.72138171533569" lon="15.18208367242218"><ele>106.6</ele><time>2026-04-19T08:35:55.86Z</time></trkpt><trkpt lat="37.72145681700114" lon="15.18212845820727"><ele>106.19999999999999</ele><time>2026-04-19T08:35:56.86Z</time></trkpt><trkpt lat="37.72156016659645" lon="15.182185999388604"><ele>105.8</ele><time>2026-04-19T08:35:58.86Z</time></trkpt><trkpt lat="37.72165965884801" lon="15.182246258051112"><ele>105.4</ele><time>2026-04-19T08:36:00.86Z</time></trkpt><trkpt lat="37.721749471016835" lon="15.182301698228844"><ele>105.0</ele><time>2026-04-19T08:36:02.86Z</time></trkpt><trkpt lat="37.721844748841164" lon="15.182374334544928"><ele>104.5</ele><time>2026-04-19T08:36:04.86Z</time></trkpt><trkpt lat="37.72191675663153" lon="15.182426380160578"><ele>104.0</ele><time>2026-04-19T08:36:05.859Z</time></trkpt><trkpt lat="37.72198137635088" lon="15.182477870699342"><ele>103.5</ele><time>2026-04-19T08:36:06.859Z</time></trkpt><trkpt lat="37.72203545914206" lon="15.182535472040133"><ele>103.0</ele><time>2026-04-19T08:36:07.859Z</time></trkpt><trkpt lat="37.722092594101845" lon="15.1825773654278"><ele>102.5</ele><time>2026-04-19T08:36:08.859Z</time></trkpt><trkpt lat="37.72218473221737" lon="15.18264714575606"><ele>102.0</ele><time>2026-04-19T08:36:10.859Z</time></trkpt><trkpt lat="37.72229031484435" lon="15.182727020664439"><ele>102.0</ele><time>2026-04-19T08:36:12.859Z</time></trkpt><trkpt lat="37.72238938980742" lon="15.182800858038064"><ele>102.0</ele><time>2026-04-19T08:36:14.859Z</time></trkpt><trkpt lat="37.72244918968266" lon="15.182841590470952"><ele>102.0</ele><time>2026-04-19T08:36:17.859Z</time></trkpt><trkpt lat="37.722526579296925" lon="15.18289128769253"><ele>102.0</ele><time>2026-04-19T08:36:25.859Z</time></trkpt><trkpt lat="37.72259562655195" lon="15.182912191262355"><ele>102.0</ele><time>2026-04-19T08:36:27.859Z</time></trkpt><trkpt lat="37.722631135501786" lon="15.183040074856931"><ele>102.0</ele><time>2026-04-19T08:36:29.858Z</time></trkpt><trkpt lat="37.72257947899923" lon="15.18312655577174"><ele>102.0</ele><time>2026-04-19T08:36:30.858Z</time></trkpt><trkpt lat="37.7225705921723" lon="15.183237120444343"><ele>102.0</ele><time>2026-04-19T08:36:31.858Z</time></trkpt><trkpt lat="37.72255812395853" lon="15.183398618630315"><ele>102.0</ele><time>2026-04-19T08:36:32.858Z</time></trkpt><trkpt lat="37.722543548305325" lon="15.183567206795072"><ele>102.0</ele><time>2026-04-19T08:36:33.858Z</time></trkpt><trkpt lat="37.722524000670916" lon="15.183754262208158"><ele>102.0</ele><time>2026-04-19T08:36:34.858Z</time></trkpt><trkpt lat="37.72250900635632" lon="15.183922489610673"><ele>102.0</ele><time>2026-04-19T08:36:35.858Z</time></trkpt><trkpt lat="37.72250076087145" lon="15.184070462219932"><ele>102.0</ele><time>2026-04-19T08:36:36.858Z</time></trkpt><trkpt lat="37.72250133226007" lon="15.184212984489687"><ele>102.0</ele><time>2026-04-19T08:36:37.858Z</time></trkpt><trkpt lat="37.72252648005349" lon="15.18436841207379"><ele>102.0</ele><time>2026-04-19T08:36:38.858Z</time></trkpt><trkpt lat="37.72258256300969" lon="15.184513819262493"><ele>102.0</ele><time>2026-04-19T08:36:39.858Z</time></trkpt><trkpt lat="37.72266494484944" lon="15.18462353415796"><ele>102.0</ele><time>2026-04-19T08:36:40.858Z</time></trkpt><trkpt lat="37.7227521846427" lon="15.184726210081287"><ele>102.0</ele><time>2026-04-19T08:36:41.858Z</time></trkpt><trkpt lat="37.722864067021874" lon="15.184807886187325"><ele>100.25</ele><time>2026-04-19T08:36:42.858Z</time></trkpt><trkpt lat="37.72297037923082" lon="15.184818905580967"><ele>98.5</ele><time>2026-04-19T08:36:43.858Z</time></trkpt><trkpt lat="37.723082102962785" lon="15.184856466931661"><ele>96.75</ele><time>2026-04-19T08:36:44.858Z</time></trkpt><trkpt lat="37.72321678704473" lon="15.184902548676286"><ele>95.0</ele><time>2026-04-19T08:36:45.858Z</time></trkpt><trkpt lat="37.723311691727766" lon="15.184920670289761"><ele>94.4</ele><time>2026-04-19T08:36:46.858Z</time></trkpt><trkpt lat="37.72340599213883" lon="15.18496718384584"><ele>93.8</ele><time>2026-04-19T08:36:47.858Z</time></trkpt><trkpt lat="37.72347831375766" lon="15.185067543589483"><ele>93.19999999999999</ele><time>2026-04-19T08:36:48.858Z</time></trkpt><trkpt lat="37.723542089629404" lon="15.185127234065304"><ele>92.6</ele><time>2026-04-19T08:36:49.858Z</time></trkpt><trkpt lat="37.72360946349721" lon="15.185280197359633"><ele>92.0</ele><time>2026-04-19T08:36:51.857Z</time></trkpt><trkpt lat="37.72364259835269" lon="15.185399656676443"><ele>91.5</ele><time>2026-04-19T08:36:52.857Z</time></trkpt><trkpt lat="37.72368763514568" lon="15.18555919694088"><ele>91.0</ele><time>2026-04-19T08:36:53.857Z</time></trkpt><trkpt lat="37.72374249444059" lon="15.185713648231962"><ele>90.5</ele><time>2026-04-19T08:36:54.857Z</time></trkpt><trkpt lat="37.723780552996836" lon="15.18587407124508"><ele>90.0</ele><time>2026-04-19T08:36:55.857Z</time></trkpt><trkpt lat="37.7238062459178" lon="15.186024707899529"><ele>89.6</ele><time>2026-04-19T08:36:56.857Z</time></trkpt><trkpt lat="37.723835560237376" lon="15.18617303344417"><ele>89.2</ele><time>2026-04-19T08:36:57.857Z</time></trkpt><trkpt lat="37.72386801146117" lon="15.186299855165135"><ele>88.80000000000001</ele><time>2026-04-19T08:36:58.857Z</time></trkpt><trkpt lat="37.72390251202679" lon="15.186417423401442"><ele>88.4</ele><time>2026-04-19T08:36:59.857Z</time></trkpt><trkpt lat="37.723930144988145" lon="15.186515340791805"><ele>88.0</ele><time>2026-04-19T08:37:00.857Z</time></trkpt><trkpt lat="37.72395228854518" lon="15.18660950401626"><ele>88.0</ele><time>2026-04-19T08:37:01.857Z</time></trkpt><trkpt lat="37.72397495072768" lon="15.186694605411455"><ele>88.0</ele><time>2026-04-19T08:37:02.857Z</time></trkpt><trkpt lat="37.72397112675726" lon="15.18677798861032"><ele>88.0</ele><time>2026-04-19T08:37:03.857Z</time></trkpt><trkpt lat="37.72400972355322" lon="15.186909344187852"><ele>88.0</ele><time>2026-04-19T08:37:05.857Z</time></trkpt><trkpt lat="37.72402522952525" lon="15.187001026045634"><ele>88.0</ele><time>2026-04-19T08:37:06.857Z</time></trkpt><trkpt lat="37.72404750140065" lon="15.187090560483473"><ele>88.0</ele><time>2026-04-19T08:37:07.857Z</time></trkpt><trkpt lat="37.72406548395964" lon="15.187177105488473"><ele>88.0</ele><time>2026-04-19T08:37:08.857Z</time></trkpt><trkpt lat="37.72408708616041" lon="15.187254691835566"><ele>88.0</ele><time>2026-04-19T08:37:09.858Z</time></trkpt><trkpt lat="37.724092176055045" lon="15.187345643306074"><ele>88.0</ele><time>2026-04-19T08:37:11.857Z</time></trkpt><trkpt lat="37.724147400810196" lon="15.18747084177423"><ele>88.0</ele><time>2026-04-19T08:37:14.858Z</time></trkpt><trkpt lat="37.72416456884086" lon="15.187555495871958"><ele>88.0</ele><time>2026-04-19T08:37:15.857Z</time></trkpt><trkpt lat="37.724167842883155" lon="15.18766134292335"><ele>88.0</ele><time>2026-04-19T08:37:16.857Z</time></trkpt><trkpt lat="37.724190243572345" lon="15.187774419397776"><ele>87.71428571428572</ele><time>2026-04-19T08:37:17.857Z</time></trkpt><trkpt lat="37.72422601587592" lon="15.187861508564067"><ele>87.42857142857143</ele><time>2026-04-19T08:37:18.857Z</time></trkpt><trkpt lat="37.72424473401679" lon="15.187950450936858"><ele>87.14285714285714</ele><time>2026-04-19T08:37:19.857Z</time></trkpt><trkpt lat="37.72426891516944" lon="15.188026751338917"><ele>86.85714285714286</ele><time>2026-04-19T08:37:20.857Z</time></trkpt><trkpt lat="37.724292424707116" lon="15.188106119148154"><ele>86.57142857142857</ele><time>2026-04-19T08:37:21.857Z</time></trkpt><trkpt lat="37.72429141534288" lon="15.188199077741391"><ele>86.28571428571429</ele><time>2026-04-19T08:37:22.857Z</time></trkpt><trkpt lat="37.72431293437291" lon="15.188295381049906"><ele>86.0</ele><time>2026-04-19T08:37:23.857Z</time></trkpt><trkpt lat="37.72433214642777" lon="15.188397041178291"><ele>85.19999999999999</ele><time>2026-04-19T08:37:24.857Z</time></trkpt><trkpt lat="37.72435973630659" lon="15.18848724538069"><ele>84.39999999999999</ele><time>2026-04-19T08:37:25.857Z</time></trkpt><trkpt lat="37.724390671727164" lon="15.18858684742989"><ele>83.6</ele><time>2026-04-19T08:37:26.857Z</time></trkpt><trkpt lat="37.72442224432422" lon="15.188708043009788"><ele>82.8</ele><time>2026-04-19T08:37:27.857Z</time></trkpt><trkpt lat="37.724473118995824" lon="15.188850684203725"><ele>82.0</ele><time>2026-04-19T08:37:28.857Z</time></trkpt><trkpt lat="37.724498363450664" lon="15.188976085266031"><ele>81.0</ele><time>2026-04-19T08:37:29.857Z</time></trkpt><trkpt lat="37.72452513924424" lon="15.189111888729716"><ele>80.0</ele><time>2026-04-19T08:37:30.856Z</time></trkpt><trkpt lat="37.724537554565366" lon="15.189245419310206"><ele>79.0</ele><time>2026-04-19T08:37:31.856Z</time></trkpt><trkpt lat="37.72457272319635" lon="15.189354862992325"><ele>78.0</ele><time>2026-04-19T08:37:32.856Z</time></trkpt><trkpt lat="37.72460242454605" lon="15.189446089733073"><ele>77.0</ele><time>2026-04-19T08:37:33.856Z</time></trkpt><trkpt lat="37.72462638295956" lon="15.189565526336146"><ele>77.0</ele><time>2026-04-19T08:37:35.856Z</time></trkpt><trkpt lat="37.724740228238744" lon="15.189518035361923"><ele>77.0</ele><time>2026-04-19T08:37:37.856Z</time></trkpt><trkpt lat="37.72486017366394" lon="15.189474177373983"><ele>77.0</ele><time>2026-04-19T08:37:38.856Z</time></trkpt><trkpt lat="37.724969582816655" lon="15.189434172157538"><ele>77.0</ele><time>2026-04-19T08:37:39.856Z</time></trkpt><trkpt lat="37.72506420384153" lon="15.189399573889094"><ele>77.0</ele><time>2026-04-19T08:37:40.856Z</time></trkpt><trkpt lat="37.725133298336466" lon="15.18937236694422"><ele>77.0</ele><time>2026-04-19T08:37:41.856Z</time></trkpt><trkpt lat="37.72520471269305" lon="15.189343274445848"><ele>77.0</ele><time>2026-04-19T08:37:43.856Z</time></trkpt><trkpt lat="37.72526707232664" lon="15.189668826743715"><ele>77.0</ele><time>2026-04-19T08:37:46.856Z</time></trkpt><trkpt lat="37.72529913926426" lon="15.189807227268927"><ele>76.2</ele><time>2026-04-19T08:37:47.856Z</time></trkpt><trkpt lat="37.72532815050256" lon="15.1899412715684"><ele>75.4</ele><time>2026-04-19T08:37:48.856Z</time></trkpt><trkpt lat="37.725366400933325" lon="15.190059214205093"><ele>74.6</ele><time>2026-04-19T08:37:49.856Z</time></trkpt><trkpt lat="37.72538341589253" lon="15.190145109371569"><ele>73.8</ele><time>2026-04-19T08:37:50.856Z</time></trkpt><trkpt lat="37.72541676674868" lon="15.190306552634725"><ele>73.0</ele><time>2026-04-19T08:37:52.856Z</time></trkpt><trkpt lat="37.72544879975261" lon="15.190429906593703"><ele>73.0</ele><time>2026-04-19T08:37:53.855Z</time></trkpt><trkpt lat="37.725479456336224" lon="15.190570811737386"><ele>73.0</ele><time>2026-04-19T08:37:54.855Z</time></trkpt><trkpt lat="37.72551268016894" lon="15.190731407039271"><ele>73.0</ele><time>2026-04-19T08:37:55.855Z</time></trkpt><trkpt lat="37.72555886113534" lon="15.190896424826764"><ele>73.0</ele><time>2026-04-19T08:37:56.855Z</time></trkpt><trkpt lat="37.72560246365501" lon="15.191055048260848"><ele>71.5</ele><time>2026-04-19T08:37:57.855Z</time></trkpt><trkpt lat="37.72564066271386" lon="15.19121001496291"><ele>70.0</ele><time>2026-04-19T08:37:58.855Z</time></trkpt><trkpt lat="37.725657193391704" lon="15.19136563663505"><ele>68.5</ele><time>2026-04-19T08:37:59.855Z</time></trkpt><trkpt lat="37.72568767641799" lon="15.191505729269837"><ele>67.0</ele><time>2026-04-19T08:38:00.855Z</time></trkpt><trkpt lat="37.7257232085999" lon="15.191648341066411"><ele>66.25</ele><time>2026-04-19T08:38:01.855Z</time></trkpt><trkpt lat="37.725760268017325" lon="15.191796042917384"><ele>65.5</ele><time>2026-04-19T08:38:02.855Z</time></trkpt><trkpt lat="37.7258011426518" lon="15.191953201042296"><ele>64.75</ele><time>2026-04-19T08:38:03.855Z</time></trkpt><trkpt lat="37.725834703190536" lon="15.192101003184895"><ele>64.0</ele><time>2026-04-19T08:38:04.855Z</time></trkpt><trkpt lat="37.72586393732494" lon="15.192243963173219"><ele>63.25</ele><time>2026-04-19T08:38:05.855Z</time></trkpt><trkpt lat="37.72590091379316" lon="15.192377785454095"><ele>62.5</ele><time>2026-04-19T08:38:06.855Z</time></trkpt><trkpt lat="37.72592744356896" lon="15.192516660599754"><ele>61.75</ele><time>2026-04-19T08:38:07.855Z</time></trkpt><trkpt lat="37.72596100527989" lon="15.192653719049428"><ele>61.0</ele><time>2026-04-19T08:38:08.855Z</time></trkpt><trkpt lat="37.725997429573475" lon="15.192798704960179"><ele>61.0</ele><time>2026-04-19T08:38:09.855Z</time></trkpt><trkpt lat="37.726033596972435" lon="15.192963635525919"><ele>61.0</ele><time>2026-04-19T08:38:10.855Z</time></trkpt><trkpt lat="37.726074969109405" lon="15.193128081320946"><ele>61.0</ele><time>2026-04-19T08:38:11.855Z</time></trkpt><trkpt lat="37.72610171890921" lon="15.193307763581764"><ele>61.0</ele><time>2026-04-19T08:38:12.855Z</time></trkpt><trkpt lat="37.72614043511319" lon="15.193476466216943"><ele>60.0</ele><time>2026-04-19T08:38:13.855Z</time></trkpt><trkpt lat="37.72617491027549" lon="15.193626688840753"><ele>59.0</ele><time>2026-04-19T08:38:14.855Z</time></trkpt><trkpt lat="37.726198530076566" lon="15.193771784540136"><ele>58.0</ele><time>2026-04-19T08:38:15.854Z</time></trkpt><trkpt lat="37.726224992954876" lon="15.193908985661743"><ele>57.0</ele><time>2026-04-19T08:38:16.854Z</time></trkpt><trkpt lat="37.726257085182986" lon="15.19403950385966"><ele>56.0</ele><time>2026-04-19T08:38:17.854Z</time></trkpt><trkpt lat="37.72628310192575" lon="15.194161419561432"><ele>55.0</ele><time>2026-04-19T08:38:18.854Z</time></trkpt><trkpt lat="37.72630694959048" lon="15.194280090769512"><ele>54.0</ele><time>2026-04-19T08:38:19.854Z</time></trkpt><trkpt lat="37.72632536967951" lon="15.194389560316761"><ele>53.0</ele><time>2026-04-19T08:38:20.854Z</time></trkpt><trkpt lat="37.72635467339028" lon="15.194508229514112"><ele>52.0</ele><time>2026-04-19T08:38:21.854Z</time></trkpt><trkpt lat="37.72638130658546" lon="15.19462326567393"><ele>52.0</ele><time>2026-04-19T08:38:22.854Z</time></trkpt><trkpt lat="37.72640982412133" lon="15.194742091262308"><ele>52.0</ele><time>2026-04-19T08:38:23.854Z</time></trkpt><trkpt lat="37.726432887202606" lon="15.194853803701259"><ele>52.0</ele><time>2026-04-19T08:38:24.854Z</time></trkpt><trkpt lat="37.72645990330191" lon="15.194968897944722"><ele>52.0</ele><time>2026-04-19T08:38:25.854Z</time></trkpt><trkpt lat="37.72647902017426" lon="15.195075183276828"><ele>52.0</ele><time>2026-04-19T08:38:26.854Z</time></trkpt><trkpt lat="37.72650475637376" lon="15.19517708994851"><ele>51.666666666666664</ele><time>2026-04-19T08:38:27.854Z</time></trkpt><trkpt lat="37.726523986647386" lon="15.195253082647111"><ele>51.33333333333333</ele><time>2026-04-19T08:38:28.854Z</time></trkpt><trkpt lat="37.726545298594495" lon="15.195336887200467"><ele>51.0</ele><time>2026-04-19T08:38:29.854Z</time></trkpt><trkpt lat="37.72657638890916" lon="15.19547190595115"><ele>50.66666666666667</ele><time>2026-04-19T08:38:31.854Z</time></trkpt><trkpt lat="37.72660779371089" lon="15.19554713580637"><ele>50.333333333333336</ele><time>2026-04-19T08:38:33.854Z</time></trkpt><trkpt lat="37.72662775664033" lon="15.19563021583536"><ele>50.0</ele><time>2026-04-19T08:38:35.854Z</time></trkpt><trkpt lat="37.726652935980646" lon="15.195728550783423"><ele>49.25</ele><time>2026-04-19T08:38:39.853Z</time></trkpt><trkpt lat="37.7268171728699" lon="15.19568908066874"><ele>48.5</ele><time>2026-04-19T08:38:40.853Z</time></trkpt><trkpt lat="37.72690496552025" lon="15.19564526144493"><ele>47.75</ele><time>2026-04-19T08:38:41.853Z</time></trkpt><trkpt lat="37.72701255416025" lon="15.195582242988243"><ele>47.0</ele><time>2026-04-19T08:38:42.853Z</time></trkpt><trkpt lat="37.727137287678715" lon="15.19552622172125"><ele>47.0</ele><time>2026-04-19T08:38:43.853Z</time></trkpt><trkpt lat="37.72727027967924" lon="15.195475644048594"><ele>47.0</ele><time>2026-04-19T08:38:44.853Z</time></trkpt><trkpt lat="37.727405139886116" lon="15.1954336779852"><ele>47.0</ele><time>2026-04-19T08:38:45.853Z</time></trkpt><trkpt lat="37.72752380526368" lon="15.195391372814498"><ele>47.0</ele><time>2026-04-19T08:38:46.853Z</time></trkpt><trkpt lat="37.727644318578086" lon="15.195380660898014"><ele>46.8</ele><time>2026-04-19T08:38:47.853Z</time></trkpt><trkpt lat="37.72773282517427" lon="15.195349490340083"><ele>46.6</ele><time>2026-04-19T08:38:48.853Z</time></trkpt><trkpt lat="37.72781128826226" lon="15.195373689068893"><ele>46.4</ele><time>2026-04-19T08:38:49.853Z</time></trkpt><trkpt lat="37.727888134818095" lon="15.195397262194756"><ele>46.199999999999996</ele><time>2026-04-19T08:38:50.853Z</time></trkpt><trkpt lat="37.72795469482682" lon="15.195506792361206"><ele>46.0</ele><time>2026-04-19T08:38:51.853Z</time></trkpt><trkpt lat="37.72797217220257" lon="15.195620894248929"><ele>45.8</ele><time>2026-04-19T08:38:52.853Z</time></trkpt><trkpt lat="37.7279945621073" lon="15.19572877364434"><ele>45.599999999999994</ele><time>2026-04-19T08:38:53.853Z</time></trkpt><trkpt lat="37.728012869683376" lon="15.19584749270016"><ele>45.4</ele><time>2026-04-19T08:38:54.853Z</time></trkpt><trkpt lat="37.728029303379934" lon="15.195974310818237"><ele>45.2</ele><time>2026-04-19T08:38:55.853Z</time></trkpt><trkpt lat="37.728016607866415" lon="15.196099090127232"><ele>45.0</ele><time>2026-04-19T08:38:56.853Z</time></trkpt><trkpt lat="37.72798445271906" lon="15.196221313871614"><ele>45.0</ele><time>2026-04-19T08:38:57.853Z</time></trkpt><trkpt lat="37.72789734870184" lon="15.196334771782166"><ele>45.0</ele><time>2026-04-19T08:38:58.853Z</time></trkpt><trkpt lat="37.727755559644265" lon="15.196408012858166"><ele>45.0</ele><time>2026-04-19T08:38:59.853Z</time></trkpt><trkpt lat="37.72758647550947" lon="15.196478033037192"><ele>43.6</ele><time>2026-04-19T08:39:00.852Z</time></trkpt><trkpt lat="37.7274364160251" lon="15.196537738219424"><ele>42.2</ele><time>2026-04-19T08:39:01.852Z</time></trkpt><trkpt lat="37.72733547032153" lon="15.196598995372215"><ele>40.8</ele><time>2026-04-19T08:39:02.852Z</time></trkpt><trkpt lat="37.72723787256241" lon="15.196622320616951"><ele>39.4</ele><time>2026-04-19T08:39:03.852Z</time></trkpt><trkpt lat="37.72717048588968" lon="15.19665020800401"><ele>38.0</ele><time>2026-04-19T08:39:04.852Z</time></trkpt><trkpt lat="37.72710953312173" lon="15.196675432562092"><ele>38.0</ele><time>2026-04-19T08:39:05.852Z</time></trkpt><trkpt lat="37.727217405547115" lon="15.196880393906932"><ele>38.0</ele><time>2026-04-19T08:39:06.852Z</time></trkpt><trkpt lat="37.72725332146832" lon="15.197054948058778"><ele>38.0</ele><time>2026-04-19T08:39:07.852Z</time></trkpt><trkpt lat="37.727293412265475" lon="15.197222405860618"><ele>38.25</ele><time>2026-04-19T08:39:08.852Z</time></trkpt><trkpt lat="37.7273264299838" lon="15.197394267652754"><ele>38.5</ele><time>2026-04-19T08:39:09.852Z</time></trkpt><trkpt lat="37.72737258301679" lon="15.197575677154022"><ele>38.75</ele><time>2026-04-19T08:39:10.852Z</time></trkpt><trkpt lat="37.72741352159887" lon="15.197765271580984"><ele>39.0</ele><time>2026-04-19T08:39:11.852Z</time></trkpt><trkpt lat="37.72744210671538" lon="15.197936016549285"><ele>39.0</ele><time>2026-04-19T08:39:12.852Z</time></trkpt><trkpt lat="37.72747671271917" lon="15.198086938112441"><ele>39.0</ele><time>2026-04-19T08:39:13.852Z</time></trkpt><trkpt lat="37.7274945128214" lon="15.198219732105075"><ele>39.0</ele><time>2026-04-19T08:39:14.852Z</time></trkpt><trkpt lat="37.72750305046672" lon="15.198357982406023"><ele>39.0</ele><time>2026-04-19T08:39:15.853Z</time></trkpt><trkpt lat="37.727513909485" lon="15.198495644260813"><ele>39.0</ele><time>2026-04-19T08:39:16.853Z</time></trkpt><trkpt lat="37.72752897106881" lon="15.198619789394218"><ele>39.0</ele><time>2026-04-19T08:39:17.852Z</time></trkpt><trkpt lat="37.727548260990936" lon="15.198748890262944"><ele>39.0</ele><time>2026-04-19T08:39:18.853Z</time></trkpt><trkpt lat="37.72756753419296" lon="15.198856137367489"><ele>39.0</ele><time>2026-04-19T08:39:19.853Z</time></trkpt><trkpt lat="37.727591951538805" lon="15.198989390821808"><ele>39.0</ele><time>2026-04-19T08:39:21.852Z</time></trkpt><trkpt lat="37.7275952971491" lon="15.199110406562255"><ele>39.0</ele><time>2026-04-19T08:39:23.852Z</time></trkpt><trkpt lat="37.72765026200205" lon="15.1991506505994"><ele>39.0</ele><time>2026-04-19T08:39:26.852Z</time></trkpt><trkpt lat="37.72782168610955" lon="15.199046476029977"><ele>39.0</ele><time>2026-04-19T08:39:28.852Z</time></trkpt><trkpt lat="37.72792713402539" lon="15.198983340284837"><ele>39.0</ele><time>2026-04-19T08:39:29.852Z</time></trkpt><trkpt lat="37.728050910694165" lon="15.198940511089843"><ele>39.0</ele><time>2026-04-19T08:39:30.852Z</time></trkpt><trkpt lat="37.72816205587715" lon="15.198899850201403"><ele>39.0</ele><time>2026-04-19T08:39:31.852Z</time></trkpt><trkpt lat="37.7282598233873" lon="15.198858517320234"><ele>39.0</ele><time>2026-04-19T08:39:32.852Z</time></trkpt><trkpt lat="37.72834499114931" lon="15.198816355360442"><ele>39.0</ele><time>2026-04-19T08:39:33.852Z</time></trkpt><trkpt lat="37.728420502909714" lon="15.1987836031696"><ele>39.0</ele><time>2026-04-19T08:39:34.852Z</time></trkpt><trkpt lat="37.7284845846739" lon="15.198743202761602"><ele>38.2</ele><time>2026-04-19T08:39:35.852Z</time></trkpt><trkpt lat="37.72857216274698" lon="15.19868989484378"><ele>37.4</ele><time>2026-04-19T08:39:37.852Z</time></trkpt><trkpt lat="37.728641932147724" lon="15.19869129606332"><ele>36.6</ele><time>2026-04-19T08:39:40.852Z</time></trkpt><trkpt lat="37.72866503930117" lon="15.198865092651268"><ele>35.8</ele><time>2026-04-19T08:39:44.852Z</time></trkpt><trkpt lat="37.72868171680358" lon="15.19894389230689"><ele>35.0</ele><time>2026-04-19T08:39:48.851Z</time></trkpt><trkpt lat="37.72868741190934" lon="15.199047128413547"><ele>34.2</ele><time>2026-04-19T08:39:51.851Z</time></trkpt><trkpt lat="37.72869580487915" lon="15.199211943492024"><ele>33.4</ele><time>2026-04-19T08:39:53.851Z</time></trkpt><trkpt lat="37.728710256121374" lon="15.199340381731608"><ele>32.6</ele><time>2026-04-19T08:39:54.851Z</time></trkpt><trkpt lat="37.72873479037217" lon="15.199460741810451"><ele>31.8</ele><time>2026-04-19T08:39:55.851Z</time></trkpt><trkpt lat="37.72875643122768" lon="15.199589545795058"><ele>31.0</ele><time>2026-04-19T08:39:56.851Z</time></trkpt><trkpt lat="37.72877398757194" lon="15.199716801371144"><ele>30.8</ele><time>2026-04-19T08:39:57.851Z</time></trkpt><trkpt lat="37.728791715909665" lon="15.199840799200938"><ele>30.6</ele><time>2026-04-19T08:39:58.851Z</time></trkpt><trkpt lat="37.72881993867044" lon="15.199977740140275"><ele>30.4</ele><time>2026-04-19T08:39:59.851Z</time></trkpt><trkpt lat="37.72884492906863" lon="15.200101614850595"><ele>30.2</ele><time>2026-04-19T08:40:00.851Z</time></trkpt><trkpt lat="37.728856330408014" lon="15.200226718227963"><ele>30.0</ele><time>2026-04-19T08:40:01.851Z</time></trkpt><trkpt lat="37.728892101731304" lon="15.200332642612036"><ele>30.0</ele><time>2026-04-19T08:40:02.851Z</time></trkpt><trkpt lat="37.728913468884635" lon="15.200461229095891"><ele>30.0</ele><time>2026-04-19T08:40:03.851Z</time></trkpt><trkpt lat="37.728935810462986" lon="15.200590791148098"><ele>30.0</ele><time>2026-04-19T08:40:04.851Z</time></trkpt><trkpt lat="37.728933410044355" lon="15.200698057928374"><ele>30.0</ele><time>2026-04-19T08:40:05.851Z</time></trkpt><trkpt lat="37.72895861433658" lon="15.200786303881724"><ele>30.0</ele><time>2026-04-19T08:40:06.851Z</time></trkpt><trkpt lat="37.728954890516206" lon="15.200895396657332"><ele>29.8</ele><time>2026-04-19T08:40:08.851Z</time></trkpt><trkpt lat="37.728972069681156" lon="15.200986270287123"><ele>29.6</ele><time>2026-04-19T08:40:10.85Z</time></trkpt><trkpt lat="37.72898412456764" lon="15.20108973019317"><ele>29.4</ele><time>2026-04-19T08:40:11.85Z</time></trkpt><trkpt lat="37.72899185996724" lon="15.201212028554483"><ele>29.2</ele><time>2026-04-19T08:40:12.85Z</time></trkpt><trkpt lat="37.72899858957514" lon="15.201356156864126"><ele>29.0</ele><time>2026-04-19T08:40:13.85Z</time></trkpt><trkpt lat="37.72901087928585" lon="15.201496747744855"><ele>28.4</ele><time>2026-04-19T08:40:14.85Z</time></trkpt><trkpt lat="37.72900351784519" lon="15.201620913385572"><ele>27.799999999999997</ele><time>2026-04-19T08:40:15.85Z</time></trkpt><trkpt lat="37.72901130262323" lon="15.201754808440976"><ele>27.200000000000003</ele><time>2026-04-19T08:40:16.85Z</time></trkpt><trkpt lat="37.729020656660175" lon="15.201905995419056"><ele>26.6</ele><time>2026-04-19T08:40:17.85Z</time></trkpt><trkpt lat="37.729046269124574" lon="15.202057444428343"><ele>26.0</ele><time>2026-04-19T08:40:18.85Z</time></trkpt><trkpt lat="37.729044677700024" lon="15.202224375413774"><ele>25.25</ele><time>2026-04-19T08:40:19.85Z</time></trkpt><trkpt lat="37.72905005891471" lon="15.202386187600847"><ele>24.5</ele><time>2026-04-19T08:40:20.85Z</time></trkpt><trkpt lat="37.72906399283047" lon="15.202543484585307"><ele>23.75</ele><time>2026-04-19T08:40:21.85Z</time></trkpt><trkpt lat="37.72904235742843" lon="15.202691564064768"><ele>23.0</ele><time>2026-04-19T08:40:22.85Z</time></trkpt><trkpt lat="37.72910211088092" lon="15.202821156626436"><ele>23.0</ele><time>2026-04-19T08:40:23.85Z</time></trkpt><trkpt lat="37.72910270145556" lon="15.202937682113976"><ele>23.0</ele><time>2026-04-19T08:40:24.85Z</time></trkpt><trkpt lat="37.729092015912876" lon="15.203066677658985"><ele>23.0</ele><time>2026-04-19T08:40:25.85Z</time></trkpt><trkpt lat="37.729095254114185" lon="15.203203087825727"><ele>23.0</ele><time>2026-04-19T08:40:26.85Z</time></trkpt><trkpt lat="37.72907902564713" lon="15.203348845065488"><ele>23.0</ele><time>2026-04-19T08:40:27.85Z</time></trkpt><trkpt lat="37.729088811843944" lon="15.20347269492328"><ele>22.5</ele><time>2026-04-19T08:40:28.85Z</time></trkpt><trkpt lat="37.729100399111175" lon="15.203580169138169"><ele>22.0</ele><time>2026-04-19T08:40:29.85Z</time></trkpt><trkpt lat="37.72911249500611" lon="15.203679677200217"><ele>21.5</ele><time>2026-04-19T08:40:30.85Z</time></trkpt><trkpt lat="37.729126928211" lon="15.203793617721237"><ele>21.0</ele><time>2026-04-19T08:40:31.849Z</time></trkpt><trkpt lat="37.729142273034476" lon="15.203914759927502"><ele>20.5</ele><time>2026-04-19T08:40:32.849Z</time></trkpt><trkpt lat="37.72917350767062" lon="15.204022991095119"><ele>20.0</ele><time>2026-04-19T08:40:33.849Z</time></trkpt><trkpt lat="37.729190726450106" lon="15.204118561925386"><ele>19.666666666666668</ele><time>2026-04-19T08:40:34.849Z</time></trkpt><trkpt lat="37.72918941606085" lon="15.20422173712183"><ele>19.333333333333336</ele><time>2026-04-19T08:40:35.849Z</time></trkpt><trkpt lat="37.72920563379229" lon="15.204323476745119"><ele>19.0</ele><time>2026-04-19T08:40:36.849Z</time></trkpt><trkpt lat="37.72922209774296" lon="15.204427517224518"><ele>18.666666666666668</ele><time>2026-04-19T08:40:37.849Z</time></trkpt><trkpt lat="37.72924193686413" lon="15.204551626379429"><ele>18.333333333333332</ele><time>2026-04-19T08:40:38.849Z</time></trkpt><trkpt lat="37.729262133784594" lon="15.204649377342452"><ele>18.0</ele><time>2026-04-19T08:40:39.849Z</time></trkpt><trkpt lat="37.72927804793951" lon="15.204735358390451"><ele>17.2</ele><time>2026-04-19T08:40:40.849Z</time></trkpt><trkpt lat="37.7293035446918" lon="15.204868520202801"><ele>16.4</ele><time>2026-04-19T08:40:42.849Z</time></trkpt><trkpt lat="37.729337968908524" lon="15.205036660564124"><ele>15.599999999999998</ele><time>2026-04-19T08:40:44.849Z</time></trkpt><trkpt lat="37.729361393063336" lon="15.205148708370658"><ele>14.799999999999999</ele><time>2026-04-19T08:40:45.849Z</time></trkpt><trkpt lat="37.729387322047984" lon="15.205250177862675"><ele>14.0</ele><time>2026-04-19T08:40:46.849Z</time></trkpt><trkpt lat="37.72940940537216" lon="15.205344003433485"><ele>13.799999999999999</ele><time>2026-04-19T08:40:53.849Z</time></trkpt><trkpt lat="37.72944897890242" lon="15.205511133541782"><ele>13.599999999999998</ele><time>2026-04-19T08:40:55.848Z</time></trkpt><trkpt lat="37.72947284594903" lon="15.205612460222522"><ele>13.4</ele><time>2026-04-19T08:40:56.848Z</time></trkpt><trkpt lat="37.72950005099328" lon="15.205731946436702"><ele>13.2</ele><time>2026-04-19T08:40:57.848Z</time></trkpt><trkpt lat="37.729531206441365" lon="15.20586878815128"><ele>13.0</ele><time>2026-04-19T08:40:58.848Z</time></trkpt><trkpt lat="37.7295553432204" lon="15.206008348791263"><ele>13.0</ele><time>2026-04-19T08:40:59.848Z</time></trkpt><trkpt lat="37.72959364467083" lon="15.20615361487308"><ele>13.0</ele><time>2026-04-19T08:41:00.848Z</time></trkpt><trkpt lat="37.72960001192602" lon="15.206315134332403"><ele>13.0</ele><time>2026-04-19T08:41:01.848Z</time></trkpt><trkpt lat="37.72961691486638" lon="15.206446868088504"><ele>13.0</ele><time>2026-04-19T08:41:02.848Z</time></trkpt><trkpt lat="37.7296328409343" lon="15.206569495803032"><ele>12.333333333333332</ele><time>2026-04-19T08:41:03.848Z</time></trkpt><trkpt lat="37.72964724501526" lon="15.206680418894"><ele>11.666666666666666</ele><time>2026-04-19T08:41:04.848Z</time></trkpt><trkpt lat="37.72968649076781" lon="15.206773490344744"><ele>11.0</ele><time>2026-04-19T08:41:05.848Z</time></trkpt><trkpt lat="37.72971097302339" lon="15.206849777449845"><ele>10.333333333333332</ele><time>2026-04-19T08:41:06.848Z</time></trkpt><trkpt lat="37.729728248526904" lon="15.206985925448844"><ele>9.666666666666666</ele><time>2026-04-19T08:41:08.848Z</time></trkpt><trkpt lat="37.72975914529244" lon="15.207078511037194"><ele>9.0</ele><time>2026-04-19T08:41:10.848Z</time></trkpt><trkpt lat="37.72998619105089" lon="15.207001279412191"><ele>9.0</ele><time>2026-04-19T08:41:18.847Z</time></trkpt><trkpt lat="37.730056907324844" lon="15.206942340905483"><ele>9.0</ele><time>2026-04-19T08:41:19.847Z</time></trkpt><trkpt lat="37.73013418913635" lon="15.206874425217075"><ele>9.0</ele><time>2026-04-19T08:41:20.847Z</time></trkpt><trkpt lat="37.7302053488835" lon="15.20679727598489"><ele>9.0</ele><time>2026-04-19T08:41:21.999Z</time></trkpt><trkpt lat="37.73026668926729" lon="15.20671288378965"><ele>9.0</ele><time>2026-04-19T08:41:22.999Z</time></trkpt><trkpt lat="37.73033346753274" lon="15.206639819403597"><ele>9.0</ele><time>2026-04-19T08:41:23.999Z</time></trkpt><trkpt lat="37.73040452970218" lon="15.20657654238171"><ele>9.0</ele><time>2026-04-19T08:41:24.999Z</time></trkpt><trkpt lat="37.73048240862366" lon="15.206516250100577"><ele>9.0</ele><time>2026-04-19T08:41:25.999Z</time></trkpt><trkpt lat="37.7305652026022" lon="15.206454598670344"><ele>9.0</ele><time>2026-04-19T08:41:26.999Z</time></trkpt><trkpt lat="37.730646046244516" lon="15.206384069445056"><ele>9.0</ele><time>2026-04-19T08:41:27.999Z</time></trkpt><trkpt lat="37.73072361309315" lon="15.206320144538537"><ele>9.0</ele><time>2026-04-19T08:41:28.999Z</time></trkpt><trkpt lat="37.730794037141074" lon="15.206256991862096"><ele>9.0</ele><time>2026-04-19T08:41:29.999Z</time></trkpt><trkpt lat="37.73086085294154" lon="15.206199285759233"><ele>9.0</ele><time>2026-04-19T08:41:30.999Z</time></trkpt><trkpt lat="37.73092114883138" lon="15.206146265612416"><ele>9.0</ele><time>2026-04-19T08:41:31.999Z</time></trkpt><trkpt lat="37.73099676085238" lon="15.206059003576925"><ele>9.0</ele><time>2026-04-19T08:41:33.999Z</time></trkpt><trkpt lat="37.73106762270319" lon="15.206025408463647"><ele>9.0</ele><time>2026-04-19T08:41:35.999Z</time></trkpt><trkpt lat="37.73116769039129" lon="15.205956307479521"><ele>9.0</ele><time>2026-04-19T08:41:37.999Z</time></trkpt><trkpt lat="37.73122937694733" lon="15.20591734397215"><ele>9.0</ele><time>2026-04-19T08:41:38.999Z</time></trkpt><trkpt lat="37.731265482979985" lon="15.20581363616751"><ele>9.0</ele><time>2026-04-19T08:41:39.999Z</time></trkpt><trkpt lat="37.731335619221824" lon="15.205772479270605"><ele>9.0</ele><time>2026-04-19T08:41:40.999Z</time></trkpt><trkpt lat="37.73144503017827" lon="15.205702307324078"><ele>9.0</ele><time>2026-04-19T08:41:42.999Z</time></trkpt><trkpt lat="37.731530322365" lon="15.205652000477683"><ele>9.0</ele><time>2026-04-19T08:41:44.999Z</time></trkpt><trkpt lat="37.731614122341796" lon="15.20563142883002"><ele>9.0</ele><time>2026-04-19T08:41:46.999Z</time></trkpt><trkpt lat="37.731687423216734" lon="15.205621961383192"><ele>9.0</ele><time>2026-04-19T08:41:55.999Z</time></trkpt><trkpt lat="37.73179912905191" lon="15.20559311680455"><ele>9.0</ele><time>2026-04-19T08:41:58.999Z</time></trkpt><trkpt lat="37.7318816152789" lon="15.205562619185361"><ele>9.0</ele><time>2026-04-19T08:42:00.999Z</time></trkpt><trkpt lat="37.731956714320994" lon="15.20553883697565"><ele>9.0</ele><time>2026-04-19T08:42:02.999Z</time></trkpt><trkpt lat="37.73202790025594" lon="15.205516291013279"><ele>8.833333333333334</ele><time>2026-04-19T08:42:04.999Z</time></trkpt><trkpt lat="37.73209998141687" lon="15.205507250261425"><ele>8.666666666666666</ele><time>2026-04-19T08:42:06.999Z</time></trkpt><trkpt lat="37.73217660132631" lon="15.20547681277439"><ele>8.5</ele><time>2026-04-19T08:42:09.999Z</time></trkpt><trkpt lat="37.732241750534065" lon="15.205450932072129"><ele>8.333333333333332</ele><time>2026-04-19T08:42:11.999Z</time></trkpt><trkpt lat="37.73232895004675" lon="15.205416291818098"><ele>8.166666666666666</ele><time>2026-04-19T08:42:13.999Z</time></trkpt><trkpt lat="37.732408476452626" lon="15.205389553011809"><ele>8.0</ele><time>2026-04-19T08:42:15.999Z</time></trkpt><trkpt lat="37.73249975202988" lon="15.205353788419101"><ele>8.0</ele><time>2026-04-19T08:42:17.999Z</time></trkpt><trkpt lat="37.73256964159869" lon="15.205321350576966"><ele>7.999999999999999</ele><time>2026-04-19T08:42:19.999Z</time></trkpt><trkpt lat="37.73263893552131" lon="15.205295586860938"><ele>8.0</ele><time>2026-04-19T08:42:21.999Z</time></trkpt><trkpt lat="37.732698295709454" lon="15.20525115012648"><ele>8.0</ele><time>2026-04-19T08:42:23.999Z</time></trkpt><trkpt lat="37.73277500548271" lon="15.205224007774722"><ele>7.999999999999999</ele><time>2026-04-19T08:42:25.999Z</time></trkpt><trkpt lat="37.73284564709856" lon="15.205210930852843"><ele>8.0</ele><time>2026-04-19T08:42:27.999Z</time></trkpt><trkpt lat="37.73291767360364" lon="15.205182535223466"><ele>8.0</ele><time>2026-04-19T08:42:29.999Z</time></trkpt><trkpt lat="37.73299432536168" lon="15.205162525813183"><ele>8.0</ele><time>2026-04-19T08:42:31.999Z</time></trkpt><trkpt lat="37.733072722790446" lon="15.205127903854464"><ele>8.0</ele><time>2026-04-19T08:42:33.999Z</time></trkpt><trkpt lat="37.73318105727789" lon="15.205105040301662"><ele>8.0</ele><time>2026-04-19T08:42:35.999Z</time></trkpt><trkpt lat="37.73329774011395" lon="15.205057292151597"><ele>8.0</ele><time>2026-04-19T08:42:37.999Z</time></trkpt><trkpt lat="37.73339827108458" lon="15.205011066531082"><ele>8.0</ele><time>2026-04-19T08:42:39.999Z</time></trkpt><trkpt lat="37.73349095818055" lon="15.204965996512968"><ele>7.75</ele><time>2026-04-19T08:42:41.999Z</time></trkpt><trkpt lat="37.73359030383722" lon="15.204927763187905"><ele>7.5</ele><time>2026-04-19T08:42:43.999Z</time></trkpt><trkpt lat="37.73370166885081" lon="15.20487627309831"><ele>7.25</ele><time>2026-04-19T08:42:45.999Z</time></trkpt><trkpt lat="37.73380694199137" lon="15.204826352819211"><ele>7.0</ele><time>2026-04-19T08:42:47.999Z</time></trkpt><trkpt lat="37.733922736960935" lon="15.204790261743316"><ele>7.3999999999999995</ele><time>2026-04-19T08:42:49.999Z</time></trkpt><trkpt lat="37.73401939233595" lon="15.204763197231157"><ele>7.799999999999999</ele><time>2026-04-19T08:42:51.999Z</time></trkpt><trkpt lat="37.73413445475713" lon="15.204717556546337"><ele>8.2</ele><time>2026-04-19T08:42:53.999Z</time></trkpt><trkpt lat="37.73421408544731" lon="15.20468617153872"><ele>8.6</ele><time>2026-04-19T08:42:54.999Z</time></trkpt><trkpt lat="37.73429332891019" lon="15.204654922439218"><ele>9.0</ele><time>2026-04-19T08:42:55.999Z</time></trkpt><trkpt lat="37.73436759066434" lon="15.204625549249135"><ele>8.8</ele><time>2026-04-19T08:42:56.999Z</time></trkpt><trkpt lat="37.734442403427664" lon="15.204595935264473"><ele>8.600000000000001</ele><time>2026-04-19T08:42:57.999Z</time></trkpt><trkpt lat="37.73454421675639" lon="15.20455563349299"><ele>8.4</ele><time>2026-04-19T08:42:58.999Z</time></trkpt><trkpt lat="37.73464433732654" lon="15.204518027881525"><ele>8.200000000000001</ele><time>2026-04-19T08:42:59.999Z</time></trkpt><trkpt lat="37.73474047083089" lon="15.204488042702893"><ele>8.0</ele><time>2026-04-19T08:43:00.999Z</time></trkpt><trkpt lat="37.73485021606317" lon="15.204459871151883"><ele>8.0</ele><time>2026-04-19T08:43:01.999Z</time></trkpt><trkpt lat="37.73496884651273" lon="15.204433230785842"><ele>8.0</ele><time>2026-04-19T08:43:02.999Z</time></trkpt><trkpt lat="37.735092377575526" lon="15.204411556639776"><ele>8.0</ele><time>2026-04-19T08:43:03.999Z</time></trkpt><trkpt lat="37.73521728079662" lon="15.204384043954114"><ele>8.0</ele><time>2026-04-19T08:43:04.999Z</time></trkpt><trkpt lat="37.73533859580613" lon="15.20437319670741"><ele>8.200000000000001</ele><time>2026-04-19T08:43:05.999Z</time></trkpt><trkpt lat="37.735454590544215" lon="15.204360454606729"><ele>8.4</ele><time>2026-04-19T08:43:06.999Z</time></trkpt><trkpt lat="37.73555755730646" lon="15.204348183743717"><ele>8.600000000000001</ele><time>2026-04-19T08:43:07.999Z</time></trkpt><trkpt lat="37.73565749018509" lon="15.204332590848491"><ele>8.8</ele><time>2026-04-19T08:43:08.999Z</time></trkpt><trkpt lat="37.735752530298846" lon="15.204328100648352"><ele>9.0</ele><time>2026-04-19T08:43:09.999Z</time></trkpt><trkpt lat="37.735839275662734" lon="15.204318230538014"><ele>9.0</ele><time>2026-04-19T08:43:10.999Z</time></trkpt><trkpt lat="37.735936384446" lon="15.204353486535803"><ele>9.0</ele><time>2026-04-19T08:43:11.998Z</time></trkpt><trkpt lat="37.73602700482718" lon="15.204351883234237"><ele>9.0</ele><time>2026-04-19T08:43:12.998Z</time></trkpt><trkpt lat="37.73612678771409" lon="15.204339486560336"><ele>9.0</ele><time>2026-04-19T08:43:13.998Z</time></trkpt><trkpt lat="37.73622505686646" lon="15.204334839155988"><ele>9.0</ele><time>2026-04-19T08:43:14.998Z</time></trkpt><trkpt lat="37.73631734028879" lon="15.204328926214163"><ele>8.666666666666666</ele><time>2026-04-19T08:43:15.998Z</time></trkpt><trkpt lat="37.736412011602766" lon="15.204319350727472"><ele>8.333333333333334</ele><time>2026-04-19T08:43:16.998Z</time></trkpt><trkpt lat="37.7365060048575" lon="15.204305038412231"><ele>8.0</ele><time>2026-04-19T08:43:17.998Z</time></trkpt><trkpt lat="37.73658437218596" lon="15.204281487199928"><ele>7.666666666666667</ele><time>2026-04-19T08:43:18.998Z</time></trkpt><trkpt lat="37.736660770591534" lon="15.204260387931738"><ele>7.333333333333334</ele><time>2026-04-19T08:43:19.998Z</time></trkpt><trkpt lat="37.736728896250405" lon="15.204231165813166"><ele>7.0</ele><time>2026-04-19T08:43:20.998Z</time></trkpt><trkpt lat="37.73681150510383" lon="15.20420332510279"><ele>6.833333333333334</ele><time>2026-04-19T08:43:21.998Z</time></trkpt><trkpt lat="37.73689617392471" lon="15.20418423202217"><ele>6.666666666666667</ele><time>2026-04-19T08:43:22.998Z</time></trkpt><trkpt lat="37.73698065148402" lon="15.204165294648334"><ele>6.5</ele><time>2026-04-19T08:43:23.998Z</time></trkpt><trkpt lat="37.73705867916991" lon="15.204151781838355"><ele>6.333333333333334</ele><time>2026-04-19T08:43:24.998Z</time></trkpt><trkpt lat="37.73712223676762" lon="15.204144195029684"><ele>6.166666666666667</ele><time>2026-04-19T08:43:25.998Z</time></trkpt><trkpt lat="37.73720107592731" lon="15.204155181488808"><ele>6.0</ele><time>2026-04-19T08:43:27.999Z</time></trkpt><trkpt lat="37.7372697958152" lon="15.204148689596126"><ele>6.0</ele><time>2026-04-19T08:43:29.999Z</time></trkpt><trkpt lat="37.7373578108769" lon="15.204146623401767"><ele>6.0</ele><time>2026-04-19T08:43:31.999Z</time></trkpt><trkpt lat="37.73746457324469" lon="15.204145130609092"><ele>6.0</ele><time>2026-04-19T08:43:33.999Z</time></trkpt><trkpt lat="37.737545721901874" lon="15.20414399595437"><ele>6.0</ele><time>2026-04-19T08:43:34.999Z</time></trkpt><trkpt lat="37.737646021982336" lon="15.20414408724875"><ele>6.0</ele><time>2026-04-19T08:43:35.999Z</time></trkpt><trkpt lat="37.73774105763032" lon="15.204144087250286"><ele>6.4</ele><time>2026-04-19T08:43:36.999Z</time></trkpt><trkpt lat="37.737827737439154" lon="15.204144087249407"><ele>6.8</ele><time>2026-04-19T08:43:37.999Z</time></trkpt><trkpt lat="37.737917237641184" lon="15.204144060946549"><ele>7.200000000000001</ele><time>2026-04-19T08:43:38.999Z</time></trkpt><trkpt lat="37.73801182207369" lon="15.204143386821283"><ele>7.6000000000000005</ele><time>2026-04-19T08:43:39.999Z</time></trkpt><trkpt lat="37.73811266607322" lon="15.204142668092317"><ele>8.0</ele><time>2026-04-19T08:43:40.999Z</time></trkpt><trkpt lat="37.73820074928626" lon="15.204121923299319"><ele>8.0</ele><time>2026-04-19T08:43:41.999Z</time></trkpt><trkpt lat="37.73829364242344" lon="15.204121338715701"><ele>7.999999999999999</ele><time>2026-04-19T08:43:42.999Z</time></trkpt><trkpt lat="37.73836492967296" lon="15.204135912019668"><ele>8.0</ele><time>2026-04-19T08:43:43.999Z</time></trkpt><trkpt lat="37.73843285534609" lon="15.20413354468052"><ele>8.0</ele><time>2026-04-19T08:43:44.999Z</time></trkpt><trkpt lat="37.73849909628221" lon="15.204130713513585"><ele>7.999999999999999</ele><time>2026-04-19T08:43:45.999Z</time></trkpt><trkpt lat="37.738567636587966" lon="15.204127728648972"><ele>8.0</ele><time>2026-04-19T08:43:46.999Z</time></trkpt><trkpt lat="37.738642830641965" lon="15.204103672859276"><ele>8.0</ele><time>2026-04-19T08:43:47.999Z</time></trkpt><trkpt lat="37.73873174168166" lon="15.20413440916981"><ele>8.0</ele><time>2026-04-19T08:43:48.999Z</time></trkpt><trkpt lat="37.73881358615992" lon="15.204130854480939"><ele>8.0</ele><time>2026-04-19T08:43:49.999Z</time></trkpt><trkpt lat="37.73890617456011" lon="15.204120616061969"><ele>8.0</ele><time>2026-04-19T08:43:50.999Z</time></trkpt><trkpt lat="37.73901841026461" lon="15.204118533908204"><ele>8.0</ele><time>2026-04-19T08:43:51.999Z</time></trkpt><trkpt lat="37.73914424216654" lon="15.204112897181028"><ele>8.0</ele><time>2026-04-19T08:43:52.999Z</time></trkpt><trkpt lat="37.73927337710659" lon="15.204090700269456"><ele>7.6000000000000005</ele><time>2026-04-19T08:43:53.999Z</time></trkpt><trkpt lat="37.73940152118909" lon="15.2040895966419"><ele>7.200000000000001</ele><time>2026-04-19T08:43:54.999Z</time></trkpt><trkpt lat="37.73950085830729" lon="15.204083730385463"><ele>6.8</ele><time>2026-04-19T08:43:55.999Z</time></trkpt><trkpt lat="37.73959613612775" lon="15.204077769200751"><ele>6.4</ele><time>2026-04-19T08:43:56.999Z</time></trkpt><trkpt lat="37.73970324096342" lon="15.204073920120209"><ele>6.0</ele><time>2026-04-19T08:43:57.999Z</time></trkpt><trkpt lat="37.73983037456534" lon="15.204114064179889"><ele>6.0</ele><time>2026-04-19T08:43:58.999Z</time></trkpt><trkpt lat="37.739928870706" lon="15.20411619123437"><ele>6.0</ele><time>2026-04-19T08:43:59.999Z</time></trkpt><trkpt lat="37.74002662934985" lon="15.204107961032378"><ele>6.0</ele><time>2026-04-19T08:44:00.999Z</time></trkpt><trkpt lat="37.74013047205773" lon="15.20410298125311"><ele>6.0</ele><time>2026-04-19T08:44:01.999Z</time></trkpt><trkpt lat="37.74022808828373" lon="15.20408999168564"><ele>6.0</ele><time>2026-04-19T08:44:02.999Z</time></trkpt><trkpt lat="37.740316215812626" lon="15.204088052760723"><ele>6.285714285714285</ele><time>2026-04-19T08:44:03.999Z</time></trkpt><trkpt lat="37.740394721958644" lon="15.204080196110896"><ele>6.571428571428571</ele><time>2026-04-19T08:44:04.999Z</time></trkpt><trkpt lat="37.7404611174949" lon="15.204070517723693"><ele>6.857142857142857</ele><time>2026-04-19T08:44:05.999Z</time></trkpt><trkpt lat="37.7405343162258" lon="15.204073985504168"><ele>7.142857142857142</ele><time>2026-04-19T08:44:06.999Z</time></trkpt><trkpt lat="37.740610285056285" lon="15.20407429778785"><ele>7.428571428571428</ele><time>2026-04-19T08:44:07.999Z</time></trkpt><trkpt lat="37.74068178743909" lon="15.204077795326393"><ele>7.7142857142857135</ele><time>2026-04-19T08:44:08.999Z</time></trkpt><trkpt lat="37.74075268717592" lon="15.204090088095901"><ele>8.0</ele><time>2026-04-19T08:44:09.999Z</time></trkpt><trkpt lat="37.74082723057436" lon="15.204100631438306"><ele>7.999999999999999</ele><time>2026-04-19T08:44:10.999Z</time></trkpt><trkpt lat="37.74090583488339" lon="15.204117627680128"><ele>8.0</ele><time>2026-04-19T08:44:11.999Z</time></trkpt><trkpt lat="37.740988663183366" lon="15.204140981581673"><ele>8.0</ele><time>2026-04-19T08:44:12.999Z</time></trkpt><trkpt lat="37.74107017411862" lon="15.204152057631815"><ele>8.0</ele><time>2026-04-19T08:44:13.999Z</time></trkpt><trkpt lat="37.74114854702335" lon="15.204168828594304"><ele>7.999999999999999</ele><time>2026-04-19T08:44:14.999Z</time></trkpt><trkpt lat="37.74123903486806" lon="15.204186161541596"><ele>8.0</ele><time>2026-04-19T08:44:15.999Z</time></trkpt><trkpt lat="37.741328488770804" lon="15.204210113418178"><ele>8.4</ele><time>2026-04-19T08:44:16.999Z</time></trkpt><trkpt lat="37.7414197395067" lon="15.204232932505938"><ele>8.8</ele><time>2026-04-19T08:44:17.999Z</time></trkpt><trkpt lat="37.74151421884799" lon="15.204262633514809"><ele>9.2</ele><time>2026-04-19T08:44:18.999Z</time></trkpt><trkpt lat="37.74161609968852" lon="15.204282584834946"><ele>9.6</ele><time>2026-04-19T08:44:19.999Z</time></trkpt><trkpt lat="37.741712216428894" lon="15.204308194549467"><ele>10.0</ele><time>2026-04-19T08:44:20.999Z</time></trkpt><trkpt lat="37.741799378044306" lon="15.204329410882782"><ele>10.0</ele><time>2026-04-19T08:44:21.999Z</time></trkpt><trkpt lat="37.74187608315293" lon="15.20434388538329"><ele>10.0</ele><time>2026-04-19T08:44:22.999Z</time></trkpt><trkpt lat="37.741945110381565" lon="15.204359276797337"><ele>10.0</ele><time>2026-04-19T08:44:23.999Z</time></trkpt><trkpt lat="37.742003503646" lon="15.204424015619594"><ele>10.0</ele><time>2026-04-19T08:44:24.999Z</time></trkpt><trkpt lat="37.74207580521003" lon="15.204443683605563"><ele>10.0</ele><time>2026-04-19T08:44:25.999Z</time></trkpt><trkpt lat="37.74214892530698" lon="15.204454936912791"><ele>10.0</ele><time>2026-04-19T08:44:26.999Z</time></trkpt><trkpt lat="37.74222631980413" lon="15.204468932300435"><ele>10.0</ele><time>2026-04-19T08:44:27.999Z</time></trkpt><trkpt lat="37.74229797360231" lon="15.20447430607087"><ele>10.0</ele><time>2026-04-19T08:44:28.999Z</time></trkpt><trkpt lat="37.74236486137036" lon="15.20448635873401"><ele>10.0</ele><time>2026-04-19T08:44:29.999Z</time></trkpt><trkpt lat="37.742483603079684" lon="15.204520689518622"><ele>10.0</ele><time>2026-04-19T08:44:31.999Z</time></trkpt><trkpt lat="37.74255146881246" lon="15.20454081629847"><ele>10.0</ele><time>2026-04-19T08:44:32.999Z</time></trkpt><trkpt lat="37.742626790037825" lon="15.204568478611305"><ele>10.0</ele><time>2026-04-19T08:44:33.999Z</time></trkpt><trkpt lat="37.742696393557466" lon="15.204594348137402"><ele>9.833333333333334</ele><time>2026-04-19T08:44:34.999Z</time></trkpt><trkpt lat="37.74276285323712" lon="15.204614011615833"><ele>9.666666666666668</ele><time>2026-04-19T08:44:35.999Z</time></trkpt><trkpt lat="37.74282427286709" lon="15.204636529846622"><ele>9.5</ele><time>2026-04-19T08:44:36.999Z</time></trkpt><trkpt lat="37.74293961121607" lon="15.204685045090953"><ele>9.333333333333334</ele><time>2026-04-19T08:44:38.999Z</time></trkpt><trkpt lat="37.74300433345415" lon="15.204714120052081"><ele>9.166666666666666</ele><time>2026-04-19T08:44:39.999Z</time></trkpt><trkpt lat="37.74307403382118" lon="15.204745560218976"><ele>9.0</ele><time>2026-04-19T08:44:40.999Z</time></trkpt><trkpt lat="37.74314897033642" lon="15.20477267033933"><ele>9.0</ele><time>2026-04-19T08:44:41.999Z</time></trkpt><trkpt lat="37.743217734615094" lon="15.204794215763538"><ele>9.0</ele><time>2026-04-19T08:44:42.999Z</time></trkpt><trkpt lat="37.743289591497096" lon="15.204826949687147"><ele>9.0</ele><time>2026-04-19T08:44:43.999Z</time></trkpt><trkpt lat="37.74336115321324" lon="15.204862440523389"><ele>9.0</ele><time>2026-04-19T08:44:44.999Z</time></trkpt><trkpt lat="37.74344271282605" lon="15.2048947444376"><ele>9.0</ele><time>2026-04-19T08:44:45.999Z</time></trkpt><trkpt lat="37.743540992857895" lon="15.20493565846243"><ele>9.0</ele><time>2026-04-19T08:44:46.999Z</time></trkpt><trkpt lat="37.743642923552116" lon="15.204995926405617"><ele>9.2</ele><time>2026-04-19T08:44:47.999Z</time></trkpt><trkpt lat="37.743743973978575" lon="15.205049221332018"><ele>9.4</ele><time>2026-04-19T08:44:48.999Z</time></trkpt><trkpt lat="37.74384167473525" lon="15.205096491807778"><ele>9.6</ele><time>2026-04-19T08:44:49.999Z</time></trkpt><trkpt lat="37.74393575043139" lon="15.20512895367054"><ele>9.8</ele><time>2026-04-19T08:44:50.999Z</time></trkpt><trkpt lat="37.744025853119695" lon="15.20518228659395"><ele>10.0</ele><time>2026-04-19T08:44:51.999Z</time></trkpt><trkpt lat="37.74413204827209" lon="15.205231775943991"><ele>10.0</ele><time>2026-04-19T08:44:52.999Z</time></trkpt><trkpt lat="37.74424360808726" lon="15.205306931419805"><ele>10.0</ele><time>2026-04-19T08:44:53.999Z</time></trkpt><trkpt lat="37.744366195950576" lon="15.20536991602139"><ele>10.0</ele><time>2026-04-19T08:44:54.999Z</time></trkpt><trkpt lat="37.744482178138846" lon="15.205423936198397"><ele>10.0</ele><time>2026-04-19T08:44:55.999Z</time></trkpt><trkpt lat="37.744591139136375" lon="15.205481021210723"><ele>10.0</ele><time>2026-04-19T08:44:56.999Z</time></trkpt><trkpt lat="37.744685574506505" lon="15.205534957003248"><ele>10.0</ele><time>2026-04-19T08:44:57.999Z</time></trkpt><trkpt lat="37.74476750272731" lon="15.205583301374027"><ele>10.0</ele><time>2026-04-19T08:44:58.999Z</time></trkpt><trkpt lat="37.74485502599217" lon="15.205617850229597"><ele>10.0</ele><time>2026-04-19T08:44:59.999Z</time></trkpt><trkpt lat="37.74495190836905" lon="15.205653081196369"><ele>10.0</ele><time>2026-04-19T08:45:00.999Z</time></trkpt><trkpt lat="37.74505481648968" lon="15.205701937782136"><ele>10.0</ele><time>2026-04-19T08:45:01.999Z</time></trkpt><trkpt lat="37.7451667999146" lon="15.205758896422534"><ele>10.0</ele><time>2026-04-19T08:45:02.999Z</time></trkpt><trkpt lat="37.74527562876708" lon="15.205815352372113"><ele>10.0</ele><time>2026-04-19T08:45:03.999Z</time></trkpt><trkpt lat="37.74538773923076" lon="15.205877236630538"><ele>10.0</ele><time>2026-04-19T08:45:04.999Z</time></trkpt><trkpt lat="37.74550123299513" lon="15.205942554099284"><ele>9.8</ele><time>2026-04-19T08:45:05.999Z</time></trkpt><trkpt lat="37.74560728295941" lon="15.205995008705097"><ele>9.6</ele><time>2026-04-19T08:45:06.999Z</time></trkpt><trkpt lat="37.74570500788149" lon="15.2060402741366"><ele>9.4</ele><time>2026-04-19T08:45:07.999Z</time></trkpt><trkpt lat="37.745787970764994" lon="15.206075890403742"><ele>9.2</ele><time>2026-04-19T08:45:08.999Z</time></trkpt><trkpt lat="37.745867078230894" lon="15.206107409293562"><ele>9.0</ele><time>2026-04-19T08:45:09.999Z</time></trkpt><trkpt lat="37.7459332069543" lon="15.206136067940687"><ele>9.000000000000002</ele><time>2026-04-19T08:45:10.999Z</time></trkpt><trkpt lat="37.74600018301303" lon="15.206177236945459"><ele>9.0</ele><time>2026-04-19T08:45:11.999Z</time></trkpt><trkpt lat="37.74607479895386" lon="15.206216119697062"><ele>9.0</ele><time>2026-04-19T08:45:12.999Z</time></trkpt><trkpt lat="37.74614547763217" lon="15.20625127890513"><ele>9.0</ele><time>2026-04-19T08:45:13.999Z</time></trkpt><trkpt lat="37.74621375814755" lon="15.206287395084042"><ele>9.0</ele><time>2026-04-19T08:45:14.999Z</time></trkpt><trkpt lat="37.7462804604554" lon="15.206321371803503"><ele>9.000000000000002</ele><time>2026-04-19T08:45:15.999Z</time></trkpt><trkpt lat="37.74634036197674" lon="15.206351888968818"><ele>9.0</ele><time>2026-04-19T08:45:16.998Z</time></trkpt><trkpt lat="37.74640557014452" lon="15.206385082552593"><ele>9.0</ele><time>2026-04-19T08:45:17.998Z</time></trkpt><trkpt lat="37.746481933235906" lon="15.206422322176138"><ele>9.0</ele><time>2026-04-19T08:45:18.998Z</time></trkpt><trkpt lat="37.74654977937945" lon="15.206455890486577"><ele>9.0</ele><time>2026-04-19T08:45:19.998Z</time></trkpt><trkpt lat="37.74662062760797" lon="15.206487791646015"><ele>9.0</ele><time>2026-04-19T08:45:20.998Z</time></trkpt><trkpt lat="37.7467108105806" lon="15.20653562582386"><ele>9.0</ele><time>2026-04-19T08:45:21.998Z</time></trkpt><trkpt lat="37.74681911329972" lon="15.206605039297346"><ele>9.0</ele><time>2026-04-19T08:45:22.998Z</time></trkpt><trkpt lat="37.746940921443745" lon="15.206670502176973"><ele>9.0</ele><time>2026-04-19T08:45:23.998Z</time></trkpt><trkpt lat="37.74707527561172" lon="15.206739071261731"><ele>9.0</ele><time>2026-04-19T08:45:24.998Z</time></trkpt><trkpt lat="37.747200687179244" lon="15.20680013825899"><ele>9.0</ele><time>2026-04-19T08:45:25.998Z</time></trkpt><trkpt lat="37.747325404818014" lon="15.206866042386313"><ele>9.0</ele><time>2026-04-19T08:45:26.998Z</time></trkpt><trkpt lat="37.74745395783013" lon="15.206935906579494"><ele>9.0</ele><time>2026-04-19T08:45:27.998Z</time></trkpt><trkpt lat="37.747576802863" lon="15.207001797830445"><ele>9.0</ele><time>2026-04-19T08:45:28.998Z</time></trkpt><trkpt lat="37.74769617190165" lon="15.207059013427855"><ele>9.0</ele><time>2026-04-19T08:45:29.998Z</time></trkpt><trkpt lat="37.74781539240986" lon="15.207116540749151"><ele>9.0</ele><time>2026-04-19T08:45:30.998Z</time></trkpt><trkpt lat="37.7479418634652" lon="15.207181598154937"><ele>8.75</ele><time>2026-04-19T08:45:31.998Z</time></trkpt><trkpt lat="37.748065990762676" lon="15.207251265399394"><ele>8.5</ele><time>2026-04-19T08:45:32.998Z</time></trkpt><trkpt lat="37.74820033060731" lon="15.207329644054997"><ele>8.25</ele><time>2026-04-19T08:45:33.999Z</time></trkpt><trkpt lat="37.74833760742548" lon="15.207402615753786"><ele>8.0</ele><time>2026-04-19T08:45:34.999Z</time></trkpt><trkpt lat="37.748472422244575" lon="15.207463497776802"><ele>8.666666666666666</ele><time>2026-04-19T08:45:35.999Z</time></trkpt><trkpt lat="37.748616682803124" lon="15.20752686977258"><ele>9.333333333333334</ele><time>2026-04-19T08:45:36.999Z</time></trkpt><trkpt lat="37.74875668159666" lon="15.20759359029047"><ele>10.0</ele><time>2026-04-19T08:45:37.999Z</time></trkpt><trkpt lat="37.7488970677695" lon="15.207659749799632"><ele>10.0</ele><time>2026-04-19T08:45:38.999Z</time></trkpt><trkpt lat="37.74903410553578" lon="15.207730338256436"><ele>10.0</ele><time>2026-04-19T08:45:39.999Z</time></trkpt><trkpt lat="37.74916217195221" lon="15.207795065417084"><ele>10.0</ele><time>2026-04-19T08:45:40.999Z</time></trkpt><trkpt lat="37.749289750048476" lon="15.207861200977957"><ele>10.0</ele><time>2026-04-19T08:45:41.999Z</time></trkpt><trkpt lat="37.74941736210045" lon="15.207922828597976"><ele>10.0</ele><time>2026-04-19T08:45:42.999Z</time></trkpt><trkpt lat="37.749536335928184" lon="15.207985713596253"><ele>10.0</ele><time>2026-04-19T08:45:43.999Z</time></trkpt><trkpt lat="37.74965562434126" lon="15.208047572903057"><ele>10.0</ele><time>2026-04-19T08:45:44.999Z</time></trkpt><trkpt lat="37.749772032417475" lon="15.208113107167542"><ele>10.0</ele><time>2026-04-19T08:45:45.999Z</time></trkpt><trkpt lat="37.74988623917481" lon="15.20817707763877"><ele>10.0</ele><time>2026-04-19T08:45:46.999Z</time></trkpt><trkpt lat="37.75000048995055" lon="15.20823446723776"><ele>10.0</ele><time>2026-04-19T08:45:47.999Z</time></trkpt><trkpt lat="37.750108655812845" lon="15.20829642197493"><ele>10.0</ele><time>2026-04-19T08:45:48.999Z</time></trkpt><trkpt lat="37.75022094636859" lon="15.20835366217846"><ele>10.0</ele><time>2026-04-19T08:45:49.999Z</time></trkpt><trkpt lat="37.75034748730332" lon="15.208412397785372"><ele>9.75</ele><time>2026-04-19T08:45:50.999Z</time></trkpt><trkpt lat="37.750478741849975" lon="15.208469166947312"><ele>9.5</ele><time>2026-04-19T08:45:51.999Z</time></trkpt><trkpt lat="37.750607532061025" lon="15.208514306725093"><ele>9.25</ele><time>2026-04-19T08:45:52.999Z</time></trkpt><trkpt lat="37.75072089481583" lon="15.20855411673421"><ele>9.0</ele><time>2026-04-19T08:45:53.999Z</time></trkpt><trkpt lat="37.750822965030856" lon="15.208589230898875"><ele>9.0</ele><time>2026-04-19T08:45:54.999Z</time></trkpt><trkpt lat="37.75091621701467" lon="15.208626718288532"><ele>9.0</ele><time>2026-04-19T08:45:55.999Z</time></trkpt><trkpt lat="37.75099515249726" lon="15.208663051510099"><ele>9.0</ele><time>2026-04-19T08:45:56.999Z</time></trkpt><trkpt lat="37.75106427472626" lon="15.208687519834616"><ele>9.0</ele><time>2026-04-19T08:45:57.999Z</time></trkpt><trkpt lat="37.751124288136474" lon="15.208713397046482"><ele>9.0</ele><time>2026-04-19T08:45:58.999Z</time></trkpt><trkpt lat="37.75124869373785" lon="15.208754679860899"><ele>9.0</ele><time>2026-04-19T08:46:00.999Z</time></trkpt><trkpt lat="37.7513147296423" lon="15.208779741070913"><ele>8.6</ele><time>2026-04-19T08:46:01.999Z</time></trkpt><trkpt lat="37.7513918236894" lon="15.208812075564806"><ele>8.2</ele><time>2026-04-19T08:46:02.999Z</time></trkpt><trkpt lat="37.75147216956211" lon="15.208847467775719"><ele>7.799999999999999</ele><time>2026-04-19T08:46:03.999Z</time></trkpt><trkpt lat="37.751558741769884" lon="15.208884036996489"><ele>7.3999999999999995</ele><time>2026-04-19T08:46:04.999Z</time></trkpt><trkpt lat="37.75165346402512" lon="15.208916523212478"><ele>7.0</ele><time>2026-04-19T08:46:05.999Z</time></trkpt><trkpt lat="37.7517486344099" lon="15.208956475790012"><ele>7.6</ele><time>2026-04-19T08:46:06.999Z</time></trkpt><trkpt lat="37.75184537472854" lon="15.208994229142979"><ele>8.2</ele><time>2026-04-19T08:46:07.999Z</time></trkpt><trkpt lat="37.75195348994547" lon="15.209038940751762"><ele>8.8</ele><time>2026-04-19T08:46:08.999Z</time></trkpt><trkpt lat="37.75205621639993" lon="15.209081363428117"><ele>9.4</ele><time>2026-04-19T08:46:09.999Z</time></trkpt><trkpt lat="37.75214608357895" lon="15.209118248523458"><ele>10.0</ele><time>2026-04-19T08:46:10.999Z</time></trkpt><trkpt lat="37.752229296618" lon="15.209155962772643"><ele>10.0</ele><time>2026-04-19T08:46:11.999Z</time></trkpt><trkpt lat="37.75230840685707" lon="15.209190659526815"><ele>10.0</ele><time>2026-04-19T08:46:12.999Z</time></trkpt><trkpt lat="37.75237938986286" lon="15.209233303705483"><ele>10.0</ele><time>2026-04-19T08:46:13.999Z</time></trkpt><trkpt lat="37.75245414371167" lon="15.209264835440937"><ele>10.0</ele><time>2026-04-19T08:46:14.999Z</time></trkpt><trkpt lat="37.75253204171722" lon="15.209296738661896"><ele>10.0</ele><time>2026-04-19T08:46:15.999Z</time></trkpt><trkpt lat="37.75261208162484" lon="15.209340125778814"><ele>10.0</ele><time>2026-04-19T08:46:16.999Z</time></trkpt><trkpt lat="37.752697774574955" lon="15.209391428877094"><ele>9.6</ele><time>2026-04-19T08:46:17.999Z</time></trkpt><trkpt lat="37.7527860978267" lon="15.20945666992084"><ele>9.2</ele><time>2026-04-19T08:46:18.999Z</time></trkpt><trkpt lat="37.75287910726868" lon="15.209526756474649"><ele>8.8</ele><time>2026-04-19T08:46:19.999Z</time></trkpt><trkpt lat="37.7529692044046" lon="15.209604362444756"><ele>8.4</ele><time>2026-04-19T08:46:20.999Z</time></trkpt><trkpt lat="37.753060610174145" lon="15.20967831694471"><ele>8.0</ele><time>2026-04-19T08:46:21.999Z</time></trkpt><trkpt lat="37.75314986272228" lon="15.209758132978163"><ele>8.5</ele><time>2026-04-19T08:46:22.999Z</time></trkpt><trkpt lat="37.753238950920554" lon="15.209837739255681"><ele>9.0</ele><time>2026-04-19T08:46:23.999Z</time></trkpt><trkpt lat="37.75333005384258" lon="15.209925461074473"><ele>9.5</ele><time>2026-04-19T08:46:24.999Z</time></trkpt><trkpt lat="37.75343335130373" lon="15.210008538914236"><ele>10.0</ele><time>2026-04-19T08:46:25.999Z</time></trkpt><trkpt lat="37.75354912747788" lon="15.210081839996484"><ele>10.0</ele><time>2026-04-19T08:46:26.999Z</time></trkpt><trkpt lat="37.753654109277846" lon="15.210160964906333"><ele>10.0</ele><time>2026-04-19T08:46:27.999Z</time></trkpt><trkpt lat="37.75376361621981" lon="15.210245076406958"><ele>10.0</ele><time>2026-04-19T08:46:28.999Z</time></trkpt><trkpt lat="37.753812911204264" lon="15.2104265764917"><ele>10.0</ele><time>2026-04-19T08:46:29.999Z</time></trkpt><trkpt lat="37.75380497966105" lon="15.210510559351114"><ele>10.0</ele><time>2026-04-19T08:46:30.999Z</time></trkpt><trkpt lat="37.7538949094151" lon="15.210602613839521"><ele>10.0</ele><time>2026-04-19T08:46:32.999Z</time></trkpt><trkpt lat="37.75407169118298" lon="15.210483976956796"><ele>10.0</ele><time>2026-04-19T08:46:33.999Z</time></trkpt><trkpt lat="37.75418080142305" lon="15.210568589964005"><ele>10.0</ele><time>2026-04-19T08:46:34.999Z</time></trkpt><trkpt lat="37.75430366547203" lon="15.210662886972178"><ele>10.0</ele><time>2026-04-19T08:46:35.999Z</time></trkpt><trkpt lat="37.75443619150928" lon="15.210764956695732"><ele>10.0</ele><time>2026-04-19T08:46:36.999Z</time></trkpt><trkpt lat="37.75455469639977" lon="15.210856059318552"><ele>10.0</ele><time>2026-04-19T08:46:37.999Z</time></trkpt><trkpt lat="37.754662926390075" lon="15.210939262739206"><ele>10.0</ele><time>2026-04-19T08:46:38.999Z</time></trkpt><trkpt lat="37.75481013905546" lon="15.211062442956006"><ele>10.0</ele><time>2026-04-19T08:46:39.999Z</time></trkpt><trkpt lat="37.75495922500105" lon="15.211147775310016"><ele>10.0</ele><time>2026-04-19T08:46:40.999Z</time></trkpt><trkpt lat="37.75508111279896" lon="15.211250630724185"><ele>10.0</ele><time>2026-04-19T08:46:41.999Z</time></trkpt><trkpt lat="37.75519305705797" lon="15.211333110982563"><ele>10.0</ele><time>2026-04-19T08:46:42.999Z</time></trkpt><trkpt lat="37.75529912757625" lon="15.2114024541406"><ele>9.25</ele><time>2026-04-19T08:46:43.999Z</time></trkpt><trkpt lat="37.75540349651814" lon="15.211473784529533"><ele>8.5</ele><time>2026-04-19T08:46:44.999Z</time></trkpt><trkpt lat="37.75551080902863" lon="15.211553707071678"><ele>7.75</ele><time>2026-04-19T08:46:45.999Z</time></trkpt><trkpt lat="37.755624451959505" lon="15.211640132628501"><ele>7.0</ele><time>2026-04-19T08:46:46.999Z</time></trkpt><trkpt lat="37.75573857957915" lon="15.21171963824761"><ele>7.0</ele><time>2026-04-19T08:46:47.999Z</time></trkpt><trkpt lat="37.75585235824812" lon="15.2117956511077"><ele>7.0</ele><time>2026-04-19T08:46:48.999Z</time></trkpt><trkpt lat="37.75595862978206" lon="15.211872254281769"><ele>7.0</ele><time>2026-04-19T08:46:49.999Z</time></trkpt><trkpt lat="37.75605445946703" lon="15.211940086361217"><ele>7.0</ele><time>2026-04-19T08:46:50.999Z</time></trkpt><trkpt lat="37.75613901825398" lon="15.212006377339879"><ele>7.0</ele><time>2026-04-19T08:46:51.999Z</time></trkpt><trkpt lat="37.756215652558986" lon="15.212065996489956"><ele>6.999999999999999</ele><time>2026-04-19T08:46:52.999Z</time></trkpt><trkpt lat="37.75629780017134" lon="15.212127586227538"><ele>6.999999999999999</ele><time>2026-04-19T08:46:53.999Z</time></trkpt><trkpt lat="37.75638386238513" lon="15.212208968799429"><ele>7.0</ele><time>2026-04-19T08:46:54.999Z</time></trkpt><trkpt lat="37.75647765679163" lon="15.212280508731162"><ele>7.0</ele><time>2026-04-19T08:46:55.999Z</time></trkpt><trkpt lat="37.756570757709135" lon="15.212351254772752"><ele>7.199999999999999</ele><time>2026-04-19T08:46:56.999Z</time></trkpt><trkpt lat="37.75666625602973" lon="15.212415948451481"><ele>7.3999999999999995</ele><time>2026-04-19T08:46:57.999Z</time></trkpt><trkpt lat="37.75675184505358" lon="15.212484462193675"><ele>7.6000000000000005</ele><time>2026-04-19T08:46:58.999Z</time></trkpt><trkpt lat="37.756840134383395" lon="15.21255443255151"><ele>7.800000000000001</ele><time>2026-04-19T08:46:59.999Z</time></trkpt><trkpt lat="37.756939131076" lon="15.212622062904922"><ele>8.0</ele><time>2026-04-19T08:47:00.999Z</time></trkpt><trkpt lat="37.75703582015614" lon="15.212696923862397"><ele>8.0</ele><time>2026-04-19T08:47:01.999Z</time></trkpt><trkpt lat="37.75713070420693" lon="15.212769899627261"><ele>8.0</ele><time>2026-04-19T08:47:02.999Z</time></trkpt><trkpt lat="37.757228813737086" lon="15.212840338666727"><ele>8.0</ele><time>2026-04-19T08:47:03.999Z</time></trkpt><trkpt lat="37.757331356061854" lon="15.212920265483627"><ele>8.0</ele><time>2026-04-19T08:47:04.999Z</time></trkpt><trkpt lat="37.757425613173304" lon="15.212995810278448"><ele>8.0</ele><time>2026-04-19T08:47:05.999Z</time></trkpt><trkpt lat="37.75751070843315" lon="15.213061310983917"><ele>8.0</ele><time>2026-04-19T08:47:06.999Z</time></trkpt><trkpt lat="37.757577407275214" lon="15.213115379705423"><ele>8.0</ele><time>2026-04-19T08:47:07.999Z</time></trkpt><trkpt lat="37.75763504581667" lon="15.213155116018447"><ele>8.0</ele><time>2026-04-19T08:47:08.999Z</time></trkpt><trkpt lat="37.75773124554868" lon="15.213228554163008"><ele>8.0</ele><time>2026-04-19T08:47:10.999Z</time></trkpt><trkpt lat="37.75783554768234" lon="15.213307116811066"><ele>8.333333333333332</ele><time>2026-04-19T08:47:12.999Z</time></trkpt><trkpt lat="37.757906956543245" lon="15.21339544351045"><ele>8.666666666666666</ele><time>2026-04-19T08:47:14.999Z</time></trkpt><trkpt lat="37.757978287073996" lon="15.21344444372127"><ele>9.0</ele><time>2026-04-19T08:47:17.999Z</time></trkpt><trkpt lat="37.75804341195596" lon="15.213478372172906"><ele>9.333333333333334</ele><time>2026-04-19T08:47:25.999Z</time></trkpt><trkpt lat="37.75811228479315" lon="15.213556478807998"><ele>9.666666666666668</ele><time>2026-04-19T08:47:28.999Z</time></trkpt><trkpt lat="37.75816762638349" lon="15.21359582566725"><ele>10.0</ele><time>2026-04-19T08:47:30.999Z</time></trkpt><trkpt lat="37.75823510173921" lon="15.21363308970908"><ele>10.0</ele><time>2026-04-19T08:47:32.999Z</time></trkpt><trkpt lat="37.75831540407135" lon="15.213686864321252"><ele>10.0</ele><time>2026-04-19T08:47:35.999Z</time></trkpt><trkpt lat="37.75837880955606" lon="15.213733425583042"><ele>10.0</ele><time>2026-04-19T08:47:39.999Z</time></trkpt><trkpt lat="37.75842771802925" lon="15.213784229943702"><ele>10.0</ele><time>2026-04-19T08:47:42.999Z</time></trkpt><trkpt lat="37.75850400902272" lon="15.21380735697734"><ele>10.0</ele><time>2026-04-19T08:47:44.999Z</time></trkpt><trkpt lat="37.75859703519538" lon="15.21387219649236"><ele>10.0</ele><time>2026-04-19T08:47:46.999Z</time></trkpt><trkpt lat="37.75867697785563" lon="15.213938324539853"><ele>10.166666666666668</ele><time>2026-04-19T08:47:48.999Z</time></trkpt><trkpt lat="37.758741767720856" lon="15.214029175672199"><ele>10.333333333333334</ele><time>2026-04-19T08:47:50.999Z</time></trkpt><trkpt lat="37.75880786372049" lon="15.214078994694876"><ele>10.5</ele><time>2026-04-19T08:47:52.999Z</time></trkpt><trkpt lat="37.758867309185476" lon="15.214123443654712"><ele>10.666666666666666</ele><time>2026-04-19T08:47:54.999Z</time></trkpt><trkpt lat="37.7589261278849" lon="15.214165102161543"><ele>10.833333333333332</ele><time>2026-04-19T08:47:56.999Z</time></trkpt><trkpt lat="37.758984765248904" lon="15.214218989633517"><ele>11.0</ele><time>2026-04-19T08:47:58.999Z</time></trkpt><trkpt lat="37.7590593816205" lon="15.214274314829806"><ele>11.0</ele><time>2026-04-19T08:48:02.999Z</time></trkpt><trkpt lat="37.75912937407498" lon="15.214333084275369"><ele>11.0</ele><time>2026-04-19T08:48:04.999Z</time></trkpt><trkpt lat="37.759247294188015" lon="15.214413593918206"><ele>11.0</ele><time>2026-04-19T08:48:06.999Z</time></trkpt><trkpt lat="37.759315773004126" lon="15.214464704961745"><ele>11.0</ele><time>2026-04-19T08:48:07.999Z</time></trkpt><trkpt lat="37.759383722207524" lon="15.214523189482762"><ele>11.0</ele><time>2026-04-19T08:48:08.999Z</time></trkpt><trkpt lat="37.75945066594042" lon="15.214576646504078"><ele>11.0</ele><time>2026-04-19T08:48:09.999Z</time></trkpt><trkpt lat="37.759518893303486" lon="15.214621306925965"><ele>11.0</ele><time>2026-04-19T08:48:10.999Z</time></trkpt><trkpt lat="37.759578760038345" lon="15.21466119910132"><ele>11.0</ele><time>2026-04-19T08:48:11.999Z</time></trkpt><trkpt lat="37.75969018269132" lon="15.214731992378047"><ele>11.0</ele><time>2026-04-19T08:48:13.999Z</time></trkpt><trkpt lat="37.7597524160273" lon="15.214783413839369"><ele>11.0</ele><time>2026-04-19T08:48:14.999Z</time></trkpt><trkpt lat="37.75982026867284" lon="15.214829105399524"><ele>11.0</ele><time>2026-04-19T08:48:15.999Z</time></trkpt><trkpt lat="37.75988734289285" lon="15.214878804920444"><ele>11.0</ele><time>2026-04-19T08:48:16.999Z</time></trkpt><trkpt lat="37.759952049970444" lon="15.214929504804315"><ele>11.0</ele><time>2026-04-19T08:48:17.999Z</time></trkpt><trkpt lat="37.760033692439414" lon="15.214976940027183"><ele>11.0</ele><time>2026-04-19T08:48:18.999Z</time></trkpt><trkpt lat="37.76009137068742" lon="15.215053227596776"><ele>11.0</ele><time>2026-04-19T08:48:19.999Z</time></trkpt><trkpt lat="37.76015521842429" lon="15.21510861042566"><ele>11.0</ele><time>2026-04-19T08:48:20.999Z</time></trkpt><trkpt lat="37.760251130399105" lon="15.215185226560969"><ele>11.0</ele><time>2026-04-19T08:48:22.999Z</time></trkpt><trkpt lat="37.76034623032116" lon="15.215262251127887"><ele>10.4</ele><time>2026-04-19T08:48:24.999Z</time></trkpt><trkpt lat="37.76044161220446" lon="15.215340640266275"><ele>9.8</ele><time>2026-04-19T08:48:26.999Z</time></trkpt><trkpt lat="37.76055062892172" lon="15.215422886384646"><ele>9.200000000000001</ele><time>2026-04-19T08:48:28.999Z</time></trkpt><trkpt lat="37.76061540388071" lon="15.215467427520323"><ele>8.600000000000001</ele><time>2026-04-19T08:48:29.999Z</time></trkpt><trkpt lat="37.760675960187214" lon="15.215514956848974"><ele>8.0</ele><time>2026-04-19T08:48:30.999Z</time></trkpt><trkpt lat="37.76073207578349" lon="15.215563074776455"><ele>8.0</ele><time>2026-04-19T08:48:31.999Z</time></trkpt><trkpt lat="37.76082464975375" lon="15.215637864339815"><ele>8.0</ele><time>2026-04-19T08:48:33.999Z</time></trkpt><trkpt lat="37.76091714572392" lon="15.215710839140083"><ele>8.0</ele><time>2026-04-19T08:48:35.999Z</time></trkpt><trkpt lat="37.76097805306831" lon="15.215759134423923"><ele>8.0</ele><time>2026-04-19T08:48:37.999Z</time></trkpt><trkpt lat="37.761051306216515" lon="15.215795055615407"><ele>8.0</ele><time>2026-04-19T08:48:39.999Z</time></trkpt><trkpt lat="37.76114816318868" lon="15.215860203330251"><ele>8.200000000000001</ele><time>2026-04-19T08:48:41.999Z</time></trkpt><trkpt lat="37.7612018581929" lon="15.215901770773065"><ele>8.4</ele><time>2026-04-19T08:48:42.999Z</time></trkpt><trkpt lat="37.761270351849085" lon="15.215951547014328"><ele>8.600000000000001</ele><time>2026-04-19T08:48:43.999Z</time></trkpt><trkpt lat="37.76134398200019" lon="15.21601037103764"><ele>8.8</ele><time>2026-04-19T08:48:44.999Z</time></trkpt><trkpt lat="37.761446710326" lon="15.2160842290391"><ele>9.0</ele><time>2026-04-19T08:48:45.999Z</time></trkpt><trkpt lat="37.76154854051752" lon="15.216168507428412"><ele>9.0</ele><time>2026-04-19T08:48:46.999Z</time></trkpt><trkpt lat="37.761639987689755" lon="15.216260402312155"><ele>9.0</ele><time>2026-04-19T08:48:47.999Z</time></trkpt><trkpt lat="37.76171508852106" lon="15.216340538235766"><ele>9.0</ele><time>2026-04-19T08:48:48.999Z</time></trkpt><trkpt lat="37.761773225673764" lon="15.216406475928391"><ele>9.0</ele><time>2026-04-19T08:48:49.999Z</time></trkpt><trkpt lat="37.76183303309843" lon="15.216461547766233"><ele>9.0</ele><time>2026-04-19T08:48:50.999Z</time></trkpt><trkpt lat="37.76193765647435" lon="15.216556985121063"><ele>9.0</ele><time>2026-04-19T08:48:52.999Z</time></trkpt><trkpt lat="37.76203599322142" lon="15.21667580957785"><ele>9.0</ele><time>2026-04-19T08:48:54.999Z</time></trkpt><trkpt lat="37.762101364213024" lon="15.216737201067142"><ele>9.0</ele><time>2026-04-19T08:48:55.999Z</time></trkpt><trkpt lat="37.76216141710217" lon="15.216793598182615"><ele>9.0</ele><time>2026-04-19T08:48:56.999Z</time></trkpt><trkpt lat="37.76221988607016" lon="15.216848507858423"><ele>9.0</ele><time>2026-04-19T08:48:57.999Z</time></trkpt><trkpt lat="37.76227430225411" lon="15.21689961136541"><ele>9.0</ele><time>2026-04-19T08:48:58.999Z</time></trkpt><trkpt lat="37.76235755976323" lon="15.2169900643729"><ele>9.0</ele><time>2026-04-19T08:49:00.999Z</time></trkpt><trkpt lat="37.76244149606219" lon="15.21708086216251"><ele>9.0</ele><time>2026-04-19T08:49:02.999Z</time></trkpt><trkpt lat="37.76249562142019" lon="15.21713133295351"><ele>9.0</ele><time>2026-04-19T08:49:03.999Z</time></trkpt><trkpt lat="37.76255400790868" lon="15.217192053316095"><ele>9.0</ele><time>2026-04-19T08:49:04.999Z</time></trkpt><trkpt lat="37.7626188925535" lon="15.21724511952849"><ele>9.0</ele><time>2026-04-19T08:49:05.999Z</time></trkpt><trkpt lat="37.76267929268394" lon="15.217300610846342"><ele>9.0</ele><time>2026-04-19T08:49:06.999Z</time></trkpt><trkpt lat="37.76274617714753" lon="15.217354282227816"><ele>9.166666666666666</ele><time>2026-04-19T08:49:07.999Z</time></trkpt><trkpt lat="37.76281754422619" lon="15.217426186990743"><ele>9.333333333333334</ele><time>2026-04-19T08:49:08.999Z</time></trkpt><trkpt lat="37.76289963678118" lon="15.217501895148864"><ele>9.5</ele><time>2026-04-19T08:49:09.999Z</time></trkpt><trkpt lat="37.76297067990484" lon="15.217573919427121"><ele>9.666666666666668</ele><time>2026-04-19T08:49:10.999Z</time></trkpt><trkpt lat="37.76303529136746" lon="15.217640321594422"><ele>9.833333333333334</ele><time>2026-04-19T08:49:11.999Z</time></trkpt><trkpt lat="37.76310326807553" lon="15.21769906522718"><ele>10.0</ele><time>2026-04-19T08:49:12.999Z</time></trkpt><trkpt lat="37.763163848773644" lon="15.21774251050135"><ele>10.0</ele><time>2026-04-19T08:49:13.999Z</time></trkpt><trkpt lat="37.76324893553682" lon="15.21781992442878"><ele>10.0</ele><time>2026-04-19T08:49:15.999Z</time></trkpt><trkpt lat="37.76330878787475" lon="15.217848797441398"><ele>10.0</ele><time>2026-04-19T08:49:16.999Z</time></trkpt><trkpt lat="37.76338117957932" lon="15.217911384646342"><ele>10.0</ele><time>2026-04-19T08:49:17.999Z</time></trkpt><trkpt lat="37.76346358218553" lon="15.218001697279663"><ele>10.0</ele><time>2026-04-19T08:49:18.999Z</time></trkpt><trkpt lat="37.763564641304306" lon="15.218085174662676"><ele>10.25</ele><time>2026-04-19T08:49:19.999Z</time></trkpt><trkpt lat="37.76367252964329" lon="15.218173319584823"><ele>10.5</ele><time>2026-04-19T08:49:20.999Z</time></trkpt><trkpt lat="37.76377439635037" lon="15.218256676945"><ele>10.75</ele><time>2026-04-19T08:49:21.999Z</time></trkpt><trkpt lat="37.763866979382755" lon="15.218332437483545"><ele>11.0</ele><time>2026-04-19T08:49:22.999Z</time></trkpt><trkpt lat="37.76395389071526" lon="15.218383404079509"><ele>11.0</ele><time>2026-04-19T08:49:23.999Z</time></trkpt><trkpt lat="37.76399742844861" lon="15.218466904911038"><ele>11.0</ele><time>2026-04-19T08:49:24.999Z</time></trkpt><trkpt lat="37.76406463424579" lon="15.218514264646544"><ele>11.0</ele><time>2026-04-19T08:49:25.999Z</time></trkpt><trkpt lat="37.76413048290556" lon="15.218555024002823"><ele>11.0</ele><time>2026-04-19T08:49:26.999Z</time></trkpt><trkpt lat="37.76423854790485" lon="15.218638659438696"><ele>11.0</ele><time>2026-04-19T08:49:28.999Z</time></trkpt><trkpt lat="37.76430539601466" lon="15.218686157930165"><ele>11.0</ele><time>2026-04-19T08:49:29.999Z</time></trkpt><trkpt lat="37.76435600303134" lon="15.218775613843187"><ele>10.8</ele><time>2026-04-19T08:49:30.999Z</time></trkpt><trkpt lat="37.764426662102935" lon="15.218833871964812"><ele>10.600000000000001</ele><time>2026-04-19T08:49:31.999Z</time></trkpt><trkpt lat="37.764508687311576" lon="15.218897214863734"><ele>10.4</ele><time>2026-04-19T08:49:32.999Z</time></trkpt><trkpt lat="37.76460823424609" lon="15.218971503725669"><ele>10.2</ele><time>2026-04-19T08:49:33.999Z</time></trkpt><trkpt lat="37.764715813793664" lon="15.21905711207574"><ele>10.0</ele><time>2026-04-19T08:49:34.999Z</time></trkpt><trkpt lat="37.76482870509142" lon="15.219152735091821"><ele>9.75</ele><time>2026-04-19T08:49:35.999Z</time></trkpt><trkpt lat="37.764939176636915" lon="15.219250508318002"><ele>9.5</ele><time>2026-04-19T08:49:36.999Z</time></trkpt><trkpt lat="37.76505273727255" lon="15.219346503191305"><ele>9.25</ele><time>2026-04-19T08:49:37.999Z</time></trkpt><trkpt lat="37.76516551320619" lon="15.219435998982643"><ele>9.0</ele><time>2026-04-19T08:49:38.999Z</time></trkpt><trkpt lat="37.76527673904815" lon="15.2195282215939"><ele>9.0</ele><time>2026-04-19T08:49:39.999Z</time></trkpt><trkpt lat="37.765383781859946" lon="15.219614324247406"><ele>9.0</ele><time>2026-04-19T08:49:40.999Z</time></trkpt><trkpt lat="37.765487503016196" lon="15.219693441199432"><ele>9.0</ele><time>2026-04-19T08:49:41.999Z</time></trkpt><trkpt lat="37.765586350006465" lon="15.219762018106177"><ele>9.0</ele><time>2026-04-19T08:49:42.999Z</time></trkpt><trkpt lat="37.76567588209464" lon="15.219837225732553"><ele>9.0</ele><time>2026-04-19T08:49:43.999Z</time></trkpt><trkpt lat="37.765750588422435" lon="15.219952496943336"><ele>9.0</ele><time>2026-04-19T08:49:44.999Z</time></trkpt><trkpt lat="37.76586793575413" lon="15.220047644766675"><ele>9.0</ele><time>2026-04-19T08:49:45.999Z</time></trkpt><trkpt lat="37.76599140781349" lon="15.220150457879098"><ele>9.0</ele><time>2026-04-19T08:49:46.999Z</time></trkpt><trkpt lat="37.766123248263504" lon="15.220256872727209"><ele>8.5</ele><time>2026-04-19T08:49:47.999Z</time></trkpt><trkpt lat="37.7662464209751" lon="15.220363538297832"><ele>8.0</ele><time>2026-04-19T08:49:48.999Z</time></trkpt><trkpt lat="37.76636034266587" lon="15.22045449953234"><ele>7.5</ele><time>2026-04-19T08:49:49.999Z</time></trkpt><trkpt lat="37.76646414399722" lon="15.220542800944552"><ele>7.0</ele><time>2026-04-19T08:49:50.999Z</time></trkpt><trkpt lat="37.766559952781606" lon="15.220616028876117"><ele>7.0</ele><time>2026-04-19T08:49:51.999Z</time></trkpt><trkpt lat="37.76664497737885" lon="15.220682073745783"><ele>6.999999999999999</ele><time>2026-04-19T08:49:52.999Z</time></trkpt><trkpt lat="37.76672380387996" lon="15.22073873829655"><ele>6.999999999999999</ele><time>2026-04-19T08:49:53.999Z</time></trkpt><trkpt lat="37.766800657358175" lon="15.220807410257823"><ele>7.0</ele><time>2026-04-19T08:49:54.999Z</time></trkpt><trkpt lat="37.76689387000844" lon="15.220882640263127"><ele>7.0</ele><time>2026-04-19T08:49:55.999Z</time></trkpt><trkpt lat="37.7670085773172" lon="15.220974226840621"><ele>7.0</ele><time>2026-04-19T08:49:56.999Z</time></trkpt><trkpt lat="37.76713683374182" lon="15.221085100891795"><ele>7.0</ele><time>2026-04-19T08:49:57.999Z</time></trkpt><trkpt lat="37.76726906128906" lon="15.221210646936246"><ele>7.0</ele><time>2026-04-19T08:49:58.999Z</time></trkpt><trkpt lat="37.76740258455918" lon="15.221338119453424"><ele>7.0</ele><time>2026-04-19T08:49:59.999Z</time></trkpt><trkpt lat="37.767553759532035" lon="15.221461180312005"><ele>7.0</ele><time>2026-04-19T08:50:00.999Z</time></trkpt><trkpt lat="37.767700757374314" lon="15.22158332504969"><ele>7.0</ele><time>2026-04-19T08:50:01.999Z</time></trkpt><trkpt lat="37.767844486515344" lon="15.221709090718234"><ele>6.333333333333334</ele><time>2026-04-19T08:50:02.999Z</time></trkpt><trkpt lat="37.76798391932279" lon="15.221826601810001"><ele>5.666666666666667</ele><time>2026-04-19T08:50:03.999Z</time></trkpt><trkpt lat="37.768124562806925" lon="15.22194374624877"><ele>5.0</ele><time>2026-04-19T08:50:04.999Z</time></trkpt><trkpt lat="37.76826508711742" lon="15.222061669611088"><ele>5.0</ele><time>2026-04-19T08:50:05.999Z</time></trkpt><trkpt lat="37.76840144005858" lon="15.222169777713868"><ele>5.0</ele><time>2026-04-19T08:50:06.999Z</time></trkpt><trkpt lat="37.76853539059753" lon="15.222282135947973"><ele>5.0</ele><time>2026-04-19T08:50:07.999Z</time></trkpt><trkpt lat="37.76866603384107" lon="15.222387782562995"><ele>6.0</ele><time>2026-04-19T08:50:08.999Z</time></trkpt><trkpt lat="37.76879321466364" lon="15.222488115398225"><ele>7.0</ele><time>2026-04-19T08:50:09.999Z</time></trkpt><trkpt lat="37.76892487163663" lon="15.222591057520788"><ele>8.0</ele><time>2026-04-19T08:50:10.999Z</time></trkpt><trkpt lat="37.76905771060626" lon="15.222706516918475"><ele>8.0</ele><time>2026-04-19T08:50:11.999Z</time></trkpt><trkpt lat="37.76919827981101" lon="15.222828173694891"><ele>8.0</ele><time>2026-04-19T08:50:12.999Z</time></trkpt><trkpt lat="37.769346522044806" lon="15.22294962488054"><ele>8.0</ele><time>2026-04-19T08:50:13.999Z</time></trkpt><trkpt lat="37.769493680483414" lon="15.223076028296484"><ele>7.666666666666666</ele><time>2026-04-19T08:50:14.999Z</time></trkpt><trkpt lat="37.76964174097343" lon="15.223203977895052"><ele>7.333333333333334</ele><time>2026-04-19T08:50:15.999Z</time></trkpt><trkpt lat="37.769792902881065" lon="15.223333344410841"><ele>7.0</ele><time>2026-04-19T08:50:16.999Z</time></trkpt><trkpt lat="37.7699445021709" lon="15.223467645305682"><ele>7.0</ele><time>2026-04-19T08:50:17.999Z</time></trkpt><trkpt lat="37.77009746966062" lon="15.223606469240671"><ele>7.0</ele><time>2026-04-19T08:50:18.999Z</time></trkpt><trkpt lat="37.77024962695727" lon="15.223759889419368"><ele>7.0</ele><time>2026-04-19T08:50:19.999Z</time></trkpt><trkpt lat="37.770407630446115" lon="15.223911735665276"><ele>8.0</ele><time>2026-04-19T08:50:20.999Z</time></trkpt><trkpt lat="37.77055730219707" lon="15.224058158188253"><ele>9.0</ele><time>2026-04-19T08:50:21.999Z</time></trkpt><trkpt lat="37.7706968069002" lon="15.224197989749925"><ele>10.0</ele><time>2026-04-19T08:50:22.999Z</time></trkpt><trkpt lat="37.770836221014946" lon="15.224341957348022"><ele>10.0</ele><time>2026-04-19T08:50:23.999Z</time></trkpt><trkpt lat="37.77098423796668" lon="15.224476948251848"><ele>10.0</ele><time>2026-04-19T08:50:24.999Z</time></trkpt><trkpt lat="37.77113795139863" lon="15.224611204280402"><ele>10.0</ele><time>2026-04-19T08:50:25.999Z</time></trkpt><trkpt lat="37.77129793673446" lon="15.224736334242959"><ele>10.333333333333334</ele><time>2026-04-19T08:50:26.999Z</time></trkpt><trkpt lat="37.771451819653294" lon="15.224860845960468"><ele>10.666666666666666</ele><time>2026-04-19T08:50:27.999Z</time></trkpt><trkpt lat="37.77160009878066" lon="15.224972798627372"><ele>11.0</ele><time>2026-04-19T08:50:28.999Z</time></trkpt><trkpt lat="37.771745589241746" lon="15.22508055740948"><ele>9.666666666666666</ele><time>2026-04-19T08:50:29.999Z</time></trkpt><trkpt lat="37.7718909075297" lon="15.225191795247527"><ele>8.333333333333334</ele><time>2026-04-19T08:50:30.999Z</time></trkpt><trkpt lat="37.77203529531738" lon="15.225303365189616"><ele>7.0</ele><time>2026-04-19T08:50:31.999Z</time></trkpt><trkpt lat="37.772182482224494" lon="15.225419021175993"><ele>7.0</ele><time>2026-04-19T08:50:32.999Z</time></trkpt><trkpt lat="37.77231833376685" lon="15.22555007950552"><ele>7.0</ele><time>2026-04-19T08:50:33.999Z</time></trkpt><trkpt lat="37.77247245788389" lon="15.225647069641218"><ele>7.0</ele><time>2026-04-19T08:50:34.999Z</time></trkpt><trkpt lat="37.77261910987763" lon="15.225768647152966"><ele>7.666666666666667</ele><time>2026-04-19T08:50:35.999Z</time></trkpt><trkpt lat="37.77276321101664" lon="15.225888364176514"><ele>8.333333333333334</ele><time>2026-04-19T08:50:36.999Z</time></trkpt><trkpt lat="37.77290839722928" lon="15.226011079738603"><ele>9.0</ele><time>2026-04-19T08:50:37.999Z</time></trkpt><trkpt lat="37.77306180508306" lon="15.226129760629776"><ele>9.0</ele><time>2026-04-19T08:50:38.999Z</time></trkpt><trkpt lat="37.773212545966516" lon="15.226254320271082"><ele>9.0</ele><time>2026-04-19T08:50:39.999Z</time></trkpt><trkpt lat="37.77337056715741" lon="15.2263734920807"><ele>9.0</ele><time>2026-04-19T08:50:40.999Z</time></trkpt><trkpt lat="37.77353149308021" lon="15.226497343801446"><ele>9.333333333333334</ele><time>2026-04-19T08:50:41.999Z</time></trkpt><trkpt lat="37.77368957063015" lon="15.226616042921364"><ele>9.666666666666668</ele><time>2026-04-19T08:50:42.999Z</time></trkpt><trkpt lat="37.773839815943916" lon="15.226729769651895"><ele>10.0</ele><time>2026-04-19T08:50:43.999Z</time></trkpt><trkpt lat="37.77399878656728" lon="15.226838553038771"><ele>10.0</ele><time>2026-04-19T08:50:44.999Z</time></trkpt><trkpt lat="37.77416251952533" lon="15.226944133489534"><ele>10.0</ele><time>2026-04-19T08:50:45.999Z</time></trkpt><trkpt lat="37.774325982580656" lon="15.227065125667199"><ele>10.0</ele><time>2026-04-19T08:50:46.999Z</time></trkpt><trkpt lat="37.77450279000696" lon="15.227187881135386"><ele>8.333333333333334</ele><time>2026-04-19T08:50:47.999Z</time></trkpt><trkpt lat="37.774687118765144" lon="15.227313963570817"><ele>6.666666666666667</ele><time>2026-04-19T08:50:48.999Z</time></trkpt><trkpt lat="37.77487298755264" lon="15.227435709043037"><ele>5.0</ele><time>2026-04-19T08:50:49.999Z</time></trkpt><trkpt lat="37.775057183232995" lon="15.227554499055056"><ele>6.333333333333334</ele><time>2026-04-19T08:50:50.999Z</time></trkpt><trkpt lat="37.77523054572479" lon="15.2276764300464"><ele>7.666666666666667</ele><time>2026-04-19T08:50:51.999Z</time></trkpt><trkpt lat="37.775389277479" lon="15.227792227590008"><ele>9.0</ele><time>2026-04-19T08:50:52.999Z</time></trkpt><trkpt lat="37.775554010201276" lon="15.227903891617105"><ele>9.0</ele><time>2026-04-19T08:50:53.999Z</time></trkpt><trkpt lat="37.77569843369148" lon="15.228050889704337"><ele>9.0</ele><time>2026-04-19T08:50:54.999Z</time></trkpt><trkpt lat="37.775865195953386" lon="15.22816264665962"><ele>9.0</ele><time>2026-04-19T08:50:55.999Z</time></trkpt><trkpt lat="37.77603359113503" lon="15.228279126203152"><ele>8.666666666666666</ele><time>2026-04-19T08:50:56.999Z</time></trkpt><trkpt lat="37.77619787053266" lon="15.228395888047514"><ele>8.333333333333332</ele><time>2026-04-19T08:50:57.999Z</time></trkpt><trkpt lat="37.776363860548855" lon="15.228509171599235"><ele>8.0</ele><time>2026-04-19T08:50:58.999Z</time></trkpt><trkpt lat="37.7765285086013" lon="15.228628790445931"><ele>8.0</ele><time>2026-04-19T08:50:59.999Z</time></trkpt><trkpt lat="37.77669905803187" lon="15.228745909319311"><ele>8.0</ele><time>2026-04-19T08:51:00.999Z</time></trkpt><trkpt lat="37.776868589020545" lon="15.228862234738067"><ele>8.0</ele><time>2026-04-19T08:51:01.999Z</time></trkpt><trkpt lat="37.777043361057636" lon="15.228977179663616"><ele>8.0</ele><time>2026-04-19T08:51:02.999Z</time></trkpt><trkpt lat="37.77721680793444" lon="15.229098889375473"><ele>8.0</ele><time>2026-04-19T08:51:03.999Z</time></trkpt><trkpt lat="37.77739364050219" lon="15.229216872450584"><ele>8.0</ele><time>2026-04-19T08:51:04.999Z</time></trkpt><trkpt lat="37.77756962802443" lon="15.229339883425885"><ele>10.333333333333332</ele><time>2026-04-19T08:51:05.999Z</time></trkpt><trkpt lat="37.77774630444745" lon="15.22945973282279"><ele>12.666666666666666</ele><time>2026-04-19T08:51:06.999Z</time></trkpt><trkpt lat="37.77791656860051" lon="15.2295782949359"><ele>15.0</ele><time>2026-04-19T08:51:07.999Z</time></trkpt><trkpt lat="37.77808397811414" lon="15.229684181840266"><ele>15.0</ele><time>2026-04-19T08:51:08.999Z</time></trkpt><trkpt lat="37.77824512838234" lon="15.229779397035076"><ele>15.0</ele><time>2026-04-19T08:51:09.999Z</time></trkpt><trkpt lat="37.7784026640295" lon="15.22986627447939"><ele>15.0</ele><time>2026-04-19T08:51:10.999Z</time></trkpt><trkpt lat="37.77855313616806" lon="15.229957775318963"><ele>16.0</ele><time>2026-04-19T08:51:11.999Z</time></trkpt><trkpt lat="37.778709717081384" lon="15.230050024128959"><ele>17.0</ele><time>2026-04-19T08:51:12.999Z</time></trkpt><trkpt lat="37.77886889104082" lon="15.230150194439558"><ele>18.0</ele><time>2026-04-19T08:51:13.999Z</time></trkpt><trkpt lat="37.779037597835355" lon="15.230254404630573"><ele>18.0</ele><time>2026-04-19T08:51:14.999Z</time></trkpt><trkpt lat="37.77921873799389" lon="15.23036204710822"><ele>18.0</ele><time>2026-04-19T08:51:15.999Z</time></trkpt><trkpt lat="37.77939505446231" lon="15.230490954887873"><ele>18.0</ele><time>2026-04-19T08:51:16.999Z</time></trkpt><trkpt lat="37.77957633151595" lon="15.23060561710824"><ele>15.333333333333334</ele><time>2026-04-19T08:51:17.999Z</time></trkpt><trkpt lat="37.77975369533819" lon="15.230717071918345"><ele>12.666666666666668</ele><time>2026-04-19T08:51:18.999Z</time></trkpt><trkpt lat="37.77992926544989" lon="15.230827205791664"><ele>10.0</ele><time>2026-04-19T08:51:19.999Z</time></trkpt><trkpt lat="37.780116960656926" lon="15.230925538486785"><ele>10.0</ele><time>2026-04-19T08:51:20.999Z</time></trkpt><trkpt lat="37.780295491508085" lon="15.231051396190434"><ele>10.0</ele><time>2026-04-19T08:51:21.999Z</time></trkpt><trkpt lat="37.7804707632142" lon="15.231168235125844"><ele>10.0</ele><time>2026-04-19T08:51:22.999Z</time></trkpt><trkpt lat="37.78065874116032" lon="15.231268137601376"><ele>10.0</ele><time>2026-04-19T08:51:23.999Z</time></trkpt><trkpt lat="37.780821803452184" lon="15.231367402327189"><ele>10.0</ele><time>2026-04-19T08:51:24.999Z</time></trkpt><trkpt lat="37.78098289899274" lon="15.231465600271468"><ele>10.0</ele><time>2026-04-19T08:51:25.999Z</time></trkpt><trkpt lat="37.78114205849728" lon="15.231563504697277"><ele>9.666666666666668</ele><time>2026-04-19T08:51:26.999Z</time></trkpt><trkpt lat="37.781299885649815" lon="15.231663676179693"><ele>9.333333333333334</ele><time>2026-04-19T08:51:27.999Z</time></trkpt><trkpt lat="37.78146314286276" lon="15.23178465033676"><ele>9.0</ele><time>2026-04-19T08:51:28.999Z</time></trkpt><trkpt lat="37.781653215628914" lon="15.231904508167787"><ele>9.0</ele><time>2026-04-19T08:51:29.999Z</time></trkpt><trkpt lat="37.781848136476164" lon="15.232027423130384"><ele>9.0</ele><time>2026-04-19T08:51:30.999Z</time></trkpt><trkpt lat="37.782048761616764" lon="15.232133947052054"><ele>9.0</ele><time>2026-04-19T08:51:31.999Z</time></trkpt><trkpt lat="37.78224507712899" lon="15.23225523486188"><ele>9.0</ele><time>2026-04-19T08:51:32.999Z</time></trkpt><trkpt lat="37.78242613507562" lon="15.23239106648516"><ele>9.0</ele><time>2026-04-19T08:51:33.999Z</time></trkpt><trkpt lat="37.78261264979477" lon="15.232509050306474"><ele>9.0</ele><time>2026-04-19T08:51:34.999Z</time></trkpt><trkpt lat="37.78280662700994" lon="15.232631748135756"><ele>9.0</ele><time>2026-04-19T08:51:35.999Z</time></trkpt><trkpt lat="37.78301294002923" lon="15.23276224881942"><ele>9.0</ele><time>2026-04-19T08:51:36.999Z</time></trkpt><trkpt lat="37.783219628267325" lon="15.23289173411283"><ele>9.0</ele><time>2026-04-19T08:51:37.999Z</time></trkpt><trkpt lat="37.78342251865819" lon="15.233018029343544"><ele>9.0</ele><time>2026-04-19T08:51:38.999Z</time></trkpt><trkpt lat="37.78360651674292" lon="15.233132564482398"><ele>9.0</ele><time>2026-04-19T08:51:39.999Z</time></trkpt><trkpt lat="37.78378450343931" lon="15.233220276107721"><ele>8.333333333333334</ele><time>2026-04-19T08:51:40.999Z</time></trkpt><trkpt lat="37.7839380742895" lon="15.23333736843863"><ele>7.666666666666667</ele><time>2026-04-19T08:51:41.999Z</time></trkpt><trkpt lat="37.78409393334532" lon="15.233442698831185"><ele>7.0</ele><time>2026-04-19T08:51:42.999Z</time></trkpt><trkpt lat="37.784252574469896" lon="15.2335549223391"><ele>6.666666666666667</ele><time>2026-04-19T08:51:43.999Z</time></trkpt><trkpt lat="37.78441166054667" lon="15.233668109370118"><ele>6.333333333333334</ele><time>2026-04-19T08:51:44.999Z</time></trkpt><trkpt lat="37.784563112199386" lon="15.233778249630207"><ele>6.0</ele><time>2026-04-19T08:51:45.999Z</time></trkpt><trkpt lat="37.784699722647744" lon="15.233877596912217"><ele>6.0</ele><time>2026-04-19T08:51:46.999Z</time></trkpt><trkpt lat="37.78482604986273" lon="15.233969606306996"><ele>6.0</ele><time>2026-04-19T08:51:47.999Z</time></trkpt><trkpt lat="37.78494735104792" lon="15.234059179204717"><ele>6.0</ele><time>2026-04-19T08:51:48.999Z</time></trkpt><trkpt lat="37.78505719596504" lon="15.234140292386876"><ele>6.0</ele><time>2026-04-19T08:51:49.999Z</time></trkpt><trkpt lat="37.785156512920146" lon="15.234213631375628"><ele>6.199999999999999</ele><time>2026-04-19T08:51:50.999Z</time></trkpt><trkpt lat="37.78524979933987" lon="15.234283842177131"><ele>6.3999999999999995</ele><time>2026-04-19T08:51:52Z</time></trkpt><trkpt lat="37.78533778204641" lon="15.234351164714669"><ele>6.6</ele><time>2026-04-19T08:51:53Z</time></trkpt><trkpt lat="37.785409506034995" lon="15.234427014827666"><ele>6.8</ele><time>2026-04-19T08:51:54Z</time></trkpt><trkpt lat="37.78549335866689" lon="15.234481274409202"><ele>7.0</ele><time>2026-04-19T08:51:55Z</time></trkpt><trkpt lat="37.78556767397945" lon="15.234535463335522"><ele>7.0</ele><time>2026-04-19T08:51:56Z</time></trkpt><trkpt lat="37.785641506005675" lon="15.234583291087516"><ele>7.0</ele><time>2026-04-19T08:51:57Z</time></trkpt><trkpt lat="37.78570563677652" lon="15.234639084924039"><ele>7.0</ele><time>2026-04-19T08:51:58Z</time></trkpt><trkpt lat="37.785767984455525" lon="15.234683888783207"><ele>7.0</ele><time>2026-04-19T08:51:59Z</time></trkpt><trkpt lat="37.78583337849455" lon="15.23472184234559"><ele>7.0</ele><time>2026-04-19T08:52:00Z</time></trkpt><trkpt lat="37.785896400539464" lon="15.234757105680123"><ele>7.0</ele><time>2026-04-19T08:52:01Z</time></trkpt><trkpt lat="37.78594495446134" lon="15.234811901921"><ele>7.0</ele><time>2026-04-19T08:52:02Z</time></trkpt><trkpt lat="37.78602128055969" lon="15.234868119923108"><ele>7.25</ele><time>2026-04-19T08:52:04Z</time></trkpt><trkpt lat="37.78611086301036" lon="15.234645028562806"><ele>7.5</ele><time>2026-04-19T08:52:06Z</time></trkpt><trkpt lat="37.78612323323002" lon="15.234532347545288"><ele>7.75</ele><time>2026-04-19T08:52:07Z</time></trkpt><trkpt lat="37.78618751453365" lon="15.234448122941691"><ele>8.0</ele><time>2026-04-19T08:52:08Z</time></trkpt><trkpt lat="37.786225558707095" lon="15.234343750540909"><ele>8.0</ele><time>2026-04-19T08:52:09Z</time></trkpt><trkpt lat="37.786285807968376" lon="15.234265216537898"><ele>8.0</ele><time>2026-04-19T08:52:10Z</time></trkpt><trkpt lat="37.78632939456708" lon="15.234154827050483"><ele>8.0</ele><time>2026-04-19T08:52:11Z</time></trkpt><trkpt lat="37.786376224452226" lon="15.234015069639874"><ele>8.0</ele><time>2026-04-19T08:52:12Z</time></trkpt><trkpt lat="37.78637410059488" lon="15.233838938600172"><ele>8.0</ele><time>2026-04-19T08:52:13Z</time></trkpt><trkpt lat="37.78636689343827" lon="15.233691619277216"><ele>7.75</ele><time>2026-04-19T08:52:14Z</time></trkpt><trkpt lat="37.786356279429064" lon="15.233554798035083"><ele>7.5</ele><time>2026-04-19T08:52:15Z</time></trkpt><trkpt lat="37.78634722828164" lon="15.233401667179933"><ele>7.25</ele><time>2026-04-19T08:52:16Z</time></trkpt><trkpt lat="37.78635485766365" lon="15.2332340274084"><ele>7.0</ele><time>2026-04-19T08:52:17Z</time></trkpt><trkpt lat="37.78638275369064" lon="15.233032357974817"><ele>7.0</ele><time>2026-04-19T08:52:18Z</time></trkpt><trkpt lat="37.78642883763642" lon="15.232771926069027"><ele>7.0</ele><time>2026-04-19T08:52:19Z</time></trkpt><trkpt lat="37.786483912551795" lon="15.23247727553741"><ele>7.333333333333334</ele><time>2026-04-19T08:52:20Z</time></trkpt><trkpt lat="37.78653737096172" lon="15.232202382935913"><ele>7.666666666666666</ele><time>2026-04-19T08:52:21Z</time></trkpt><trkpt lat="37.786589150107154" lon="15.231966753031"><ele>8.0</ele><time>2026-04-19T08:52:22Z</time></trkpt><trkpt lat="37.78669560857311" lon="15.231775543987244"><ele>8.0</ele><time>2026-04-19T08:52:23Z</time></trkpt><trkpt lat="37.78682194113101" lon="15.231606712008034"><ele>8.0</ele><time>2026-04-19T08:52:24Z</time></trkpt><trkpt lat="37.78697278512441" lon="15.23146518514193"><ele>8.0</ele><time>2026-04-19T08:52:25Z</time></trkpt><trkpt lat="37.78713153097454" lon="15.23134817168609"><ele>8.0</ele><time>2026-04-19T08:52:26Z</time></trkpt><trkpt lat="37.78727783058668" lon="15.23123360102243"><ele>8.0</ele><time>2026-04-19T08:52:26.999Z</time></trkpt><trkpt lat="37.787421029758335" lon="15.231144195164548"><ele>8.0</ele><time>2026-04-19T08:52:27.999Z</time></trkpt><trkpt lat="37.78754407607194" lon="15.231050769594168"><ele>8.0</ele><time>2026-04-19T08:52:28.999Z</time></trkpt><trkpt lat="37.78764901734303" lon="15.23097109074535"><ele>8.0</ele><time>2026-04-19T08:52:29.999Z</time></trkpt><trkpt lat="37.78774499919259" lon="15.230902721487782"><ele>8.0</ele><time>2026-04-19T08:52:30.999Z</time></trkpt><trkpt lat="37.787834749129956" lon="15.230841028947115"><ele>8.0</ele><time>2026-04-19T08:52:31.999Z</time></trkpt><trkpt lat="37.787930499603085" lon="15.230780564756472"><ele>8.0</ele><time>2026-04-19T08:52:32.999Z</time></trkpt><trkpt lat="37.78804508001054" lon="15.230725895142859"><ele>7.666666666666666</ele><time>2026-04-19T08:52:33.999Z</time></trkpt><trkpt lat="37.7881965562498" lon="15.230669191534878"><ele>7.333333333333334</ele><time>2026-04-19T08:52:34.999Z</time></trkpt><trkpt lat="37.788361470039426" lon="15.230617262896098"><ele>7.0</ele><time>2026-04-19T08:52:35.999Z</time></trkpt><trkpt lat="37.78854720776981" lon="15.230559318606337"><ele>10.0</ele><time>2026-04-19T08:52:36.999Z</time></trkpt><trkpt lat="37.78874267808201" lon="15.230498338074373"><ele>13.0</ele><time>2026-04-19T08:52:37.999Z</time></trkpt><trkpt lat="37.78895075823287" lon="15.230434066224262"><ele>16.0</ele><time>2026-04-19T08:52:38.999Z</time></trkpt><trkpt lat="37.78912001322711" lon="15.230360295872268"><ele>16.0</ele><time>2026-04-19T08:52:39.999Z</time></trkpt><trkpt lat="37.78927561760241" lon="15.230290804430739"><ele>16.0</ele><time>2026-04-19T08:52:40.999Z</time></trkpt><trkpt lat="37.789408273704595" lon="15.230208508995261"><ele>16.0</ele><time>2026-04-19T08:52:41.999Z</time></trkpt><trkpt lat="37.7895269775206" lon="15.230087220781877"><ele>16.666666666666664</ele><time>2026-04-19T08:52:42.999Z</time></trkpt><trkpt lat="37.789622518676815" lon="15.229884245538656"><ele>17.333333333333332</ele><time>2026-04-19T08:52:43.999Z</time></trkpt><trkpt lat="37.789710369568155" lon="15.229646494913185"><ele>18.0</ele><time>2026-04-19T08:52:44.999Z</time></trkpt><trkpt lat="37.78980156050757" lon="15.229414450156892"><ele>19.333333333333332</ele><time>2026-04-19T08:52:45.999Z</time></trkpt><trkpt lat="37.78990988976268" lon="15.229197245450797"><ele>20.666666666666664</ele><time>2026-04-19T08:52:46.999Z</time></trkpt><trkpt lat="37.79001695367475" lon="15.228998504504938"><ele>22.0</ele><time>2026-04-19T08:52:47.999Z</time></trkpt><trkpt lat="37.7901140341052" lon="15.22879418965461"><ele>22.0</ele><time>2026-04-19T08:52:48.999Z</time></trkpt><trkpt lat="37.79020504913174" lon="15.228596949807518"><ele>22.0</ele><time>2026-04-19T08:52:49.999Z</time></trkpt><trkpt lat="37.79031928641151" lon="15.228408182305552"><ele>22.0</ele><time>2026-04-19T08:52:50.999Z</time></trkpt><trkpt lat="37.79039742152427" lon="15.228181477064402"><ele>23.0</ele><time>2026-04-19T08:52:51.999Z</time></trkpt><trkpt lat="37.790474499426566" lon="15.227954614012031"><ele>24.0</ele><time>2026-04-19T08:52:52.999Z</time></trkpt><trkpt lat="37.79055389551209" lon="15.22772390434074"><ele>25.0</ele><time>2026-04-19T08:52:53.999Z</time></trkpt><trkpt lat="37.790634256062624" lon="15.227492902010576"><ele>26.0</ele><time>2026-04-19T08:52:54.999Z</time></trkpt><trkpt lat="37.79071600447259" lon="15.227257713766043"><ele>27.0</ele><time>2026-04-19T08:52:55.999Z</time></trkpt><trkpt lat="37.79078657182038" lon="15.227016589266313"><ele>28.0</ele><time>2026-04-19T08:52:56.999Z</time></trkpt><trkpt lat="37.790849532441506" lon="15.226766397348626"><ele>28.0</ele><time>2026-04-19T08:52:57.999Z</time></trkpt><trkpt lat="37.790908050158514" lon="15.226492723700817"><ele>28.0</ele><time>2026-04-19T08:52:58.999Z</time></trkpt><trkpt lat="37.79096146523293" lon="15.22619463461597"><ele>28.0</ele><time>2026-04-19T08:52:59.999Z</time></trkpt><trkpt lat="37.79101745336246" lon="15.225904957561609"><ele>28.0</ele><time>2026-04-19T08:53:00.999Z</time></trkpt><trkpt lat="37.79108448051499" lon="15.225606505045445"><ele>28.0</ele><time>2026-04-19T08:53:01.999Z</time></trkpt><trkpt lat="37.791144486282356" lon="15.225301383643083"><ele>28.0</ele><time>2026-04-19T08:53:02.999Z</time></trkpt><trkpt lat="37.79120587955202" lon="15.225014857323341"><ele>30.0</ele><time>2026-04-19T08:53:03.999Z</time></trkpt><trkpt lat="37.7912640653512" lon="15.22472205465141"><ele>32.0</ele><time>2026-04-19T08:53:04.999Z</time></trkpt><trkpt lat="37.79130105824302" lon="15.224423731948177"><ele>32.0</ele><time>2026-04-19T08:53:05.999Z</time></trkpt><trkpt lat="37.791347734587646" lon="15.22412416289806"><ele>32.0</ele><time>2026-04-19T08:53:06.999Z</time></trkpt><trkpt lat="37.791389829162156" lon="15.22383612246185"><ele>32.666666666666664</ele><time>2026-04-19T08:53:07.999Z</time></trkpt><trkpt lat="37.79143457830396" lon="15.22356190613518"><ele>33.333333333333336</ele><time>2026-04-19T08:53:08.999Z</time></trkpt><trkpt lat="37.79147325171185" lon="15.22328621192082"><ele>34.0</ele><time>2026-04-19T08:53:09.999Z</time></trkpt><trkpt lat="37.79151099813755" lon="15.223015589672505"><ele>34.0</ele><time>2026-04-19T08:53:10.999Z</time></trkpt><trkpt lat="37.79154758070395" lon="15.222744581991739"><ele>34.0</ele><time>2026-04-19T08:53:11.999Z</time></trkpt><trkpt lat="37.79158706640137" lon="15.222474700277495"><ele>34.0</ele><time>2026-04-19T08:53:12.999Z</time></trkpt><trkpt lat="37.79163364986099" lon="15.222198863163273"><ele>34.66666666666667</ele><time>2026-04-19T08:53:13.999Z</time></trkpt><trkpt lat="37.79168456614459" lon="15.221925948163888"><ele>35.333333333333336</ele><time>2026-04-19T08:53:14.999Z</time></trkpt><trkpt lat="37.79173566261312" lon="15.221661833217627"><ele>36.0</ele><time>2026-04-19T08:53:15.999Z</time></trkpt><trkpt lat="37.791783768862516" lon="15.22139004890129"><ele>36.333333333333336</ele><time>2026-04-19T08:53:16.999Z</time></trkpt><trkpt lat="37.791836808940765" lon="15.221130561210217"><ele>36.66666666666667</ele><time>2026-04-19T08:53:17.999Z</time></trkpt><trkpt lat="37.79189621766585" lon="15.220883002151977"><ele>37.0</ele><time>2026-04-19T08:53:18.999Z</time></trkpt><trkpt lat="37.79194997464853" lon="15.220645480521783"><ele>37.333333333333336</ele><time>2026-04-19T08:53:19.999Z</time></trkpt><trkpt lat="37.79199927718424" lon="15.2204254168855"><ele>37.666666666666664</ele><time>2026-04-19T08:53:20.999Z</time></trkpt><trkpt lat="37.792039846054635" lon="15.220219554508503"><ele>38.0</ele><time>2026-04-19T08:53:21.999Z</time></trkpt><trkpt lat="37.792083121547094" lon="15.220014503504572"><ele>39.0</ele><time>2026-04-19T08:53:22.999Z</time></trkpt><trkpt lat="37.79212533711668" lon="15.219811136421294"><ele>40.0</ele><time>2026-04-19T08:53:23.999Z</time></trkpt><trkpt lat="37.792177858245694" lon="15.21960178427209"><ele>41.0</ele><time>2026-04-19T08:53:24.999Z</time></trkpt><trkpt lat="37.792262362676844" lon="15.219392843498802"><ele>41.0</ele><time>2026-04-19T08:53:25.999Z</time></trkpt><trkpt lat="37.79231999812796" lon="15.219166996926923"><ele>41.0</ele><time>2026-04-19T08:53:26.999Z</time></trkpt><trkpt lat="37.79237923373133" lon="15.218928856423426"><ele>41.0</ele><time>2026-04-19T08:53:27.999Z</time></trkpt><trkpt lat="37.79244479563069" lon="15.218697119857469"><ele>41.666666666666664</ele><time>2026-04-19T08:53:28.999Z</time></trkpt><trkpt lat="37.792507790421865" lon="15.218485995228756"><ele>42.333333333333336</ele><time>2026-04-19T08:53:29.999Z</time></trkpt><trkpt lat="37.7925679488682" lon="15.21829751478025"><ele>43.0</ele><time>2026-04-19T08:53:30.999Z</time></trkpt><trkpt lat="37.79262121446826" lon="15.218116582907317"><ele>43.5</ele><time>2026-04-19T08:53:31.999Z</time></trkpt><trkpt lat="37.792670320885904" lon="15.217945658088027"><ele>44.0</ele><time>2026-04-19T08:53:32.999Z</time></trkpt><trkpt lat="37.79271343072752" lon="15.217786029369"><ele>44.5</ele><time>2026-04-19T08:53:33.999Z</time></trkpt><trkpt lat="37.79275556506749" lon="15.217627325309929"><ele>45.0</ele><time>2026-04-19T08:53:34.999Z</time></trkpt><trkpt lat="37.792799822547686" lon="15.217472223016298"><ele>45.0</ele><time>2026-04-19T08:53:35.999Z</time></trkpt><trkpt lat="37.792852104034715" lon="15.217329188545266"><ele>45.0</ele><time>2026-04-19T08:53:36.999Z</time></trkpt><trkpt lat="37.79290211811467" lon="15.217198951330818"><ele>45.0</ele><time>2026-04-19T08:53:37.999Z</time></trkpt><trkpt lat="37.7929659739259" lon="15.217110010002427"><ele>45.0</ele><time>2026-04-19T08:53:38.999Z</time></trkpt><trkpt lat="37.7929907062979" lon="15.217033397506858"><ele>45.0</ele><time>2026-04-19T08:53:39.999Z</time></trkpt><trkpt lat="37.79303831636939" lon="15.216920738753064"><ele>45.333333333333336</ele><time>2026-04-19T08:53:41.999Z</time></trkpt><trkpt lat="37.7930897989526" lon="15.216794759103967"><ele>45.666666666666664</ele><time>2026-04-19T08:53:43.999Z</time></trkpt><trkpt lat="37.79314256609842" lon="15.216667576452897"><ele>46.0</ele><time>2026-04-19T08:53:45.999Z</time></trkpt><trkpt lat="37.79317941426564" lon="15.216602304560295"><ele>46.33333333333333</ele><time>2026-04-19T08:53:46.999Z</time></trkpt><trkpt lat="37.79321508439997" lon="15.21653139914522"><ele>46.666666666666664</ele><time>2026-04-19T08:53:47.999Z</time></trkpt><trkpt lat="37.79325345267176" lon="15.216450772879877"><ele>47.0</ele><time>2026-04-19T08:53:48.999Z</time></trkpt><trkpt lat="37.793285607668984" lon="15.216369139552034"><ele>47.400000000000006</ele><time>2026-04-19T08:53:49.999Z</time></trkpt><trkpt lat="37.793313556761525" lon="15.216280042423898"><ele>47.800000000000004</ele><time>2026-04-19T08:53:50.999Z</time></trkpt><trkpt lat="37.793338366360736" lon="15.216168455072003"><ele>48.2</ele><time>2026-04-19T08:53:51.999Z</time></trkpt><trkpt lat="37.79337565289381" lon="15.216026321522374"><ele>48.6</ele><time>2026-04-19T08:53:52.999Z</time></trkpt><trkpt lat="37.7934102937969" lon="15.21585034041447"><ele>49.0</ele><time>2026-04-19T08:53:53.999Z</time></trkpt><trkpt lat="37.79345112951375" lon="15.21565068275335"><ele>50.33333333333333</ele><time>2026-04-19T08:53:54.999Z</time></trkpt><trkpt lat="37.79349623544274" lon="15.215436955445405"><ele>51.66666666666667</ele><time>2026-04-19T08:53:55.999Z</time></trkpt><trkpt lat="37.793547733460166" lon="15.215213292025991"><ele>53.0</ele><time>2026-04-19T08:53:56.999Z</time></trkpt><trkpt lat="37.79361034152061" lon="15.215015270693815"><ele>53.333333333333336</ele><time>2026-04-19T08:53:58Z</time></trkpt><trkpt lat="37.79369148392292" lon="15.214832356143884"><ele>53.66666666666667</ele><time>2026-04-19T08:53:59Z</time></trkpt><trkpt lat="37.793770387983436" lon="15.214664565128219"><ele>54.0</ele><time>2026-04-19T08:54:00Z</time></trkpt><trkpt lat="37.79384616124189" lon="15.214505981892444"><ele>54.0</ele><time>2026-04-19T08:54:01Z</time></trkpt><trkpt lat="37.79392916915577" lon="15.214333100552649"><ele>54.0</ele><time>2026-04-19T08:54:02Z</time></trkpt><trkpt lat="37.79401460369686" lon="15.214155790506812"><ele>54.0</ele><time>2026-04-19T08:54:03Z</time></trkpt><trkpt lat="37.79408834277807" lon="15.21400485021202"><ele>54.333333333333336</ele><time>2026-04-19T08:54:04Z</time></trkpt><trkpt lat="37.79413247700188" lon="15.213879445257092"><ele>54.66666666666667</ele><time>2026-04-19T08:54:05Z</time></trkpt><trkpt lat="37.794181798188134" lon="15.213790943129585"><ele>55.0</ele><time>2026-04-19T08:54:06Z</time></trkpt><trkpt lat="37.79422683287197" lon="15.213718246862994"><ele>55.333333333333336</ele><time>2026-04-19T08:54:07Z</time></trkpt><trkpt lat="37.79428709455176" lon="15.213675906427351"><ele>55.66666666666667</ele><time>2026-04-19T08:54:08Z</time></trkpt><trkpt lat="37.79429992488265" lon="15.213574321107226"><ele>56.0</ele><time>2026-04-19T08:54:09Z</time></trkpt><trkpt lat="37.794318520512775" lon="15.213481329531692"><ele>56.833333333333336</ele><time>2026-04-19T08:54:10Z</time></trkpt><trkpt lat="37.79435045862902" lon="15.213392019474785"><ele>57.66666666666667</ele><time>2026-04-19T08:54:11Z</time></trkpt><trkpt lat="37.794396289826395" lon="15.213305860735757"><ele>58.5</ele><time>2026-04-19T08:54:12Z</time></trkpt><trkpt lat="37.79447300566002" lon="15.21325883424821"><ele>59.33333333333333</ele><time>2026-04-19T08:54:13Z</time></trkpt><trkpt lat="37.7945196064308" lon="15.213199992804695"><ele>60.166666666666664</ele><time>2026-04-19T08:54:14Z</time></trkpt><trkpt lat="37.794569430441484" lon="15.21313405968096"><ele>61.0</ele><time>2026-04-19T08:54:15Z</time></trkpt><trkpt lat="37.79461853751708" lon="15.21307054424421"><ele>61.4</ele><time>2026-04-19T08:54:16Z</time></trkpt><trkpt lat="37.79466458358638" lon="15.213011122413471"><ele>61.8</ele><time>2026-04-19T08:54:17Z</time></trkpt><trkpt lat="37.794741574415944" lon="15.212911766807448"><ele>62.199999999999996</ele><time>2026-04-19T08:54:19Z</time></trkpt><trkpt lat="37.79482150802645" lon="15.212808613586791"><ele>62.599999999999994</ele><time>2026-04-19T08:54:21Z</time></trkpt><trkpt lat="37.794907373348806" lon="15.212697805573379"><ele>63.0</ele><time>2026-04-19T08:54:23Z</time></trkpt><trkpt lat="37.794952528990194" lon="15.212639532945285"><ele>63.0</ele><time>2026-04-19T08:54:24Z</time></trkpt><trkpt lat="37.795036110706135" lon="15.21253005745755"><ele>63.0</ele><time>2026-04-19T08:54:26Z</time></trkpt><trkpt lat="37.79510933408718" lon="15.212435813616342"><ele>63.0</ele><time>2026-04-19T08:54:28Z</time></trkpt><trkpt lat="37.795177295622096" lon="15.212349833823312"><ele>63.0</ele><time>2026-04-19T08:54:30Z</time></trkpt><trkpt lat="37.79524819195669" lon="15.212260142328672"><ele>63.0</ele><time>2026-04-19T08:54:33Z</time></trkpt><trkpt lat="37.795322195447085" lon="15.21219658993876"><ele>64.0</ele><time>2026-04-19T08:54:35Z</time></trkpt><trkpt lat="37.79541146465992" lon="15.212137238894734"><ele>65.0</ele><time>2026-04-19T08:54:37Z</time></trkpt><trkpt lat="37.79547907757127" lon="15.21210212613778"><ele>66.0</ele><time>2026-04-19T08:54:38Z</time></trkpt><trkpt lat="37.79554575493634" lon="15.21205521452336"><ele>67.0</ele><time>2026-04-19T08:54:39Z</time></trkpt><trkpt lat="37.79561884434904" lon="15.212045914233194"><ele>68.0</ele><time>2026-04-19T08:54:40Z</time></trkpt><trkpt lat="37.79570291843085" lon="15.21203085261493"><ele>69.0</ele><time>2026-04-19T08:54:41Z</time></trkpt><trkpt lat="37.79578347792247" lon="15.211986364807016"><ele>69.0</ele><time>2026-04-19T08:54:42Z</time></trkpt><trkpt lat="37.79587675262052" lon="15.211957288467133"><ele>69.0</ele><time>2026-04-19T08:54:43Z</time></trkpt><trkpt lat="37.79598697966837" lon="15.211946599111709"><ele>69.0</ele><time>2026-04-19T08:54:44Z</time></trkpt><trkpt lat="37.79609800884903" lon="15.211931400433333"><ele>69.0</ele><time>2026-04-19T08:54:45Z</time></trkpt><trkpt lat="37.79621018226972" lon="15.211867348959638"><ele>69.0</ele><time>2026-04-19T08:54:46Z</time></trkpt><trkpt lat="37.79630776066233" lon="15.211821384232977"><ele>69.4</ele><time>2026-04-19T08:54:47Z</time></trkpt><trkpt lat="37.796385334806175" lon="15.211780050165952"><ele>69.80000000000001</ele><time>2026-04-19T08:54:48Z</time></trkpt><trkpt lat="37.79644302114328" lon="15.211731998283346"><ele>70.19999999999999</ele><time>2026-04-19T08:54:49Z</time></trkpt><trkpt lat="37.79651991649073" lon="15.211671804614177"><ele>70.6</ele><time>2026-04-19T08:54:50Z</time></trkpt><trkpt lat="37.79658450611461" lon="15.211592717075906"><ele>71.0</ele><time>2026-04-19T08:54:51Z</time></trkpt><trkpt lat="37.796672507393474" lon="15.211496324262262"><ele>71.16666666666667</ele><time>2026-04-19T08:54:52Z</time></trkpt><trkpt lat="37.796748913220675" lon="15.211402697715908"><ele>71.33333333333334</ele><time>2026-04-19T08:54:53Z</time></trkpt><trkpt lat="37.79681386669177" lon="15.211332842930902"><ele>71.5</ele><time>2026-04-19T08:54:54Z</time></trkpt><trkpt lat="37.79687276135975" lon="15.21126956113038"><ele>71.66666666666667</ele><time>2026-04-19T08:54:55Z</time></trkpt><trkpt lat="37.79694522732447" lon="15.21121701952947"><ele>71.83333333333333</ele><time>2026-04-19T08:54:56Z</time></trkpt><trkpt lat="37.796992324268174" lon="15.211144282270343"><ele>72.0</ele><time>2026-04-19T08:54:57Z</time></trkpt><trkpt lat="37.797037799762535" lon="15.211073419810088"><ele>72.0</ele><time>2026-04-19T08:54:58Z</time></trkpt><trkpt lat="37.797075894447055" lon="15.210999260479939"><ele>72.0</ele><time>2026-04-19T08:54:59Z</time></trkpt><trkpt lat="37.797110025762066" lon="15.210930014321168"><ele>72.0</ele><time>2026-04-19T08:55:00Z</time></trkpt><trkpt lat="37.79717463849272" lon="15.21081539411378"><ele>72.0</ele><time>2026-04-19T08:55:02Z</time></trkpt><trkpt lat="37.79723049046151" lon="15.210733906199133"><ele>72.0</ele><time>2026-04-19T08:55:04.999Z</time></trkpt><trkpt lat="37.797284006771655" lon="15.210661348195174"><ele>72.0</ele><time>2026-04-19T08:55:14.999Z</time></trkpt><trkpt lat="37.7973952579315" lon="15.210631335542985"><ele>72.4</ele><time>2026-04-19T08:55:16.999Z</time></trkpt><trkpt lat="37.79747216736236" lon="15.210660484958265"><ele>72.80000000000001</ele><time>2026-04-19T08:55:17.999Z</time></trkpt><trkpt lat="37.797567724461594" lon="15.210669292407998"><ele>73.2</ele><time>2026-04-19T08:55:18.999Z</time></trkpt><trkpt lat="37.79768561271643" lon="15.210690632072863"><ele>73.60000000000001</ele><time>2026-04-19T08:55:19.999Z</time></trkpt><trkpt lat="37.79781077243835" lon="15.21072696748121"><ele>74.0</ele><time>2026-04-19T08:55:20.999Z</time></trkpt><trkpt lat="37.7979455614139" lon="15.210779784045148"><ele>74.0</ele><time>2026-04-19T08:55:21.999Z</time></trkpt><trkpt lat="37.79809134772205" lon="15.210839391134865"><ele>74.0</ele><time>2026-04-19T08:55:22.999Z</time></trkpt><trkpt lat="37.798235329822866" lon="15.21093461748057"><ele>74.0</ele><time>2026-04-19T08:55:23.999Z</time></trkpt><trkpt lat="37.798392632949444" lon="15.210985350399458"><ele>73.0</ele><time>2026-04-19T08:55:24.999Z</time></trkpt><trkpt lat="37.79855067308015" lon="15.211035408188534"><ele>72.0</ele><time>2026-04-19T08:55:25.999Z</time></trkpt><trkpt lat="37.79870904618742" lon="15.211086028794139"><ele>71.0</ele><time>2026-04-19T08:55:26.999Z</time></trkpt><trkpt lat="37.79885810834322" lon="15.211163406443488"><ele>71.0</ele><time>2026-04-19T08:55:27.999Z</time></trkpt><trkpt lat="37.79899416316546" lon="15.21129409672723"><ele>71.0</ele><time>2026-04-19T08:55:28.999Z</time></trkpt><trkpt lat="37.7991231209665" lon="15.21146246578065"><ele>71.0</ele><time>2026-04-19T08:55:29.999Z</time></trkpt><trkpt lat="37.79923779421462" lon="15.211621135988844"><ele>71.33333333333334</ele><time>2026-04-19T08:55:30.999Z</time></trkpt><trkpt lat="37.799357779301985" lon="15.211792507644828"><ele>71.66666666666667</ele><time>2026-04-19T08:55:31.999Z</time></trkpt><trkpt lat="37.799483278814904" lon="15.21196493040659"><ele>72.0</ele><time>2026-04-19T08:55:32.999Z</time></trkpt><trkpt lat="37.799611672688194" lon="15.212136094149326"><ele>72.0</ele><time>2026-04-19T08:55:33.999Z</time></trkpt><trkpt lat="37.79973295251996" lon="15.212299593290554"><ele>72.0</ele><time>2026-04-19T08:55:34.999Z</time></trkpt><trkpt lat="37.79986109662641" lon="15.21245857456966"><ele>72.0</ele><time>2026-04-19T08:55:35.999Z</time></trkpt><trkpt lat="37.79999867177239" lon="15.212607764813505"><ele>72.0</ele><time>2026-04-19T08:55:36.999Z</time></trkpt><trkpt lat="37.80014759352913" lon="15.212749747149733"><ele>72.0</ele><time>2026-04-19T08:55:37.999Z</time></trkpt><trkpt lat="37.80030490893104" lon="15.212883490716786"><ele>72.0</ele><time>2026-04-19T08:55:38.999Z</time></trkpt><trkpt lat="37.80047001228081" lon="15.213016519611484"><ele>72.33333333333333</ele><time>2026-04-19T08:55:39.999Z</time></trkpt><trkpt lat="37.800642527185644" lon="15.213143893311239"><ele>72.66666666666666</ele><time>2026-04-19T08:55:40.999Z</time></trkpt><trkpt lat="37.80081633435661" lon="15.21327425858609"><ele>73.0</ele><time>2026-04-19T08:55:41.999Z</time></trkpt><trkpt lat="37.80098538743372" lon="15.213411958851864"><ele>70.0</ele><time>2026-04-19T08:55:42.999Z</time></trkpt><trkpt lat="37.80115557021766" lon="15.213565135281927"><ele>67.0</ele><time>2026-04-19T08:55:43.999Z</time></trkpt><trkpt lat="37.80131673427588" lon="15.213725597287818"><ele>64.0</ele><time>2026-04-19T08:55:44.999Z</time></trkpt><trkpt lat="37.80144290296379" lon="15.213904892372938"><ele>65.0</ele><time>2026-04-19T08:55:45.999Z</time></trkpt><trkpt lat="37.80156659593332" lon="15.21408943820572"><ele>66.0</ele><time>2026-04-19T08:55:46.999Z</time></trkpt><trkpt lat="37.80169128931555" lon="15.21429860205416"><ele>67.0</ele><time>2026-04-19T08:55:47.999Z</time></trkpt><trkpt lat="37.801828154257194" lon="15.21451185786853"><ele>63.5</ele><time>2026-04-19T08:55:48.999Z</time></trkpt><trkpt lat="37.801948380486216" lon="15.214764018529081"><ele>60.0</ele><time>2026-04-19T08:55:49.999Z</time></trkpt><trkpt lat="37.802086348188695" lon="15.215018217864639"><ele>60.0</ele><time>2026-04-19T08:55:50.999Z</time></trkpt><trkpt lat="37.80224045165426" lon="15.215281526088503"><ele>60.0</ele><time>2026-04-19T08:55:51.999Z</time></trkpt><trkpt lat="37.802420721757706" lon="15.215559001198374"><ele>59.0</ele><time>2026-04-19T08:55:52.999Z</time></trkpt><trkpt lat="37.80263315289676" lon="15.2158216606478"><ele>58.0</ele><time>2026-04-19T08:55:53.999Z</time></trkpt><trkpt lat="37.8028380821088" lon="15.216055099667368"><ele>57.0</ele><time>2026-04-19T08:55:54.999Z</time></trkpt><trkpt lat="37.80302772721237" lon="15.216259835504838"><ele>56.0</ele><time>2026-04-19T08:55:55.999Z</time></trkpt><trkpt lat="37.803209642564156" lon="15.21644728412738"><ele>55.333333333333336</ele><time>2026-04-19T08:55:56.999Z</time></trkpt><trkpt lat="37.80336916229518" lon="15.216627740495472"><ele>54.66666666666667</ele><time>2026-04-19T08:55:57.999Z</time></trkpt><trkpt lat="37.80352034466015" lon="15.216798269718039"><ele>54.0</ele><time>2026-04-19T08:55:58.999Z</time></trkpt><trkpt lat="37.80366403569133" lon="15.216967841949517"><ele>55.66666666666667</ele><time>2026-04-19T08:55:59.999Z</time></trkpt><trkpt lat="37.80380380519101" lon="15.217141336288107"><ele>57.333333333333336</ele><time>2026-04-19T08:56:00.999Z</time></trkpt><trkpt lat="37.803944730746124" lon="15.217303065574642"><ele>59.0</ele><time>2026-04-19T08:56:01.999Z</time></trkpt><trkpt lat="37.804074090491675" lon="15.217465059444853"><ele>59.0</ele><time>2026-04-19T08:56:02.999Z</time></trkpt><trkpt lat="37.80419053624773" lon="15.21760932613491"><ele>59.0</ele><time>2026-04-19T08:56:04Z</time></trkpt><trkpt lat="37.80430436729854" lon="15.217753234220156"><ele>59.0</ele><time>2026-04-19T08:56:05Z</time></trkpt><trkpt lat="37.80439553211991" lon="15.217929412721801"><ele>59.66666666666667</ele><time>2026-04-19T08:56:06Z</time></trkpt><trkpt lat="37.804497932637396" lon="15.218117730952047"><ele>60.33333333333333</ele><time>2026-04-19T08:56:07Z</time></trkpt><trkpt lat="37.804610476896734" lon="15.218325880202682"><ele>61.0</ele><time>2026-04-19T08:56:08Z</time></trkpt><trkpt lat="37.80474285423354" lon="15.218545919728124"><ele>61.0</ele><time>2026-04-19T08:56:09Z</time></trkpt><trkpt lat="37.80485567491037" lon="15.218758470910787"><ele>61.0</ele><time>2026-04-19T08:56:10Z</time></trkpt><trkpt lat="37.804955713959394" lon="15.218947017276093"><ele>61.0</ele><time>2026-04-19T08:56:11Z</time></trkpt><trkpt lat="37.805045502807076" lon="15.219121943918259"><ele>60.75</ele><time>2026-04-19T08:56:12Z</time></trkpt><trkpt lat="37.80513254743331" lon="15.219283076322393"><ele>60.5</ele><time>2026-04-19T08:56:13Z</time></trkpt><trkpt lat="37.805175110665594" lon="15.219464453611979"><ele>60.25</ele><time>2026-04-19T08:56:14Z</time></trkpt><trkpt lat="37.80525793403329" lon="15.219606399745002"><ele>60.0</ele><time>2026-04-19T08:56:15Z</time></trkpt><trkpt lat="37.805346035200266" lon="15.219756053877393"><ele>59.33333333333333</ele><time>2026-04-19T08:56:16Z</time></trkpt><trkpt lat="37.80544261348873" lon="15.2199126763434"><ele>58.666666666666664</ele><time>2026-04-19T08:56:17Z</time></trkpt><trkpt lat="37.80555505945052" lon="15.220067091478276"><ele>58.0</ele><time>2026-04-19T08:56:18Z</time></trkpt><trkpt lat="37.80567972935819" lon="15.220223082625399"><ele>58.0</ele><time>2026-04-19T08:56:19Z</time></trkpt><trkpt lat="37.80580314404849" lon="15.220358026009368"><ele>58.0</ele><time>2026-04-19T08:56:20Z</time></trkpt><trkpt lat="37.80592897858878" lon="15.220476496742812"><ele>58.0</ele><time>2026-04-19T08:56:21Z</time></trkpt><trkpt lat="37.80603582194902" lon="15.22059186530025"><ele>58.5</ele><time>2026-04-19T08:56:22Z</time></trkpt><trkpt lat="37.80612855756976" lon="15.220696173935979"><ele>59.0</ele><time>2026-04-19T08:56:23Z</time></trkpt><trkpt lat="37.80620474129949" lon="15.220797806158329"><ele>59.5</ele><time>2026-04-19T08:56:24Z</time></trkpt><trkpt lat="37.80624762073644" lon="15.220930353851015"><ele>60.0</ele><time>2026-04-19T08:56:25Z</time></trkpt><trkpt lat="37.806190676341686" lon="15.221084454682744"><ele>60.0</ele><time>2026-04-19T08:56:26Z</time></trkpt><trkpt lat="37.80616519951417" lon="15.2212503513824"><ele>60.0</ele><time>2026-04-19T08:56:27Z</time></trkpt><trkpt lat="37.80614140978722" lon="15.221408010327655"><ele>60.0</ele><time>2026-04-19T08:56:28Z</time></trkpt><trkpt lat="37.806120124545366" lon="15.221562177513736"><ele>60.0</ele><time>2026-04-19T08:56:29Z</time></trkpt><trkpt lat="37.80610060663477" lon="15.221713337408465"><ele>59.6</ele><time>2026-04-19T08:56:30Z</time></trkpt><trkpt lat="37.806080591389666" lon="15.221854810550475"><ele>59.2</ele><time>2026-04-19T08:56:31Z</time></trkpt><trkpt lat="37.80606185899845" lon="15.221981085503202"><ele>58.8</ele><time>2026-04-19T08:56:32Z</time></trkpt><trkpt lat="37.80604357300591" lon="15.222104351187166"><ele>58.4</ele><time>2026-04-19T08:56:33Z</time></trkpt><trkpt lat="37.80601752358423" lon="15.222224872243249"><ele>58.0</ele><time>2026-04-19T08:56:34Z</time></trkpt><trkpt lat="37.806003295732154" lon="15.22234006984672"><ele>57.0</ele><time>2026-04-19T08:56:35Z</time></trkpt><trkpt lat="37.80598965452351" lon="15.222462682478099"><ele>56.0</ele><time>2026-04-19T08:56:36Z</time></trkpt><trkpt lat="37.80597269871957" lon="15.222603942070549"><ele>55.0</ele><time>2026-04-19T08:56:37Z</time></trkpt><trkpt lat="37.80595519816666" lon="15.222751532350042"><ele>54.0</ele><time>2026-04-19T08:56:38Z</time></trkpt><trkpt lat="37.80592963407173" lon="15.222890586702505"><ele>53.0</ele><time>2026-04-19T08:56:39Z</time></trkpt><trkpt lat="37.80590944051813" lon="15.223016410198179"><ele>53.0</ele><time>2026-04-19T08:56:40Z</time></trkpt><trkpt lat="37.80589202263796" lon="15.223140191125465"><ele>53.0</ele><time>2026-04-19T08:56:41Z</time></trkpt><trkpt lat="37.805882025781" lon="15.223262342467338"><ele>53.0</ele><time>2026-04-19T08:56:42Z</time></trkpt><trkpt lat="37.80588155738325" lon="15.223380001910204"><ele>53.0</ele><time>2026-04-19T08:56:43Z</time></trkpt><trkpt lat="37.80591211339168" lon="15.223531709327245"><ele>53.0</ele><time>2026-04-19T08:56:44Z</time></trkpt><trkpt lat="37.80596743711444" lon="15.223696062534636"><ele>53.5</ele><time>2026-04-19T08:56:45Z</time></trkpt><trkpt lat="37.806029367625634" lon="15.22386006801143"><ele>54.0</ele><time>2026-04-19T08:56:46Z</time></trkpt><trkpt lat="37.80607989727584" lon="15.22402568550884"><ele>54.5</ele><time>2026-04-19T08:56:47Z</time></trkpt><trkpt lat="37.80612438243057" lon="15.224189522422842"><ele>55.0</ele><time>2026-04-19T08:56:48Z</time></trkpt><trkpt lat="37.806167626824475" lon="15.22436300637983"><ele>55.0</ele><time>2026-04-19T08:56:49Z</time></trkpt><trkpt lat="37.806204318877704" lon="15.224532293744716"><ele>55.0</ele><time>2026-04-19T08:56:50Z</time></trkpt><trkpt lat="37.80623280473749" lon="15.22469570594228"><ele>55.0</ele><time>2026-04-19T08:56:51Z</time></trkpt><trkpt lat="37.80625886326646" lon="15.224857908722209"><ele>55.0</ele><time>2026-04-19T08:56:52Z</time></trkpt><trkpt lat="37.80625603520937" lon="15.22501565681303"><ele>54.5</ele><time>2026-04-19T08:56:53Z</time></trkpt><trkpt lat="37.806255355834416" lon="15.225173150120394"><ele>54.0</ele><time>2026-04-19T08:56:54Z</time></trkpt><trkpt lat="37.80625681878845" lon="15.225330970748438"><ele>53.5</ele><time>2026-04-19T08:56:55Z</time></trkpt><trkpt lat="37.8062565810092" lon="15.225488204605636"><ele>53.0</ele><time>2026-04-19T08:56:56Z</time></trkpt><trkpt lat="37.80621830340833" lon="15.225660422835814"><ele>51.75</ele><time>2026-04-19T08:56:57Z</time></trkpt><trkpt lat="37.80622820486033" lon="15.22581075958989"><ele>50.5</ele><time>2026-04-19T08:56:58Z</time></trkpt><trkpt lat="37.80624654190169" lon="15.225956118210542"><ele>49.25</ele><time>2026-04-19T08:56:59Z</time></trkpt><trkpt lat="37.80626408725229" lon="15.226100446216096"><ele>48.0</ele><time>2026-04-19T08:57:00Z</time></trkpt><trkpt lat="37.80628857146255" lon="15.226232626823089"><ele>48.0</ele><time>2026-04-19T08:57:01Z</time></trkpt><trkpt lat="37.806315359507224" lon="15.226347955587766"><ele>48.0</ele><time>2026-04-19T08:57:02Z</time></trkpt><trkpt lat="37.806342904798406" lon="15.226449030930327"><ele>48.0</ele><time>2026-04-19T08:57:03Z</time></trkpt><trkpt lat="37.80636378429802" lon="15.22653890693463"><ele>48.0</ele><time>2026-04-19T08:57:04Z</time></trkpt><trkpt lat="37.806384296405746" lon="15.226626322819811"><ele>48.0</ele><time>2026-04-19T08:57:05Z</time></trkpt><trkpt lat="37.806403879144646" lon="15.22671107118855"><ele>48.0</ele><time>2026-04-19T08:57:06Z</time></trkpt><trkpt lat="37.80642779572558" lon="15.226805328492407"><ele>46.8</ele><time>2026-04-19T08:57:07Z</time></trkpt><trkpt lat="37.80646597632106" lon="15.226896403393253"><ele>45.599999999999994</ele><time>2026-04-19T08:57:08Z</time></trkpt><trkpt lat="37.80652639358124" lon="15.226981899916135"><ele>44.400000000000006</ele><time>2026-04-19T08:57:09Z</time></trkpt><trkpt lat="37.806617762150154" lon="15.227048434967436"><ele>43.2</ele><time>2026-04-19T08:57:10Z</time></trkpt><trkpt lat="37.806711228126915" lon="15.227070055971906"><ele>42.0</ele><time>2026-04-19T08:57:11Z</time></trkpt><trkpt lat="37.806803015704006" lon="15.227095268219877"><ele>42.8</ele><time>2026-04-19T08:57:12Z</time></trkpt><trkpt lat="37.80690538055557" lon="15.227128378646544"><ele>43.6</ele><time>2026-04-19T08:57:13Z</time></trkpt><trkpt lat="37.80700157767849" lon="15.227161251025999"><ele>44.4</ele><time>2026-04-19T08:57:13.999Z</time></trkpt><trkpt lat="37.80710024814566" lon="15.227215547910838"><ele>45.199999999999996</ele><time>2026-04-19T08:57:14.999Z</time></trkpt><trkpt lat="37.80719388904098" lon="15.22725885443866"><ele>46.0</ele><time>2026-04-19T08:57:15.999Z</time></trkpt><trkpt lat="37.80728755294135" lon="15.227307628588578"><ele>45.599999999999994</ele><time>2026-04-19T08:57:16.999Z</time></trkpt><trkpt lat="37.80737442725561" lon="15.227362152514575"><ele>45.2</ele><time>2026-04-19T08:57:17.999Z</time></trkpt><trkpt lat="37.80746383929982" lon="15.22741271947792"><ele>44.8</ele><time>2026-04-19T08:57:18.999Z</time></trkpt><trkpt lat="37.80753909241373" lon="15.227474305965842"><ele>44.400000000000006</ele><time>2026-04-19T08:57:19.999Z</time></trkpt><trkpt lat="37.807616752013054" lon="15.227549637660275"><ele>44.0</ele><time>2026-04-19T08:57:20.999Z</time></trkpt><trkpt lat="37.80769811646824" lon="15.227656292952712"><ele>44.0</ele><time>2026-04-19T08:57:21.999Z</time></trkpt><trkpt lat="37.80778299037405" lon="15.227774645808402"><ele>44.0</ele><time>2026-04-19T08:57:22.999Z</time></trkpt><trkpt lat="37.8078538243675" lon="15.227927168498805"><ele>44.0</ele><time>2026-04-19T08:57:23.999Z</time></trkpt><trkpt lat="37.807939690602154" lon="15.228067688471121"><ele>44.0</ele><time>2026-04-19T08:57:24.999Z</time></trkpt><trkpt lat="37.80804181087458" lon="15.228200287469592"><ele>43.6</ele><time>2026-04-19T08:57:25.999Z</time></trkpt><trkpt lat="37.80811723620146" lon="15.228346566728606"><ele>43.2</ele><time>2026-04-19T08:57:26.999Z</time></trkpt><trkpt lat="37.808194483362094" lon="15.228468455941973"><ele>42.800000000000004</ele><time>2026-04-19T08:57:27.999Z</time></trkpt><trkpt lat="37.808258236798956" lon="15.228569053027538"><ele>42.400000000000006</ele><time>2026-04-19T08:57:28.999Z</time></trkpt><trkpt lat="37.808291618670204" lon="15.228653877298834"><ele>42.0</ele><time>2026-04-19T08:57:29.999Z</time></trkpt><trkpt lat="37.80833651902908" lon="15.228728919707887"><ele>42.0</ele><time>2026-04-19T08:57:30.999Z</time></trkpt><trkpt lat="37.80837804016757" lon="15.228808397407898"><ele>42.0</ele><time>2026-04-19T08:57:31.999Z</time></trkpt><trkpt lat="37.808419187844045" lon="15.228878841288036"><ele>42.0</ele><time>2026-04-19T08:57:32.999Z</time></trkpt><trkpt lat="37.8084663240035" lon="15.228950278597127"><ele>42.0</ele><time>2026-04-19T08:57:33.999Z</time></trkpt><trkpt lat="37.80851596330735" lon="15.229029230727354"><ele>42.0</ele><time>2026-04-19T08:57:34.999Z</time></trkpt><trkpt lat="37.80857222328974" lon="15.22911191804493"><ele>42.0</ele><time>2026-04-19T08:57:35.999Z</time></trkpt><trkpt lat="37.80863103817603" lon="15.229182770538172"><ele>41.5</ele><time>2026-04-19T08:57:36.999Z</time></trkpt><trkpt lat="37.80867991739021" lon="15.229251409561687"><ele>41.0</ele><time>2026-04-19T08:57:37.999Z</time></trkpt><trkpt lat="37.80873518977665" lon="15.229321361703999"><ele>40.5</ele><time>2026-04-19T08:57:38.999Z</time></trkpt><trkpt lat="37.80879104869256" lon="15.229397725238716"><ele>40.0</ele><time>2026-04-19T08:57:39.999Z</time></trkpt><trkpt lat="37.80884091123041" lon="15.229485414149558"><ele>39.5</ele><time>2026-04-19T08:57:40.999Z</time></trkpt><trkpt lat="37.808891071761536" lon="15.229567835247726"><ele>39.0</ele><time>2026-04-19T08:57:41.999Z</time></trkpt><trkpt lat="37.808949192125475" lon="15.229639291842826"><ele>39.0</ele><time>2026-04-19T08:57:42.999Z</time></trkpt><trkpt lat="37.80896980319765" lon="15.229745015795157"><ele>39.0</ele><time>2026-04-19T08:57:43.999Z</time></trkpt><trkpt lat="37.80902904127842" lon="15.22983483586018"><ele>39.0</ele><time>2026-04-19T08:57:44.999Z</time></trkpt><trkpt lat="37.80909995858218" lon="15.22992696712866"><ele>39.0</ele><time>2026-04-19T08:57:45.999Z</time></trkpt><trkpt lat="37.809174154215015" lon="15.230024832916959"><ele>39.0</ele><time>2026-04-19T08:57:46.999Z</time></trkpt><trkpt lat="37.809245580536846" lon="15.230126834716055"><ele>39.0</ele><time>2026-04-19T08:57:47.999Z</time></trkpt><trkpt lat="37.80931209108905" lon="15.230228262784612"><ele>39.0</ele><time>2026-04-19T08:57:48.999Z</time></trkpt><trkpt lat="37.80938513413707" lon="15.230330772624397"><ele>39.0</ele><time>2026-04-19T08:57:49.999Z</time></trkpt><trkpt lat="37.80945663282668" lon="15.230440722369794"><ele>39.0</ele><time>2026-04-19T08:57:50.999Z</time></trkpt><trkpt lat="37.80953025155914" lon="15.23055627486541"><ele>39.0</ele><time>2026-04-19T08:57:51.999Z</time></trkpt><trkpt lat="37.809606252609186" lon="15.230682540955632"><ele>38.75</ele><time>2026-04-19T08:57:52.999Z</time></trkpt><trkpt lat="37.80969204725977" lon="15.23081852856254"><ele>38.5</ele><time>2026-04-19T08:57:53.999Z</time></trkpt><trkpt lat="37.809786987417695" lon="15.23095794595802"><ele>38.25</ele><time>2026-04-19T08:57:54.999Z</time></trkpt><trkpt lat="37.80989668199432" lon="15.231111555610214"><ele>38.0</ele><time>2026-04-19T08:57:55.999Z</time></trkpt><trkpt lat="37.81001256068151" lon="15.23130386530879"><ele>37.5</ele><time>2026-04-19T08:57:56.999Z</time></trkpt><trkpt lat="37.81014600994332" lon="15.231517839378144"><ele>37.0</ele><time>2026-04-19T08:57:57.999Z</time></trkpt><trkpt lat="37.81029433777903" lon="15.231750462405515"><ele>36.66666666666667</ele><time>2026-04-19T08:57:58.999Z</time></trkpt><trkpt lat="37.810420158801165" lon="15.23197435885022"><ele>36.333333333333336</ele><time>2026-04-19T08:57:59.999Z</time></trkpt><trkpt lat="37.810540255458456" lon="15.232173048772177"><ele>36.0</ele><time>2026-04-19T08:58:00.999Z</time></trkpt><trkpt lat="37.8106390698979" lon="15.232353975624132"><ele>34.666666666666664</ele><time>2026-04-19T08:58:01.999Z</time></trkpt><trkpt lat="37.81073623096687" lon="15.232508745716865"><ele>33.33333333333333</ele><time>2026-04-19T08:58:02.999Z</time></trkpt><trkpt lat="37.81083367497569" lon="15.232660553044212"><ele>32.0</ele><time>2026-04-19T08:58:03.999Z</time></trkpt><trkpt lat="37.810931561332936" lon="15.232787190205189"><ele>32.75</ele><time>2026-04-19T08:58:04.999Z</time></trkpt><trkpt lat="37.81101456348522" lon="15.232904703882841"><ele>33.5</ele><time>2026-04-19T08:58:05.999Z</time></trkpt><trkpt lat="37.8110808774165" lon="15.233028904553098"><ele>34.25</ele><time>2026-04-19T08:58:06.999Z</time></trkpt><trkpt lat="37.81114482829251" lon="15.233164597674195"><ele>35.0</ele><time>2026-04-19T08:58:07.999Z</time></trkpt><trkpt lat="37.81121411626118" lon="15.233291985502884"><ele>35.0</ele><time>2026-04-19T08:58:08.999Z</time></trkpt><trkpt lat="37.811284732329725" lon="15.23341455564036"><ele>35.0</ele><time>2026-04-19T08:58:10Z</time></trkpt><trkpt lat="37.81135909900245" lon="15.233524066033802"><ele>35.0</ele><time>2026-04-19T08:58:11Z</time></trkpt><trkpt lat="37.81143173517025" lon="15.233626443349902"><ele>35.0</ele><time>2026-04-19T08:58:12Z</time></trkpt><trkpt lat="37.811503564934874" lon="15.233727418145836"><ele>35.0</ele><time>2026-04-19T08:58:13Z</time></trkpt><trkpt lat="37.811565778297144" lon="15.233831585700617"><ele>35.0</ele><time>2026-04-19T08:58:14Z</time></trkpt><trkpt lat="37.81162848628845" lon="15.233929106086888"><ele>35.0</ele><time>2026-04-19T08:58:15Z</time></trkpt><trkpt lat="37.811692936542286" lon="15.234027150772183"><ele>35.0</ele><time>2026-04-19T08:58:16Z</time></trkpt><trkpt lat="37.811763810505994" lon="15.234119568550087"><ele>35.0</ele><time>2026-04-19T08:58:17Z</time></trkpt><trkpt lat="37.81182975083396" lon="15.234224860935303"><ele>34.5</ele><time>2026-04-19T08:58:18Z</time></trkpt><trkpt lat="37.81189962795584" lon="15.23433795140448"><ele>34.0</ele><time>2026-04-19T08:58:19Z</time></trkpt><trkpt lat="37.81198188124066" lon="15.234460054712047"><ele>33.5</ele><time>2026-04-19T08:58:20Z</time></trkpt><trkpt lat="37.81206261664555" lon="15.234586186175678"><ele>33.0</ele><time>2026-04-19T08:58:21Z</time></trkpt><trkpt lat="37.812138846104425" lon="15.234695009983852"><ele>33.0</ele><time>2026-04-19T08:58:22Z</time></trkpt><trkpt lat="37.81220175994153" lon="15.234799114208055"><ele>33.0</ele><time>2026-04-19T08:58:23Z</time></trkpt><trkpt lat="37.8122605699399" lon="15.234890296947848"><ele>33.0</ele><time>2026-04-19T08:58:24Z</time></trkpt><trkpt lat="37.812314147747216" lon="15.234974051945432"><ele>33.0</ele><time>2026-04-19T08:58:25Z</time></trkpt><trkpt lat="37.81233643079778" lon="15.235079362153488"><ele>33.0</ele><time>2026-04-19T08:58:26Z</time></trkpt><trkpt lat="37.81238283093076" lon="15.235156191889267"><ele>33.0</ele><time>2026-04-19T08:58:27Z</time></trkpt><trkpt lat="37.8124254280355" lon="15.23523439152284"><ele>33.0</ele><time>2026-04-19T08:58:28Z</time></trkpt><trkpt lat="37.812486251249794" lon="15.235344072960356"><ele>33.0</ele><time>2026-04-19T08:58:30Z</time></trkpt><trkpt lat="37.81253235273965" lon="15.23540644887528"><ele>33.0</ele><time>2026-04-19T08:58:31Z</time></trkpt><trkpt lat="37.8125880952053" lon="15.235487387386822"><ele>33.0</ele><time>2026-04-19T08:58:32Z</time></trkpt><trkpt lat="37.81263221081967" lon="15.235554990848906"><ele>33.0</ele><time>2026-04-19T08:58:33Z</time></trkpt><trkpt lat="37.81269440607758" lon="15.23566194813521"><ele>33.0</ele><time>2026-04-19T08:58:35Z</time></trkpt><trkpt lat="37.812725887119164" lon="15.235759395336151"><ele>34.0</ele><time>2026-04-19T08:58:36Z</time></trkpt><trkpt lat="37.81278508214034" lon="15.235909397558162"><ele>35.0</ele><time>2026-04-19T08:58:37Z</time></trkpt><trkpt lat="37.8128471338056" lon="15.236086073948806"><ele>36.0</ele><time>2026-04-19T08:58:38Z</time></trkpt><trkpt lat="37.81291575131944" lon="15.236290086396735"><ele>34.0</ele><time>2026-04-19T08:58:39Z</time></trkpt><trkpt lat="37.813004086625" lon="15.236562610250868"><ele>32.0</ele><time>2026-04-19T08:58:40Z</time></trkpt><trkpt lat="37.813099189649186" lon="15.236863688487038"><ele>32.0</ele><time>2026-04-19T08:58:41Z</time></trkpt><trkpt lat="37.813200300635565" lon="15.237205823643492"><ele>32.0</ele><time>2026-04-19T08:58:42Z</time></trkpt><trkpt lat="37.813297169858615" lon="15.23756234213017"><ele>31.0</ele><time>2026-04-19T08:58:43Z</time></trkpt><trkpt lat="37.81339560949427" lon="15.237937298600006"><ele>30.0</ele><time>2026-04-19T08:58:44Z</time></trkpt><trkpt lat="37.81349374373211" lon="15.238322345861409"><ele>30.0</ele><time>2026-04-19T08:58:45Z</time></trkpt><trkpt lat="37.813589095292244" lon="15.238692159015116"><ele>30.0</ele><time>2026-04-19T08:58:46Z</time></trkpt><trkpt lat="37.81367733328179" lon="15.23902407292875"><ele>29.666666666666664</ele><time>2026-04-19T08:58:47Z</time></trkpt><trkpt lat="37.81375431611247" lon="15.23931806366716"><ele>29.333333333333332</ele><time>2026-04-19T08:58:48Z</time></trkpt><trkpt lat="37.81381778937665" lon="15.239558697923854"><ele>29.0</ele><time>2026-04-19T08:58:49Z</time></trkpt><trkpt lat="37.813894566909795" lon="15.239760162479707"><ele>29.0</ele><time>2026-04-19T08:58:50Z</time></trkpt><trkpt lat="37.81399786145993" lon="15.239970968655134"><ele>29.0</ele><time>2026-04-19T08:58:51Z</time></trkpt><trkpt lat="37.814133844621274" lon="15.240189528768479"><ele>29.0</ele><time>2026-04-19T08:58:52Z</time></trkpt><trkpt lat="37.8143100796953" lon="15.240384149400791"><ele>29.0</ele><time>2026-04-19T08:58:53Z</time></trkpt><trkpt lat="37.81442657768451" lon="15.24060190430784"><ele>29.0</ele><time>2026-04-19T08:58:54Z</time></trkpt><trkpt lat="37.81457297247337" lon="15.240810781514666"><ele>29.0</ele><time>2026-04-19T08:58:55Z</time></trkpt><trkpt lat="37.81473120543278" lon="15.241037598864539"><ele>28.5</ele><time>2026-04-19T08:58:56Z</time></trkpt><trkpt lat="37.814902556690264" lon="15.241271775206481"><ele>28.0</ele><time>2026-04-19T08:58:57Z</time></trkpt><trkpt lat="37.81506659200533" lon="15.241490928407654"><ele>27.0</ele><time>2026-04-19T08:58:58Z</time></trkpt><trkpt lat="37.8152074188858" lon="15.241670846538419"><ele>26.0</ele><time>2026-04-19T08:58:59Z</time></trkpt><trkpt lat="37.81533165554404" lon="15.241828424792894"><ele>25.0</ele><time>2026-04-19T08:59:00Z</time></trkpt><trkpt lat="37.81544685073182" lon="15.241983404339335"><ele>25.0</ele><time>2026-04-19T08:59:00.999Z</time></trkpt><trkpt lat="37.81555278603474" lon="15.242115197904011"><ele>25.0</ele><time>2026-04-19T08:59:01.999Z</time></trkpt><trkpt lat="37.81561549276932" lon="15.242260922793879"><ele>25.0</ele><time>2026-04-19T08:59:02.999Z</time></trkpt><trkpt lat="37.81570407192961" lon="15.242372808354155"><ele>25.0</ele><time>2026-04-19T08:59:03.999Z</time></trkpt><trkpt lat="37.81578433119024" lon="15.24248324392362"><ele>25.0</ele><time>2026-04-19T08:59:04.999Z</time></trkpt><trkpt lat="37.815865331224884" lon="15.24259771718555"><ele>25.0</ele><time>2026-04-19T08:59:05.999Z</time></trkpt><trkpt lat="37.81596307621705" lon="15.24273147765794"><ele>25.0</ele><time>2026-04-19T08:59:06.999Z</time></trkpt><trkpt lat="37.8160718373102" lon="15.242886780556303"><ele>25.0</ele><time>2026-04-19T08:59:07.999Z</time></trkpt><trkpt lat="37.81621125694233" lon="15.243077424729078"><ele>25.0</ele><time>2026-04-19T08:59:08.999Z</time></trkpt><trkpt lat="37.816348476201384" lon="15.243269857480175"><ele>25.0</ele><time>2026-04-19T08:59:09.999Z</time></trkpt><trkpt lat="37.81647111262399" lon="15.243445137142372"><ele>25.0</ele><time>2026-04-19T08:59:10.999Z</time></trkpt><trkpt lat="37.816586494725605" lon="15.243597333173728"><ele>25.0</ele><time>2026-04-19T08:59:11.999Z</time></trkpt><trkpt lat="37.81670080007971" lon="15.243738668025275"><ele>25.0</ele><time>2026-04-19T08:59:12.999Z</time></trkpt><trkpt lat="37.816805090518514" lon="15.243869787955813"><ele>25.0</ele><time>2026-04-19T08:59:13.999Z</time></trkpt><trkpt lat="37.81689154925124" lon="15.243984993053596"><ele>25.0</ele><time>2026-04-19T08:59:14.999Z</time></trkpt><trkpt lat="37.816935881548176" lon="15.244118852946427"><ele>25.5</ele><time>2026-04-19T08:59:15.999Z</time></trkpt><trkpt lat="37.81702575689566" lon="15.244240162156744"><ele>26.0</ele><time>2026-04-19T08:59:16.999Z</time></trkpt><trkpt lat="37.81713702078379" lon="15.244386785940193"><ele>26.5</ele><time>2026-04-19T08:59:17.999Z</time></trkpt><trkpt lat="37.81723966226792" lon="15.244525200069377"><ele>27.0</ele><time>2026-04-19T08:59:18.999Z</time></trkpt><trkpt lat="37.817327044350804" lon="15.244643823324314"><ele>27.0</ele><time>2026-04-19T08:59:19.999Z</time></trkpt><trkpt lat="37.817407933783635" lon="15.244751496188073"><ele>27.000000000000004</ele><time>2026-04-19T08:59:20.999Z</time></trkpt><trkpt lat="37.81747848876563" lon="15.244845416361427"><ele>27.000000000000004</ele><time>2026-04-19T08:59:21.999Z</time></trkpt><trkpt lat="37.81753064182643" lon="15.244931417858597"><ele>27.0</ele><time>2026-04-19T08:59:22.999Z</time></trkpt><trkpt lat="37.8175701059965" lon="15.245009679499608"><ele>27.0</ele><time>2026-04-19T08:59:23.999Z</time></trkpt><trkpt lat="37.817608177235726" lon="15.245101199205724"><ele>27.0</ele><time>2026-04-19T08:59:25.999Z</time></trkpt><trkpt lat="37.81764635742186" lon="15.245231830633273"><ele>27.000000000000004</ele><time>2026-04-19T08:59:29.999Z</time></trkpt><trkpt lat="37.817697993452626" lon="15.245371627061724"><ele>27.000000000000004</ele><time>2026-04-19T08:59:31.999Z</time></trkpt><trkpt lat="37.817730618663155" lon="15.245464687791532"><ele>27.0</ele><time>2026-04-19T08:59:32.999Z</time></trkpt><trkpt lat="37.817767870660305" lon="15.245570390840486"><ele>27.0</ele><time>2026-04-19T08:59:33.999Z</time></trkpt><trkpt lat="37.81779418786947" lon="15.245700077349424"><ele>26.75</ele><time>2026-04-19T08:59:34.999Z</time></trkpt><trkpt lat="37.81784763922158" lon="15.245839557369228"><ele>26.5</ele><time>2026-04-19T08:59:35.999Z</time></trkpt><trkpt lat="37.8178946027478" lon="15.245992201893802"><ele>26.25</ele><time>2026-04-19T08:59:36.999Z</time></trkpt><trkpt lat="37.817936885032566" lon="15.246162444136457"><ele>26.0</ele><time>2026-04-19T08:59:37.999Z</time></trkpt><trkpt lat="37.817975713342186" lon="15.246343109687832"><ele>25.25</ele><time>2026-04-19T08:59:38.999Z</time></trkpt><trkpt lat="37.818009816544354" lon="15.24654243933501"><ele>24.5</ele><time>2026-04-19T08:59:39.999Z</time></trkpt><trkpt lat="37.81804745660586" lon="15.24672497970289"><ele>23.75</ele><time>2026-04-19T08:59:40.999Z</time></trkpt><trkpt lat="37.8180912585195" lon="15.24688943390106"><ele>23.0</ele><time>2026-04-19T08:59:41.999Z</time></trkpt><trkpt lat="37.81812272719776" lon="15.24704479652626"><ele>23.0</ele><time>2026-04-19T08:59:42.999Z</time></trkpt><trkpt lat="37.81815904488337" lon="15.247184637074943"><ele>23.0</ele><time>2026-04-19T08:59:43.999Z</time></trkpt><trkpt lat="37.818185628562645" lon="15.247308176830616"><ele>23.0</ele><time>2026-04-19T08:59:44.999Z</time></trkpt><trkpt lat="37.81821675990323" lon="15.247426702010012"><ele>23.0</ele><time>2026-04-19T08:59:45.999Z</time></trkpt><trkpt lat="37.818254362611746" lon="15.247543999758015"><ele>23.0</ele><time>2026-04-19T08:59:46.999Z</time></trkpt><trkpt lat="37.818299015976415" lon="15.247664327362116"><ele>23.799999999999997</ele><time>2026-04-19T08:59:47.999Z</time></trkpt><trkpt lat="37.81834568484431" lon="15.24777038730537"><ele>24.6</ele><time>2026-04-19T08:59:48.999Z</time></trkpt><trkpt lat="37.81840483893616" lon="15.247881323759788"><ele>25.400000000000002</ele><time>2026-04-19T08:59:49.999Z</time></trkpt><trkpt lat="37.81846439408588" lon="15.247993631968772"><ele>26.200000000000003</ele><time>2026-04-19T08:59:50.999Z</time></trkpt><trkpt lat="37.81852533033271" lon="15.248109938305973"><ele>27.0</ele><time>2026-04-19T08:59:51.999Z</time></trkpt><trkpt lat="37.81858576580038" lon="15.24823700956653"><ele>27.8</ele><time>2026-04-19T08:59:52.999Z</time></trkpt><trkpt lat="37.81864232866437" lon="15.248363596616947"><ele>28.6</ele><time>2026-04-19T08:59:53.999Z</time></trkpt><trkpt lat="37.818701601518114" lon="15.248477394334031"><ele>29.400000000000002</ele><time>2026-04-19T08:59:54.999Z</time></trkpt><trkpt lat="37.818755986547" lon="15.248581225037134"><ele>30.200000000000003</ele><time>2026-04-19T08:59:55.999Z</time></trkpt><trkpt lat="37.818805484539325" lon="15.248670112582289"><ele>31.0</ele><time>2026-04-19T08:59:56.999Z</time></trkpt><trkpt lat="37.81884326734971" lon="15.24875179877962"><ele>31.000000000000004</ele><time>2026-04-19T08:59:57.999Z</time></trkpt><trkpt lat="37.818883991208295" lon="15.248837795317863"><ele>31.0</ele><time>2026-04-19T08:59:58.999Z</time></trkpt><trkpt lat="37.818924922074295" lon="15.248919739188826"><ele>31.0</ele><time>2026-04-19T08:59:59.999Z</time></trkpt><trkpt lat="37.81896187782381" lon="15.248992837922692"><ele>31.0</ele><time>2026-04-19T09:00:00.999Z</time></trkpt><trkpt lat="37.8190016094208" lon="15.249064984079528"><ele>31.000000000000004</ele><time>2026-04-19T09:00:01.999Z</time></trkpt><trkpt lat="37.8190570507253" lon="15.249176519476826"><ele>31.0</ele><time>2026-04-19T09:00:03.999Z</time></trkpt><trkpt lat="37.81909196908693" lon="15.249251368509182"><ele>31.166666666666668</ele><time>2026-04-19T09:00:06.999Z</time></trkpt><trkpt lat="37.819142882692816" lon="15.249347750658464"><ele>31.333333333333336</ele><time>2026-04-19T09:00:08.999Z</time></trkpt><trkpt lat="37.819181217244285" lon="15.24944914811282"><ele>31.5</ele><time>2026-04-19T09:00:10.999Z</time></trkpt><trkpt lat="37.819218406030416" lon="15.249523842185779"><ele>31.666666666666664</ele><time>2026-04-19T09:00:11.999Z</time></trkpt><trkpt lat="37.819254897919905" lon="15.249617535749373"><ele>31.833333333333332</ele><time>2026-04-19T09:00:12.999Z</time></trkpt><trkpt lat="37.819309480609284" lon="15.249718841495188"><ele>32.0</ele><time>2026-04-19T09:00:13.999Z</time></trkpt><trkpt lat="37.819363483157595" lon="15.249837198998534"><ele>32.0</ele><time>2026-04-19T09:00:14.999Z</time></trkpt><trkpt lat="37.819422257634535" lon="15.249960587398983"><ele>32.0</ele><time>2026-04-19T09:00:16Z</time></trkpt><trkpt lat="37.81949087026458" lon="15.250096258214398"><ele>32.0</ele><time>2026-04-19T09:00:17Z</time></trkpt><trkpt lat="37.81956517342345" lon="15.250246510038696"><ele>32.0</ele><time>2026-04-19T09:00:18Z</time></trkpt><trkpt lat="37.81966081090197" lon="15.250399897303481"><ele>32.0</ele><time>2026-04-19T09:00:19Z</time></trkpt><trkpt lat="37.81975286387644" lon="15.250557362241764"><ele>32.0</ele><time>2026-04-19T09:00:20Z</time></trkpt><trkpt lat="37.81982757927948" lon="15.250716740506423"><ele>32.0</ele><time>2026-04-19T09:00:21Z</time></trkpt><trkpt lat="37.819899277056706" lon="15.250879050102256"><ele>32.0</ele><time>2026-04-19T09:00:22Z</time></trkpt><trkpt lat="37.819983187545404" lon="15.251028222248745"><ele>32.0</ele><time>2026-04-19T09:00:23Z</time></trkpt><trkpt lat="37.820067023155154" lon="15.251174295624871"><ele>32.0</ele><time>2026-04-19T09:00:24Z</time></trkpt><trkpt lat="37.820143513011146" lon="15.251315091169214"><ele>32.0</ele><time>2026-04-19T09:00:25Z</time></trkpt><trkpt lat="37.82022127769054" lon="15.251455351109675"><ele>32.0</ele><time>2026-04-19T09:00:26Z</time></trkpt><trkpt lat="37.82029697742021" lon="15.251597916761348"><ele>32.0</ele><time>2026-04-19T09:00:27Z</time></trkpt><trkpt lat="37.82037025913019" lon="15.251744259651717"><ele>32.0</ele><time>2026-04-19T09:00:28Z</time></trkpt><trkpt lat="37.820447926069455" lon="15.251883467741905"><ele>32.0</ele><time>2026-04-19T09:00:29Z</time></trkpt><trkpt lat="37.82049183370526" lon="15.252035017422035"><ele>32.0</ele><time>2026-04-19T09:00:30Z</time></trkpt><trkpt lat="37.8205574118286" lon="15.252166678442352"><ele>31.200000000000003</ele><time>2026-04-19T09:00:31Z</time></trkpt><trkpt lat="37.82062437961034" lon="15.25229307853977"><ele>30.400000000000002</ele><time>2026-04-19T09:00:32Z</time></trkpt><trkpt lat="37.82068154352492" lon="15.252421034269378"><ele>29.599999999999998</ele><time>2026-04-19T09:00:33Z</time></trkpt><trkpt lat="37.82071185756378" lon="15.252558528374712"><ele>28.799999999999997</ele><time>2026-04-19T09:00:34Z</time></trkpt><trkpt lat="37.8207447319765" lon="15.252677207418797"><ele>28.0</ele><time>2026-04-19T09:00:35Z</time></trkpt><trkpt lat="37.8207726130046" lon="15.252798700003765"><ele>28.0</ele><time>2026-04-19T09:00:36Z</time></trkpt><trkpt lat="37.82079545963046" lon="15.252918385526698"><ele>27.999999999999996</ele><time>2026-04-19T09:00:37Z</time></trkpt><trkpt lat="37.82081478273745" lon="15.253042201440374"><ele>27.999999999999996</ele><time>2026-04-19T09:00:38Z</time></trkpt><trkpt lat="37.82084363605548" lon="15.253183277645805"><ele>28.0</ele><time>2026-04-19T09:00:39Z</time></trkpt><trkpt lat="37.82085412442342" lon="15.253327192419805"><ele>28.0</ele><time>2026-04-19T09:00:40Z</time></trkpt><trkpt lat="37.82084088446314" lon="15.25347535735944"><ele>27.599999999999998</ele><time>2026-04-19T09:00:41Z</time></trkpt><trkpt lat="37.820836829432146" lon="15.25361921069558"><ele>27.199999999999996</ele><time>2026-04-19T09:00:42Z</time></trkpt><trkpt lat="37.82082945864893" lon="15.253754758973352"><ele>26.8</ele><time>2026-04-19T09:00:43Z</time></trkpt><trkpt lat="37.82081674441072" lon="15.253884849323068"><ele>26.4</ele><time>2026-04-19T09:00:44Z</time></trkpt><trkpt lat="37.82079840546937" lon="15.254025613094473"><ele>26.0</ele><time>2026-04-19T09:00:45Z</time></trkpt><trkpt lat="37.820778695830484" lon="15.254171738407008"><ele>26.0</ele><time>2026-04-19T09:00:46Z</time></trkpt><trkpt lat="37.82075700856419" lon="15.254318168162351"><ele>26.0</ele><time>2026-04-19T09:00:47Z</time></trkpt><trkpt lat="37.82074974551573" lon="15.254473518023275"><ele>26.0</ele><time>2026-04-19T09:00:48Z</time></trkpt><trkpt lat="37.820727810119436" lon="15.254611903120608"><ele>26.0</ele><time>2026-04-19T09:00:49Z</time></trkpt><trkpt lat="37.82068477644456" lon="15.254747000416964"><ele>26.0</ele><time>2026-04-19T09:00:50Z</time></trkpt><trkpt lat="37.82066347386485" lon="15.254885968373848"><ele>26.0</ele><time>2026-04-19T09:00:51Z</time></trkpt><trkpt lat="37.82064698909231" lon="15.255028731725874"><ele>26.0</ele><time>2026-04-19T09:00:52Z</time></trkpt><trkpt lat="37.82063574479229" lon="15.255167072841958"><ele>26.0</ele><time>2026-04-19T09:00:53Z</time></trkpt><trkpt lat="37.82061997091955" lon="15.255311632836753"><ele>26.0</ele><time>2026-04-19T09:00:54Z</time></trkpt><trkpt lat="37.82058461552494" lon="15.255430818875167"><ele>26.0</ele><time>2026-04-19T09:00:55Z</time></trkpt><trkpt lat="37.82057330392197" lon="15.255539770214867"><ele>26.0</ele><time>2026-04-19T09:00:55.999Z</time></trkpt><trkpt lat="37.820546253311434" lon="15.255658475477285"><ele>26.0</ele><time>2026-04-19T09:00:56.999Z</time></trkpt><trkpt lat="37.820527721343986" lon="15.255781908173633"><ele>26.0</ele><time>2026-04-19T09:00:57.999Z</time></trkpt><trkpt lat="37.8205111795504" lon="15.255893867441145"><ele>26.0</ele><time>2026-04-19T09:00:58.999Z</time></trkpt><trkpt lat="37.820499401838106" lon="15.255997294319275"><ele>26.0</ele><time>2026-04-19T09:00:59.999Z</time></trkpt><trkpt lat="37.820476526429445" lon="15.256101158786983"><ele>26.0</ele><time>2026-04-19T09:01:00.999Z</time></trkpt><trkpt lat="37.82045487664855" lon="15.256213769224756"><ele>26.0</ele><time>2026-04-19T09:01:01.999Z</time></trkpt><trkpt lat="37.82043151705763" lon="15.25634561727301"><ele>26.0</ele><time>2026-04-19T09:01:02.999Z</time></trkpt><trkpt lat="37.820406259185766" lon="15.25648522059024"><ele>25.6</ele><time>2026-04-19T09:01:03.999Z</time></trkpt><trkpt lat="37.82039123640131" lon="15.256617884111373"><ele>25.200000000000003</ele><time>2026-04-19T09:01:04.999Z</time></trkpt><trkpt lat="37.820375506801746" lon="15.256747823167574"><ele>24.799999999999997</ele><time>2026-04-19T09:01:05.999Z</time></trkpt><trkpt lat="37.82036029310528" lon="15.25688131710709"><ele>24.4</ele><time>2026-04-19T09:01:06.999Z</time></trkpt><trkpt lat="37.82034613790551" lon="15.257005451496894"><ele>24.0</ele><time>2026-04-19T09:01:07.999Z</time></trkpt><trkpt lat="37.82032781624002" lon="15.25712272278959"><ele>24.0</ele><time>2026-04-19T09:01:08.999Z</time></trkpt><trkpt lat="37.82032209544067" lon="15.257241150610366"><ele>24.0</ele><time>2026-04-19T09:01:09.999Z</time></trkpt><trkpt lat="37.820315269349386" lon="15.257362348025866"><ele>24.0</ele><time>2026-04-19T09:01:10.999Z</time></trkpt><trkpt lat="37.82028956817584" lon="15.25748883218476"><ele>24.0</ele><time>2026-04-19T09:01:11.999Z</time></trkpt><trkpt lat="37.82027881933384" lon="15.257623911499449"><ele>24.0</ele><time>2026-04-19T09:01:12.999Z</time></trkpt><trkpt lat="37.82026882719922" lon="15.257749478573665"><ele>24.2</ele><time>2026-04-19T09:01:13.999Z</time></trkpt><trkpt lat="37.820261567288576" lon="15.257868771713255"><ele>24.4</ele><time>2026-04-19T09:01:14.999Z</time></trkpt><trkpt lat="37.82025586361393" lon="15.257985689572358"><ele>24.6</ele><time>2026-04-19T09:01:15.999Z</time></trkpt><trkpt lat="37.82024996395511" lon="15.258112860189138"><ele>24.8</ele><time>2026-04-19T09:01:16.999Z</time></trkpt><trkpt lat="37.82026180224582" lon="15.258248123075518"><ele>25.0</ele><time>2026-04-19T09:01:17.999Z</time></trkpt><trkpt lat="37.82022825835603" lon="15.258394247774577"><ele>25.0</ele><time>2026-04-19T09:01:18.999Z</time></trkpt><trkpt lat="37.82021995755486" lon="15.258519088245858"><ele>25.0</ele><time>2026-04-19T09:01:19.999Z</time></trkpt><trkpt lat="37.82021737210218" lon="15.25863532435542"><ele>25.0</ele><time>2026-04-19T09:01:20.999Z</time></trkpt><trkpt lat="37.820218849243574" lon="15.258754959221866"><ele>25.0</ele><time>2026-04-19T09:01:21.999Z</time></trkpt><trkpt lat="37.82022739354449" lon="15.2588726566023"><ele>25.0</ele><time>2026-04-19T09:01:22.999Z</time></trkpt><trkpt lat="37.820243009597405" lon="15.259000160871878"><ele>25.0</ele><time>2026-04-19T09:01:23.999Z</time></trkpt><trkpt lat="37.82026625878124" lon="15.259137083374137"><ele>25.0</ele><time>2026-04-19T09:01:24.999Z</time></trkpt><trkpt lat="37.82028263296756" lon="15.259273290318374"><ele>25.0</ele><time>2026-04-19T09:01:25.999Z</time></trkpt><trkpt lat="37.82029329329763" lon="15.259410694915646"><ele>25.0</ele><time>2026-04-19T09:01:26.999Z</time></trkpt><trkpt lat="37.82031516760861" lon="15.25955358321181"><ele>25.0</ele><time>2026-04-19T09:01:27.999Z</time></trkpt><trkpt lat="37.82033392718884" lon="15.259694636917382"><ele>24.6</ele><time>2026-04-19T09:01:28.999Z</time></trkpt><trkpt lat="37.820361617271644" lon="15.25982536685405"><ele>24.2</ele><time>2026-04-19T09:01:29.999Z</time></trkpt><trkpt lat="37.82038187583734" lon="15.259945370458945"><ele>23.799999999999997</ele><time>2026-04-19T09:01:30.999Z</time></trkpt><trkpt lat="37.820398524621076" lon="15.260064819706553"><ele>23.4</ele><time>2026-04-19T09:01:31.999Z</time></trkpt><trkpt lat="37.82042270977336" lon="15.260189842032261"><ele>23.0</ele><time>2026-04-19T09:01:32.999Z</time></trkpt><trkpt lat="37.82043524979293" lon="15.260310568424105"><ele>23.0</ele><time>2026-04-19T09:01:33.999Z</time></trkpt><trkpt lat="37.82045568025066" lon="15.260421234997127"><ele>23.0</ele><time>2026-04-19T09:01:34.999Z</time></trkpt><trkpt lat="37.82048075453677" lon="15.26052864565388"><ele>23.0</ele><time>2026-04-19T09:01:35.999Z</time></trkpt><trkpt lat="37.820504810432666" lon="15.260633549708432"><ele>23.0</ele><time>2026-04-19T09:01:36.999Z</time></trkpt><trkpt lat="37.82054110832934" lon="15.260734334739945"><ele>23.0</ele><time>2026-04-19T09:01:37.999Z</time></trkpt><trkpt lat="37.8205755343663" lon="15.260836746089819"><ele>23.0</ele><time>2026-04-19T09:01:38.999Z</time></trkpt><trkpt lat="37.820616809694734" lon="15.260940260099986"><ele>23.0</ele><time>2026-04-19T09:01:39.999Z</time></trkpt><trkpt lat="37.82065201131372" lon="15.261046790362508"><ele>23.0</ele><time>2026-04-19T09:01:40.999Z</time></trkpt><trkpt lat="37.820682781909944" lon="15.261158923989795"><ele>23.0</ele><time>2026-04-19T09:01:41.999Z</time></trkpt><trkpt lat="37.82069677143804" lon="15.261274093472995"><ele>23.0</ele><time>2026-04-19T09:01:42.999Z</time></trkpt><trkpt lat="37.82071910859685" lon="15.261387920283143"><ele>23.0</ele><time>2026-04-19T09:01:43.999Z</time></trkpt><trkpt lat="37.820752462159184" lon="15.261492768450376"><ele>22.599999999999998</ele><time>2026-04-19T09:01:44.999Z</time></trkpt><trkpt lat="37.82076679708455" lon="15.261595241139066"><ele>22.2</ele><time>2026-04-19T09:01:45.999Z</time></trkpt><trkpt lat="37.82080460798908" lon="15.26168984481962"><ele>21.8</ele><time>2026-04-19T09:01:46.999Z</time></trkpt><trkpt lat="37.82083695491359" lon="15.261816532786229"><ele>21.4</ele><time>2026-04-19T09:01:47.999Z</time></trkpt><trkpt lat="37.82083814266153" lon="15.261946608589026"><ele>21.0</ele><time>2026-04-19T09:01:48.999Z</time></trkpt><trkpt lat="37.82079562669619" lon="15.262057390060134"><ele>21.0</ele><time>2026-04-19T09:01:49.999Z</time></trkpt><trkpt lat="37.82074805037445" lon="15.262150680752974"><ele>21.0</ele><time>2026-04-19T09:01:50.999Z</time></trkpt><trkpt lat="37.82062582384772" lon="15.26223581815004"><ele>21.0</ele><time>2026-04-19T09:01:51.999Z</time></trkpt><trkpt lat="37.820479771214245" lon="15.262287908425158"><ele>21.0</ele><time>2026-04-19T09:01:52.999Z</time></trkpt><trkpt lat="37.820349516139494" lon="15.262343942878445"><ele>21.5</ele><time>2026-04-19T09:01:53.999Z</time></trkpt><trkpt lat="37.82021836548335" lon="15.262397129747164"><ele>22.0</ele><time>2026-04-19T09:01:54.999Z</time></trkpt><trkpt lat="37.82008772733501" lon="15.262432685471056"><ele>22.5</ele><time>2026-04-19T09:01:55.999Z</time></trkpt><trkpt lat="37.81996650282824" lon="15.262497496083142"><ele>23.0</ele><time>2026-04-19T09:01:56.999Z</time></trkpt><trkpt lat="37.819839765392" lon="15.262565350418438"><ele>23.0</ele><time>2026-04-19T09:01:57.999Z</time></trkpt><trkpt lat="37.819714390869215" lon="15.262631978391315"><ele>23.0</ele><time>2026-04-19T09:01:58.999Z</time></trkpt><trkpt lat="37.819580563350094" lon="15.262702978445937"><ele>23.0</ele><time>2026-04-19T09:01:59.999Z</time></trkpt><trkpt lat="37.819443021846396" lon="15.26279992341207"><ele>23.0</ele><time>2026-04-19T09:02:00.999Z</time></trkpt><trkpt lat="37.819285995394864" lon="15.26286777984966"><ele>21.0</ele><time>2026-04-19T09:02:01.999Z</time></trkpt><trkpt lat="37.819134147897294" lon="15.26293479868301"><ele>19.0</ele><time>2026-04-19T09:02:02.999Z</time></trkpt><trkpt lat="37.818987174573934" lon="15.263013908447434"><ele>17.0</ele><time>2026-04-19T09:02:03.999Z</time></trkpt><trkpt lat="37.818856670866815" lon="15.263084623421335"><ele>18.0</ele><time>2026-04-19T09:02:04.999Z</time></trkpt><trkpt lat="37.8187334380081" lon="15.263168375981339"><ele>19.0</ele><time>2026-04-19T09:02:05.999Z</time></trkpt><trkpt lat="37.81863651507721" lon="15.263274245380444"><ele>20.0</ele><time>2026-04-19T09:02:06.999Z</time></trkpt><trkpt lat="37.81855674038594" lon="15.26340869321333"><ele>21.0</ele><time>2026-04-19T09:02:07.999Z</time></trkpt><trkpt lat="37.81849462558086" lon="15.26356223194499"><ele>19.666666666666668</ele><time>2026-04-19T09:02:08.999Z</time></trkpt><trkpt lat="37.818465301388" lon="15.263762030589424"><ele>18.333333333333336</ele><time>2026-04-19T09:02:09.999Z</time></trkpt><trkpt lat="37.81845631044927" lon="15.263967071315848"><ele>17.0</ele><time>2026-04-19T09:02:10.999Z</time></trkpt><trkpt lat="37.81846959093684" lon="15.264167270535461"><ele>17.6</ele><time>2026-04-19T09:02:11.999Z</time></trkpt><trkpt lat="37.818538647890044" lon="15.2643235088919"><ele>18.2</ele><time>2026-04-19T09:02:12.999Z</time></trkpt><trkpt lat="37.81861014479701" lon="15.264454398417023"><ele>18.8</ele><time>2026-04-19T09:02:13.999Z</time></trkpt><trkpt lat="37.818659134134876" lon="15.264564407580718"><ele>19.4</ele><time>2026-04-19T09:02:14.999Z</time></trkpt><trkpt lat="37.818665060618805" lon="15.264658754872585"><ele>20.0</ele><time>2026-04-19T09:02:15.999Z</time></trkpt><trkpt lat="37.818694466710966" lon="15.264741665342497"><ele>19.2</ele><time>2026-04-19T09:02:16.999Z</time></trkpt><trkpt lat="37.81872330359945" lon="15.26482492136545"><ele>18.4</ele><time>2026-04-19T09:02:17.999Z</time></trkpt><trkpt lat="37.81873941946993" lon="15.264923189000033"><ele>17.6</ele><time>2026-04-19T09:02:18.999Z</time></trkpt><trkpt lat="37.81875081448773" lon="15.265046221532403"><ele>16.8</ele><time>2026-04-19T09:02:19.999Z</time></trkpt><trkpt lat="37.818718909689814" lon="15.265187328575578"><ele>16.0</ele><time>2026-04-19T09:02:20.999Z</time></trkpt><trkpt lat="37.81867953237488" lon="15.265358412677667"><ele>16.0</ele><time>2026-04-19T09:02:22Z</time></trkpt><trkpt lat="37.81865418265835" lon="15.265540648686843"><ele>16.0</ele><time>2026-04-19T09:02:23Z</time></trkpt><trkpt lat="37.818614275485466" lon="15.265687570628215"><ele>16.0</ele><time>2026-04-19T09:02:24Z</time></trkpt><trkpt lat="37.81858159206538" lon="15.26581411997199"><ele>16.0</ele><time>2026-04-19T09:02:25Z</time></trkpt><trkpt lat="37.81855598299914" lon="15.265931067710609"><ele>15.999999999999998</ele><time>2026-04-19T09:02:26Z</time></trkpt><trkpt lat="37.81852880554358" lon="15.266048482662503"><ele>16.0</ele><time>2026-04-19T09:02:27Z</time></trkpt><trkpt lat="37.81850468115336" lon="15.266151962132604"><ele>16.0</ele><time>2026-04-19T09:02:28Z</time></trkpt><trkpt lat="37.81848501106274" lon="15.266245353581654"><ele>16.0</ele><time>2026-04-19T09:02:29Z</time></trkpt><trkpt lat="37.81846643728331" lon="15.266388793102152"><ele>15.999999999999998</ele><time>2026-04-19T09:02:31Z</time></trkpt><trkpt lat="37.818432512846435" lon="15.266469359342521"><ele>16.0</ele><time>2026-04-19T09:02:33Z</time></trkpt><trkpt lat="37.818568701525294" lon="15.266532697072936"><ele>16.0</ele><time>2026-04-19T09:02:34Z</time></trkpt><trkpt lat="37.81869938427049" lon="15.266563794579232"><ele>16.0</ele><time>2026-04-19T09:02:35Z</time></trkpt><trkpt lat="37.818815905718594" lon="15.266582480748305"><ele>16.0</ele><time>2026-04-19T09:02:36Z</time></trkpt><trkpt lat="37.81895353403762" lon="15.266616095909978"><ele>16.0</ele><time>2026-04-19T09:02:37Z</time></trkpt><trkpt lat="37.81907107856555" lon="15.266645778360582"><ele>16.0</ele><time>2026-04-19T09:02:38Z</time></trkpt><trkpt lat="37.81919628776669" lon="15.266676166417383"><ele>16.0</ele><time>2026-04-19T09:02:39Z</time></trkpt><trkpt lat="37.819325797700394" lon="15.266715643646439"><ele>16.0</ele><time>2026-04-19T09:02:40Z</time></trkpt><trkpt lat="37.81945158043409" lon="15.266748471612285"><ele>16.0</ele><time>2026-04-19T09:02:41Z</time></trkpt><trkpt lat="37.81958143274201" lon="15.266782875969241"><ele>16.0</ele><time>2026-04-19T09:02:42Z</time></trkpt><trkpt lat="37.81969877424407" lon="15.266818995843863"><ele>16.0</ele><time>2026-04-19T09:02:43Z</time></trkpt><trkpt lat="37.81981888948223" lon="15.266855870420509"><ele>16.0</ele><time>2026-04-19T09:02:44Z</time></trkpt><trkpt lat="37.81993584843894" lon="15.26689261616194"><ele>16.0</ele><time>2026-04-19T09:02:45Z</time></trkpt><trkpt lat="37.820049791314354" lon="15.266927970496521"><ele>16.0</ele><time>2026-04-19T09:02:46Z</time></trkpt><trkpt lat="37.82016044015636" lon="15.266962963408064"><ele>16.0</ele><time>2026-04-19T09:02:47Z</time></trkpt><trkpt lat="37.82026524413953" lon="15.266998143463"><ele>16.0</ele><time>2026-04-19T09:02:47.999Z</time></trkpt><trkpt lat="37.820359648583754" lon="15.267033755223606"><ele>16.0</ele><time>2026-04-19T09:02:48.999Z</time></trkpt><trkpt lat="37.820444793469285" lon="15.267084943685772"><ele>16.0</ele><time>2026-04-19T09:02:49.999Z</time></trkpt><trkpt lat="37.82051478763582" lon="15.267143752506263"><ele>16.0</ele><time>2026-04-19T09:02:50.999Z</time></trkpt><trkpt lat="37.82058461705527" lon="15.267204825988351"><ele>16.0</ele><time>2026-04-19T09:02:51.999Z</time></trkpt><trkpt lat="37.82066671254743" lon="15.267271704244088"><ele>16.0</ele><time>2026-04-19T09:02:52.999Z</time></trkpt><trkpt lat="37.82075146006325" lon="15.267338827276255"><ele>16.0</ele><time>2026-04-19T09:02:53.999Z</time></trkpt><trkpt lat="37.82084672303309" lon="15.267418413462556"><ele>16.0</ele><time>2026-04-19T09:02:54.999Z</time></trkpt><trkpt lat="37.82092632417337" lon="15.267510328450497"><ele>16.0</ele><time>2026-04-19T09:02:55.999Z</time></trkpt><trkpt lat="37.820994098601865" lon="15.26760941395694"><ele>16.0</ele><time>2026-04-19T09:02:56.999Z</time></trkpt><trkpt lat="37.821049235858624" lon="15.267717668444517"><ele>16.0</ele><time>2026-04-19T09:02:57.999Z</time></trkpt><trkpt lat="37.821110969091706" lon="15.267827494777185"><ele>16.0</ele><time>2026-04-19T09:02:58.999Z</time></trkpt><trkpt lat="37.821168643230855" lon="15.267943223626363"><ele>16.0</ele><time>2026-04-19T09:02:59.999Z</time></trkpt><trkpt lat="37.82122156826843" lon="15.268064589395593"><ele>15.75</ele><time>2026-04-19T09:03:00.999Z</time></trkpt><trkpt lat="37.82127974412431" lon="15.268191050644836"><ele>15.5</ele><time>2026-04-19T09:03:01.999Z</time></trkpt><trkpt lat="37.821330128276266" lon="15.268325098374072"><ele>15.25</ele><time>2026-04-19T09:03:02.999Z</time></trkpt><trkpt lat="37.82137638588198" lon="15.268474048118943"><ele>15.0</ele><time>2026-04-19T09:03:03.999Z</time></trkpt><trkpt lat="37.8214282230023" lon="15.268607789651329"><ele>15.0</ele><time>2026-04-19T09:03:04.999Z</time></trkpt><trkpt lat="37.82147900923672" lon="15.268749108747532"><ele>15.0</ele><time>2026-04-19T09:03:05.999Z</time></trkpt><trkpt lat="37.821528415630276" lon="15.268905140516445"><ele>15.0</ele><time>2026-04-19T09:03:06.999Z</time></trkpt><trkpt lat="37.82158825782256" lon="15.269086082324511"><ele>15.0</ele><time>2026-04-19T09:03:07.999Z</time></trkpt><trkpt lat="37.8216556080767" lon="15.269253087266927"><ele>15.0</ele><time>2026-04-19T09:03:08.999Z</time></trkpt><trkpt lat="37.8217089852674" lon="15.269404607933605"><ele>15.0</ele><time>2026-04-19T09:03:09.999Z</time></trkpt><trkpt lat="37.82176249112548" lon="15.269546070863107"><ele>15.0</ele><time>2026-04-19T09:03:10.999Z</time></trkpt><trkpt lat="37.82182294203529" lon="15.269673048755218"><ele>15.0</ele><time>2026-04-19T09:03:11.999Z</time></trkpt><trkpt lat="37.821892979502046" lon="15.269795742292022"><ele>14.833333333333334</ele><time>2026-04-19T09:03:12.999Z</time></trkpt><trkpt lat="37.82195528478703" lon="15.269893303280854"><ele>14.666666666666668</ele><time>2026-04-19T09:03:13.999Z</time></trkpt><trkpt lat="37.822029598696176" lon="15.269965963714407"><ele>14.5</ele><time>2026-04-19T09:03:15.999Z</time></trkpt><trkpt lat="37.82208376186684" lon="15.270018624593813"><ele>14.333333333333334</ele><time>2026-04-19T09:03:16.999Z</time></trkpt><trkpt lat="37.82214917329715" lon="15.270077294579403"><ele>14.166666666666668</ele><time>2026-04-19T09:03:17.999Z</time></trkpt><trkpt lat="37.822231475567854" lon="15.270125959211397"><ele>14.0</ele><time>2026-04-19T09:03:18.999Z</time></trkpt><trkpt lat="37.822327688027755" lon="15.270160045890261"><ele>14.000000000000002</ele><time>2026-04-19T09:03:19.999Z</time></trkpt><trkpt lat="37.82241413261993" lon="15.270198324784864"><ele>14.0</ele><time>2026-04-19T09:03:20.999Z</time></trkpt><trkpt lat="37.822501042066854" lon="15.270241144615053"><ele>14.0</ele><time>2026-04-19T09:03:21.999Z</time></trkpt><trkpt lat="37.82258094359612" lon="15.27027961469075"><ele>14.0</ele><time>2026-04-19T09:03:22.999Z</time></trkpt><trkpt lat="37.822664242138686" lon="15.270308416333242"><ele>14.000000000000002</ele><time>2026-04-19T09:03:23.999Z</time></trkpt><trkpt lat="37.822731706321676" lon="15.270338520913388"><ele>14.0</ele><time>2026-04-19T09:03:24.999Z</time></trkpt><trkpt lat="37.82280432456525" lon="15.27036427620572"><ele>14.285714285714285</ele><time>2026-04-19T09:03:25.999Z</time></trkpt><trkpt lat="37.82287007365387" lon="15.270400970209268"><ele>14.571428571428571</ele><time>2026-04-19T09:03:26.999Z</time></trkpt><trkpt lat="37.82293530213851" lon="15.270435153050535"><ele>14.857142857142858</ele><time>2026-04-19T09:03:27.999Z</time></trkpt><trkpt lat="37.823012678058454" lon="15.270462523988257"><ele>15.142857142857142</ele><time>2026-04-19T09:03:28.999Z</time></trkpt><trkpt lat="37.82309443190941" lon="15.270468717549072"><ele>15.428571428571427</ele><time>2026-04-19T09:03:29.999Z</time></trkpt><trkpt lat="37.82316669782096" lon="15.270463246139192"><ele>15.714285714285714</ele><time>2026-04-19T09:03:30.999Z</time></trkpt><trkpt lat="37.82323391723863" lon="15.270452289277998"><ele>16.0</ele><time>2026-04-19T09:03:31.999Z</time></trkpt><trkpt lat="37.82329736862527" lon="15.270424715530323"><ele>16.0</ele><time>2026-04-19T09:03:32.999Z</time></trkpt><trkpt lat="37.823356771816975" lon="15.270381964385583"><ele>16.0</ele><time>2026-04-19T09:03:33.999Z</time></trkpt><trkpt lat="37.823416140360706" lon="15.27034547469766"><ele>16.0</ele><time>2026-04-19T09:03:34.999Z</time></trkpt><trkpt lat="37.82351892068873" lon="15.27029122158747"><ele>16.0</ele><time>2026-04-19T09:03:36.999Z</time></trkpt><trkpt lat="37.823595043110146" lon="15.270259315573403"><ele>16.0</ele><time>2026-04-19T09:03:38.999Z</time></trkpt><trkpt lat="37.823687642103934" lon="15.270385600265056"><ele>15.833333333333332</ele><time>2026-04-19T09:03:41.999Z</time></trkpt><trkpt lat="37.823728255304246" lon="15.270482640451448"><ele>15.666666666666666</ele><time>2026-04-19T09:03:43.999Z</time></trkpt><trkpt lat="37.82376078992692" lon="15.270560377841395"><ele>15.5</ele><time>2026-04-19T09:03:45.999Z</time></trkpt><trkpt lat="37.82379733563598" lon="15.270647699213043"><ele>15.333333333333332</ele><time>2026-04-19T09:03:47.999Z</time></trkpt><trkpt lat="37.823839370298764" lon="15.270748807243324"><ele>15.166666666666666</ele><time>2026-04-19T09:03:49.999Z</time></trkpt><trkpt lat="37.823858625166224" lon="15.270844497303587"><ele>15.0</ele><time>2026-04-19T09:03:51.999Z</time></trkpt><trkpt lat="37.82389002486367" lon="15.270931657049344"><ele>13.833333333333334</ele><time>2026-04-19T09:03:54.999Z</time></trkpt><trkpt lat="37.82394141432887" lon="15.271027154811476"><ele>12.666666666666666</ele><time>2026-04-19T09:03:57.999Z</time></trkpt><trkpt lat="37.823899004481845" lon="15.271087466014006"><ele>11.5</ele><time>2026-04-19T09:03:58.999Z</time></trkpt><trkpt lat="37.82387666244953" lon="15.271178832637235"><ele>10.333333333333332</ele><time>2026-04-19T09:03:59.999Z</time></trkpt><trkpt lat="37.82382493633187" lon="15.271315212647718"><ele>9.166666666666666</ele><time>2026-04-19T09:04:01.999Z</time></trkpt><trkpt lat="37.82379228596263" lon="15.271391492843417"><ele>8.0</ele><time>2026-04-19T09:04:02.999Z</time></trkpt><trkpt lat="37.823786793481666" lon="15.27147413474985"><ele>7.2</ele><time>2026-04-19T09:04:03.999Z</time></trkpt><trkpt lat="37.823799119568385" lon="15.271618601040414"><ele>6.4</ele><time>2026-04-19T09:04:05.999Z</time></trkpt><trkpt lat="37.82383251084691" lon="15.271745328729594"><ele>5.6000000000000005</ele><time>2026-04-19T09:04:07.999Z</time></trkpt><trkpt lat="37.82382459879368" lon="15.271871770772455"><ele>4.800000000000001</ele><time>2026-04-19T09:04:09.999Z</time></trkpt><trkpt lat="37.82384014169534" lon="15.271966359675362"><ele>4.0</ele><time>2026-04-19T09:04:11.999Z</time></trkpt><trkpt lat="37.8238536338609" lon="15.272056828304134"><ele>4.0</ele><time>2026-04-19T09:04:13.999Z</time></trkpt><trkpt lat="37.823867743100884" lon="15.27215303350017"><ele>4.0</ele><time>2026-04-19T09:04:15.999Z</time></trkpt><trkpt lat="37.823881637337806" lon="15.272266043815886"><ele>4.0</ele><time>2026-04-19T09:04:17.999Z</time></trkpt><trkpt lat="37.82390651309442" lon="15.272419405228726"><ele>4.0</ele><time>2026-04-19T09:04:19.999Z</time></trkpt><trkpt lat="37.82392435624626" lon="15.27252045509981"><ele>4.0</ele><time>2026-04-19T09:04:20.999Z</time></trkpt><trkpt lat="37.8239380843723" lon="15.272616635684457"><ele>3.833333333333333</ele><time>2026-04-19T09:04:21.999Z</time></trkpt><trkpt lat="37.82395404852661" lon="15.272722975451822"><ele>3.6666666666666665</ele><time>2026-04-19T09:04:22.999Z</time></trkpt><trkpt lat="37.82396773855047" lon="15.272821862775617"><ele>3.5</ele><time>2026-04-19T09:04:23.999Z</time></trkpt><trkpt lat="37.82398128757287" lon="15.272914883966607"><ele>3.333333333333333</ele><time>2026-04-19T09:04:24.999Z</time></trkpt><trkpt lat="37.823997827453105" lon="15.27300574360699"><ele>3.1666666666666665</ele><time>2026-04-19T09:04:25.999Z</time></trkpt><trkpt lat="37.824009253491155" lon="15.2730922535067"><ele>3.0</ele><time>2026-04-19T09:04:26.999Z</time></trkpt><trkpt lat="37.82402106838276" lon="15.27318262269283"><ele>3.0</ele><time>2026-04-19T09:04:27.999Z</time></trkpt><trkpt lat="37.82403303597244" lon="15.273269039568547"><ele>3.0</ele><time>2026-04-19T09:04:28.999Z</time></trkpt><trkpt lat="37.824024822161334" lon="15.273372279679856"><ele>3.0</ele><time>2026-04-19T09:04:29.999Z</time></trkpt><trkpt lat="37.82404514327931" lon="15.273457892365593"><ele>3.0</ele><time>2026-04-19T09:04:30.999Z</time></trkpt><trkpt lat="37.82405939621297" lon="15.273541786213428"><ele>3.0</ele><time>2026-04-19T09:04:31.999Z</time></trkpt><trkpt lat="37.824070435458104" lon="15.273621543017573"><ele>3.0</ele><time>2026-04-19T09:04:32.999Z</time></trkpt><trkpt lat="37.82410733401513" lon="15.273765896398134"><ele>3.0</ele><time>2026-04-19T09:04:34.999Z</time></trkpt><trkpt lat="37.824163372311325" lon="15.273878201657222"><ele>3.0</ele><time>2026-04-19T09:04:36.999Z</time></trkpt><trkpt lat="37.82425040126057" lon="15.273977158610473"><ele>3.0</ele><time>2026-04-19T09:04:39Z</time></trkpt><trkpt lat="37.824339885096336" lon="15.274064403521692"><ele>3.0</ele><time>2026-04-19T09:04:41Z</time></trkpt><trkpt lat="37.82441869675678" lon="15.274126220880301"><ele>3.0</ele><time>2026-04-19T09:04:43Z</time></trkpt><trkpt lat="37.82450639540457" lon="15.274194476205805"><ele>2.5</ele><time>2026-04-19T09:04:45Z</time></trkpt><trkpt lat="37.82458950195435" lon="15.274258415702414"><ele>2.0</ele><time>2026-04-19T09:04:47Z</time></trkpt><trkpt lat="37.8246404212693" lon="15.274328267467283"><ele>1.5</ele><time>2026-04-19T09:04:49Z</time></trkpt><trkpt lat="37.82468079035324" lon="15.274434688161408"><ele>1.0</ele><time>2026-04-19T09:04:51.999Z</time></trkpt><trkpt lat="37.824692939965935" lon="15.274526139672052"><ele>0.5</ele><time>2026-04-19T09:04:53.999Z</time></trkpt><trkpt lat="37.824676802745174" lon="15.274651057431125"><ele>0.0</ele><time>2026-04-19T09:04:56.999Z</time></trkpt><trkpt lat="37.824558123208995" lon="15.274688347387265"><ele>0.0</ele><time>2026-04-19T09:04:58.999Z</time></trkpt><trkpt lat="37.82448060043215" lon="15.274720123468807"><ele>0.0</ele><time>2026-04-19T09:04:59.999Z</time></trkpt><trkpt lat="37.82438191910948" lon="15.274759939458914"><ele>0.0</ele><time>2026-04-19T09:05:00.999Z</time></trkpt><trkpt lat="37.82427324627867" lon="15.274803532019968"><ele>0.0</ele><time>2026-04-19T09:05:01.999Z</time></trkpt><trkpt lat="37.82415141710556" lon="15.27483723411472"><ele>0.0</ele><time>2026-04-19T09:05:02.999Z</time></trkpt><trkpt lat="37.82402429265696" lon="15.2748811770907"><ele>0.6</ele><time>2026-04-19T09:05:03.999Z</time></trkpt><trkpt lat="37.82391002998721" lon="15.274922641028475"><ele>1.2</ele><time>2026-04-19T09:05:04.999Z</time></trkpt><trkpt lat="37.82381216976448" lon="15.274965982661568"><ele>1.7999999999999998</ele><time>2026-04-19T09:05:05.999Z</time></trkpt><trkpt lat="37.823732812412295" lon="15.275005411422853"><ele>2.4</ele><time>2026-04-19T09:05:06.999Z</time></trkpt><trkpt lat="37.82364833000954" lon="15.275046696401695"><ele>3.0</ele><time>2026-04-19T09:05:07.999Z</time></trkpt><trkpt lat="37.82355596099057" lon="15.275083189092713"><ele>3.5</ele><time>2026-04-19T09:05:08.999Z</time></trkpt><trkpt lat="37.82346975880038" lon="15.275125286672036"><ele>4.0</ele><time>2026-04-19T09:05:09.999Z</time></trkpt><trkpt lat="37.82339736490343" lon="15.275180585846863"><ele>4.5</ele><time>2026-04-19T09:05:10.999Z</time></trkpt><trkpt lat="37.82334298742847" lon="15.2752396801937"><ele>5.0</ele><time>2026-04-19T09:05:11.999Z</time></trkpt><trkpt lat="37.82330292922099" lon="15.27530285086457"><ele>5.5</ele><time>2026-04-19T09:05:12.999Z</time></trkpt><trkpt lat="37.82324981706975" lon="15.275412012167786"><ele>6.0</ele><time>2026-04-19T09:05:14.999Z</time></trkpt><trkpt lat="37.823313712741005" lon="15.275352572503653"><ele>6.0</ele><time>2026-04-19T09:05:19.999Z</time></trkpt><trkpt lat="37.823316277751346" lon="15.275165399599741"><ele>6.0</ele><time>2026-04-19T09:05:21.999Z</time></trkpt><trkpt lat="37.82340363168574" lon="15.275052220259786"><ele>6.0</ele><time>2026-04-19T09:05:22.999Z</time></trkpt><trkpt lat="37.82355568181194" lon="15.275122615027103"><ele>6.0</ele><time>2026-04-19T09:05:23.999Z</time></trkpt><trkpt lat="37.82363458175409" lon="15.275087350009269"><ele>5.3999999999999995</ele><time>2026-04-19T09:05:24.999Z</time></trkpt><trkpt lat="37.823717563189696" lon="15.275065938666067"><ele>4.8</ele><time>2026-04-19T09:05:25.999Z</time></trkpt><trkpt lat="37.823800846920825" lon="15.275041133361508"><ele>4.199999999999999</ele><time>2026-04-19T09:05:26.999Z</time></trkpt><trkpt lat="37.82388977507826" lon="15.275005618422467"><ele>3.5999999999999996</ele><time>2026-04-19T09:05:27.999Z</time></trkpt><trkpt lat="37.8239875343412" lon="15.274975404444566"><ele>3.0</ele><time>2026-04-19T09:05:28.999Z</time></trkpt><trkpt lat="37.82408838724878" lon="15.27493180925124"><ele>3.0</ele><time>2026-04-19T09:05:29.999Z</time></trkpt><trkpt lat="37.82419326653248" lon="15.274894642578872"><ele>3.0</ele><time>2026-04-19T09:05:30.999Z</time></trkpt><trkpt lat="37.82429770728011" lon="15.274860265533784"><ele>3.0</ele><time>2026-04-19T09:05:31.999Z</time></trkpt><trkpt lat="37.8243912234297" lon="15.274823104700253"><ele>3.0</ele><time>2026-04-19T09:05:32.999Z</time></trkpt><trkpt lat="37.824476428402896" lon="15.274780347491141"><ele>3.0</ele><time>2026-04-19T09:05:33.999Z</time></trkpt><trkpt lat="37.82455084192072" lon="15.274750076846109"><ele>2.5</ele><time>2026-04-19T09:05:34.999Z</time></trkpt><trkpt lat="37.82461279023604" lon="15.274725367525521"><ele>2.0</ele><time>2026-04-19T09:05:35.999Z</time></trkpt><trkpt lat="37.82471140139124" lon="15.27466895243998"><ele>1.5</ele><time>2026-04-19T09:05:37.999Z</time></trkpt><trkpt lat="37.82475384680884" lon="15.274599956946075"><ele>1.0</ele><time>2026-04-19T09:05:39.999Z</time></trkpt><trkpt lat="37.82475443752727" lon="15.274509509736054"><ele>0.5</ele><time>2026-04-19T09:05:41.999Z</time></trkpt><trkpt lat="37.82473205084699" lon="15.274420471960093"><ele>0.0</ele><time>2026-04-19T09:05:43.999Z</time></trkpt><trkpt lat="37.824688065070156" lon="15.274323552333309"><ele>0.0</ele><time>2026-04-19T09:05:45.999Z</time></trkpt><trkpt lat="37.824643817582746" lon="15.27423900652438"><ele>0.0</ele><time>2026-04-19T09:05:47.999Z</time></trkpt><trkpt lat="37.824576840954805" lon="15.274178970750517"><ele>0.0</ele><time>2026-04-19T09:05:49.999Z</time></trkpt><trkpt lat="37.82448765404939" lon="15.274110699587938"><ele>0.0</ele><time>2026-04-19T09:05:51.999Z</time></trkpt><trkpt lat="37.82442347041316" lon="15.27407077693115"><ele>0.0</ele><time>2026-04-19T09:05:52.999Z</time></trkpt><trkpt lat="37.824352581663376" lon="15.274022695252496"><ele>0.0</ele><time>2026-04-19T09:05:53.999Z</time></trkpt><trkpt lat="37.82428376828085" lon="15.273971931031015"><ele>0.6</ele><time>2026-04-19T09:05:54.999Z</time></trkpt><trkpt lat="37.82423392943765" lon="15.273888081007742"><ele>1.2</ele><time>2026-04-19T09:05:55.999Z</time></trkpt><trkpt lat="37.824183860499666" lon="15.273814846750364"><ele>1.7999999999999998</ele><time>2026-04-19T09:05:56.999Z</time></trkpt><trkpt lat="37.82414491936974" lon="15.2737422579612"><ele>2.4</ele><time>2026-04-19T09:05:57.999Z</time></trkpt><trkpt lat="37.82409528828211" lon="15.273584162626507"><ele>3.0</ele><time>2026-04-19T09:05:59.999Z</time></trkpt><trkpt lat="37.82407643935638" lon="15.273469233479515"><ele>3.0</ele><time>2026-04-19T09:06:00.999Z</time></trkpt><trkpt lat="37.82405929697133" lon="15.273340728156217"><ele>3.0</ele><time>2026-04-19T09:06:01.999Z</time></trkpt><trkpt lat="37.82404182419047" lon="15.273198137558726"><ele>3.0</ele><time>2026-04-19T09:06:02.999Z</time></trkpt><trkpt lat="37.82402367711154" lon="15.273051886056525"><ele>3.0</ele><time>2026-04-19T09:06:03.999Z</time></trkpt><trkpt lat="37.823988352957215" lon="15.2729136456323"><ele>3.0</ele><time>2026-04-19T09:06:04.999Z</time></trkpt><trkpt lat="37.82398851395923" lon="15.27275623235966"><ele>3.0</ele><time>2026-04-19T09:06:05.999Z</time></trkpt><trkpt lat="37.82397076410804" lon="15.272614671851148"><ele>3.0</ele><time>2026-04-19T09:06:06.999Z</time></trkpt><trkpt lat="37.823955262208464" lon="15.272486968410846"><ele>3.0</ele><time>2026-04-19T09:06:07.999Z</time></trkpt><trkpt lat="37.8239367144138" lon="15.27236234534566"><ele>3.0</ele><time>2026-04-19T09:06:08.999Z</time></trkpt><trkpt lat="37.82391545225698" lon="15.272245395894506"><ele>3.0</ele><time>2026-04-19T09:06:09.999Z</time></trkpt><trkpt lat="37.82390005827942" lon="15.272121090994423"><ele>3.2</ele><time>2026-04-19T09:06:10.999Z</time></trkpt><trkpt lat="37.82389006703264" lon="15.271991217693067"><ele>3.4</ele><time>2026-04-19T09:06:11.999Z</time></trkpt><trkpt lat="37.823879314257525" lon="15.271852385271087"><ele>3.6000000000000005</ele><time>2026-04-19T09:06:12.999Z</time></trkpt><trkpt lat="37.823861172188444" lon="15.271729436034585"><ele>3.8000000000000003</ele><time>2026-04-19T09:06:13.999Z</time></trkpt><trkpt lat="37.823845696627124" lon="15.271616948630001"><ele>4.0</ele><time>2026-04-19T09:06:14.999Z</time></trkpt><trkpt lat="37.8238340704561" lon="15.271511113794308"><ele>4.800000000000001</ele><time>2026-04-19T09:06:15.999Z</time></trkpt><trkpt lat="37.82382533992592" lon="15.271421377885128"><ele>5.6000000000000005</ele><time>2026-04-19T09:06:16.999Z</time></trkpt><trkpt lat="37.8238543758732" lon="15.271277512747172"><ele>6.4</ele><time>2026-04-19T09:06:18.999Z</time></trkpt><trkpt lat="37.82389667307121" lon="15.271177266269003"><ele>7.2</ele><time>2026-04-19T09:06:19.999Z</time></trkpt><trkpt lat="37.823934123127486" lon="15.271062371033256"><ele>8.0</ele><time>2026-04-19T09:06:20.999Z</time></trkpt><trkpt lat="37.823988285324695" lon="15.270963257645159"><ele>8.0</ele><time>2026-04-19T09:06:21.999Z</time></trkpt><trkpt lat="37.82404039898722" lon="15.270887766072994"><ele>8.0</ele><time>2026-04-19T09:06:22.999Z</time></trkpt><trkpt lat="37.82410341780189" lon="15.270808600274869"><ele>8.0</ele><time>2026-04-19T09:06:23.999Z</time></trkpt><trkpt lat="37.82417570220667" lon="15.270733103157008"><ele>8.0</ele><time>2026-04-19T09:06:24.999Z</time></trkpt><trkpt lat="37.82425861236126" lon="15.270665592251818"><ele>8.0</ele><time>2026-04-19T09:06:25.999Z</time></trkpt><trkpt lat="37.82433827729495" lon="15.270602728730347"><ele>7.666666666666666</ele><time>2026-04-19T09:06:26.999Z</time></trkpt><trkpt lat="37.82440901510744" lon="15.270548955061527"><ele>7.333333333333333</ele><time>2026-04-19T09:06:27.999Z</time></trkpt><trkpt lat="37.82447141966412" lon="15.270490800582232"><ele>7.0</ele><time>2026-04-19T09:06:28.999Z</time></trkpt><trkpt lat="37.82452482734214" lon="15.27043603034041"><ele>6.666666666666666</ele><time>2026-04-19T09:06:29.999Z</time></trkpt><trkpt lat="37.82458154636653" lon="15.270382593297557"><ele>6.333333333333333</ele><time>2026-04-19T09:06:30.999Z</time></trkpt><trkpt lat="37.82464665930158" lon="15.270319595447477"><ele>6.0</ele><time>2026-04-19T09:06:31.999Z</time></trkpt><trkpt lat="37.82471893650582" lon="15.27025925892268"><ele>6.0</ele><time>2026-04-19T09:06:32.999Z</time></trkpt><trkpt lat="37.82478792353886" lon="15.270197184088522"><ele>6.0</ele><time>2026-04-19T09:06:33.999Z</time></trkpt><trkpt lat="37.82485415083151" lon="15.270133446602737"><ele>6.0</ele><time>2026-04-19T09:06:34.999Z</time></trkpt><trkpt lat="37.824918436528534" lon="15.270065738365439"><ele>6.0</ele><time>2026-04-19T09:06:35.999Z</time></trkpt><trkpt lat="37.82498367094874" lon="15.26999405651634"><ele>6.0</ele><time>2026-04-19T09:06:36.999Z</time></trkpt><trkpt lat="37.825050559389574" lon="15.269945527384275"><ele>6.0</ele><time>2026-04-19T09:06:37.999Z</time></trkpt><trkpt lat="37.825108102533626" lon="15.269899109818905"><ele>6.6</ele><time>2026-04-19T09:06:38.999Z</time></trkpt><trkpt lat="37.82520571438207" lon="15.269810551322019"><ele>7.199999999999999</ele><time>2026-04-19T09:06:40.999Z</time></trkpt><trkpt lat="37.8252548479204" lon="15.269752724156149"><ele>7.800000000000001</ele><time>2026-04-19T09:06:41.999Z</time></trkpt><trkpt lat="37.82530408920226" lon="15.269699206651486"><ele>8.4</ele><time>2026-04-19T09:06:42.999Z</time></trkpt><trkpt lat="37.82539713943033" lon="15.269612988646715"><ele>9.0</ele><time>2026-04-19T09:06:44.999Z</time></trkpt><trkpt lat="37.82547560384496" lon="15.269527934906328"><ele>9.0</ele><time>2026-04-19T09:06:46.999Z</time></trkpt><trkpt lat="37.825530488309965" lon="15.269456756308182"><ele>9.0</ele><time>2026-04-19T09:06:49.999Z</time></trkpt><trkpt lat="37.825595800311625" lon="15.26937253556735"><ele>9.0</ele><time>2026-04-19T09:06:52.999Z</time></trkpt><trkpt lat="37.825668080449546" lon="15.269360303106508"><ele>9.0</ele><time>2026-04-19T09:06:54.999Z</time></trkpt><trkpt lat="37.82572874252697" lon="15.26932684550418"><ele>9.0</ele><time>2026-04-19T09:06:57.999Z</time></trkpt><trkpt lat="37.82579184018531" lon="15.269281021158498"><ele>9.0</ele><time>2026-04-19T09:07:01.999Z</time></trkpt><trkpt lat="37.82585638720639" lon="15.269264089129438"><ele>9.0</ele><time>2026-04-19T09:07:07.999Z</time></trkpt><trkpt lat="37.82595621575478" lon="15.269230131034568"><ele>9.0</ele><time>2026-04-19T09:07:10.999Z</time></trkpt><trkpt lat="37.82601975816876" lon="15.269174455322732"><ele>9.0</ele><time>2026-04-19T09:07:12.999Z</time></trkpt><trkpt lat="37.826084584203485" lon="15.269151648618344"><ele>9.0</ele><time>2026-04-19T09:07:15.999Z</time></trkpt><trkpt lat="37.82615482213309" lon="15.269134494026261"><ele>9.0</ele><time>2026-04-19T09:07:19.999Z</time></trkpt><trkpt lat="37.826237337755614" lon="15.269093897641385"><ele>9.0</ele><time>2026-04-19T09:07:22.999Z</time></trkpt><trkpt lat="37.8263167542853" lon="15.269082054006319"><ele>8.666666666666666</ele><time>2026-04-19T09:07:24.999Z</time></trkpt><trkpt lat="37.826386862201666" lon="15.26905944303771"><ele>8.333333333333334</ele><time>2026-04-19T09:07:26.998Z</time></trkpt><trkpt lat="37.82647597088348" lon="15.2690332237579"><ele>8.0</ele><time>2026-04-19T09:07:28.998Z</time></trkpt><trkpt lat="37.82655770278879" lon="15.268999740891445"><ele>7.666666666666667</ele><time>2026-04-19T09:07:30.998Z</time></trkpt><trkpt lat="37.82662523366655" lon="15.26896617733252"><ele>7.333333333333334</ele><time>2026-04-19T09:07:32.998Z</time></trkpt><trkpt lat="37.82668890638663" lon="15.268967294264026"><ele>7.0</ele><time>2026-04-19T09:07:34.998Z</time></trkpt><trkpt lat="37.82675635558037" lon="15.268947687222235"><ele>8.166666666666668</ele><time>2026-04-19T09:07:36.998Z</time></trkpt><trkpt lat="37.82682879876709" lon="15.268929199498329"><ele>9.333333333333334</ele><time>2026-04-19T09:07:38.998Z</time></trkpt><trkpt lat="37.826900066952945" lon="15.268900106121205"><ele>10.5</ele><time>2026-04-19T09:07:41.998Z</time></trkpt><trkpt lat="37.826972330922736" lon="15.268868317359805"><ele>11.666666666666668</ele><time>2026-04-19T09:07:44.998Z</time></trkpt><trkpt lat="37.82703231510033" lon="15.26882617811436"><ele>12.833333333333334</ele><time>2026-04-19T09:07:48.998Z</time></trkpt><trkpt lat="37.82710507052849" lon="15.268800171144425"><ele>14.0</ele><time>2026-04-19T09:07:51.998Z</time></trkpt><trkpt lat="37.82721800858546" lon="15.268774975173999"><ele>14.000000000000002</ele><time>2026-04-19T09:07:53.998Z</time></trkpt><trkpt lat="37.82728180293801" lon="15.268734117367778"><ele>14.0</ele><time>2026-04-19T09:07:54.998Z</time></trkpt><trkpt lat="37.82735417193101" lon="15.268732420047234"><ele>14.0</ele><time>2026-04-19T09:07:55.998Z</time></trkpt><trkpt lat="37.827421319952606" lon="15.26871798681629"><ele>14.0</ele><time>2026-04-19T09:07:56.998Z</time></trkpt><trkpt lat="37.82751002551149" lon="15.268689672210831"><ele>14.000000000000002</ele><time>2026-04-19T09:07:58.998Z</time></trkpt><trkpt lat="37.827592927270615" lon="15.268695822458357"><ele>14.0</ele><time>2026-04-19T09:08:01.998Z</time></trkpt><trkpt lat="37.82767781472991" lon="15.268695736445595"><ele>13.666666666666668</ele><time>2026-04-19T09:08:03.998Z</time></trkpt><trkpt lat="37.82777919196772" lon="15.268717083214753"><ele>13.333333333333334</ele><time>2026-04-19T09:08:05.998Z</time></trkpt><trkpt lat="37.827848108807856" lon="15.268737739064557"><ele>13.0</ele><time>2026-04-19T09:08:06.998Z</time></trkpt><trkpt lat="37.827918556761986" lon="15.26871964466231"><ele>12.666666666666668</ele><time>2026-04-19T09:08:07.998Z</time></trkpt><trkpt lat="37.82799788334813" lon="15.268718558071003"><ele>12.333333333333334</ele><time>2026-04-19T09:08:10.998Z</time></trkpt><trkpt lat="37.82808728393569" lon="15.268719471757189"><ele>12.0</ele><time>2026-04-19T09:08:12.998Z</time></trkpt><trkpt lat="37.828209493629345" lon="15.268720720775693"><ele>12.0</ele><time>2026-04-19T09:08:14.998Z</time></trkpt><trkpt lat="37.82832433582668" lon="15.268727219107646"><ele>12.0</ele><time>2026-04-19T09:08:16.998Z</time></trkpt><trkpt lat="37.828415511799136" lon="15.268730457735003"><ele>12.0</ele><time>2026-04-19T09:08:18.998Z</time></trkpt><trkpt lat="37.828487982011715" lon="15.268732104211459"><ele>12.0</ele><time>2026-04-19T09:08:21.998Z</time></trkpt><trkpt lat="37.82858679474457" lon="15.268724790622988"><ele>12.0</ele><time>2026-04-19T09:08:24.998Z</time></trkpt><trkpt lat="37.82866319422537" lon="15.268729855282048"><ele>12.5</ele><time>2026-04-19T09:08:26.998Z</time></trkpt><trkpt lat="37.828730188410454" lon="15.268726781398351"><ele>13.0</ele><time>2026-04-19T09:08:29.998Z</time></trkpt><trkpt lat="37.82881042859647" lon="15.268723171294665"><ele>13.5</ele><time>2026-04-19T09:08:33.998Z</time></trkpt><trkpt lat="37.82888624140299" lon="15.26871408534088"><ele>14.0</ele><time>2026-04-19T09:08:37.998Z</time></trkpt><trkpt lat="37.82895210542061" lon="15.2687088432425"><ele>14.5</ele><time>2026-04-19T09:08:39.998Z</time></trkpt><trkpt lat="37.82907436697321" lon="15.268719851673382"><ele>15.0</ele><time>2026-04-19T09:08:41.998Z</time></trkpt><trkpt lat="37.82916967467636" lon="15.268724443258405"><ele>15.0</ele><time>2026-04-19T09:08:43.998Z</time></trkpt><trkpt lat="37.829255329059244" lon="15.268725984290835"><ele>15.0</ele><time>2026-04-19T09:08:46.998Z</time></trkpt><trkpt lat="37.82934405847996" lon="15.268736391961887"><ele>15.0</ele><time>2026-04-19T09:08:49.998Z</time></trkpt><trkpt lat="37.82941787483437" lon="15.26876453150124"><ele>15.0</ele><time>2026-04-19T09:08:51.998Z</time></trkpt><trkpt lat="37.82952108296598" lon="15.268783644137194"><ele>15.0</ele><time>2026-04-19T09:08:53.998Z</time></trkpt><trkpt lat="37.8295834727415" lon="15.268796133677315"><ele>15.0</ele><time>2026-04-19T09:08:54.998Z</time></trkpt><trkpt lat="37.829694064861584" lon="15.268826773675428"><ele>15.5</ele><time>2026-04-19T09:08:56.998Z</time></trkpt><trkpt lat="37.82980261257909" lon="15.268862272385473"><ele>16.0</ele><time>2026-04-19T09:08:58.998Z</time></trkpt><trkpt lat="37.82991802625671" lon="15.268893298711255"><ele>16.5</ele><time>2026-04-19T09:09:00.998Z</time></trkpt><trkpt lat="37.8300361447494" lon="15.268919754702013"><ele>17.0</ele><time>2026-04-19T09:09:02.998Z</time></trkpt><trkpt lat="37.83014186650135" lon="15.268949246518781"><ele>14.0</ele><time>2026-04-19T09:09:04.998Z</time></trkpt><trkpt lat="37.83023004922985" lon="15.26897082831046"><ele>11.0</ele><time>2026-04-19T09:09:06.998Z</time></trkpt><trkpt lat="37.830353357927024" lon="15.269005845021226"><ele>8.0</ele><time>2026-04-19T09:09:08.998Z</time></trkpt><trkpt lat="37.83046264332384" lon="15.26903912545798"><ele>5.0</ele><time>2026-04-19T09:09:10.998Z</time></trkpt><trkpt lat="37.83055047184198" lon="15.269075284009991"><ele>2.0</ele><time>2026-04-19T09:09:12.998Z</time></trkpt><trkpt lat="37.83061693753245" lon="15.269101102954808"><ele>2.0</ele><time>2026-04-19T09:09:14.998Z</time></trkpt><trkpt lat="37.83069403523651" lon="15.269130636157964"><ele>2.0</ele><time>2026-04-19T09:09:16.998Z</time></trkpt><trkpt lat="37.830793734693614" lon="15.269171248348542"><ele>2.0</ele><time>2026-04-19T09:09:18.998Z</time></trkpt><trkpt lat="37.83090651728412" lon="15.269216376131197"><ele>2.0</ele><time>2026-04-19T09:09:20.998Z</time></trkpt><trkpt lat="37.83101912511499" lon="15.269273841289118"><ele>2.0</ele><time>2026-04-19T09:09:22.998Z</time></trkpt><trkpt lat="37.831081691787794" lon="15.269306399379964"><ele>3.6</ele><time>2026-04-19T09:09:23.998Z</time></trkpt><trkpt lat="37.83114722085503" lon="15.269348701715177"><ele>5.2</ele><time>2026-04-19T09:09:24.998Z</time></trkpt><trkpt lat="37.831204237288354" lon="15.26939214251209"><ele>6.8</ele><time>2026-04-19T09:09:25.998Z</time></trkpt><trkpt lat="37.83130730323815" lon="15.269438281552215"><ele>8.4</ele><time>2026-04-19T09:09:27.998Z</time></trkpt><trkpt lat="37.83143464860738" lon="15.269491224240204"><ele>10.0</ele><time>2026-04-19T09:09:29.998Z</time></trkpt><trkpt lat="37.831515550738935" lon="15.269530922050722"><ele>10.0</ele><time>2026-04-19T09:09:30.998Z</time></trkpt><trkpt lat="37.83161115715233" lon="15.269594193839266"><ele>10.0</ele><time>2026-04-19T09:09:31.998Z</time></trkpt><trkpt lat="37.831696036886335" lon="15.269646376970881"><ele>10.0</ele><time>2026-04-19T09:09:32.998Z</time></trkpt><trkpt lat="37.831763869024144" lon="15.26968774954407"><ele>10.0</ele><time>2026-04-19T09:09:33.998Z</time></trkpt><trkpt lat="37.831823548422115" lon="15.269714668774787"><ele>10.0</ele><time>2026-04-19T09:09:34.998Z</time></trkpt><trkpt lat="37.831921178335094" lon="15.269774933200196"><ele>10.0</ele><time>2026-04-19T09:09:36.998Z</time></trkpt><trkpt lat="37.832000190930884" lon="15.269840147438755"><ele>9.0</ele><time>2026-04-19T09:09:38.998Z</time></trkpt><trkpt lat="37.832061857560845" lon="15.269877403952181"><ele>8.0</ele><time>2026-04-19T09:09:40.998Z</time></trkpt><trkpt lat="37.8321613242217" lon="15.269935014745721"><ele>7.0</ele><time>2026-04-19T09:09:42.998Z</time></trkpt><trkpt lat="37.8322411938957" lon="15.270006331333342"><ele>6.0</ele><time>2026-04-19T09:09:43.998Z</time></trkpt><trkpt lat="37.832332692037944" lon="15.270072792376151"><ele>5.0</ele><time>2026-04-19T09:09:44.998Z</time></trkpt><trkpt lat="37.83239131128813" lon="15.270107659255736"><ele>4.0</ele><time>2026-04-19T09:09:45.998Z</time></trkpt><trkpt lat="37.83245934412773" lon="15.270180583637176"><ele>4.0</ele><time>2026-04-19T09:09:47.998Z</time></trkpt><trkpt lat="37.832522382429396" lon="15.270241707415853"><ele>4.0</ele><time>2026-04-19T09:09:48.998Z</time></trkpt><trkpt lat="37.832607423602816" lon="15.270321777381556"><ele>4.0</ele><time>2026-04-19T09:09:49.998Z</time></trkpt><trkpt lat="37.832697722651396" lon="15.270400039692726"><ele>4.0</ele><time>2026-04-19T09:09:50.998Z</time></trkpt><trkpt lat="37.83279639050302" lon="15.270481044794415"><ele>4.0</ele><time>2026-04-19T09:09:51.998Z</time></trkpt><trkpt lat="37.83290223258478" lon="15.270559416407993"><ele>4.4</ele><time>2026-04-19T09:09:52.998Z</time></trkpt><trkpt lat="37.83300076528343" lon="15.27063331574471"><ele>4.800000000000001</ele><time>2026-04-19T09:09:53.997Z</time></trkpt><trkpt lat="37.833103165910806" lon="15.270704652092379"><ele>5.199999999999999</ele><time>2026-04-19T09:09:54.997Z</time></trkpt><trkpt lat="37.833185823849476" lon="15.27078175615042"><ele>5.6</ele><time>2026-04-19T09:09:55.997Z</time></trkpt><trkpt lat="37.83327588324641" lon="15.270859303494454"><ele>6.0</ele><time>2026-04-19T09:09:56.997Z</time></trkpt><trkpt lat="37.83336415880773" lon="15.270931825333482"><ele>6.0</ele><time>2026-04-19T09:09:57.997Z</time></trkpt><trkpt lat="37.833461096324" lon="15.270996382174562"><ele>6.0</ele><time>2026-04-19T09:09:58.997Z</time></trkpt><trkpt lat="37.83355104653424" lon="15.271063713819638"><ele>6.0</ele><time>2026-04-19T09:09:59.997Z</time></trkpt><trkpt lat="37.83363873042534" lon="15.271126543163998"><ele>6.0</ele><time>2026-04-19T09:10:00.997Z</time></trkpt><trkpt lat="37.83372267977831" lon="15.271200006234848"><ele>6.0</ele><time>2026-04-19T09:10:01.997Z</time></trkpt><trkpt lat="37.83380581316881" lon="15.271262197777903"><ele>6.199999999999999</ele><time>2026-04-19T09:10:02.997Z</time></trkpt><trkpt lat="37.83389233589447" lon="15.271330963740878"><ele>6.3999999999999995</ele><time>2026-04-19T09:10:03.997Z</time></trkpt><trkpt lat="37.8339722552895" lon="15.27139411992972"><ele>6.6</ele><time>2026-04-19T09:10:04.998Z</time></trkpt><trkpt lat="37.83405546673673" lon="15.271442758820667"><ele>6.8</ele><time>2026-04-19T09:10:05.997Z</time></trkpt><trkpt lat="37.83413248112841" lon="15.271502602289257"><ele>7.0</ele><time>2026-04-19T09:10:06.997Z</time></trkpt><trkpt lat="37.834217104796956" lon="15.271557268621528"><ele>7.000000000000001</ele><time>2026-04-19T09:10:07.997Z</time></trkpt><trkpt lat="37.834287843790015" lon="15.271609180514504"><ele>7.0</ele><time>2026-04-19T09:10:08.997Z</time></trkpt><trkpt lat="37.834354036254126" lon="15.271652501023867"><ele>7.0</ele><time>2026-04-19T09:10:09.997Z</time></trkpt><trkpt lat="37.83441896779381" lon="15.271696868816115"><ele>7.0</ele><time>2026-04-19T09:10:10.997Z</time></trkpt><trkpt lat="37.83448603366994" lon="15.271733881573688"><ele>7.000000000000001</ele><time>2026-04-19T09:10:11.997Z</time></trkpt><trkpt lat="37.83454242265817" lon="15.271773669436634"><ele>7.0</ele><time>2026-04-19T09:10:12.997Z</time></trkpt><trkpt lat="37.83465076729057" lon="15.271843726129175"><ele>7.199999999999999</ele><time>2026-04-19T09:10:14.997Z</time></trkpt><trkpt lat="37.834708961044875" lon="15.271874396727764"><ele>7.3999999999999995</ele><time>2026-04-19T09:10:15.997Z</time></trkpt><trkpt lat="37.834806897226734" lon="15.271940513302937"><ele>7.6000000000000005</ele><time>2026-04-19T09:10:17.997Z</time></trkpt><trkpt lat="37.83487659195895" lon="15.271996107101286"><ele>7.800000000000001</ele><time>2026-04-19T09:10:19.997Z</time></trkpt><trkpt lat="37.83495299715722" lon="15.272054317122057"><ele>8.0</ele><time>2026-04-19T09:10:21.997Z</time></trkpt><trkpt lat="37.83507471936561" lon="15.272118265729436"><ele>7.833333333333333</ele><time>2026-04-19T09:10:23.997Z</time></trkpt><trkpt lat="37.83514381755542" lon="15.272161958523878"><ele>7.666666666666666</ele><time>2026-04-19T09:10:24.997Z</time></trkpt><trkpt lat="37.83522488619013" lon="15.272215504329084"><ele>7.5</ele><time>2026-04-19T09:10:25.997Z</time></trkpt><trkpt lat="37.83530396350802" lon="15.272268695842211"><ele>7.333333333333334</ele><time>2026-04-19T09:10:26.997Z</time></trkpt><trkpt lat="37.835386494708" lon="15.27231301170844"><ele>7.166666666666667</ele><time>2026-04-19T09:10:27.997Z</time></trkpt><trkpt lat="37.835465093646164" lon="15.27236236138244"><ele>7.0</ele><time>2026-04-19T09:10:28.997Z</time></trkpt><trkpt lat="37.835544502713205" lon="15.272414566650538"><ele>7.000000000000001</ele><time>2026-04-19T09:10:29.997Z</time></trkpt><trkpt lat="37.83560909898385" lon="15.272460141853355"><ele>7.0</ele><time>2026-04-19T09:10:30.997Z</time></trkpt><trkpt lat="37.83566954402543" lon="15.272489715470263"><ele>7.0</ele><time>2026-04-19T09:10:32.997Z</time></trkpt><trkpt lat="37.8357508995724" lon="15.27252200941358"><ele>7.0</ele><time>2026-04-19T09:10:37.997Z</time></trkpt><trkpt lat="37.8358425006661" lon="15.272622043372076"><ele>7.000000000000001</ele><time>2026-04-19T09:10:39.997Z</time></trkpt><trkpt lat="37.83590187273477" lon="15.272697986207705"><ele>7.0</ele><time>2026-04-19T09:10:40.997Z</time></trkpt><trkpt lat="37.83596331916244" lon="15.272790999782902"><ele>7.666666666666667</ele><time>2026-04-19T09:10:41.997Z</time></trkpt><trkpt lat="37.83601888639734" lon="15.272895139767911"><ele>8.333333333333334</ele><time>2026-04-19T09:10:42.997Z</time></trkpt><trkpt lat="37.836072713563155" lon="15.272978745124275"><ele>9.0</ele><time>2026-04-19T09:10:43.997Z</time></trkpt><trkpt lat="37.83613609132873" lon="15.27305850600238"><ele>9.666666666666666</ele><time>2026-04-19T09:10:44.997Z</time></trkpt><trkpt lat="37.83620014071066" lon="15.27311869342211"><ele>10.333333333333332</ele><time>2026-04-19T09:10:45.997Z</time></trkpt><trkpt lat="37.83624799390112" lon="15.273184701835733"><ele>11.0</ele><time>2026-04-19T09:10:46.997Z</time></trkpt><trkpt lat="37.83633578566138" lon="15.273306874330444"><ele>11.0</ele><time>2026-04-19T09:10:48.997Z</time></trkpt><trkpt lat="37.83639703911472" lon="15.273377037133512"><ele>11.0</ele><time>2026-04-19T09:10:49.997Z</time></trkpt><trkpt lat="37.8364558013114" lon="15.273468772764087"><ele>11.0</ele><time>2026-04-19T09:10:50.997Z</time></trkpt><trkpt lat="37.83650902910882" lon="15.273551870619988"><ele>11.0</ele><time>2026-04-19T09:10:51.997Z</time></trkpt><trkpt lat="37.83657190420033" lon="15.27363029527957"><ele>11.0</ele><time>2026-04-19T09:10:52.997Z</time></trkpt><trkpt lat="37.83663358305781" lon="15.273696774447298"><ele>11.0</ele><time>2026-04-19T09:10:53.997Z</time></trkpt><trkpt lat="37.836701311328326" lon="15.273769759892902"><ele>11.0</ele><time>2026-04-19T09:10:54.997Z</time></trkpt><trkpt lat="37.836777857110036" lon="15.273868381732596"><ele>11.0</ele><time>2026-04-19T09:10:55.997Z</time></trkpt><trkpt lat="37.836845131048726" lon="15.273967497443149"><ele>11.0</ele><time>2026-04-19T09:10:56.997Z</time></trkpt><trkpt lat="37.836902396021564" lon="15.274066142678514"><ele>11.0</ele><time>2026-04-19T09:10:57.997Z</time></trkpt><trkpt lat="37.83696603141605" lon="15.274149049207052"><ele>11.0</ele><time>2026-04-19T09:10:58.997Z</time></trkpt><trkpt lat="37.83702468921848" lon="15.274235779579755"><ele>11.666666666666666</ele><time>2026-04-19T09:10:59.997Z</time></trkpt><trkpt lat="37.83709115614039" lon="15.274292244280451"><ele>12.333333333333332</ele><time>2026-04-19T09:11:00.997Z</time></trkpt><trkpt lat="37.837140169525966" lon="15.274361177101646"><ele>13.0</ele><time>2026-04-19T09:11:01.997Z</time></trkpt><trkpt lat="37.837185465948934" lon="15.274435292230496"><ele>13.666666666666666</ele><time>2026-04-19T09:11:02.997Z</time></trkpt><trkpt lat="37.837230593881024" lon="15.274494063023143"><ele>14.333333333333334</ele><time>2026-04-19T09:11:03.997Z</time></trkpt><trkpt lat="37.837292908469564" lon="15.274574875147838"><ele>15.0</ele><time>2026-04-19T09:11:05.997Z</time></trkpt><trkpt lat="37.83735207616473" lon="15.274656019872264"><ele>15.0</ele><time>2026-04-19T09:11:07.997Z</time></trkpt><trkpt lat="37.83742959586718" lon="15.274766952210365"><ele>15.0</ele><time>2026-04-19T09:11:09.997Z</time></trkpt><trkpt lat="37.83748257641929" lon="15.274842854561482"><ele>15.0</ele><time>2026-04-19T09:11:10.997Z</time></trkpt><trkpt lat="37.837535736881094" lon="15.274922131956638"><ele>15.0</ele><time>2026-04-19T09:11:11.997Z</time></trkpt><trkpt lat="37.83758972541084" lon="15.275011025125803"><ele>15.0</ele><time>2026-04-19T09:11:12.997Z</time></trkpt><trkpt lat="37.83764870532673" lon="15.275095337003124"><ele>15.6</ele><time>2026-04-19T09:11:13.997Z</time></trkpt><trkpt lat="37.837700842478064" lon="15.275176959714978"><ele>16.2</ele><time>2026-04-19T09:11:14.997Z</time></trkpt><trkpt lat="37.83775504788119" lon="15.275265246982585"><ele>16.8</ele><time>2026-04-19T09:11:15.997Z</time></trkpt><trkpt lat="37.83781516782799" lon="15.275349960628462"><ele>17.4</ele><time>2026-04-19T09:11:16.997Z</time></trkpt><trkpt lat="37.83788359105099" lon="15.275443276735311"><ele>18.0</ele><time>2026-04-19T09:11:17.997Z</time></trkpt><trkpt lat="37.83796113059292" lon="15.27553907666701"><ele>15.333333333333334</ele><time>2026-04-19T09:11:18.997Z</time></trkpt><trkpt lat="37.838058499627536" lon="15.275668131391441"><ele>12.666666666666668</ele><time>2026-04-19T09:11:19.997Z</time></trkpt><trkpt lat="37.83815586765377" lon="15.27584605367387"><ele>10.0</ele><time>2026-04-19T09:11:20.997Z</time></trkpt><trkpt lat="37.83825592135736" lon="15.275966004613458"><ele>10.0</ele><time>2026-04-19T09:11:21.997Z</time></trkpt><trkpt lat="37.83831768063289" lon="15.27603475559005"><ele>10.0</ele><time>2026-04-19T09:11:22.997Z</time></trkpt><trkpt lat="37.83838358497225" lon="15.276070454746028"><ele>10.0</ele><time>2026-04-19T09:11:23.997Z</time></trkpt><trkpt lat="37.838515779732454" lon="15.276154195200926"><ele>10.0</ele><time>2026-04-19T09:11:25.997Z</time></trkpt><trkpt lat="37.83863023350759" lon="15.276208333120445"><ele>10.0</ele><time>2026-04-19T09:11:26.997Z</time></trkpt><trkpt lat="37.83874062990883" lon="15.27628945914141"><ele>9.8</ele><time>2026-04-19T09:11:27.997Z</time></trkpt><trkpt lat="37.83883854022668" lon="15.2763655252994"><ele>9.6</ele><time>2026-04-19T09:11:28.997Z</time></trkpt><trkpt lat="37.83892719022145" lon="15.276431945631549"><ele>9.4</ele><time>2026-04-19T09:11:29.997Z</time></trkpt><trkpt lat="37.83901231892701" lon="15.276478544655122"><ele>9.2</ele><time>2026-04-19T09:11:30.997Z</time></trkpt><trkpt lat="37.83909672585291" lon="15.276523668935125"><ele>9.0</ele><time>2026-04-19T09:11:31.997Z</time></trkpt><trkpt lat="37.839168973287705" lon="15.276571822686957"><ele>9.0</ele><time>2026-04-19T09:11:32.997Z</time></trkpt><trkpt lat="37.83924514257317" lon="15.276621851341716"><ele>9.0</ele><time>2026-04-19T09:11:33.997Z</time></trkpt><trkpt lat="37.83930408548474" lon="15.276656918454561"><ele>9.0</ele><time>2026-04-19T09:11:34.997Z</time></trkpt><trkpt lat="37.839408008230464" lon="15.276730625698102"><ele>9.0</ele><time>2026-04-19T09:11:36.997Z</time></trkpt><trkpt lat="37.839508911137656" lon="15.276802583668852"><ele>9.0</ele><time>2026-04-19T09:11:38.997Z</time></trkpt><trkpt lat="37.83962799837069" lon="15.276881945063147"><ele>10.0</ele><time>2026-04-19T09:11:40.997Z</time></trkpt><trkpt lat="37.8397032707641" lon="15.276919434993264"><ele>11.0</ele><time>2026-04-19T09:11:41.997Z</time></trkpt><trkpt lat="37.83977156062899" lon="15.2769572609537"><ele>12.0</ele><time>2026-04-19T09:11:42.997Z</time></trkpt><trkpt lat="37.8398477523021" lon="15.277009832992661"><ele>13.0</ele><time>2026-04-19T09:11:43.997Z</time></trkpt><trkpt lat="37.83991854545687" lon="15.277059271454982"><ele>14.0</ele><time>2026-04-19T09:11:44.997Z</time></trkpt><trkpt lat="37.83998186520092" lon="15.277115341906137"><ele>15.0</ele><time>2026-04-19T09:11:45.997Z</time></trkpt><trkpt lat="37.8400340036322" lon="15.277196354340902"><ele>15.0</ele><time>2026-04-19T09:11:46.997Z</time></trkpt><trkpt lat="37.840094920563246" lon="15.277239587972627"><ele>15.0</ele><time>2026-04-19T09:11:47.997Z</time></trkpt><trkpt lat="37.84011428870184" lon="15.277324203305213"><ele>15.0</ele><time>2026-04-19T09:11:48.997Z</time></trkpt><trkpt lat="37.840180740049796" lon="15.27741169907941"><ele>15.0</ele><time>2026-04-19T09:11:50.997Z</time></trkpt><trkpt lat="37.840266146804645" lon="15.277506684619041"><ele>15.0</ele><time>2026-04-19T09:11:52.997Z</time></trkpt><trkpt lat="37.84032479493305" lon="15.277570069502357"><ele>15.0</ele><time>2026-04-19T09:11:53.997Z</time></trkpt><trkpt lat="37.84039506841569" lon="15.27764469069533"><ele>15.333333333333334</ele><time>2026-04-19T09:11:54.997Z</time></trkpt><trkpt lat="37.84046449053036" lon="15.27772143248771"><ele>15.666666666666668</ele><time>2026-04-19T09:11:55.997Z</time></trkpt><trkpt lat="37.840510438688966" lon="15.277787767789667"><ele>16.0</ele><time>2026-04-19T09:11:56.997Z</time></trkpt><trkpt lat="37.84055422156495" lon="15.27784698795166"><ele>16.333333333333336</ele><time>2026-04-19T09:11:57.997Z</time></trkpt><trkpt lat="37.84062588140577" lon="15.277956724610643"><ele>16.666666666666668</ele><time>2026-04-19T09:11:59.997Z</time></trkpt><trkpt lat="37.84066835375038" lon="15.278022610294387"><ele>17.0</ele><time>2026-04-19T09:12:01.997Z</time></trkpt><trkpt lat="37.84071060142706" lon="15.278085965166532"><ele>17.5</ele><time>2026-04-19T09:12:04.997Z</time></trkpt><trkpt lat="37.84076790062883" lon="15.278191930331367"><ele>18.0</ele><time>2026-04-19T09:12:06.997Z</time></trkpt><trkpt lat="37.84081045854607" lon="15.27825935641831"><ele>18.5</ele><time>2026-04-19T09:12:07.997Z</time></trkpt><trkpt lat="37.84086386010925" lon="15.278321121918745"><ele>19.0</ele><time>2026-04-19T09:12:08.997Z</time></trkpt><trkpt lat="37.840905528811234" lon="15.278382179972283"><ele>19.5</ele><time>2026-04-19T09:12:09.997Z</time></trkpt><trkpt lat="37.84098610577721" lon="15.278500526684768"><ele>20.0</ele><time>2026-04-19T09:12:11.997Z</time></trkpt><trkpt lat="37.841025601438844" lon="15.278575148392346"><ele>20.0</ele><time>2026-04-19T09:12:12.997Z</time></trkpt><trkpt lat="37.84107560717286" lon="15.278663484616814"><ele>20.0</ele><time>2026-04-19T09:12:13.997Z</time></trkpt><trkpt lat="37.84112864256312" lon="15.278769434961239"><ele>20.0</ele><time>2026-04-19T09:12:14.997Z</time></trkpt><trkpt lat="37.84116065031441" lon="15.278867967308951"><ele>20.0</ele><time>2026-04-19T09:12:15.997Z</time></trkpt><trkpt lat="37.84118537388226" lon="15.278945413429625"><ele>20.0</ele><time>2026-04-19T09:12:16.997Z</time></trkpt><trkpt lat="37.84121523902048" lon="15.279061791219135"><ele>20.0</ele><time>2026-04-19T09:12:18.997Z</time></trkpt><trkpt lat="37.84124662240802" lon="15.279140930574908"><ele>18.4</ele><time>2026-04-19T09:12:20.996Z</time></trkpt><trkpt lat="37.84126897834905" lon="15.279221078314205"><ele>16.8</ele><time>2026-04-19T09:12:22.996Z</time></trkpt><trkpt lat="37.84131663388833" lon="15.27932258509679"><ele>15.2</ele><time>2026-04-19T09:12:24.996Z</time></trkpt><trkpt lat="37.84137593113752" lon="15.279421091179657"><ele>13.6</ele><time>2026-04-19T09:12:26.996Z</time></trkpt><trkpt lat="37.84145618549359" lon="15.279525548888596"><ele>12.0</ele><time>2026-04-19T09:12:28.996Z</time></trkpt><trkpt lat="37.8415358087193" lon="15.279610903534628"><ele>12.0</ele><time>2026-04-19T09:12:30.996Z</time></trkpt><trkpt lat="37.84163213560588" lon="15.279650943875662"><ele>12.0</ele><time>2026-04-19T09:12:32.996Z</time></trkpt><trkpt lat="37.841721799546036" lon="15.27967823267391"><ele>12.0</ele><time>2026-04-19T09:12:34.996Z</time></trkpt><trkpt lat="37.84180973609543" lon="15.279712184902074"><ele>12.0</ele><time>2026-04-19T09:12:36.996Z</time></trkpt><trkpt lat="37.8418827083511" lon="15.27975320600912"><ele>12.0</ele><time>2026-04-19T09:12:38.996Z</time></trkpt><trkpt lat="37.84194878121224" lon="15.279797645788225"><ele>12.0</ele><time>2026-04-19T09:12:40.996Z</time></trkpt><trkpt lat="37.84203215025041" lon="15.279853620921674"><ele>11.6</ele><time>2026-04-19T09:12:42.996Z</time></trkpt><trkpt lat="37.84213274300183" lon="15.279902060945863"><ele>11.2</ele><time>2026-04-19T09:12:44.996Z</time></trkpt><trkpt lat="37.84221740635691" lon="15.27997296253371"><ele>10.8</ele><time>2026-04-19T09:12:46.996Z</time></trkpt><trkpt lat="37.84228610899798" lon="15.280024099721846"><ele>10.4</ele><time>2026-04-19T09:12:48.996Z</time></trkpt><trkpt lat="37.84236589107875" lon="15.280067474950314"><ele>10.0</ele><time>2026-04-19T09:12:50.996Z</time></trkpt><trkpt lat="37.84246975091838" lon="15.280077145088727"><ele>10.0</ele><time>2026-04-19T09:12:52.996Z</time></trkpt><trkpt lat="37.842565542770956" lon="15.279958278836865"><ele>10.0</ele><time>2026-04-19T09:12:54.996Z</time></trkpt><trkpt lat="37.842651273521945" lon="15.27987511131936"><ele>10.0</ele><time>2026-04-19T09:12:55.996Z</time></trkpt><trkpt lat="37.84274906991861" lon="15.279791927771319"><ele>10.0</ele><time>2026-04-19T09:12:56.996Z</time></trkpt><trkpt lat="37.842860730983105" lon="15.279735592147295"><ele>11.4</ele><time>2026-04-19T09:12:57.996Z</time></trkpt><trkpt lat="37.842953787182395" lon="15.279678415181364"><ele>12.8</ele><time>2026-04-19T09:12:58.996Z</time></trkpt><trkpt lat="37.84303771124783" lon="15.279618090508517"><ele>14.2</ele><time>2026-04-19T09:12:59.996Z</time></trkpt><trkpt lat="37.84312859967789" lon="15.279590697976012"><ele>15.6</ele><time>2026-04-19T09:13:00.996Z</time></trkpt><trkpt lat="37.84320884888812" lon="15.279629605834575"><ele>17.0</ele><time>2026-04-19T09:13:01.996Z</time></trkpt><trkpt lat="37.84323893209528" lon="15.279742008314631"><ele>17.6</ele><time>2026-04-19T09:13:02.996Z</time></trkpt><trkpt lat="37.843291354603835" lon="15.279804177769028"><ele>18.2</ele><time>2026-04-19T09:13:03.996Z</time></trkpt><trkpt lat="37.843340234050395" lon="15.279865725233346"><ele>18.8</ele><time>2026-04-19T09:13:04.996Z</time></trkpt><trkpt lat="37.843424142784464" lon="15.279969168958088"><ele>19.4</ele><time>2026-04-19T09:13:05.996Z</time></trkpt><trkpt lat="37.84351250452331" lon="15.280078863675913"><ele>20.0</ele><time>2026-04-19T09:13:06.996Z</time></trkpt><trkpt lat="37.84360101509499" lon="15.280188815167378"><ele>20.0</ele><time>2026-04-19T09:13:07.996Z</time></trkpt><trkpt lat="37.843684754708384" lon="15.280293513537272"><ele>20.0</ele><time>2026-04-19T09:13:08.996Z</time></trkpt><trkpt lat="37.84377675115678" lon="15.28041223824832"><ele>20.0</ele><time>2026-04-19T09:13:09.996Z</time></trkpt><trkpt lat="37.84388393224576" lon="15.280551691486062"><ele>20.0</ele><time>2026-04-19T09:13:10.996Z</time></trkpt><trkpt lat="37.84401509068036" lon="15.280688920159989"><ele>18.333333333333336</ele><time>2026-04-19T09:13:11.996Z</time></trkpt><trkpt lat="37.844125016586666" lon="15.280857223446443"><ele>16.666666666666668</ele><time>2026-04-19T09:13:12.996Z</time></trkpt><trkpt lat="37.84424591603353" lon="15.281027912004484"><ele>15.0</ele><time>2026-04-19T09:13:13.996Z</time></trkpt><trkpt lat="37.84437694935516" lon="15.281193832323414"><ele>19.333333333333336</ele><time>2026-04-19T09:13:14.996Z</time></trkpt><trkpt lat="37.84448603262897" lon="15.281379661476421"><ele>23.666666666666668</ele><time>2026-04-19T09:13:15.996Z</time></trkpt><trkpt lat="37.844622656874485" lon="15.281536069638367"><ele>28.0</ele><time>2026-04-19T09:13:16.996Z</time></trkpt><trkpt lat="37.844773936347956" lon="15.281665725577332"><ele>28.0</ele><time>2026-04-19T09:13:17.996Z</time></trkpt><trkpt lat="37.84492578154384" lon="15.281787644872065"><ele>28.0</ele><time>2026-04-19T09:13:18.996Z</time></trkpt><trkpt lat="37.845081609636615" lon="15.28191771861832"><ele>28.0</ele><time>2026-04-19T09:13:19.996Z</time></trkpt><trkpt lat="37.845233280330795" lon="15.282054147599341"><ele>25.0</ele><time>2026-04-19T09:13:20.996Z</time></trkpt><trkpt lat="37.84538232875269" lon="15.282187358006349"><ele>22.0</ele><time>2026-04-19T09:13:21.996Z</time></trkpt><trkpt lat="37.84551872102619" lon="15.282317308017356"><ele>19.0</ele><time>2026-04-19T09:13:22.996Z</time></trkpt><trkpt lat="37.845631334159705" lon="15.28244489858735"><ele>19.0</ele><time>2026-04-19T09:13:23.996Z</time></trkpt><trkpt lat="37.84573192317991" lon="15.282566178651864"><ele>19.0</ele><time>2026-04-19T09:13:24.996Z</time></trkpt><trkpt lat="37.8458201919698" lon="15.282682645729274"><ele>19.0</ele><time>2026-04-19T09:13:25.996Z</time></trkpt><trkpt lat="37.84589736193278" lon="15.282787526014657"><ele>19.0</ele><time>2026-04-19T09:13:26.996Z</time></trkpt><trkpt lat="37.84596693557817" lon="15.282880830924974"><ele>21.0</ele><time>2026-04-19T09:13:27.996Z</time></trkpt><trkpt lat="37.84604965970644" lon="15.28293330192838"><ele>23.0</ele><time>2026-04-19T09:13:28.996Z</time></trkpt><trkpt lat="37.84613141054892" lon="15.282993328105134"><ele>25.0</ele><time>2026-04-19T09:13:29.996Z</time></trkpt><trkpt lat="37.846240386699485" lon="15.283064145365598"><ele>27.0</ele><time>2026-04-19T09:13:30.996Z</time></trkpt><trkpt lat="37.84640232252449" lon="15.283134451712701"><ele>27.0</ele><time>2026-04-19T09:13:31.996Z</time></trkpt><trkpt lat="37.84655803388544" lon="15.283257367893055"><ele>27.0</ele><time>2026-04-19T09:13:32.996Z</time></trkpt><trkpt lat="37.84672508550769" lon="15.283379096482873"><ele>27.0</ele><time>2026-04-19T09:13:33.996Z</time></trkpt><trkpt lat="37.84685093046979" lon="15.283502352306654"><ele>27.25</ele><time>2026-04-19T09:13:34.996Z</time></trkpt><trkpt lat="37.84694315259252" lon="15.283623937399838"><ele>27.5</ele><time>2026-04-19T09:13:35.996Z</time></trkpt><trkpt lat="37.84703970471424" lon="15.283742182779656"><ele>27.75</ele><time>2026-04-19T09:13:36.996Z</time></trkpt><trkpt lat="37.847132872131205" lon="15.283848954874411"><ele>28.0</ele><time>2026-04-19T09:13:37.996Z</time></trkpt><trkpt lat="37.847170069411725" lon="15.283960214411765"><ele>28.0</ele><time>2026-04-19T09:13:38.996Z</time></trkpt><trkpt lat="37.847220876655165" lon="15.28403444274628"><ele>28.0</ele><time>2026-04-19T09:13:39.996Z</time></trkpt><trkpt lat="37.84726728270359" lon="15.284109480667675"><ele>28.0</ele><time>2026-04-19T09:13:40.996Z</time></trkpt><trkpt lat="37.84731053493063" lon="15.284183755956773"><ele>28.0</ele><time>2026-04-19T09:13:41.996Z</time></trkpt><trkpt lat="37.84736653384379" lon="15.284238714447943"><ele>28.0</ele><time>2026-04-19T09:13:42.996Z</time></trkpt><trkpt lat="37.847403905910944" lon="15.284313663266923"><ele>28.0</ele><time>2026-04-19T09:13:43.996Z</time></trkpt><trkpt lat="37.847441262259416" lon="15.284394610575216"><ele>28.0</ele><time>2026-04-19T09:13:44.996Z</time></trkpt><trkpt lat="37.847472774363155" lon="15.284520843468917"><ele>28.0</ele><time>2026-04-19T09:13:45.996Z</time></trkpt><trkpt lat="37.847547932460294" lon="15.284687677021056"><ele>28.0</ele><time>2026-04-19T09:13:46.996Z</time></trkpt><trkpt lat="37.84763771746585" lon="15.284840690535104"><ele>28.0</ele><time>2026-04-19T09:13:47.996Z</time></trkpt><trkpt lat="37.84772658360607" lon="15.285005645464354"><ele>28.5</ele><time>2026-04-19T09:13:48.996Z</time></trkpt><trkpt lat="37.8478134181705" lon="15.285145879998492"><ele>29.0</ele><time>2026-04-19T09:13:49.996Z</time></trkpt><trkpt lat="37.84790388213641" lon="15.285273710381686"><ele>29.5</ele><time>2026-04-19T09:13:50.996Z</time></trkpt><trkpt lat="37.84800361697147" lon="15.28538898927305"><ele>30.0</ele><time>2026-04-19T09:13:51.996Z</time></trkpt><trkpt lat="37.84808099386402" lon="15.285524697187283"><ele>29.0</ele><time>2026-04-19T09:13:52.996Z</time></trkpt><trkpt lat="37.8481352796704" lon="15.285661126115647"><ele>28.0</ele><time>2026-04-19T09:13:53.996Z</time></trkpt><trkpt lat="37.84820689616166" lon="15.285768199926219"><ele>27.0</ele><time>2026-04-19T09:13:54.996Z</time></trkpt><trkpt lat="37.848240645887365" lon="15.285894420703183"><ele>26.0</ele><time>2026-04-19T09:13:55.996Z</time></trkpt><trkpt lat="37.84829485944249" lon="15.286021849015677"><ele>26.0</ele><time>2026-04-19T09:13:56.996Z</time></trkpt><trkpt lat="37.848329414675426" lon="15.286190391333678"><ele>26.0</ele><time>2026-04-19T09:13:57.996Z</time></trkpt><trkpt lat="37.84830864034013" lon="15.286408254872457"><ele>26.0</ele><time>2026-04-19T09:13:58.996Z</time></trkpt><trkpt lat="37.84832801977014" lon="15.286652291008725"><ele>22.5</ele><time>2026-04-19T09:13:59.996Z</time></trkpt><trkpt lat="37.848361175075254" lon="15.2869252640595"><ele>19.0</ele><time>2026-04-19T09:14:00.996Z</time></trkpt><trkpt lat="37.84841238879807" lon="15.28722625792732"><ele>17.5</ele><time>2026-04-19T09:14:01.996Z</time></trkpt><trkpt lat="37.84839394546613" lon="15.287545289060322"><ele>16.0</ele><time>2026-04-19T09:14:02.996Z</time></trkpt><trkpt lat="37.84838130115137" lon="15.287895229448717"><ele>16.0</ele><time>2026-04-19T09:14:03.996Z</time></trkpt><trkpt lat="37.84838856423606" lon="15.288221699100209"><ele>16.0</ele><time>2026-04-19T09:14:04.996Z</time></trkpt><trkpt lat="37.84843058898986" lon="15.288544361864465"><ele>36.0</ele><time>2026-04-19T09:14:05.996Z</time></trkpt><trkpt lat="37.84846503772648" lon="15.288863982616157"><ele>56.0</ele><time>2026-04-19T09:14:06.996Z</time></trkpt><trkpt lat="37.84847539891715" lon="15.289202643658994"><ele>62.5</ele><time>2026-04-19T09:14:07.996Z</time></trkpt><trkpt lat="37.848482801061714" lon="15.289514930522005"><ele>69.0</ele><time>2026-04-19T09:14:08.996Z</time></trkpt><trkpt lat="37.8484895342835" lon="15.289798186362953"><ele>56.0</ele><time>2026-04-19T09:14:09.996Z</time></trkpt><trkpt lat="37.848445657666154" lon="15.290038707719626"><ele>43.0</ele><time>2026-04-19T09:14:10.996Z</time></trkpt><trkpt lat="37.84835355348522" lon="15.290286911245936"><ele>30.0</ele><time>2026-04-19T09:14:11.996Z</time></trkpt><trkpt lat="37.84823298178282" lon="15.290562646190928"><ele>36.66666666666667</ele><time>2026-04-19T09:14:12.996Z</time></trkpt><trkpt lat="37.84811587725172" lon="15.290784336874156"><ele>43.333333333333336</ele><time>2026-04-19T09:14:13.996Z</time></trkpt><trkpt lat="37.84796661237278" lon="15.290965711114023"><ele>50.0</ele><time>2026-04-19T09:14:14.996Z</time></trkpt><trkpt lat="37.8478579002847" lon="15.291213048454932"><ele>55.66666666666667</ele><time>2026-04-19T09:14:15.996Z</time></trkpt><trkpt lat="37.84781231146697" lon="15.291449987553127"><ele>61.33333333333333</ele><time>2026-04-19T09:14:16.996Z</time></trkpt><trkpt lat="37.84775666859383" lon="15.29169095207731"><ele>67.0</ele><time>2026-04-19T09:14:17.996Z</time></trkpt><trkpt lat="37.84774813886626" lon="15.29197399644323"><ele>66.5</ele><time>2026-04-19T09:14:18.996Z</time></trkpt><trkpt lat="37.84779320435967" lon="15.292271352384859"><ele>66.0</ele><time>2026-04-19T09:14:19.996Z</time></trkpt><trkpt lat="37.84787358587636" lon="15.292524789762396"><ele>66.0</ele><time>2026-04-19T09:14:20.996Z</time></trkpt><trkpt lat="37.84795872875792" lon="15.29274373125827"><ele>66.0</ele><time>2026-04-19T09:14:21.996Z</time></trkpt><trkpt lat="37.84804050759888" lon="15.292910264880202"><ele>66.0</ele><time>2026-04-19T09:14:22.996Z</time></trkpt><trkpt lat="37.8481069156938" lon="15.293039590143039"><ele>68.5</ele><time>2026-04-19T09:14:23.996Z</time></trkpt><trkpt lat="37.84807748726384" lon="15.293158886885674"><ele>71.0</ele><time>2026-04-19T09:14:24.996Z</time></trkpt><trkpt lat="37.84801396391542" lon="15.293267417736423"><ele>73.5</ele><time>2026-04-19T09:14:25.996Z</time></trkpt><trkpt lat="37.847885032252044" lon="15.293336618421646"><ele>76.0</ele><time>2026-04-19T09:14:26.996Z</time></trkpt><trkpt lat="37.84769470513764" lon="15.293605671318387"><ele>67.0</ele><time>2026-04-19T09:14:27.996Z</time></trkpt><trkpt lat="37.84756572270553" lon="15.29383726276917"><ele>58.0</ele><time>2026-04-19T09:14:28.996Z</time></trkpt><trkpt lat="37.84746030561594" lon="15.294037417789783"><ele>49.0</ele><time>2026-04-19T09:14:29.996Z</time></trkpt><trkpt lat="37.84735740085022" lon="15.294219741680807"><ele>49.0</ele><time>2026-04-19T09:14:30.996Z</time></trkpt><trkpt lat="37.84725260046759" lon="15.294390023360528"><ele>49.0</ele><time>2026-04-19T09:14:31.996Z</time></trkpt><trkpt lat="37.847145784846504" lon="15.294547743140674"><ele>49.0</ele><time>2026-04-19T09:14:32.996Z</time></trkpt><trkpt lat="37.84704859480293" lon="15.29468726165201"><ele>47.5</ele><time>2026-04-19T09:14:33.996Z</time></trkpt><trkpt lat="37.846956876394664" lon="15.294810497156641"><ele>46.0</ele><time>2026-04-19T09:14:34.996Z</time></trkpt><trkpt lat="37.84686949479985" lon="15.294920912379038"><ele>44.5</ele><time>2026-04-19T09:14:35.996Z</time></trkpt><trkpt lat="37.846790542288204" lon="15.29501907676912"><ele>43.0</ele><time>2026-04-19T09:14:36.996Z</time></trkpt><trkpt lat="37.84671634373458" lon="15.295093479533314"><ele>43.0</ele><time>2026-04-19T09:14:37.996Z</time></trkpt><trkpt lat="37.84665360355159" lon="15.295145787736127"><ele>43.0</ele><time>2026-04-19T09:14:38.996Z</time></trkpt><trkpt lat="37.84658653391577" lon="15.295203011053612"><ele>43.0</ele><time>2026-04-19T09:14:39.996Z</time></trkpt><trkpt lat="37.84651009794633" lon="15.29528713981558"><ele>43.0</ele><time>2026-04-19T09:14:40.996Z</time></trkpt><trkpt lat="37.846455984309266" lon="15.295373303701075"><ele>43.0</ele><time>2026-04-19T09:14:41.996Z</time></trkpt><trkpt lat="37.846417637387276" lon="15.295453117006392"><ele>43.0</ele><time>2026-04-19T09:14:42.996Z</time></trkpt><trkpt lat="37.8463951591883" lon="15.295559104911367"><ele>43.0</ele><time>2026-04-19T09:14:44.996Z</time></trkpt><trkpt lat="37.846418848860495" lon="15.295468323069187"><ele>43.0</ele><time>2026-04-19T09:18:08.994Z</time></trkpt><trkpt lat="37.84639360676152" lon="15.295575188866984"><ele>43.0</ele><time>2026-04-19T09:18:10.994Z</time></trkpt><trkpt lat="37.84637939164489" lon="15.295677473723517"><ele>43.0</ele><time>2026-04-19T09:18:11.994Z</time></trkpt><trkpt lat="37.846372698381494" lon="15.295776794277204"><ele>43.0</ele><time>2026-04-19T09:18:12.994Z</time></trkpt><trkpt lat="37.84636702714756" lon="15.295895943774752"><ele>43.0</ele><time>2026-04-19T09:18:13.994Z</time></trkpt><trkpt lat="37.84636187992337" lon="15.296022846883083"><ele>47.25</ele><time>2026-04-19T09:18:14.994Z</time></trkpt><trkpt lat="37.84635843527932" lon="15.296155680920771"><ele>51.5</ele><time>2026-04-19T09:18:15.994Z</time></trkpt><trkpt lat="37.84635715879044" lon="15.296295632590695"><ele>55.75</ele><time>2026-04-19T09:18:16.994Z</time></trkpt><trkpt lat="37.84636244223719" lon="15.29645467740946"><ele>60.0</ele><time>2026-04-19T09:18:17.994Z</time></trkpt><trkpt lat="37.846406198505306" lon="15.296586263691374"><ele>60.0</ele><time>2026-04-19T09:18:18.994Z</time></trkpt><trkpt lat="37.84647030540315" lon="15.296724196788473"><ele>60.0</ele><time>2026-04-19T09:18:19.994Z</time></trkpt><trkpt lat="37.846560579197956" lon="15.296850764331419"><ele>60.0</ele><time>2026-04-19T09:18:20.994Z</time></trkpt><trkpt lat="37.846675416440696" lon="15.296984069419862"><ele>60.0</ele><time>2026-04-19T09:18:21.994Z</time></trkpt><trkpt lat="37.84678304317064" lon="15.297102470627802"><ele>61.25</ele><time>2026-04-19T09:18:22.994Z</time></trkpt><trkpt lat="37.846871808664744" lon="15.297203976761503"><ele>62.5</ele><time>2026-04-19T09:18:23.994Z</time></trkpt><trkpt lat="37.846964444105645" lon="15.29728082427939"><ele>63.75</ele><time>2026-04-19T09:18:24.994Z</time></trkpt><trkpt lat="37.84707930211309" lon="15.297322002736399"><ele>65.0</ele><time>2026-04-19T09:18:25.994Z</time></trkpt><trkpt lat="37.84721145932149" lon="15.297305655326134"><ele>65.0</ele><time>2026-04-19T09:18:26.994Z</time></trkpt><trkpt lat="37.847357563735045" lon="15.297219623924155"><ele>65.0</ele><time>2026-04-19T09:18:27.994Z</time></trkpt><trkpt lat="37.84751669300321" lon="15.297092292678432"><ele>65.0</ele><time>2026-04-19T09:18:28.994Z</time></trkpt><trkpt lat="37.847652252123396" lon="15.296975308813565"><ele>61.66666666666667</ele><time>2026-04-19T09:18:29.994Z</time></trkpt><trkpt lat="37.8477890986444" lon="15.296868201892913"><ele>58.33333333333333</ele><time>2026-04-19T09:18:30.994Z</time></trkpt><trkpt lat="37.847934123041234" lon="15.296765846480126"><ele>55.0</ele><time>2026-04-19T09:18:31.994Z</time></trkpt><trkpt lat="37.84808943898264" lon="15.29667662461952"><ele>55.0</ele><time>2026-04-19T09:18:32.994Z</time></trkpt><trkpt lat="37.848256122257744" lon="15.29657473500851"><ele>55.0</ele><time>2026-04-19T09:18:33.994Z</time></trkpt><trkpt lat="37.84840933414573" lon="15.29648666755711"><ele>55.0</ele><time>2026-04-19T09:18:34.994Z</time></trkpt><trkpt lat="37.848553235904504" lon="15.296406525247448"><ele>61.75</ele><time>2026-04-19T09:18:35.994Z</time></trkpt><trkpt lat="37.84869740314796" lon="15.29634633365425"><ele>68.5</ele><time>2026-04-19T09:18:36.994Z</time></trkpt><trkpt lat="37.84883296884811" lon="15.296326119511265"><ele>75.25</ele><time>2026-04-19T09:18:37.994Z</time></trkpt><trkpt lat="37.84895176755379" lon="15.296294284690827"><ele>82.0</ele><time>2026-04-19T09:18:38.994Z</time></trkpt><trkpt lat="37.84907293518373" lon="15.296273287772584"><ele>82.0</ele><time>2026-04-19T09:18:39.994Z</time></trkpt><trkpt lat="37.84922187895103" lon="15.296273659571915"><ele>82.0</ele><time>2026-04-19T09:18:40.994Z</time></trkpt><trkpt lat="37.84940321278311" lon="15.29627950452666"><ele>82.0</ele><time>2026-04-19T09:18:41.994Z</time></trkpt><trkpt lat="37.84960434237619" lon="15.296286700024382"><ele>99.5</ele><time>2026-04-19T09:18:42.994Z</time></trkpt><trkpt lat="37.84983765078" lon="15.296277043250257"><ele>117.0</ele><time>2026-04-19T09:18:43.994Z</time></trkpt><trkpt lat="37.85007741607251" lon="15.296324405714863"><ele>135.0</ele><time>2026-04-19T09:18:44.994Z</time></trkpt><trkpt lat="37.850308538408534" lon="15.296411867381405"><ele>153.0</ele><time>2026-04-19T09:18:45.994Z</time></trkpt><trkpt lat="37.850535041401265" lon="15.296522752467169"><ele>108.5</ele><time>2026-04-19T09:18:46.994Z</time></trkpt><trkpt lat="37.85073742287002" lon="15.2966891761269"><ele>64.0</ele><time>2026-04-19T09:18:47.994Z</time></trkpt><trkpt lat="37.850929590546016" lon="15.29682676399998"><ele>58.33333333333333</ele><time>2026-04-19T09:18:48.994Z</time></trkpt><trkpt lat="37.851092830369055" lon="15.296941812705189"><ele>52.666666666666664</ele><time>2026-04-19T09:18:49.994Z</time></trkpt><trkpt lat="37.85121797994565" lon="15.29713123009452"><ele>47.0</ele><time>2026-04-19T09:18:50.994Z</time></trkpt><trkpt lat="37.851374352538265" lon="15.297348695391845"><ele>47.0</ele><time>2026-04-19T09:18:51.994Z</time></trkpt><trkpt lat="37.85145450282193" lon="15.297404603722974"><ele>47.0</ele><time>2026-04-19T09:18:52.994Z</time></trkpt><trkpt lat="37.85154139384678" lon="15.29756405113706"><ele>47.0</ele><time>2026-04-19T09:18:53.994Z</time></trkpt><trkpt lat="37.85170801269045" lon="15.297805288121106"><ele>47.0</ele><time>2026-04-19T09:18:54.994Z</time></trkpt><trkpt lat="37.85184648859699" lon="15.297985539262433"><ele>47.0</ele><time>2026-04-19T09:18:55.994Z</time></trkpt><trkpt lat="37.85195548237407" lon="15.29813272737978"><ele>47.0</ele><time>2026-04-19T09:18:56.994Z</time></trkpt><trkpt lat="37.852079174884125" lon="15.298283198718755"><ele>47.0</ele><time>2026-04-19T09:18:57.994Z</time></trkpt><trkpt lat="37.852209313581874" lon="15.298397573750371"><ele>47.0</ele><time>2026-04-19T09:18:58.994Z</time></trkpt><trkpt lat="37.85237220205375" lon="15.298506361003769"><ele>47.0</ele><time>2026-04-19T09:18:59.994Z</time></trkpt><trkpt lat="37.85254616462187" lon="15.298637553556386"><ele>47.666666666666664</ele><time>2026-04-19T09:19:00.994Z</time></trkpt><trkpt lat="37.85273256395981" lon="15.298776060169907"><ele>48.33333333333333</ele><time>2026-04-19T09:19:01.994Z</time></trkpt><trkpt lat="37.852894597984196" lon="15.298923645464075"><ele>49.0</ele><time>2026-04-19T09:19:02.994Z</time></trkpt><trkpt lat="37.85301377311256" lon="15.299096292600138"><ele>49.0</ele><time>2026-04-19T09:19:03.994Z</time></trkpt><trkpt lat="37.85312980466103" lon="15.299269287353662"><ele>49.0</ele><time>2026-04-19T09:19:04.994Z</time></trkpt><trkpt lat="37.853255830726205" lon="15.299388203226023"><ele>49.0</ele><time>2026-04-19T09:19:05.994Z</time></trkpt><trkpt lat="37.85334140179696" lon="15.299525602660063"><ele>49.0</ele><time>2026-04-19T09:19:06.994Z</time></trkpt><trkpt lat="37.853431381585374" lon="15.299667165335343"><ele>49.0</ele><time>2026-04-19T09:19:07.994Z</time></trkpt><trkpt lat="37.853522883546226" lon="15.299823814515804"><ele>49.0</ele><time>2026-04-19T09:19:08.994Z</time></trkpt><trkpt lat="37.85357358242447" lon="15.299991737789787"><ele>49.0</ele><time>2026-04-19T09:19:09.994Z</time></trkpt><trkpt lat="37.8536007396435" lon="15.30014011626824"><ele>49.0</ele><time>2026-04-19T09:19:10.994Z</time></trkpt><trkpt lat="37.85362389474736" lon="15.300299210787644"><ele>49.0</ele><time>2026-04-19T09:19:11.994Z</time></trkpt><trkpt lat="37.85364123556215" lon="15.300433475348013"><ele>49.0</ele><time>2026-04-19T09:19:12.994Z</time></trkpt><trkpt lat="37.8536558198576" lon="15.300537085250372"><ele>49.0</ele><time>2026-04-19T09:19:13.994Z</time></trkpt><trkpt lat="37.85367390079412" lon="15.300637129773706"><ele>49.0</ele><time>2026-04-19T09:19:14.994Z</time></trkpt><trkpt lat="37.85368871072296" lon="15.300734390155613"><ele>46.99999999999999</ele><time>2026-04-19T09:19:15.994Z</time></trkpt><trkpt lat="37.85371068369003" lon="15.300814243523156"><ele>45.0</ele><time>2026-04-19T09:19:16.994Z</time></trkpt><trkpt lat="37.853766399044936" lon="15.300900729207106"><ele>43.0</ele><time>2026-04-19T09:19:18.994Z</time></trkpt><trkpt lat="37.85382947858544" lon="15.300931592982762"><ele>41.0</ele><time>2026-04-19T09:19:20.994Z</time></trkpt><trkpt lat="37.85391387388117" lon="15.300953791716669"><ele>39.0</ele><time>2026-04-19T09:19:22.994Z</time></trkpt><trkpt lat="37.853990786659644" lon="15.300964309464556"><ele>37.0</ele><time>2026-04-19T09:19:24.994Z</time></trkpt><trkpt lat="37.85405525759087" lon="15.300937964704481"><ele>37.0</ele><time>2026-04-19T09:19:25.994Z</time></trkpt><trkpt lat="37.85412838120323" lon="15.300903119735398"><ele>37.0</ele><time>2026-04-19T09:19:26.994Z</time></trkpt><trkpt lat="37.85419721664649" lon="15.300858286053085"><ele>37.0</ele><time>2026-04-19T09:19:27.994Z</time></trkpt><trkpt lat="37.85427007901755" lon="15.300845768236986"><ele>37.0</ele><time>2026-04-19T09:19:28.994Z</time></trkpt><trkpt lat="37.85438309799899" lon="15.300804862795903"><ele>37.0</ele><time>2026-04-19T09:19:30.994Z</time></trkpt><trkpt lat="37.85445661144632" lon="15.300778973737161"><ele>37.0</ele><time>2026-04-19T09:19:31.994Z</time></trkpt><trkpt lat="37.85454997234316" lon="15.300746244709494"><ele>36.0</ele><time>2026-04-19T09:19:33.994Z</time></trkpt><trkpt lat="37.854612916479546" lon="15.30072466250137"><ele>35.0</ele><time>2026-04-19T09:19:36.994Z</time></trkpt><trkpt lat="37.854675710426434" lon="15.300703595693282"><ele>34.0</ele><time>2026-04-19T09:19:40.994Z</time></trkpt><trkpt lat="37.85475015362002" lon="15.300673211024469"><ele>33.0</ele><time>2026-04-19T09:19:42.993Z</time></trkpt><trkpt lat="37.85483481848124" lon="15.300631878027533"><ele>32.0</ele><time>2026-04-19T09:19:48.993Z</time></trkpt><trkpt lat="37.85493723123793" lon="15.300587433532584"><ele>31.0</ele><time>2026-04-19T09:19:50.993Z</time></trkpt><trkpt lat="37.855004457483965" lon="15.300546271651848"><ele>31.0</ele><time>2026-04-19T09:19:51.993Z</time></trkpt><trkpt lat="37.85507783858126" lon="15.300479684021273"><ele>31.0</ele><time>2026-04-19T09:19:52.993Z</time></trkpt><trkpt lat="37.8551731796735" lon="15.300435960714843"><ele>31.0</ele><time>2026-04-19T09:19:53.993Z</time></trkpt><trkpt lat="37.855264230543646" lon="15.300384856795015"><ele>31.0</ele><time>2026-04-19T09:19:54.993Z</time></trkpt><trkpt lat="37.85535870495098" lon="15.3003319113124"><ele>31.0</ele><time>2026-04-19T09:19:55.993Z</time></trkpt><trkpt lat="37.85545490024619" lon="15.30028223106555"><ele>31.75</ele><time>2026-04-19T09:19:56.993Z</time></trkpt><trkpt lat="37.85557247963171" lon="15.300292985778837"><ele>32.5</ele><time>2026-04-19T09:19:57.993Z</time></trkpt><trkpt lat="37.855694609784535" lon="15.300328787041314"><ele>33.25</ele><time>2026-04-19T09:19:58.993Z</time></trkpt><trkpt lat="37.855814890633006" lon="15.300381392335009"><ele>34.0</ele><time>2026-04-19T09:19:59.993Z</time></trkpt><trkpt lat="37.85592604310022" lon="15.30041458087899"><ele>35.5</ele><time>2026-04-19T09:20:00.993Z</time></trkpt><trkpt lat="37.85604649947207" lon="15.300452029417576"><ele>37.0</ele><time>2026-04-19T09:20:01.993Z</time></trkpt><trkpt lat="37.85617151389945" lon="15.300488283919572"><ele>38.5</ele><time>2026-04-19T09:20:02.993Z</time></trkpt><trkpt lat="37.85629276233357" lon="15.300523812931193"><ele>40.0</ele><time>2026-04-19T09:20:03.993Z</time></trkpt><trkpt lat="37.85641732031879" lon="15.300565027142314"><ele>37.0</ele><time>2026-04-19T09:20:04.993Z</time></trkpt><trkpt lat="37.85654813549607" lon="15.300605183617057"><ele>34.0</ele><time>2026-04-19T09:20:05.993Z</time></trkpt><trkpt lat="37.856672557322526" lon="15.300640017885758"><ele>31.0</ele><time>2026-04-19T09:20:06.993Z</time></trkpt><trkpt lat="37.8567837364979" lon="15.300664458655133"><ele>28.0</ele><time>2026-04-19T09:20:07.993Z</time></trkpt><trkpt lat="37.85688556028059" lon="15.300680400949616"><ele>28.000000000000004</ele><time>2026-04-19T09:20:08.993Z</time></trkpt><trkpt lat="37.856978254994516" lon="15.300672193867788"><ele>28.0</ele><time>2026-04-19T09:20:09.993Z</time></trkpt><trkpt lat="37.857060235189245" lon="15.300634954117383"><ele>28.0</ele><time>2026-04-19T09:20:10.993Z</time></trkpt><trkpt lat="37.85712568118782" lon="15.300565428736599"><ele>28.0</ele><time>2026-04-19T09:20:11.993Z</time></trkpt><trkpt lat="37.85718615181598" lon="15.300506681364816"><ele>28.000000000000004</ele><time>2026-04-19T09:20:12.993Z</time></trkpt><trkpt lat="37.857243403845445" lon="15.300427377914547"><ele>28.0</ele><time>2026-04-19T09:20:13.993Z</time></trkpt><trkpt lat="37.85727947162349" lon="15.300330606401921"><ele>27.599999999999998</ele><time>2026-04-19T09:20:14.993Z</time></trkpt><trkpt lat="37.857333898378556" lon="15.300254497725453"><ele>27.199999999999996</ele><time>2026-04-19T09:20:15.993Z</time></trkpt><trkpt lat="37.85738488778806" lon="15.300157876499451"><ele>26.8</ele><time>2026-04-19T09:20:16.993Z</time></trkpt><trkpt lat="37.85744462759943" lon="15.300038722284707"><ele>26.4</ele><time>2026-04-19T09:20:17.993Z</time></trkpt><trkpt lat="37.85750666444528" lon="15.29987693054581"><ele>26.0</ele><time>2026-04-19T09:20:18.993Z</time></trkpt><trkpt lat="37.857562863580775" lon="15.299658237752569"><ele>18.666666666666664</ele><time>2026-04-19T09:20:19.993Z</time></trkpt><trkpt lat="37.857621729426164" lon="15.299430938332018"><ele>11.333333333333332</ele><time>2026-04-19T09:20:20.993Z</time></trkpt><trkpt lat="37.8576676506037" lon="15.29922114419239"><ele>4.0</ele><time>2026-04-19T09:20:21.993Z</time></trkpt><trkpt lat="37.857737187226704" lon="15.29904532073505"><ele>6.5</ele><time>2026-04-19T09:20:22.993Z</time></trkpt><trkpt lat="37.857806684783995" lon="15.29890411432436"><ele>9.0</ele><time>2026-04-19T09:20:23.993Z</time></trkpt><trkpt lat="37.85788666596267" lon="15.29879958416469"><ele>11.5</ele><time>2026-04-19T09:20:24.993Z</time></trkpt><trkpt lat="37.85796072008096" lon="15.298698281991845"><ele>14.0</ele><time>2026-04-19T09:20:25.993Z</time></trkpt><trkpt lat="37.85804421292982" lon="15.298562124231536"><ele>14.0</ele><time>2026-04-19T09:20:26.993Z</time></trkpt><trkpt lat="37.85812717151807" lon="15.298367144948779"><ele>14.0</ele><time>2026-04-19T09:20:27.993Z</time></trkpt><trkpt lat="37.858261352752294" lon="15.298163954065126"><ele>14.0</ele><time>2026-04-19T09:20:28.993Z</time></trkpt><trkpt lat="37.85837585226872" lon="15.29794825684437"><ele>10.333333333333334</ele><time>2026-04-19T09:20:29.993Z</time></trkpt><trkpt lat="37.85849009764621" lon="15.29771332652389"><ele>6.666666666666667</ele><time>2026-04-19T09:20:30.993Z</time></trkpt><trkpt lat="37.85858274106325" lon="15.297488277477143"><ele>3.0</ele><time>2026-04-19T09:20:31.993Z</time></trkpt><trkpt lat="37.858673242509965" lon="15.297283021565343"><ele>7.666666666666667</ele><time>2026-04-19T09:20:32.993Z</time></trkpt><trkpt lat="37.85874464322304" lon="15.297069856014318"><ele>12.333333333333334</ele><time>2026-04-19T09:20:33.993Z</time></trkpt><trkpt lat="37.85880634746908" lon="15.296876423808625"><ele>17.0</ele><time>2026-04-19T09:20:34.993Z</time></trkpt><trkpt lat="37.85887594755103" lon="15.296692744875331"><ele>17.0</ele><time>2026-04-19T09:20:35.993Z</time></trkpt><trkpt lat="37.858987296202656" lon="15.296531465655537"><ele>17.0</ele><time>2026-04-19T09:20:36.993Z</time></trkpt><trkpt lat="37.859116620555106" lon="15.29639806566524"><ele>17.0</ele><time>2026-04-19T09:20:37.993Z</time></trkpt><trkpt lat="37.85927172154833" lon="15.296270581269843"><ele>15.666666666666668</ele><time>2026-04-19T09:20:38.993Z</time></trkpt><trkpt lat="37.85941544836892" lon="15.296152967859145"><ele>14.333333333333332</ele><time>2026-04-19T09:20:39.993Z</time></trkpt><trkpt lat="37.85953892963745" lon="15.296028502258666"><ele>13.0</ele><time>2026-04-19T09:20:40.993Z</time></trkpt><trkpt lat="37.85962936208421" lon="15.29587144892694"><ele>13.0</ele><time>2026-04-19T09:20:41.993Z</time></trkpt><trkpt lat="37.85968976540861" lon="15.295668135179882"><ele>13.0</ele><time>2026-04-19T09:20:42.993Z</time></trkpt><trkpt lat="37.859789350775884" lon="15.295522735324424"><ele>13.0</ele><time>2026-04-19T09:20:43.993Z</time></trkpt><trkpt lat="37.859932977105245" lon="15.29540954887223"><ele>16.0</ele><time>2026-04-19T09:20:44.993Z</time></trkpt><trkpt lat="37.860104996440235" lon="15.295367883713606"><ele>19.0</ele><time>2026-04-19T09:20:45.993Z</time></trkpt><trkpt lat="37.86026910811845" lon="15.295361248510059"><ele>22.0</ele><time>2026-04-19T09:20:46.993Z</time></trkpt><trkpt lat="37.860434820575016" lon="15.29540738067913"><ele>25.666666666666664</ele><time>2026-04-19T09:20:47.993Z</time></trkpt><trkpt lat="37.86061665706337" lon="15.295453803341037"><ele>29.333333333333332</ele><time>2026-04-19T09:20:48.993Z</time></trkpt><trkpt lat="37.86077656239601" lon="15.295490717902611"><ele>33.0</ele><time>2026-04-19T09:20:49.993Z</time></trkpt><trkpt lat="37.860928812048726" lon="15.295535886943588"><ele>33.5</ele><time>2026-04-19T09:20:50.993Z</time></trkpt><trkpt lat="37.86106958641085" lon="15.295571930126941"><ele>34.0</ele><time>2026-04-19T09:20:51.993Z</time></trkpt><trkpt lat="37.86120029302262" lon="15.29562011859056"><ele>34.5</ele><time>2026-04-19T09:20:52.993Z</time></trkpt><trkpt lat="37.86131466637418" lon="15.295689945663247"><ele>35.0</ele><time>2026-04-19T09:20:53.993Z</time></trkpt><trkpt lat="37.86141602948217" lon="15.295795797869566"><ele>35.0</ele><time>2026-04-19T09:20:54.993Z</time></trkpt><trkpt lat="37.86149679068377" lon="15.295911608215702"><ele>35.0</ele><time>2026-04-19T09:20:55.993Z</time></trkpt><trkpt lat="37.861554531251066" lon="15.29603233106373"><ele>35.0</ele><time>2026-04-19T09:20:56.993Z</time></trkpt><trkpt lat="37.861592188575955" lon="15.296159657434421"><ele>35.0</ele><time>2026-04-19T09:20:57.993Z</time></trkpt><trkpt lat="37.8616455416708" lon="15.296256575569654"><ele>35.0</ele><time>2026-04-19T09:20:58.993Z</time></trkpt><trkpt lat="37.86171139806456" lon="15.296327133661139"><ele>36.0</ele><time>2026-04-19T09:20:59.993Z</time></trkpt><trkpt lat="37.86180537844453" lon="15.296361399075728"><ele>37.0</ele><time>2026-04-19T09:21:00.993Z</time></trkpt><trkpt lat="37.86192178244387" lon="15.296370312043068"><ele>38.0</ele><time>2026-04-19T09:21:01.993Z</time></trkpt><trkpt lat="37.862073667198935" lon="15.296371876994138"><ele>39.0</ele><time>2026-04-19T09:21:02.993Z</time></trkpt><trkpt lat="37.8622372280867" lon="15.296375139593426"><ele>39.0</ele><time>2026-04-19T09:21:03.993Z</time></trkpt><trkpt lat="37.86236817142188" lon="15.296374131909532"><ele>39.0</ele><time>2026-04-19T09:21:04.993Z</time></trkpt><trkpt lat="37.86249268767475" lon="15.296357606019502"><ele>39.0</ele><time>2026-04-19T09:21:05.993Z</time></trkpt><trkpt lat="37.862604394324045" lon="15.296323687201703"><ele>39.0</ele><time>2026-04-19T09:21:06.993Z</time></trkpt><trkpt lat="37.86268806649296" lon="15.296163149846922"><ele>35.0</ele><time>2026-04-19T09:21:07.993Z</time></trkpt><trkpt lat="37.86281883091949" lon="15.296029168530733"><ele>31.0</ele><time>2026-04-19T09:21:08.993Z</time></trkpt><trkpt lat="37.86291971338118" lon="15.295897433170333"><ele>27.0</ele><time>2026-04-19T09:21:09.993Z</time></trkpt><trkpt lat="37.86306241470129" lon="15.295826196107736"><ele>27.0</ele><time>2026-04-19T09:21:10.993Z</time></trkpt><trkpt lat="37.86327294582797" lon="15.295874799520929"><ele>27.0</ele><time>2026-04-19T09:21:11.993Z</time></trkpt><trkpt lat="37.86344968565213" lon="15.295917699774455"><ele>27.0</ele><time>2026-04-19T09:21:12.993Z</time></trkpt><trkpt lat="37.863604752455245" lon="15.29592818792569"><ele>27.333333333333336</ele><time>2026-04-19T09:21:13.993Z</time></trkpt><trkpt lat="37.86375793588424" lon="15.295959253564773"><ele>27.666666666666668</ele><time>2026-04-19T09:21:14.993Z</time></trkpt><trkpt lat="37.863921050254625" lon="15.295988085231478"><ele>28.0</ele><time>2026-04-19T09:21:15.993Z</time></trkpt><trkpt lat="37.864083554991154" lon="15.29602832775408"><ele>28.0</ele><time>2026-04-19T09:21:16.993Z</time></trkpt><trkpt lat="37.86423738763196" lon="15.296082415332705"><ele>28.0</ele><time>2026-04-19T09:21:17.993Z</time></trkpt><trkpt lat="37.86438514247684" lon="15.296159397827843"><ele>28.0</ele><time>2026-04-19T09:21:18.993Z</time></trkpt><trkpt lat="37.86451982107412" lon="15.29623901908497"><ele>23.666666666666668</ele><time>2026-04-19T09:21:19.993Z</time></trkpt><trkpt lat="37.86466589181822" lon="15.296320214204533"><ele>19.333333333333336</ele><time>2026-04-19T09:21:20.993Z</time></trkpt><trkpt lat="37.864808150391596" lon="15.296405341653307"><ele>15.0</ele><time>2026-04-19T09:21:21.993Z</time></trkpt><trkpt lat="37.86494670251941" lon="15.29647140118141"><ele>15.0</ele><time>2026-04-19T09:21:22.993Z</time></trkpt><trkpt lat="37.86506725237913" lon="15.296537438524735"><ele>15.0</ele><time>2026-04-19T09:21:23.993Z</time></trkpt><trkpt lat="37.865186558146384" lon="15.296605608800057"><ele>15.0</ele><time>2026-04-19T09:21:24.993Z</time></trkpt><trkpt lat="37.86530816456983" lon="15.296678274058403"><ele>15.0</ele><time>2026-04-19T09:21:25.993Z</time></trkpt><trkpt lat="37.86542795663802" lon="15.296744801268188"><ele>18.0</ele><time>2026-04-19T09:21:26.993Z</time></trkpt><trkpt lat="37.86554570770758" lon="15.296809107335747"><ele>21.0</ele><time>2026-04-19T09:21:27.993Z</time></trkpt><trkpt lat="37.86567559812649" lon="15.296879501628435"><ele>24.0</ele><time>2026-04-19T09:21:28.993Z</time></trkpt><trkpt lat="37.86580957174696" lon="15.296953785105709"><ele>27.0</ele><time>2026-04-19T09:21:29.993Z</time></trkpt><trkpt lat="37.865937055293934" lon="15.29706260972224"><ele>27.0</ele><time>2026-04-19T09:21:30.993Z</time></trkpt><trkpt lat="37.86606232495093" lon="15.29717473829365"><ele>27.0</ele><time>2026-04-19T09:21:31.993Z</time></trkpt><trkpt lat="37.86619438341452" lon="15.297328773766054"><ele>27.0</ele><time>2026-04-19T09:21:32.993Z</time></trkpt><trkpt lat="37.86633591223497" lon="15.297503049363387"><ele>27.0</ele><time>2026-04-19T09:21:33.993Z</time></trkpt><trkpt lat="37.86645499958611" lon="15.297696245816418"><ele>27.0</ele><time>2026-04-19T09:21:34.993Z</time></trkpt><trkpt lat="37.866566260086344" lon="15.297869318469171"><ele>27.0</ele><time>2026-04-19T09:21:35.993Z</time></trkpt><trkpt lat="37.86667692104013" lon="15.298024685469288"><ele>23.666666666666668</ele><time>2026-04-19T09:21:36.993Z</time></trkpt><trkpt lat="37.8668006028587" lon="15.298150534766384"><ele>20.333333333333336</ele><time>2026-04-19T09:21:37.993Z</time></trkpt><trkpt lat="37.866967569451035" lon="15.298239586674038"><ele>17.0</ele><time>2026-04-19T09:21:38.993Z</time></trkpt><trkpt lat="37.86715287146028" lon="15.298304823783761"><ele>17.0</ele><time>2026-04-19T09:21:39.993Z</time></trkpt><trkpt lat="37.86732976451431" lon="15.29833178747013"><ele>17.0</ele><time>2026-04-19T09:21:40.993Z</time></trkpt><trkpt lat="37.86749895892583" lon="15.298323414791874"><ele>17.0</ele><time>2026-04-19T09:21:41.993Z</time></trkpt><trkpt lat="37.867661497084114" lon="15.298281224339867"><ele>16.666666666666668</ele><time>2026-04-19T09:21:42.993Z</time></trkpt><trkpt lat="37.86784211587171" lon="15.298198469517244"><ele>16.333333333333332</ele><time>2026-04-19T09:21:43.993Z</time></trkpt><trkpt lat="37.86803346831127" lon="15.298121078351658"><ele>16.0</ele><time>2026-04-19T09:21:44.993Z</time></trkpt><trkpt lat="37.8682214440971" lon="15.298055729732344"><ele>18.333333333333332</ele><time>2026-04-19T09:21:45.993Z</time></trkpt><trkpt lat="37.86842230567877" lon="15.298053660179413"><ele>20.666666666666668</ele><time>2026-04-19T09:21:46.993Z</time></trkpt><trkpt lat="37.86863806133881" lon="15.298101754322419"><ele>23.0</ele><time>2026-04-19T09:21:47.993Z</time></trkpt><trkpt lat="37.86886168497634" lon="15.298184020878317"><ele>23.0</ele><time>2026-04-19T09:21:48.993Z</time></trkpt><trkpt lat="37.869094848828915" lon="15.298271146371157"><ele>23.0</ele><time>2026-04-19T09:21:49.993Z</time></trkpt><trkpt lat="37.869349241248685" lon="15.29836046984245"><ele>27.5</ele><time>2026-04-19T09:21:50.993Z</time></trkpt><trkpt lat="37.869617430235195" lon="15.298462484413795"><ele>32.0</ele><time>2026-04-19T09:21:51.993Z</time></trkpt><trkpt lat="37.869918294462884" lon="15.298575930753884"><ele>41.0</ele><time>2026-04-19T09:21:52.993Z</time></trkpt><trkpt lat="37.87023235991908" lon="15.298697320490746"><ele>50.0</ele><time>2026-04-19T09:21:53.993Z</time></trkpt><trkpt lat="37.87056162201278" lon="15.298841833547872"><ele>37.5</ele><time>2026-04-19T09:21:54.993Z</time></trkpt><trkpt lat="37.87090871996926" lon="15.298991167623198"><ele>25.0</ele><time>2026-04-19T09:21:55.993Z</time></trkpt><trkpt lat="37.87121363083778" lon="15.299160472826417"><ele>25.0</ele><time>2026-04-19T09:21:56.993Z</time></trkpt><trkpt lat="37.87151084781202" lon="15.299365862214227"><ele>25.0</ele><time>2026-04-19T09:21:57.993Z</time></trkpt><trkpt lat="37.871791310791174" lon="15.299562035491709"><ele>22.0</ele><time>2026-04-19T09:21:58.993Z</time></trkpt><trkpt lat="37.8720605787653" lon="15.29974782768686"><ele>19.0</ele><time>2026-04-19T09:21:59.993Z</time></trkpt><trkpt lat="37.872322785025574" lon="15.299926104007511"><ele>19.0</ele><time>2026-04-19T09:22:00.993Z</time></trkpt><trkpt lat="37.87256645947186" lon="15.300091695609316"><ele>19.0</ele><time>2026-04-19T09:22:01.993Z</time></trkpt><trkpt lat="37.87279834641482" lon="15.300249930539726"><ele>24.0</ele><time>2026-04-19T09:22:02.993Z</time></trkpt><trkpt lat="37.873030991066486" lon="15.300408719004238"><ele>29.0</ele><time>2026-04-19T09:22:03.993Z</time></trkpt><trkpt lat="37.873270257581105" lon="15.300573474147866"><ele>30.0</ele><time>2026-04-19T09:22:04.993Z</time></trkpt><trkpt lat="37.873496373723405" lon="15.30072967734733"><ele>31.0</ele><time>2026-04-19T09:22:05.993Z</time></trkpt><trkpt lat="37.873702732929445" lon="15.300870680656823"><ele>31.0</ele><time>2026-04-19T09:22:06.993Z</time></trkpt><trkpt lat="37.873896403005794" lon="15.301003012518523"><ele>31.0</ele><time>2026-04-19T09:22:07.993Z</time></trkpt><trkpt lat="37.87408608148398" lon="15.301133067977178"><ele>31.0</ele><time>2026-04-19T09:22:08.992Z</time></trkpt><trkpt lat="37.8742662067335" lon="15.301258122625114"><ele>27.666666666666668</ele><time>2026-04-19T09:22:09.992Z</time></trkpt><trkpt lat="37.87445244499533" lon="15.301366327406457"><ele>24.333333333333336</ele><time>2026-04-19T09:22:10.992Z</time></trkpt><trkpt lat="37.87464054944982" lon="15.30143216637594"><ele>21.0</ele><time>2026-04-19T09:22:11.992Z</time></trkpt><trkpt lat="37.87483588929202" lon="15.301506999217223"><ele>21.0</ele><time>2026-04-19T09:22:12.992Z</time></trkpt><trkpt lat="37.87503185971795" lon="15.301589283707546"><ele>21.0</ele><time>2026-04-19T09:22:13.992Z</time></trkpt><trkpt lat="37.87523973013501" lon="15.301631339735533"><ele>21.0</ele><time>2026-04-19T09:22:14.992Z</time></trkpt><trkpt lat="37.87545520065461" lon="15.301647050401762"><ele>22.666666666666664</ele><time>2026-04-19T09:22:15.992Z</time></trkpt><trkpt lat="37.87567389057209" lon="15.30167999716507"><ele>24.333333333333332</ele><time>2026-04-19T09:22:16.992Z</time></trkpt><trkpt lat="37.87587805506035" lon="15.301737035093936"><ele>26.0</ele><time>2026-04-19T09:22:17.992Z</time></trkpt><trkpt lat="37.87606259032685" lon="15.301840461636724"><ele>26.333333333333332</ele><time>2026-04-19T09:22:18.992Z</time></trkpt><trkpt lat="37.87625224830454" lon="15.301953443329323"><ele>26.666666666666664</ele><time>2026-04-19T09:22:19.992Z</time></trkpt><trkpt lat="37.876441206775795" lon="15.302051307178688"><ele>27.0</ele><time>2026-04-19T09:22:20.992Z</time></trkpt><trkpt lat="37.87661906424391" lon="15.3021567290367"><ele>28.333333333333336</ele><time>2026-04-19T09:22:21.992Z</time></trkpt><trkpt lat="37.8767982838882" lon="15.302259466192728"><ele>29.666666666666668</ele><time>2026-04-19T09:22:22.992Z</time></trkpt><trkpt lat="37.876968700454704" lon="15.302374716598877"><ele>31.0</ele><time>2026-04-19T09:22:23.992Z</time></trkpt><trkpt lat="37.87713547965474" lon="15.302491672513936"><ele>31.0</ele><time>2026-04-19T09:22:24.992Z</time></trkpt><trkpt lat="37.877287665813135" lon="15.302632288100979"><ele>31.0</ele><time>2026-04-19T09:22:25.992Z</time></trkpt><trkpt lat="37.87746043374466" lon="15.302734465608243"><ele>31.0</ele><time>2026-04-19T09:22:26.992Z</time></trkpt><trkpt lat="37.87762298409853" lon="15.30286021138684"><ele>33.333333333333336</ele><time>2026-04-19T09:22:27.992Z</time></trkpt><trkpt lat="37.877792027937055" lon="15.302983417729342"><ele>35.666666666666664</ele><time>2026-04-19T09:22:28.992Z</time></trkpt><trkpt lat="37.87796784696817" lon="15.303109129090846"><ele>38.0</ele><time>2026-04-19T09:22:29.992Z</time></trkpt><trkpt lat="37.87814417880245" lon="15.303237345305876"><ele>33.666666666666664</ele><time>2026-04-19T09:22:30.992Z</time></trkpt><trkpt lat="37.87831766507655" lon="15.303350751491799"><ele>29.333333333333336</ele><time>2026-04-19T09:22:31.992Z</time></trkpt><trkpt lat="37.87848962864113" lon="15.30346249271272"><ele>25.0</ele><time>2026-04-19T09:22:32.992Z</time></trkpt><trkpt lat="37.87864552262191" lon="15.303590363051107"><ele>25.0</ele><time>2026-04-19T09:22:33.992Z</time></trkpt><trkpt lat="37.878802268640484" lon="15.303677177371876"><ele>25.0</ele><time>2026-04-19T09:22:34.992Z</time></trkpt><trkpt lat="37.8789488848769" lon="15.30375347782427"><ele>25.0</ele><time>2026-04-19T09:22:35.992Z</time></trkpt><trkpt lat="37.87908509148678" lon="15.303825044768233"><ele>25.0</ele><time>2026-04-19T09:22:36.992Z</time></trkpt><trkpt lat="37.879208839220986" lon="15.3039016752396"><ele>25.0</ele><time>2026-04-19T09:22:37.992Z</time></trkpt><trkpt lat="37.87931728350238" lon="15.303994563249564"><ele>25.0</ele><time>2026-04-19T09:22:38.992Z</time></trkpt><trkpt lat="37.87941967706611" lon="15.304090421317893"><ele>25.0</ele><time>2026-04-19T09:22:39.992Z</time></trkpt><trkpt lat="37.87950915891077" lon="15.304187101241828"><ele>24.166666666666668</ele><time>2026-04-19T09:22:40.992Z</time></trkpt><trkpt lat="37.87959136103123" lon="15.304280962250791"><ele>23.333333333333336</ele><time>2026-04-19T09:22:41.992Z</time></trkpt><trkpt lat="37.87966460107504" lon="15.304366324050473"><ele>22.5</ele><time>2026-04-19T09:22:42.992Z</time></trkpt><trkpt lat="37.879729011433675" lon="15.304441257982647"><ele>21.666666666666668</ele><time>2026-04-19T09:22:43.992Z</time></trkpt><trkpt lat="37.879780714642415" lon="15.304500233945959"><ele>20.833333333333336</ele><time>2026-04-19T09:22:44.992Z</time></trkpt><trkpt lat="37.87982803433629" lon="15.30455400017246"><ele>20.0</ele><time>2026-04-19T09:22:45.992Z</time></trkpt><trkpt lat="37.879887507225305" lon="15.304621322633784"><ele>20.0</ele><time>2026-04-19T09:22:47.992Z</time></trkpt><trkpt lat="37.879948747557805" lon="15.304701785719576"><ele>20.0</ele><time>2026-04-19T09:24:00.992Z</time></trkpt><trkpt lat="37.88001391546999" lon="15.304918354917428"><ele>20.0</ele><time>2026-04-19T09:24:01.992Z</time></trkpt><trkpt lat="37.87998472863189" lon="15.305022183361483"><ele>20.0</ele><time>2026-04-19T09:24:03.992Z</time></trkpt><trkpt lat="37.8799331013401" lon="15.305129083160553"><ele>19.0</ele><time>2026-04-19T09:24:04.992Z</time></trkpt><trkpt lat="37.879954547779356" lon="15.305256823045656"><ele>18.0</ele><time>2026-04-19T09:24:05.992Z</time></trkpt><trkpt lat="37.880015791175985" lon="15.305395204959877"><ele>17.0</ele><time>2026-04-19T09:24:06.992Z</time></trkpt><trkpt lat="37.88014261074125" lon="15.305494233554874"><ele>16.0</ele><time>2026-04-19T09:24:07.992Z</time></trkpt><trkpt lat="37.880213663609304" lon="15.305565261553655"><ele>16.75</ele><time>2026-04-19T09:24:08.992Z</time></trkpt><trkpt lat="37.88029187337867" lon="15.305642788536806"><ele>17.5</ele><time>2026-04-19T09:24:09.992Z</time></trkpt><trkpt lat="37.880390335692695" lon="15.30573775905346"><ele>18.25</ele><time>2026-04-19T09:24:10.992Z</time></trkpt><trkpt lat="37.8805079014881" lon="15.305843101943143"><ele>19.0</ele><time>2026-04-19T09:24:11.992Z</time></trkpt><trkpt lat="37.88060482565514" lon="15.305977887489524"><ele>19.0</ele><time>2026-04-19T09:24:12.992Z</time></trkpt><trkpt lat="37.88069856653923" lon="15.306088174385941"><ele>19.0</ele><time>2026-04-19T09:24:13.992Z</time></trkpt><trkpt lat="37.88080275687137" lon="15.306183638575213"><ele>19.0</ele><time>2026-04-19T09:24:14.992Z</time></trkpt><trkpt lat="37.88128080082426" lon="15.30654367031791"><ele>22.333333333333332</ele><time>2026-04-19T09:24:15.992Z</time></trkpt><trkpt lat="37.88137020670561" lon="15.306734755991476"><ele>25.666666666666664</ele><time>2026-04-19T09:24:16.992Z</time></trkpt><trkpt lat="37.881485885116525" lon="15.306907343310021"><ele>29.0</ele><time>2026-04-19T09:24:17.992Z</time></trkpt><trkpt lat="37.88161563738988" lon="15.307056496756992"><ele>29.0</ele><time>2026-04-19T09:24:18.992Z</time></trkpt><trkpt lat="37.88172885379409" lon="15.307210436350505"><ele>29.0</ele><time>2026-04-19T09:24:19.992Z</time></trkpt><trkpt lat="37.88184386998094" lon="15.307339311955095"><ele>29.0</ele><time>2026-04-19T09:24:20.992Z</time></trkpt><trkpt lat="37.881958360673785" lon="15.307446778395358"><ele>31.25</ele><time>2026-04-19T09:24:21.992Z</time></trkpt><trkpt lat="37.88206063476498" lon="15.307558089580134"><ele>33.5</ele><time>2026-04-19T09:24:22.992Z</time></trkpt><trkpt lat="37.88215502197014" lon="15.307667277047557"><ele>35.75</ele><time>2026-04-19T09:24:23.992Z</time></trkpt><trkpt lat="37.882239533069665" lon="15.307779985177467"><ele>38.0</ele><time>2026-04-19T09:24:24.992Z</time></trkpt><trkpt lat="37.88232587358967" lon="15.307876794569317"><ele>38.0</ele><time>2026-04-19T09:24:25.992Z</time></trkpt><trkpt lat="37.88240485002684" lon="15.307965403520733"><ele>38.0</ele><time>2026-04-19T09:24:26.992Z</time></trkpt><trkpt lat="37.882479621803306" lon="15.308049139514159"><ele>38.0</ele><time>2026-04-19T09:24:27.992Z</time></trkpt><trkpt lat="37.88255198314506" lon="15.3081296916497"><ele>38.0</ele><time>2026-04-19T09:24:28.992Z</time></trkpt><trkpt lat="37.88263373191799" lon="15.308208312359874"><ele>38.0</ele><time>2026-04-19T09:24:29.992Z</time></trkpt><trkpt lat="37.88271748435984" lon="15.308303051963483"><ele>38.0</ele><time>2026-04-19T09:24:30.992Z</time></trkpt><trkpt lat="37.882798505388614" lon="15.308399745942552"><ele>38.0</ele><time>2026-04-19T09:24:31.992Z</time></trkpt><trkpt lat="37.88288280444042" lon="15.308501081558163"><ele>38.0</ele><time>2026-04-19T09:24:32.992Z</time></trkpt><trkpt lat="37.882966168104815" lon="15.30860341801775"><ele>38.0</ele><time>2026-04-19T09:24:33.992Z</time></trkpt><trkpt lat="37.883047326542695" lon="15.308709851177289"><ele>38.0</ele><time>2026-04-19T09:24:34.992Z</time></trkpt><trkpt lat="37.88312193742177" lon="15.308812871098047"><ele>38.0</ele><time>2026-04-19T09:24:35.991Z</time></trkpt><trkpt lat="37.88319929683931" lon="15.308921219444317"><ele>38.0</ele><time>2026-04-19T09:24:36.991Z</time></trkpt><trkpt lat="37.88328546593638" lon="15.309044485376324"><ele>38.0</ele><time>2026-04-19T09:24:37.991Z</time></trkpt><trkpt lat="37.883385018915085" lon="15.309193650704382"><ele>42.666666666666664</ele><time>2026-04-19T09:24:38.991Z</time></trkpt><trkpt lat="37.883497931732414" lon="15.30933049086057"><ele>47.33333333333333</ele><time>2026-04-19T09:24:39.991Z</time></trkpt><trkpt lat="37.88360219494147" lon="15.309479925006608"><ele>52.0</ele><time>2026-04-19T09:24:40.998Z</time></trkpt><trkpt lat="37.883704691502565" lon="15.30963717023845"><ele>45.666666666666664</ele><time>2026-04-19T09:24:41.998Z</time></trkpt><trkpt lat="37.88381474608836" lon="15.309800768679025"><ele>39.33333333333333</ele><time>2026-04-19T09:24:42.998Z</time></trkpt><trkpt lat="37.88392985497528" lon="15.309969364882848"><ele>33.0</ele><time>2026-04-19T09:24:43.998Z</time></trkpt><trkpt lat="37.884034488484815" lon="15.310157634014598"><ele>33.0</ele><time>2026-04-19T09:24:44.998Z</time></trkpt><trkpt lat="37.88414423375875" lon="15.310327567515628"><ele>33.0</ele><time>2026-04-19T09:24:45.998Z</time></trkpt><trkpt lat="37.884254060072315" lon="15.310477201384883"><ele>33.0</ele><time>2026-04-19T09:24:46.998Z</time></trkpt><trkpt lat="37.88435436348785" lon="15.31060595237855"><ele>33.0</ele><time>2026-04-19T09:24:47.998Z</time></trkpt><trkpt lat="37.884460221803046" lon="15.310699424790798"><ele>33.0</ele><time>2026-04-19T09:24:48.998Z</time></trkpt><trkpt lat="37.88454312535454" lon="15.310800823617653"><ele>33.0</ele><time>2026-04-19T09:24:49.998Z</time></trkpt><trkpt lat="37.884608425395946" lon="15.310907733324985"><ele>33.0</ele><time>2026-04-19T09:24:50.998Z</time></trkpt><trkpt lat="37.8846711460989" lon="15.311024379297976"><ele>33.0</ele><time>2026-04-19T09:24:51.998Z</time></trkpt><trkpt lat="37.88478024742382" lon="15.31115739983139"><ele>33.0</ele><time>2026-04-19T09:24:52.998Z</time></trkpt><trkpt lat="37.88493433474078" lon="15.311313375437638"><ele>33.0</ele><time>2026-04-19T09:24:53.998Z</time></trkpt><trkpt lat="37.88510566639571" lon="15.311517374780326"><ele>39.0</ele><time>2026-04-19T09:24:54.998Z</time></trkpt><trkpt lat="37.885296168541316" lon="15.311740535587278"><ele>45.0</ele><time>2026-04-19T09:24:55.998Z</time></trkpt><trkpt lat="37.88550903651487" lon="15.311959958882188"><ele>45.0</ele><time>2026-04-19T09:24:56.998Z</time></trkpt><trkpt lat="37.885709008397605" lon="15.312140708022406"><ele>45.0</ele><time>2026-04-19T09:24:57.998Z</time></trkpt><trkpt lat="37.88588647293327" lon="15.312301664544204"><ele>43.0</ele><time>2026-04-19T09:24:58.998Z</time></trkpt><trkpt lat="37.886034741176125" lon="15.312474429325844"><ele>41.0</ele><time>2026-04-19T09:24:59.998Z</time></trkpt><trkpt lat="37.88617430443975" lon="15.312648100228131"><ele>39.0</ele><time>2026-04-19T09:25:00.998Z</time></trkpt><trkpt lat="37.886315727588475" lon="15.312816476098158"><ele>39.0</ele><time>2026-04-19T09:25:01.998Z</time></trkpt><trkpt lat="37.88645382255134" lon="15.312977751640013"><ele>39.0</ele><time>2026-04-19T09:25:02.998Z</time></trkpt><trkpt lat="37.886590811490535" lon="15.313104092045009"><ele>39.0</ele><time>2026-04-19T09:25:03.998Z</time></trkpt><trkpt lat="37.88671464534487" lon="15.313238304496531"><ele>39.333333333333336</ele><time>2026-04-19T09:25:04.998Z</time></trkpt><trkpt lat="37.886845458844235" lon="15.31336340661964"><ele>39.66666666666667</ele><time>2026-04-19T09:25:05.998Z</time></trkpt><trkpt lat="37.88697711169575" lon="15.31347118907283"><ele>40.0</ele><time>2026-04-19T09:25:06.998Z</time></trkpt><trkpt lat="37.88709739892161" lon="15.313564484347472"><ele>40.0</ele><time>2026-04-19T09:25:07.998Z</time></trkpt><trkpt lat="37.88721346456328" lon="15.313660116593608"><ele>40.0</ele><time>2026-04-19T09:25:08.998Z</time></trkpt><trkpt lat="37.887319738878354" lon="15.313730779004626"><ele>40.0</ele><time>2026-04-19T09:25:09.998Z</time></trkpt><trkpt lat="37.88740099817508" lon="15.313787216041742"><ele>40.0</ele><time>2026-04-19T09:25:10.998Z</time></trkpt><trkpt lat="37.887445317022156" lon="15.313848852252182"><ele>40.0</ele><time>2026-04-19T09:25:11.998Z</time></trkpt><trkpt lat="37.88750143134564" lon="15.31390719265797"><ele>40.0</ele><time>2026-04-19T09:25:12.998Z</time></trkpt><trkpt lat="37.887579134075715" lon="15.313996059352847"><ele>40.0</ele><time>2026-04-19T09:25:13.998Z</time></trkpt><trkpt lat="37.88771092383518" lon="15.314137490131577"><ele>40.0</ele><time>2026-04-19T09:25:14.998Z</time></trkpt><trkpt lat="37.887865230320834" lon="15.314321589891314"><ele>40.0</ele><time>2026-04-19T09:25:15.998Z</time></trkpt><trkpt lat="37.88801990066485" lon="15.31454209831404"><ele>40.0</ele><time>2026-04-19T09:25:16.998Z</time></trkpt><trkpt lat="37.88817281681085" lon="15.314802096938493"><ele>37.0</ele><time>2026-04-19T09:25:17.998Z</time></trkpt><trkpt lat="37.88833390141265" lon="15.315089597398156"><ele>34.0</ele><time>2026-04-19T09:25:18.998Z</time></trkpt><trkpt lat="37.888491229434386" lon="15.315379538162833"><ele>44.5</ele><time>2026-04-19T09:25:19.998Z</time></trkpt><trkpt lat="37.888629892094684" lon="15.315635736360512"><ele>55.0</ele><time>2026-04-19T09:25:20.998Z</time></trkpt><trkpt lat="37.888762575882026" lon="15.315872726049175"><ele>55.0</ele><time>2026-04-19T09:25:21.998Z</time></trkpt><trkpt lat="37.88890732001551" lon="15.316108109537762"><ele>55.0</ele><time>2026-04-19T09:25:22.998Z</time></trkpt><trkpt lat="37.88905456945274" lon="15.316342130044093"><ele>53.5</ele><time>2026-04-19T09:25:23.998Z</time></trkpt><trkpt lat="37.88920622842373" lon="15.316572370546528"><ele>52.0</ele><time>2026-04-19T09:25:24.998Z</time></trkpt><trkpt lat="37.88936089574724" lon="15.316788748956947"><ele>52.0</ele><time>2026-04-19T09:25:25.998Z</time></trkpt><trkpt lat="37.88951935240339" lon="15.317000956587416"><ele>52.0</ele><time>2026-04-19T09:25:26.999Z</time></trkpt><trkpt lat="37.889683107902236" lon="15.317210662169167"><ele>39.5</ele><time>2026-04-19T09:25:27.999Z</time></trkpt><trkpt lat="37.889850422183954" lon="15.317414965093443"><ele>27.0</ele><time>2026-04-19T09:25:28.999Z</time></trkpt><trkpt lat="37.8900394426855" lon="15.31761815697752"><ele>39.5</ele><time>2026-04-19T09:25:30Z</time></trkpt><trkpt lat="37.89021357779157" lon="15.317849271189678"><ele>52.0</ele><time>2026-04-19T09:25:30.999Z</time></trkpt><trkpt lat="37.890413121658476" lon="15.318051613771592"><ele>39.5</ele><time>2026-04-19T09:25:31.999Z</time></trkpt><trkpt lat="37.89061802625995" lon="15.318244815178822"><ele>27.0</ele><time>2026-04-19T09:25:33Z</time></trkpt><trkpt lat="37.89082187119571" lon="15.31845048623492"><ele>45.0</ele><time>2026-04-19T09:25:34Z</time></trkpt><trkpt lat="37.89103046412682" lon="15.318671778720416"><ele>63.0</ele><time>2026-04-19T09:25:35Z</time></trkpt><trkpt lat="37.891241102482496" lon="15.318886043279873"><ele>50.0</ele><time>2026-04-19T09:25:36Z</time></trkpt><trkpt lat="37.891453012635544" lon="15.319108153156565"><ele>37.0</ele><time>2026-04-19T09:25:37Z</time></trkpt><trkpt lat="37.8916713315055" lon="15.319329318921756"><ele>35.5</ele><time>2026-04-19T09:25:38Z</time></trkpt><trkpt lat="37.8918764481315" lon="15.319552600400321"><ele>34.0</ele><time>2026-04-19T09:25:39Z</time></trkpt><trkpt lat="37.892094861587815" lon="15.319771998282421"><ele>34.0</ele><time>2026-04-19T09:25:40Z</time></trkpt><trkpt lat="37.89231352455476" lon="15.319996157321683"><ele>34.0</ele><time>2026-04-19T09:25:41Z</time></trkpt><trkpt lat="37.89251604531077" lon="15.320262302861778"><ele>37.5</ele><time>2026-04-19T09:25:42Z</time></trkpt><trkpt lat="37.89274999849241" lon="15.320499364288809"><ele>41.0</ele><time>2026-04-19T09:25:43Z</time></trkpt><trkpt lat="37.89297781159652" lon="15.320726111230075"><ele>41.0</ele><time>2026-04-19T09:25:44Z</time></trkpt><trkpt lat="37.893199057974996" lon="15.320952750452431"><ele>41.0</ele><time>2026-04-19T09:25:45Z</time></trkpt><trkpt lat="37.89341278284347" lon="15.321178859113402"><ele>40.5</ele><time>2026-04-19T09:25:46Z</time></trkpt><trkpt lat="37.89361887999304" lon="15.321409886289137"><ele>40.0</ele><time>2026-04-19T09:25:47Z</time></trkpt><trkpt lat="37.89380398652129" lon="15.32164930019045"><ele>40.0</ele><time>2026-04-19T09:25:48Z</time></trkpt><trkpt lat="37.893943783764776" lon="15.321908366446033"><ele>40.0</ele><time>2026-04-19T09:25:49Z</time></trkpt><trkpt lat="37.89407887858764" lon="15.322153684113685"><ele>42.333333333333336</ele><time>2026-04-19T09:25:50Z</time></trkpt><trkpt lat="37.89420796107715" lon="15.322385915524942"><ele>44.666666666666664</ele><time>2026-04-19T09:25:51Z</time></trkpt><trkpt lat="37.894341793741546" lon="15.322579943256347"><ele>47.0</ele><time>2026-04-19T09:25:52Z</time></trkpt><trkpt lat="37.894487593058535" lon="15.322768291973427"><ele>47.0</ele><time>2026-04-19T09:25:53Z</time></trkpt><trkpt lat="37.894683803133674" lon="15.322946085182705"><ele>47.0</ele><time>2026-04-19T09:25:54Z</time></trkpt><trkpt lat="37.89488370582911" lon="15.323128810255078"><ele>46.0</ele><time>2026-04-19T09:25:55Z</time></trkpt><trkpt lat="37.895125775231726" lon="15.323303710429418"><ele>45.0</ele><time>2026-04-19T09:25:56Z</time></trkpt><trkpt lat="37.89531750779848" lon="15.323538244589644"><ele>45.0</ele><time>2026-04-19T09:25:57Z</time></trkpt><trkpt lat="37.895473039054224" lon="15.323808558528679"><ele>45.0</ele><time>2026-04-19T09:25:58Z</time></trkpt><trkpt lat="37.89564120247319" lon="15.32405765859338"><ele>42.5</ele><time>2026-04-19T09:25:59Z</time></trkpt><trkpt lat="37.89582980004586" lon="15.324277184951594"><ele>40.0</ele><time>2026-04-19T09:26:00Z</time></trkpt><trkpt lat="37.89602021520413" lon="15.324448514259458"><ele>40.0</ele><time>2026-04-19T09:26:01Z</time></trkpt><trkpt lat="37.89619404756089" lon="15.324586010119353"><ele>40.0</ele><time>2026-04-19T09:26:02Z</time></trkpt><trkpt lat="37.89635015272375" lon="15.324691127070345"><ele>40.0</ele><time>2026-04-19T09:26:03Z</time></trkpt><trkpt lat="37.89652067824269" lon="15.32476670295369"><ele>38.5</ele><time>2026-04-19T09:26:04Z</time></trkpt><trkpt lat="37.896727950897095" lon="15.324806530668205"><ele>37.0</ele><time>2026-04-19T09:26:05Z</time></trkpt><trkpt lat="37.896966168737094" lon="15.324847374199768"><ele>37.0</ele><time>2026-04-19T09:26:06Z</time></trkpt><trkpt lat="37.89713870373797" lon="15.325021585342153"><ele>37.0</ele><time>2026-04-19T09:26:07Z</time></trkpt><trkpt lat="37.89728700977091" lon="15.32515913615316"><ele>37.0</ele><time>2026-04-19T09:26:08Z</time></trkpt><trkpt lat="37.897404321909775" lon="15.325280424141772"><ele>37.0</ele><time>2026-04-19T09:26:09Z</time></trkpt><trkpt lat="37.897493354941794" lon="15.325380104095121"><ele>37.0</ele><time>2026-04-19T09:26:10Z</time></trkpt><trkpt lat="37.897599586214795" lon="15.325442964855993"><ele>37.0</ele><time>2026-04-19T09:26:11Z</time></trkpt><trkpt lat="37.89769204378435" lon="15.32558507196046"><ele>37.0</ele><time>2026-04-19T09:26:12Z</time></trkpt><trkpt lat="37.89781941716757" lon="15.3257470953796"><ele>37.0</ele><time>2026-04-19T09:26:13Z</time></trkpt><trkpt lat="37.897975664656734" lon="15.325917920174078"><ele>37.0</ele><time>2026-04-19T09:26:14Z</time></trkpt><trkpt lat="37.89815449188401" lon="15.326087405372075"><ele>37.0</ele><time>2026-04-19T09:26:15Z</time></trkpt><trkpt lat="37.89834824961871" lon="15.326264414490451"><ele>40.5</ele><time>2026-04-19T09:26:16Z</time></trkpt><trkpt lat="37.89853759801969" lon="15.326444260463512"><ele>44.0</ele><time>2026-04-19T09:26:17Z</time></trkpt><trkpt lat="37.89870545344261" lon="15.326629509189399"><ele>44.0</ele><time>2026-04-19T09:26:18Z</time></trkpt><trkpt lat="37.89885443716116" lon="15.326800916795765"><ele>44.0</ele><time>2026-04-19T09:26:19Z</time></trkpt><trkpt lat="37.8989891511001" lon="15.326957151293529"><ele>44.0</ele><time>2026-04-19T09:26:20Z</time></trkpt><trkpt lat="37.89910806445143" lon="15.327113193806966"><ele>44.0</ele><time>2026-04-19T09:26:21Z</time></trkpt><trkpt lat="37.899212186164895" lon="15.327261478937887"><ele>44.0</ele><time>2026-04-19T09:26:22Z</time></trkpt><trkpt lat="37.89930540818264" lon="15.327420724599921"><ele>44.0</ele><time>2026-04-19T09:26:23Z</time></trkpt><trkpt lat="37.89939437581127" lon="15.327614867632478"><ele>44.0</ele><time>2026-04-19T09:26:24Z</time></trkpt><trkpt lat="37.89947850574925" lon="15.327848013597476"><ele>44.0</ele><time>2026-04-19T09:26:25Z</time></trkpt><trkpt lat="37.89957499587249" lon="15.328065299100057"><ele>44.0</ele><time>2026-04-19T09:26:26Z</time></trkpt><trkpt lat="37.89970186030847" lon="15.328240601234414"><ele>43.33333333333333</ele><time>2026-04-19T09:26:27Z</time></trkpt><trkpt lat="37.89983523137972" lon="15.328337085514065"><ele>42.666666666666664</ele><time>2026-04-19T09:26:28Z</time></trkpt><trkpt lat="37.89998332991495" lon="15.328345793140034"><ele>42.0</ele><time>2026-04-19T09:26:29Z</time></trkpt><trkpt lat="37.900159953061134" lon="15.328361758342295"><ele>42.0</ele><time>2026-04-19T09:26:30Z</time></trkpt><trkpt lat="37.90036037596723" lon="15.32843737124211"><ele>42.0</ele><time>2026-04-19T09:26:31Z</time></trkpt><trkpt lat="37.90057949476167" lon="15.32856991172797"><ele>42.0</ele><time>2026-04-19T09:26:32Z</time></trkpt><trkpt lat="37.900794599052546" lon="15.328764643854585"><ele>42.0</ele><time>2026-04-19T09:26:33Z</time></trkpt><trkpt lat="37.90100305094612" lon="15.328980768381925"><ele>40.0</ele><time>2026-04-19T09:26:34Z</time></trkpt><trkpt lat="37.90117078164111" lon="15.32916436706277"><ele>38.0</ele><time>2026-04-19T09:26:35Z</time></trkpt><trkpt lat="37.901304423954365" lon="15.32932253584406"><ele>36.0</ele><time>2026-04-19T09:26:36Z</time></trkpt><trkpt lat="37.90143024134636" lon="15.329471195808622"><ele>36.0</ele><time>2026-04-19T09:26:37Z</time></trkpt><trkpt lat="37.90156667379965" lon="15.32960359999388"><ele>36.0</ele><time>2026-04-19T09:26:38Z</time></trkpt><trkpt lat="37.90168864894858" lon="15.32974538664632"><ele>36.0</ele><time>2026-04-19T09:26:39Z</time></trkpt><trkpt lat="37.90181187890558" lon="15.329884867269087"><ele>35.333333333333336</ele><time>2026-04-19T09:26:40Z</time></trkpt><trkpt lat="37.90193956294728" lon="15.330014163548242"><ele>34.66666666666667</ele><time>2026-04-19T09:26:41Z</time></trkpt><trkpt lat="37.90208117604422" lon="15.330118421557145"><ele>34.0</ele><time>2026-04-19T09:26:42Z</time></trkpt><trkpt lat="37.902251374024175" lon="15.330201800813951"><ele>34.0</ele><time>2026-04-19T09:26:43Z</time></trkpt><trkpt lat="37.90245188629316" lon="15.330294878873975"><ele>34.0</ele><time>2026-04-19T09:26:44Z</time></trkpt><trkpt lat="37.90262339912302" lon="15.33038631721396"><ele>34.0</ele><time>2026-04-19T09:26:45Z</time></trkpt><trkpt lat="37.90277165770761" lon="15.330468153898826"><ele>37.25</ele><time>2026-04-19T09:26:46Z</time></trkpt><trkpt lat="37.90289332991218" lon="15.330546147581458"><ele>40.5</ele><time>2026-04-19T09:26:47Z</time></trkpt><trkpt lat="37.902971423275424" lon="15.330640085220654"><ele>43.75</ele><time>2026-04-19T09:26:48Z</time></trkpt><trkpt lat="37.90302809184942" lon="15.330774535177953"><ele>47.0</ele><time>2026-04-19T09:26:49Z</time></trkpt><trkpt lat="37.90308121950764" lon="15.330939799647183"><ele>47.0</ele><time>2026-04-19T09:26:50Z</time></trkpt><trkpt lat="37.90314680359653" lon="15.331146073451487"><ele>47.0</ele><time>2026-04-19T09:26:51Z</time></trkpt><trkpt lat="37.903212245532345" lon="15.331360054006973"><ele>47.0</ele><time>2026-04-19T09:26:52Z</time></trkpt><trkpt lat="37.90326945371177" lon="15.331557577048025"><ele>45.0</ele><time>2026-04-19T09:26:53Z</time></trkpt><trkpt lat="37.903311955265664" lon="15.331724144610714"><ele>43.0</ele><time>2026-04-19T09:26:54Z</time></trkpt><trkpt lat="37.903353605785334" lon="15.331926652031672"><ele>41.0</ele><time>2026-04-19T09:26:55Z</time></trkpt><trkpt lat="37.90339955944172" lon="15.332152300200924"><ele>50.0</ele><time>2026-04-19T09:26:56Z</time></trkpt><trkpt lat="37.903464078747724" lon="15.332366320738736"><ele>59.0</ele><time>2026-04-19T09:26:57Z</time></trkpt><trkpt lat="37.903548766203315" lon="15.332595537225002"><ele>68.0</ele><time>2026-04-19T09:26:58Z</time></trkpt><trkpt lat="37.903661018781875" lon="15.332845917299336"><ele>57.66666666666667</ele><time>2026-04-19T09:26:59Z</time></trkpt><trkpt lat="37.90379165652043" lon="15.333082049422359"><ele>47.333333333333336</ele><time>2026-04-19T09:27:00Z</time></trkpt><trkpt lat="37.90389517210381" lon="15.333294720612134"><ele>37.0</ele><time>2026-04-19T09:27:01Z</time></trkpt><trkpt lat="37.90395323074429" lon="15.333505366585065"><ele>37.0</ele><time>2026-04-19T09:27:02Z</time></trkpt><trkpt lat="37.90404464597587" lon="15.33366308066329"><ele>37.0</ele><time>2026-04-19T09:27:02.999Z</time></trkpt><trkpt lat="37.90415023323526" lon="15.333796261805311"><ele>37.0</ele><time>2026-04-19T09:27:03.999Z</time></trkpt><trkpt lat="37.904272844045835" lon="15.333903082017423"><ele>33.75</ele><time>2026-04-19T09:27:04.999Z</time></trkpt><trkpt lat="37.904379645987305" lon="15.333992430249747"><ele>30.5</ele><time>2026-04-19T09:27:05.999Z</time></trkpt><trkpt lat="37.90450061492994" lon="15.334052645293683"><ele>27.25</ele><time>2026-04-19T09:27:06.999Z</time></trkpt><trkpt lat="37.90459432323781" lon="15.334152345228182"><ele>24.0</ele><time>2026-04-19T09:27:07.999Z</time></trkpt><trkpt lat="37.90469479423236" lon="15.334246890299317"><ele>24.0</ele><time>2026-04-19T09:27:08.999Z</time></trkpt><trkpt lat="37.904799018488774" lon="15.334331394682348"><ele>24.0</ele><time>2026-04-19T09:27:09.999Z</time></trkpt><trkpt lat="37.90491338693422" lon="15.334401874690915"><ele>24.0</ele><time>2026-04-19T09:27:10.999Z</time></trkpt><trkpt lat="37.90502272249231" lon="15.334459723585361"><ele>24.0</ele><time>2026-04-19T09:27:11.999Z</time></trkpt><trkpt lat="37.90512415553536" lon="15.334501798401789"><ele>22.4</ele><time>2026-04-19T09:27:12.999Z</time></trkpt><trkpt lat="37.90521627794716" lon="15.334550961050594"><ele>20.799999999999997</ele><time>2026-04-19T09:27:13.999Z</time></trkpt><trkpt lat="37.905307450121484" lon="15.334621820257416"><ele>19.200000000000003</ele><time>2026-04-19T09:27:14.999Z</time></trkpt><trkpt lat="37.905378531818904" lon="15.334720047378093"><ele>17.6</ele><time>2026-04-19T09:27:15.999Z</time></trkpt><trkpt lat="37.90541321747953" lon="15.334852139957453"><ele>16.0</ele><time>2026-04-19T09:27:16.999Z</time></trkpt><trkpt lat="37.905466448319196" lon="15.334970671944738"><ele>14.5</ele><time>2026-04-19T09:27:17.999Z</time></trkpt><trkpt lat="37.90551573597097" lon="15.335092659555146"><ele>13.0</ele><time>2026-04-19T09:27:18.999Z</time></trkpt><trkpt lat="37.90559038997318" lon="15.335186892498866"><ele>11.5</ele><time>2026-04-19T09:27:19.999Z</time></trkpt><trkpt lat="37.905680932927986" lon="15.335282697658263"><ele>10.0</ele><time>2026-04-19T09:27:20.999Z</time></trkpt><trkpt lat="37.90578080079004" lon="15.335372241987743"><ele>10.0</ele><time>2026-04-19T09:27:21.999Z</time></trkpt><trkpt lat="37.90587702125041" lon="15.335454647458167"><ele>10.0</ele><time>2026-04-19T09:27:22.999Z</time></trkpt><trkpt lat="37.90597557672983" lon="15.33552701783269"><ele>10.0</ele><time>2026-04-19T09:27:23.999Z</time></trkpt><trkpt lat="37.906087568613636" lon="15.33557076176368"><ele>10.0</ele><time>2026-04-19T09:27:24.999Z</time></trkpt><trkpt lat="37.906250607792266" lon="15.335605925128196"><ele>11.333333333333334</ele><time>2026-04-19T09:27:25.999Z</time></trkpt><trkpt lat="37.90644159604339" lon="15.335643179053962"><ele>12.666666666666668</ele><time>2026-04-19T09:27:26.999Z</time></trkpt><trkpt lat="37.90664395179506" lon="15.335681136530747"><ele>14.0</ele><time>2026-04-19T09:27:27.999Z</time></trkpt><trkpt lat="37.906838322771094" lon="15.335720008061225"><ele>18.666666666666668</ele><time>2026-04-19T09:27:28.999Z</time></trkpt><trkpt lat="37.90701108542521" lon="15.335832110650932"><ele>23.333333333333336</ele><time>2026-04-19T09:27:29.999Z</time></trkpt><trkpt lat="37.907170398132166" lon="15.336004528382325"><ele>28.0</ele><time>2026-04-19T09:27:30.999Z</time></trkpt><trkpt lat="37.90730061299379" lon="15.33624429455242"><ele>24.0</ele><time>2026-04-19T09:27:31.999Z</time></trkpt><trkpt lat="37.90746795179536" lon="15.336473734089992"><ele>20.0</ele><time>2026-04-19T09:27:33.001Z</time></trkpt><trkpt lat="37.907626630797935" lon="15.336733296027507"><ele>30.0</ele><time>2026-04-19T09:27:34.001Z</time></trkpt><trkpt lat="37.907788308311005" lon="15.336992030006165"><ele>40.0</ele><time>2026-04-19T09:27:35.001Z</time></trkpt><trkpt lat="37.907928531987935" lon="15.337216266555192"><ele>37.333333333333336</ele><time>2026-04-19T09:27:36.001Z</time></trkpt><trkpt lat="37.908063716792626" lon="15.337416770492418"><ele>34.666666666666664</ele><time>2026-04-19T09:27:37.001Z</time></trkpt><trkpt lat="37.90815976964217" lon="15.337605723784531"><ele>32.0</ele><time>2026-04-19T09:27:38.001Z</time></trkpt><trkpt lat="37.90819704270656" lon="15.337803368400474"><ele>32.0</ele><time>2026-04-19T09:27:39.002Z</time></trkpt><trkpt lat="37.90820692693428" lon="15.337997503017878"><ele>32.0</ele><time>2026-04-19T09:27:40.002Z</time></trkpt><trkpt lat="37.908224317674204" lon="15.33816952077773"><ele>32.0</ele><time>2026-04-19T09:27:41.002Z</time></trkpt><trkpt lat="37.90827195458403" lon="15.338316731078592"><ele>32.0</ele><time>2026-04-19T09:27:42.001Z</time></trkpt><trkpt lat="37.90834798802388" lon="15.338459096927252"><ele>36.33333333333333</ele><time>2026-04-19T09:27:43.001Z</time></trkpt><trkpt lat="37.90845230475654" lon="15.338596377958797"><ele>40.666666666666664</ele><time>2026-04-19T09:27:44.001Z</time></trkpt><trkpt lat="37.908589125963545" lon="15.338766471640655"><ele>45.0</ele><time>2026-04-19T09:27:45.001Z</time></trkpt><trkpt lat="37.90873239565613" lon="15.338958111653689"><ele>45.0</ele><time>2026-04-19T09:27:46.002Z</time></trkpt><trkpt lat="37.908832902790316" lon="15.339116347682323"><ele>45.0</ele><time>2026-04-19T09:27:47.002Z</time></trkpt><trkpt lat="37.908895029849084" lon="15.33925356203554"><ele>45.0</ele><time>2026-04-19T09:27:48.002Z</time></trkpt><trkpt lat="37.908942185823825" lon="15.339377884127144"><ele>45.0</ele><time>2026-04-19T09:27:49.002Z</time></trkpt><trkpt lat="37.90898369100503" lon="15.339502413720401"><ele>45.0</ele><time>2026-04-19T09:27:50.002Z</time></trkpt><trkpt lat="37.90901933598783" lon="15.339639096405065"><ele>45.0</ele><time>2026-04-19T09:27:51.002Z</time></trkpt><trkpt lat="37.90905344022546" lon="15.339776088643776"><ele>45.0</ele><time>2026-04-19T09:27:52.001Z</time></trkpt><trkpt lat="37.90911945955063" lon="15.33989085006632"><ele>45.0</ele><time>2026-04-19T09:27:53.001Z</time></trkpt><trkpt lat="37.90919756347983" lon="15.339991483881716"><ele>50.25</ele><time>2026-04-19T09:27:54.001Z</time></trkpt><trkpt lat="37.90927858340105" lon="15.34009400430884"><ele>55.5</ele><time>2026-04-19T09:27:55.001Z</time></trkpt><trkpt lat="37.90933227067409" lon="15.340241029624226"><ele>60.75</ele><time>2026-04-19T09:27:56.001Z</time></trkpt><trkpt lat="37.909386924216435" lon="15.340434651235825"><ele>66.0</ele><time>2026-04-19T09:27:57.001Z</time></trkpt><trkpt lat="37.90944623425242" lon="15.340642268048622"><ele>66.0</ele><time>2026-04-19T09:27:58.001Z</time></trkpt><trkpt lat="37.909520030349114" lon="15.34087621759263"><ele>66.0</ele><time>2026-04-19T09:27:59.001Z</time></trkpt><trkpt lat="37.90958256317739" lon="15.341087209059097"><ele>66.0</ele><time>2026-04-19T09:28:00.001Z</time></trkpt><trkpt lat="37.909623806714336" lon="15.34128227560515"><ele>63.33333333333333</ele><time>2026-04-19T09:28:01.001Z</time></trkpt><trkpt lat="37.90966409730169" lon="15.341460090111342"><ele>60.666666666666664</ele><time>2026-04-19T09:28:02.001Z</time></trkpt><trkpt lat="37.90976032341032" lon="15.341788097866678"><ele>58.0</ele><time>2026-04-19T09:28:04.001Z</time></trkpt><trkpt lat="37.909834900889805" lon="15.341921772112336"><ele>58.0</ele><time>2026-04-19T09:28:05.001Z</time></trkpt><trkpt lat="37.90989979825858" lon="15.34205110432009"><ele>58.0</ele><time>2026-04-19T09:28:06.001Z</time></trkpt><trkpt lat="37.90997674714133" lon="15.342181985131587"><ele>58.0</ele><time>2026-04-19T09:28:07.001Z</time></trkpt><trkpt lat="37.910063028002476" lon="15.342313790793666"><ele>58.0</ele><time>2026-04-19T09:28:08.001Z</time></trkpt><trkpt lat="37.91013895441888" lon="15.342500463696972"><ele>61.666666666666664</ele><time>2026-04-19T09:28:09.001Z</time></trkpt><trkpt lat="37.91023858022995" lon="15.342685522903036"><ele>65.33333333333333</ele><time>2026-04-19T09:28:10.001Z</time></trkpt><trkpt lat="37.91034304470007" lon="15.34288294628023"><ele>69.0</ele><time>2026-04-19T09:28:11.001Z</time></trkpt><trkpt lat="37.91044213220815" lon="15.343090499080255"><ele>69.0</ele><time>2026-04-19T09:28:12.001Z</time></trkpt><trkpt lat="37.91051799204601" lon="15.343293910257291"><ele>69.0</ele><time>2026-04-19T09:28:13.001Z</time></trkpt><trkpt lat="37.9105772123803" lon="15.34349609517301"><ele>69.0</ele><time>2026-04-19T09:28:14.001Z</time></trkpt><trkpt lat="37.91061678691042" lon="15.343686029065793"><ele>69.0</ele><time>2026-04-19T09:28:15.001Z</time></trkpt><trkpt lat="37.91064112201322" lon="15.34385909023391"><ele>69.0</ele><time>2026-04-19T09:28:16.001Z</time></trkpt><trkpt lat="37.91067145206186" lon="15.344017104242246"><ele>69.0</ele><time>2026-04-19T09:28:17.001Z</time></trkpt><trkpt lat="37.9107203898186" lon="15.344175815181767"><ele>69.0</ele><time>2026-04-19T09:28:18.001Z</time></trkpt><trkpt lat="37.910803521675014" lon="15.344339296594526"><ele>69.0</ele><time>2026-04-19T09:28:19.001Z</time></trkpt><trkpt lat="37.91093323256779" lon="15.344517580932308"><ele>69.0</ele><time>2026-04-19T09:28:20.001Z</time></trkpt><trkpt lat="37.91108124008354" lon="15.34469744833519"><ele>69.0</ele><time>2026-04-19T09:28:21.001Z</time></trkpt><trkpt lat="37.91121332391577" lon="15.344873515944345"><ele>69.0</ele><time>2026-04-19T09:28:22.001Z</time></trkpt><trkpt lat="37.911329252208795" lon="15.345040138860913"><ele>69.0</ele><time>2026-04-19T09:28:23.001Z</time></trkpt><trkpt lat="37.911440159108004" lon="15.345192791662619"><ele>69.0</ele><time>2026-04-19T09:28:24.001Z</time></trkpt><trkpt lat="37.91155728843705" lon="15.34535314481197"><ele>69.0</ele><time>2026-04-19T09:28:25.001Z</time></trkpt><trkpt lat="37.911678027760324" lon="15.345530600230358"><ele>69.0</ele><time>2026-04-19T09:28:26.001Z</time></trkpt><trkpt lat="37.911799056814544" lon="15.34571390753414"><ele>69.0</ele><time>2026-04-19T09:28:27.001Z</time></trkpt><trkpt lat="37.91190675263898" lon="15.345856791190286"><ele>70.2</ele><time>2026-04-19T09:28:28.001Z</time></trkpt><trkpt lat="37.912007026542305" lon="15.345968301958266"><ele>71.4</ele><time>2026-04-19T09:28:29.001Z</time></trkpt><trkpt lat="37.912101683080856" lon="15.346043262088251"><ele>72.6</ele><time>2026-04-19T09:28:30.001Z</time></trkpt><trkpt lat="37.91219169457109" lon="15.346070279430196"><ele>73.8</ele><time>2026-04-19T09:28:31.001Z</time></trkpt><trkpt lat="37.912278448314" lon="15.34607063711053"><ele>75.0</ele><time>2026-04-19T09:28:32.001Z</time></trkpt><trkpt lat="37.912365837353555" lon="15.346021986316511"><ele>75.0</ele><time>2026-04-19T09:28:33.001Z</time></trkpt><trkpt lat="37.9124879824505" lon="15.345930775409778"><ele>75.0</ele><time>2026-04-19T09:28:34.001Z</time></trkpt><trkpt lat="37.91262419069034" lon="15.345865193406338"><ele>75.0</ele><time>2026-04-19T09:28:35.001Z</time></trkpt><trkpt lat="37.91274801198663" lon="15.345883183520769"><ele>75.0</ele><time>2026-04-19T09:28:36.001Z</time></trkpt><trkpt lat="37.91284929351027" lon="15.345936524418835"><ele>76.75</ele><time>2026-04-19T09:28:37.001Z</time></trkpt><trkpt lat="37.91292850529001" lon="15.346022380090941"><ele>78.5</ele><time>2026-04-19T09:28:38.001Z</time></trkpt><trkpt lat="37.913020021451764" lon="15.346084197708498"><ele>80.25</ele><time>2026-04-19T09:28:39.001Z</time></trkpt><trkpt lat="37.913130201315106" lon="15.346126504403433"><ele>82.0</ele><time>2026-04-19T09:28:40.001Z</time></trkpt><trkpt lat="37.91325907864252" lon="15.34613706103654"><ele>82.0</ele><time>2026-04-19T09:28:41.001Z</time></trkpt><trkpt lat="37.913382033582735" lon="15.346121696556658"><ele>82.0</ele><time>2026-04-19T09:28:42.001Z</time></trkpt><trkpt lat="37.913487148366904" lon="15.346095994396261"><ele>82.0</ele><time>2026-04-19T09:28:43.001Z</time></trkpt><trkpt lat="37.913586402686086" lon="15.346089193378646"><ele>82.0</ele><time>2026-04-19T09:28:45.001Z</time></trkpt><trkpt lat="37.91369035618147" lon="15.346120853093373"><ele>82.0</ele><time>2026-04-19T09:28:47.001Z</time></trkpt><trkpt lat="37.91380852593416" lon="15.34611880916177"><ele>71.75</ele><time>2026-04-19T09:28:49.001Z</time></trkpt><trkpt lat="37.91385647389928" lon="15.34596108001869"><ele>61.5</ele><time>2026-04-19T09:28:51.001Z</time></trkpt><trkpt lat="37.91384558410577" lon="15.34583562427525"><ele>51.25</ele><time>2026-04-19T09:28:52.001Z</time></trkpt><trkpt lat="37.91384287792987" lon="15.345709141849808"><ele>41.0</ele><time>2026-04-19T09:28:53.001Z</time></trkpt><trkpt lat="37.91388254935985" lon="15.345561397306017"><ele>48.33333333333333</ele><time>2026-04-19T09:28:54.001Z</time></trkpt><trkpt lat="37.91398096137925" lon="15.345370832389673"><ele>55.666666666666664</ele><time>2026-04-19T09:28:55.001Z</time></trkpt><trkpt lat="37.914120392430895" lon="15.345163032401906"><ele>63.0</ele><time>2026-04-19T09:28:56.001Z</time></trkpt><trkpt lat="37.91423162669009" lon="15.344955400206558"><ele>54.666666666666664</ele><time>2026-04-19T09:28:57.001Z</time></trkpt><trkpt lat="37.91432414872251" lon="15.344775181501277"><ele>46.33333333333333</ele><time>2026-04-19T09:28:58.001Z</time></trkpt><trkpt lat="37.91439782308012" lon="15.344598202941587"><ele>38.0</ele><time>2026-04-19T09:28:59.001Z</time></trkpt><trkpt lat="37.91447785341187" lon="15.344440471643317"><ele>38.0</ele><time>2026-04-19T09:29:00.001Z</time></trkpt><trkpt lat="37.91454884324141" lon="15.344311472012468"><ele>38.0</ele><time>2026-04-19T09:29:01.001Z</time></trkpt><trkpt lat="37.91460982559142" lon="15.344185586162434"><ele>38.0</ele><time>2026-04-19T09:29:02.001Z</time></trkpt><trkpt lat="37.91466992207807" lon="15.34407353299386"><ele>38.0</ele><time>2026-04-19T09:29:03.001Z</time></trkpt><trkpt lat="37.91478814559756" lon="15.344010233470309"><ele>38.0</ele><time>2026-04-19T09:29:04.001Z</time></trkpt><trkpt lat="37.91486654334853" lon="15.343920596573879"><ele>38.0</ele><time>2026-04-19T09:29:05.001Z</time></trkpt><trkpt lat="37.914937466757806" lon="15.343828048423521"><ele>38.0</ele><time>2026-04-19T09:29:06.001Z</time></trkpt><trkpt lat="37.91500079889206" lon="15.343710476977488"><ele>38.0</ele><time>2026-04-19T09:29:07.001Z</time></trkpt><trkpt lat="37.91506296002352" lon="15.34358178098962"><ele>38.0</ele><time>2026-04-19T09:29:08.001Z</time></trkpt><trkpt lat="37.91511320060548" lon="15.343479765934678"><ele>37.199999999999996</ele><time>2026-04-19T09:29:09.001Z</time></trkpt><trkpt lat="37.91515491118117" lon="15.343412533432433"><ele>36.4</ele><time>2026-04-19T09:29:10.001Z</time></trkpt><trkpt lat="37.91523118752962" lon="15.343381920999212"><ele>35.599999999999994</ele><time>2026-04-19T09:29:12.001Z</time></trkpt><trkpt lat="37.9152202068375" lon="15.343507677402169"><ele>34.8</ele><time>2026-04-19T09:29:14.001Z</time></trkpt><trkpt lat="37.91515551693467" lon="15.343602585015999"><ele>34.0</ele><time>2026-04-19T09:29:15.001Z</time></trkpt><trkpt lat="37.91507061841374" lon="15.343769513457445"><ele>35.333333333333336</ele><time>2026-04-19T09:29:16.001Z</time></trkpt><trkpt lat="37.9149848970193" lon="15.343935619305519"><ele>36.666666666666664</ele><time>2026-04-19T09:29:17.001Z</time></trkpt><trkpt lat="37.91488714384458" lon="15.344112328017097"><ele>38.0</ele><time>2026-04-19T09:29:18.001Z</time></trkpt><trkpt lat="37.914785155451526" lon="15.344307490830566"><ele>38.0</ele><time>2026-04-19T09:29:19.001Z</time></trkpt><trkpt lat="37.914673815807426" lon="15.344462662443007"><ele>38.0</ele><time>2026-04-19T09:29:20.001Z</time></trkpt><trkpt lat="37.9146181007758" lon="15.344651997596609"><ele>38.0</ele><time>2026-04-19T09:29:21.001Z</time></trkpt><trkpt lat="37.9145813322746" lon="15.344821857919326"><ele>34.199999999999996</ele><time>2026-04-19T09:29:22.001Z</time></trkpt><trkpt lat="37.914546895091384" lon="15.34496508643719"><ele>30.4</ele><time>2026-04-19T09:29:23.001Z</time></trkpt><trkpt lat="37.914531655985385" lon="15.345084561185715"><ele>26.599999999999998</ele><time>2026-04-19T09:29:24.001Z</time></trkpt><trkpt lat="37.91454840823852" lon="15.345187630017975"><ele>22.799999999999997</ele><time>2026-04-19T09:29:25.001Z</time></trkpt><trkpt lat="37.91461127857749" lon="15.3452580051839"><ele>19.0</ele><time>2026-04-19T09:29:26.001Z</time></trkpt><trkpt lat="37.91470346483207" lon="15.345255647208406"><ele>19.0</ele><time>2026-04-19T09:29:27.001Z</time></trkpt><trkpt lat="37.91475763696334" lon="15.34517466881008"><ele>19.0</ele><time>2026-04-19T09:29:28.001Z</time></trkpt><trkpt lat="37.91479928437384" lon="15.34508367846664"><ele>19.0</ele><time>2026-04-19T09:29:29.001Z</time></trkpt><trkpt lat="37.91483045922835" lon="15.344947196142435"><ele>19.0</ele><time>2026-04-19T09:29:30.001Z</time></trkpt><trkpt lat="37.914881135064405" lon="15.344775000144745"><ele>19.0</ele><time>2026-04-19T09:29:31.001Z</time></trkpt><trkpt lat="37.91496651651245" lon="15.344600559699149"><ele>17.0</ele><time>2026-04-19T09:29:32.001Z</time></trkpt><trkpt lat="37.91506785820325" lon="15.344431153971167"><ele>15.0</ele><time>2026-04-19T09:29:33.001Z</time></trkpt><trkpt lat="37.915168276926515" lon="15.344286317000163"><ele>13.0</ele><time>2026-04-19T09:29:34.001Z</time></trkpt><trkpt lat="37.915274938358266" lon="15.34413743294847"><ele>13.0</ele><time>2026-04-19T09:29:35.001Z</time></trkpt><trkpt lat="37.91537685049327" lon="15.343980404383059"><ele>13.0</ele><time>2026-04-19T09:29:36.001Z</time></trkpt><trkpt lat="37.9154812126317" lon="15.343830275334835"><ele>13.0</ele><time>2026-04-19T09:29:37.001Z</time></trkpt><trkpt lat="37.91558535465332" lon="15.343686087714357"><ele>15.5</ele><time>2026-04-19T09:29:38.001Z</time></trkpt><trkpt lat="37.91569634820941" lon="15.343559513878033"><ele>18.0</ele><time>2026-04-19T09:29:39.003Z</time></trkpt><trkpt lat="37.91582642438696" lon="15.34348348598174"><ele>20.5</ele><time>2026-04-19T09:29:40.003Z</time></trkpt><trkpt lat="37.91596535839657" lon="15.343473279826489"><ele>23.0</ele><time>2026-04-19T09:29:41.003Z</time></trkpt><trkpt lat="37.916099268423444" lon="15.34347373786524"><ele>23.0</ele><time>2026-04-19T09:29:42.003Z</time></trkpt><trkpt lat="37.91623164927345" lon="15.343493326809087"><ele>23.0</ele><time>2026-04-19T09:29:43.002Z</time></trkpt><trkpt lat="37.91637171752641" lon="15.343518838781284"><ele>23.0</ele><time>2026-04-19T09:29:44.002Z</time></trkpt><trkpt lat="37.9165221962851" lon="15.343552238375633"><ele>23.0</ele><time>2026-04-19T09:29:45.003Z</time></trkpt><trkpt lat="37.91663004739537" lon="15.343580843915163"><ele>23.0</ele><time>2026-04-19T09:29:46.003Z</time></trkpt><trkpt lat="37.916722076011794" lon="15.343611431858038"><ele>23.0</ele><time>2026-04-19T09:29:47.003Z</time></trkpt><trkpt lat="37.916792642729746" lon="15.343641312517835"><ele>23.0</ele><time>2026-04-19T09:29:48.003Z</time></trkpt><trkpt lat="37.91684909401936" lon="15.34369458912321"><ele>23.0</ele><time>2026-04-19T09:29:50.003Z</time></trkpt><trkpt lat="37.916794062817225" lon="15.343747385022347"><ele>23.0</ele><time>2026-04-19T09:29:52.003Z</time></trkpt><trkpt lat="37.91670294687423" lon="15.3437993727307"><ele>23.0</ele><time>2026-04-19T09:29:54.003Z</time></trkpt><trkpt lat="37.916658327927806" lon="15.343864846941528"><ele>20.799999999999997</ele><time>2026-04-19T09:29:55.003Z</time></trkpt><trkpt lat="37.91659670579332" lon="15.343959737014465"><ele>18.599999999999998</ele><time>2026-04-19T09:29:57.003Z</time></trkpt><trkpt lat="37.91654232637156" lon="15.344067965359221"><ele>16.4</ele><time>2026-04-19T09:29:59.003Z</time></trkpt><trkpt lat="37.91649351041616" lon="15.344147237942392"><ele>14.2</ele><time>2026-04-19T09:30:01.003Z</time></trkpt><trkpt lat="37.91648167720646" lon="15.344269053616054"><ele>12.0</ele><time>2026-04-19T09:30:03.003Z</time></trkpt><trkpt lat="37.91649175663277" lon="15.344478212000938"><ele>12.0</ele><time>2026-04-19T09:30:05.003Z</time></trkpt><trkpt lat="37.9164770535953" lon="15.344615880381154"><ele>12.0</ele><time>2026-04-19T09:30:06.003Z</time></trkpt><trkpt lat="37.91646506307275" lon="15.344697042764166"><ele>12.0</ele><time>2026-04-19T09:30:07.003Z</time></trkpt><trkpt lat="37.9164533451082" lon="15.34483527689536"><ele>12.0</ele><time>2026-04-19T09:30:09.003Z</time></trkpt><trkpt lat="37.91654777390705" lon="15.344962335499032"><ele>12.0</ele><time>2026-04-19T09:30:11.003Z</time></trkpt><trkpt lat="37.91661501972909" lon="15.344943170692106"><ele>11.666666666666666</ele><time>2026-04-19T09:30:12.003Z</time></trkpt><trkpt lat="37.916683467817215" lon="15.34496494376251"><ele>11.333333333333334</ele><time>2026-04-19T09:30:16.003Z</time></trkpt><trkpt lat="37.91676454287722" lon="15.344990737596918"><ele>11.0</ele><time>2026-04-19T09:30:18.003Z</time></trkpt><trkpt lat="37.91687859332421" lon="15.345027022471236"><ele>10.666666666666668</ele><time>2026-04-19T09:30:20.003Z</time></trkpt><trkpt lat="37.91694513859483" lon="15.34504819372936"><ele>10.333333333333334</ele><time>2026-04-19T09:30:21.003Z</time></trkpt><trkpt lat="37.91702512494596" lon="15.345074628967145"><ele>10.0</ele><time>2026-04-19T09:30:22.003Z</time></trkpt><trkpt lat="37.91710171572768" lon="15.345099519937502"><ele>10.0</ele><time>2026-04-19T09:30:23.003Z</time></trkpt><trkpt lat="37.91717331158259" lon="15.345122787629307"><ele>10.0</ele><time>2026-04-19T09:30:24.003Z</time></trkpt><trkpt lat="37.91724992284483" lon="15.345147685256732"><ele>10.0</ele><time>2026-04-19T09:30:25.003Z</time></trkpt><trkpt lat="37.91732740324499" lon="15.345174011143019"><ele>10.0</ele><time>2026-04-19T09:30:26.003Z</time></trkpt><trkpt lat="37.91740714894432" lon="15.345201138458197"><ele>10.0</ele><time>2026-04-19T09:30:27.003Z</time></trkpt><trkpt lat="37.917492691771805" lon="15.345231026874613"><ele>10.0</ele><time>2026-04-19T09:30:28.003Z</time></trkpt><trkpt lat="37.91760107294666" lon="15.34526943022843"><ele>10.75</ele><time>2026-04-19T09:30:29.003Z</time></trkpt><trkpt lat="37.91771314581587" lon="15.345309141685027"><ele>11.5</ele><time>2026-04-19T09:30:30.003Z</time></trkpt><trkpt lat="37.91783322783875" lon="15.345353648936532"><ele>12.25</ele><time>2026-04-19T09:30:31.003Z</time></trkpt><trkpt lat="37.91794282809692" lon="15.345394603678377"><ele>13.0</ele><time>2026-04-19T09:30:32.003Z</time></trkpt><trkpt lat="37.91804419738088" lon="15.345432482727892"><ele>13.0</ele><time>2026-04-19T09:30:33.003Z</time></trkpt><trkpt lat="37.91813852881798" lon="15.345470010300414"><ele>13.0</ele><time>2026-04-19T09:30:34.003Z</time></trkpt><trkpt lat="37.91822986886905" lon="15.345507654457524"><ele>13.0</ele><time>2026-04-19T09:30:35.003Z</time></trkpt><trkpt lat="37.918324986079234" lon="15.345550771733704"><ele>13.0</ele><time>2026-04-19T09:30:36.003Z</time></trkpt><trkpt lat="37.918530609652585" lon="15.345643457914385"><ele>12.75</ele><time>2026-04-19T09:30:38.003Z</time></trkpt><trkpt lat="37.91864220896697" lon="15.345713024650053"><ele>12.5</ele><time>2026-04-19T09:30:39.003Z</time></trkpt><trkpt lat="37.918755719742535" lon="15.34579306305649"><ele>12.25</ele><time>2026-04-19T09:30:40.003Z</time></trkpt><trkpt lat="37.918860251612834" lon="15.345860061353683"><ele>12.0</ele><time>2026-04-19T09:30:41.003Z</time></trkpt><trkpt lat="37.91896787260933" lon="15.345925782888273"><ele>12.0</ele><time>2026-04-19T09:30:42.003Z</time></trkpt><trkpt lat="37.919062570239696" lon="15.345984907557206"><ele>12.0</ele><time>2026-04-19T09:30:43.003Z</time></trkpt><trkpt lat="37.91914443135253" lon="15.346049933347548"><ele>12.0</ele><time>2026-04-19T09:30:44.003Z</time></trkpt><trkpt lat="37.919203307706475" lon="15.34612380368802"><ele>12.0</ele><time>2026-04-19T09:30:45.003Z</time></trkpt><trkpt lat="37.919285700269896" lon="15.346128932213523"><ele>12.0</ele><time>2026-04-19T09:30:46.003Z</time></trkpt><trkpt lat="37.9194015745447" lon="15.346190932092313"><ele>12.0</ele><time>2026-04-19T09:30:48.003Z</time></trkpt><trkpt lat="37.91949530395257" lon="15.3463036913244"><ele>12.0</ele><time>2026-04-19T09:30:50.003Z</time></trkpt><trkpt lat="37.91955893249586" lon="15.346346571268795"><ele>12.0</ele><time>2026-04-19T09:30:51.003Z</time></trkpt><trkpt lat="37.91962935929567" lon="15.346394165373118"><ele>12.0</ele><time>2026-04-19T09:30:52.003Z</time></trkpt><trkpt lat="37.919718065700344" lon="15.3464564289067"><ele>12.0</ele><time>2026-04-19T09:30:53.003Z</time></trkpt><trkpt lat="37.91980644467538" lon="15.346519217431203"><ele>11.8</ele><time>2026-04-19T09:30:54.002Z</time></trkpt><trkpt lat="37.91988476211448" lon="15.34657536280602"><ele>11.6</ele><time>2026-04-19T09:30:55.002Z</time></trkpt><trkpt lat="37.919963807916815" lon="15.346632030348356"><ele>11.4</ele><time>2026-04-19T09:30:56.002Z</time></trkpt><trkpt lat="37.92005391071863" lon="15.346696848993293"><ele>11.200000000000001</ele><time>2026-04-19T09:30:57.002Z</time></trkpt><trkpt lat="37.92014531756275" lon="15.346762612112313"><ele>11.0</ele><time>2026-04-19T09:30:58.002Z</time></trkpt><trkpt lat="37.92024447504543" lon="15.34683099347946"><ele>11.0</ele><time>2026-04-19T09:30:59.002Z</time></trkpt><trkpt lat="37.92034500237163" lon="15.346896406853498"><ele>11.0</ele><time>2026-04-19T09:31:00.002Z</time></trkpt><trkpt lat="37.92043473580037" lon="15.346955426318024"><ele>11.0</ele><time>2026-04-19T09:31:01.002Z</time></trkpt><trkpt lat="37.9205156702797" lon="15.34700875763428"><ele>11.0</ele><time>2026-04-19T09:31:02.002Z</time></trkpt><trkpt lat="37.920591849232395" lon="15.347058157424355"><ele>11.0</ele><time>2026-04-19T09:31:03.002Z</time></trkpt><trkpt lat="37.92066026428723" lon="15.347102804642029"><ele>11.0</ele><time>2026-04-19T09:31:04.002Z</time></trkpt><trkpt lat="37.920743945269564" lon="15.347156621142398"><ele>11.0</ele><time>2026-04-19T09:31:05.002Z</time></trkpt><trkpt lat="37.92084314205392" lon="15.347218631176636"><ele>11.0</ele><time>2026-04-19T09:31:06.002Z</time></trkpt><trkpt lat="37.920959453200226" lon="15.34726842476804"><ele>11.0</ele><time>2026-04-19T09:31:07.002Z</time></trkpt><trkpt lat="37.92106892467384" lon="15.347358543530005"><ele>10.25</ele><time>2026-04-19T09:31:08.002Z</time></trkpt><trkpt lat="37.92119062259034" lon="15.347431272197072"><ele>9.5</ele><time>2026-04-19T09:31:09.002Z</time></trkpt><trkpt lat="37.92130891958118" lon="15.347496775293033"><ele>8.75</ele><time>2026-04-19T09:31:10.002Z</time></trkpt><trkpt lat="37.92142621357131" lon="15.347558827835657"><ele>8.0</ele><time>2026-04-19T09:31:11.002Z</time></trkpt><trkpt lat="37.921540159212086" lon="15.347621254794484"><ele>8.0</ele><time>2026-04-19T09:31:12.002Z</time></trkpt><trkpt lat="37.92165021949882" lon="15.347683042221444"><ele>8.0</ele><time>2026-04-19T09:31:13.002Z</time></trkpt><trkpt lat="37.92174323075443" lon="15.347754609795134"><ele>8.0</ele><time>2026-04-19T09:31:14.002Z</time></trkpt><trkpt lat="37.921833554579045" lon="15.347806525556186"><ele>8.0</ele><time>2026-04-19T09:31:15.002Z</time></trkpt><trkpt lat="37.92192044358647" lon="15.347861923469118"><ele>8.0</ele><time>2026-04-19T09:31:16.002Z</time></trkpt><trkpt lat="37.92200531015379" lon="15.347915768526505"><ele>7.999999999999999</ele><time>2026-04-19T09:31:17.002Z</time></trkpt><trkpt lat="37.92208392242563" lon="15.3479619937838"><ele>8.0</ele><time>2026-04-19T09:31:18.002Z</time></trkpt><trkpt lat="37.92216438655387" lon="15.348002659468014"><ele>8.0</ele><time>2026-04-19T09:31:19.002Z</time></trkpt><trkpt lat="37.92224546121283" lon="15.348054078252858"><ele>8.0</ele><time>2026-04-19T09:31:20.002Z</time></trkpt><trkpt lat="37.92232738452053" lon="15.348098399379516"><ele>7.999999999999999</ele><time>2026-04-19T09:31:21.002Z</time></trkpt><trkpt lat="37.922400738480306" lon="15.348141957339509"><ele>8.0</ele><time>2026-04-19T09:31:22.002Z</time></trkpt><trkpt lat="37.922482097396795" lon="15.34818946451014"><ele>8.8</ele><time>2026-04-19T09:31:23.002Z</time></trkpt><trkpt lat="37.92258098067792" lon="15.348239600194013"><ele>9.600000000000001</ele><time>2026-04-19T09:31:24.002Z</time></trkpt><trkpt lat="37.922690596980864" lon="15.348295597835543"><ele>10.399999999999999</ele><time>2026-04-19T09:31:25.002Z</time></trkpt><trkpt lat="37.92278345116591" lon="15.348371672742214"><ele>11.2</ele><time>2026-04-19T09:31:26.002Z</time></trkpt><trkpt lat="37.922881550547984" lon="15.34843435395249"><ele>12.0</ele><time>2026-04-19T09:31:27.002Z</time></trkpt><trkpt lat="37.922980821430606" lon="15.348501774064465"><ele>12.0</ele><time>2026-04-19T09:31:28.002Z</time></trkpt><trkpt lat="37.92307345067506" lon="15.348560108083749"><ele>12.0</ele><time>2026-04-19T09:31:29.002Z</time></trkpt><trkpt lat="37.923162503117204" lon="15.34861588749136"><ele>12.0</ele><time>2026-04-19T09:31:30.002Z</time></trkpt><trkpt lat="37.92322683950171" lon="15.348688132356783"><ele>12.0</ele><time>2026-04-19T09:31:31.002Z</time></trkpt><trkpt lat="37.92329154177584" lon="15.348744556248061"><ele>12.0</ele><time>2026-04-19T09:31:32.002Z</time></trkpt><trkpt lat="37.923360562946655" lon="15.348782844113483"><ele>12.0</ele><time>2026-04-19T09:31:33.002Z</time></trkpt><trkpt lat="37.92341692929795" lon="15.348838016444242"><ele>11.6</ele><time>2026-04-19T09:31:34.002Z</time></trkpt><trkpt lat="37.92348264431742" lon="15.348893746379728"><ele>11.2</ele><time>2026-04-19T09:31:35.002Z</time></trkpt><trkpt lat="37.923534223851846" lon="15.348978083981768"><ele>10.8</ele><time>2026-04-19T09:31:36.002Z</time></trkpt><trkpt lat="37.92360325196945" lon="15.349042978609905"><ele>10.4</ele><time>2026-04-19T09:31:37.002Z</time></trkpt><trkpt lat="37.92368948339975" lon="15.349120414248603"><ele>10.0</ele><time>2026-04-19T09:31:38.002Z</time></trkpt><trkpt lat="37.92379187746122" lon="15.349213471084715"><ele>10.0</ele><time>2026-04-19T09:31:39.002Z</time></trkpt><trkpt lat="37.9239026689319" lon="15.349322906192308"><ele>10.0</ele><time>2026-04-19T09:31:40.002Z</time></trkpt><trkpt lat="37.92402041287664" lon="15.349442304057517"><ele>10.0</ele><time>2026-04-19T09:31:41.002Z</time></trkpt><trkpt lat="37.92413930824763" lon="15.349563187101976"><ele>10.0</ele><time>2026-04-19T09:31:42.002Z</time></trkpt><trkpt lat="37.92425835559771" lon="15.349678148520624"><ele>9.666666666666668</ele><time>2026-04-19T09:31:43.002Z</time></trkpt><trkpt lat="37.92438134780299" lon="15.349792802647588"><ele>9.333333333333334</ele><time>2026-04-19T09:31:44.002Z</time></trkpt><trkpt lat="37.92450965372081" lon="15.349906303054656"><ele>9.0</ele><time>2026-04-19T09:31:45.005Z</time></trkpt><trkpt lat="37.92463822183713" lon="15.350017626538735"><ele>9.0</ele><time>2026-04-19T09:31:46.005Z</time></trkpt><trkpt lat="37.9247650344201" lon="15.350125294096735"><ele>9.0</ele><time>2026-04-19T09:31:47.005Z</time></trkpt><trkpt lat="37.92489784534667" lon="15.350247372173595"><ele>9.0</ele><time>2026-04-19T09:31:48.004Z</time></trkpt><trkpt lat="37.925033308125364" lon="15.350374175603276"><ele>9.0</ele><time>2026-04-19T09:31:49.005Z</time></trkpt><trkpt lat="37.92516980921138" lon="15.350514284078967"><ele>9.0</ele><time>2026-04-19T09:31:50.005Z</time></trkpt><trkpt lat="37.92530392381253" lon="15.350652420287497"><ele>9.0</ele><time>2026-04-19T09:31:51.005Z</time></trkpt><trkpt lat="37.925430396568004" lon="15.350786647492033"><ele>9.0</ele><time>2026-04-19T09:31:52.005Z</time></trkpt><trkpt lat="37.925554527481985" lon="15.350914719814533"><ele>9.0</ele><time>2026-04-19T09:31:53.005Z</time></trkpt><trkpt lat="37.925675139192684" lon="15.351049450244709"><ele>9.0</ele><time>2026-04-19T09:31:54.004Z</time></trkpt><trkpt lat="37.925797957580166" lon="15.35118879003116"><ele>10.0</ele><time>2026-04-19T09:31:55.005Z</time></trkpt><trkpt lat="37.92591870978038" lon="15.3513321238595"><ele>11.0</ele><time>2026-04-19T09:31:56.005Z</time></trkpt><trkpt lat="37.92604659810691" lon="15.351475273919673"><ele>12.0</ele><time>2026-04-19T09:31:57.005Z</time></trkpt><trkpt lat="37.9261707941244" lon="15.351614210406572"><ele>12.0</ele><time>2026-04-19T09:31:58.005Z</time></trkpt><trkpt lat="37.92628720064573" lon="15.351742850478285"><ele>12.0</ele><time>2026-04-19T09:31:59.005Z</time></trkpt><trkpt lat="37.92639262855241" lon="15.351853889094887"><ele>12.0</ele><time>2026-04-19T09:32:00.005Z</time></trkpt><trkpt lat="37.926475964291384" lon="15.35198491987717"><ele>12.0</ele><time>2026-04-19T09:32:01.005Z</time></trkpt><trkpt lat="37.92657625198459" lon="15.352085144520396"><ele>12.0</ele><time>2026-04-19T09:32:02.005Z</time></trkpt><trkpt lat="37.92668056251724" lon="15.352184512458752"><ele>12.0</ele><time>2026-04-19T09:32:03.005Z</time></trkpt><trkpt lat="37.92678877405797" lon="15.352283695104436"><ele>12.0</ele><time>2026-04-19T09:32:04.005Z</time></trkpt><trkpt lat="37.92689547773937" lon="15.352378945216675"><ele>12.0</ele><time>2026-04-19T09:32:05.005Z</time></trkpt><trkpt lat="37.92699689803967" lon="15.3524664531235"><ele>11.5</ele><time>2026-04-19T09:32:06.005Z</time></trkpt><trkpt lat="37.92710126651916" lon="15.352549944222774"><ele>11.0</ele><time>2026-04-19T09:32:07.005Z</time></trkpt><trkpt lat="37.92720432582897" lon="15.352629291981412"><ele>10.5</ele><time>2026-04-19T09:32:08.005Z</time></trkpt><trkpt lat="37.927304567543885" lon="15.352716142512355"><ele>10.0</ele><time>2026-04-19T09:32:09.005Z</time></trkpt><trkpt lat="37.927410868098214" lon="15.35280995978352"><ele>10.0</ele><time>2026-04-19T09:32:10.005Z</time></trkpt><trkpt lat="37.927504744903615" lon="15.352930676280796"><ele>10.0</ele><time>2026-04-19T09:32:11.005Z</time></trkpt><trkpt lat="37.92760358754656" lon="15.35301054501068"><ele>10.0</ele><time>2026-04-19T09:32:12.005Z</time></trkpt><trkpt lat="37.92767370232084" lon="15.353070188162269"><ele>10.0</ele><time>2026-04-19T09:32:13.005Z</time></trkpt><trkpt lat="37.92773163273486" lon="15.35313105943764"><ele>10.0</ele><time>2026-04-19T09:32:14.005Z</time></trkpt><trkpt lat="37.92779222871279" lon="15.353188641494802"><ele>10.5</ele><time>2026-04-19T09:32:15.005Z</time></trkpt><trkpt lat="37.92787888539467" lon="15.353259976573664"><ele>11.0</ele><time>2026-04-19T09:32:16.005Z</time></trkpt><trkpt lat="37.927998078746036" lon="15.35335781214205"><ele>11.5</ele><time>2026-04-19T09:32:17.005Z</time></trkpt><trkpt lat="37.92811948621599" lon="15.353468948299895"><ele>12.0</ele><time>2026-04-19T09:32:18.005Z</time></trkpt><trkpt lat="37.928223713382465" lon="15.353572872361369"><ele>12.0</ele><time>2026-04-19T09:32:19.005Z</time></trkpt><trkpt lat="37.92831587448903" lon="15.353656578330138"><ele>12.0</ele><time>2026-04-19T09:32:20.005Z</time></trkpt><trkpt lat="37.9283974820799" lon="15.353734618295961"><ele>12.0</ele><time>2026-04-19T09:32:21.005Z</time></trkpt><trkpt lat="37.92846791168874" lon="15.353807330450397"><ele>12.0</ele><time>2026-04-19T09:32:22.005Z</time></trkpt><trkpt lat="37.92851751773893" lon="15.35389410943224"><ele>12.0</ele><time>2026-04-19T09:32:23.005Z</time></trkpt><trkpt lat="37.928579155995266" lon="15.35392610878887"><ele>12.0</ele><time>2026-04-19T09:32:24.005Z</time></trkpt><trkpt lat="37.92864344249139" lon="15.353977706424809"><ele>12.0</ele><time>2026-04-19T09:32:26.005Z</time></trkpt><trkpt lat="37.92878984120979" lon="15.353729346207441"><ele>12.0</ele><time>2026-04-19T09:32:27.005Z</time></trkpt><trkpt lat="37.92889030630438" lon="15.353589838063165"><ele>12.0</ele><time>2026-04-19T09:32:28.005Z</time></trkpt><trkpt lat="37.92896488232496" lon="15.353483476755871"><ele>12.0</ele><time>2026-04-19T09:32:29.005Z</time></trkpt><trkpt lat="37.92901154768122" lon="15.35339311241877"><ele>12.0</ele><time>2026-04-19T09:32:30.005Z</time></trkpt><trkpt lat="37.929034649436325" lon="15.353298746681695"><ele>12.0</ele><time>2026-04-19T09:32:31.005Z</time></trkpt><trkpt lat="37.92907900080068" lon="15.353180886396716"><ele>12.0</ele><time>2026-04-19T09:32:33.005Z</time></trkpt><trkpt lat="37.929132290354055" lon="15.353109413057147"><ele>12.0</ele><time>2026-04-19T09:32:35.005Z</time></trkpt><trkpt lat="37.929241496116404" lon="15.353163154089007"><ele>12.0</ele><time>2026-04-19T09:32:37.005Z</time></trkpt><trkpt lat="37.92932184195937" lon="15.35322497466491"><ele>12.0</ele><time>2026-04-19T09:32:38.005Z</time></trkpt><trkpt lat="37.929394507172766" lon="15.353272992706122"><ele>12.0</ele><time>2026-04-19T09:32:39.005Z</time></trkpt><trkpt lat="37.92945294884539" lon="15.353321998864855"><ele>12.0</ele><time>2026-04-19T09:32:40.005Z</time></trkpt><trkpt lat="37.929520348458695" lon="15.353385517919813"><ele>12.0</ele><time>2026-04-19T09:32:41.005Z</time></trkpt><trkpt lat="37.929603491970894" lon="15.353452481282037"><ele>12.0</ele><time>2026-04-19T09:32:42.005Z</time></trkpt><trkpt lat="37.92968658609539" lon="15.353512492891637"><ele>12.0</ele><time>2026-04-19T09:32:43.005Z</time></trkpt><trkpt lat="37.92976597432686" lon="15.353558957766108"><ele>12.0</ele><time>2026-04-19T09:32:44.005Z</time></trkpt><trkpt lat="37.92982934015102" lon="15.353606582436296"><ele>12.0</ele><time>2026-04-19T09:32:45.005Z</time></trkpt><trkpt lat="37.929895225126494" lon="15.3536429127804"><ele>12.0</ele><time>2026-04-19T09:32:46.005Z</time></trkpt><trkpt lat="37.92997080004855" lon="15.353720221898392"><ele>12.0</ele><time>2026-04-19T09:32:47.005Z</time></trkpt><trkpt lat="37.93004736238237" lon="15.353751294900702"><ele>12.2</ele><time>2026-04-19T09:32:48.005Z</time></trkpt><trkpt lat="37.93011836792376" lon="15.353804459244403"><ele>12.399999999999999</ele><time>2026-04-19T09:32:50.005Z</time></trkpt><trkpt lat="37.93021074077055" lon="15.353840745043595"><ele>12.600000000000001</ele><time>2026-04-19T09:32:54.005Z</time></trkpt><trkpt lat="37.930318063254205" lon="15.353897569382077"><ele>12.8</ele><time>2026-04-19T09:32:56.005Z</time></trkpt><trkpt lat="37.930413923956515" lon="15.353928319508396"><ele>13.0</ele><time>2026-04-19T09:32:58.005Z</time></trkpt><trkpt lat="37.93049442519708" lon="15.353956442762556"><ele>12.499999999999998</ele><time>2026-04-19T09:33:00.005Z</time></trkpt><trkpt lat="37.93058021022858" lon="15.353999865247237"><ele>12.0</ele><time>2026-04-19T09:33:03.005Z</time></trkpt><trkpt lat="37.9306658480329" lon="15.35404247189243"><ele>11.5</ele><time>2026-04-19T09:33:05.005Z</time></trkpt><trkpt lat="37.930730991153204" lon="15.354064172665915"><ele>11.0</ele><time>2026-04-19T09:33:06.005Z</time></trkpt><trkpt lat="37.930799944104635" lon="15.354099599552091"><ele>10.5</ele><time>2026-04-19T09:33:07.005Z</time></trkpt><trkpt lat="37.93086591395554" lon="15.354126248138769"><ele>10.0</ele><time>2026-04-19T09:33:08.005Z</time></trkpt><trkpt lat="37.93097846190166" lon="15.35418068086364"><ele>9.833333333333334</ele><time>2026-04-19T09:33:10.005Z</time></trkpt><trkpt lat="37.931072319264985" lon="15.354281423732832"><ele>9.666666666666668</ele><time>2026-04-19T09:33:12.005Z</time></trkpt><trkpt lat="37.93112675261256" lon="15.354336178887742"><ele>9.5</ele><time>2026-04-19T09:33:13.005Z</time></trkpt><trkpt lat="37.93118475326987" lon="15.35439785182942"><ele>9.333333333333334</ele><time>2026-04-19T09:33:14.005Z</time></trkpt><trkpt lat="37.93126058442242" lon="15.354416160167993"><ele>9.166666666666666</ele><time>2026-04-19T09:33:15.005Z</time></trkpt><trkpt lat="37.93134151871613" lon="15.354351280663426"><ele>9.0</ele><time>2026-04-19T09:33:16.005Z</time></trkpt><trkpt lat="37.931420414261986" lon="15.354283183595678"><ele>9.0</ele><time>2026-04-19T09:33:17.005Z</time></trkpt><trkpt lat="37.93154119947352" lon="15.354218004172141"><ele>9.0</ele><time>2026-04-19T09:33:18.005Z</time></trkpt><trkpt lat="37.93166908568652" lon="15.354163106152532"><ele>9.0</ele><time>2026-04-19T09:33:19.005Z</time></trkpt><trkpt lat="37.93178247271697" lon="15.354128620911599"><ele>9.0</ele><time>2026-04-19T09:33:20.005Z</time></trkpt><trkpt lat="37.931886383416234" lon="15.354115413656583"><ele>9.0</ele><time>2026-04-19T09:33:21.005Z</time></trkpt><trkpt lat="37.93198753319559" lon="15.354150771299981"><ele>9.0</ele><time>2026-04-19T09:33:22.005Z</time></trkpt><trkpt lat="37.932055616365965" lon="15.354200232626848"><ele>9.0</ele><time>2026-04-19T09:33:23.005Z</time></trkpt><trkpt lat="37.932107543173466" lon="15.354259922076437"><ele>9.0</ele><time>2026-04-19T09:33:24.005Z</time></trkpt><trkpt lat="37.932136408188214" lon="15.35434398699163"><ele>9.0</ele><time>2026-04-19T09:33:25.005Z</time></trkpt><trkpt lat="37.93213097101237" lon="15.354460230424095"><ele>9.0</ele><time>2026-04-19T09:33:26.005Z</time></trkpt><trkpt lat="37.93209006164636" lon="15.354564960544904"><ele>9.0</ele><time>2026-04-19T09:33:27.005Z</time></trkpt><trkpt lat="37.93204879659443" lon="15.354647794431473"><ele>9.0</ele><time>2026-04-19T09:33:28.005Z</time></trkpt><trkpt lat="37.93202180341045" lon="15.354728953373764"><ele>9.0</ele><time>2026-04-19T09:33:29.005Z</time></trkpt><trkpt lat="37.93199897393352" lon="15.35481089821265"><ele>9.0</ele><time>2026-04-19T09:33:30.005Z</time></trkpt><trkpt lat="37.9319772831205" lon="15.354973682258358"><ele>9.0</ele><time>2026-04-19T09:33:32.005Z</time></trkpt><trkpt lat="37.9319848494291" lon="15.355064922157485"><ele>9.0</ele><time>2026-04-19T09:33:33.005Z</time></trkpt><trkpt lat="37.932015482797354" lon="15.355148717031033"><ele>8.75</ele><time>2026-04-19T09:33:34.005Z</time></trkpt><trkpt lat="37.93204674680086" lon="15.355240884630486"><ele>8.5</ele><time>2026-04-19T09:33:35.004Z</time></trkpt><trkpt lat="37.93214311626703" lon="15.355323802403381"><ele>8.25</ele><time>2026-04-19T09:33:36.004Z</time></trkpt><trkpt lat="37.93227349694596" lon="15.35539950191358"><ele>8.0</ele><time>2026-04-19T09:33:37.004Z</time></trkpt><trkpt lat="37.93238178916893" lon="15.355461382196445"><ele>7.999999999999999</ele><time>2026-04-19T09:33:38.004Z</time></trkpt><trkpt lat="37.932461611324854" lon="15.355507473738871"><ele>8.0</ele><time>2026-04-19T09:33:39.004Z</time></trkpt><trkpt lat="37.9325257155407" lon="15.355544676367051"><ele>8.0</ele><time>2026-04-19T09:33:40.004Z</time></trkpt><trkpt lat="37.93261534325712" lon="15.355598953960918"><ele>8.0</ele><time>2026-04-19T09:33:42.004Z</time></trkpt><trkpt lat="37.93268636451911" lon="15.355643361058192"><ele>7.999999999999999</ele><time>2026-04-19T09:33:44.004Z</time></trkpt><trkpt lat="37.93278517827991" lon="15.355701236042528"><ele>8.0</ele><time>2026-04-19T09:33:46.004Z</time></trkpt><trkpt lat="37.93285940472565" lon="15.355748425940568"><ele>8.600000000000001</ele><time>2026-04-19T09:33:48.004Z</time></trkpt><trkpt lat="37.93289714699926" lon="15.355842935483004"><ele>9.200000000000001</ele><time>2026-04-19T09:33:50.004Z</time></trkpt><trkpt lat="37.93293347572591" lon="15.355967179580755"><ele>9.8</ele><time>2026-04-19T09:33:52.007Z</time></trkpt><trkpt lat="37.93294180430367" lon="15.356052133781173"><ele>10.4</ele><time>2026-04-19T09:33:53.007Z</time></trkpt><trkpt lat="37.93291885029971" lon="15.356204000121368"><ele>11.0</ele><time>2026-04-19T09:33:55.006Z</time></trkpt><trkpt lat="37.932891532045716" lon="15.356295889380378"><ele>10.833333333333332</ele><time>2026-04-19T09:33:56.006Z</time></trkpt><trkpt lat="37.93286179505866" lon="15.356375683801764"><ele>10.666666666666666</ele><time>2026-04-19T09:33:57.006Z</time></trkpt><trkpt lat="37.93283330853174" lon="15.356461604093733"><ele>10.5</ele><time>2026-04-19T09:33:58.006Z</time></trkpt><trkpt lat="37.93280957077061" lon="15.356565832590476"><ele>10.333333333333334</ele><time>2026-04-19T09:33:59.006Z</time></trkpt><trkpt lat="37.932755994921315" lon="15.356678817298208"><ele>10.166666666666668</ele><time>2026-04-19T09:34:00.006Z</time></trkpt><trkpt lat="37.93271605825721" lon="15.35679333352356"><ele>10.0</ele><time>2026-04-19T09:34:01.007Z</time></trkpt><trkpt lat="37.932680578922" lon="15.356897816021586"><ele>10.0</ele><time>2026-04-19T09:34:02.007Z</time></trkpt><trkpt lat="37.93265416856435" lon="15.356981829752465"><ele>10.0</ele><time>2026-04-19T09:34:03.007Z</time></trkpt><trkpt lat="37.93262093618928" lon="15.357095503437682"><ele>10.0</ele><time>2026-04-19T09:34:05.006Z</time></trkpt><trkpt lat="37.93261043262579" lon="15.357217826798337"><ele>10.0</ele><time>2026-04-19T09:34:07.006Z</time></trkpt><trkpt lat="37.93265802027046" lon="15.357329574426108"><ele>10.0</ele><time>2026-04-19T09:34:09.006Z</time></trkpt><trkpt lat="37.93274320013637" lon="15.35740746771546"><ele>9.8</ele><time>2026-04-19T09:34:11.006Z</time></trkpt><trkpt lat="37.932839942611764" lon="15.35748922348927"><ele>9.6</ele><time>2026-04-19T09:34:13.006Z</time></trkpt><trkpt lat="37.93292391889804" lon="15.357559122497797"><ele>9.4</ele><time>2026-04-19T09:34:15.006Z</time></trkpt><trkpt lat="37.93301153295181" lon="15.357631965389816"><ele>9.2</ele><time>2026-04-19T09:34:17.006Z</time></trkpt><trkpt lat="37.933115807813955" lon="15.357718615188526"><ele>9.0</ele><time>2026-04-19T09:34:19.006Z</time></trkpt><trkpt lat="37.93317479216064" lon="15.357767629718154"><ele>9.0</ele><time>2026-04-19T09:34:20.006Z</time></trkpt><trkpt lat="37.93323848233365" lon="15.357820554630248"><ele>9.0</ele><time>2026-04-19T09:34:21.006Z</time></trkpt><trkpt lat="37.93330385978572" lon="15.357874881626742"><ele>9.0</ele><time>2026-04-19T09:34:22.006Z</time></trkpt><trkpt lat="37.933371150981785" lon="15.357930738049443"><ele>9.0</ele><time>2026-04-19T09:34:23.006Z</time></trkpt><trkpt lat="37.933449184721276" lon="15.357995477872258"><ele>9.0</ele><time>2026-04-19T09:34:24.006Z</time></trkpt><trkpt lat="37.93352473113778" lon="15.358057635356461"><ele>9.0</ele><time>2026-04-19T09:34:25.006Z</time></trkpt><trkpt lat="37.933596308600194" lon="15.358116011386633"><ele>8.833333333333334</ele><time>2026-04-19T09:34:26.006Z</time></trkpt><trkpt lat="37.93366727741751" lon="15.358174359081179"><ele>8.666666666666666</ele><time>2026-04-19T09:34:27.006Z</time></trkpt><trkpt lat="37.933738386733964" lon="15.358232945800104"><ele>8.5</ele><time>2026-04-19T09:34:28.006Z</time></trkpt><trkpt lat="37.93381041746142" lon="15.35829229171238"><ele>8.333333333333332</ele><time>2026-04-19T09:34:29.006Z</time></trkpt><trkpt lat="37.933882188054234" lon="15.358351422756924"><ele>8.166666666666666</ele><time>2026-04-19T09:34:30.006Z</time></trkpt><trkpt lat="37.93395410199008" lon="15.358412610483004"><ele>8.0</ele><time>2026-04-19T09:34:31.006Z</time></trkpt><trkpt lat="37.93402552863802" lon="15.358472691241095"><ele>7.999999999999999</ele><time>2026-04-19T09:34:32.006Z</time></trkpt><trkpt lat="37.93409457124323" lon="15.358530766650683"><ele>8.0</ele><time>2026-04-19T09:34:33.006Z</time></trkpt><trkpt lat="37.93416903684999" lon="15.358593403710719"><ele>8.0</ele><time>2026-04-19T09:34:34.006Z</time></trkpt><trkpt lat="37.93424162770163" lon="15.358654463697112"><ele>8.0</ele><time>2026-04-19T09:34:35.006Z</time></trkpt><trkpt lat="37.93431024092158" lon="15.358710354578255"><ele>7.999999999999999</ele><time>2026-04-19T09:34:36.006Z</time></trkpt><trkpt lat="37.9343792438446" lon="15.358767790313532"><ele>8.0</ele><time>2026-04-19T09:34:37.006Z</time></trkpt><trkpt lat="37.93444789923505" lon="15.358824936773042"><ele>7.999999999999999</ele><time>2026-04-19T09:34:38.006Z</time></trkpt><trkpt lat="37.93451808475163" lon="15.358883347301358"><ele>8.0</ele><time>2026-04-19T09:34:39.006Z</time></trkpt><trkpt lat="37.93458928283486" lon="15.358942401469827"><ele>8.0</ele><time>2026-04-19T09:34:40.006Z</time></trkpt><trkpt lat="37.93465874107403" lon="15.358999909187428"><ele>8.0</ele><time>2026-04-19T09:34:41.006Z</time></trkpt><trkpt lat="37.93473134479102" lon="15.359060021161499"><ele>7.999999999999999</ele><time>2026-04-19T09:34:42.006Z</time></trkpt><trkpt lat="37.93480373493768" lon="15.35911995634816"><ele>8.0</ele><time>2026-04-19T09:34:43.006Z</time></trkpt><trkpt lat="37.93488688801875" lon="15.35916729166505"><ele>7.999999999999999</ele><time>2026-04-19T09:34:44.006Z</time></trkpt><trkpt lat="37.93495456092103" lon="15.3592487873537"><ele>8.0</ele><time>2026-04-19T09:34:45.006Z</time></trkpt><trkpt lat="37.93503115203539" lon="15.359311522047317"><ele>8.0</ele><time>2026-04-19T09:34:46.006Z</time></trkpt><trkpt lat="37.93510381124242" lon="15.359371728228695"><ele>8.0</ele><time>2026-04-19T09:34:47.006Z</time></trkpt><trkpt lat="37.93517583397511" lon="15.359431897106592"><ele>7.999999999999999</ele><time>2026-04-19T09:34:48.006Z</time></trkpt><trkpt lat="37.935240991012975" lon="15.359483709052979"><ele>8.0</ele><time>2026-04-19T09:34:49.006Z</time></trkpt><trkpt lat="37.93529883378432" lon="15.359524350398761"><ele>8.333333333333332</ele><time>2026-04-19T09:34:50.006Z</time></trkpt><trkpt lat="37.935358466383995" lon="15.359563495150962"><ele>8.666666666666666</ele><time>2026-04-19T09:34:51.006Z</time></trkpt><trkpt lat="37.935418660404416" lon="15.359602471966268"><ele>9.0</ele><time>2026-04-19T09:34:52.006Z</time></trkpt><trkpt lat="37.935483686293246" lon="15.35964672948329"><ele>9.333333333333334</ele><time>2026-04-19T09:34:53.006Z</time></trkpt><trkpt lat="37.9355554515719" lon="15.35968956091827"><ele>9.666666666666668</ele><time>2026-04-19T09:34:54.006Z</time></trkpt><trkpt lat="37.93562266464022" lon="15.359762658721124"><ele>10.0</ele><time>2026-04-19T09:34:55.006Z</time></trkpt><trkpt lat="37.93569995008513" lon="15.359809272169203"><ele>10.0</ele><time>2026-04-19T09:34:56.006Z</time></trkpt><trkpt lat="37.93577984655203" lon="15.359850181839564"><ele>10.0</ele><time>2026-04-19T09:34:57.006Z</time></trkpt><trkpt lat="37.93587038130703" lon="15.359917887202206"><ele>10.0</ele><time>2026-04-19T09:34:58.006Z</time></trkpt><trkpt lat="37.93597734455714" lon="15.359991537846547"><ele>10.0</ele><time>2026-04-19T09:34:59.006Z</time></trkpt><trkpt lat="37.93608363122621" lon="15.36006944102695"><ele>10.0</ele><time>2026-04-19T09:35:00.006Z</time></trkpt><trkpt lat="37.93619128661829" lon="15.36014003843155"><ele>10.75</ele><time>2026-04-19T09:35:01.006Z</time></trkpt><trkpt lat="37.93629190641696" lon="15.360212919766623"><ele>11.5</ele><time>2026-04-19T09:35:02.006Z</time></trkpt><trkpt lat="37.93639328809482" lon="15.360290641250593"><ele>12.25</ele><time>2026-04-19T09:35:03.006Z</time></trkpt><trkpt lat="37.936492975768445" lon="15.36036210991729"><ele>13.0</ele><time>2026-04-19T09:35:04.006Z</time></trkpt><trkpt lat="37.936588912505236" lon="15.360440127844564"><ele>13.0</ele><time>2026-04-19T09:35:05.006Z</time></trkpt><trkpt lat="37.93667185795659" lon="15.360532764929461"><ele>13.0</ele><time>2026-04-19T09:35:06.006Z</time></trkpt><trkpt lat="37.936760166113416" lon="15.360608641586238"><ele>13.0</ele><time>2026-04-19T09:35:07.006Z</time></trkpt><trkpt lat="37.93684832328869" lon="15.360684381351831"><ele>13.0</ele><time>2026-04-19T09:35:08.006Z</time></trkpt><trkpt lat="37.93693289845228" lon="15.360760132163778"><ele>13.0</ele><time>2026-04-19T09:35:09.006Z</time></trkpt><trkpt lat="37.93701971632008" lon="15.360837468686999"><ele>12.8</ele><time>2026-04-19T09:35:10.006Z</time></trkpt><trkpt lat="37.93710915268107" lon="15.360916759276705"><ele>12.600000000000001</ele><time>2026-04-19T09:35:11.006Z</time></trkpt><trkpt lat="37.93719438570747" lon="15.360991552689118"><ele>12.399999999999999</ele><time>2026-04-19T09:35:12.006Z</time></trkpt><trkpt lat="37.93727974163554" lon="15.361066453960689"><ele>12.2</ele><time>2026-04-19T09:35:13.006Z</time></trkpt><trkpt lat="37.93735996160713" lon="15.361136848325089"><ele>12.0</ele><time>2026-04-19T09:35:14.006Z</time></trkpt><trkpt lat="37.937434827403756" lon="15.361202544299992"><ele>12.0</ele><time>2026-04-19T09:35:15.006Z</time></trkpt><trkpt lat="37.937511567094504" lon="15.361270342995203"><ele>12.0</ele><time>2026-04-19T09:35:16.006Z</time></trkpt><trkpt lat="37.93758693698891" lon="15.361336915052936"><ele>12.0</ele><time>2026-04-19T09:35:17.006Z</time></trkpt><trkpt lat="37.93764836605882" lon="15.36139117356995"><ele>12.0</ele><time>2026-04-19T09:35:18.006Z</time></trkpt><trkpt lat="37.937710604756006" lon="15.361446147255025"><ele>12.0</ele><time>2026-04-19T09:35:19.006Z</time></trkpt><trkpt lat="37.9377742003597" lon="15.361502319424712"><ele>12.0</ele><time>2026-04-19T09:35:20.006Z</time></trkpt><trkpt lat="37.93783792591864" lon="15.361558606454121"><ele>12.0</ele><time>2026-04-19T09:35:21.006Z</time></trkpt><trkpt lat="37.93789871072112" lon="15.361612295872058"><ele>12.0</ele><time>2026-04-19T09:35:22.006Z</time></trkpt><trkpt lat="37.93795521996001" lon="15.361662208906282"><ele>12.0</ele><time>2026-04-19T09:35:23.006Z</time></trkpt><trkpt lat="37.93805682769906" lon="15.361751956089355"><ele>12.0</ele><time>2026-04-19T09:35:25.006Z</time></trkpt><trkpt lat="37.93811294419318" lon="15.361801522167632"><ele>12.0</ele><time>2026-04-19T09:35:26.006Z</time></trkpt><trkpt lat="37.93817386555136" lon="15.361855332246101"><ele>12.0</ele><time>2026-04-19T09:35:27.006Z</time></trkpt><trkpt lat="37.93824760961741" lon="15.36190060102979"><ele>12.0</ele><time>2026-04-19T09:35:28.006Z</time></trkpt><trkpt lat="37.93830216309591" lon="15.36198479671801"><ele>12.0</ele><time>2026-04-19T09:35:29.006Z</time></trkpt><trkpt lat="37.93836649501441" lon="15.362051989721012"><ele>12.0</ele><time>2026-04-19T09:35:30.006Z</time></trkpt><trkpt lat="37.93843140166411" lon="15.362110713117982"><ele>12.0</ele><time>2026-04-19T09:35:31.006Z</time></trkpt><trkpt lat="37.93849530958046" lon="15.362162771461783"><ele>12.0</ele><time>2026-04-19T09:35:32.006Z</time></trkpt><trkpt lat="37.93856030413778" lon="15.362215008927564"><ele>12.0</ele><time>2026-04-19T09:35:33.006Z</time></trkpt><trkpt lat="37.93862086363478" lon="15.362266844354954"><ele>12.166666666666666</ele><time>2026-04-19T09:35:34.006Z</time></trkpt><trkpt lat="37.93867994008285" lon="15.362313112489273"><ele>12.333333333333332</ele><time>2026-04-19T09:35:35.006Z</time></trkpt><trkpt lat="37.93873833739068" lon="15.36236334423438"><ele>12.5</ele><time>2026-04-19T09:35:36.006Z</time></trkpt><trkpt lat="37.93879435146883" lon="15.362409673899467"><ele>12.666666666666666</ele><time>2026-04-19T09:35:37.006Z</time></trkpt><trkpt lat="37.93885722610963" lon="15.362467955114052"><ele>12.833333333333332</ele><time>2026-04-19T09:35:38.006Z</time></trkpt><trkpt lat="37.938920123671124" lon="15.362528417493591"><ele>13.0</ele><time>2026-04-19T09:35:39.006Z</time></trkpt><trkpt lat="37.93899180430243" lon="15.362591072189094"><ele>12.999999999999998</ele><time>2026-04-19T09:35:40.006Z</time></trkpt><trkpt lat="37.93906133565168" lon="15.362651440954394"><ele>13.0</ele><time>2026-04-19T09:35:41.006Z</time></trkpt><trkpt lat="37.93912845008387" lon="15.362709549129946"><ele>13.0</ele><time>2026-04-19T09:35:42.006Z</time></trkpt><trkpt lat="37.93919756125968" lon="15.36276814005263"><ele>13.0</ele><time>2026-04-19T09:35:43.006Z</time></trkpt><trkpt lat="37.93926421012881" lon="15.362826566079196"><ele>12.999999999999998</ele><time>2026-04-19T09:35:44.005Z</time></trkpt><trkpt lat="37.93933042213369" lon="15.362879672384691"><ele>13.0</ele><time>2026-04-19T09:35:45.005Z</time></trkpt><trkpt lat="37.93939228495917" lon="15.362937998527473"><ele>13.166666666666666</ele><time>2026-04-19T09:35:46.005Z</time></trkpt><trkpt lat="37.939462062342216" lon="15.362992925492776"><ele>13.333333333333332</ele><time>2026-04-19T09:35:47.005Z</time></trkpt><trkpt lat="37.93952629453037" lon="15.363045142133467"><ele>13.5</ele><time>2026-04-19T09:35:48.005Z</time></trkpt><trkpt lat="37.939586732013275" lon="15.363096320635675"><ele>13.666666666666668</ele><time>2026-04-19T09:35:49.005Z</time></trkpt><trkpt lat="37.9396594302772" lon="15.363159895425621"><ele>13.833333333333334</ele><time>2026-04-19T09:35:50.005Z</time></trkpt><trkpt lat="37.93970623615522" lon="15.36323087830681"><ele>14.0</ele><time>2026-04-19T09:35:51.005Z</time></trkpt><trkpt lat="37.93976105015633" lon="15.363279951979544"><ele>14.0</ele><time>2026-04-19T09:35:52.005Z</time></trkpt><trkpt lat="37.939842055327325" lon="15.363352588364426"><ele>13.999999999999998</ele><time>2026-04-19T09:35:54.005Z</time></trkpt><trkpt lat="37.939910002272775" lon="15.363407693977978"><ele>13.999999999999998</ele><time>2026-04-19T09:35:55.005Z</time></trkpt><trkpt lat="37.93998369541639" lon="15.36345986037726"><ele>14.0</ele><time>2026-04-19T09:35:56.005Z</time></trkpt><trkpt lat="37.94003246641469" lon="15.36353724558887"><ele>14.0</ele><time>2026-04-19T09:35:57.008Z</time></trkpt><trkpt lat="37.94013300512893" lon="15.363623368452915"><ele>13.666666666666668</ele><time>2026-04-19T09:35:59.008Z</time></trkpt><trkpt lat="37.94018461904392" lon="15.363670741719222"><ele>13.333333333333334</ele><time>2026-04-19T09:36:00.008Z</time></trkpt><trkpt lat="37.940245751195256" lon="15.363733994623656"><ele>13.0</ele><time>2026-04-19T09:36:01.008Z</time></trkpt><trkpt lat="37.940315587197034" lon="15.363804569460541"><ele>12.666666666666668</ele><time>2026-04-19T09:36:02.008Z</time></trkpt><trkpt lat="37.9403897239477" lon="15.36387607557011"><ele>12.333333333333334</ele><time>2026-04-19T09:36:03.008Z</time></trkpt><trkpt lat="37.94046872555868" lon="15.36394337200598"><ele>12.0</ele><time>2026-04-19T09:36:04.009Z</time></trkpt><trkpt lat="37.94054380445902" lon="15.364005711711549"><ele>12.0</ele><time>2026-04-19T09:36:05.009Z</time></trkpt><trkpt lat="37.94060835062549" lon="15.364064570483977"><ele>12.0</ele><time>2026-04-19T09:36:06.008Z</time></trkpt><trkpt lat="37.94066184145263" lon="15.364112940423176"><ele>12.0</ele><time>2026-04-19T09:36:07.008Z</time></trkpt><trkpt lat="37.94075342345328" lon="15.364199215805879"><ele>12.0</ele><time>2026-04-19T09:36:09.008Z</time></trkpt><trkpt lat="37.94083743309984" lon="15.364304678441203"><ele>12.0</ele><time>2026-04-19T09:36:11.008Z</time></trkpt><trkpt lat="37.94093802851715" lon="15.36438737260055"><ele>11.833333333333334</ele><time>2026-04-19T09:36:13.008Z</time></trkpt><trkpt lat="37.9410022613986" lon="15.364479790989789"><ele>11.666666666666666</ele><time>2026-04-19T09:36:15.008Z</time></trkpt><trkpt lat="37.94107318532494" lon="15.364540583381677"><ele>11.5</ele><time>2026-04-19T09:36:17.008Z</time></trkpt><trkpt lat="37.94113531403131" lon="15.36459421347885"><ele>11.333333333333332</ele><time>2026-04-19T09:36:19.008Z</time></trkpt><trkpt lat="37.941198133945164" lon="15.364645850670158"><ele>11.166666666666666</ele><time>2026-04-19T09:36:22.008Z</time></trkpt><trkpt lat="37.94124888183004" lon="15.364696542679805"><ele>11.0</ele><time>2026-04-19T09:36:26.008Z</time></trkpt><trkpt lat="37.94130306250017" lon="15.364748697927483"><ele>11.0</ele><time>2026-04-19T09:36:29.008Z</time></trkpt><trkpt lat="37.94137027289781" lon="15.36481339592317"><ele>11.0</ele><time>2026-04-19T09:36:32.008Z</time></trkpt><trkpt lat="37.941431630932115" lon="15.364872637865751"><ele>11.0</ele><time>2026-04-19T09:36:34.008Z</time></trkpt><trkpt lat="37.94148747561028" lon="15.364926700399698"><ele>11.0</ele><time>2026-04-19T09:36:36.008Z</time></trkpt><trkpt lat="37.941562640024046" lon="15.36499946619828"><ele>11.0</ele><time>2026-04-19T09:36:39.008Z</time></trkpt><trkpt lat="37.94161760875944" lon="15.365052680797243"><ele>11.0</ele><time>2026-04-19T09:36:42.008Z</time></trkpt><trkpt lat="37.94170265563292" lon="15.365135013680463"><ele>12.0</ele><time>2026-04-19T09:36:45.008Z</time></trkpt><trkpt lat="37.94179149655379" lon="15.365221041988347"><ele>13.0</ele><time>2026-04-19T09:36:47.008Z</time></trkpt><trkpt lat="37.941884330088946" lon="15.36528824874431"><ele>14.000000000000002</ele><time>2026-04-19T09:36:49.008Z</time></trkpt><trkpt lat="37.94195882630753" lon="15.365398731302436"><ele>15.0</ele><time>2026-04-19T09:36:51.008Z</time></trkpt><trkpt lat="37.94201198533063" lon="15.365454201951785"><ele>16.0</ele><time>2026-04-19T09:36:52.008Z</time></trkpt><trkpt lat="37.942064578157876" lon="15.365500888561208"><ele>15.499999999999998</ele><time>2026-04-19T09:36:53.008Z</time></trkpt><trkpt lat="37.94212536961957" lon="15.36555648554658"><ele>15.0</ele><time>2026-04-19T09:36:54.008Z</time></trkpt><trkpt lat="37.942199255571836" lon="15.365618088840614"><ele>14.5</ele><time>2026-04-19T09:36:55.008Z</time></trkpt><trkpt lat="37.94227840183068" lon="15.365692075131516"><ele>14.0</ele><time>2026-04-19T09:36:56.008Z</time></trkpt><trkpt lat="37.942344950305426" lon="15.365761451009602"><ele>13.499999999999998</ele><time>2026-04-19T09:36:57.008Z</time></trkpt><trkpt lat="37.94240193809169" lon="15.36581728206545"><ele>13.0</ele><time>2026-04-19T09:36:58.008Z</time></trkpt><trkpt lat="37.94243949308356" lon="15.365884247234622"><ele>13.0</ele><time>2026-04-19T09:36:59.008Z</time></trkpt><trkpt lat="37.94253684780175" lon="15.36597136927581"><ele>13.0</ele><time>2026-04-19T09:37:01.008Z</time></trkpt><trkpt lat="37.94263323858938" lon="15.36604424394556"><ele>13.0</ele><time>2026-04-19T09:37:03.008Z</time></trkpt><trkpt lat="37.94274529913135" lon="15.36613442799295"><ele>13.0</ele><time>2026-04-19T09:37:05.008Z</time></trkpt><trkpt lat="37.94280879733617" lon="15.36622772974178"><ele>12.75</ele><time>2026-04-19T09:37:06.008Z</time></trkpt><trkpt lat="37.942908738975916" lon="15.366324458527517"><ele>12.5</ele><time>2026-04-19T09:37:07.008Z</time></trkpt><trkpt lat="37.94300406173193" lon="15.366430801537467"><ele>12.25</ele><time>2026-04-19T09:37:08.008Z</time></trkpt><trkpt lat="37.94309073336601" lon="15.366523974766517"><ele>12.0</ele><time>2026-04-19T09:37:09.008Z</time></trkpt><trkpt lat="37.943165794508765" lon="15.36659606256413"><ele>12.0</ele><time>2026-04-19T09:37:10.008Z</time></trkpt><trkpt lat="37.94324439059673" lon="15.36667763587667"><ele>12.0</ele><time>2026-04-19T09:37:11.008Z</time></trkpt><trkpt lat="37.943338308370734" lon="15.366770083009236"><ele>12.0</ele><time>2026-04-19T09:37:12.008Z</time></trkpt><trkpt lat="37.94343271138207" lon="15.366876437715389"><ele>12.0</ele><time>2026-04-19T09:37:13.008Z</time></trkpt><trkpt lat="37.943525910503226" lon="15.366992384815498"><ele>11.75</ele><time>2026-04-19T09:37:14.008Z</time></trkpt><trkpt lat="37.94362247897312" lon="15.36709999175237"><ele>11.5</ele><time>2026-04-19T09:37:15.008Z</time></trkpt><trkpt lat="37.94373254223705" lon="15.367211846225233"><ele>11.25</ele><time>2026-04-19T09:37:16.008Z</time></trkpt><trkpt lat="37.943841270237876" lon="15.367331794453081"><ele>11.0</ele><time>2026-04-19T09:37:17.008Z</time></trkpt><trkpt lat="37.94394121450055" lon="15.367449326085099"><ele>11.0</ele><time>2026-04-19T09:37:18.008Z</time></trkpt><trkpt lat="37.94403938444605" lon="15.36756137146598"><ele>11.0</ele><time>2026-04-19T09:37:19.008Z</time></trkpt><trkpt lat="37.94414104607751" lon="15.367667295704178"><ele>11.0</ele><time>2026-04-19T09:37:20.008Z</time></trkpt><trkpt lat="37.94424527025578" lon="15.367773604300735"><ele>11.0</ele><time>2026-04-19T09:37:21.008Z</time></trkpt><trkpt lat="37.94435010922673" lon="15.367886939694532"><ele>11.0</ele><time>2026-04-19T09:37:22.008Z</time></trkpt><trkpt lat="37.94445739090555" lon="15.367997793740903"><ele>11.0</ele><time>2026-04-19T09:37:23.008Z</time></trkpt><trkpt lat="37.94456392439203" lon="15.368106906997026"><ele>11.0</ele><time>2026-04-19T09:37:24.008Z</time></trkpt><trkpt lat="37.94467059738903" lon="15.368217467425218"><ele>11.0</ele><time>2026-04-19T09:37:25.008Z</time></trkpt><trkpt lat="37.94477761686079" lon="15.3683248649716"><ele>11.0</ele><time>2026-04-19T09:37:26.008Z</time></trkpt><trkpt lat="37.9448834558053" lon="15.368423721072775"><ele>11.0</ele><time>2026-04-19T09:37:27.008Z</time></trkpt><trkpt lat="37.944989829329955" lon="15.368529734065723"><ele>11.0</ele><time>2026-04-19T09:37:28.008Z</time></trkpt><trkpt lat="37.94509220823172" lon="15.368636892308404"><ele>11.0</ele><time>2026-04-19T09:37:29.008Z</time></trkpt><trkpt lat="37.94520081333479" lon="15.368738448474305"><ele>11.600000000000001</ele><time>2026-04-19T09:37:30.007Z</time></trkpt><trkpt lat="37.94531336708578" lon="15.368831230425409"><ele>12.2</ele><time>2026-04-19T09:37:31.007Z</time></trkpt><trkpt lat="37.945399066355414" lon="15.368930114141744"><ele>12.799999999999999</ele><time>2026-04-19T09:37:32.007Z</time></trkpt><trkpt lat="37.94547791448973" lon="15.369006421025873"><ele>13.399999999999999</ele><time>2026-04-19T09:37:33.007Z</time></trkpt><trkpt lat="37.94555408625967" lon="15.36908013771586"><ele>14.0</ele><time>2026-04-19T09:37:34.007Z</time></trkpt><trkpt lat="37.945624906106644" lon="15.369148114831978"><ele>14.0</ele><time>2026-04-19T09:37:35.007Z</time></trkpt><trkpt lat="37.94568846540256" lon="15.369208938307468"><ele>14.0</ele><time>2026-04-19T09:37:36.007Z</time></trkpt><trkpt lat="37.94574652464362" lon="15.369264498618705"><ele>14.0</ele><time>2026-04-19T09:37:37.007Z</time></trkpt><trkpt lat="37.945800370006815" lon="15.369316026368157"><ele>14.0</ele><time>2026-04-19T09:37:38.007Z</time></trkpt><trkpt lat="37.94585724116343" lon="15.36937044962248"><ele>14.0</ele><time>2026-04-19T09:37:39.007Z</time></trkpt><trkpt lat="37.9459141483272" lon="15.369424907505751"><ele>14.0</ele><time>2026-04-19T09:37:40.007Z</time></trkpt><trkpt lat="37.94597220815916" lon="15.369480468077201"><ele>14.0</ele><time>2026-04-19T09:37:41.007Z</time></trkpt><trkpt lat="37.94603053864028" lon="15.36953628789894"><ele>14.333333333333334</ele><time>2026-04-19T09:37:42.007Z</time></trkpt><trkpt lat="37.94608836972492" lon="15.369591623807091"><ele>14.666666666666668</ele><time>2026-04-19T09:37:43.007Z</time></trkpt><trkpt lat="37.946149954129865" lon="15.369650500347726"><ele>15.0</ele><time>2026-04-19T09:37:44.007Z</time></trkpt><trkpt lat="37.94621159877643" lon="15.369709434501795"><ele>15.333333333333332</ele><time>2026-04-19T09:37:45.007Z</time></trkpt><trkpt lat="37.94628765831535" lon="15.369756062333026"><ele>15.666666666666666</ele><time>2026-04-19T09:37:46.007Z</time></trkpt><trkpt lat="37.94634919360141" lon="15.369840979231341"><ele>16.0</ele><time>2026-04-19T09:37:47.007Z</time></trkpt><trkpt lat="37.946438676387935" lon="15.36992656802845"><ele>15.600000000000001</ele><time>2026-04-19T09:37:48.007Z</time></trkpt><trkpt lat="37.946539697687996" lon="15.370005886715026"><ele>15.200000000000001</ele><time>2026-04-19T09:37:49.007Z</time></trkpt><trkpt lat="37.94662257258684" lon="15.370098987937604"><ele>14.799999999999999</ele><time>2026-04-19T09:37:50.007Z</time></trkpt><trkpt lat="37.94670286833992" lon="15.370184138031272"><ele>14.399999999999999</ele><time>2026-04-19T09:37:51.007Z</time></trkpt><trkpt lat="37.94677535139077" lon="15.370263960283598"><ele>14.0</ele><time>2026-04-19T09:37:52.007Z</time></trkpt><trkpt lat="37.946839963670485" lon="15.370329604269495"><ele>14.0</ele><time>2026-04-19T09:37:53.007Z</time></trkpt><trkpt lat="37.94690457478145" lon="15.370414205794681"><ele>13.999999999999998</ele><time>2026-04-19T09:37:54.007Z</time></trkpt><trkpt lat="37.94698538290071" lon="15.370487513884866"><ele>13.999999999999998</ele><time>2026-04-19T09:37:55.007Z</time></trkpt><trkpt lat="37.947062570058954" lon="15.370570617052499"><ele>14.0</ele><time>2026-04-19T09:37:56.007Z</time></trkpt><trkpt lat="37.94714011381451" lon="15.370648245229633"><ele>14.0</ele><time>2026-04-19T09:37:57.007Z</time></trkpt><trkpt lat="37.94721654248998" lon="15.370720447225162"><ele>13.666666666666668</ele><time>2026-04-19T09:37:58.007Z</time></trkpt><trkpt lat="37.94728209302186" lon="15.370799098773622"><ele>13.333333333333334</ele><time>2026-04-19T09:37:59.007Z</time></trkpt><trkpt lat="37.94734790398801" lon="15.370859428897463"><ele>13.0</ele><time>2026-04-19T09:38:00.007Z</time></trkpt><trkpt lat="37.94741215689911" lon="15.370930341198058"><ele>12.666666666666668</ele><time>2026-04-19T09:38:01.007Z</time></trkpt><trkpt lat="37.947474552982584" lon="15.37099593646282"><ele>12.333333333333334</ele><time>2026-04-19T09:38:02.007Z</time></trkpt><trkpt lat="37.947539544076044" lon="15.37105219292385"><ele>12.0</ele><time>2026-04-19T09:38:03.01Z</time></trkpt><trkpt lat="37.947603336735455" lon="15.371107257318247"><ele>12.333333333333334</ele><time>2026-04-19T09:38:04.009Z</time></trkpt><trkpt lat="37.94767383911912" lon="15.371157684099497"><ele>12.666666666666668</ele><time>2026-04-19T09:38:05.009Z</time></trkpt><trkpt lat="37.947743967307765" lon="15.37121341076478"><ele>13.0</ele><time>2026-04-19T09:38:06.01Z</time></trkpt><trkpt lat="37.947806880961195" lon="15.371270108047625"><ele>13.333333333333334</ele><time>2026-04-19T09:38:07.01Z</time></trkpt><trkpt lat="37.947860680929416" lon="15.3713163093771"><ele>13.666666666666668</ele><time>2026-04-19T09:38:08.01Z</time></trkpt><trkpt lat="37.94791181817919" lon="15.371374565703295"><ele>14.0</ele><time>2026-04-19T09:38:10.01Z</time></trkpt><trkpt lat="37.9479912942802" lon="15.371419031054087"><ele>14.000000000000002</ele><time>2026-04-19T09:38:27.01Z</time></trkpt><trkpt lat="37.94805464144316" lon="15.371478410965926"><ele>14.0</ele><time>2026-04-19T09:38:29.01Z</time></trkpt><trkpt lat="37.94811918812503" lon="15.37153989888677"><ele>14.0</ele><time>2026-04-19T09:38:36.01Z</time></trkpt><trkpt lat="37.94821349689556" lon="15.37163019080419"><ele>14.0</ele><time>2026-04-19T09:38:38.01Z</time></trkpt><trkpt lat="37.94826595015678" lon="15.371680409904783"><ele>14.000000000000002</ele><time>2026-04-19T09:38:39.01Z</time></trkpt><trkpt lat="37.94833139354973" lon="15.371729993219025"><ele>14.0</ele><time>2026-04-19T09:38:40.01Z</time></trkpt><trkpt lat="37.94839231287022" lon="15.371820561984608"><ele>14.166666666666668</ele><time>2026-04-19T09:38:41.01Z</time></trkpt><trkpt lat="37.94845371205158" lon="15.371882631182194"><ele>14.333333333333334</ele><time>2026-04-19T09:38:42.01Z</time></trkpt><trkpt lat="37.9485120239983" lon="15.371924332321283"><ele>14.5</ele><time>2026-04-19T09:38:43.01Z</time></trkpt><trkpt lat="37.948577809016385" lon="15.371975512058404"><ele>14.666666666666668</ele><time>2026-04-19T09:38:45.01Z</time></trkpt><trkpt lat="37.948654639843255" lon="15.372039331051978"><ele>14.833333333333334</ele><time>2026-04-19T09:38:49.01Z</time></trkpt><trkpt lat="37.948705067151494" lon="15.372127656889957"><ele>15.0</ele><time>2026-04-19T09:38:51.01Z</time></trkpt><trkpt lat="37.948765510726346" lon="15.372177322961823"><ele>14.666666666666666</ele><time>2026-04-19T09:38:53.01Z</time></trkpt><trkpt lat="37.94884163000115" lon="15.372248060387077"><ele>14.333333333333332</ele><time>2026-04-19T09:38:56.01Z</time></trkpt><trkpt lat="37.94890678321483" lon="15.372312692407824"><ele>14.0</ele><time>2026-04-19T09:38:57.01Z</time></trkpt><trkpt lat="37.94897084352907" lon="15.37237863841559"><ele>13.666666666666666</ele><time>2026-04-19T09:38:58.01Z</time></trkpt><trkpt lat="37.94903274982197" lon="15.372434649793242"><ele>13.333333333333332</ele><time>2026-04-19T09:38:59.01Z</time></trkpt><trkpt lat="37.949090434785" lon="15.372482248634274"><ele>13.0</ele><time>2026-04-19T09:39:00.01Z</time></trkpt><trkpt lat="37.94914839880421" lon="15.372528993363526"><ele>12.999999999999998</ele><time>2026-04-19T09:39:01.01Z</time></trkpt><trkpt lat="37.94921980927834" lon="15.372575876716041"><ele>13.0</ele><time>2026-04-19T09:39:02.01Z</time></trkpt><trkpt lat="37.94927442706948" lon="15.372629965680291"><ele>13.0</ele><time>2026-04-19T09:39:03.01Z</time></trkpt><trkpt lat="37.949327863958324" lon="15.37267814936605"><ele>13.0</ele><time>2026-04-19T09:39:04.01Z</time></trkpt><trkpt lat="37.94938967992179" lon="15.372735427937954"><ele>12.999999999999998</ele><time>2026-04-19T09:39:05.01Z</time></trkpt><trkpt lat="37.94944038106319" lon="15.372808088047439"><ele>13.0</ele><time>2026-04-19T09:39:06.01Z</time></trkpt><trkpt lat="37.949517096273034" lon="15.372881551519278"><ele>13.0</ele><time>2026-04-19T09:39:07.01Z</time></trkpt><trkpt lat="37.94959442271683" lon="15.372955935145251"><ele>13.0</ele><time>2026-04-19T09:39:08.01Z</time></trkpt><trkpt lat="37.94968894828465" lon="15.373023983879259"><ele>13.0</ele><time>2026-04-19T09:39:09.01Z</time></trkpt><trkpt lat="37.94977032546727" lon="15.373133336005727"><ele>13.0</ele><time>2026-04-19T09:39:10.01Z</time></trkpt><trkpt lat="37.949863003395755" lon="15.373215902264432"><ele>13.0</ele><time>2026-04-19T09:39:11.01Z</time></trkpt><trkpt lat="37.94994541805886" lon="15.37328252583473"><ele>12.833333333333332</ele><time>2026-04-19T09:39:12.01Z</time></trkpt><trkpt lat="37.950025120459095" lon="15.373352629645382"><ele>12.666666666666666</ele><time>2026-04-19T09:39:13.01Z</time></trkpt><trkpt lat="37.950095639738315" lon="15.373429532392871"><ele>12.5</ele><time>2026-04-19T09:39:14.01Z</time></trkpt><trkpt lat="37.95016306697663" lon="15.373497955640095"><ele>12.333333333333332</ele><time>2026-04-19T09:39:15.01Z</time></trkpt><trkpt lat="37.95023121406557" lon="15.373562888390863"><ele>12.166666666666666</ele><time>2026-04-19T09:39:16.01Z</time></trkpt><trkpt lat="37.95030397035614" lon="15.373623835679364"><ele>12.0</ele><time>2026-04-19T09:39:17.01Z</time></trkpt><trkpt lat="37.950371977485915" lon="15.373683077700786"><ele>12.0</ele><time>2026-04-19T09:39:18.01Z</time></trkpt><trkpt lat="37.950433767963204" lon="15.373739436669734"><ele>12.0</ele><time>2026-04-19T09:39:19.01Z</time></trkpt><trkpt lat="37.95047329295748" lon="15.373819019135986"><ele>12.0</ele><time>2026-04-19T09:39:20.01Z</time></trkpt><trkpt lat="37.950527736764045" lon="15.373869822962751"><ele>12.0</ele><time>2026-04-19T09:39:21.01Z</time></trkpt><trkpt lat="37.950614825864236" lon="15.373950895568278"><ele>12.0</ele><time>2026-04-19T09:39:23.01Z</time></trkpt><trkpt lat="37.950671812229196" lon="15.374004443635043"><ele>12.0</ele><time>2026-04-19T09:39:26.01Z</time></trkpt><trkpt lat="37.9507374022684" lon="15.37404208540572"><ele>12.0</ele><time>2026-04-19T09:39:29.009Z</time></trkpt><trkpt lat="37.9507995341596" lon="15.374109728601221"><ele>12.0</ele><time>2026-04-19T09:39:32.009Z</time></trkpt><trkpt lat="37.950879934652804" lon="15.374192748067701"><ele>12.0</ele><time>2026-04-19T09:39:34.009Z</time></trkpt><trkpt lat="37.95097459551098" lon="15.374269101052706"><ele>12.0</ele><time>2026-04-19T09:39:36.009Z</time></trkpt><trkpt lat="37.95102816856146" lon="15.374313721363968"><ele>12.0</ele><time>2026-04-19T09:39:37.009Z</time></trkpt><trkpt lat="37.95110282650884" lon="15.374382795956041"><ele>12.0</ele><time>2026-04-19T09:39:38.009Z</time></trkpt><trkpt lat="37.95118308182888" lon="15.374492135911659"><ele>12.0</ele><time>2026-04-19T09:39:39.009Z</time></trkpt><trkpt lat="37.95129358285525" lon="15.374599958535923"><ele>12.0</ele><time>2026-04-19T09:39:40.009Z</time></trkpt><trkpt lat="37.951410910717165" lon="15.374722017630909"><ele>12.0</ele><time>2026-04-19T09:39:41.009Z</time></trkpt><trkpt lat="37.951533204709314" lon="15.37483224603608"><ele>11.75</ele><time>2026-04-19T09:39:42.009Z</time></trkpt><trkpt lat="37.95166434864322" lon="15.374945296324874"><ele>11.5</ele><time>2026-04-19T09:39:43.009Z</time></trkpt><trkpt lat="37.95178987362641" lon="15.375049436082408"><ele>11.25</ele><time>2026-04-19T09:39:44.009Z</time></trkpt><trkpt lat="37.951904408011295" lon="15.375140022908878"><ele>11.0</ele><time>2026-04-19T09:39:45.009Z</time></trkpt><trkpt lat="37.95201134420827" lon="15.375221313812792"><ele>11.0</ele><time>2026-04-19T09:39:46.009Z</time></trkpt><trkpt lat="37.95211935458901" lon="15.375300438574714"><ele>11.0</ele><time>2026-04-19T09:39:47.009Z</time></trkpt><trkpt lat="37.9522269585031" lon="15.375377181140376"><ele>11.0</ele><time>2026-04-19T09:39:48.009Z</time></trkpt><trkpt lat="37.95232622291465" lon="15.375450096351813"><ele>11.0</ele><time>2026-04-19T09:39:49.009Z</time></trkpt><trkpt lat="37.952412011271115" lon="15.375510449395307"><ele>11.200000000000001</ele><time>2026-04-19T09:39:50.009Z</time></trkpt><trkpt lat="37.952472871412596" lon="15.375550156393924"><ele>11.4</ele><time>2026-04-19T09:39:51.009Z</time></trkpt><trkpt lat="37.95257260650603" lon="15.375612438623843"><ele>11.6</ele><time>2026-04-19T09:39:53.009Z</time></trkpt><trkpt lat="37.952654236399866" lon="15.375669700056122"><ele>11.8</ele><time>2026-04-19T09:39:55.009Z</time></trkpt><trkpt lat="37.95273448534642" lon="15.37573432221087"><ele>12.0</ele><time>2026-04-19T09:39:58.009Z</time></trkpt><trkpt lat="37.95286066931955" lon="15.37580798094972"><ele>12.0</ele><time>2026-04-19T09:40:00.009Z</time></trkpt><trkpt lat="37.95294095893568" lon="15.375871415676599"><ele>12.0</ele><time>2026-04-19T09:40:01.009Z</time></trkpt><trkpt lat="37.95302232691009" lon="15.375929544448988"><ele>12.0</ele><time>2026-04-19T09:40:02.009Z</time></trkpt><trkpt lat="37.95311495073711" lon="15.375993177284588"><ele>12.0</ele><time>2026-04-19T09:40:03.009Z</time></trkpt><trkpt lat="37.95319783711354" lon="15.376088430951263"><ele>12.0</ele><time>2026-04-19T09:40:04.009Z</time></trkpt><trkpt lat="37.953289691408784" lon="15.376151081496912"><ele>12.166666666666666</ele><time>2026-04-19T09:40:05.009Z</time></trkpt><trkpt lat="37.953384163073316" lon="15.376215384718787"><ele>12.333333333333332</ele><time>2026-04-19T09:40:06.009Z</time></trkpt><trkpt lat="37.953470115785365" lon="15.376268965937895"><ele>12.5</ele><time>2026-04-19T09:40:07.009Z</time></trkpt><trkpt lat="37.953549899692284" lon="15.376321400554733"><ele>12.666666666666666</ele><time>2026-04-19T09:40:08.009Z</time></trkpt><trkpt lat="37.95361548801431" lon="15.376364874960569"><ele>12.833333333333332</ele><time>2026-04-19T09:40:09.011Z</time></trkpt><trkpt lat="37.95367249834371" lon="15.376406517421787"><ele>13.0</ele><time>2026-04-19T09:40:10.012Z</time></trkpt><trkpt lat="37.95374532017216" lon="15.376445153581454"><ele>12.571428571428571</ele><time>2026-04-19T09:40:13.012Z</time></trkpt><trkpt lat="37.953785578237834" lon="15.376508241536753"><ele>12.142857142857144</ele><time>2026-04-19T09:40:16.011Z</time></trkpt><trkpt lat="37.953843777504105" lon="15.376538921424906"><ele>11.714285714285715</ele><time>2026-04-19T09:40:18.011Z</time></trkpt><trkpt lat="37.95390850372172" lon="15.376585230208642"><ele>11.285714285714285</ele><time>2026-04-19T09:40:21.011Z</time></trkpt><trkpt lat="37.95384778796921" lon="15.376541832389634"><ele>10.857142857142858</ele><time>2026-04-19T09:41:17.011Z</time></trkpt><trkpt lat="37.95389866213746" lon="15.376436253262813"><ele>10.428571428571429</ele><time>2026-04-19T09:43:11.011Z</time></trkpt><trkpt lat="37.95393293086738" lon="15.376505769071237"><ele>10.0</ele><time>2026-04-19T09:47:04.015Z</time></trkpt><trkpt lat="37.954010618020654" lon="15.376530069224701"><ele>10.0</ele><time>2026-04-19T09:48:39.016Z</time></trkpt><trkpt lat="37.95407064439771" lon="15.376579014172082"><ele>10.0</ele><time>2026-04-19T09:48:41.017Z</time></trkpt><trkpt lat="37.954107911691224" lon="15.376643653909854"><ele>10.0</ele><time>2026-04-19T09:48:45.016Z</time></trkpt><trkpt lat="37.95415328735481" lon="15.37671259504369"><ele>10.0</ele><time>2026-04-19T09:48:49.016Z</time></trkpt><trkpt lat="37.954231657963014" lon="15.376775802659152"><ele>10.0</ele><time>2026-04-19T09:48:51.016Z</time></trkpt><trkpt lat="37.95433262220552" lon="15.376834805653331"><ele>10.0</ele><time>2026-04-19T09:48:53.016Z</time></trkpt><trkpt lat="37.95446129638692" lon="15.376920926296853"><ele>10.0</ele><time>2026-04-19T09:48:55.016Z</time></trkpt><trkpt lat="37.95452769483925" lon="15.377031360394913"><ele>10.0</ele><time>2026-04-19T09:48:56.016Z</time></trkpt><trkpt lat="37.95463647464448" lon="15.377055303818873"><ele>10.0</ele><time>2026-04-19T09:48:57.016Z</time></trkpt><trkpt lat="37.95472619304279" lon="15.377118463031401"><ele>10.0</ele><time>2026-04-19T09:48:58.016Z</time></trkpt><trkpt lat="37.954808020267016" lon="15.377180855008605"><ele>10.0</ele><time>2026-04-19T09:48:59.016Z</time></trkpt><trkpt lat="37.95489884670101" lon="15.377244316267662"><ele>9.833333333333334</ele><time>2026-04-19T09:49:00.016Z</time></trkpt><trkpt lat="37.95499438798141" lon="15.3773150241779"><ele>9.666666666666668</ele><time>2026-04-19T09:49:01.016Z</time></trkpt><trkpt lat="37.95507602400302" lon="15.377377472974077"><ele>9.5</ele><time>2026-04-19T09:49:02.016Z</time></trkpt><trkpt lat="37.95514679468934" lon="15.377435801235766"><ele>9.333333333333334</ele><time>2026-04-19T09:49:03.016Z</time></trkpt><trkpt lat="37.95521126859862" lon="15.37748317292721"><ele>9.166666666666666</ele><time>2026-04-19T09:49:04.016Z</time></trkpt><trkpt lat="37.955269747726476" lon="15.37752548690432"><ele>9.0</ele><time>2026-04-19T09:49:05.016Z</time></trkpt><trkpt lat="37.955365093747126" lon="15.377606286656084"><ele>9.6</ele><time>2026-04-19T09:49:07.016Z</time></trkpt><trkpt lat="37.95545784285945" lon="15.377678890692687"><ele>10.2</ele><time>2026-04-19T09:49:09.016Z</time></trkpt><trkpt lat="37.95553866040262" lon="15.377736270833056"><ele>10.799999999999999</ele><time>2026-04-19T09:49:10.016Z</time></trkpt><trkpt lat="37.95562798620382" lon="15.377809340001475"><ele>11.4</ele><time>2026-04-19T09:49:11.016Z</time></trkpt><trkpt lat="37.955714368317516" lon="15.377876439438634"><ele>12.0</ele><time>2026-04-19T09:49:12.016Z</time></trkpt><trkpt lat="37.95579079838346" lon="15.377913105889538"><ele>12.0</ele><time>2026-04-19T09:49:13.016Z</time></trkpt><trkpt lat="37.955859194580526" lon="15.377892915025196"><ele>12.0</ele><time>2026-04-19T09:49:14.016Z</time></trkpt><trkpt lat="37.95592656017686" lon="15.377820193003718"><ele>12.0</ele><time>2026-04-19T09:49:15.016Z</time></trkpt><trkpt lat="37.95598585343747" lon="15.37768565594536"><ele>12.0</ele><time>2026-04-19T09:49:16.016Z</time></trkpt><trkpt lat="37.95604778181956" lon="15.37752815642509"><ele>12.0</ele><time>2026-04-19T09:49:17.016Z</time></trkpt><trkpt lat="37.956103699100744" lon="15.377387592878607"><ele>12.0</ele><time>2026-04-19T09:49:18.016Z</time></trkpt><trkpt lat="37.956163854584304" lon="15.377259901851406"><ele>12.0</ele><time>2026-04-19T09:49:19.016Z</time></trkpt><trkpt lat="37.95623132965829" lon="15.377135880254293"><ele>12.0</ele><time>2026-04-19T09:49:20.016Z</time></trkpt><trkpt lat="37.95630539555256" lon="15.377017674602486"><ele>12.0</ele><time>2026-04-19T09:49:21.016Z</time></trkpt><trkpt lat="37.95639291699041" lon="15.37691834005184"><ele>12.0</ele><time>2026-04-19T09:49:22.016Z</time></trkpt><trkpt lat="37.956515720991135" lon="15.376841667516858"><ele>12.0</ele><time>2026-04-19T09:49:23.016Z</time></trkpt><trkpt lat="37.956678357894184" lon="15.376765202213202"><ele>12.0</ele><time>2026-04-19T09:49:24.016Z</time></trkpt><trkpt lat="37.95684310342262" lon="15.376649281726824"><ele>12.0</ele><time>2026-04-19T09:49:25.016Z</time></trkpt><trkpt lat="37.95699656374686" lon="15.376481951789609"><ele>12.0</ele><time>2026-04-19T09:49:26.016Z</time></trkpt><trkpt lat="37.95712542307724" lon="15.376310558797876"><ele>12.0</ele><time>2026-04-19T09:49:27.016Z</time></trkpt><trkpt lat="37.957247566649414" lon="15.376165043592167"><ele>12.75</ele><time>2026-04-19T09:49:28.016Z</time></trkpt><trkpt lat="37.957356952407636" lon="15.376039951099226"><ele>13.5</ele><time>2026-04-19T09:49:29.016Z</time></trkpt><trkpt lat="37.95745154814391" lon="15.375930248053322"><ele>14.25</ele><time>2026-04-19T09:49:30.016Z</time></trkpt><trkpt lat="37.95753881718428" lon="15.375839713378888"><ele>15.0</ele><time>2026-04-19T09:49:31.016Z</time></trkpt><trkpt lat="37.9576274455331" lon="15.375765085123343"><ele>15.0</ele><time>2026-04-19T09:49:32.016Z</time></trkpt><trkpt lat="37.95771636513946" lon="15.375713381524278"><ele>15.0</ele><time>2026-04-19T09:49:33.016Z</time></trkpt><trkpt lat="37.95780146077634" lon="15.375680938655103"><ele>15.0</ele><time>2026-04-19T09:49:34.016Z</time></trkpt><trkpt lat="37.95788281028689" lon="15.375674089430367"><ele>15.0</ele><time>2026-04-19T09:49:35.016Z</time></trkpt><trkpt lat="37.957983284588046" lon="15.37570381528357"><ele>15.0</ele><time>2026-04-19T09:49:36.016Z</time></trkpt><trkpt lat="37.95808533284344" lon="15.375784631171705"><ele>15.0</ele><time>2026-04-19T09:49:37.016Z</time></trkpt><trkpt lat="37.9581990732767" lon="15.375869925414458"><ele>15.0</ele><time>2026-04-19T09:49:38.016Z</time></trkpt><trkpt lat="37.958326066249036" lon="15.37597992642024"><ele>15.0</ele><time>2026-04-19T09:49:39.016Z</time></trkpt><trkpt lat="37.958458477613384" lon="15.376093313774536"><ele>15.0</ele><time>2026-04-19T09:49:40.016Z</time></trkpt><trkpt lat="37.958589293476706" lon="15.376202264285633"><ele>15.2</ele><time>2026-04-19T09:49:41.016Z</time></trkpt><trkpt lat="37.95870535626408" lon="15.376299400195984"><ele>15.4</ele><time>2026-04-19T09:49:42.016Z</time></trkpt><trkpt lat="37.958808019196105" lon="15.376385321257596"><ele>15.600000000000001</ele><time>2026-04-19T09:49:43.016Z</time></trkpt><trkpt lat="37.95889730688604" lon="15.376436630500535"><ele>15.8</ele><time>2026-04-19T09:49:44.016Z</time></trkpt><trkpt lat="37.95895625284736" lon="15.376498369335144"><ele>16.0</ele><time>2026-04-19T09:49:45.016Z</time></trkpt><trkpt lat="37.959000133860194" lon="15.376560009251165"><ele>16.0</ele><time>2026-04-19T09:49:46.016Z</time></trkpt><trkpt lat="37.95904727291743" lon="15.376638928896858"><ele>16.0</ele><time>2026-04-19T09:49:47.016Z</time></trkpt><trkpt lat="37.959102109117396" lon="15.376751034949567"><ele>16.0</ele><time>2026-04-19T09:49:48.016Z</time></trkpt><trkpt lat="37.95914497900191" lon="15.376884809029722"><ele>16.0</ele><time>2026-04-19T09:49:49.016Z</time></trkpt><trkpt lat="37.959159727588506" lon="15.377030314166188"><ele>16.0</ele><time>2026-04-19T09:49:50.016Z</time></trkpt><trkpt lat="37.95915136012288" lon="15.377195399671313"><ele>15.75</ele><time>2026-04-19T09:49:51.016Z</time></trkpt><trkpt lat="37.95913036229496" lon="15.377363826235058"><ele>15.5</ele><time>2026-04-19T09:49:52.016Z</time></trkpt><trkpt lat="37.9590981712845" lon="15.377532354824664"><ele>15.25</ele><time>2026-04-19T09:49:53.016Z</time></trkpt><trkpt lat="37.959047703643954" lon="15.377702184185681"><ele>15.0</ele><time>2026-04-19T09:49:54.016Z</time></trkpt><trkpt lat="37.9589964800896" lon="15.37787137734051"><ele>14.75</ele><time>2026-04-19T09:49:55.016Z</time></trkpt><trkpt lat="37.9589529941613" lon="15.378037563696658"><ele>14.5</ele><time>2026-04-19T09:49:56.016Z</time></trkpt><trkpt lat="37.95891357141612" lon="15.378196247023693"><ele>14.25</ele><time>2026-04-19T09:49:57.016Z</time></trkpt><trkpt lat="37.95887878714293" lon="15.378339168320617"><ele>14.0</ele><time>2026-04-19T09:49:58.016Z</time></trkpt><trkpt lat="37.958843425109954" lon="15.37845585870179"><ele>14.0</ele><time>2026-04-19T09:49:59.016Z</time></trkpt><trkpt lat="37.958807448652436" lon="15.378569830201695"><ele>13.999999999999998</ele><time>2026-04-19T09:50:00.016Z</time></trkpt><trkpt lat="37.95877132179838" lon="15.378665900071478"><ele>13.999999999999998</ele><time>2026-04-19T09:50:01.016Z</time></trkpt><trkpt lat="37.95873577134107" lon="15.37874094022678"><ele>14.0</ele><time>2026-04-19T09:50:02.016Z</time></trkpt><trkpt lat="37.95865894204743" lon="15.378857046346946"><ele>14.0</ele><time>2026-04-19T09:50:04.016Z</time></trkpt><trkpt lat="37.95856447873465" lon="15.378927838250883"><ele>14.25</ele><time>2026-04-19T09:50:06.016Z</time></trkpt><trkpt lat="37.95846425003039" lon="15.37901507830926"><ele>14.5</ele><time>2026-04-19T09:50:08.016Z</time></trkpt><trkpt lat="37.958391819045644" lon="15.379084423388367"><ele>14.75</ele><time>2026-04-19T09:50:09.016Z</time></trkpt><trkpt lat="37.95832010531967" lon="15.379214319490426"><ele>15.0</ele><time>2026-04-19T09:50:10.016Z</time></trkpt><trkpt lat="37.95825194066711" lon="15.3793596397991"><ele>14.5</ele><time>2026-04-19T09:50:11.016Z</time></trkpt><trkpt lat="37.958182656353856" lon="15.379507101030077"><ele>14.0</ele><time>2026-04-19T09:50:12.016Z</time></trkpt><trkpt lat="37.95811401896153" lon="15.379651715373116"><ele>13.5</ele><time>2026-04-19T09:50:13.016Z</time></trkpt><trkpt lat="37.95806128077513" lon="15.379785411500032"><ele>13.0</ele><time>2026-04-19T09:50:14.016Z</time></trkpt><trkpt lat="37.95806209050599" lon="15.379944558103166"><ele>13.0</ele><time>2026-04-19T09:50:15.016Z</time></trkpt><trkpt lat="37.95808664154999" lon="15.380076925084696"><ele>13.0</ele><time>2026-04-19T09:50:16.016Z</time></trkpt><trkpt lat="37.95820622444283" lon="15.38016106414636"><ele>13.0</ele><time>2026-04-19T09:50:17.016Z</time></trkpt><trkpt lat="37.95827623063466" lon="15.38026262860386"><ele>13.0</ele><time>2026-04-19T09:50:18.016Z</time></trkpt><trkpt lat="37.95836267088378" lon="15.380391606780258"><ele>12.5</ele><time>2026-04-19T09:50:19.016Z</time></trkpt><trkpt lat="37.9584569898905" lon="15.38052813389747"><ele>12.0</ele><time>2026-04-19T09:50:20.016Z</time></trkpt><trkpt lat="37.9585468351095" lon="15.380651836319974"><ele>11.5</ele><time>2026-04-19T09:50:21.016Z</time></trkpt><trkpt lat="37.9586406542871" lon="15.380771897635368"><ele>11.0</ele><time>2026-04-19T09:50:22.016Z</time></trkpt><trkpt lat="37.958734499903095" lon="15.380886437317903"><ele>11.0</ele><time>2026-04-19T09:50:23.016Z</time></trkpt><trkpt lat="37.95882933312086" lon="15.380992890553664"><ele>11.0</ele><time>2026-04-19T09:50:24.016Z</time></trkpt><trkpt lat="37.95893119790101" lon="15.381074370146417"><ele>11.0</ele><time>2026-04-19T09:50:25.016Z</time></trkpt><trkpt lat="37.95901237744193" lon="15.381156506502666"><ele>11.0</ele><time>2026-04-19T09:50:26.016Z</time></trkpt><trkpt lat="37.95908797379339" lon="15.38125686031479"><ele>11.0</ele><time>2026-04-19T09:50:27.016Z</time></trkpt><trkpt lat="37.95916994060796" lon="15.381330181163642"><ele>11.0</ele><time>2026-04-19T09:50:28.016Z</time></trkpt><trkpt lat="37.95925048806613" lon="15.381407189015125"><ele>11.0</ele><time>2026-04-19T09:50:29.016Z</time></trkpt><trkpt lat="37.95933551005033" lon="15.381489192296808"><ele>11.0</ele><time>2026-04-19T09:50:30.016Z</time></trkpt><trkpt lat="37.959422427340584" lon="15.381576147816611"><ele>11.0</ele><time>2026-04-19T09:50:31.016Z</time></trkpt><trkpt lat="37.95951340856593" lon="15.38166176337667"><ele>11.4</ele><time>2026-04-19T09:50:32.016Z</time></trkpt><trkpt lat="37.95960157206885" lon="15.38174516223912"><ele>11.8</ele><time>2026-04-19T09:50:33.016Z</time></trkpt><trkpt lat="37.95968971758339" lon="15.381826844083442"><ele>12.200000000000001</ele><time>2026-04-19T09:50:34.016Z</time></trkpt><trkpt lat="37.95977067740376" lon="15.38189633079582"><ele>12.600000000000001</ele><time>2026-04-19T09:50:35.016Z</time></trkpt><trkpt lat="37.95984581768913" lon="15.381990513548025"><ele>13.0</ele><time>2026-04-19T09:50:36.016Z</time></trkpt><trkpt lat="37.959939665513154" lon="15.382081672800293"><ele>13.25</ele><time>2026-04-19T09:50:37.016Z</time></trkpt><trkpt lat="37.96004880578673" lon="15.382170293119104"><ele>13.5</ele><time>2026-04-19T09:50:38.016Z</time></trkpt><trkpt lat="37.96015318164652" lon="15.382276364273176"><ele>13.75</ele><time>2026-04-19T09:50:39.017Z</time></trkpt><trkpt lat="37.96025911924942" lon="15.38238373738617"><ele>14.0</ele><time>2026-04-19T09:50:40.017Z</time></trkpt><trkpt lat="37.96036976765355" lon="15.382496933497805"><ele>14.0</ele><time>2026-04-19T09:50:41.017Z</time></trkpt><trkpt lat="37.960481520264096" lon="15.382597699919083"><ele>14.0</ele><time>2026-04-19T09:50:42.018Z</time></trkpt><trkpt lat="37.96058517219743" lon="15.382690864682068"><ele>14.0</ele><time>2026-04-19T09:50:43.018Z</time></trkpt><trkpt lat="37.96068399016325" lon="15.38278441487618"><ele>14.0</ele><time>2026-04-19T09:50:44.018Z</time></trkpt><trkpt lat="37.9608865068132" lon="15.382980402689494"><ele>13.25</ele><time>2026-04-19T09:50:46.017Z</time></trkpt><trkpt lat="37.96098164307108" lon="15.38309931424235"><ele>12.5</ele><time>2026-04-19T09:50:47.017Z</time></trkpt><trkpt lat="37.96107834514885" lon="15.38319392645396"><ele>11.75</ele><time>2026-04-19T09:50:48.018Z</time></trkpt><trkpt lat="37.961169059153335" lon="15.383282442401631"><ele>11.0</ele><time>2026-04-19T09:50:49.018Z</time></trkpt><trkpt lat="37.96131828083414" lon="15.383427613862107"><ele>11.0</ele><time>2026-04-19T09:50:51.018Z</time></trkpt><trkpt lat="37.961387753029015" lon="15.383495201745717"><ele>11.0</ele><time>2026-04-19T09:50:52.018Z</time></trkpt><trkpt lat="37.961464768254366" lon="15.383570942188939"><ele>11.0</ele><time>2026-04-19T09:50:53.018Z</time></trkpt><trkpt lat="37.96154995864005" lon="15.383653268053376"><ele>11.0</ele><time>2026-04-19T09:50:54.018Z</time></trkpt><trkpt lat="37.961653081676424" lon="15.38375399342413"><ele>11.0</ele><time>2026-04-19T09:50:55.018Z</time></trkpt><trkpt lat="37.9617633070078" lon="15.38386162815868"><ele>12.333333333333332</ele><time>2026-04-19T09:50:56.018Z</time></trkpt><trkpt lat="37.961884247701725" lon="15.383980020066684"><ele>13.666666666666666</ele><time>2026-04-19T09:50:57.018Z</time></trkpt><trkpt lat="37.962011421025" lon="15.38410451350175"><ele>15.0</ele><time>2026-04-19T09:50:58.018Z</time></trkpt><trkpt lat="37.962126718276146" lon="15.3842173824393"><ele>15.0</ele><time>2026-04-19T09:50:59.018Z</time></trkpt><trkpt lat="37.96222095045576" lon="15.384303864367626"><ele>15.0</ele><time>2026-04-19T09:51:00.018Z</time></trkpt><trkpt lat="37.962297800142366" lon="15.384371562230301"><ele>15.0</ele><time>2026-04-19T09:51:01.018Z</time></trkpt><trkpt lat="37.96235691326276" lon="15.384423635908506"><ele>15.0</ele><time>2026-04-19T09:51:02.018Z</time></trkpt><trkpt lat="37.962412112715185" lon="15.384471030554893"><ele>15.0</ele><time>2026-04-19T09:51:03.018Z</time></trkpt><trkpt lat="37.96247317551628" lon="15.384522971705207"><ele>15.0</ele><time>2026-04-19T09:51:04.018Z</time></trkpt><trkpt lat="37.962547540050025" lon="15.384586227558975"><ele>14.5</ele><time>2026-04-19T09:51:05.018Z</time></trkpt><trkpt lat="37.96263264242985" lon="15.384657787097806"><ele>14.0</ele><time>2026-04-19T09:51:06.018Z</time></trkpt><trkpt lat="37.962735510068015" lon="15.38472004925453"><ele>13.5</ele><time>2026-04-19T09:51:07.018Z</time></trkpt><trkpt lat="37.962831152371486" lon="15.384826499213787"><ele>13.0</ele><time>2026-04-19T09:51:08.018Z</time></trkpt><trkpt lat="37.96294898174729" lon="15.384929309166555"><ele>13.0</ele><time>2026-04-19T09:51:09.018Z</time></trkpt><trkpt lat="37.96306561454775" lon="15.385040760730872"><ele>13.0</ele><time>2026-04-19T09:51:10.018Z</time></trkpt><trkpt lat="37.96319161441034" lon="15.385151528581277"><ele>13.0</ele><time>2026-04-19T09:51:11.018Z</time></trkpt><trkpt lat="37.96332188825196" lon="15.385274094714926"><ele>13.25</ele><time>2026-04-19T09:51:12.018Z</time></trkpt><trkpt lat="37.963448741810154" lon="15.385403350614254"><ele>13.5</ele><time>2026-04-19T09:51:13.018Z</time></trkpt><trkpt lat="37.96356738816622" lon="15.38551699540308"><ele>13.75</ele><time>2026-04-19T09:51:14.018Z</time></trkpt><trkpt lat="37.96367240155961" lon="15.385612469971576"><ele>14.0</ele><time>2026-04-19T09:51:15.018Z</time></trkpt><trkpt lat="37.96376544863607" lon="15.38569287029432"><ele>13.2</ele><time>2026-04-19T09:51:16.018Z</time></trkpt><trkpt lat="37.963853374870126" lon="15.385765640743724"><ele>12.399999999999999</ele><time>2026-04-19T09:51:17.018Z</time></trkpt><trkpt lat="37.96393968627417" lon="15.385793617738374"><ele>11.6</ele><time>2026-04-19T09:51:18.018Z</time></trkpt><trkpt lat="37.964039414024136" lon="15.385769376451133"><ele>10.8</ele><time>2026-04-19T09:51:19.018Z</time></trkpt><trkpt lat="37.96414496330538" lon="15.38572657616589"><ele>10.0</ele><time>2026-04-19T09:51:20.018Z</time></trkpt><trkpt lat="37.96421466978638" lon="15.385542952218112"><ele>11.0</ele><time>2026-04-19T09:51:21.018Z</time></trkpt><trkpt lat="37.964274464896036" lon="15.385373221159908"><ele>12.0</ele><time>2026-04-19T09:51:22.018Z</time></trkpt><trkpt lat="37.96432553756423" lon="15.385194760461284"><ele>13.0</ele><time>2026-04-19T09:51:23.018Z</time></trkpt><trkpt lat="37.9643973173492" lon="15.385001756765563"><ele>13.0</ele><time>2026-04-19T09:51:24.018Z</time></trkpt><trkpt lat="37.96447566629203" lon="15.38483148949381"><ele>13.0</ele><time>2026-04-19T09:51:25.018Z</time></trkpt><trkpt lat="37.964546064687354" lon="15.384686332275505"><ele>13.0</ele><time>2026-04-19T09:51:26.018Z</time></trkpt><trkpt lat="37.96461320801928" lon="15.384552886934323"><ele>13.0</ele><time>2026-04-19T09:51:27.018Z</time></trkpt><trkpt lat="37.9646776962746" lon="15.384436840445035"><ele>14.0</ele><time>2026-04-19T09:51:28.018Z</time></trkpt><trkpt lat="37.96473528647459" lon="15.384339780552072"><ele>15.0</ele><time>2026-04-19T09:51:29.018Z</time></trkpt><trkpt lat="37.964782211585685" lon="15.384254716956946"><ele>16.0</ele><time>2026-04-19T09:51:30.018Z</time></trkpt><trkpt lat="37.96480597990893" lon="15.384173173608685"><ele>17.0</ele><time>2026-04-19T09:51:31.018Z</time></trkpt><trkpt lat="37.96477690713879" lon="15.384044299389581"><ele>18.0</ele><time>2026-04-19T09:51:33.018Z</time></trkpt><trkpt lat="37.96466150145137" lon="15.38402229496857"><ele>18.0</ele><time>2026-04-19T09:51:34.018Z</time></trkpt><trkpt lat="37.96457043929032" lon="15.38398489204361"><ele>18.0</ele><time>2026-04-19T09:51:35.018Z</time></trkpt><trkpt lat="37.96450288057022" lon="15.38391148429317"><ele>18.0</ele><time>2026-04-19T09:51:36.018Z</time></trkpt><trkpt lat="37.964453452503015" lon="15.38384683145534"><ele>18.0</ele><time>2026-04-19T09:51:37.017Z</time></trkpt><trkpt lat="37.96439607498247" lon="15.383722641045924"><ele>18.0</ele><time>2026-04-19T09:51:39.017Z</time></trkpt><trkpt lat="37.964451653972034" lon="15.383656945330374"><ele>18.0</ele><time>2026-04-19T09:51:40.017Z</time></trkpt><trkpt lat="37.964520808987366" lon="15.383583166990991"><ele>18.6</ele><time>2026-04-19T09:51:41.017Z</time></trkpt><trkpt lat="37.964607272907536" lon="15.383514455627369"><ele>19.200000000000003</ele><time>2026-04-19T09:51:42.017Z</time></trkpt><trkpt lat="37.96469980876405" lon="15.383485035684185"><ele>19.8</ele><time>2026-04-19T09:51:43.017Z</time></trkpt><trkpt lat="37.96481805624468" lon="15.383466923188445"><ele>20.400000000000002</ele><time>2026-04-19T09:51:44.017Z</time></trkpt><trkpt lat="37.96493977399717" lon="15.383502076508002"><ele>21.0</ele><time>2026-04-19T09:51:45.017Z</time></trkpt><trkpt lat="37.965060082468206" lon="15.3835593865426"><ele>21.0</ele><time>2026-04-19T09:51:46.017Z</time></trkpt><trkpt lat="37.96519353958942" lon="15.38361476932731"><ele>21.0</ele><time>2026-04-19T09:51:47.017Z</time></trkpt><trkpt lat="37.96532559188228" lon="15.383682028159145"><ele>21.0</ele><time>2026-04-19T09:51:48.017Z</time></trkpt><trkpt lat="37.965459848002986" lon="15.38375199223682"><ele>21.0</ele><time>2026-04-19T09:51:49.017Z</time></trkpt><trkpt lat="37.96559608676233" lon="15.383822352812878"><ele>20.75</ele><time>2026-04-19T09:51:50.017Z</time></trkpt><trkpt lat="37.96573074750177" lon="15.383884022755732"><ele>20.5</ele><time>2026-04-19T09:51:51.017Z</time></trkpt><trkpt lat="37.96585844934438" lon="15.383942960013883"><ele>20.25</ele><time>2026-04-19T09:51:52.017Z</time></trkpt><trkpt lat="37.96597215717849" lon="15.383997670566274"><ele>20.0</ele><time>2026-04-19T09:51:53.017Z</time></trkpt><trkpt lat="37.96607567452207" lon="15.384058834288423"><ele>20.5</ele><time>2026-04-19T09:51:54.017Z</time></trkpt><trkpt lat="37.966176002943925" lon="15.384128476615095"><ele>21.0</ele><time>2026-04-19T09:51:55.017Z</time></trkpt><trkpt lat="37.96625016959363" lon="15.38423454315455"><ele>21.5</ele><time>2026-04-19T09:51:56.017Z</time></trkpt><trkpt lat="37.966308001978604" lon="15.384366211315996"><ele>22.0</ele><time>2026-04-19T09:51:57.017Z</time></trkpt><trkpt lat="37.966362784467925" lon="15.384502790045675"><ele>21.5</ele><time>2026-04-19T09:51:58.017Z</time></trkpt><trkpt lat="37.966312926148724" lon="15.384688947155782"><ele>21.0</ele><time>2026-04-19T09:51:59.017Z</time></trkpt><trkpt lat="37.966267335139676" lon="15.38485486192893"><ele>20.5</ele><time>2026-04-19T09:52:00.017Z</time></trkpt><trkpt lat="37.966225484338125" lon="15.385022470298711"><ele>20.0</ele><time>2026-04-19T09:52:01.017Z</time></trkpt><trkpt lat="37.96619317950822" lon="15.385190110504265"><ele>20.0</ele><time>2026-04-19T09:52:02.017Z</time></trkpt><trkpt lat="37.96615680904923" lon="15.38535290188719"><ele>20.0</ele><time>2026-04-19T09:52:03.017Z</time></trkpt><trkpt lat="37.9661279697787" lon="15.385509294109877"><ele>20.0</ele><time>2026-04-19T09:52:04.017Z</time></trkpt><trkpt lat="37.966081926337644" lon="15.385650504406254"><ele>20.0</ele><time>2026-04-19T09:52:05.017Z</time></trkpt><trkpt lat="37.96606075759211" lon="15.385784278183493"><ele>19.4</ele><time>2026-04-19T09:52:06.017Z</time></trkpt><trkpt lat="37.96604308505123" lon="15.385895960968439"><ele>18.8</ele><time>2026-04-19T09:52:07.017Z</time></trkpt><trkpt lat="37.966059290368946" lon="15.386013661077836"><ele>18.2</ele><time>2026-04-19T09:52:08.017Z</time></trkpt><trkpt lat="37.96608030810976" lon="15.386119247035468"><ele>17.6</ele><time>2026-04-19T09:52:09.017Z</time></trkpt><trkpt lat="37.96611947210952" lon="15.386230799836166"><ele>17.0</ele><time>2026-04-19T09:52:10.017Z</time></trkpt><trkpt lat="37.96612773273128" lon="15.386338050581548"><ele>16.25</ele><time>2026-04-19T09:52:11.017Z</time></trkpt><trkpt lat="37.966095936386445" lon="15.386457754662962"><ele>15.5</ele><time>2026-04-19T09:52:12.017Z</time></trkpt><trkpt lat="37.96606752282599" lon="15.386606799534638"><ele>14.75</ele><time>2026-04-19T09:52:13.017Z</time></trkpt><trkpt lat="37.96597226424683" lon="15.386763551753953"><ele>14.0</ele><time>2026-04-19T09:52:14.017Z</time></trkpt><trkpt lat="37.96591653654269" lon="15.386910152016672"><ele>14.0</ele><time>2026-04-19T09:52:15.017Z</time></trkpt><trkpt lat="37.965869304270036" lon="15.387024175165058"><ele>14.0</ele><time>2026-04-19T09:52:16.017Z</time></trkpt><trkpt lat="37.965840437425655" lon="15.387110433315396"><ele>14.0</ele><time>2026-04-19T09:52:17.017Z</time></trkpt><trkpt lat="37.965853247343574" lon="15.387240629197716"><ele>14.0</ele><time>2026-04-19T09:52:19.017Z</time></trkpt><trkpt lat="37.96601545772242" lon="15.38743318498532"><ele>13.666666666666668</ele><time>2026-04-19T09:52:21.017Z</time></trkpt><trkpt lat="37.96615976103552" lon="15.387536893701435"><ele>13.333333333333332</ele><time>2026-04-19T09:52:22.017Z</time></trkpt><trkpt lat="37.96630806794334" lon="15.387651455230467"><ele>13.0</ele><time>2026-04-19T09:52:23.017Z</time></trkpt><trkpt lat="37.9664560623737" lon="15.38777592099789"><ele>13.0</ele><time>2026-04-19T09:52:24.017Z</time></trkpt><trkpt lat="37.96660035553001" lon="15.387904721406914"><ele>13.0</ele><time>2026-04-19T09:52:25.017Z</time></trkpt><trkpt lat="37.96675039418838" lon="15.388039130637168"><ele>13.0</ele><time>2026-04-19T09:52:26.017Z</time></trkpt><trkpt lat="37.96690337896097" lon="15.388178415113803"><ele>12.666666666666666</ele><time>2026-04-19T09:52:27.017Z</time></trkpt><trkpt lat="37.96706233175193" lon="15.388318155080713"><ele>12.333333333333332</ele><time>2026-04-19T09:52:28.017Z</time></trkpt><trkpt lat="37.96720802859434" lon="15.388445882497763"><ele>12.0</ele><time>2026-04-19T09:52:29.017Z</time></trkpt><trkpt lat="37.96734455021812" lon="15.388565113079078"><ele>12.0</ele><time>2026-04-19T09:52:30.017Z</time></trkpt><trkpt lat="37.96747817490312" lon="15.388686942046371"><ele>12.0</ele><time>2026-04-19T09:52:31.017Z</time></trkpt><trkpt lat="37.967601866989604" lon="15.388820457359675"><ele>12.0</ele><time>2026-04-19T09:52:32.017Z</time></trkpt><trkpt lat="37.967737802454536" lon="15.388944906587858"><ele>11.666666666666666</ele><time>2026-04-19T09:52:33.017Z</time></trkpt><trkpt lat="37.967875985133745" lon="15.389071390628889"><ele>11.333333333333332</ele><time>2026-04-19T09:52:34.017Z</time></trkpt><trkpt lat="37.96801177878149" lon="15.38919562944166"><ele>11.0</ele><time>2026-04-19T09:52:35.017Z</time></trkpt><trkpt lat="37.96813851852848" lon="15.389311584172209"><ele>11.0</ele><time>2026-04-19T09:52:36.017Z</time></trkpt><trkpt lat="37.968259530168744" lon="15.389424357604257"><ele>11.0</ele><time>2026-04-19T09:52:37.017Z</time></trkpt><trkpt lat="37.9683807521558" lon="15.389535640800084"><ele>11.0</ele><time>2026-04-19T09:52:38.017Z</time></trkpt><trkpt lat="37.968499905349404" lon="15.389645024875902"><ele>11.0</ele><time>2026-04-19T09:52:39.017Z</time></trkpt><trkpt lat="37.96861846620291" lon="15.38975470921494"><ele>11.0</ele><time>2026-04-19T09:52:40.017Z</time></trkpt><trkpt lat="37.968732442739956" lon="15.38986037462273"><ele>11.0</ele><time>2026-04-19T09:52:41.017Z</time></trkpt><trkpt lat="37.96884731607024" lon="15.389967585060827"><ele>11.0</ele><time>2026-04-19T09:52:42.017Z</time></trkpt><trkpt lat="37.96895685432343" lon="15.390070467260678"><ele>11.0</ele><time>2026-04-19T09:52:43.017Z</time></trkpt><trkpt lat="37.96907560029199" lon="15.390181547886941"><ele>11.0</ele><time>2026-04-19T09:52:44.017Z</time></trkpt><trkpt lat="37.9691954664096" lon="15.390292730440859"><ele>11.0</ele><time>2026-04-19T09:52:45.019Z</time></trkpt><trkpt lat="37.96930772784141" lon="15.390396859289527"><ele>11.0</ele><time>2026-04-19T09:52:46.019Z</time></trkpt><trkpt lat="37.96942782755185" lon="15.390508400681309"><ele>11.0</ele><time>2026-04-19T09:52:47.019Z</time></trkpt><trkpt lat="37.96955844209006" lon="15.390630298581424"><ele>11.0</ele><time>2026-04-19T09:52:48.019Z</time></trkpt><trkpt lat="37.969683392808165" lon="15.390746910671353"><ele>11.0</ele><time>2026-04-19T09:52:49.019Z</time></trkpt><trkpt lat="37.96978856205523" lon="15.390847009055202"><ele>11.0</ele><time>2026-04-19T09:52:50.019Z</time></trkpt><trkpt lat="37.96987823387245" lon="15.390927274118795"><ele>11.0</ele><time>2026-04-19T09:52:51.018Z</time></trkpt><trkpt lat="37.96995311647788" lon="15.3909975596409"><ele>11.0</ele><time>2026-04-19T09:52:52.018Z</time></trkpt><trkpt lat="37.970019045585055" lon="15.391055558688858"><ele>11.0</ele><time>2026-04-19T09:52:53.018Z</time></trkpt><trkpt lat="37.97008711353318" lon="15.391113952006254"><ele>11.0</ele><time>2026-04-19T09:52:54.019Z</time></trkpt><trkpt lat="37.970173965929064" lon="15.39119164055714"><ele>11.0</ele><time>2026-04-19T09:52:55.018Z</time></trkpt><trkpt lat="37.970265841992884" lon="15.391294524611586"><ele>11.0</ele><time>2026-04-19T09:52:56.018Z</time></trkpt><trkpt lat="37.97038440124025" lon="15.391382390421036"><ele>11.333333333333332</ele><time>2026-04-19T09:52:57.018Z</time></trkpt><trkpt lat="37.97049063646425" lon="15.391507822614006"><ele>11.666666666666666</ele><time>2026-04-19T09:52:58.018Z</time></trkpt><trkpt lat="37.97062330308123" lon="15.391608409459757"><ele>12.0</ele><time>2026-04-19T09:52:59.018Z</time></trkpt><trkpt lat="37.97074984467371" lon="15.39173513563028"><ele>13.0</ele><time>2026-04-19T09:53:00.018Z</time></trkpt><trkpt lat="37.97087573434847" lon="15.391859128410236"><ele>14.0</ele><time>2026-04-19T09:53:01.018Z</time></trkpt><trkpt lat="37.97099738203065" lon="15.391968854338302"><ele>15.0</ele><time>2026-04-19T09:53:02.018Z</time></trkpt><trkpt lat="37.971113420086155" lon="15.392076136244043"><ele>13.666666666666666</ele><time>2026-04-19T09:53:03.018Z</time></trkpt><trkpt lat="37.97122131577559" lon="15.39219873755929"><ele>12.333333333333332</ele><time>2026-04-19T09:53:04.018Z</time></trkpt><trkpt lat="37.97134237560788" lon="15.392313537258886"><ele>11.0</ele><time>2026-04-19T09:53:05.018Z</time></trkpt><trkpt lat="37.971469420179645" lon="15.392434012233192"><ele>11.0</ele><time>2026-04-19T09:53:06.018Z</time></trkpt><trkpt lat="37.97161400970391" lon="15.392550634962655"><ele>11.0</ele><time>2026-04-19T09:53:07.018Z</time></trkpt><trkpt lat="37.97174946561965" lon="15.392681318734612"><ele>11.0</ele><time>2026-04-19T09:53:08.018Z</time></trkpt><trkpt lat="37.97188056090145" lon="15.392801147206322"><ele>10.666666666666666</ele><time>2026-04-19T09:53:09.018Z</time></trkpt><trkpt lat="37.97199737016007" lon="15.39293637729216"><ele>10.333333333333334</ele><time>2026-04-19T09:53:10.018Z</time></trkpt><trkpt lat="37.972125924984226" lon="15.393057246850908"><ele>10.0</ele><time>2026-04-19T09:53:11.018Z</time></trkpt><trkpt lat="37.9722570219936" lon="15.393174920612838"><ele>10.0</ele><time>2026-04-19T09:53:12.018Z</time></trkpt><trkpt lat="37.97238309338242" lon="15.393284276193443"><ele>10.0</ele><time>2026-04-19T09:53:13.018Z</time></trkpt><trkpt lat="37.972500543142765" lon="15.39338547658956"><ele>10.0</ele><time>2026-04-19T09:53:14.018Z</time></trkpt><trkpt lat="37.972612954035974" lon="15.393480814479242"><ele>10.0</ele><time>2026-04-19T09:53:15.018Z</time></trkpt><trkpt lat="37.97272100739959" lon="15.393568243157336"><ele>10.5</ele><time>2026-04-19T09:53:16.018Z</time></trkpt><trkpt lat="37.97283328720445" lon="15.393633205219574"><ele>11.0</ele><time>2026-04-19T09:53:17.018Z</time></trkpt><trkpt lat="37.97292634288208" lon="15.393736097664455"><ele>11.5</ele><time>2026-04-19T09:53:18.018Z</time></trkpt><trkpt lat="37.973021108725106" lon="15.393814668794196"><ele>12.0</ele><time>2026-04-19T09:53:19.018Z</time></trkpt><trkpt lat="37.97310270735248" lon="15.393882322565728"><ele>12.0</ele><time>2026-04-19T09:53:20.018Z</time></trkpt><trkpt lat="37.9731838015793" lon="15.393949558429334"><ele>12.0</ele><time>2026-04-19T09:53:21.018Z</time></trkpt><trkpt lat="37.97329225103524" lon="15.394017726269798"><ele>12.0</ele><time>2026-04-19T09:53:22.018Z</time></trkpt><trkpt lat="37.97337513213698" lon="15.394119848868565"><ele>12.0</ele><time>2026-04-19T09:53:23.018Z</time></trkpt><trkpt lat="37.97345623972327" lon="15.394180706591174"><ele>12.0</ele><time>2026-04-19T09:53:24.018Z</time></trkpt><trkpt lat="37.9735368078657" lon="15.394231540812516"><ele>12.75</ele><time>2026-04-19T09:53:25.018Z</time></trkpt><trkpt lat="37.973634020156" lon="15.394317602771652"><ele>13.5</ele><time>2026-04-19T09:53:26.018Z</time></trkpt><trkpt lat="37.9737354133285" lon="15.394416999706566"><ele>14.25</ele><time>2026-04-19T09:53:27.018Z</time></trkpt><trkpt lat="37.97384913591589" lon="15.394515824927478"><ele>15.0</ele><time>2026-04-19T09:53:28.018Z</time></trkpt><trkpt lat="37.973955513984954" lon="15.394607938914424"><ele>15.25</ele><time>2026-04-19T09:53:29.018Z</time></trkpt><trkpt lat="37.97405305207161" lon="15.394720755758053"><ele>15.5</ele><time>2026-04-19T09:53:30.018Z</time></trkpt><trkpt lat="37.974158799335996" lon="15.394809551028304"><ele>15.75</ele><time>2026-04-19T09:53:31.018Z</time></trkpt><trkpt lat="37.974252162585536" lon="15.39488604422395"><ele>16.0</ele><time>2026-04-19T09:53:32.018Z</time></trkpt><trkpt lat="37.97434213366231" lon="15.394962337772203"><ele>16.0</ele><time>2026-04-19T09:53:33.018Z</time></trkpt><trkpt lat="37.97443438500332" lon="15.395045694049456"><ele>16.0</ele><time>2026-04-19T09:53:34.018Z</time></trkpt><trkpt lat="37.97452823827388" lon="15.39512662947143"><ele>16.0</ele><time>2026-04-19T09:53:35.018Z</time></trkpt><trkpt lat="37.97462524924807" lon="15.39521071146794"><ele>16.0</ele><time>2026-04-19T09:53:36.018Z</time></trkpt><trkpt lat="37.974728116916346" lon="15.395297063911736"><ele>16.0</ele><time>2026-04-19T09:53:37.018Z</time></trkpt><trkpt lat="37.97484679733347" lon="15.395399765854073"><ele>16.0</ele><time>2026-04-19T09:53:38.018Z</time></trkpt><trkpt lat="37.974971706381986" lon="15.395509318714657"><ele>16.0</ele><time>2026-04-19T09:53:39.018Z</time></trkpt><trkpt lat="37.97508588714427" lon="15.395605932565099"><ele>16.0</ele><time>2026-04-19T09:53:40.018Z</time></trkpt><trkpt lat="37.97517626137949" lon="15.395722723327756"><ele>15.666666666666666</ele><time>2026-04-19T09:53:41.018Z</time></trkpt><trkpt lat="37.975259071366885" lon="15.395792076168402"><ele>15.333333333333332</ele><time>2026-04-19T09:53:42.018Z</time></trkpt><trkpt lat="37.9753246260112" lon="15.395849488866974"><ele>15.0</ele><time>2026-04-19T09:53:43.018Z</time></trkpt><trkpt lat="37.97538338247408" lon="15.395899599304105"><ele>14.666666666666668</ele><time>2026-04-19T09:53:44.018Z</time></trkpt><trkpt lat="37.97544067198552" lon="15.39594230866762"><ele>14.333333333333334</ele><time>2026-04-19T09:53:45.018Z</time></trkpt><trkpt lat="37.97550629044797" lon="15.395988458697392"><ele>14.0</ele><time>2026-04-19T09:53:46.018Z</time></trkpt><trkpt lat="37.97559089091449" lon="15.396046358381767"><ele>14.0</ele><time>2026-04-19T09:53:47.018Z</time></trkpt><trkpt lat="37.97567871674025" lon="15.396147984106088"><ele>14.0</ele><time>2026-04-19T09:53:48.018Z</time></trkpt><trkpt lat="37.97578711773216" lon="15.3962446063157"><ele>14.0</ele><time>2026-04-19T09:53:49.018Z</time></trkpt><trkpt lat="37.97589473410723" lon="15.396363403744711"><ele>14.0</ele><time>2026-04-19T09:53:50.018Z</time></trkpt><trkpt lat="37.97602368059674" lon="15.396487921757982"><ele>13.666666666666668</ele><time>2026-04-19T09:53:51.018Z</time></trkpt><trkpt lat="37.97615675267886" lon="15.396620479449636"><ele>13.333333333333332</ele><time>2026-04-19T09:53:52.018Z</time></trkpt><trkpt lat="37.97629362571233" lon="15.396758801676057"><ele>13.0</ele><time>2026-04-19T09:53:53.018Z</time></trkpt><trkpt lat="37.97643207513864" lon="15.39689890452768"><ele>13.0</ele><time>2026-04-19T09:53:54.018Z</time></trkpt><trkpt lat="37.97656115046574" lon="15.397028396222737"><ele>13.0</ele><time>2026-04-19T09:53:55.018Z</time></trkpt><trkpt lat="37.97667865736002" lon="15.397150690446209"><ele>13.0</ele><time>2026-04-19T09:53:56.018Z</time></trkpt><trkpt lat="37.976784941785695" lon="15.397259045852458"><ele>13.0</ele><time>2026-04-19T09:53:57.018Z</time></trkpt><trkpt lat="37.97688322009434" lon="15.39735632606274"><ele>13.0</ele><time>2026-04-19T09:53:58.018Z</time></trkpt><trkpt lat="37.97697266712813" lon="15.397447056782363"><ele>13.0</ele><time>2026-04-19T09:53:59.018Z</time></trkpt><trkpt lat="37.977051658245806" lon="15.397530565506633"><ele>13.0</ele><time>2026-04-19T09:54:00.018Z</time></trkpt><trkpt lat="37.9771438727614" lon="15.397617329366435"><ele>13.0</ele><time>2026-04-19T09:54:01.018Z</time></trkpt><trkpt lat="37.977241701117926" lon="15.397710859086798"><ele>13.0</ele><time>2026-04-19T09:54:02.018Z</time></trkpt><trkpt lat="37.97732961632044" lon="15.397827339776512"><ele>13.0</ele><time>2026-04-19T09:54:03.018Z</time></trkpt><trkpt lat="37.977428858299305" lon="15.397940042998755"><ele>13.0</ele><time>2026-04-19T09:54:04.018Z</time></trkpt><trkpt lat="37.97752234882478" lon="15.398039735442435"><ele>12.75</ele><time>2026-04-19T09:54:05.018Z</time></trkpt><trkpt lat="37.97761143901889" lon="15.39813571370207"><ele>12.5</ele><time>2026-04-19T09:54:06.018Z</time></trkpt><trkpt lat="37.97771343942348" lon="15.39823285175387"><ele>12.25</ele><time>2026-04-19T09:54:07.018Z</time></trkpt><trkpt lat="37.977817336529014" lon="15.398323491214299"><ele>12.0</ele><time>2026-04-19T09:54:08.018Z</time></trkpt><trkpt lat="37.97791263919696" lon="15.398397138166553"><ele>12.0</ele><time>2026-04-19T09:54:09.018Z</time></trkpt><trkpt lat="37.97799842818518" lon="15.398463091857781"><ele>12.0</ele><time>2026-04-19T09:54:10.018Z</time></trkpt><trkpt lat="37.97808316693169" lon="15.398521584630721"><ele>12.0</ele><time>2026-04-19T09:54:11.018Z</time></trkpt><trkpt lat="37.97817192743172" lon="15.398579673981242"><ele>12.0</ele><time>2026-04-19T09:54:12.018Z</time></trkpt><trkpt lat="37.97825614508577" lon="15.398640957544494"><ele>12.0</ele><time>2026-04-19T09:54:13.018Z</time></trkpt><trkpt lat="37.97833856499957" lon="15.398702131611163"><ele>12.0</ele><time>2026-04-19T09:54:14.018Z</time></trkpt><trkpt lat="37.97842129246396" lon="15.398764281827635"><ele>12.0</ele><time>2026-04-19T09:54:15.018Z</time></trkpt><trkpt lat="37.97850496713165" lon="15.398826215783567"><ele>12.0</ele><time>2026-04-19T09:54:16.018Z</time></trkpt><trkpt lat="37.978580650429876" lon="15.398882911022037"><ele>12.0</ele><time>2026-04-19T09:54:17.018Z</time></trkpt><trkpt lat="37.978655624801355" lon="15.398935922406078"><ele>12.0</ele><time>2026-04-19T09:54:18.018Z</time></trkpt><trkpt lat="37.97873550777117" lon="15.398993081846596"><ele>12.0</ele><time>2026-04-19T09:54:19.018Z</time></trkpt><trkpt lat="37.97883387592068" lon="15.39905822442993"><ele>12.0</ele><time>2026-04-19T09:54:20.018Z</time></trkpt><trkpt lat="37.978960721562125" lon="15.39913780923494"><ele>12.0</ele><time>2026-04-19T09:54:21.018Z</time></trkpt><trkpt lat="37.97908709827509" lon="15.399251397697984"><ele>12.0</ele><time>2026-04-19T09:54:22.018Z</time></trkpt><trkpt lat="37.97923630644448" lon="15.399345959196765"><ele>12.666666666666668</ele><time>2026-04-19T09:54:23.018Z</time></trkpt><trkpt lat="37.97938644580341" lon="15.39947401116137"><ele>13.333333333333334</ele><time>2026-04-19T09:54:24.018Z</time></trkpt><trkpt lat="37.97953875878864" lon="15.399587817542066"><ele>14.0</ele><time>2026-04-19T09:54:25.018Z</time></trkpt><trkpt lat="37.979681463514446" lon="15.399689319144665"><ele>14.0</ele><time>2026-04-19T09:54:26.018Z</time></trkpt><trkpt lat="37.979805327327895" lon="15.399783556198829"><ele>14.0</ele><time>2026-04-19T09:54:27.018Z</time></trkpt><trkpt lat="37.97991889528818" lon="15.399899545334275"><ele>14.0</ele><time>2026-04-19T09:54:28.018Z</time></trkpt><trkpt lat="37.98002738662522" lon="15.400037233918983"><ele>14.0</ele><time>2026-04-19T09:54:29.018Z</time></trkpt><trkpt lat="37.98014201493354" lon="15.400194027137161"><ele>14.25</ele><time>2026-04-19T09:54:30.018Z</time></trkpt><trkpt lat="37.98025043524673" lon="15.400341353870173"><ele>14.5</ele><time>2026-04-19T09:54:31.018Z</time></trkpt><trkpt lat="37.98035859657477" lon="15.400470333959909"><ele>14.75</ele><time>2026-04-19T09:54:32.018Z</time></trkpt><trkpt lat="37.980466323684695" lon="15.400585179972794"><ele>15.0</ele><time>2026-04-19T09:54:33.018Z</time></trkpt><trkpt lat="37.98058637612705" lon="15.400696583041674"><ele>15.0</ele><time>2026-04-19T09:54:34.018Z</time></trkpt><trkpt lat="37.9807172293777" lon="15.400784451621263"><ele>15.0</ele><time>2026-04-19T09:54:35.018Z</time></trkpt><trkpt lat="37.98084775598148" lon="15.400846766946817"><ele>15.0</ele><time>2026-04-19T09:54:36.018Z</time></trkpt><trkpt lat="37.980964008186824" lon="15.400892594536572"><ele>15.0</ele><time>2026-04-19T09:54:37.018Z</time></trkpt><trkpt lat="37.98107481958532" lon="15.400940302133845"><ele>15.0</ele><time>2026-04-19T09:54:38.018Z</time></trkpt><trkpt lat="37.98119270860451" lon="15.401002214010916"><ele>15.0</ele><time>2026-04-19T09:54:39.018Z</time></trkpt><trkpt lat="37.98131943944263" lon="15.4011027184097"><ele>15.0</ele><time>2026-04-19T09:54:40.018Z</time></trkpt><trkpt lat="37.9814448742152" lon="15.401232277707146"><ele>15.0</ele><time>2026-04-19T09:54:41.018Z</time></trkpt><trkpt lat="37.98157151492231" lon="15.401362115517129"><ele>15.25</ele><time>2026-04-19T09:54:42.018Z</time></trkpt><trkpt lat="37.98169190382268" lon="15.401484071423333"><ele>15.5</ele><time>2026-04-19T09:54:43.018Z</time></trkpt><trkpt lat="37.98179847197048" lon="15.401590640489252"><ele>15.75</ele><time>2026-04-19T09:54:44.018Z</time></trkpt><trkpt lat="37.98190540913441" lon="15.401697816895416"><ele>16.0</ele><time>2026-04-19T09:54:45.018Z</time></trkpt><trkpt lat="37.98200271987708" lon="15.401831283095708"><ele>16.0</ele><time>2026-04-19T09:54:46.018Z</time></trkpt><trkpt lat="37.98210257910103" lon="15.401927391206474"><ele>16.0</ele><time>2026-04-19T09:54:47.018Z</time></trkpt><trkpt lat="37.98219352085187" lon="15.40201754486002"><ele>16.0</ele><time>2026-04-19T09:54:48.018Z</time></trkpt><trkpt lat="37.98227697491243" lon="15.4021063844569"><ele>16.0</ele><time>2026-04-19T09:54:49.018Z</time></trkpt><trkpt lat="37.98235234540577" lon="15.402176160389148"><ele>16.0</ele><time>2026-04-19T09:54:50.018Z</time></trkpt><trkpt lat="37.98241378646011" lon="15.402240495622214"><ele>15.833333333333332</ele><time>2026-04-19T09:54:51.02Z</time></trkpt><trkpt lat="37.98247113234222" lon="15.402302168244331"><ele>15.666666666666666</ele><time>2026-04-19T09:54:52.021Z</time></trkpt><trkpt lat="37.98252348500481" lon="15.402357390899963"><ele>15.5</ele><time>2026-04-19T09:54:53.021Z</time></trkpt><trkpt lat="37.98257158956665" lon="15.402415574711839"><ele>15.333333333333332</ele><time>2026-04-19T09:54:54.02Z</time></trkpt><trkpt lat="37.9826340649371" lon="15.402477395457911"><ele>15.166666666666666</ele><time>2026-04-19T09:54:55.02Z</time></trkpt><trkpt lat="37.982697952426484" lon="15.402546739243533"><ele>15.0</ele><time>2026-04-19T09:54:56.02Z</time></trkpt><trkpt lat="37.98277191898646" lon="15.402619662293846"><ele>15.0</ele><time>2026-04-19T09:54:57.02Z</time></trkpt><trkpt lat="37.982842435304796" lon="15.402694747801528"><ele>15.0</ele><time>2026-04-19T09:54:58.02Z</time></trkpt><trkpt lat="37.98291760434633" lon="15.402767375829034"><ele>15.0</ele><time>2026-04-19T09:54:59.02Z</time></trkpt><trkpt lat="37.9830122649223" lon="15.402847265360732"><ele>15.0</ele><time>2026-04-19T09:55:00.02Z</time></trkpt><trkpt lat="37.98308815661502" lon="15.402970587085044"><ele>15.0</ele><time>2026-04-19T09:55:01.02Z</time></trkpt><trkpt lat="37.98318447197309" lon="15.40306734809503"><ele>15.5</ele><time>2026-04-19T09:55:02.02Z</time></trkpt><trkpt lat="37.98327896281515" lon="15.403175511047678"><ele>16.0</ele><time>2026-04-19T09:55:03.02Z</time></trkpt><trkpt lat="37.9833806418287" lon="15.403277210567579"><ele>16.5</ele><time>2026-04-19T09:55:04.02Z</time></trkpt><trkpt lat="37.983509246454986" lon="15.403380875135612"><ele>17.0</ele><time>2026-04-19T09:55:05.02Z</time></trkpt><trkpt lat="37.98365502222134" lon="15.403531408859607"><ele>17.0</ele><time>2026-04-19T09:55:06.02Z</time></trkpt><trkpt lat="37.983789903259826" lon="15.403687785202402"><ele>17.0</ele><time>2026-04-19T09:55:07.02Z</time></trkpt><trkpt lat="37.98392930140727" lon="15.403836866420354"><ele>17.0</ele><time>2026-04-19T09:55:08.02Z</time></trkpt><trkpt lat="37.9840872073401" lon="15.403988133529106"><ele>17.0</ele><time>2026-04-19T09:55:09.02Z</time></trkpt><trkpt lat="37.98425533661127" lon="15.404146882561301"><ele>17.0</ele><time>2026-04-19T09:55:10.02Z</time></trkpt><trkpt lat="37.98441827084825" lon="15.40430441581915"><ele>17.0</ele><time>2026-04-19T09:55:11.02Z</time></trkpt><trkpt lat="37.98456705896809" lon="15.404453023111074"><ele>17.0</ele><time>2026-04-19T09:55:12.02Z</time></trkpt><trkpt lat="37.98470743894434" lon="15.40459027863348"><ele>17.0</ele><time>2026-04-19T09:55:13.02Z</time></trkpt><trkpt lat="37.98484899625632" lon="15.40471642201958"><ele>17.0</ele><time>2026-04-19T09:55:14.02Z</time></trkpt><trkpt lat="37.984980872943005" lon="15.404838278159145"><ele>17.0</ele><time>2026-04-19T09:55:15.02Z</time></trkpt><trkpt lat="37.98511134110009" lon="15.404948372981798"><ele>17.0</ele><time>2026-04-19T09:55:16.02Z</time></trkpt><trkpt lat="37.98524279501922" lon="15.405058915190338"><ele>17.0</ele><time>2026-04-19T09:55:17.02Z</time></trkpt><trkpt lat="37.985368596428884" lon="15.405172513137154"><ele>17.0</ele><time>2026-04-19T09:55:18.02Z</time></trkpt><trkpt lat="37.98548658629429" lon="15.405285316467284"><ele>17.0</ele><time>2026-04-19T09:55:19.02Z</time></trkpt><trkpt lat="37.985603538293404" lon="15.405395290417646"><ele>17.0</ele><time>2026-04-19T09:55:20.02Z</time></trkpt><trkpt lat="37.98571844329784" lon="15.405506294720533"><ele>17.0</ele><time>2026-04-19T09:55:21.02Z</time></trkpt><trkpt lat="37.9858332914195" lon="15.40561937940571"><ele>17.333333333333336</ele><time>2026-04-19T09:55:22.02Z</time></trkpt><trkpt lat="37.985948459100875" lon="15.40573430004442"><ele>17.666666666666668</ele><time>2026-04-19T09:55:23.02Z</time></trkpt><trkpt lat="37.98607100144496" lon="15.405854223919649"><ele>18.0</ele><time>2026-04-19T09:55:24.02Z</time></trkpt><trkpt lat="37.98619551575992" lon="15.405973306772408"><ele>18.0</ele><time>2026-04-19T09:55:25.02Z</time></trkpt><trkpt lat="37.98631614206831" lon="15.406098314097681"><ele>18.0</ele><time>2026-04-19T09:55:26.02Z</time></trkpt><trkpt lat="37.9864400731284" lon="15.406225753153308"><ele>18.0</ele><time>2026-04-19T09:55:27.02Z</time></trkpt><trkpt lat="37.98655916814857" lon="15.406353661969735"><ele>18.666666666666668</ele><time>2026-04-19T09:55:28.02Z</time></trkpt><trkpt lat="37.98667835002093" lon="15.406477200268275"><ele>19.333333333333336</ele><time>2026-04-19T09:55:29.02Z</time></trkpt><trkpt lat="37.98679739123692" lon="15.40661490245476"><ele>20.0</ele><time>2026-04-19T09:55:30.02Z</time></trkpt><trkpt lat="37.986918516311604" lon="15.406746297995173"><ele>20.0</ele><time>2026-04-19T09:55:31.02Z</time></trkpt><trkpt lat="37.987035560004735" lon="15.40687660300853"><ele>20.0</ele><time>2026-04-19T09:55:32.02Z</time></trkpt><trkpt lat="37.98715619963522" lon="15.407003814999307"><ele>20.0</ele><time>2026-04-19T09:55:33.02Z</time></trkpt><trkpt lat="37.98727111021182" lon="15.407127679751527"><ele>19.25</ele><time>2026-04-19T09:55:34.02Z</time></trkpt><trkpt lat="37.98737929746881" lon="15.407243279755725"><ele>18.5</ele><time>2026-04-19T09:55:35.02Z</time></trkpt><trkpt lat="37.987485876628504" lon="15.407360509591784"><ele>17.75</ele><time>2026-04-19T09:55:36.02Z</time></trkpt><trkpt lat="37.98759643878904" lon="15.407482873492539"><ele>17.0</ele><time>2026-04-19T09:55:37.02Z</time></trkpt><trkpt lat="37.98770240331503" lon="15.407595411350083"><ele>17.0</ele><time>2026-04-19T09:55:38.02Z</time></trkpt><trkpt lat="37.987778628244406" lon="15.407725114924768"><ele>17.0</ele><time>2026-04-19T09:55:39.02Z</time></trkpt><trkpt lat="37.987865171520085" lon="15.40781698327105"><ele>17.0</ele><time>2026-04-19T09:55:40.02Z</time></trkpt><trkpt lat="37.987939941130996" lon="15.407906360554772"><ele>17.0</ele><time>2026-04-19T09:55:41.02Z</time></trkpt><trkpt lat="37.98801322407395" lon="15.407996384983424"><ele>17.0</ele><time>2026-04-19T09:55:42.02Z</time></trkpt><trkpt lat="37.98810037309731" lon="15.408094392345628"><ele>16.333333333333336</ele><time>2026-04-19T09:55:43.02Z</time></trkpt><trkpt lat="37.9882042979242" lon="15.408208675133167"><ele>15.666666666666668</ele><time>2026-04-19T09:55:44.02Z</time></trkpt><trkpt lat="37.98831633861677" lon="15.40834297885689"><ele>15.0</ele><time>2026-04-19T09:55:45.02Z</time></trkpt><trkpt lat="37.988434280291315" lon="15.40848426953409"><ele>15.0</ele><time>2026-04-19T09:55:46.02Z</time></trkpt><trkpt lat="37.98856290705626" lon="15.408631671724478"><ele>15.0</ele><time>2026-04-19T09:55:47.02Z</time></trkpt><trkpt lat="37.988692480130744" lon="15.408779971305067"><ele>15.0</ele><time>2026-04-19T09:55:48.02Z</time></trkpt><trkpt lat="37.98880829509899" lon="15.40890772624297"><ele>14.5</ele><time>2026-04-19T09:55:49.02Z</time></trkpt><trkpt lat="37.98890684204429" lon="15.409018997799581"><ele>14.0</ele><time>2026-04-19T09:55:50.02Z</time></trkpt><trkpt lat="37.989000678944294" lon="15.409118348810757"><ele>13.5</ele><time>2026-04-19T09:55:51.02Z</time></trkpt><trkpt lat="37.98908736650116" lon="15.409216527695465"><ele>13.0</ele><time>2026-04-19T09:55:52.02Z</time></trkpt><trkpt lat="37.98916048659004" lon="15.409327809675876"><ele>12.75</ele><time>2026-04-19T09:55:53.02Z</time></trkpt><trkpt lat="37.989246210570144" lon="15.409434412902504"><ele>12.5</ele><time>2026-04-19T09:55:54.02Z</time></trkpt><trkpt lat="37.989340570346265" lon="15.409551794745505"><ele>12.25</ele><time>2026-04-19T09:55:55.02Z</time></trkpt><trkpt lat="37.98944304199339" lon="15.409680962770313"><ele>12.0</ele><time>2026-04-19T09:55:56.02Z</time></trkpt><trkpt lat="37.98954687998606" lon="15.40981833914603"><ele>12.0</ele><time>2026-04-19T09:55:57.02Z</time></trkpt><trkpt lat="37.98965362586186" lon="15.409960934085893"><ele>12.0</ele><time>2026-04-19T09:55:58.02Z</time></trkpt><trkpt lat="37.98976318634152" lon="15.410106964739198"><ele>12.0</ele><time>2026-04-19T09:55:59.02Z</time></trkpt><trkpt lat="37.98988613456164" lon="15.410270815606586"><ele>12.0</ele><time>2026-04-19T09:56:00.02Z</time></trkpt><trkpt lat="37.99003176697977" lon="15.410464897651785"><ele>12.0</ele><time>2026-04-19T09:56:01.02Z</time></trkpt><trkpt lat="37.99020097917595" lon="15.410676942735286"><ele>12.0</ele><time>2026-04-19T09:56:02.02Z</time></trkpt><trkpt lat="37.99038819691341" lon="15.410875578135169"><ele>12.0</ele><time>2026-04-19T09:56:03.02Z</time></trkpt><trkpt lat="37.99054075288454" lon="15.411062092895005"><ele>12.0</ele><time>2026-04-19T09:56:04.02Z</time></trkpt><trkpt lat="37.990683999448756" lon="15.411231560194379"><ele>12.0</ele><time>2026-04-19T09:56:05.02Z</time></trkpt><trkpt lat="37.99082260618035" lon="15.411374759888567"><ele>12.75</ele><time>2026-04-19T09:56:06.02Z</time></trkpt><trkpt lat="37.990943275183064" lon="15.411506055265257"><ele>13.5</ele><time>2026-04-19T09:56:07.02Z</time></trkpt><trkpt lat="37.991044836446264" lon="15.411623625143987"><ele>14.25</ele><time>2026-04-19T09:56:08.02Z</time></trkpt><trkpt lat="37.991149471419796" lon="15.411737820529789"><ele>15.0</ele><time>2026-04-19T09:56:09.02Z</time></trkpt><trkpt lat="37.99124644702885" lon="15.411842738485843"><ele>15.0</ele><time>2026-04-19T09:56:10.02Z</time></trkpt><trkpt lat="37.99131272280822" lon="15.41197340776548"><ele>15.0</ele><time>2026-04-19T09:56:11.02Z</time></trkpt><trkpt lat="37.991400560509874" lon="15.412059767031744"><ele>15.0</ele><time>2026-04-19T09:56:12.02Z</time></trkpt><trkpt lat="37.991475822389695" lon="15.412150829563352"><ele>15.0</ele><time>2026-04-19T09:56:13.02Z</time></trkpt><trkpt lat="37.991533607757795" lon="15.412215826465745"><ele>15.0</ele><time>2026-04-19T09:56:14.02Z</time></trkpt><trkpt lat="37.99159042673692" lon="15.412271390960852"><ele>15.2</ele><time>2026-04-19T09:56:16.02Z</time></trkpt><trkpt lat="37.991651787657524" lon="15.412302230096762"><ele>15.4</ele><time>2026-04-19T09:56:19.02Z</time></trkpt><trkpt lat="37.99173756334201" lon="15.41220181790629"><ele>15.600000000000001</ele><time>2026-04-19T09:56:21.02Z</time></trkpt><trkpt lat="37.991810234783934" lon="15.41210214471303"><ele>15.8</ele><time>2026-04-19T09:56:22.02Z</time></trkpt><trkpt lat="37.99187658206269" lon="15.411992998332776"><ele>16.0</ele><time>2026-04-19T09:56:23.02Z</time></trkpt><trkpt lat="37.99194534326585" lon="15.411893117139348"><ele>15.999999999999998</ele><time>2026-04-19T09:56:24.02Z</time></trkpt><trkpt lat="37.992000530897826" lon="15.411804213540206"><ele>16.0</ele><time>2026-04-19T09:56:25.02Z</time></trkpt><trkpt lat="37.992071272941686" lon="15.411760849327017"><ele>16.0</ele><time>2026-04-19T09:56:26.02Z</time></trkpt><trkpt lat="37.992118216914825" lon="15.411700084020952"><ele>16.0</ele><time>2026-04-19T09:56:27.02Z</time></trkpt><trkpt lat="37.99213401575136" lon="15.411616207531205"><ele>15.999999999999998</ele><time>2026-04-19T09:56:29.02Z</time></trkpt><trkpt lat="37.99218143453218" lon="15.411550981592736"><ele>16.0</ele><time>2026-04-19T09:56:35.02Z</time></trkpt><trkpt lat="37.99226832239877" lon="15.411598789051068"><ele>16.0</ele><time>2026-04-19T09:56:40.02Z</time></trkpt><trkpt lat="37.992314734954086" lon="15.411684715831107"><ele>16.0</ele><time>2026-04-19T09:56:44.02Z</time></trkpt><trkpt lat="37.99243289438041" lon="15.411711804495534"><ele>16.0</ele><time>2026-04-19T09:56:47.02Z</time></trkpt><trkpt lat="37.99248859550745" lon="15.411763658405258"><ele>16.0</ele><time>2026-04-19T09:56:48.02Z</time></trkpt><trkpt lat="37.99255824614955" lon="15.411849791454435"><ele>16.0</ele><time>2026-04-19T09:56:49.02Z</time></trkpt><trkpt lat="37.99265373420544" lon="15.411951177293542"><ele>15.75</ele><time>2026-04-19T09:56:50.02Z</time></trkpt><trkpt lat="37.9927719627795" lon="15.412057199032295"><ele>15.5</ele><time>2026-04-19T09:56:51.02Z</time></trkpt><trkpt lat="37.99287261726372" lon="15.412127783670329"><ele>15.25</ele><time>2026-04-19T09:56:52.02Z</time></trkpt><trkpt lat="37.99293267264621" lon="15.41223809650499"><ele>15.0</ele><time>2026-04-19T09:56:53.02Z</time></trkpt><trkpt lat="37.993008090775156" lon="15.412305183125198"><ele>15.0</ele><time>2026-04-19T09:56:54.02Z</time></trkpt><trkpt lat="37.99310205745037" lon="15.412388802486642"><ele>15.0</ele><time>2026-04-19T09:56:55.02Z</time></trkpt><trkpt lat="37.993216109996446" lon="15.412490295678081"><ele>15.0</ele><time>2026-04-19T09:56:56.02Z</time></trkpt><trkpt lat="37.993332915053465" lon="15.412569115793545"><ele>15.0</ele><time>2026-04-19T09:56:57.022Z</time></trkpt><trkpt lat="37.99343248843963" lon="15.412677770957425"><ele>15.4</ele><time>2026-04-19T09:56:58.022Z</time></trkpt><trkpt lat="37.99352627771148" lon="15.412759564853664"><ele>15.8</ele><time>2026-04-19T09:56:59.022Z</time></trkpt><trkpt lat="37.99361231155355" lon="15.412831886233938"><ele>16.2</ele><time>2026-04-19T09:57:00.022Z</time></trkpt><trkpt lat="37.993677110635446" lon="15.412899548786497"><ele>16.6</ele><time>2026-04-19T09:57:01.022Z</time></trkpt><trkpt lat="37.99379583157178" lon="15.412828998193262"><ele>17.0</ele><time>2026-04-19T09:57:02.022Z</time></trkpt><trkpt lat="37.99391292989646" lon="15.412753307081944"><ele>17.0</ele><time>2026-04-19T09:57:03.022Z</time></trkpt><trkpt lat="37.994056998181804" lon="15.412703131858986"><ele>17.0</ele><time>2026-04-19T09:57:04.022Z</time></trkpt><trkpt lat="37.994187194833025" lon="15.412643657800105"><ele>17.0</ele><time>2026-04-19T09:57:05.022Z</time></trkpt><trkpt lat="37.99432428606169" lon="15.412583263097144"><ele>17.0</ele><time>2026-04-19T09:57:06.022Z</time></trkpt><trkpt lat="37.99445516335674" lon="15.41252221731567"><ele>17.0</ele><time>2026-04-19T09:57:07.022Z</time></trkpt><trkpt lat="37.994568357549305" lon="15.412469419614366"><ele>17.0</ele><time>2026-04-19T09:57:08.022Z</time></trkpt><trkpt lat="37.99466846870842" lon="15.412422726277091"><ele>17.0</ele><time>2026-04-19T09:57:09.022Z</time></trkpt><trkpt lat="37.994774973339965" lon="15.412373053081405"><ele>17.0</ele><time>2026-04-19T09:57:10.022Z</time></trkpt><trkpt lat="37.994903734359255" lon="15.412309907982237"><ele>18.333333333333336</ele><time>2026-04-19T09:57:11.022Z</time></trkpt><trkpt lat="37.995063107384674" lon="15.412235948682447"><ele>19.666666666666668</ele><time>2026-04-19T09:57:12.022Z</time></trkpt><trkpt lat="37.99525788916017" lon="15.412173184442905"><ele>21.0</ele><time>2026-04-19T09:57:13.022Z</time></trkpt><trkpt lat="37.99542578239972" lon="15.412098572597769"><ele>21.0</ele><time>2026-04-19T09:57:14.022Z</time></trkpt><trkpt lat="37.99556937408257" lon="15.412034910682376"><ele>21.0</ele><time>2026-04-19T09:57:15.022Z</time></trkpt><trkpt lat="37.99568753535818" lon="15.411974776945783"><ele>21.0</ele><time>2026-04-19T09:57:16.022Z</time></trkpt><trkpt lat="37.99584189139845" lon="15.411939205637795"><ele>21.0</ele><time>2026-04-19T09:57:17.022Z</time></trkpt><trkpt lat="37.99599814799038" lon="15.412053783838992"><ele>21.0</ele><time>2026-04-19T09:57:18.022Z</time></trkpt><trkpt lat="37.99616143203292" lon="15.412128163281155"><ele>21.0</ele><time>2026-04-19T09:57:19.022Z</time></trkpt><trkpt lat="37.99634405886739" lon="15.412208863326473"><ele>21.0</ele><time>2026-04-19T09:57:20.022Z</time></trkpt><trkpt lat="37.996579947815476" lon="15.412317668600007"><ele>21.0</ele><time>2026-04-19T09:57:21.022Z</time></trkpt><trkpt lat="37.99683872919429" lon="15.412441246187697"><ele>21.0</ele><time>2026-04-19T09:57:22.022Z</time></trkpt><trkpt lat="37.99708853643267" lon="15.412626043294248"><ele>21.0</ele><time>2026-04-19T09:57:23.022Z</time></trkpt><trkpt lat="37.99732721922389" lon="15.412841919630214"><ele>21.0</ele><time>2026-04-19T09:57:24.022Z</time></trkpt><trkpt lat="37.997584215767034" lon="15.413073145782635"><ele>20.5</ele><time>2026-04-19T09:57:25.022Z</time></trkpt><trkpt lat="37.99784519164165" lon="15.413307952262995"><ele>20.0</ele><time>2026-04-19T09:57:26.022Z</time></trkpt><trkpt lat="37.99811780390356" lon="15.4135557248905"><ele>20.0</ele><time>2026-04-19T09:57:27.022Z</time></trkpt><trkpt lat="37.99836842872076" lon="15.41378560388802"><ele>20.0</ele><time>2026-04-19T09:57:28.022Z</time></trkpt><trkpt lat="37.99858902989565" lon="15.413989484635268"><ele>20.0</ele><time>2026-04-19T09:57:29.022Z</time></trkpt><trkpt lat="37.998789648306776" lon="15.414182424796985"><ele>20.0</ele><time>2026-04-19T09:57:30.022Z</time></trkpt><trkpt lat="37.99897152247454" lon="15.41438375205373"><ele>20.0</ele><time>2026-04-19T09:57:31.022Z</time></trkpt><trkpt lat="37.99915236067617" lon="15.414575244441362"><ele>20.0</ele><time>2026-04-19T09:57:32.022Z</time></trkpt><trkpt lat="37.99929888628253" lon="15.414758346068705"><ele>20.0</ele><time>2026-04-19T09:57:33.022Z</time></trkpt><trkpt lat="37.99941643585745" lon="15.414914283441977"><ele>20.666666666666668</ele><time>2026-04-19T09:57:34.022Z</time></trkpt><trkpt lat="37.99952541286251" lon="15.415067327665504"><ele>21.333333333333332</ele><time>2026-04-19T09:57:35.022Z</time></trkpt><trkpt lat="37.999616951230614" lon="15.415224952387002"><ele>22.0</ele><time>2026-04-19T09:57:36.022Z</time></trkpt><trkpt lat="37.999626632378096" lon="15.415420884752315"><ele>21.25</ele><time>2026-04-19T09:57:37.022Z</time></trkpt><trkpt lat="37.999583774184586" lon="15.415604777583404"><ele>20.5</ele><time>2026-04-19T09:57:38.022Z</time></trkpt><trkpt lat="37.999556696043484" lon="15.415771456375067"><ele>19.75</ele><time>2026-04-19T09:57:39.022Z</time></trkpt><trkpt lat="37.99952978117782" lon="15.415914768150458"><ele>19.0</ele><time>2026-04-19T09:57:40.022Z</time></trkpt><trkpt lat="37.99949416564447" lon="15.416048164385739"><ele>19.0</ele><time>2026-04-19T09:57:41.022Z</time></trkpt><trkpt lat="37.99944623248385" lon="15.416193552116242"><ele>19.0</ele><time>2026-04-19T09:57:42.022Z</time></trkpt><trkpt lat="37.99938144585719" lon="15.416377074470358"><ele>19.0</ele><time>2026-04-19T09:57:43.022Z</time></trkpt><trkpt lat="37.99930602561222" lon="15.416588265649448"><ele>19.333333333333332</ele><time>2026-04-19T09:57:44.022Z</time></trkpt><trkpt lat="37.99923024630172" lon="15.416800705316602"><ele>19.666666666666668</ele><time>2026-04-19T09:57:45.022Z</time></trkpt><trkpt lat="37.99915988684667" lon="15.416997950910199"><ele>20.0</ele><time>2026-04-19T09:57:46.022Z</time></trkpt><trkpt lat="37.99909559943271" lon="15.41717946231601"><ele>18.6</ele><time>2026-04-19T09:57:47.022Z</time></trkpt><trkpt lat="37.99905477880267" lon="15.41735091018844"><ele>17.2</ele><time>2026-04-19T09:57:48.022Z</time></trkpt><trkpt lat="37.99901486656986" lon="15.417489386555252"><ele>15.8</ele><time>2026-04-19T09:57:49.022Z</time></trkpt><trkpt lat="37.99896523454459" lon="15.41759786403903"><ele>14.4</ele><time>2026-04-19T09:57:50.022Z</time></trkpt><trkpt lat="37.99893765774849" lon="15.417696043263588"><ele>13.0</ele><time>2026-04-19T09:57:51.022Z</time></trkpt><trkpt lat="37.99889336458897" lon="15.417768866996427"><ele>12.666666666666666</ele><time>2026-04-19T09:57:52.022Z</time></trkpt><trkpt lat="37.9990644537727" lon="15.418019252746133"><ele>12.333333333333332</ele><time>2026-04-19T09:57:54.022Z</time></trkpt><trkpt lat="37.99918428116224" lon="15.418155925823406"><ele>12.0</ele><time>2026-04-19T09:57:55.022Z</time></trkpt><trkpt lat="37.99932933175513" lon="15.41831331094739"><ele>12.5</ele><time>2026-04-19T09:57:56.022Z</time></trkpt><trkpt lat="37.9994494206857" lon="15.418459215658528"><ele>13.0</ele><time>2026-04-19T09:57:57.022Z</time></trkpt><trkpt lat="37.99956111271607" lon="15.41857604784075"><ele>13.5</ele><time>2026-04-19T09:57:58.022Z</time></trkpt><trkpt lat="37.99966104786009" lon="15.418683112477394"><ele>14.0</ele><time>2026-04-19T09:57:59.022Z</time></trkpt><trkpt lat="37.99976415609592" lon="15.418794765718827"><ele>14.25</ele><time>2026-04-19T09:58:00.022Z</time></trkpt><trkpt lat="37.999871164519185" lon="15.4189148409426"><ele>14.5</ele><time>2026-04-19T09:58:01.022Z</time></trkpt><trkpt lat="37.99998745887321" lon="15.419033366653666"><ele>14.75</ele><time>2026-04-19T09:58:02.022Z</time></trkpt><trkpt lat="38.00009903307394" lon="15.419142732129874"><ele>15.0</ele><time>2026-04-19T09:58:03.022Z</time></trkpt><trkpt lat="38.00019680698449" lon="15.41922260964745"><ele>15.0</ele><time>2026-04-19T09:58:04.022Z</time></trkpt><trkpt lat="38.0002610129232" lon="15.419275158218449"><ele>15.0</ele><time>2026-04-19T09:58:05.022Z</time></trkpt><trkpt lat="38.000265637726045" lon="15.41935571579986"><ele>15.0</ele><time>2026-04-19T09:58:06.022Z</time></trkpt><trkpt lat="38.000355675475234" lon="15.419456868619152"><ele>15.0</ele><time>2026-04-19T09:58:08.022Z</time></trkpt><trkpt lat="38.00041392911315" lon="15.41951572938314"><ele>15.0</ele><time>2026-04-19T09:58:09.022Z</time></trkpt><trkpt lat="38.000466538585336" lon="15.41956720128805"><ele>15.0</ele><time>2026-04-19T09:58:10.022Z</time></trkpt><trkpt lat="38.00055095216796" lon="15.419621894152156"><ele>15.0</ele><time>2026-04-19T09:58:12.022Z</time></trkpt><trkpt lat="38.0006457682946" lon="15.419535807497528"><ele>15.0</ele><time>2026-04-19T09:58:48.022Z</time></trkpt><trkpt lat="38.00064656214027" lon="15.419630895818507"><ele>15.0</ele><time>2026-04-19T09:58:54.021Z</time></trkpt><trkpt lat="38.000620798198916" lon="15.419554747709936"><ele>15.0</ele><time>2026-04-19T09:59:02.021Z</time></trkpt><trkpt lat="38.00062264121338" lon="15.419474496549853"><ele>15.0</ele><time>2026-04-19T09:59:19.024Z</time></trkpt><trkpt lat="38.000688886086294" lon="15.419502943085824"><ele>15.0</ele><time>2026-04-19T09:59:45.023Z</time></trkpt><trkpt lat="38.0006368079689" lon="15.419457272736741"><ele>15.0</ele><time>2026-04-19T10:00:18.023Z</time></trkpt><trkpt lat="38.00068218374882" lon="15.419533407950942"><ele>15.0</ele><time>2026-04-19T10:00:28.023Z</time></trkpt><trkpt lat="38.0007047706613" lon="15.419629521236134"><ele>15.0</ele><time>2026-04-19T10:00:30.023Z</time></trkpt><trkpt lat="38.000614147982986" lon="15.419546169432031"><ele>15.0</ele><time>2026-04-19T10:02:08.022Z</time></trkpt></trkseg></trk></gpx>